<?xml version='1.0' encoding='UTF-8'?><gpx version="1.1" creator="JPX - https://github.com/jenetics/jpx" xmlns="http://www.topografix.com/GPX/1/1"><trk><trkseg><trkpt lat="45.57692650746405" lon="10.75433159760941"><ele>210.0</ele><time>2026-04-26T06:39:26Z</time></trkpt><trkpt lat="45.57693122577735" lon="10.754233527184201"><ele>210.0</ele><time>2026-04-26T06:39:29Z</time></trkpt><trkpt lat="45.5770209462209" lon="10.754291897564501"><ele>210.0</ele><time>2026-04-26T06:39:40.999Z</time></trkpt><trkpt lat="45.57707574994071" lon="10.754433838185301"><ele>210.0</ele><time>2026-04-26T06:39:42.999Z</time></trkpt><trkpt lat="45.577087991592656" lon="10.754528020196286"><ele>210.0</ele><time>2026-04-26T06:39:43.999Z</time></trkpt><trkpt lat="45.577099657347716" lon="10.754630164120591"><ele>210.0</ele><time>2026-04-26T06:39:44.999Z</time></trkpt><trkpt lat="45.57710578298071" lon="10.754721983080545"><ele>209.5</ele><time>2026-04-26T06:39:45.999Z</time></trkpt><trkpt lat="45.57712007768575" lon="10.754847256138897"><ele>209.0</ele><time>2026-04-26T06:39:47.999Z</time></trkpt><trkpt lat="45.57714725247374" lon="10.754984351149321"><ele>208.5</ele><time>2026-04-26T06:39:49.999Z</time></trkpt><trkpt lat="45.57716526229606" lon="10.755100179181358"><ele>208.0</ele><time>2026-04-26T06:39:51.999Z</time></trkpt><trkpt lat="45.577180374396875" lon="10.755191395659082"><ele>207.5</ele><time>2026-04-26T06:39:53.999Z</time></trkpt><trkpt lat="45.57719456014772" lon="10.755286647081757"><ele>207.0</ele><time>2026-04-26T06:39:55.999Z</time></trkpt><trkpt lat="45.57720535214372" lon="10.755393456986184"><ele>206.83333333333334</ele><time>2026-04-26T06:39:58.999Z</time></trkpt><trkpt lat="45.57719752792568" lon="10.755485083511257"><ele>206.66666666666669</ele><time>2026-04-26T06:40:14.999Z</time></trkpt><trkpt lat="45.57720325319491" lon="10.755619045692864"><ele>206.5</ele><time>2026-04-26T06:41:10.999Z</time></trkpt><trkpt lat="45.57721277817754" lon="10.755735709339021"><ele>206.33333333333334</ele><time>2026-04-26T06:41:13.999Z</time></trkpt><trkpt lat="45.57719637961403" lon="10.755830521638131"><ele>206.16666666666669</ele><time>2026-04-26T06:41:15.999Z</time></trkpt><trkpt lat="45.57720115026781" lon="10.755934220890008"><ele>206.0</ele><time>2026-04-26T06:41:21.999Z</time></trkpt><trkpt lat="45.57717186379871" lon="10.756038290349382"><ele>206.00000000000003</ele><time>2026-04-26T06:41:37.999Z</time></trkpt><trkpt lat="45.577169464435954" lon="10.756133722474186"><ele>206.0</ele><time>2026-04-26T06:42:27.999Z</time></trkpt><trkpt lat="45.57714253023321" lon="10.756225980060478"><ele>206.0</ele><time>2026-04-26T06:42:50.999Z</time></trkpt><trkpt lat="45.57710916142486" lon="10.75632070281054"><ele>206.0</ele><time>2026-04-26T06:43:13.999Z</time></trkpt><trkpt lat="45.577046604047126" lon="10.756409818117298"><ele>206.00000000000003</ele><time>2026-04-26T06:43:37.999Z</time></trkpt><trkpt lat="45.57698077269353" lon="10.756554975539325"><ele>206.0</ele><time>2026-04-26T06:43:47.999Z</time></trkpt><trkpt lat="45.576924486874155" lon="10.75663392018782"><ele>206.0</ele><time>2026-04-26T06:43:49.999Z</time></trkpt><trkpt lat="45.57683646229591" lon="10.756736859209283"><ele>206.0</ele><time>2026-04-26T06:43:52.999Z</time></trkpt><trkpt lat="45.57675740471565" lon="10.756794194829844"><ele>206.0</ele><time>2026-04-26T06:43:53.999Z</time></trkpt><trkpt lat="45.57666680325926" lon="10.756832311450726"><ele>206.0</ele><time>2026-04-26T06:43:54.999Z</time></trkpt><trkpt lat="45.576565087049026" lon="10.756846375491923"><ele>206.0</ele><time>2026-04-26T06:43:55.999Z</time></trkpt><trkpt lat="45.57647912300358" lon="10.75687723742019"><ele>206.0</ele><time>2026-04-26T06:43:56.999Z</time></trkpt><trkpt lat="45.57639673836269" lon="10.756909536915677"><ele>206.0</ele><time>2026-04-26T06:43:57.999Z</time></trkpt><trkpt lat="45.576301739619225" lon="10.756941995458364"><ele>206.0</ele><time>2026-04-26T06:43:58.999Z</time></trkpt><trkpt lat="45.57620691255376" lon="10.7569766437965"><ele>206.0</ele><time>2026-04-26T06:43:59.999Z</time></trkpt><trkpt lat="45.57611837936462" lon="10.7569866406618"><ele>206.0</ele><time>2026-04-26T06:44:00.999Z</time></trkpt><trkpt lat="45.576019229576985" lon="10.757030489086773"><ele>206.4</ele><time>2026-04-26T06:44:01.999Z</time></trkpt><trkpt lat="45.57592269304637" lon="10.757068376620218"><ele>206.8</ele><time>2026-04-26T06:44:02.999Z</time></trkpt><trkpt lat="45.57582430293327" lon="10.757099846187707"><ele>207.20000000000002</ele><time>2026-04-26T06:44:03.999Z</time></trkpt><trkpt lat="45.57571899274872" lon="10.757133197249939"><ele>207.60000000000002</ele><time>2026-04-26T06:44:04.999Z</time></trkpt><trkpt lat="45.575614788016324" lon="10.75716796309552"><ele>208.0</ele><time>2026-04-26T06:44:05.999Z</time></trkpt><trkpt lat="45.575511376945514" lon="10.757199849797356"><ele>208.0</ele><time>2026-04-26T06:44:06.999Z</time></trkpt><trkpt lat="45.57540748756162" lon="10.75723239496507"><ele>208.0</ele><time>2026-04-26T06:44:07.999Z</time></trkpt><trkpt lat="45.575296004568855" lon="10.757265429763642"><ele>208.0</ele><time>2026-04-26T06:44:08.999Z</time></trkpt><trkpt lat="45.57518285231629" lon="10.75729923621627"><ele>208.0</ele><time>2026-04-26T06:44:09.999Z</time></trkpt><trkpt lat="45.575068836383494" lon="10.757335345201897"><ele>207.75</ele><time>2026-04-26T06:44:10.999Z</time></trkpt><trkpt lat="45.57495392536138" lon="10.757370602030468"><ele>207.5</ele><time>2026-04-26T06:44:11.999Z</time></trkpt><trkpt lat="45.57483686196593" lon="10.757412624805585"><ele>207.25</ele><time>2026-04-26T06:44:12.999Z</time></trkpt><trkpt lat="45.574721919613424" lon="10.757450336384906"><ele>207.0</ele><time>2026-04-26T06:44:13.999Z</time></trkpt><trkpt lat="45.57461400672512" lon="10.757475167652434"><ele>206.6</ele><time>2026-04-26T06:44:14.999Z</time></trkpt><trkpt lat="45.57451392244503" lon="10.75751026014308"><ele>206.2</ele><time>2026-04-26T06:44:15.999Z</time></trkpt><trkpt lat="45.57439898892576" lon="10.75754985989446"><ele>205.8</ele><time>2026-04-26T06:44:16.999Z</time></trkpt><trkpt lat="45.57429402770149" lon="10.757577937729753"><ele>205.4</ele><time>2026-04-26T06:44:17.999Z</time></trkpt><trkpt lat="45.57417744671275" lon="10.757618772743403"><ele>205.0</ele><time>2026-04-26T06:44:18.999Z</time></trkpt><trkpt lat="45.57407246775606" lon="10.7576559464239"><ele>205.0</ele><time>2026-04-26T06:44:19.999Z</time></trkpt><trkpt lat="45.573977838723124" lon="10.75769093513185"><ele>205.0</ele><time>2026-04-26T06:44:20.999Z</time></trkpt><trkpt lat="45.57388829462207" lon="10.757720969794851"><ele>205.0</ele><time>2026-04-26T06:44:21.999Z</time></trkpt><trkpt lat="45.57380324640373" lon="10.757747129946646"><ele>205.0</ele><time>2026-04-26T06:44:22.999Z</time></trkpt><trkpt lat="45.57371152181341" lon="10.757779967387846"><ele>205.0</ele><time>2026-04-26T06:44:23.999Z</time></trkpt><trkpt lat="45.57361541893702" lon="10.757807526664724"><ele>205.16666666666666</ele><time>2026-04-26T06:44:24.999Z</time></trkpt><trkpt lat="45.573524169210685" lon="10.757834652565425"><ele>205.33333333333331</ele><time>2026-04-26T06:44:25.999Z</time></trkpt><trkpt lat="45.57344126743747" lon="10.757859070170468"><ele>205.5</ele><time>2026-04-26T06:44:26.999Z</time></trkpt><trkpt lat="45.57335896062645" lon="10.757883376362107"><ele>205.66666666666669</ele><time>2026-04-26T06:44:27.999Z</time></trkpt><trkpt lat="45.57327816796255" lon="10.757904894922385"><ele>205.83333333333334</ele><time>2026-04-26T06:44:28.999Z</time></trkpt><trkpt lat="45.57320947602122" lon="10.757922011769741"><ele>206.0</ele><time>2026-04-26T06:44:29.999Z</time></trkpt><trkpt lat="45.57308658404317" lon="10.757946804919213"><ele>206.0</ele><time>2026-04-26T06:44:31.999Z</time></trkpt><trkpt lat="45.57297439175447" lon="10.757972644749954"><ele>206.0</ele><time>2026-04-26T06:44:33.999Z</time></trkpt><trkpt lat="45.572898299285264" lon="10.757999440816313"><ele>206.0</ele><time>2026-04-26T06:44:36.999Z</time></trkpt><trkpt lat="45.57282206750555" lon="10.7580131839055"><ele>206.0</ele><time>2026-04-26T06:44:39.999Z</time></trkpt><trkpt lat="45.57274632013636" lon="10.758032610635997"><ele>206.0</ele><time>2026-04-26T06:44:41.999Z</time></trkpt><trkpt lat="45.57263694078012" lon="10.758099414447043"><ele>206.16666666666669</ele><time>2026-04-26T06:44:43.999Z</time></trkpt><trkpt lat="45.572508415010205" lon="10.75814039196636"><ele>206.33333333333334</ele><time>2026-04-26T06:44:45.999Z</time></trkpt><trkpt lat="45.57243882192502" lon="10.758167386182334"><ele>206.5</ele><time>2026-04-26T06:44:46.999Z</time></trkpt><trkpt lat="45.572372039440324" lon="10.758194046736039"><ele>206.66666666666669</ele><time>2026-04-26T06:44:47.999Z</time></trkpt><trkpt lat="45.572292170023516" lon="10.758227654727284"><ele>206.83333333333334</ele><time>2026-04-26T06:44:49.999Z</time></trkpt><trkpt lat="45.57223011019913" lon="10.758254308626853"><ele>207.0</ele><time>2026-04-26T06:44:51.999Z</time></trkpt><trkpt lat="45.57213332035895" lon="10.758286099688462"><ele>207.0</ele><time>2026-04-26T06:44:54.999Z</time></trkpt><trkpt lat="45.57207540341951" lon="10.758241895247183"><ele>207.0</ele><time>2026-04-26T06:44:55.999Z</time></trkpt><trkpt lat="45.57196833026934" lon="10.758310721853054"><ele>207.0</ele><time>2026-04-26T06:44:57.999Z</time></trkpt><trkpt lat="45.571934219715494" lon="10.758396204846143"><ele>207.0</ele><time>2026-04-26T06:44:58.999Z</time></trkpt><trkpt lat="45.57187236761056" lon="10.758480469821576"><ele>207.0</ele><time>2026-04-26T06:44:59.999Z</time></trkpt><trkpt lat="45.57179760595347" lon="10.75855016045832"><ele>207.0</ele><time>2026-04-26T06:45:00.999Z</time></trkpt><trkpt lat="45.57172422999175" lon="10.75861725946226"><ele>206.25</ele><time>2026-04-26T06:45:01.999Z</time></trkpt><trkpt lat="45.57164245701628" lon="10.758718818541551"><ele>205.5</ele><time>2026-04-26T06:45:02.999Z</time></trkpt><trkpt lat="45.57152405326906" lon="10.758752680284474"><ele>204.75</ele><time>2026-04-26T06:45:03.999Z</time></trkpt><trkpt lat="45.571423258762565" lon="10.758830204828874"><ele>204.0</ele><time>2026-04-26T06:45:04.999Z</time></trkpt><trkpt lat="45.57131272094735" lon="10.75891917986957"><ele>204.0</ele><time>2026-04-26T06:45:05.999Z</time></trkpt><trkpt lat="45.57119202602041" lon="10.759011619277704"><ele>204.0</ele><time>2026-04-26T06:45:06.999Z</time></trkpt><trkpt lat="45.57106482450205" lon="10.75911286023582"><ele>204.0</ele><time>2026-04-26T06:45:07.999Z</time></trkpt><trkpt lat="45.570939761129175" lon="10.759212654289502"><ele>204.0</ele><time>2026-04-26T06:45:08.999Z</time></trkpt><trkpt lat="45.570836452028985" lon="10.759293249349373"><ele>203.75</ele><time>2026-04-26T06:45:09.999Z</time></trkpt><trkpt lat="45.570730584134886" lon="10.7593751166876"><ele>203.5</ele><time>2026-04-26T06:45:10.999Z</time></trkpt><trkpt lat="45.57062205237561" lon="10.759456409443366"><ele>203.25</ele><time>2026-04-26T06:45:11.999Z</time></trkpt><trkpt lat="45.570523514002666" lon="10.759545468131888"><ele>203.0</ele><time>2026-04-26T06:45:12.999Z</time></trkpt><trkpt lat="45.57042673974641" lon="10.759622946581668"><ele>202.8</ele><time>2026-04-26T06:45:13.999Z</time></trkpt><trkpt lat="45.570338746857516" lon="10.759689009635505"><ele>202.60000000000002</ele><time>2026-04-26T06:45:14.999Z</time></trkpt><trkpt lat="45.57025396162926" lon="10.759754729893997"><ele>202.39999999999998</ele><time>2026-04-26T06:45:15.999Z</time></trkpt><trkpt lat="45.57017885718354" lon="10.759816034926647"><ele>202.2</ele><time>2026-04-26T06:45:16.999Z</time></trkpt><trkpt lat="45.57011672627" lon="10.759862676755198"><ele>202.0</ele><time>2026-04-26T06:45:17.999Z</time></trkpt><trkpt lat="45.5700154173072" lon="10.759935382454342"><ele>201.99999999999997</ele><time>2026-04-26T06:45:19.999Z</time></trkpt><trkpt lat="45.56992640305663" lon="10.760015792810082"><ele>202.0</ele><time>2026-04-26T06:45:21.998Z</time></trkpt><trkpt lat="45.56986508886818" lon="10.760065774182245"><ele>202.0</ele><time>2026-04-26T06:45:22.998Z</time></trkpt><trkpt lat="45.569798721560446" lon="10.76011521109025"><ele>202.0</ele><time>2026-04-26T06:45:23.998Z</time></trkpt><trkpt lat="45.56973105602746" lon="10.760172078778268"><ele>201.99999999999997</ele><time>2026-04-26T06:45:24.998Z</time></trkpt><trkpt lat="45.56964652124568" lon="10.76023553630278"><ele>202.0</ele><time>2026-04-26T06:45:25.998Z</time></trkpt><trkpt lat="45.56956339249404" lon="10.760302006375808"><ele>202.0</ele><time>2026-04-26T06:45:26.998Z</time></trkpt><trkpt lat="45.56947664762443" lon="10.76036833012388"><ele>202.0</ele><time>2026-04-26T06:45:27.998Z</time></trkpt><trkpt lat="45.569386049953195" lon="10.760438272335886"><ele>202.0</ele><time>2026-04-26T06:45:28.998Z</time></trkpt><trkpt lat="45.569293501151385" lon="10.76050795156696"><ele>202.0</ele><time>2026-04-26T06:45:29.998Z</time></trkpt><trkpt lat="45.56920340596555" lon="10.760581146101892"><ele>202.0</ele><time>2026-04-26T06:45:30.998Z</time></trkpt><trkpt lat="45.569108088371436" lon="10.760658201964727"><ele>202.0</ele><time>2026-04-26T06:45:31.999Z</time></trkpt><trkpt lat="45.569003941289914" lon="10.76074099873585"><ele>202.0</ele><time>2026-04-26T06:45:32.999Z</time></trkpt><trkpt lat="45.568887592714894" lon="10.760833290165376"><ele>202.0</ele><time>2026-04-26T06:45:33.999Z</time></trkpt><trkpt lat="45.56875132660545" lon="10.76094787834591"><ele>202.0</ele><time>2026-04-26T06:45:34.999Z</time></trkpt><trkpt lat="45.56865216676839" lon="10.76104480315447"><ele>201.33333333333331</ele><time>2026-04-26T06:45:35.999Z</time></trkpt><trkpt lat="45.56850469789697" lon="10.761165391783962"><ele>200.66666666666669</ele><time>2026-04-26T06:45:36.999Z</time></trkpt><trkpt lat="45.568378964171416" lon="10.761266614801851"><ele>200.0</ele><time>2026-04-26T06:45:37.999Z</time></trkpt><trkpt lat="45.56824685298607" lon="10.76137059509225"><ele>200.0</ele><time>2026-04-26T06:45:38.999Z</time></trkpt><trkpt lat="45.56810980933281" lon="10.761476266078313"><ele>200.0</ele><time>2026-04-26T06:45:39.999Z</time></trkpt><trkpt lat="45.5679796794847" lon="10.761576252338195"><ele>200.0</ele><time>2026-04-26T06:45:40.999Z</time></trkpt><trkpt lat="45.56785175829386" lon="10.761682035397564"><ele>200.5</ele><time>2026-04-26T06:45:41.999Z</time></trkpt><trkpt lat="45.56772780128872" lon="10.761785040303318"><ele>201.0</ele><time>2026-04-26T06:45:42.999Z</time></trkpt><trkpt lat="45.56760673190915" lon="10.761885414115106"><ele>201.5</ele><time>2026-04-26T06:45:43.999Z</time></trkpt><trkpt lat="45.56747775613917" lon="10.761985015822347"><ele>202.0</ele><time>2026-04-26T06:45:44.999Z</time></trkpt><trkpt lat="45.567350939364424" lon="10.762085859060564"><ele>201.75</ele><time>2026-04-26T06:45:45.999Z</time></trkpt><trkpt lat="45.56722701999369" lon="10.762182583976182"><ele>201.5</ele><time>2026-04-26T06:45:46.999Z</time></trkpt><trkpt lat="45.56710777847995" lon="10.762278278743986"><ele>201.25</ele><time>2026-04-26T06:45:47.999Z</time></trkpt><trkpt lat="45.56699230972739" lon="10.76237194295275"><ele>201.0</ele><time>2026-04-26T06:45:48.999Z</time></trkpt><trkpt lat="45.56686661938925" lon="10.762468747286935"><ele>201.0</ele><time>2026-04-26T06:45:49.999Z</time></trkpt><trkpt lat="45.566736023638576" lon="10.762565258178958"><ele>201.0</ele><time>2026-04-26T06:45:50.999Z</time></trkpt><trkpt lat="45.56660156957641" lon="10.762658776102391"><ele>201.0</ele><time>2026-04-26T06:45:51.999Z</time></trkpt><trkpt lat="45.56645882644497" lon="10.76275641171407"><ele>200.75</ele><time>2026-04-26T06:45:52.999Z</time></trkpt><trkpt lat="45.56632055663131" lon="10.762841286532126"><ele>200.5</ele><time>2026-04-26T06:45:53.999Z</time></trkpt><trkpt lat="45.56617790464447" lon="10.762884344346073"><ele>200.25</ele><time>2026-04-26T06:45:54.999Z</time></trkpt><trkpt lat="45.56604889562486" lon="10.762933725477485"><ele>200.0</ele><time>2026-04-26T06:45:55.999Z</time></trkpt><trkpt lat="45.56593313989262" lon="10.762986579382735"><ele>200.0</ele><time>2026-04-26T06:45:56.999Z</time></trkpt><trkpt lat="45.565818673846145" lon="10.763003081822013"><ele>200.0</ele><time>2026-04-26T06:45:57.999Z</time></trkpt><trkpt lat="45.56570843213196" lon="10.76302593343582"><ele>200.0</ele><time>2026-04-26T06:45:58.999Z</time></trkpt><trkpt lat="45.56558439073941" lon="10.76304912904234"><ele>200.0</ele><time>2026-04-26T06:45:59.999Z</time></trkpt><trkpt lat="45.56547032594067" lon="10.763072625053633"><ele>200.5</ele><time>2026-04-26T06:46:00.999Z</time></trkpt><trkpt lat="45.565351250130156" lon="10.763101127769106"><ele>201.0</ele><time>2026-04-26T06:46:01.999Z</time></trkpt><trkpt lat="45.56521281676942" lon="10.763125131018425"><ele>201.5</ele><time>2026-04-26T06:46:02.999Z</time></trkpt><trkpt lat="45.565072289252235" lon="10.763146170133163"><ele>202.0</ele><time>2026-04-26T06:46:03.999Z</time></trkpt><trkpt lat="45.564948997833206" lon="10.763175957010942"><ele>202.0</ele><time>2026-04-26T06:46:04.999Z</time></trkpt><trkpt lat="45.564822426286966" lon="10.763203341015267"><ele>202.0</ele><time>2026-04-26T06:46:05.999Z</time></trkpt><trkpt lat="45.564684630910094" lon="10.763260660744109"><ele>202.0</ele><time>2026-04-26T06:46:06.999Z</time></trkpt><trkpt lat="45.564566075281576" lon="10.763287895722446"><ele>202.0</ele><time>2026-04-26T06:46:07.999Z</time></trkpt><trkpt lat="45.56443846645367" lon="10.763342465162957"><ele>202.0</ele><time>2026-04-26T06:46:08.999Z</time></trkpt><trkpt lat="45.56430846438701" lon="10.763409913458913"><ele>202.0</ele><time>2026-04-26T06:46:09.999Z</time></trkpt><trkpt lat="45.56417314491579" lon="10.76347998476407"><ele>202.0</ele><time>2026-04-26T06:46:10.999Z</time></trkpt><trkpt lat="45.56402622600978" lon="10.763551708295614"><ele>202.0</ele><time>2026-04-26T06:46:11.999Z</time></trkpt><trkpt lat="45.56388593903082" lon="10.763628497560862"><ele>201.5</ele><time>2026-04-26T06:46:12.999Z</time></trkpt><trkpt lat="45.563757061776386" lon="10.76369028505371"><ele>201.0</ele><time>2026-04-26T06:46:13.999Z</time></trkpt><trkpt lat="45.56363190251991" lon="10.763748818025524"><ele>200.5</ele><time>2026-04-26T06:46:14.999Z</time></trkpt><trkpt lat="45.56351007120117" lon="10.763809964701087"><ele>200.0</ele><time>2026-04-26T06:46:15.999Z</time></trkpt><trkpt lat="45.56337883640857" lon="10.763876866940631"><ele>199.66666666666669</ele><time>2026-04-26T06:46:16.999Z</time></trkpt><trkpt lat="45.56322618412766" lon="10.76395576122071"><ele>199.33333333333331</ele><time>2026-04-26T06:46:17.999Z</time></trkpt><trkpt lat="45.56306207732355" lon="10.76403546496852"><ele>199.0</ele><time>2026-04-26T06:46:18.999Z</time></trkpt><trkpt lat="45.56289609416616" lon="10.764126465279286"><ele>198.0</ele><time>2026-04-26T06:46:19.999Z</time></trkpt><trkpt lat="45.56274880897278" lon="10.764204801204933"><ele>197.0</ele><time>2026-04-26T06:46:20.999Z</time></trkpt><trkpt lat="45.5626039627258" lon="10.764285915254844"><ele>196.0</ele><time>2026-04-26T06:46:21.999Z</time></trkpt><trkpt lat="45.56245311819111" lon="10.76435794428774"><ele>196.5</ele><time>2026-04-26T06:46:22.999Z</time></trkpt><trkpt lat="45.56231490709395" lon="10.764436564261292"><ele>197.0</ele><time>2026-04-26T06:46:23.999Z</time></trkpt><trkpt lat="45.5621794246086" lon="10.764512456137197"><ele>197.5</ele><time>2026-04-26T06:46:24.999Z</time></trkpt><trkpt lat="45.56205676109832" lon="10.764586288335543"><ele>198.0</ele><time>2026-04-26T06:46:25.999Z</time></trkpt><trkpt lat="45.561937255199965" lon="10.76466640545128"><ele>198.60000000000002</ele><time>2026-04-26T06:46:26.999Z</time></trkpt><trkpt lat="45.56182907152314" lon="10.764755100880274"><ele>199.20000000000002</ele><time>2026-04-26T06:46:27.999Z</time></trkpt><trkpt lat="45.561751369308915" lon="10.764835115300524"><ele>199.8</ele><time>2026-04-26T06:46:28.999Z</time></trkpt><trkpt lat="45.56168113794014" lon="10.76490433501457"><ele>200.4</ele><time>2026-04-26T06:46:29.999Z</time></trkpt><trkpt lat="45.561613678683344" lon="10.764971469410757"><ele>201.0</ele><time>2026-04-26T06:46:30.999Z</time></trkpt><trkpt lat="45.56155562947852" lon="10.76501120921576"><ele>201.0</ele><time>2026-04-26T06:46:33.999Z</time></trkpt><trkpt lat="45.561483408327526" lon="10.764861589324916"><ele>201.0</ele><time>2026-04-26T06:46:39.999Z</time></trkpt><trkpt lat="45.56147503636443" lon="10.764697342058264"><ele>201.0</ele><time>2026-04-26T06:46:40.999Z</time></trkpt><trkpt lat="45.5614850185496" lon="10.764596594642338"><ele>201.0</ele><time>2026-04-26T06:46:41.999Z</time></trkpt><trkpt lat="45.561489726581954" lon="10.764488302056822"><ele>201.0</ele><time>2026-04-26T06:46:42.999Z</time></trkpt><trkpt lat="45.56149527558615" lon="10.764353790526082"><ele>201.20000000000002</ele><time>2026-04-26T06:46:43.999Z</time></trkpt><trkpt lat="45.561509926858015" lon="10.764211769738564"><ele>201.4</ele><time>2026-04-26T06:46:44.999Z</time></trkpt><trkpt lat="45.56150479434708" lon="10.764070366458744"><ele>201.6</ele><time>2026-04-26T06:46:45.999Z</time></trkpt><trkpt lat="45.56150969739774" lon="10.763921562681444"><ele>201.8</ele><time>2026-04-26T06:46:46.999Z</time></trkpt><trkpt lat="45.56150296881049" lon="10.763730563446282"><ele>202.0</ele><time>2026-04-26T06:46:47.999Z</time></trkpt><trkpt lat="45.561522639196156" lon="10.763515534324716"><ele>202.25</ele><time>2026-04-26T06:46:48.999Z</time></trkpt><trkpt lat="45.56149960834064" lon="10.76334059646725"><ele>202.5</ele><time>2026-04-26T06:46:49.999Z</time></trkpt><trkpt lat="45.56149054438431" lon="10.763164998789911"><ele>202.75</ele><time>2026-04-26T06:46:50.999Z</time></trkpt><trkpt lat="45.56147806099432" lon="10.762993601060664"><ele>203.0</ele><time>2026-04-26T06:46:51.999Z</time></trkpt><trkpt lat="45.5614559760813" lon="10.762826840100928"><ele>204.0</ele><time>2026-04-26T06:46:52.999Z</time></trkpt><trkpt lat="45.561425439388586" lon="10.762647783817048"><ele>205.0</ele><time>2026-04-26T06:46:53.999Z</time></trkpt><trkpt lat="45.56139093007218" lon="10.762443884460811"><ele>206.0</ele><time>2026-04-26T06:46:54.999Z</time></trkpt><trkpt lat="45.56133114041501" lon="10.76226253062105"><ele>207.0</ele><time>2026-04-26T06:46:55.999Z</time></trkpt><trkpt lat="45.561288202262894" lon="10.762091018788379"><ele>207.0</ele><time>2026-04-26T06:46:56.999Z</time></trkpt><trkpt lat="45.56124382152116" lon="10.76192224884444"><ele>207.0</ele><time>2026-04-26T06:46:57.999Z</time></trkpt><trkpt lat="45.561210014468315" lon="10.761761540877584"><ele>207.0</ele><time>2026-04-26T06:46:58.999Z</time></trkpt><trkpt lat="45.56118657631883" lon="10.761585013372681"><ele>207.0</ele><time>2026-04-26T06:46:59.999Z</time></trkpt><trkpt lat="45.561134485072564" lon="10.761410076207877"><ele>210.8</ele><time>2026-04-26T06:47:00.999Z</time></trkpt><trkpt lat="45.561094255879524" lon="10.761236125647628"><ele>214.6</ele><time>2026-04-26T06:47:01.999Z</time></trkpt><trkpt lat="45.56104661807934" lon="10.761091104188619"><ele>218.40000000000003</ele><time>2026-04-26T06:47:02.999Z</time></trkpt><trkpt lat="45.56102665436649" lon="10.760949336839763"><ele>222.20000000000002</ele><time>2026-04-26T06:47:03.999Z</time></trkpt><trkpt lat="45.56100131264677" lon="10.760828514961663"><ele>226.0</ele><time>2026-04-26T06:47:04.999Z</time></trkpt><trkpt lat="45.56097180238141" lon="10.760718849076722"><ele>225.99999999999997</ele><time>2026-04-26T06:47:05.999Z</time></trkpt><trkpt lat="45.56095538611078" lon="10.760608950999082"><ele>226.0</ele><time>2026-04-26T06:47:06.999Z</time></trkpt><trkpt lat="45.560940697839506" lon="10.760509103006026"><ele>226.0</ele><time>2026-04-26T06:47:07.999Z</time></trkpt><trkpt lat="45.560944292785905" lon="10.760361085184469"><ele>226.0</ele><time>2026-04-26T06:47:09.999Z</time></trkpt><trkpt lat="45.560932689325156" lon="10.76026771557057"><ele>225.99999999999997</ele><time>2026-04-26T06:47:11.999Z</time></trkpt><trkpt lat="45.5609006558593" lon="10.76014592674005"><ele>226.0</ele><time>2026-04-26T06:47:13.999Z</time></trkpt><trkpt lat="45.56086273692982" lon="10.760063299070351"><ele>224.4</ele><time>2026-04-26T06:47:14.999Z</time></trkpt><trkpt lat="45.560807459839424" lon="10.75996554945155"><ele>222.8</ele><time>2026-04-26T06:47:15.999Z</time></trkpt><trkpt lat="45.56073926970451" lon="10.759855496574119"><ele>221.20000000000002</ele><time>2026-04-26T06:47:16.999Z</time></trkpt><trkpt lat="45.56068135162285" lon="10.759733621417837"><ele>219.60000000000002</ele><time>2026-04-26T06:47:17.999Z</time></trkpt><trkpt lat="45.56060940672566" lon="10.7596169465656"><ele>218.0</ele><time>2026-04-26T06:47:18.999Z</time></trkpt><trkpt lat="45.56051546862442" lon="10.759480427834815"><ele>216.75</ele><time>2026-04-26T06:47:19.999Z</time></trkpt><trkpt lat="45.560431031196266" lon="10.759326635906397"><ele>215.5</ele><time>2026-04-26T06:47:20.999Z</time></trkpt><trkpt lat="45.560346424421766" lon="10.759169727777113"><ele>214.25</ele><time>2026-04-26T06:47:21.999Z</time></trkpt><trkpt lat="45.56024568851612" lon="10.7590335576942"><ele>213.0</ele><time>2026-04-26T06:47:22.999Z</time></trkpt><trkpt lat="45.560149476915356" lon="10.75887955025188"><ele>213.66666666666669</ele><time>2026-04-26T06:47:23.999Z</time></trkpt><trkpt lat="45.5600486177304" lon="10.7587244356144"><ele>214.33333333333334</ele><time>2026-04-26T06:47:24.999Z</time></trkpt><trkpt lat="45.559948414516356" lon="10.758564940801822"><ele>215.0</ele><time>2026-04-26T06:47:25.999Z</time></trkpt><trkpt lat="45.55984320454024" lon="10.758405591341234"><ele>215.0</ele><time>2026-04-26T06:47:26.999Z</time></trkpt><trkpt lat="45.55974066911998" lon="10.75825475830691"><ele>215.0</ele><time>2026-04-26T06:47:27.998Z</time></trkpt><trkpt lat="45.559622415965315" lon="10.758106950877057"><ele>215.0</ele><time>2026-04-26T06:47:28.998Z</time></trkpt><trkpt lat="45.55952206366478" lon="10.757958293385299"><ele>215.0</ele><time>2026-04-26T06:47:29.998Z</time></trkpt><trkpt lat="45.55944135693397" lon="10.75780771004396"><ele>218.66666666666669</ele><time>2026-04-26T06:47:30.998Z</time></trkpt><trkpt lat="45.55934577680144" lon="10.757667291092517"><ele>222.33333333333331</ele><time>2026-04-26T06:47:31.998Z</time></trkpt><trkpt lat="45.559246355817855" lon="10.7575106638394"><ele>226.0</ele><time>2026-04-26T06:47:32.998Z</time></trkpt><trkpt lat="45.55913176798574" lon="10.757334301498167"><ele>226.0</ele><time>2026-04-26T06:47:33.998Z</time></trkpt><trkpt lat="45.559062792569094" lon="10.757149676261166"><ele>226.0</ele><time>2026-04-26T06:47:34.998Z</time></trkpt><trkpt lat="45.558980056917505" lon="10.756956006674342"><ele>226.0</ele><time>2026-04-26T06:47:35.999Z</time></trkpt><trkpt lat="45.558916266266365" lon="10.756777357634215"><ele>226.0</ele><time>2026-04-26T06:47:36.999Z</time></trkpt><trkpt lat="45.558841651467084" lon="10.756585889528226"><ele>226.33333333333331</ele><time>2026-04-26T06:47:37.999Z</time></trkpt><trkpt lat="45.55877221759495" lon="10.756397601150278"><ele>226.66666666666669</ele><time>2026-04-26T06:47:38.999Z</time></trkpt><trkpt lat="45.55869457974192" lon="10.756175380648568"><ele>227.0</ele><time>2026-04-26T06:47:39.999Z</time></trkpt><trkpt lat="45.55861098086075" lon="10.755990171737203"><ele>227.0</ele><time>2026-04-26T06:47:40.999Z</time></trkpt><trkpt lat="45.558533182578124" lon="10.755824699401778"><ele>227.0</ele><time>2026-04-26T06:47:41.999Z</time></trkpt><trkpt lat="45.55845559451503" lon="10.755658665367635"><ele>227.0</ele><time>2026-04-26T06:47:42.999Z</time></trkpt><trkpt lat="45.558382957572924" lon="10.755482552119219"><ele>227.0</ele><time>2026-04-26T06:47:43.999Z</time></trkpt><trkpt lat="45.558319428013604" lon="10.755296252189643"><ele>227.5</ele><time>2026-04-26T06:47:44.999Z</time></trkpt><trkpt lat="45.558250920673046" lon="10.755126059546502"><ele>228.0</ele><time>2026-04-26T06:47:45.999Z</time></trkpt><trkpt lat="45.55818062993574" lon="10.754956748976477"><ele>228.5</ele><time>2026-04-26T06:47:46.999Z</time></trkpt><trkpt lat="45.558114716155686" lon="10.75480124418652"><ele>229.0</ele><time>2026-04-26T06:47:47.999Z</time></trkpt><trkpt lat="45.55805166443919" lon="10.7546503818034"><ele>229.0</ele><time>2026-04-26T06:47:48.999Z</time></trkpt><trkpt lat="45.55799619150936" lon="10.754481020528237"><ele>229.0</ele><time>2026-04-26T06:47:49.999Z</time></trkpt><trkpt lat="45.557966494344505" lon="10.754288230441263"><ele>229.0</ele><time>2026-04-26T06:47:50.999Z</time></trkpt><trkpt lat="45.55797792791988" lon="10.754077915660597"><ele>229.0</ele><time>2026-04-26T06:47:51.999Z</time></trkpt><trkpt lat="45.557952309646275" lon="10.753916454187664"><ele>229.25</ele><time>2026-04-26T06:47:52.999Z</time></trkpt><trkpt lat="45.557909032885284" lon="10.75374455551439"><ele>229.5</ele><time>2026-04-26T06:47:53.999Z</time></trkpt><trkpt lat="45.55783575473455" lon="10.753573166333858"><ele>229.75</ele><time>2026-04-26T06:47:54.999Z</time></trkpt><trkpt lat="45.557738960061684" lon="10.753424412825844"><ele>230.0</ele><time>2026-04-26T06:47:55.999Z</time></trkpt><trkpt lat="45.557606934634855" lon="10.753272903208494"><ele>229.25</ele><time>2026-04-26T06:47:56.999Z</time></trkpt><trkpt lat="45.55749340221172" lon="10.75313837176217"><ele>228.5</ele><time>2026-04-26T06:47:57.999Z</time></trkpt><trkpt lat="45.55739039663113" lon="10.753012050751016"><ele>227.75</ele><time>2026-04-26T06:47:58.999Z</time></trkpt><trkpt lat="45.55729857002206" lon="10.752910606163137"><ele>227.0</ele><time>2026-04-26T06:47:59.999Z</time></trkpt><trkpt lat="45.55719911844654" lon="10.75281024130503"><ele>227.0</ele><time>2026-04-26T06:48:00.999Z</time></trkpt><trkpt lat="45.557104179907945" lon="10.752724914235083"><ele>227.0</ele><time>2026-04-26T06:48:01.999Z</time></trkpt><trkpt lat="45.55700381414416" lon="10.752639922817444"><ele>227.0</ele><time>2026-04-26T06:48:02.999Z</time></trkpt><trkpt lat="45.55690284582444" lon="10.752566966798975"><ele>227.0</ele><time>2026-04-26T06:48:03.999Z</time></trkpt><trkpt lat="45.556806732125494" lon="10.752479544974502"><ele>227.5</ele><time>2026-04-26T06:48:04.999Z</time></trkpt><trkpt lat="45.55671505785239" lon="10.7524141015137"><ele>228.0</ele><time>2026-04-26T06:48:05.999Z</time></trkpt><trkpt lat="45.55661353792985" lon="10.752347411857745"><ele>228.5</ele><time>2026-04-26T06:48:06.999Z</time></trkpt><trkpt lat="45.55649234437287" lon="10.752296451655802"><ele>229.0</ele><time>2026-04-26T06:48:07.999Z</time></trkpt><trkpt lat="45.556353631555226" lon="10.752253508691682"><ele>229.0</ele><time>2026-04-26T06:48:08.999Z</time></trkpt><trkpt lat="45.556233023537246" lon="10.752206865309377"><ele>229.0</ele><time>2026-04-26T06:48:09.999Z</time></trkpt><trkpt lat="45.55611103275097" lon="10.75216695186521"><ele>229.0</ele><time>2026-04-26T06:48:10.999Z</time></trkpt><trkpt lat="45.55599259219032" lon="10.752130772093398"><ele>229.0</ele><time>2026-04-26T06:48:11.999Z</time></trkpt><trkpt lat="45.55587577217031" lon="10.752050382533838"><ele>229.79999999999998</ele><time>2026-04-26T06:48:12.999Z</time></trkpt><trkpt lat="45.555775730293796" lon="10.751978136339357"><ele>230.59999999999997</ele><time>2026-04-26T06:48:13.999Z</time></trkpt><trkpt lat="45.55567760448025" lon="10.751892748443568"><ele>231.4</ele><time>2026-04-26T06:48:14.999Z</time></trkpt><trkpt lat="45.55560710167551" lon="10.751816693109642"><ele>232.2</ele><time>2026-04-26T06:48:16Z</time></trkpt><trkpt lat="45.55555115929028" lon="10.75173798025335"><ele>233.0</ele><time>2026-04-26T06:48:17Z</time></trkpt><trkpt lat="45.555541524289616" lon="10.751640596212884"><ele>233.8</ele><time>2026-04-26T06:48:18Z</time></trkpt><trkpt lat="45.55556623176424" lon="10.751556530350175"><ele>234.60000000000002</ele><time>2026-04-26T06:48:21Z</time></trkpt><trkpt lat="45.555672549063004" lon="10.751639619698057"><ele>235.39999999999998</ele><time>2026-04-26T06:49:10Z</time></trkpt><trkpt lat="45.55575691093598" lon="10.751669304039302"><ele>236.2</ele><time>2026-04-26T06:49:12Z</time></trkpt><trkpt lat="45.555820143002826" lon="10.751694875626502"><ele>237.0</ele><time>2026-04-26T06:49:13Z</time></trkpt><trkpt lat="45.555957687195765" lon="10.751658506372637"><ele>237.0</ele><time>2026-04-26T06:49:15Z</time></trkpt><trkpt lat="45.55603260228212" lon="10.751655351563722"><ele>237.0</ele><time>2026-04-26T06:49:16Z</time></trkpt><trkpt lat="45.55613932496339" lon="10.751574248749925"><ele>237.0</ele><time>2026-04-26T06:49:18Z</time></trkpt><trkpt lat="45.55623810143875" lon="10.75149282538298"><ele>237.0</ele><time>2026-04-26T06:49:20Z</time></trkpt><trkpt lat="45.556326105078256" lon="10.751461776999953"><ele>237.0</ele><time>2026-04-26T06:49:22Z</time></trkpt><trkpt lat="45.55641837277504" lon="10.751463507115703"><ele>236.66666666666666</ele><time>2026-04-26T06:49:23Z</time></trkpt><trkpt lat="45.556490939854854" lon="10.751450539113483"><ele>236.33333333333331</ele><time>2026-04-26T06:49:24Z</time></trkpt><trkpt lat="45.55656805828705" lon="10.751436757787642"><ele>236.0</ele><time>2026-04-26T06:49:25Z</time></trkpt><trkpt lat="45.55664688584141" lon="10.75142267103234"><ele>235.66666666666666</ele><time>2026-04-26T06:49:26Z</time></trkpt><trkpt lat="45.556736755033015" lon="10.751383703501398"><ele>235.33333333333331</ele><time>2026-04-26T06:49:27Z</time></trkpt><trkpt lat="45.556832349808865" lon="10.751366538811734"><ele>235.0</ele><time>2026-04-26T06:49:28Z</time></trkpt><trkpt lat="45.55692696133717" lon="10.751370208927494"><ele>235.0</ele><time>2026-04-26T06:49:29Z</time></trkpt><trkpt lat="45.557015153504366" lon="10.75135202156787"><ele>235.0</ele><time>2026-04-26T06:49:30Z</time></trkpt><trkpt lat="45.55711742954039" lon="10.751325775432585"><ele>235.0</ele><time>2026-04-26T06:49:31Z</time></trkpt><trkpt lat="45.557219976390286" lon="10.751304757762181"><ele>235.0</ele><time>2026-04-26T06:49:32Z</time></trkpt><trkpt lat="45.55731968782658" lon="10.75127595822759"><ele>235.0</ele><time>2026-04-26T06:49:33Z</time></trkpt><trkpt lat="45.55740914628376" lon="10.751265274711077"><ele>234.4</ele><time>2026-04-26T06:49:34Z</time></trkpt><trkpt lat="45.55750958628259" lon="10.751284179312718"><ele>233.8</ele><time>2026-04-26T06:49:35Z</time></trkpt><trkpt lat="45.557615207397134" lon="10.751288937818297"><ele>233.2</ele><time>2026-04-26T06:49:36Z</time></trkpt><trkpt lat="45.55771369502994" lon="10.751310583897652"><ele>232.6</ele><time>2026-04-26T06:49:37Z</time></trkpt><trkpt lat="45.55783306371333" lon="10.75134588659094"><ele>232.0</ele><time>2026-04-26T06:49:38Z</time></trkpt><trkpt lat="45.557938452198954" lon="10.751377865283075"><ele>233.5</ele><time>2026-04-26T06:49:39Z</time></trkpt><trkpt lat="45.558039421618446" lon="10.751410319517568"><ele>235.0</ele><time>2026-04-26T06:49:40Z</time></trkpt><trkpt lat="45.558146659327456" lon="10.75145341779969"><ele>236.5</ele><time>2026-04-26T06:49:41Z</time></trkpt><trkpt lat="45.55825700998152" lon="10.751482050086606"><ele>238.0</ele><time>2026-04-26T06:49:42Z</time></trkpt><trkpt lat="45.55836093887407" lon="10.751577096534108"><ele>238.0</ele><time>2026-04-26T06:49:43Z</time></trkpt><trkpt lat="45.55844743442966" lon="10.751651826672083"><ele>238.0</ele><time>2026-04-26T06:49:44Z</time></trkpt><trkpt lat="45.558516884366504" lon="10.751722631161895"><ele>238.0</ele><time>2026-04-26T06:49:45Z</time></trkpt><trkpt lat="45.558615867511584" lon="10.751822994751494"><ele>238.0</ele><time>2026-04-26T06:49:46Z</time></trkpt><trkpt lat="45.558720061421226" lon="10.751904528162276"><ele>238.0</ele><time>2026-04-26T06:49:47Z</time></trkpt><trkpt lat="45.558817519975804" lon="10.752016773102296"><ele>237.25</ele><time>2026-04-26T06:49:48Z</time></trkpt><trkpt lat="45.55893164747911" lon="10.752084949506859"><ele>236.5</ele><time>2026-04-26T06:49:49Z</time></trkpt><trkpt lat="45.559028866869475" lon="10.752186789540627"><ele>235.75</ele><time>2026-04-26T06:49:50Z</time></trkpt><trkpt lat="45.55912287994417" lon="10.752270218076628"><ele>235.0</ele><time>2026-04-26T06:49:51Z</time></trkpt><trkpt lat="45.559214151943465" lon="10.752344169702077"><ele>235.0</ele><time>2026-04-26T06:49:52Z</time></trkpt><trkpt lat="45.55930182391745" lon="10.752449668936723"><ele>235.0</ele><time>2026-04-26T06:49:53Z</time></trkpt><trkpt lat="45.55940807343675" lon="10.752545143516498"><ele>235.0</ele><time>2026-04-26T06:49:54Z</time></trkpt><trkpt lat="45.559516467098064" lon="10.75266465868748"><ele>235.0</ele><time>2026-04-26T06:49:55Z</time></trkpt><trkpt lat="45.55964658763852" lon="10.752766325098122"><ele>234.0</ele><time>2026-04-26T06:49:56Z</time></trkpt><trkpt lat="45.55977020171781" lon="10.752846594010661"><ele>233.0</ele><time>2026-04-26T06:49:57Z</time></trkpt><trkpt lat="45.5598742095014" lon="10.75291488190334"><ele>232.0</ele><time>2026-04-26T06:49:58Z</time></trkpt><trkpt lat="45.55999749274443" lon="10.753002381750818"><ele>231.0</ele><time>2026-04-26T06:49:59Z</time></trkpt><trkpt lat="45.56012314728021" lon="10.753063318597391"><ele>231.0</ele><time>2026-04-26T06:50:00Z</time></trkpt><trkpt lat="45.560247187781655" lon="10.753078791666004"><ele>231.0</ele><time>2026-04-26T06:50:01Z</time></trkpt><trkpt lat="45.560380689213396" lon="10.75310269923945"><ele>231.0</ele><time>2026-04-26T06:50:02Z</time></trkpt><trkpt lat="45.56051895357433" lon="10.753118709160598"><ele>231.0</ele><time>2026-04-26T06:50:03Z</time></trkpt><trkpt lat="45.56063712171501" lon="10.753095975449938"><ele>232.0</ele><time>2026-04-26T06:50:04Z</time></trkpt><trkpt lat="45.5607406606549" lon="10.753113140635838"><ele>233.00000000000003</ele><time>2026-04-26T06:50:05Z</time></trkpt><trkpt lat="45.560846738208674" lon="10.75311833191701"><ele>234.00000000000003</ele><time>2026-04-26T06:50:06Z</time></trkpt><trkpt lat="45.56092700086844" lon="10.753171131596195"><ele>235.0</ele><time>2026-04-26T06:50:07Z</time></trkpt><trkpt lat="45.561006840816724" lon="10.753215034170639"><ele>236.0</ele><time>2026-04-26T06:50:08Z</time></trkpt><trkpt lat="45.56109886879232" lon="10.75326043019665"><ele>236.0</ele><time>2026-04-26T06:50:09Z</time></trkpt><trkpt lat="45.56117775361909" lon="10.753297213310258"><ele>236.00000000000003</ele><time>2026-04-26T06:50:10Z</time></trkpt><trkpt lat="45.561257254598715" lon="10.753339219417617"><ele>236.00000000000003</ele><time>2026-04-26T06:50:11Z</time></trkpt><trkpt lat="45.56134317563629" lon="10.753397703314848"><ele>236.0</ele><time>2026-04-26T06:50:12Z</time></trkpt><trkpt lat="45.56141711836383" lon="10.753474465157908"><ele>236.0</ele><time>2026-04-26T06:50:13Z</time></trkpt><trkpt lat="45.56150352316089" lon="10.753538547459932"><ele>234.83333333333334</ele><time>2026-04-26T06:50:14Z</time></trkpt><trkpt lat="45.56158385953789" lon="10.753620303384864"><ele>233.66666666666669</ele><time>2026-04-26T06:50:15Z</time></trkpt><trkpt lat="45.56165984831826" lon="10.753664119053152"><ele>232.5</ele><time>2026-04-26T06:50:16Z</time></trkpt><trkpt lat="45.561740512840636" lon="10.753704023791189"><ele>231.33333333333331</ele><time>2026-04-26T06:50:17Z</time></trkpt><trkpt lat="45.56182048395585" lon="10.75370467100061"><ele>230.16666666666666</ele><time>2026-04-26T06:50:18Z</time></trkpt><trkpt lat="45.56191842727641" lon="10.75367700643635"><ele>229.0</ele><time>2026-04-26T06:50:19Z</time></trkpt><trkpt lat="45.56202304429081" lon="10.753663436459895"><ele>229.79999999999998</ele><time>2026-04-26T06:50:20Z</time></trkpt><trkpt lat="45.56213202026968" lon="10.753649233094643"><ele>230.59999999999997</ele><time>2026-04-26T06:50:21Z</time></trkpt><trkpt lat="45.562243892208734" lon="10.753639838002915"><ele>231.4</ele><time>2026-04-26T06:50:22Z</time></trkpt><trkpt lat="45.56235313867564" lon="10.753628160792916"><ele>232.2</ele><time>2026-04-26T06:50:23Z</time></trkpt><trkpt lat="45.56244973360991" lon="10.753657124313264"><ele>233.0</ele><time>2026-04-26T06:50:24Z</time></trkpt><trkpt lat="45.562547320435066" lon="10.753689666024234"><ele>233.0</ele><time>2026-04-26T06:50:25Z</time></trkpt><trkpt lat="45.562659429469775" lon="10.75372449602378"><ele>233.0</ele><time>2026-04-26T06:50:26Z</time></trkpt><trkpt lat="45.56273557953438" lon="10.75374815429951"><ele>233.0</ele><time>2026-04-26T06:50:27Z</time></trkpt><trkpt lat="45.5628199137797" lon="10.753773042493249"><ele>233.0</ele><time>2026-04-26T06:50:28Z</time></trkpt><trkpt lat="45.56290233340063" lon="10.753778595180272"><ele>233.0</ele><time>2026-04-26T06:50:29Z</time></trkpt><trkpt lat="45.56301230378186" lon="10.75375483925842"><ele>233.8</ele><time>2026-04-26T06:50:30Z</time></trkpt><trkpt lat="45.56312620405875" lon="10.753706942738257"><ele>234.60000000000002</ele><time>2026-04-26T06:50:31Z</time></trkpt><trkpt lat="45.563219082967045" lon="10.753646225039171"><ele>235.39999999999998</ele><time>2026-04-26T06:50:32Z</time></trkpt><trkpt lat="45.56330804299815" lon="10.753554285537875"><ele>236.2</ele><time>2026-04-26T06:50:33Z</time></trkpt><trkpt lat="45.563372659485644" lon="10.75345840779685"><ele>237.0</ele><time>2026-04-26T06:50:34Z</time></trkpt><trkpt lat="45.56342705984101" lon="10.753373198128125"><ele>239.16666666666666</ele><time>2026-04-26T06:50:35Z</time></trkpt><trkpt lat="45.56345739223005" lon="10.753287233349322"><ele>241.33333333333331</ele><time>2026-04-26T06:50:36Z</time></trkpt><trkpt lat="45.5635460681724" lon="10.753194207446837"><ele>243.5</ele><time>2026-04-26T06:50:38Z</time></trkpt><trkpt lat="45.56361042230779" lon="10.753117962891272"><ele>245.66666666666666</ele><time>2026-04-26T06:50:39Z</time></trkpt><trkpt lat="45.56366285179754" lon="10.753031135484829"><ele>247.83333333333331</ele><time>2026-04-26T06:50:40Z</time></trkpt><trkpt lat="45.5636596841768" lon="10.752887772622763"><ele>250.0</ele><time>2026-04-26T06:50:41Z</time></trkpt><trkpt lat="45.563627777847834" lon="10.752709837547357"><ele>251.5</ele><time>2026-04-26T06:50:42Z</time></trkpt><trkpt lat="45.56363907692772" lon="10.75260707261765"><ele>253.0</ele><time>2026-04-26T06:50:43Z</time></trkpt><trkpt lat="45.56376001697614" lon="10.752829765076235"><ele>254.5</ele><time>2026-04-26T06:50:47Z</time></trkpt><trkpt lat="45.563781665931195" lon="10.752985707357197"><ele>256.0</ele><time>2026-04-26T06:50:48Z</time></trkpt><trkpt lat="45.56381119580705" lon="10.753157389864704"><ele>255.99999999999997</ele><time>2026-04-26T06:50:49Z</time></trkpt><trkpt lat="45.56384159494897" lon="10.753253513190463"><ele>256.0</ele><time>2026-04-26T06:50:50Z</time></trkpt><trkpt lat="45.5639237363777" lon="10.753225290476793"><ele>256.0</ele><time>2026-04-26T06:50:52Z</time></trkpt><trkpt lat="45.563985024257306" lon="10.753152913364337"><ele>256.0</ele><time>2026-04-26T06:50:53Z</time></trkpt><trkpt lat="45.56399474129559" lon="10.753036247692668"><ele>255.99999999999997</ele><time>2026-04-26T06:50:54Z</time></trkpt><trkpt lat="45.563933840806165" lon="10.752883620338014"><ele>256.0</ele><time>2026-04-26T06:50:55Z</time></trkpt><trkpt lat="45.56390699573709" lon="10.752622618888791"><ele>257.0</ele><time>2026-04-26T06:50:56Z</time></trkpt><trkpt lat="45.5638740830413" lon="10.752409065778975"><ele>258.0</ele><time>2026-04-26T06:50:57Z</time></trkpt><trkpt lat="45.56386260304838" lon="10.752251976744974"><ele>259.0</ele><time>2026-04-26T06:50:58Z</time></trkpt><trkpt lat="45.563881534605066" lon="10.752138863859376"><ele>260.0</ele><time>2026-04-26T06:50:59Z</time></trkpt><trkpt lat="45.56393385025676" lon="10.752047317239173"><ele>261.0</ele><time>2026-04-26T06:51:00Z</time></trkpt><trkpt lat="45.56401490139129" lon="10.75194101303073"><ele>261.0</ele><time>2026-04-26T06:51:01Z</time></trkpt><trkpt lat="45.564109884938325" lon="10.75187479501795"><ele>261.0</ele><time>2026-04-26T06:51:02Z</time></trkpt><trkpt lat="45.5642759024719" lon="10.751770473394341"><ele>261.0</ele><time>2026-04-26T06:51:03Z</time></trkpt><trkpt lat="45.56448587419343" lon="10.75163161355156"><ele>266.0</ele><time>2026-04-26T06:51:04Z</time></trkpt><trkpt lat="45.56465460938176" lon="10.751467608417315"><ele>271.0</ele><time>2026-04-26T06:51:05Z</time></trkpt><trkpt lat="45.564760638897944" lon="10.751339085711"><ele>276.0</ele><time>2026-04-26T06:51:06Z</time></trkpt><trkpt lat="45.564830924213446" lon="10.751195562479106"><ele>276.0</ele><time>2026-04-26T06:51:07Z</time></trkpt><trkpt lat="45.56490798410154" lon="10.751069466386255"><ele>276.0</ele><time>2026-04-26T06:51:08Z</time></trkpt><trkpt lat="45.5649931546076" lon="10.750954539167191"><ele>276.0</ele><time>2026-04-26T06:51:09Z</time></trkpt><trkpt lat="45.5650954457375" lon="10.750887140444183"><ele>276.0</ele><time>2026-04-26T06:51:10Z</time></trkpt><trkpt lat="45.56520937649935" lon="10.750828721161895"><ele>275.75</ele><time>2026-04-26T06:51:11Z</time></trkpt><trkpt lat="45.56531657392559" lon="10.750769742046216"><ele>275.5</ele><time>2026-04-26T06:51:12Z</time></trkpt><trkpt lat="45.56543095005405" lon="10.750701920913764"><ele>275.25</ele><time>2026-04-26T06:51:13Z</time></trkpt><trkpt lat="45.565534720275146" lon="10.750626667320788"><ele>275.0</ele><time>2026-04-26T06:51:14Z</time></trkpt><trkpt lat="45.56562913487663" lon="10.750528267852882"><ele>275.2</ele><time>2026-04-26T06:51:15Z</time></trkpt><trkpt lat="45.565711034522266" lon="10.750441085219453"><ele>275.4</ele><time>2026-04-26T06:51:16Z</time></trkpt><trkpt lat="45.56578171653931" lon="10.750368253106735"><ele>275.6</ele><time>2026-04-26T06:51:17Z</time></trkpt><trkpt lat="45.56585493773824" lon="10.750293115210667"><ele>275.8</ele><time>2026-04-26T06:51:18Z</time></trkpt><trkpt lat="45.56593805643916" lon="10.750208434353599"><ele>276.0</ele><time>2026-04-26T06:51:19Z</time></trkpt><trkpt lat="45.566001651144546" lon="10.750146559405364"><ele>276.0</ele><time>2026-04-26T06:51:20Z</time></trkpt><trkpt lat="45.56607645743902" lon="10.750075090978674"><ele>276.0</ele><time>2026-04-26T06:51:21Z</time></trkpt><trkpt lat="45.566152808876566" lon="10.7499752248949"><ele>276.0</ele><time>2026-04-26T06:51:22Z</time></trkpt><trkpt lat="45.56624267705731" lon="10.749892731772414"><ele>276.0</ele><time>2026-04-26T06:51:23Z</time></trkpt><trkpt lat="45.56632577685019" lon="10.749819285340992"><ele>276.0</ele><time>2026-04-26T06:51:24Z</time></trkpt><trkpt lat="45.566396591036515" lon="10.749737939083799"><ele>275.3333333333333</ele><time>2026-04-26T06:51:25Z</time></trkpt><trkpt lat="45.5664700877642" lon="10.749679538384138"><ele>274.6666666666667</ele><time>2026-04-26T06:51:26Z</time></trkpt><trkpt lat="45.56654056290489" lon="10.749611700267783"><ele>274.0</ele><time>2026-04-26T06:51:27Z</time></trkpt><trkpt lat="45.56660412083028" lon="10.749537910520134"><ele>273.33333333333337</ele><time>2026-04-26T06:51:28Z</time></trkpt><trkpt lat="45.566658920186036" lon="10.749462682916601"><ele>272.6666666666667</ele><time>2026-04-26T06:51:29Z</time></trkpt><trkpt lat="45.56671546277438" lon="10.74934081446093"><ele>272.0</ele><time>2026-04-26T06:51:31Z</time></trkpt><trkpt lat="45.566750226565134" lon="10.749197446666866"><ele>270.75</ele><time>2026-04-26T06:51:33Z</time></trkpt><trkpt lat="45.56673238060387" lon="10.749045141145512"><ele>269.5</ele><time>2026-04-26T06:51:35Z</time></trkpt><trkpt lat="45.56668552002107" lon="10.748910677249462"><ele>268.25</ele><time>2026-04-26T06:51:37Z</time></trkpt><trkpt lat="45.56660229487654" lon="10.748769176067382"><ele>267.0</ele><time>2026-04-26T06:51:39Z</time></trkpt><trkpt lat="45.56654443203513" lon="10.748633803942099"><ele>264.4</ele><time>2026-04-26T06:51:41Z</time></trkpt><trkpt lat="45.566478153187134" lon="10.74848607939711"><ele>261.79999999999995</ele><time>2026-04-26T06:51:43Z</time></trkpt><trkpt lat="45.56643449241658" lon="10.748364764948832"><ele>259.2</ele><time>2026-04-26T06:51:45Z</time></trkpt><trkpt lat="45.566402341959495" lon="10.748231064996363"><ele>256.59999999999997</ele><time>2026-04-26T06:51:47Z</time></trkpt><trkpt lat="45.566368513730794" lon="10.748118485402056"><ele>254.0</ele><time>2026-04-26T06:51:49Z</time></trkpt><trkpt lat="45.56635062185414" lon="10.747957201346912"><ele>254.00000000000003</ele><time>2026-04-26T06:51:51Z</time></trkpt><trkpt lat="45.56635555031394" lon="10.7478345036645"><ele>254.0</ele><time>2026-04-26T06:51:53Z</time></trkpt><trkpt lat="45.56639499841755" lon="10.747725041991808"><ele>254.0</ele><time>2026-04-26T06:51:55Z</time></trkpt><trkpt lat="45.566459228190325" lon="10.747655290552002"><ele>254.0</ele><time>2026-04-26T06:51:57Z</time></trkpt><trkpt lat="45.56652765874836" lon="10.747592443655932"><ele>254.00000000000003</ele><time>2026-04-26T06:51:59Z</time></trkpt><trkpt lat="45.566581327812756" lon="10.747538398424688"><ele>254.0</ele><time>2026-04-26T06:52:01Z</time></trkpt><trkpt lat="45.56667099715534" lon="10.7474754080666"><ele>253.00000000000003</ele><time>2026-04-26T06:52:04Z</time></trkpt><trkpt lat="45.56673209262285" lon="10.747436615605126"><ele>252.0</ele><time>2026-04-26T06:52:06Z</time></trkpt><trkpt lat="45.56679853810063" lon="10.747400148029746"><ele>251.0</ele><time>2026-04-26T06:52:08Z</time></trkpt><trkpt lat="45.56687429404273" lon="10.747385188871855"><ele>250.0</ele><time>2026-04-26T06:52:10Z</time></trkpt><trkpt lat="45.566973641122" lon="10.747386648942713"><ele>249.00000000000003</ele><time>2026-04-26T06:52:12Z</time></trkpt><trkpt lat="45.56707249007784" lon="10.747415111183223"><ele>248.0</ele><time>2026-04-26T06:52:14Z</time></trkpt><trkpt lat="45.56713563573343" lon="10.747427599120359"><ele>246.00000000000003</ele><time>2026-04-26T06:52:15Z</time></trkpt><trkpt lat="45.56725322942497" lon="10.747411523587598"><ele>244.0</ele><time>2026-04-26T06:52:17Z</time></trkpt><trkpt lat="45.56736989702221" lon="10.747384800175062"><ele>242.0</ele><time>2026-04-26T06:52:19Z</time></trkpt><trkpt lat="45.56743768844317" lon="10.74735957366774"><ele>240.0</ele><time>2026-04-26T06:52:20Z</time></trkpt><trkpt lat="45.56750240103221" lon="10.747347325088368"><ele>238.00000000000003</ele><time>2026-04-26T06:52:21Z</time></trkpt><trkpt lat="45.567570425472155" lon="10.74733550577123"><ele>236.0</ele><time>2026-04-26T06:52:22Z</time></trkpt><trkpt lat="45.567652692298985" lon="10.747330459759954"><ele>236.0</ele><time>2026-04-26T06:52:23Z</time></trkpt><trkpt lat="45.567728274943995" lon="10.747328204602061"><ele>236.0</ele><time>2026-04-26T06:52:24Z</time></trkpt><trkpt lat="45.56780230509944" lon="10.747332976080347"><ele>236.0</ele><time>2026-04-26T06:52:25Z</time></trkpt><trkpt lat="45.567870949255216" lon="10.747324460710354"><ele>236.0</ele><time>2026-04-26T06:52:26Z</time></trkpt><trkpt lat="45.56794380590949" lon="10.74732610873706"><ele>236.0</ele><time>2026-04-26T06:52:27Z</time></trkpt><trkpt lat="45.568014854914466" lon="10.747325509082492"><ele>236.0</ele><time>2026-04-26T06:52:28Z</time></trkpt><trkpt lat="45.56808160630283" lon="10.747323744528371"><ele>236.0</ele><time>2026-04-26T06:52:29Z</time></trkpt><trkpt lat="45.568147369734405" lon="10.747321629197309"><ele>235.16666666666669</ele><time>2026-04-26T06:52:30Z</time></trkpt><trkpt lat="45.56826833568944" lon="10.74732443172137"><ele>234.33333333333334</ele><time>2026-04-26T06:52:32Z</time></trkpt><trkpt lat="45.56833515824205" lon="10.747336545575665"><ele>233.5</ele><time>2026-04-26T06:52:33Z</time></trkpt><trkpt lat="45.5683910058747" lon="10.74739004184193"><ele>232.66666666666669</ele><time>2026-04-26T06:52:34Z</time></trkpt><trkpt lat="45.5684893765779" lon="10.747430805921601"><ele>231.83333333333334</ele><time>2026-04-26T06:52:36Z</time></trkpt><trkpt lat="45.56856972470627" lon="10.747469686512458"><ele>231.0</ele><time>2026-04-26T06:52:38Z</time></trkpt><trkpt lat="45.568684551477205" lon="10.747534692658832"><ele>230.16666666666666</ele><time>2026-04-26T06:52:40Z</time></trkpt><trkpt lat="45.56875420789045" lon="10.747590974094196"><ele>229.33333333333331</ele><time>2026-04-26T06:52:41Z</time></trkpt><trkpt lat="45.56882513099131" lon="10.747668000311828"><ele>228.5</ele><time>2026-04-26T06:52:42Z</time></trkpt><trkpt lat="45.56889117176675" lon="10.747743205432306"><ele>227.66666666666666</ele><time>2026-04-26T06:52:43Z</time></trkpt><trkpt lat="45.56894499496321" lon="10.74781036482139"><ele>226.83333333333331</ele><time>2026-04-26T06:52:44Z</time></trkpt><trkpt lat="45.56899874502688" lon="10.747881451901796"><ele>226.0</ele><time>2026-04-26T06:52:45Z</time></trkpt><trkpt lat="45.56905042338496" lon="10.7479481630902"><ele>225.83333333333331</ele><time>2026-04-26T06:52:46Z</time></trkpt><trkpt lat="45.56910673430249" lon="10.748020856081988"><ele>225.66666666666666</ele><time>2026-04-26T06:52:47Z</time></trkpt><trkpt lat="45.569159877204406" lon="10.748083006929498"><ele>225.5</ele><time>2026-04-26T06:52:48Z</time></trkpt><trkpt lat="45.56922597858593" lon="10.748136711968964"><ele>225.33333333333331</ele><time>2026-04-26T06:52:49Z</time></trkpt><trkpt lat="45.56928342275383" lon="10.748195065952839"><ele>225.16666666666666</ele><time>2026-04-26T06:52:50Z</time></trkpt><trkpt lat="45.56932214940061" lon="10.748266453173162"><ele>225.0</ele><time>2026-04-26T06:52:51Z</time></trkpt><trkpt lat="45.56935954847365" lon="10.748501844732498"><ele>225.25</ele><time>2026-04-26T06:52:53Z</time></trkpt><trkpt lat="45.56936699839725" lon="10.74868702562945"><ele>225.5</ele><time>2026-04-26T06:52:54Z</time></trkpt><trkpt lat="45.56937421669855" lon="10.748879700899625"><ele>225.75</ele><time>2026-04-26T06:52:55Z</time></trkpt><trkpt lat="45.569397976406805" lon="10.749077630024633"><ele>226.0</ele><time>2026-04-26T06:52:56Z</time></trkpt><trkpt lat="45.56942285158196" lon="10.749272922341154"><ele>226.20000000000002</ele><time>2026-04-26T06:52:57Z</time></trkpt><trkpt lat="45.56945615498209" lon="10.74943975581928"><ele>226.40000000000003</ele><time>2026-04-26T06:52:58Z</time></trkpt><trkpt lat="45.56948688891281" lon="10.749594760818102"><ele>226.6</ele><time>2026-04-26T06:52:59Z</time></trkpt><trkpt lat="45.56952171800286" lon="10.749724258924806"><ele>226.8</ele><time>2026-04-26T06:53:00Z</time></trkpt><trkpt lat="45.569552033850826" lon="10.749862229612765"><ele>227.0</ele><time>2026-04-26T06:53:01Z</time></trkpt><trkpt lat="45.56958436636682" lon="10.749985382337476"><ele>227.0</ele><time>2026-04-26T06:53:02Z</time></trkpt><trkpt lat="45.5696113830502" lon="10.75009455483398"><ele>227.0</ele><time>2026-04-26T06:53:03Z</time></trkpt><trkpt lat="45.569658004591524" lon="10.750250940485625"><ele>227.0</ele><time>2026-04-26T06:53:05Z</time></trkpt><trkpt lat="45.56969471476006" lon="10.750349654388332"><ele>227.0</ele><time>2026-04-26T06:53:07Z</time></trkpt><trkpt lat="45.56982597821821" lon="10.750268538415291"><ele>227.0</ele><time>2026-04-26T06:53:11Z</time></trkpt><trkpt lat="45.569858045792984" lon="10.750185951813917"><ele>227.00000000000003</ele><time>2026-04-26T06:53:12Z</time></trkpt><trkpt lat="45.56990373284614" lon="10.750110950511768"><ele>227.0</ele><time>2026-04-26T06:53:13Z</time></trkpt><trkpt lat="45.56997590028969" lon="10.749958352649129"><ele>227.0</ele><time>2026-04-26T06:53:15Z</time></trkpt><trkpt lat="45.57001374250379" lon="10.749869079700034"><ele>227.0</ele><time>2026-04-26T06:53:16Z</time></trkpt><trkpt lat="45.57004835555604" lon="10.749770929559316"><ele>227.00000000000003</ele><time>2026-04-26T06:53:17Z</time></trkpt><trkpt lat="45.570078947659006" lon="10.749666481254584"><ele>227.0</ele><time>2026-04-26T06:53:18Z</time></trkpt><trkpt lat="45.57009613541135" lon="10.749540970710235"><ele>226.0</ele><time>2026-04-26T06:53:19Z</time></trkpt><trkpt lat="45.57011909761433" lon="10.749363850645816"><ele>225.0</ele><time>2026-04-26T06:53:20Z</time></trkpt><trkpt lat="45.57015800524197" lon="10.749119289537404"><ele>224.0</ele><time>2026-04-26T06:53:21Z</time></trkpt><trkpt lat="45.57017937740793" lon="10.748902812319676"><ele>224.0</ele><time>2026-04-26T06:53:22Z</time></trkpt><trkpt lat="45.57024854043776" lon="10.748724537602453"><ele>224.0</ele><time>2026-04-26T06:53:23Z</time></trkpt><trkpt lat="45.57032031549622" lon="10.748539317643404"><ele>224.0</ele><time>2026-04-26T06:53:24Z</time></trkpt><trkpt lat="45.57039683165107" lon="10.74839422409586"><ele>224.0</ele><time>2026-04-26T06:53:25Z</time></trkpt><trkpt lat="45.570474395357536" lon="10.74827523242268"><ele>221.16666666666669</ele><time>2026-04-26T06:53:26Z</time></trkpt><trkpt lat="45.570542885554076" lon="10.748161128725254"><ele>218.33333333333334</ele><time>2026-04-26T06:53:27Z</time></trkpt><trkpt lat="45.57061683561073" lon="10.748059567313025"><ele>215.5</ele><time>2026-04-26T06:53:28Z</time></trkpt><trkpt lat="45.570695616438904" lon="10.748016569536041"><ele>212.66666666666669</ele><time>2026-04-26T06:53:29Z</time></trkpt><trkpt lat="45.57076389572087" lon="10.747984756014642"><ele>209.83333333333334</ele><time>2026-04-26T06:53:30Z</time></trkpt><trkpt lat="45.570846570314636" lon="10.748012689699568"><ele>207.0</ele><time>2026-04-26T06:53:31Z</time></trkpt><trkpt lat="45.57091310959584" lon="10.748064983279745"><ele>207.0</ele><time>2026-04-26T06:53:32Z</time></trkpt><trkpt lat="45.57099313322977" lon="10.748141683410852"><ele>207.0</ele><time>2026-04-26T06:53:33Z</time></trkpt><trkpt lat="45.57105296098497" lon="10.748205822130144"><ele>207.0</ele><time>2026-04-26T06:53:35Z</time></trkpt><trkpt lat="45.57112783570901" lon="10.748115632719044"><ele>207.0</ele><time>2026-04-26T06:53:37.001Z</time></trkpt><trkpt lat="45.57116879124601" lon="10.747911127488516"><ele>207.0</ele><time>2026-04-26T06:53:39.001Z</time></trkpt><trkpt lat="45.57119143496806" lon="10.74777322364989"><ele>207.5</ele><time>2026-04-26T06:53:40.001Z</time></trkpt><trkpt lat="45.57121452576082" lon="10.747631767074706"><ele>208.0</ele><time>2026-04-26T06:53:41.001Z</time></trkpt><trkpt lat="45.57124062180214" lon="10.747467811507438"><ele>208.5</ele><time>2026-04-26T06:53:42.001Z</time></trkpt><trkpt lat="45.57127385102551" lon="10.747286596848639"><ele>209.0</ele><time>2026-04-26T06:53:43.001Z</time></trkpt><trkpt lat="45.57129714562958" lon="10.747078775477249"><ele>209.0</ele><time>2026-04-26T06:53:44.001Z</time></trkpt><trkpt lat="45.57133330910632" lon="10.746863762449934"><ele>209.0</ele><time>2026-04-26T06:53:45.001Z</time></trkpt><trkpt lat="45.57136826855398" lon="10.74667972014975"><ele>209.0</ele><time>2026-04-26T06:53:46Z</time></trkpt><trkpt lat="45.571391815533815" lon="10.746516700811384"><ele>209.0</ele><time>2026-04-26T06:53:47Z</time></trkpt><trkpt lat="45.57141398897275" lon="10.74636357418634"><ele>209.0</ele><time>2026-04-26T06:53:48Z</time></trkpt><trkpt lat="45.57142665662593" lon="10.746229090166661"><ele>209.0</ele><time>2026-04-26T06:53:49Z</time></trkpt><trkpt lat="45.57144279109464" lon="10.746081424027368"><ele>209.0</ele><time>2026-04-26T06:53:50Z</time></trkpt><trkpt lat="45.57146441698612" lon="10.74592588918561"><ele>209.0</ele><time>2026-04-26T06:53:51Z</time></trkpt><trkpt lat="45.57149171473339" lon="10.745769984725458"><ele>209.0</ele><time>2026-04-26T06:53:52Z</time></trkpt><trkpt lat="45.57152515179833" lon="10.745615476308094"><ele>209.16666666666669</ele><time>2026-04-26T06:53:53Z</time></trkpt><trkpt lat="45.571555868038296" lon="10.745488888303775"><ele>209.33333333333334</ele><time>2026-04-26T06:53:54Z</time></trkpt><trkpt lat="45.571589041398006" lon="10.745380741845075"><ele>209.5</ele><time>2026-04-26T06:53:55Z</time></trkpt><trkpt lat="45.57161914481195" lon="10.7452833526831"><ele>209.66666666666669</ele><time>2026-04-26T06:53:56Z</time></trkpt><trkpt lat="45.57164640452183" lon="10.74519682027675"><ele>209.83333333333334</ele><time>2026-04-26T06:53:57Z</time></trkpt><trkpt lat="45.571689615368655" lon="10.745051910111448"><ele>210.0</ele><time>2026-04-26T06:53:59Z</time></trkpt><trkpt lat="45.57173980949359" lon="10.744930777240727"><ele>210.0</ele><time>2026-04-26T06:54:01Z</time></trkpt><trkpt lat="45.571775167529275" lon="10.74484936897356"><ele>210.0</ele><time>2026-04-26T06:54:03Z</time></trkpt><trkpt lat="45.57181701293114" lon="10.744750046783672"><ele>210.0</ele><time>2026-04-26T06:55:22Z</time></trkpt><trkpt lat="45.5718700617554" lon="10.744694944791707"><ele>210.0</ele><time>2026-04-26T06:55:25Z</time></trkpt><trkpt lat="45.57185343155555" lon="10.744589250072982"><ele>210.0</ele><time>2026-04-26T06:55:27Z</time></trkpt><trkpt lat="45.5718414535167" lon="10.744477624962768"><ele>210.0</ele><time>2026-04-26T06:55:30Z</time></trkpt><trkpt lat="45.571822411854356" lon="10.74433953573651"><ele>210.33333333333334</ele><time>2026-04-26T06:55:33Z</time></trkpt><trkpt lat="45.57179990497646" lon="10.744235586704388"><ele>210.66666666666669</ele><time>2026-04-26T06:55:36Z</time></trkpt><trkpt lat="45.57179537801176" lon="10.744130700514319"><ele>211.0</ele><time>2026-04-26T06:55:42.001Z</time></trkpt><trkpt lat="45.5717631141649" lon="10.74402994738963"><ele>211.33333333333334</ele><time>2026-04-26T06:55:45.001Z</time></trkpt><trkpt lat="45.571731660589414" lon="10.74392361473536"><ele>211.66666666666669</ele><time>2026-04-26T06:55:49.001Z</time></trkpt><trkpt lat="45.57169734880123" lon="10.743807702663123"><ele>212.0</ele><time>2026-04-26T06:55:52.001Z</time></trkpt><trkpt lat="45.5716613630537" lon="10.743686135621054"><ele>212.00000000000003</ele><time>2026-04-26T06:55:55.001Z</time></trkpt><trkpt lat="45.5716362944219" lon="10.743600745187754"><ele>212.0</ele><time>2026-04-26T06:55:57.001Z</time></trkpt><trkpt lat="45.57160862299767" lon="10.74350363898191"><ele>212.0</ele><time>2026-04-26T06:56:00.001Z</time></trkpt><trkpt lat="45.571583257323184" lon="10.743419040613853"><ele>212.0</ele><time>2026-04-26T06:56:03.001Z</time></trkpt><trkpt lat="45.571555196325924" lon="10.743328777692481"><ele>212.00000000000003</ele><time>2026-04-26T06:56:06.001Z</time></trkpt><trkpt lat="45.5715494852922" lon="10.743234162673525"><ele>212.0</ele><time>2026-04-26T06:56:09.001Z</time></trkpt><trkpt lat="45.572036714499966" lon="10.742764003437824"><ele>210.8</ele><time>2026-04-26T06:56:12.001Z</time></trkpt><trkpt lat="45.572083851643484" lon="10.742665641994812"><ele>209.6</ele><time>2026-04-26T06:56:15.001Z</time></trkpt><trkpt lat="45.57214137880344" lon="10.742543280421417"><ele>208.4</ele><time>2026-04-26T06:56:18.001Z</time></trkpt><trkpt lat="45.57220710471034" lon="10.74250622791351"><ele>207.20000000000002</ele><time>2026-04-26T06:56:20.001Z</time></trkpt><trkpt lat="45.57229964155361" lon="10.742578008495492"><ele>206.0</ele><time>2026-04-26T06:56:22Z</time></trkpt><trkpt lat="45.57239200266972" lon="10.742674750125651"><ele>208.4</ele><time>2026-04-26T06:56:24Z</time></trkpt><trkpt lat="45.57248674978055" lon="10.7427694628948"><ele>210.8</ele><time>2026-04-26T06:56:26Z</time></trkpt><trkpt lat="45.57254524608863" lon="10.742835587588196"><ele>213.20000000000002</ele><time>2026-04-26T06:56:27Z</time></trkpt><trkpt lat="45.57260099266308" lon="10.742884895417342"><ele>215.60000000000002</ele><time>2026-04-26T06:56:28Z</time></trkpt><trkpt lat="45.572712466164816" lon="10.743009896909138"><ele>218.0</ele><time>2026-04-26T06:56:30Z</time></trkpt><trkpt lat="45.572789194483974" lon="10.743073994893335"><ele>215.4</ele><time>2026-04-26T06:56:31Z</time></trkpt><trkpt lat="45.57288012683667" lon="10.743135737566087"><ele>212.8</ele><time>2026-04-26T06:56:32Z</time></trkpt><trkpt lat="45.57295789088642" lon="10.743203607226416"><ele>210.2</ele><time>2026-04-26T06:56:33Z</time></trkpt><trkpt lat="45.573042658381894" lon="10.743269018575281"><ele>207.6</ele><time>2026-04-26T06:56:34Z</time></trkpt><trkpt lat="45.57310507860039" lon="10.743357987978927"><ele>205.0</ele><time>2026-04-26T06:56:35Z</time></trkpt><trkpt lat="45.57317833970092" lon="10.74344161524359"><ele>204.99999999999997</ele><time>2026-04-26T06:56:36Z</time></trkpt><trkpt lat="45.57326172560502" lon="10.743515611903259"><ele>205.0</ele><time>2026-04-26T06:56:37Z</time></trkpt><trkpt lat="45.57333667437605" lon="10.743577806646236"><ele>205.0</ele><time>2026-04-26T06:56:38Z</time></trkpt><trkpt lat="45.57339380626142" lon="10.743645154953004"><ele>205.0</ele><time>2026-04-26T06:56:39Z</time></trkpt><trkpt lat="45.5734429701848" lon="10.743734491202742"><ele>204.99999999999997</ele><time>2026-04-26T06:56:40Z</time></trkpt><trkpt lat="45.573505996143" lon="10.7438331905849"><ele>205.0</ele><time>2026-04-26T06:56:41Z</time></trkpt><trkpt lat="45.57357190408761" lon="10.743920045896765"><ele>204.66666666666666</ele><time>2026-04-26T06:56:42Z</time></trkpt><trkpt lat="45.57363924388407" lon="10.744001659318547"><ele>204.33333333333331</ele><time>2026-04-26T06:56:43Z</time></trkpt><trkpt lat="45.57369113241205" lon="10.744065294216533"><ele>204.0</ele><time>2026-04-26T06:56:44Z</time></trkpt><trkpt lat="45.573772129128486" lon="10.744113452339212"><ele>203.66666666666669</ele><time>2026-04-26T06:56:46Z</time></trkpt><trkpt lat="45.57385605009173" lon="10.744158903366674"><ele>203.33333333333334</ele><time>2026-04-26T06:57:13Z</time></trkpt><trkpt lat="45.57392534767656" lon="10.744178383734623"><ele>203.0</ele><time>2026-04-26T06:57:15Z</time></trkpt><trkpt lat="45.57398764156164" lon="10.744243115577275"><ele>203.00000000000003</ele><time>2026-04-26T06:57:17Z</time></trkpt><trkpt lat="45.57405102589891" lon="10.744316621812997"><ele>203.0</ele><time>2026-04-26T06:57:19Z</time></trkpt><trkpt lat="45.57412360271222" lon="10.74435790718402"><ele>203.0</ele><time>2026-04-26T06:57:21Z</time></trkpt><trkpt lat="45.57419169801312" lon="10.744389241141453"><ele>203.0</ele><time>2026-04-26T06:57:23Z</time></trkpt><trkpt lat="45.57427996261002" lon="10.744456746076274"><ele>203.00000000000003</ele><time>2026-04-26T06:57:25Z</time></trkpt><trkpt lat="45.57435392577838" lon="10.744503972050722"><ele>203.0</ele><time>2026-04-26T06:57:26Z</time></trkpt><trkpt lat="45.57445167301498" lon="10.744578928787014"><ele>203.33333333333334</ele><time>2026-04-26T06:57:28Z</time></trkpt><trkpt lat="45.57453140064431" lon="10.744579638234208"><ele>203.66666666666669</ele><time>2026-04-26T06:57:30Z</time></trkpt><trkpt lat="45.57464117435329" lon="10.74453970816676"><ele>204.0</ele><time>2026-04-26T06:57:32Z</time></trkpt><trkpt lat="45.574711035832145" lon="10.744556403411496"><ele>204.33333333333331</ele><time>2026-04-26T06:57:33Z</time></trkpt><trkpt lat="45.57478469034969" lon="10.744588138314295"><ele>204.66666666666666</ele><time>2026-04-26T06:57:34Z</time></trkpt><trkpt lat="45.5748626449342" lon="10.744626111319016"><ele>205.0</ele><time>2026-04-26T06:57:35Z</time></trkpt><trkpt lat="45.574939826290205" lon="10.744658149402165"><ele>204.99999999999997</ele><time>2026-04-26T06:57:36Z</time></trkpt><trkpt lat="45.57500507547697" lon="10.74468250177067"><ele>205.0</ele><time>2026-04-26T06:57:37Z</time></trkpt><trkpt lat="45.57511312392785" lon="10.744710320591585"><ele>205.0</ele><time>2026-04-26T06:57:39Z</time></trkpt><trkpt lat="45.57521099224056" lon="10.7447274095289"><ele>205.0</ele><time>2026-04-26T06:57:41Z</time></trkpt><trkpt lat="45.57531453444424" lon="10.744738419829059"><ele>204.99999999999997</ele><time>2026-04-26T06:57:48Z</time></trkpt><trkpt lat="45.57537881033939" lon="10.744758775208815"><ele>205.0</ele><time>2026-04-26T06:57:51Z</time></trkpt><trkpt lat="45.57544808352312" lon="10.744783865294783"><ele>203.83333333333331</ele><time>2026-04-26T06:57:59Z</time></trkpt><trkpt lat="45.57551374763647" lon="10.744786225773119"><ele>202.66666666666666</ele><time>2026-04-26T06:58:16Z</time></trkpt><trkpt lat="45.575573992889865" lon="10.744835650337563"><ele>201.5</ele><time>2026-04-26T06:58:36Z</time></trkpt><trkpt lat="45.5756414887387" lon="10.74483344322507"><ele>200.33333333333331</ele><time>2026-04-26T07:00:02Z</time></trkpt><trkpt lat="45.57554573674553" lon="10.744815934853325"><ele>199.16666666666666</ele><time>2026-04-26T07:00:40Z</time></trkpt><trkpt lat="45.57546625933148" lon="10.744784457505995"><ele>198.0</ele><time>2026-04-26T07:00:42Z</time></trkpt><trkpt lat="45.575392759541295" lon="10.744773566139251"><ele>199.4</ele><time>2026-04-26T07:00:44Z</time></trkpt><trkpt lat="45.57530385094328" lon="10.74475521356521"><ele>200.8</ele><time>2026-04-26T07:00:46Z</time></trkpt><trkpt lat="45.57520618513279" lon="10.744729731572562"><ele>202.2</ele><time>2026-04-26T07:00:47Z</time></trkpt><trkpt lat="45.57512066238975" lon="10.744704886394823"><ele>203.6</ele><time>2026-04-26T07:00:48Z</time></trkpt><trkpt lat="45.575026289557705" lon="10.744667717572083"><ele>205.0</ele><time>2026-04-26T07:00:50Z</time></trkpt><trkpt lat="45.574936974857806" lon="10.744642168641501"><ele>205.0</ele><time>2026-04-26T07:00:53Z</time></trkpt><trkpt lat="45.57481945130657" lon="10.744580537784218"><ele>205.0</ele><time>2026-04-26T07:00:56Z</time></trkpt><trkpt lat="45.5747447975463" lon="10.744552082752394"><ele>205.0</ele><time>2026-04-26T07:00:57Z</time></trkpt><trkpt lat="45.57465369540667" lon="10.744550469146173"><ele>205.0</ele><time>2026-04-26T07:00:59Z</time></trkpt><trkpt lat="45.57459076695881" lon="10.744578624887344"><ele>205.0</ele><time>2026-04-26T07:01:01Z</time></trkpt><trkpt lat="45.574472178306586" lon="10.744561058899281"><ele>204.6</ele><time>2026-04-26T07:01:03Z</time></trkpt><trkpt lat="45.57437832169529" lon="10.74446017796642"><ele>204.2</ele><time>2026-04-26T07:01:05Z</time></trkpt><trkpt lat="45.57430118781343" lon="10.74440159523255"><ele>203.8</ele><time>2026-04-26T07:01:06Z</time></trkpt><trkpt lat="45.57422886760426" lon="10.744395084386724"><ele>203.4</ele><time>2026-04-26T07:01:08Z</time></trkpt><trkpt lat="45.57414745501096" lon="10.744334562061242"><ele>203.0</ele><time>2026-04-26T07:01:14Z</time></trkpt><trkpt lat="45.574060546941524" lon="10.74424747779914"><ele>203.00000000000003</ele><time>2026-04-26T07:01:16Z</time></trkpt><trkpt lat="45.57400028012077" lon="10.744203187227809"><ele>203.0</ele><time>2026-04-26T07:01:17Z</time></trkpt><trkpt lat="45.573921163241444" lon="10.744138390583275"><ele>203.0</ele><time>2026-04-26T07:01:19Z</time></trkpt><trkpt lat="45.573901960474295" lon="10.744234885587721"><ele>203.0</ele><time>2026-04-26T07:01:32Z</time></trkpt><trkpt lat="45.57397680438241" lon="10.744346779305252"><ele>203.00000000000003</ele><time>2026-04-26T07:01:34Z</time></trkpt><trkpt lat="45.57405850449792" lon="10.744416093737696"><ele>203.0</ele><time>2026-04-26T07:01:35Z</time></trkpt><trkpt lat="45.574127258935" lon="10.744489936968426"><ele>206.33333333333334</ele><time>2026-04-26T07:01:36Z</time></trkpt><trkpt lat="45.57418574757648" lon="10.744576042198062"><ele>209.66666666666669</ele><time>2026-04-26T07:01:37Z</time></trkpt><trkpt lat="45.574272073658214" lon="10.744674965265125"><ele>213.0</ele><time>2026-04-26T07:01:38Z</time></trkpt><trkpt lat="45.574326703419956" lon="10.744756531853204"><ele>216.33333333333331</ele><time>2026-04-26T07:01:39Z</time></trkpt><trkpt lat="45.57438124264811" lon="10.744815393198406"><ele>219.66666666666666</ele><time>2026-04-26T07:01:40Z</time></trkpt><trkpt lat="45.57444205041175" lon="10.744898705806577"><ele>223.0</ele><time>2026-04-26T07:01:41Z</time></trkpt><trkpt lat="45.574504994793834" lon="10.744981081693544"><ele>223.2</ele><time>2026-04-26T07:01:42Z</time></trkpt><trkpt lat="45.57457209926462" lon="10.745067082008607"><ele>223.4</ele><time>2026-04-26T07:01:43Z</time></trkpt><trkpt lat="45.57462663255058" lon="10.745143192824528"><ele>223.59999999999997</ele><time>2026-04-26T07:01:44Z</time></trkpt><trkpt lat="45.57469873128797" lon="10.745240584035853"><ele>223.79999999999998</ele><time>2026-04-26T07:01:46Z</time></trkpt><trkpt lat="45.57476884678822" lon="10.745339234227222"><ele>224.0</ele><time>2026-04-26T07:01:48Z</time></trkpt><trkpt lat="45.57484457329217" lon="10.745441884477188"><ele>224.00000000000003</ele><time>2026-04-26T07:01:50Z</time></trkpt><trkpt lat="45.574882803489295" lon="10.74556314683699"><ele>224.0</ele><time>2026-04-26T07:01:52Z</time></trkpt><trkpt lat="45.57491441458281" lon="10.745665077692102"><ele>224.0</ele><time>2026-04-26T07:01:53Z</time></trkpt><trkpt lat="45.574969622513585" lon="10.745745387773344"><ele>224.0</ele><time>2026-04-26T07:01:54Z</time></trkpt><trkpt lat="45.57504451201601" lon="10.745815118012024"><ele>224.00000000000003</ele><time>2026-04-26T07:01:55Z</time></trkpt><trkpt lat="45.5751166789423" lon="10.745880684594832"><ele>224.0</ele><time>2026-04-26T07:01:56Z</time></trkpt><trkpt lat="45.57517116004381" lon="10.74592710797451"><ele>224.0</ele><time>2026-04-26T07:01:57Z</time></trkpt><trkpt lat="45.57522563734412" lon="10.745988204028512"><ele>223.99999999999997</ele><time>2026-04-26T07:01:58Z</time></trkpt><trkpt lat="45.57530378254733" lon="10.74605537038768"><ele>223.99999999999997</ele><time>2026-04-26T07:01:59Z</time></trkpt><trkpt lat="45.57541705699115" lon="10.74612779892653"><ele>224.0</ele><time>2026-04-26T07:02:00Z</time></trkpt><trkpt lat="45.575538649887434" lon="10.746197462026482"><ele>224.0</ele><time>2026-04-26T07:02:01Z</time></trkpt><trkpt lat="45.5756307253785" lon="10.746257214924059"><ele>226.25</ele><time>2026-04-26T07:02:02Z</time></trkpt><trkpt lat="45.57571419053913" lon="10.746291907421517"><ele>228.5</ele><time>2026-04-26T07:02:03Z</time></trkpt><trkpt lat="45.5758327166141" lon="10.746300707561813"><ele>230.75</ele><time>2026-04-26T07:02:04Z</time></trkpt><trkpt lat="45.575916563738765" lon="10.746295348704383"><ele>233.0</ele><time>2026-04-26T07:02:05Z</time></trkpt><trkpt lat="45.57603916739909" lon="10.746469764463196"><ele>233.00000000000003</ele><time>2026-04-26T07:02:06Z</time></trkpt><trkpt lat="45.57612870296326" lon="10.746450683345435"><ele>233.0</ele><time>2026-04-26T07:02:07Z</time></trkpt><trkpt lat="45.57619361805958" lon="10.746436217624113"><ele>233.0</ele><time>2026-04-26T07:02:08Z</time></trkpt><trkpt lat="45.57627058422101" lon="10.746428401192489"><ele>233.0</ele><time>2026-04-26T07:02:09Z</time></trkpt><trkpt lat="45.57633808719215" lon="10.746433530926458"><ele>233.00000000000003</ele><time>2026-04-26T07:02:10Z</time></trkpt><trkpt lat="45.57645049933142" lon="10.746461912283618"><ele>233.0</ele><time>2026-04-26T07:02:12Z</time></trkpt><trkpt lat="45.57652068618829" lon="10.746481210481877"><ele>232.8</ele><time>2026-04-26T07:02:13Z</time></trkpt><trkpt lat="45.576610220438695" lon="10.746504591922763"><ele>232.60000000000002</ele><time>2026-04-26T07:02:15Z</time></trkpt><trkpt lat="45.57670398162541" lon="10.746694402373912"><ele>232.39999999999998</ele><time>2026-04-26T07:02:18Z</time></trkpt><trkpt lat="45.5767414414662" lon="10.74681139738002"><ele>232.2</ele><time>2026-04-26T07:02:19Z</time></trkpt><trkpt lat="45.57680850685642" lon="10.746860988196106"><ele>232.0</ele><time>2026-04-26T07:02:20Z</time></trkpt><trkpt lat="45.57687806080711" lon="10.746896614669485"><ele>231.99999999999997</ele><time>2026-04-26T07:02:21Z</time></trkpt><trkpt lat="45.57695186142372" lon="10.746913051468916"><ele>232.0</ele><time>2026-04-26T07:02:22Z</time></trkpt><trkpt lat="45.57704432753333" lon="10.74688792945646"><ele>232.0</ele><time>2026-04-26T07:02:23Z</time></trkpt><trkpt lat="45.577133681395125" lon="10.74686006707891"><ele>232.0</ele><time>2026-04-26T07:02:24Z</time></trkpt><trkpt lat="45.577220426171586" lon="10.7468175995541"><ele>231.99999999999997</ele><time>2026-04-26T07:02:25Z</time></trkpt><trkpt lat="45.57729566641252" lon="10.746774231768148"><ele>232.0</ele><time>2026-04-26T07:02:26Z</time></trkpt><trkpt lat="45.57736833206596" lon="10.746708545272163"><ele>232.39999999999998</ele><time>2026-04-26T07:02:27Z</time></trkpt><trkpt lat="45.577445224359174" lon="10.746652284620371"><ele>232.79999999999998</ele><time>2026-04-26T07:02:28Z</time></trkpt><trkpt lat="45.57753261284797" lon="10.74658819864924"><ele>233.2</ele><time>2026-04-26T07:02:29Z</time></trkpt><trkpt lat="45.57760231888927" lon="10.746508659333532"><ele>233.6</ele><time>2026-04-26T07:02:30Z</time></trkpt><trkpt lat="45.57766495863172" lon="10.746437820491543"><ele>234.0</ele><time>2026-04-26T07:02:31Z</time></trkpt><trkpt lat="45.5777589362358" lon="10.746352586056313"><ele>234.0</ele><time>2026-04-26T07:02:32Z</time></trkpt><trkpt lat="45.57784255690581" lon="10.746236526875316"><ele>233.99999999999997</ele><time>2026-04-26T07:02:33Z</time></trkpt><trkpt lat="45.57790691118071" lon="10.746176957910077"><ele>233.99999999999997</ele><time>2026-04-26T07:02:34Z</time></trkpt><trkpt lat="45.57800709631737" lon="10.746085560338097"><ele>234.0</ele><time>2026-04-26T07:02:36Z</time></trkpt><trkpt lat="45.57807404892978" lon="10.74602267665414"><ele>234.0</ele><time>2026-04-26T07:02:37Z</time></trkpt><trkpt lat="45.578151087041874" lon="10.745970342671168"><ele>232.83333333333334</ele><time>2026-04-26T07:02:38Z</time></trkpt><trkpt lat="45.57822040950639" lon="10.74590512400624"><ele>231.66666666666669</ele><time>2026-04-26T07:02:39Z</time></trkpt><trkpt lat="45.57829870962666" lon="10.745842683957534"><ele>230.5</ele><time>2026-04-26T07:02:40Z</time></trkpt><trkpt lat="45.578378428985864" lon="10.745777641678767"><ele>229.33333333333334</ele><time>2026-04-26T07:02:41Z</time></trkpt><trkpt lat="45.578457916922495" lon="10.745717873266885"><ele>228.16666666666669</ele><time>2026-04-26T07:02:42Z</time></trkpt><trkpt lat="45.57853802280182" lon="10.745648987010936"><ele>227.0</ele><time>2026-04-26T07:02:43Z</time></trkpt><trkpt lat="45.57862617499129" lon="10.745569980917212"><ele>226.6</ele><time>2026-04-26T07:02:44Z</time></trkpt><trkpt lat="45.57870774420904" lon="10.745491266003372"><ele>226.2</ele><time>2026-04-26T07:02:45Z</time></trkpt><trkpt lat="45.578788871013145" lon="10.74541186701267"><ele>225.8</ele><time>2026-04-26T07:02:46Z</time></trkpt><trkpt lat="45.57885394144654" lon="10.74530256144148"><ele>225.4</ele><time>2026-04-26T07:02:47Z</time></trkpt><trkpt lat="45.57892738638049" lon="10.745205009190995"><ele>225.0</ele><time>2026-04-26T07:02:48Z</time></trkpt><trkpt lat="45.57899384362943" lon="10.745102744535258"><ele>224.0</ele><time>2026-04-26T07:02:49Z</time></trkpt><trkpt lat="45.57905256570598" lon="10.744988384270009"><ele>223.0</ele><time>2026-04-26T07:02:50Z</time></trkpt><trkpt lat="45.579126084035316" lon="10.744870989595587"><ele>222.0</ele><time>2026-04-26T07:02:51Z</time></trkpt><trkpt lat="45.579194217804655" lon="10.744766664711095"><ele>221.0</ele><time>2026-04-26T07:02:52Z</time></trkpt><trkpt lat="45.57927156878436" lon="10.744701148483076"><ele>220.0</ele><time>2026-04-26T07:02:53Z</time></trkpt><trkpt lat="45.579380353893534" lon="10.74461307481112"><ele>220.0</ele><time>2026-04-26T07:02:55Z</time></trkpt><trkpt lat="45.579467040807494" lon="10.744655197419853"><ele>220.0</ele><time>2026-04-26T07:02:56Z</time></trkpt><trkpt lat="45.57955365536133" lon="10.744726344973053"><ele>220.0</ele><time>2026-04-26T07:02:57Z</time></trkpt><trkpt lat="45.57966155974826" lon="10.744809853333203"><ele>220.0</ele><time>2026-04-26T07:02:58Z</time></trkpt><trkpt lat="45.5797780370831" lon="10.744892990025631"><ele>220.0</ele><time>2026-04-26T07:02:59Z</time></trkpt><trkpt lat="45.57986877591069" lon="10.744968337767448"><ele>219.4</ele><time>2026-04-26T07:03:00Z</time></trkpt><trkpt lat="45.57995359253575" lon="10.745042477551316"><ele>218.8</ele><time>2026-04-26T07:03:01Z</time></trkpt><trkpt lat="45.58002815758008" lon="10.745127246524625"><ele>218.2</ele><time>2026-04-26T07:03:02Z</time></trkpt><trkpt lat="45.5801164527825" lon="10.7452163365336"><ele>217.6</ele><time>2026-04-26T07:03:03Z</time></trkpt><trkpt lat="45.58022176148571" lon="10.745311036666836"><ele>217.0</ele><time>2026-04-26T07:03:04Z</time></trkpt><trkpt lat="45.580333662257146" lon="10.745384060204879"><ele>220.2</ele><time>2026-04-26T07:03:05Z</time></trkpt><trkpt lat="45.580435162177466" lon="10.745424315891482"><ele>223.39999999999998</ele><time>2026-04-26T07:03:06Z</time></trkpt><trkpt lat="45.580527865281965" lon="10.745442105317968"><ele>226.60000000000002</ele><time>2026-04-26T07:03:07Z</time></trkpt><trkpt lat="45.58062052524389" lon="10.74545671292261"><ele>229.8</ele><time>2026-04-26T07:03:08Z</time></trkpt><trkpt lat="45.58072815338885" lon="10.745482802567434"><ele>233.0</ele><time>2026-04-26T07:03:09Z</time></trkpt><trkpt lat="45.58081481588371" lon="10.745508540619293"><ele>233.00000000000003</ele><time>2026-04-26T07:03:10Z</time></trkpt><trkpt lat="45.58089590295482" lon="10.745533924947987"><ele>233.0</ele><time>2026-04-26T07:03:11Z</time></trkpt><trkpt lat="45.580965193325326" lon="10.745555689655212"><ele>233.0</ele><time>2026-04-26T07:03:12Z</time></trkpt><trkpt lat="45.581042118273004" lon="10.745598483634858"><ele>233.0</ele><time>2026-04-26T07:03:13Z</time></trkpt><trkpt lat="45.581104977585376" lon="10.745614609680564"><ele>233.00000000000003</ele><time>2026-04-26T07:03:14Z</time></trkpt><trkpt lat="45.58118672109738" lon="10.745631041648513"><ele>233.0</ele><time>2026-04-26T07:03:15Z</time></trkpt><trkpt lat="45.581254597912285" lon="10.745579805609124"><ele>231.2</ele><time>2026-04-26T07:03:16Z</time></trkpt><trkpt lat="45.5813371049296" lon="10.745541661403495"><ele>229.4</ele><time>2026-04-26T07:03:17Z</time></trkpt><trkpt lat="45.581365214511294" lon="10.745345983567775"><ele>227.59999999999997</ele><time>2026-04-26T07:03:18Z</time></trkpt><trkpt lat="45.58139986702076" lon="10.745185398398545"><ele>225.79999999999998</ele><time>2026-04-26T07:03:19Z</time></trkpt><trkpt lat="45.58142211398334" lon="10.745044185867586"><ele>224.0</ele><time>2026-04-26T07:03:20Z</time></trkpt><trkpt lat="45.58144778677812" lon="10.744922247006803"><ele>223.6</ele><time>2026-04-26T07:03:21Z</time></trkpt><trkpt lat="45.581499221736266" lon="10.744817887558572"><ele>223.2</ele><time>2026-04-26T07:03:22Z</time></trkpt><trkpt lat="45.58156818493376" lon="10.744758678500892"><ele>222.79999999999998</ele><time>2026-04-26T07:03:23Z</time></trkpt><trkpt lat="45.58166174251163" lon="10.744731211696124"><ele>222.39999999999998</ele><time>2026-04-26T07:03:24Z</time></trkpt><trkpt lat="45.58177278842329" lon="10.744759981105224"><ele>222.0</ele><time>2026-04-26T07:03:25Z</time></trkpt><trkpt lat="45.58190375934828" lon="10.744802489055909"><ele>223.0</ele><time>2026-04-26T07:03:26Z</time></trkpt><trkpt lat="45.58203212968726" lon="10.744830501854883"><ele>224.0</ele><time>2026-04-26T07:03:27Z</time></trkpt><trkpt lat="45.582154492480406" lon="10.744840348000931"><ele>225.0</ele><time>2026-04-26T07:03:28Z</time></trkpt><trkpt lat="45.58227194104208" lon="10.744840388729017"><ele>226.0</ele><time>2026-04-26T07:03:29Z</time></trkpt><trkpt lat="45.58240378160908" lon="10.744817938002665"><ele>226.0</ele><time>2026-04-26T07:03:30Z</time></trkpt><trkpt lat="45.58253249507257" lon="10.744773217312538"><ele>226.0</ele><time>2026-04-26T07:03:31Z</time></trkpt><trkpt lat="45.582648805556786" lon="10.74472425123949"><ele>226.0</ele><time>2026-04-26T07:03:32Z</time></trkpt><trkpt lat="45.58275842648167" lon="10.744681150930846"><ele>226.0</ele><time>2026-04-26T07:03:33Z</time></trkpt><trkpt lat="45.58286546417529" lon="10.744642298217698"><ele>226.4</ele><time>2026-04-26T07:03:34Z</time></trkpt><trkpt lat="45.58297185162385" lon="10.744589899079564"><ele>226.8</ele><time>2026-04-26T07:03:35Z</time></trkpt><trkpt lat="45.583065331517524" lon="10.744556227886141"><ele>227.20000000000002</ele><time>2026-04-26T07:03:36Z</time></trkpt><trkpt lat="45.58315344405041" lon="10.74455612090752"><ele>227.60000000000002</ele><time>2026-04-26T07:03:37Z</time></trkpt><trkpt lat="45.58324470511358" lon="10.744623625890647"><ele>228.0</ele><time>2026-04-26T07:03:38Z</time></trkpt><trkpt lat="45.58333601329579" lon="10.744693865081073"><ele>228.0</ele><time>2026-04-26T07:03:39Z</time></trkpt><trkpt lat="45.58343931858453" lon="10.744767727248462"><ele>228.0</ele><time>2026-04-26T07:03:40Z</time></trkpt><trkpt lat="45.58354102314855" lon="10.744812111341378"><ele>228.0</ele><time>2026-04-26T07:03:41Z</time></trkpt><trkpt lat="45.583644991996564" lon="10.744845788785966"><ele>228.0</ele><time>2026-04-26T07:03:42Z</time></trkpt><trkpt lat="45.5837527037961" lon="10.744832010046983"><ele>228.0</ele><time>2026-04-26T07:03:43Z</time></trkpt><trkpt lat="45.583881268399" lon="10.744788107646688"><ele>229.33333333333331</ele><time>2026-04-26T07:03:44Z</time></trkpt><trkpt lat="45.58403834849064" lon="10.744756342854624"><ele>230.66666666666666</ele><time>2026-04-26T07:03:45Z</time></trkpt><trkpt lat="45.58419340952952" lon="10.744708647117509"><ele>232.0</ele><time>2026-04-26T07:03:46Z</time></trkpt><trkpt lat="45.58435029701345" lon="10.744610482693272"><ele>233.0</ele><time>2026-04-26T07:03:47Z</time></trkpt><trkpt lat="45.58452190200221" lon="10.74449219337969"><ele>234.0</ele><time>2026-04-26T07:03:48Z</time></trkpt><trkpt lat="45.58468254880066" lon="10.744388756138537"><ele>235.0</ele><time>2026-04-26T07:03:49Z</time></trkpt><trkpt lat="45.58482175986893" lon="10.744300934919766"><ele>235.0</ele><time>2026-04-26T07:03:50Z</time></trkpt><trkpt lat="45.58495087132466" lon="10.744221789762827"><ele>235.0</ele><time>2026-04-26T07:03:51Z</time></trkpt><trkpt lat="45.585058759739944" lon="10.744134852867026"><ele>235.0</ele><time>2026-04-26T07:03:52Z</time></trkpt><trkpt lat="45.58514371671006" lon="10.744033801715515"><ele>235.0</ele><time>2026-04-26T07:03:53Z</time></trkpt><trkpt lat="45.58521688411667" lon="10.743944468476792"><ele>234.99999999999997</ele><time>2026-04-26T07:03:54Z</time></trkpt><trkpt lat="45.585277280013074" lon="10.743852274391086"><ele>235.0</ele><time>2026-04-26T07:03:55Z</time></trkpt><trkpt lat="45.58534077355211" lon="10.743769896590559"><ele>235.0</ele><time>2026-04-26T07:03:56Z</time></trkpt><trkpt lat="45.58539817277153" lon="10.743708324387734"><ele>235.0</ele><time>2026-04-26T07:03:57Z</time></trkpt><trkpt lat="45.585471461873794" lon="10.743616867884898"><ele>234.99999999999997</ele><time>2026-04-26T07:03:59Z</time></trkpt><trkpt lat="45.58552245738558" lon="10.743548616384382"><ele>235.0</ele><time>2026-04-26T07:04:02Z</time></trkpt><trkpt lat="45.58557289745545" lon="10.743487474225343"><ele>235.66666666666666</ele><time>2026-04-26T07:04:06Z</time></trkpt><trkpt lat="45.58562485730782" lon="10.743428268376926"><ele>236.33333333333331</ele><time>2026-04-26T07:04:09Z</time></trkpt><trkpt lat="45.58568430801727" lon="10.74339086248875"><ele>237.0</ele><time>2026-04-26T07:04:18Z</time></trkpt><trkpt lat="45.58574800807335" lon="10.743360232580441"><ele>237.66666666666669</ele><time>2026-04-26T07:04:38Z</time></trkpt><trkpt lat="45.58581641210273" lon="10.743326655025896"><ele>238.33333333333334</ele><time>2026-04-26T07:04:41Z</time></trkpt><trkpt lat="45.58583024579905" lon="10.743188539442482"><ele>239.0</ele><time>2026-04-26T07:04:42Z</time></trkpt><trkpt lat="45.585839044584894" lon="10.743016512989097"><ele>239.0</ele><time>2026-04-26T07:04:43Z</time></trkpt><trkpt lat="45.585842605390376" lon="10.742829101085276"><ele>239.0</ele><time>2026-04-26T07:04:44Z</time></trkpt><trkpt lat="45.58584842471862" lon="10.742669607759007"><ele>239.0</ele><time>2026-04-26T07:04:45Z</time></trkpt><trkpt lat="45.58585906293768" lon="10.74251386844249"><ele>239.0</ele><time>2026-04-26T07:04:46Z</time></trkpt><trkpt lat="45.58585991084237" lon="10.74236092983046"><ele>238.0</ele><time>2026-04-26T07:04:47Z</time></trkpt><trkpt lat="45.58586376787255" lon="10.742234387512715"><ele>236.99999999999997</ele><time>2026-04-26T07:04:48Z</time></trkpt><trkpt lat="45.585864553644264" lon="10.742109424476316"><ele>235.99999999999997</ele><time>2026-04-26T07:04:49Z</time></trkpt><trkpt lat="45.58586297140175" lon="10.741981247071694"><ele>235.0</ele><time>2026-04-26T07:04:50Z</time></trkpt><trkpt lat="45.58587010459254" lon="10.741845022825995"><ele>234.0</ele><time>2026-04-26T07:04:51Z</time></trkpt><trkpt lat="45.58585420458365" lon="10.741692181726709"><ele>232.79999999999998</ele><time>2026-04-26T07:04:52Z</time></trkpt><trkpt lat="45.58585450795171" lon="10.741531655783623"><ele>231.59999999999997</ele><time>2026-04-26T07:04:53Z</time></trkpt><trkpt lat="45.585852910354895" lon="10.741365876793555"><ele>230.4</ele><time>2026-04-26T07:04:54Z</time></trkpt><trkpt lat="45.58585036783584" lon="10.741220169194237"><ele>229.2</ele><time>2026-04-26T07:04:55Z</time></trkpt><trkpt lat="45.585838197185645" lon="10.741078043479375"><ele>228.0</ele><time>2026-04-26T07:04:56Z</time></trkpt><trkpt lat="45.5858164347911" lon="10.740904869971054"><ele>227.75</ele><time>2026-04-26T07:04:57Z</time></trkpt><trkpt lat="45.58579887356436" lon="10.740706444639045"><ele>227.5</ele><time>2026-04-26T07:04:58Z</time></trkpt><trkpt lat="45.58578440115802" lon="10.740525257858883"><ele>227.25</ele><time>2026-04-26T07:04:59Z</time></trkpt><trkpt lat="45.58577651365649" lon="10.740331269961104"><ele>227.0</ele><time>2026-04-26T07:05:00Z</time></trkpt><trkpt lat="45.585789859306416" lon="10.740142040436236"><ele>227.0</ele><time>2026-04-26T07:05:01Z</time></trkpt><trkpt lat="45.58582090743127" lon="10.739976311242078"><ele>227.0</ele><time>2026-04-26T07:05:02Z</time></trkpt><trkpt lat="45.58585407944854" lon="10.739837553102179"><ele>227.0</ele><time>2026-04-26T07:05:03Z</time></trkpt><trkpt lat="45.58588164858786" lon="10.739647780494161"><ele>227.0</ele><time>2026-04-26T07:05:04Z</time></trkpt><trkpt lat="45.585777912392466" lon="10.739779093220434"><ele>227.0</ele><time>2026-04-26T07:05:05Z</time></trkpt><trkpt lat="45.58572548515006" lon="10.73962123897344"><ele>227.0</ele><time>2026-04-26T07:05:06Z</time></trkpt><trkpt lat="45.585694302254296" lon="10.739433605860384"><ele>227.0</ele><time>2026-04-26T07:05:07Z</time></trkpt><trkpt lat="45.5856646584835" lon="10.739229210697058"><ele>227.0</ele><time>2026-04-26T07:05:08Z</time></trkpt><trkpt lat="45.585617780658445" lon="10.73900509853559"><ele>227.0</ele><time>2026-04-26T07:05:09Z</time></trkpt><trkpt lat="45.58554378043687" lon="10.73876435581724"><ele>227.0</ele><time>2026-04-26T07:05:10Z</time></trkpt><trkpt lat="45.58547465879047" lon="10.738556162787393"><ele>227.0</ele><time>2026-04-26T07:05:11Z</time></trkpt><trkpt lat="45.58541270904369" lon="10.738333368092306"><ele>226.33333333333334</ele><time>2026-04-26T07:05:12Z</time></trkpt><trkpt lat="45.58536086479934" lon="10.738126423216162"><ele>225.66666666666669</ele><time>2026-04-26T07:05:13Z</time></trkpt><trkpt lat="45.58530761900616" lon="10.737924710623505"><ele>225.0</ele><time>2026-04-26T07:05:14Z</time></trkpt><trkpt lat="45.58525696155294" lon="10.737718776484314"><ele>221.25</ele><time>2026-04-26T07:05:15Z</time></trkpt><trkpt lat="45.58522844935944" lon="10.737509586449237"><ele>217.5</ele><time>2026-04-26T07:05:16Z</time></trkpt><trkpt lat="45.585204417188045" lon="10.737302960215942"><ele>213.75</ele><time>2026-04-26T07:05:17Z</time></trkpt><trkpt lat="45.585219627405294" lon="10.7370883394317"><ele>210.0</ele><time>2026-04-26T07:05:18Z</time></trkpt><trkpt lat="45.58523438208489" lon="10.73688963277008"><ele>208.75</ele><time>2026-04-26T07:05:19Z</time></trkpt><trkpt lat="45.58526252816225" lon="10.736693514618171"><ele>207.5</ele><time>2026-04-26T07:05:20Z</time></trkpt><trkpt lat="45.585305474756126" lon="10.736515208016957"><ele>206.25</ele><time>2026-04-26T07:05:21Z</time></trkpt><trkpt lat="45.585356877516126" lon="10.736332720679979"><ele>205.0</ele><time>2026-04-26T07:05:22Z</time></trkpt><trkpt lat="45.58540818912921" lon="10.736153584047818"><ele>207.0</ele><time>2026-04-26T07:05:23Z</time></trkpt><trkpt lat="45.58546310221953" lon="10.735984157112547"><ele>209.0</ele><time>2026-04-26T07:05:24Z</time></trkpt><trkpt lat="45.58549722277877" lon="10.735811605697455"><ele>211.0</ele><time>2026-04-26T07:05:25Z</time></trkpt><trkpt lat="45.58555027961041" lon="10.735628433246415"><ele>213.0</ele><time>2026-04-26T07:05:26Z</time></trkpt><trkpt lat="45.58560808629288" lon="10.735437025602982"><ele>213.0</ele><time>2026-04-26T07:05:27Z</time></trkpt><trkpt lat="45.585649211319705" lon="10.73522910293132"><ele>213.0</ele><time>2026-04-26T07:05:28Z</time></trkpt><trkpt lat="45.58568147276404" lon="10.734999534644677"><ele>213.0</ele><time>2026-04-26T07:05:29Z</time></trkpt><trkpt lat="45.5857128635385" lon="10.734758242193873"><ele>211.0</ele><time>2026-04-26T07:05:30Z</time></trkpt><trkpt lat="45.58574585409745" lon="10.734521517871842"><ele>209.0</ele><time>2026-04-26T07:05:31Z</time></trkpt><trkpt lat="45.58574074748611" lon="10.734308187054623"><ele>207.0</ele><time>2026-04-26T07:05:32Z</time></trkpt><trkpt lat="45.58575496873193" lon="10.734106849211122"><ele>205.25</ele><time>2026-04-26T07:05:33Z</time></trkpt><trkpt lat="45.58576696659039" lon="10.733915658944703"><ele>203.5</ele><time>2026-04-26T07:05:34Z</time></trkpt><trkpt lat="45.58577359689752" lon="10.733722188332154"><ele>201.75</ele><time>2026-04-26T07:05:35Z</time></trkpt><trkpt lat="45.58577724298136" lon="10.733547091922038"><ele>200.0</ele><time>2026-04-26T07:05:36Z</time></trkpt><trkpt lat="45.58574236959271" lon="10.733388179663772"><ele>199.75</ele><time>2026-04-26T07:05:37Z</time></trkpt><trkpt lat="45.585664056434894" lon="10.733249654425471"><ele>199.5</ele><time>2026-04-26T07:05:38Z</time></trkpt><trkpt lat="45.58555476574491" lon="10.733137907957332"><ele>199.25</ele><time>2026-04-26T07:05:39Z</time></trkpt><trkpt lat="45.58541871394525" lon="10.733059954980488"><ele>199.0</ele><time>2026-04-26T07:05:40Z</time></trkpt><trkpt lat="45.58526585195489" lon="10.732951233350121"><ele>194.33333333333331</ele><time>2026-04-26T07:05:41Z</time></trkpt><trkpt lat="45.585118892056535" lon="10.732752941524657"><ele>189.66666666666666</ele><time>2026-04-26T07:05:42Z</time></trkpt><trkpt lat="45.585012172209005" lon="10.732547970585639"><ele>185.0</ele><time>2026-04-26T07:05:43Z</time></trkpt><trkpt lat="45.58495002802527" lon="10.732335237527451"><ele>185.0</ele><time>2026-04-26T07:05:44Z</time></trkpt><trkpt lat="45.58491791411016" lon="10.7321278849752"><ele>185.0</ele><time>2026-04-26T07:05:46Z</time></trkpt><trkpt lat="45.58490096633666" lon="10.731993200793127"><ele>185.0</ele><time>2026-04-26T07:05:47Z</time></trkpt><trkpt lat="45.584861102630065" lon="10.731840207534551"><ele>185.0</ele><time>2026-04-26T07:05:49Z</time></trkpt><trkpt lat="45.58476196347912" lon="10.731783868996322"><ele>185.0</ele><time>2026-04-26T07:05:51Z</time></trkpt><trkpt lat="45.58470227528805" lon="10.731844793631232"><ele>185.0</ele><time>2026-04-26T07:05:52Z</time></trkpt><trkpt lat="45.58465944470449" lon="10.73193328358121"><ele>185.0</ele><time>2026-04-26T07:05:53Z</time></trkpt><trkpt lat="45.584639055856556" lon="10.73205575882034"><ele>185.0</ele><time>2026-04-26T07:05:54Z</time></trkpt><trkpt lat="45.58463337255135" lon="10.732174243067998"><ele>185.0</ele><time>2026-04-26T07:05:55Z</time></trkpt><trkpt lat="45.58462794546278" lon="10.732291615372224"><ele>185.0</ele><time>2026-04-26T07:05:56Z</time></trkpt><trkpt lat="45.58462220038335" lon="10.732395458526522"><ele>185.0</ele><time>2026-04-26T07:05:57Z</time></trkpt><trkpt lat="45.58462034891005" lon="10.732498812348664"><ele>185.0</ele><time>2026-04-26T07:05:58Z</time></trkpt><trkpt lat="45.58461284757971" lon="10.732597915943538"><ele>185.0</ele><time>2026-04-26T07:05:59Z</time></trkpt><trkpt lat="45.58456485464124" lon="10.732728827379031"><ele>185.0</ele><time>2026-04-26T07:06:01Z</time></trkpt><trkpt lat="45.58447210286811" lon="10.732646933533628"><ele>185.0</ele><time>2026-04-26T07:06:03Z</time></trkpt><trkpt lat="45.58446109125183" lon="10.732534465247475"><ele>185.0</ele><time>2026-04-26T07:06:04Z</time></trkpt><trkpt lat="45.58447530243912" lon="10.732378555015588"><ele>185.0</ele><time>2026-04-26T07:06:05Z</time></trkpt><trkpt lat="45.584496520189184" lon="10.73219031862094"><ele>185.0</ele><time>2026-04-26T07:06:06Z</time></trkpt><trkpt lat="45.5845029262702" lon="10.732007221303627"><ele>185.0</ele><time>2026-04-26T07:06:07Z</time></trkpt><trkpt lat="45.58451462506938" lon="10.731814173194788"><ele>185.0</ele><time>2026-04-26T07:06:08Z</time></trkpt><trkpt lat="45.58451633705415" lon="10.731632262870958"><ele>178.0</ele><time>2026-04-26T07:06:09Z</time></trkpt><trkpt lat="45.58451225928351" lon="10.731464119508555"><ele>171.0</ele><time>2026-04-26T07:06:10Z</time></trkpt><trkpt lat="45.58449327294103" lon="10.731300176762744"><ele>164.0</ele><time>2026-04-26T07:06:11Z</time></trkpt><trkpt lat="45.58446878045388" lon="10.731148202177337"><ele>157.0</ele><time>2026-04-26T07:06:12Z</time></trkpt><trkpt lat="45.58443808874228" lon="10.731001023557221"><ele>157.0</ele><time>2026-04-26T07:06:13Z</time></trkpt><trkpt lat="45.58441751880238" lon="10.730857342822194"><ele>157.0</ele><time>2026-04-26T07:06:14Z</time></trkpt><trkpt lat="45.58439694089421" lon="10.730719247940543"><ele>157.0</ele><time>2026-04-26T07:06:15Z</time></trkpt><trkpt lat="45.58437915529454" lon="10.730582284532959"><ele>157.0</ele><time>2026-04-26T07:06:16Z</time></trkpt><trkpt lat="45.58437144157569" lon="10.730450357684948"><ele>157.0</ele><time>2026-04-26T07:06:17Z</time></trkpt><trkpt lat="45.584360171492676" lon="10.730323596574069"><ele>156.5</ele><time>2026-04-26T07:06:18Z</time></trkpt><trkpt lat="45.58434475484092" lon="10.730200109713081"><ele>156.0</ele><time>2026-04-26T07:06:19Z</time></trkpt><trkpt lat="45.58432502402088" lon="10.730048906760338"><ele>155.5</ele><time>2026-04-26T07:06:20Z</time></trkpt><trkpt lat="45.584299785284905" lon="10.729856601591408"><ele>155.0</ele><time>2026-04-26T07:06:21Z</time></trkpt><trkpt lat="45.5842776376179" lon="10.72969196921107"><ele>155.0</ele><time>2026-04-26T07:06:22Z</time></trkpt><trkpt lat="45.58425616481101" lon="10.729538107671818"><ele>155.0</ele><time>2026-04-26T07:06:23Z</time></trkpt><trkpt lat="45.584235682273096" lon="10.729385401374643"><ele>155.0</ele><time>2026-04-26T07:06:24Z</time></trkpt><trkpt lat="45.584217238031435" lon="10.729234235819122"><ele>155.0</ele><time>2026-04-26T07:06:25Z</time></trkpt><trkpt lat="45.5841926409072" lon="10.729083677140899"><ele>155.0</ele><time>2026-04-26T07:06:26Z</time></trkpt><trkpt lat="45.5841544027253" lon="10.728928621894925"><ele>154.25</ele><time>2026-04-26T07:06:27Z</time></trkpt><trkpt lat="45.58409603183633" lon="10.728772705353498"><ele>153.5</ele><time>2026-04-26T07:06:28Z</time></trkpt><trkpt lat="45.584016111458496" lon="10.72863769774348"><ele>152.75</ele><time>2026-04-26T07:06:29Z</time></trkpt><trkpt lat="45.583921113039594" lon="10.728518758464789"><ele>152.0</ele><time>2026-04-26T07:06:30Z</time></trkpt><trkpt lat="45.58382846581751" lon="10.728404926485629"><ele>151.25</ele><time>2026-04-26T07:06:31Z</time></trkpt><trkpt lat="45.58372853824925" lon="10.728290517013395"><ele>150.5</ele><time>2026-04-26T07:06:32Z</time></trkpt><trkpt lat="45.58365817420751" lon="10.728159420031718"><ele>149.75</ele><time>2026-04-26T07:06:33Z</time></trkpt><trkpt lat="45.58361916362822" lon="10.728020930018106"><ele>149.0</ele><time>2026-04-26T07:06:34Z</time></trkpt><trkpt lat="45.58359798297554" lon="10.7278690728062"><ele>145.4</ele><time>2026-04-26T07:06:35Z</time></trkpt><trkpt lat="45.58358249346264" lon="10.727719474946557"><ele>141.8</ele><time>2026-04-26T07:06:36Z</time></trkpt><trkpt lat="45.583567976168034" lon="10.727572110319379"><ele>138.2</ele><time>2026-04-26T07:06:37Z</time></trkpt><trkpt lat="45.583552152185085" lon="10.727431667089098"><ele>134.6</ele><time>2026-04-26T07:06:38Z</time></trkpt><trkpt lat="45.58353584072216" lon="10.727299649256837"><ele>131.0</ele><time>2026-04-26T07:06:39Z</time></trkpt><trkpt lat="45.58351786766209" lon="10.727170835562141"><ele>131.0</ele><time>2026-04-26T07:06:40Z</time></trkpt><trkpt lat="45.5835023044174" lon="10.72704803197745"><ele>131.0</ele><time>2026-04-26T07:06:41Z</time></trkpt><trkpt lat="45.583486036154135" lon="10.726907827283688"><ele>131.0</ele><time>2026-04-26T07:06:42Z</time></trkpt><trkpt lat="45.58347058591194" lon="10.726770910043658"><ele>131.0</ele><time>2026-04-26T07:06:43Z</time></trkpt><trkpt lat="45.583449688967555" lon="10.726641027608169"><ele>131.0</ele><time>2026-04-26T07:06:44Z</time></trkpt><trkpt lat="45.583432082087576" lon="10.726514889068428"><ele>130.66666666666666</ele><time>2026-04-26T07:06:45Z</time></trkpt><trkpt lat="45.58341841719122" lon="10.726401108255844"><ele>130.33333333333331</ele><time>2026-04-26T07:06:46Z</time></trkpt><trkpt lat="45.58340281051324" lon="10.726283694011515"><ele>130.0</ele><time>2026-04-26T07:06:47Z</time></trkpt><trkpt lat="45.58338875265049" lon="10.726174498282253"><ele>129.66666666666666</ele><time>2026-04-26T07:06:48Z</time></trkpt><trkpt lat="45.58337383784929" lon="10.726077947943086"><ele>129.33333333333334</ele><time>2026-04-26T07:06:49Z</time></trkpt><trkpt lat="45.58335579065081" lon="10.72598625273958"><ele>129.0</ele><time>2026-04-26T07:06:50Z</time></trkpt><trkpt lat="45.583325692217166" lon="10.72589071802492"><ele>128.75</ele><time>2026-04-26T07:06:51Z</time></trkpt><trkpt lat="45.583288106865645" lon="10.725816970855096"><ele>128.5</ele><time>2026-04-26T07:06:52Z</time></trkpt><trkpt lat="45.583198033994435" lon="10.72568972492694"><ele>128.25</ele><time>2026-04-26T07:06:54Z</time></trkpt><trkpt lat="45.58312799426662" lon="10.725570849091364"><ele>128.0</ele><time>2026-04-26T07:06:56Z</time></trkpt><trkpt lat="45.583315133206625" lon="10.725449779832996"><ele>128.0</ele><time>2026-04-26T07:07:01Z</time></trkpt><trkpt lat="45.58341323248854" lon="10.725429249790485"><ele>128.0</ele><time>2026-04-26T07:07:03Z</time></trkpt><trkpt lat="45.58349380258158" lon="10.725430522116316"><ele>128.0</ele><time>2026-04-26T07:07:05Z</time></trkpt><trkpt lat="45.58358433224437" lon="10.725399703196608"><ele>128.0</ele><time>2026-04-26T07:08:07Z</time></trkpt><trkpt lat="45.58362661579762" lon="10.724972004377294"><ele>127.66666666666666</ele><time>2026-04-26T07:08:09Z</time></trkpt><trkpt lat="45.583666872792726" lon="10.72484859857388"><ele>127.33333333333333</ele><time>2026-04-26T07:08:10Z</time></trkpt><trkpt lat="45.58369493349183" lon="10.724727923689189"><ele>127.0</ele><time>2026-04-26T07:08:11Z</time></trkpt><trkpt lat="45.583718259973246" lon="10.72463443460974"><ele>126.66666666666666</ele><time>2026-04-26T07:08:12Z</time></trkpt><trkpt lat="45.58374515568299" lon="10.724543299566841"><ele>126.33333333333333</ele><time>2026-04-26T07:08:13Z</time></trkpt><trkpt lat="45.58380981592335" lon="10.724414877653421"><ele>126.0</ele><time>2026-04-26T07:08:15Z</time></trkpt><trkpt lat="45.583901727088474" lon="10.724293082659837"><ele>126.83333333333333</ele><time>2026-04-26T07:08:17Z</time></trkpt><trkpt lat="45.58395979855891" lon="10.724206287626362"><ele>127.66666666666666</ele><time>2026-04-26T07:08:18Z</time></trkpt><trkpt lat="45.584014498686635" lon="10.724113074966139"><ele>128.5</ele><time>2026-04-26T07:08:19Z</time></trkpt><trkpt lat="45.58406475850379" lon="10.72400775053602"><ele>129.33333333333331</ele><time>2026-04-26T07:08:20Z</time></trkpt><trkpt lat="45.584140353871156" lon="10.72390380785348"><ele>130.16666666666666</ele><time>2026-04-26T07:08:21Z</time></trkpt><trkpt lat="45.584191723754124" lon="10.723822906284102"><ele>131.0</ele><time>2026-04-26T07:08:22Z</time></trkpt><trkpt lat="45.58427187920523" lon="10.723716606947352"><ele>131.0</ele><time>2026-04-26T07:08:24Z</time></trkpt><trkpt lat="45.58432363887726" lon="10.723649505785033"><ele>131.0</ele><time>2026-04-26T07:08:25Z</time></trkpt><trkpt lat="45.5843823740051" lon="10.723589793790273"><ele>131.0</ele><time>2026-04-26T07:08:26Z</time></trkpt><trkpt lat="45.58444867621488" lon="10.723581411103607"><ele>131.0</ele><time>2026-04-26T07:08:27Z</time></trkpt><trkpt lat="45.58452523156962" lon="10.723550494419003"><ele>131.0</ele><time>2026-04-26T07:08:28Z</time></trkpt><trkpt lat="45.58459510696156" lon="10.723512866965711"><ele>131.0</ele><time>2026-04-26T07:08:29Z</time></trkpt><trkpt lat="45.58465678826148" lon="10.723557821350642"><ele>131.0</ele><time>2026-04-26T07:08:30Z</time></trkpt><trkpt lat="45.58469813043736" lon="10.723635952307097"><ele>133.57142857142858</ele><time>2026-04-26T07:08:31Z</time></trkpt><trkpt lat="45.58473758320829" lon="10.723718902569315"><ele>136.14285714285717</ele><time>2026-04-26T07:08:32Z</time></trkpt><trkpt lat="45.58477461609113" lon="10.723793856251028"><ele>138.71428571428572</ele><time>2026-04-26T07:08:33Z</time></trkpt><trkpt lat="45.58482726641434" lon="10.723881649550432"><ele>141.28571428571428</ele><time>2026-04-26T07:08:34Z</time></trkpt><trkpt lat="45.58488164447796" lon="10.723952867559817"><ele>143.85714285714283</ele><time>2026-04-26T07:08:35Z</time></trkpt><trkpt lat="45.58493989422072" lon="10.724006525799803"><ele>146.42857142857142</ele><time>2026-04-26T07:08:36Z</time></trkpt><trkpt lat="45.584999672374835" lon="10.724039190217345"><ele>149.0</ele><time>2026-04-26T07:08:37Z</time></trkpt><trkpt lat="45.585125502334535" lon="10.72407174507736"><ele>149.0</ele><time>2026-04-26T07:08:39Z</time></trkpt><trkpt lat="45.585247993784186" lon="10.724068205542409"><ele>149.0</ele><time>2026-04-26T07:08:41Z</time></trkpt><trkpt lat="45.58531116107612" lon="10.724055252076694"><ele>149.0</ele><time>2026-04-26T07:08:42Z</time></trkpt><trkpt lat="45.58536122250785" lon="10.724113790356572"><ele>149.0</ele><time>2026-04-26T07:08:43Z</time></trkpt><trkpt lat="45.58543371190042" lon="10.724163219166886"><ele>149.0</ele><time>2026-04-26T07:08:44Z</time></trkpt><trkpt lat="45.5855332601865" lon="10.724222380437642"><ele>149.0</ele><time>2026-04-26T07:08:46Z</time></trkpt><trkpt lat="45.58562918709572" lon="10.724303193352334"><ele>150.5</ele><time>2026-04-26T07:08:48Z</time></trkpt><trkpt lat="45.58574658109659" lon="10.724364106447254"><ele>152.0</ele><time>2026-04-26T07:08:50Z</time></trkpt><trkpt lat="45.585862161934" lon="10.724426486248584"><ele>153.5</ele><time>2026-04-26T07:08:52Z</time></trkpt><trkpt lat="45.58594128365851" lon="10.724443295372263"><ele>155.0</ele><time>2026-04-26T07:08:54Z</time></trkpt><trkpt lat="45.58603802624073" lon="10.724572940303045"><ele>155.0</ele><time>2026-04-26T07:08:56Z</time></trkpt><trkpt lat="45.58610230656205" lon="10.724628927334562"><ele>155.0</ele><time>2026-04-26T07:08:57Z</time></trkpt><trkpt lat="45.586183986084" lon="10.724722082630661"><ele>155.0</ele><time>2026-04-26T07:08:58Z</time></trkpt><trkpt lat="45.586249685510275" lon="10.724761390865599"><ele>155.0</ele><time>2026-04-26T07:08:59Z</time></trkpt><trkpt lat="45.58634569337813" lon="10.724805927400142"><ele>155.0</ele><time>2026-04-26T07:09:00Z</time></trkpt><trkpt lat="45.5864196754558" lon="10.724841114804159"><ele>155.0</ele><time>2026-04-26T07:09:01Z</time></trkpt><trkpt lat="45.586484769514875" lon="10.724874776934321"><ele>160.0</ele><time>2026-04-26T07:09:02Z</time></trkpt><trkpt lat="45.586607280515715" lon="10.724937007737461"><ele>165.0</ele><time>2026-04-26T07:09:04Z</time></trkpt><trkpt lat="45.58670821248976" lon="10.724985387869822"><ele>170.0</ele><time>2026-04-26T07:09:06Z</time></trkpt><trkpt lat="45.58682900477187" lon="10.725040764498468"><ele>175.0</ele><time>2026-04-26T07:09:08Z</time></trkpt><trkpt lat="45.58689929190106" lon="10.725071685659591"><ele>180.0</ele><time>2026-04-26T07:09:09Z</time></trkpt><trkpt lat="45.587007001376705" lon="10.725116077311148"><ele>184.0</ele><time>2026-04-26T07:09:11Z</time></trkpt><trkpt lat="45.58707411392557" lon="10.725107723396714"><ele>188.0</ele><time>2026-04-26T07:09:13Z</time></trkpt><trkpt lat="45.587109247029" lon="10.724955364741948"><ele>192.0</ele><time>2026-04-26T07:09:15Z</time></trkpt><trkpt lat="45.58711669911066" lon="10.724796022272242"><ele>196.0</ele><time>2026-04-26T07:09:17Z</time></trkpt><trkpt lat="45.587123905269486" lon="10.72470587341947"><ele>200.0</ele><time>2026-04-26T07:09:18Z</time></trkpt><trkpt lat="45.58713571479492" lon="10.72459687151269"><ele>204.0</ele><time>2026-04-26T07:09:19Z</time></trkpt><trkpt lat="45.58715970016597" lon="10.724487265516048"><ele>203.5</ele><time>2026-04-26T07:09:20Z</time></trkpt><trkpt lat="45.587177009950786" lon="10.724391759295917"><ele>203.0</ele><time>2026-04-26T07:09:21Z</time></trkpt><trkpt lat="45.58718595677513" lon="10.724292560904717"><ele>202.5</ele><time>2026-04-26T07:09:22Z</time></trkpt><trkpt lat="45.587196970346746" lon="10.724185533588917"><ele>202.0</ele><time>2026-04-26T07:09:23Z</time></trkpt><trkpt lat="45.58720089658597" lon="10.724015904066711"><ele>201.5</ele><time>2026-04-26T07:09:25Z</time></trkpt><trkpt lat="45.587214330004066" lon="10.723919669136714"><ele>201.0</ele><time>2026-04-26T07:09:26Z</time></trkpt><trkpt lat="45.58722139378602" lon="10.723818358744527"><ele>201.0</ele><time>2026-04-26T07:09:27Z</time></trkpt><trkpt lat="45.58723783375777" lon="10.72370363652111"><ele>201.0</ele><time>2026-04-26T07:09:28Z</time></trkpt><trkpt lat="45.587234309875335" lon="10.723596947738809"><ele>201.0</ele><time>2026-04-26T07:09:29Z</time></trkpt><trkpt lat="45.587244249780845" lon="10.72348151436443"><ele>201.0</ele><time>2026-04-26T07:09:30Z</time></trkpt><trkpt lat="45.587238345856356" lon="10.723336877734598"><ele>201.0</ele><time>2026-04-26T07:09:31Z</time></trkpt><trkpt lat="45.587230912664445" lon="10.723203824940773"><ele>201.0</ele><time>2026-04-26T07:09:32Z</time></trkpt><trkpt lat="45.587224220403456" lon="10.723089594461578"><ele>200.83333333333334</ele><time>2026-04-26T07:09:33Z</time></trkpt><trkpt lat="45.58721850922254" lon="10.722977171791166"><ele>200.66666666666669</ele><time>2026-04-26T07:09:34Z</time></trkpt><trkpt lat="45.58721441346929" lon="10.72285238192813"><ele>200.5</ele><time>2026-04-26T07:09:35Z</time></trkpt><trkpt lat="45.58721483877037" lon="10.722733087540098"><ele>200.33333333333334</ele><time>2026-04-26T07:09:36Z</time></trkpt><trkpt lat="45.5871994766159" lon="10.72263287704155"><ele>200.16666666666669</ele><time>2026-04-26T07:09:37Z</time></trkpt><trkpt lat="45.587171245818375" lon="10.722548416151975"><ele>200.0</ele><time>2026-04-26T07:09:38Z</time></trkpt><trkpt lat="45.587144858698515" lon="10.72240109651227"><ele>200.0</ele><time>2026-04-26T07:09:40Z</time></trkpt><trkpt lat="45.58711244256082" lon="10.72231060968242"><ele>200.0</ele><time>2026-04-26T07:09:42Z</time></trkpt><trkpt lat="45.587026933897754" lon="10.722222399229803"><ele>200.0</ele><time>2026-04-26T07:09:44Z</time></trkpt><trkpt lat="45.586901490126856" lon="10.722234308535647"><ele>200.0</ele><time>2026-04-26T07:09:46Z</time></trkpt><trkpt lat="45.586832386039134" lon="10.722241873188848"><ele>200.0</ele><time>2026-04-26T07:09:47Z</time></trkpt><trkpt lat="45.58673140755811" lon="10.722249771255802"><ele>195.8</ele><time>2026-04-26T07:09:49Z</time></trkpt><trkpt lat="45.58663478208514" lon="10.722252983000185"><ele>191.6</ele><time>2026-04-26T07:09:51Z</time></trkpt><trkpt lat="45.586578635133435" lon="10.722162529514163"><ele>187.39999999999998</ele><time>2026-04-26T07:09:54Z</time></trkpt><trkpt lat="45.58652427632484" lon="10.72206284320797"><ele>183.2</ele><time>2026-04-26T07:09:55Z</time></trkpt><trkpt lat="45.5864965599465" lon="10.72193005876853"><ele>179.0</ele><time>2026-04-26T07:09:56Z</time></trkpt><trkpt lat="45.58647776938203" lon="10.721784332470397"><ele>179.0</ele><time>2026-04-26T07:09:57Z</time></trkpt><trkpt lat="45.58646849082708" lon="10.721624154014576"><ele>179.0</ele><time>2026-04-26T07:09:58Z</time></trkpt><trkpt lat="45.58645242988804" lon="10.72144785534811"><ele>179.0</ele><time>2026-04-26T07:09:59Z</time></trkpt><trkpt lat="45.58643202614139" lon="10.72126688581913"><ele>179.0</ele><time>2026-04-26T07:10:00Z</time></trkpt><trkpt lat="45.586416525191666" lon="10.721102173948319"><ele>179.6</ele><time>2026-04-26T07:10:01Z</time></trkpt><trkpt lat="45.5864197993725" lon="10.720940225290292"><ele>180.2</ele><time>2026-04-26T07:10:02Z</time></trkpt><trkpt lat="45.586414197041165" lon="10.720789951076892"><ele>180.79999999999998</ele><time>2026-04-26T07:10:03Z</time></trkpt><trkpt lat="45.58640992240861" lon="10.720655941042866"><ele>181.39999999999998</ele><time>2026-04-26T07:10:04Z</time></trkpt><trkpt lat="45.58639181927582" lon="10.720537708310196"><ele>182.0</ele><time>2026-04-26T07:10:05Z</time></trkpt><trkpt lat="45.58639882737426" lon="10.7204005376234"><ele>182.0</ele><time>2026-04-26T07:10:06Z</time></trkpt><trkpt lat="45.58640028024487" lon="10.72026007374226"><ele>182.0</ele><time>2026-04-26T07:10:07Z</time></trkpt><trkpt lat="45.58639706787931" lon="10.720117172637606"><ele>182.0</ele><time>2026-04-26T07:10:08Z</time></trkpt><trkpt lat="45.586379999184835" lon="10.719965984838943"><ele>182.0</ele><time>2026-04-26T07:10:09Z</time></trkpt><trkpt lat="45.58637861308448" lon="10.719795799106778"><ele>182.0</ele><time>2026-04-26T07:10:10Z</time></trkpt><trkpt lat="45.586375239389824" lon="10.719658898098798"><ele>182.39999999999998</ele><time>2026-04-26T07:10:11Z</time></trkpt><trkpt lat="45.5863778805697" lon="10.719510976558345"><ele>182.79999999999998</ele><time>2026-04-26T07:10:12Z</time></trkpt><trkpt lat="45.586368622440595" lon="10.719389878205233"><ele>183.2</ele><time>2026-04-26T07:10:13Z</time></trkpt><trkpt lat="45.58633901679931" lon="10.719265190159264"><ele>183.6</ele><time>2026-04-26T07:10:15Z</time></trkpt><trkpt lat="45.58620948305616" lon="10.71925276632819"><ele>184.0</ele><time>2026-04-26T07:10:17Z</time></trkpt><trkpt lat="45.586077337636056" lon="10.719270581973987"><ele>181.25</ele><time>2026-04-26T07:10:18Z</time></trkpt><trkpt lat="45.5859458427594" lon="10.71928153127504"><ele>178.5</ele><time>2026-04-26T07:10:19Z</time></trkpt><trkpt lat="45.58582117735253" lon="10.719272920988312"><ele>175.75</ele><time>2026-04-26T07:10:20Z</time></trkpt><trkpt lat="45.58571013955263" lon="10.719216884680739"><ele>173.0</ele><time>2026-04-26T07:10:21Z</time></trkpt><trkpt lat="45.58562059540261" lon="10.719153372604792"><ele>173.0</ele><time>2026-04-26T07:10:22Z</time></trkpt><trkpt lat="45.58554094401517" lon="10.719073978719639"><ele>173.0</ele><time>2026-04-26T07:10:23Z</time></trkpt><trkpt lat="45.585491591147836" lon="10.719007792771459"><ele>173.0</ele><time>2026-04-26T07:10:24Z</time></trkpt><trkpt lat="45.58551113477892" lon="10.718898514867417"><ele>173.0</ele><time>2026-04-26T07:10:25Z</time></trkpt><trkpt lat="45.585480312947624" lon="10.71881375373088"><ele>173.0</ele><time>2026-04-26T07:10:26Z</time></trkpt><trkpt lat="45.585418976172846" lon="10.718770607421186"><ele>173.0</ele><time>2026-04-26T07:10:27Z</time></trkpt><trkpt lat="45.585374030617665" lon="10.718702054910366"><ele>173.0</ele><time>2026-04-26T07:10:31Z</time></trkpt><trkpt lat="45.58531550927102" lon="10.718657127295126"><ele>170.16666666666666</ele><time>2026-04-26T07:10:35Z</time></trkpt><trkpt lat="45.585257959949004" lon="10.718696120686428"><ele>167.33333333333331</ele><time>2026-04-26T07:10:46Z</time></trkpt><trkpt lat="45.58518845925499" lon="10.718733210850978"><ele>164.5</ele><time>2026-04-26T07:10:50Z</time></trkpt><trkpt lat="45.585073694188765" lon="10.718764650056817"><ele>161.66666666666666</ele><time>2026-04-26T07:10:52Z</time></trkpt><trkpt lat="45.58495365355619" lon="10.718773364342196"><ele>158.83333333333334</ele><time>2026-04-26T07:10:54Z</time></trkpt><trkpt lat="45.584888617991744" lon="10.718746019319958"><ele>156.0</ele><time>2026-04-26T07:10:55Z</time></trkpt><trkpt lat="45.584824530850604" lon="10.718698981225575"><ele>156.0</ele><time>2026-04-26T07:10:56Z</time></trkpt><trkpt lat="45.584767551927946" lon="10.718657167206645"><ele>156.0</ele><time>2026-04-26T07:10:57Z</time></trkpt><trkpt lat="45.5847161883014" lon="10.71860022116453"><ele>156.0</ele><time>2026-04-26T07:10:58Z</time></trkpt><trkpt lat="45.584667730974154" lon="10.718526042174632"><ele>156.0</ele><time>2026-04-26T07:10:59Z</time></trkpt><trkpt lat="45.584624760798796" lon="10.71844279100271"><ele>156.0</ele><time>2026-04-26T07:11:00Z</time></trkpt><trkpt lat="45.584583529915406" lon="10.718353416721783"><ele>156.0</ele><time>2026-04-26T07:11:01Z</time></trkpt><trkpt lat="45.58454493845376" lon="10.718256568486503"><ele>156.0</ele><time>2026-04-26T07:11:02Z</time></trkpt><trkpt lat="45.58450556758522" lon="10.718152367100343"><ele>153.0</ele><time>2026-04-26T07:11:03Z</time></trkpt><trkpt lat="45.58446128549132" lon="10.718053698211609"><ele>150.0</ele><time>2026-04-26T07:11:04Z</time></trkpt><trkpt lat="45.58441255327526" lon="10.717959723755412"><ele>147.0</ele><time>2026-04-26T07:11:05Z</time></trkpt><trkpt lat="45.5843605585042" lon="10.717858873463301"><ele>144.0</ele><time>2026-04-26T07:11:06Z</time></trkpt><trkpt lat="45.58431617650125" lon="10.71775768007855"><ele>141.0</ele><time>2026-04-26T07:11:07Z</time></trkpt><trkpt lat="45.58426754384888" lon="10.717651126711408"><ele>138.0</ele><time>2026-04-26T07:11:08Z</time></trkpt><trkpt lat="45.58421639118833" lon="10.717543509007252"><ele>138.0</ele><time>2026-04-26T07:11:09Z</time></trkpt><trkpt lat="45.58416415342701" lon="10.717430281714977"><ele>138.0</ele><time>2026-04-26T07:11:10Z</time></trkpt><trkpt lat="45.58411874428803" lon="10.71731199766028"><ele>138.0</ele><time>2026-04-26T07:11:11Z</time></trkpt><trkpt lat="45.58408679004454" lon="10.717163884179296"><ele>138.0</ele><time>2026-04-26T07:11:12Z</time></trkpt><trkpt lat="45.58402123194277" lon="10.71701743838741"><ele>138.0</ele><time>2026-04-26T07:11:13Z</time></trkpt><trkpt lat="45.58397768079478" lon="10.716891595758765"><ele>137.66666666666666</ele><time>2026-04-26T07:11:14Z</time></trkpt><trkpt lat="45.58392999981056" lon="10.716764715333086"><ele>137.33333333333334</ele><time>2026-04-26T07:11:15Z</time></trkpt><trkpt lat="45.583877231464236" lon="10.71665341987482"><ele>137.0</ele><time>2026-04-26T07:11:16Z</time></trkpt><trkpt lat="45.583823583578734" lon="10.71656279850839"><ele>136.66666666666669</ele><time>2026-04-26T07:11:17Z</time></trkpt><trkpt lat="45.58375777339167" lon="10.716499695820076"><ele>136.33333333333334</ele><time>2026-04-26T07:11:18Z</time></trkpt><trkpt lat="45.58367252940974" lon="10.716506924579567"><ele>136.0</ele><time>2026-04-26T07:11:19Z</time></trkpt><trkpt lat="45.583568548839786" lon="10.716537822523637"><ele>130.75</ele><time>2026-04-26T07:11:20Z</time></trkpt><trkpt lat="45.58345545780397" lon="10.71657681008888"><ele>125.5</ele><time>2026-04-26T07:11:21Z</time></trkpt><trkpt lat="45.58332315202216" lon="10.71659987084429"><ele>120.25</ele><time>2026-04-26T07:11:22Z</time></trkpt><trkpt lat="45.58320091869046" lon="10.71661709263895"><ele>115.0</ele><time>2026-04-26T07:11:23Z</time></trkpt><trkpt lat="45.58308471700918" lon="10.716627522377092"><ele>115.0</ele><time>2026-04-26T07:11:24Z</time></trkpt><trkpt lat="45.58296203843263" lon="10.716629464303256"><ele>115.0</ele><time>2026-04-26T07:11:25Z</time></trkpt><trkpt lat="45.582843992944866" lon="10.716622604776296"><ele>115.0</ele><time>2026-04-26T07:11:26Z</time></trkpt><trkpt lat="45.58274371358871" lon="10.716617554555423"><ele>115.0</ele><time>2026-04-26T07:11:27Z</time></trkpt><trkpt lat="45.582635078912595" lon="10.716611035334223"><ele>113.50000000000001</ele><time>2026-04-26T07:11:28Z</time></trkpt><trkpt lat="45.5825380505057" lon="10.716610224085647"><ele>112.0</ele><time>2026-04-26T07:11:29Z</time></trkpt><trkpt lat="45.58246027827241" lon="10.716594952699953"><ele>110.5</ele><time>2026-04-26T07:11:30Z</time></trkpt><trkpt lat="45.582397898207105" lon="10.716570644546048"><ele>109.0</ele><time>2026-04-26T07:11:31Z</time></trkpt><trkpt lat="45.582329445605296" lon="10.716552275430754"><ele>107.50000000000001</ele><time>2026-04-26T07:11:32Z</time></trkpt><trkpt lat="45.58226580082987" lon="10.716541529609529"><ele>106.0</ele><time>2026-04-26T07:11:33Z</time></trkpt><trkpt lat="45.582192774360344" lon="10.716508898770929"><ele>106.0</ele><time>2026-04-26T07:11:34Z</time></trkpt><trkpt lat="45.582104298078455" lon="10.716513257205621"><ele>106.0</ele><time>2026-04-26T07:11:36Z</time></trkpt><trkpt lat="45.58210773882977" lon="10.716290383367154"><ele>106.0</ele><time>2026-04-26T07:11:40Z</time></trkpt><trkpt lat="45.58219482711079" lon="10.716252795470448"><ele>106.0</ele><time>2026-04-26T07:11:41Z</time></trkpt><trkpt lat="45.582242135893836" lon="10.716154098445209"><ele>106.0</ele><time>2026-04-26T07:11:43Z</time></trkpt><trkpt lat="45.58223704028794" lon="10.716013180678086"><ele>106.6</ele><time>2026-04-26T07:11:45Z</time></trkpt><trkpt lat="45.582222960949565" lon="10.7158904135066"><ele>107.19999999999999</ele><time>2026-04-26T07:11:47Z</time></trkpt><trkpt lat="45.582195051543856" lon="10.715712955504754"><ele>107.80000000000001</ele><time>2026-04-26T07:11:49Z</time></trkpt><trkpt lat="45.58219722399062" lon="10.715620592700043"><ele>108.4</ele><time>2026-04-26T07:11:50Z</time></trkpt><trkpt lat="45.58218531222289" lon="10.715476709343212"><ele>109.0</ele><time>2026-04-26T07:11:52Z</time></trkpt><trkpt lat="45.58216526626961" lon="10.71533578022758"><ele>109.66666666666667</ele><time>2026-04-26T07:11:54Z</time></trkpt><trkpt lat="45.582163579224535" lon="10.715215913009578"><ele>110.33333333333334</ele><time>2026-04-26T07:11:56Z</time></trkpt><trkpt lat="45.582225295219835" lon="10.715096652649848"><ele>111.0</ele><time>2026-04-26T07:11:58Z</time></trkpt><trkpt lat="45.582290413989156" lon="10.715050032734915"><ele>111.66666666666666</ele><time>2026-04-26T07:11:59Z</time></trkpt><trkpt lat="45.58233638650389" lon="10.714978836411534"><ele>112.33333333333333</ele><time>2026-04-26T07:12:00Z</time></trkpt><trkpt lat="45.58241370616825" lon="10.714884008510394"><ele>113.0</ele><time>2026-04-26T07:12:02Z</time></trkpt><trkpt lat="45.582482035917565" lon="10.714797578098127"><ele>113.0</ele><time>2026-04-26T07:12:05Z</time></trkpt><trkpt lat="45.58255655334703" lon="10.714763329116508"><ele>113.0</ele><time>2026-04-26T07:12:07Z</time></trkpt><trkpt lat="45.582620012145604" lon="10.714728297991302"><ele>113.0</ele><time>2026-04-26T07:12:12Z</time></trkpt><trkpt lat="45.582560809389804" lon="10.714408491880807"><ele>113.0</ele><time>2026-04-26T07:12:14Z</time></trkpt><trkpt lat="45.58253613304644" lon="10.714294844442914"><ele>112.83333333333333</ele><time>2026-04-26T07:12:15Z</time></trkpt><trkpt lat="45.5825160109348" lon="10.71420033655898"><ele>112.66666666666666</ele><time>2026-04-26T07:12:16Z</time></trkpt><trkpt lat="45.58248249363522" lon="10.714033530523029"><ele>112.5</ele><time>2026-04-26T07:12:18Z</time></trkpt><trkpt lat="45.5824639157161" lon="10.713941073558184"><ele>112.33333333333334</ele><time>2026-04-26T07:12:19Z</time></trkpt><trkpt lat="45.582429766042296" lon="10.713861586615092"><ele>112.16666666666667</ele><time>2026-04-26T07:12:20Z</time></trkpt><trkpt lat="45.58240454067977" lon="10.713755566232836"><ele>112.0</ele><time>2026-04-26T07:12:21Z</time></trkpt><trkpt lat="45.5823740915507" lon="10.713651038851271"><ele>112.8</ele><time>2026-04-26T07:12:22Z</time></trkpt><trkpt lat="45.58234283358613" lon="10.713556320203406"><ele>113.6</ele><time>2026-04-26T07:12:23Z</time></trkpt><trkpt lat="45.58228477421128" lon="10.713383206670217"><ele>114.39999999999999</ele><time>2026-04-26T07:12:25Z</time></trkpt><trkpt lat="45.58223069566811" lon="10.713240431878585"><ele>115.19999999999999</ele><time>2026-04-26T07:12:27Z</time></trkpt><trkpt lat="45.58219555898151" lon="10.713149190673443"><ele>116.0</ele><time>2026-04-26T07:12:28Z</time></trkpt><trkpt lat="45.5821590731283" lon="10.71305104561803"><ele>115.99999999999999</ele><time>2026-04-26T07:12:29Z</time></trkpt><trkpt lat="45.582149195395" lon="10.712950233787117"><ele>116.0</ele><time>2026-04-26T07:12:30Z</time></trkpt><trkpt lat="45.58211227812883" lon="10.712851470344416"><ele>116.0</ele><time>2026-04-26T07:12:31Z</time></trkpt><trkpt lat="45.58209568042983" lon="10.712749821437512"><ele>116.0</ele><time>2026-04-26T07:12:32Z</time></trkpt><trkpt lat="45.58206434498213" lon="10.712586574924375"><ele>115.99999999999999</ele><time>2026-04-26T07:12:34Z</time></trkpt><trkpt lat="45.58203047880626" lon="10.712495665438825"><ele>116.0</ele><time>2026-04-26T07:12:35Z</time></trkpt><trkpt lat="45.58197427147141" lon="10.712319480485325"><ele>116.0</ele><time>2026-04-26T07:12:37Z</time></trkpt><trkpt lat="45.58192235665454" lon="10.712167877031304"><ele>116.0</ele><time>2026-04-26T07:12:39Z</time></trkpt><trkpt lat="45.581885368192594" lon="10.712059862043894"><ele>116.0</ele><time>2026-04-26T07:12:40Z</time></trkpt><trkpt lat="45.58191929061503" lon="10.71193274421739"><ele>116.0</ele><time>2026-04-26T07:12:41Z</time></trkpt><trkpt lat="45.581866739466086" lon="10.711818829533977"><ele>116.0</ele><time>2026-04-26T07:12:43Z</time></trkpt><trkpt lat="45.58181959730657" lon="10.711675259969358"><ele>115.99999999999999</ele><time>2026-04-26T07:12:45Z</time></trkpt><trkpt lat="45.58179780694259" lon="10.711589718499523"><ele>116.0</ele><time>2026-04-26T07:12:46Z</time></trkpt><trkpt lat="45.58178326957828" lon="10.71149275607583"><ele>116.0</ele><time>2026-04-26T07:12:47Z</time></trkpt><trkpt lat="45.58176591519533" lon="10.711342677915269"><ele>116.0</ele><time>2026-04-26T07:12:49Z</time></trkpt><trkpt lat="45.5817450896751" lon="10.711163491051394"><ele>115.99999999999999</ele><time>2026-04-26T07:12:51Z</time></trkpt><trkpt lat="45.581741101683484" lon="10.71106781873251"><ele>116.0</ele><time>2026-04-26T07:12:52Z</time></trkpt><trkpt lat="45.58172646422439" lon="10.71094504630541"><ele>116.49999999999999</ele><time>2026-04-26T07:12:54Z</time></trkpt><trkpt lat="45.58170940393298" lon="10.710810843130652"><ele>117.0</ele><time>2026-04-26T07:12:57Z</time></trkpt><trkpt lat="45.58170065310037" lon="10.710707730000701"><ele>117.5</ele><time>2026-04-26T07:13:00Z</time></trkpt><trkpt lat="45.58169797506006" lon="10.710602132563901"><ele>118.0</ele><time>2026-04-26T07:13:03Z</time></trkpt><trkpt lat="45.5816925420219" lon="10.710474543788957"><ele>118.49999999999999</ele><time>2026-04-26T07:13:06Z</time></trkpt><trkpt lat="45.581702942193324" lon="10.710372474072331"><ele>119.0</ele><time>2026-04-26T07:13:10Z</time></trkpt><trkpt lat="45.58181300999108" lon="10.71031960368576"><ele>119.0</ele><time>2026-04-26T07:13:13Z</time></trkpt><trkpt lat="45.58193015484169" lon="10.71037543848513"><ele>119.0</ele><time>2026-04-26T07:13:14Z</time></trkpt><trkpt lat="45.582060655215706" lon="10.710423044138526"><ele>119.0</ele><time>2026-04-26T07:13:15Z</time></trkpt><trkpt lat="45.58216148127008" lon="10.710457265944473"><ele>119.0</ele><time>2026-04-26T07:13:16Z</time></trkpt><trkpt lat="45.5822506712872" lon="10.710460440319448"><ele>120.66666666666666</ele><time>2026-04-26T07:13:17Z</time></trkpt><trkpt lat="45.58232892019207" lon="10.710456689745252"><ele>122.33333333333333</ele><time>2026-04-26T07:13:18Z</time></trkpt><trkpt lat="45.58240587294218" lon="10.710466245168233"><ele>124.0</ele><time>2026-04-26T07:13:19Z</time></trkpt><trkpt lat="45.58246996969844" lon="10.710466275492996"><ele>125.66666666666666</ele><time>2026-04-26T07:13:20Z</time></trkpt><trkpt lat="45.58254284012818" lon="10.710473450377776"><ele>127.33333333333333</ele><time>2026-04-26T07:13:21Z</time></trkpt><trkpt lat="45.58263037157645" lon="10.710478338022082"><ele>129.0</ele><time>2026-04-26T07:13:22Z</time></trkpt><trkpt lat="45.582715676233406" lon="10.710475841985527"><ele>129.0</ele><time>2026-04-26T07:13:23Z</time></trkpt><trkpt lat="45.58280918445464" lon="10.710478562931295"><ele>129.0</ele><time>2026-04-26T07:13:24Z</time></trkpt><trkpt lat="45.582907534225406" lon="10.710461838349996"><ele>129.0</ele><time>2026-04-26T07:13:25Z</time></trkpt><trkpt lat="45.58302830992369" lon="10.710435423529669"><ele>129.0</ele><time>2026-04-26T07:13:26Z</time></trkpt><trkpt lat="45.58314576084519" lon="10.710410603259879"><ele>129.0</ele><time>2026-04-26T07:13:27Z</time></trkpt><trkpt lat="45.583263965490566" lon="10.710393876473676"><ele>131.2</ele><time>2026-04-26T07:13:28Z</time></trkpt><trkpt lat="45.583376899439244" lon="10.710360745307426"><ele>133.4</ele><time>2026-04-26T07:13:29Z</time></trkpt><trkpt lat="45.583485848547156" lon="10.710337113549738"><ele>135.6</ele><time>2026-04-26T07:13:30Z</time></trkpt><trkpt lat="45.58358638770443" lon="10.710326372590577"><ele>137.8</ele><time>2026-04-26T07:13:31Z</time></trkpt><trkpt lat="45.58370747807108" lon="10.710328827520707"><ele>140.0</ele><time>2026-04-26T07:13:32Z</time></trkpt><trkpt lat="45.58382836654423" lon="10.710337510597821"><ele>142.5</ele><time>2026-04-26T07:13:33Z</time></trkpt><trkpt lat="45.583949826992665" lon="10.710352151322484"><ele>145.0</ele><time>2026-04-26T07:13:34Z</time></trkpt><trkpt lat="45.58406251705831" lon="10.710371968774828"><ele>147.5</ele><time>2026-04-26T07:13:35Z</time></trkpt><trkpt lat="45.5841980300775" lon="10.710414964025889"><ele>150.0</ele><time>2026-04-26T07:13:36Z</time></trkpt><trkpt lat="45.58431692242597" lon="10.710447746598113"><ele>150.0</ele><time>2026-04-26T07:13:37Z</time></trkpt><trkpt lat="45.58441549039271" lon="10.710478463394871"><ele>150.0</ele><time>2026-04-26T07:13:38Z</time></trkpt><trkpt lat="45.58452449075832" lon="10.710517488856597"><ele>150.0</ele><time>2026-04-26T07:13:39Z</time></trkpt><trkpt lat="45.58462088231004" lon="10.710552878479156"><ele>150.0</ele><time>2026-04-26T07:13:40Z</time></trkpt><trkpt lat="45.5847090625318" lon="10.710581132932314"><ele>150.0</ele><time>2026-04-26T07:13:41Z</time></trkpt><trkpt lat="45.58479254703105" lon="10.710601973884112"><ele>152.33333333333334</ele><time>2026-04-26T07:13:42Z</time></trkpt><trkpt lat="45.58486540384741" lon="10.710614571285152"><ele>154.66666666666666</ele><time>2026-04-26T07:13:43Z</time></trkpt><trkpt lat="45.584936979237156" lon="10.710622883275766"><ele>157.0</ele><time>2026-04-26T07:13:44Z</time></trkpt><trkpt lat="45.58503902541527" lon="10.710637177587449"><ele>159.33333333333331</ele><time>2026-04-26T07:13:45Z</time></trkpt><trkpt lat="45.585133243723455" lon="10.710633618455372"><ele>161.66666666666666</ele><time>2026-04-26T07:13:46Z</time></trkpt><trkpt lat="45.58521556819598" lon="10.71062959810105"><ele>164.0</ele><time>2026-04-26T07:13:47Z</time></trkpt><trkpt lat="45.58530716078083" lon="10.710614916160234"><ele>167.0</ele><time>2026-04-26T07:13:48Z</time></trkpt><trkpt lat="45.58540084508359" lon="10.710587410717364"><ele>170.0</ele><time>2026-04-26T07:13:49Z</time></trkpt><trkpt lat="45.585488317894296" lon="10.710556514473893"><ele>173.0</ele><time>2026-04-26T07:13:50Z</time></trkpt><trkpt lat="45.58556512305144" lon="10.71052015451283"><ele>176.0</ele><time>2026-04-26T07:13:51Z</time></trkpt><trkpt lat="45.585639536421745" lon="10.710480389439613"><ele>179.0</ele><time>2026-04-26T07:13:52Z</time></trkpt><trkpt lat="45.58571921175102" lon="10.710439885610933"><ele>182.0</ele><time>2026-04-26T07:13:53Z</time></trkpt><trkpt lat="45.585804843502494" lon="10.71040757101629"><ele>182.0</ele><time>2026-04-26T07:13:54Z</time></trkpt><trkpt lat="45.58589678595834" lon="10.710385313240227"><ele>182.0</ele><time>2026-04-26T07:13:55Z</time></trkpt><trkpt lat="45.585998921999106" lon="10.710376204627652"><ele>182.0</ele><time>2026-04-26T07:13:56Z</time></trkpt><trkpt lat="45.586097317443325" lon="10.710378888630082"><ele>182.0</ele><time>2026-04-26T07:13:57Z</time></trkpt><trkpt lat="45.5861795086957" lon="10.71038838842493"><ele>182.0</ele><time>2026-04-26T07:13:58Z</time></trkpt><trkpt lat="45.5862497783331" lon="10.710400214270901"><ele>182.0</ele><time>2026-04-26T07:13:59Z</time></trkpt><trkpt lat="45.58631447885562" lon="10.710431542373739"><ele>187.25</ele><time>2026-04-26T07:14:00Z</time></trkpt><trkpt lat="45.58643176525652" lon="10.71046257616573"><ele>192.5</ele><time>2026-04-26T07:14:02Z</time></trkpt><trkpt lat="45.58655302502434" lon="10.710452378488121"><ele>197.75</ele><time>2026-04-26T07:14:04Z</time></trkpt><trkpt lat="45.58662912424938" lon="10.71044297702279"><ele>203.0</ele><time>2026-04-26T07:14:05Z</time></trkpt><trkpt lat="45.586771693059084" lon="10.710394432020262"><ele>203.0</ele><time>2026-04-26T07:14:07Z</time></trkpt><trkpt lat="45.586890512593804" lon="10.71032683467639"><ele>203.0</ele><time>2026-04-26T07:14:09Z</time></trkpt><trkpt lat="45.58694976951436" lon="10.710281151165725"><ele>203.0</ele><time>2026-04-26T07:14:10Z</time></trkpt><trkpt lat="45.58706601517165" lon="10.710214933126723"><ele>203.0</ele><time>2026-04-26T07:14:12Z</time></trkpt><trkpt lat="45.58715100913411" lon="10.710194166694935"><ele>203.0</ele><time>2026-04-26T07:14:14Z</time></trkpt><trkpt lat="45.58724079441141" lon="10.71029596823482"><ele>203.0</ele><time>2026-04-26T07:14:16Z</time></trkpt><trkpt lat="45.5871455434" lon="10.710408702323413"><ele>203.0</ele><time>2026-04-26T07:14:17Z</time></trkpt><trkpt lat="45.58707715285337" lon="10.71050388983704"><ele>203.0</ele><time>2026-04-26T07:14:18Z</time></trkpt><trkpt lat="45.587018158631224" lon="10.710558173965634"><ele>203.0</ele><time>2026-04-26T07:14:19Z</time></trkpt><trkpt lat="45.586993810862886" lon="10.710689898307832"><ele>203.0</ele><time>2026-04-26T07:14:21Z</time></trkpt><trkpt lat="45.58706473299872" lon="10.710806481417738"><ele>207.25</ele><time>2026-04-26T07:14:23Z</time></trkpt><trkpt lat="45.58718043785955" lon="10.710771351091685"><ele>211.5</ele><time>2026-04-26T07:14:24Z</time></trkpt><trkpt lat="45.58728366833117" lon="10.710709817026368"><ele>215.75</ele><time>2026-04-26T07:14:25Z</time></trkpt><trkpt lat="45.587376970768865" lon="10.71062554085665"><ele>220.0</ele><time>2026-04-26T07:14:26Z</time></trkpt><trkpt lat="45.58746400751229" lon="10.710512427132132"><ele>220.0</ele><time>2026-04-26T07:14:27Z</time></trkpt><trkpt lat="45.5875689125479" lon="10.710414653071599"><ele>220.0</ele><time>2026-04-26T07:14:28Z</time></trkpt><trkpt lat="45.58765847966967" lon="10.710342500630883"><ele>220.0</ele><time>2026-04-26T07:14:29Z</time></trkpt><trkpt lat="45.58774533147404" lon="10.710308409222764"><ele>220.0</ele><time>2026-04-26T07:14:30Z</time></trkpt><trkpt lat="45.58782453089692" lon="10.710282218171658"><ele>220.0</ele><time>2026-04-26T07:14:31Z</time></trkpt><trkpt lat="45.58791277805588" lon="10.71025852190277"><ele>222.49999999999997</ele><time>2026-04-26T07:14:32Z</time></trkpt><trkpt lat="45.58799615555297" lon="10.710280691891388"><ele>225.0</ele><time>2026-04-26T07:14:33Z</time></trkpt><trkpt lat="45.58807111214055" lon="10.710338938857047"><ele>227.5</ele><time>2026-04-26T07:14:35Z</time></trkpt><trkpt lat="45.588155788173204" lon="10.7104168311028"><ele>230.0</ele><time>2026-04-26T07:14:37Z</time></trkpt><trkpt lat="45.58823843241563" lon="10.710421935745131"><ele>232.49999999999997</ele><time>2026-04-26T07:14:39Z</time></trkpt><trkpt lat="45.588327611221885" lon="10.71042148453452"><ele>235.0</ele><time>2026-04-26T07:14:41Z</time></trkpt><trkpt lat="45.58842578875772" lon="10.710445246658495"><ele>235.0</ele><time>2026-04-26T07:14:43Z</time></trkpt><trkpt lat="45.588501094352964" lon="10.710425993765078"><ele>235.0</ele><time>2026-04-26T07:14:44Z</time></trkpt><trkpt lat="45.58859451927481" lon="10.710361159039362"><ele>235.0</ele><time>2026-04-26T07:14:45Z</time></trkpt><trkpt lat="45.58867929270891" lon="10.710240548562572"><ele>235.0</ele><time>2026-04-26T07:14:46Z</time></trkpt><trkpt lat="45.588717508361334" lon="10.710079909282657"><ele>235.0</ele><time>2026-04-26T07:14:47Z</time></trkpt><trkpt lat="45.58872690554334" lon="10.70993477503354"><ele>235.2</ele><time>2026-04-26T07:14:48Z</time></trkpt><trkpt lat="45.588688301106586" lon="10.709791588244508"><ele>235.4</ele><time>2026-04-26T07:14:49Z</time></trkpt><trkpt lat="45.58864518922946" lon="10.709669407373374"><ele>235.60000000000002</ele><time>2026-04-26T07:14:50Z</time></trkpt><trkpt lat="45.58858620832081" lon="10.709569845719553"><ele>235.8</ele><time>2026-04-26T07:14:51Z</time></trkpt><trkpt lat="45.588538373224026" lon="10.709464628318859"><ele>236.0</ele><time>2026-04-26T07:14:52Z</time></trkpt><trkpt lat="45.58849761190632" lon="10.70935249481441"><ele>233.60000000000002</ele><time>2026-04-26T07:14:53Z</time></trkpt><trkpt lat="45.58844454623131" lon="10.70923494007599"><ele>231.20000000000002</ele><time>2026-04-26T07:14:54Z</time></trkpt><trkpt lat="45.58840811619361" lon="10.709144989810623"><ele>228.79999999999998</ele><time>2026-04-26T07:14:55Z</time></trkpt><trkpt lat="45.58844041147901" lon="10.709044366659827"><ele>226.39999999999998</ele><time>2026-04-26T07:14:56Z</time></trkpt><trkpt lat="45.58849017917438" lon="10.708961456810071"><ele>224.0</ele><time>2026-04-26T07:14:57Z</time></trkpt><trkpt lat="45.58862621303667" lon="10.708978928959791"><ele>230.33333333333334</ele><time>2026-04-26T07:14:59Z</time></trkpt><trkpt lat="45.58871613497348" lon="10.709080341843437"><ele>236.66666666666669</ele><time>2026-04-26T07:15:00Z</time></trkpt><trkpt lat="45.58885058380782" lon="10.70922589019724"><ele>243.0</ele><time>2026-04-26T07:15:01Z</time></trkpt><trkpt lat="45.58899441442032" lon="10.709393006675326"><ele>241.25</ele><time>2026-04-26T07:15:02Z</time></trkpt><trkpt lat="45.58910370515072" lon="10.709566917591264"><ele>239.5</ele><time>2026-04-26T07:15:03Z</time></trkpt><trkpt lat="45.58918382879495" lon="10.70972259690478"><ele>237.75</ele><time>2026-04-26T07:15:04Z</time></trkpt><trkpt lat="45.589246999834096" lon="10.709868504080198"><ele>236.0</ele><time>2026-04-26T07:15:05Z</time></trkpt><trkpt lat="45.58930480494641" lon="10.710003943731385"><ele>236.0</ele><time>2026-04-26T07:15:06Z</time></trkpt><trkpt lat="45.589383678017875" lon="10.7101580583353"><ele>236.0</ele><time>2026-04-26T07:15:07Z</time></trkpt><trkpt lat="45.58946893729657" lon="10.71036082523702"><ele>236.0</ele><time>2026-04-26T07:15:08Z</time></trkpt><trkpt lat="45.5895132563444" lon="10.710532994347993"><ele>236.0</ele><time>2026-04-26T07:15:09Z</time></trkpt><trkpt lat="45.58953971355073" lon="10.710671389201675"><ele>236.60000000000002</ele><time>2026-04-26T07:15:10Z</time></trkpt><trkpt lat="45.58954813304491" lon="10.710811214114162"><ele>237.20000000000002</ele><time>2026-04-26T07:15:11Z</time></trkpt><trkpt lat="45.58953353020402" lon="10.710941972213341"><ele>237.79999999999998</ele><time>2026-04-26T07:15:12Z</time></trkpt><trkpt lat="45.58949763713182" lon="10.711053361472707"><ele>238.39999999999998</ele><time>2026-04-26T07:15:13Z</time></trkpt><trkpt lat="45.58944728683517" lon="10.711182085077919"><ele>239.0</ele><time>2026-04-26T07:15:14Z</time></trkpt><trkpt lat="45.58939892210567" lon="10.711325755416562"><ele>240.83333333333334</ele><time>2026-04-26T07:15:15Z</time></trkpt><trkpt lat="45.5893529283049" lon="10.711460523927146"><ele>242.66666666666669</ele><time>2026-04-26T07:15:16Z</time></trkpt><trkpt lat="45.58930480204484" lon="10.71158071970691"><ele>244.5</ele><time>2026-04-26T07:15:17Z</time></trkpt><trkpt lat="45.58925751431567" lon="10.711667221195441"><ele>246.33333333333331</ele><time>2026-04-26T07:15:18Z</time></trkpt><trkpt lat="45.58919899194785" lon="10.71173900458181"><ele>248.16666666666666</ele><time>2026-04-26T07:15:19Z</time></trkpt><trkpt lat="45.58911528854019" lon="10.711758708367537"><ele>250.0</ele><time>2026-04-26T07:15:20Z</time></trkpt><trkpt lat="45.589017107202324" lon="10.711789116914366"><ele>250.0</ele><time>2026-04-26T07:15:21Z</time></trkpt><trkpt lat="45.58894422924282" lon="10.711794015637802"><ele>250.0</ele><time>2026-04-26T07:15:22Z</time></trkpt><trkpt lat="45.58884634644284" lon="10.711815593930627"><ele>250.0</ele><time>2026-04-26T07:15:24Z</time></trkpt><trkpt lat="45.58874734371951" lon="10.711870107478092"><ele>250.0</ele><time>2026-04-26T07:15:26Z</time></trkpt><trkpt lat="45.588739246666925" lon="10.712036713660805"><ele>250.0</ele><time>2026-04-26T07:15:28Z</time></trkpt><trkpt lat="45.58882254270272" lon="10.712092960245949"><ele>253.2</ele><time>2026-04-26T07:15:29Z</time></trkpt><trkpt lat="45.58893997631819" lon="10.712131274518162"><ele>256.4</ele><time>2026-04-26T07:15:30Z</time></trkpt><trkpt lat="45.58904881671866" lon="10.712206964295984"><ele>259.6</ele><time>2026-04-26T07:15:31Z</time></trkpt><trkpt lat="45.589145610604845" lon="10.712227499572005"><ele>262.8</ele><time>2026-04-26T07:15:32Z</time></trkpt><trkpt lat="45.589235279965735" lon="10.7122550852717"><ele>266.0</ele><time>2026-04-26T07:15:33Z</time></trkpt><trkpt lat="45.589336470349956" lon="10.712251236930527"><ele>266.0</ele><time>2026-04-26T07:15:34Z</time></trkpt><trkpt lat="45.58945835402109" lon="10.712226443691286"><ele>266.0</ele><time>2026-04-26T07:15:35Z</time></trkpt><trkpt lat="45.589571956532744" lon="10.712190424480694"><ele>266.0</ele><time>2026-04-26T07:15:36Z</time></trkpt><trkpt lat="45.5896875990591" lon="10.712136402109968"><ele>266.0</ele><time>2026-04-26T07:15:37Z</time></trkpt><trkpt lat="45.5897870728515" lon="10.712076486715896"><ele>266.6</ele><time>2026-04-26T07:15:38Z</time></trkpt><trkpt lat="45.589876500851474" lon="10.712029822128308"><ele>267.20000000000005</ele><time>2026-04-26T07:15:39Z</time></trkpt><trkpt lat="45.5899645550433" lon="10.711977928327412"><ele>267.79999999999995</ele><time>2026-04-26T07:15:40Z</time></trkpt><trkpt lat="45.59005225901422" lon="10.711919571359138"><ele>268.4</ele><time>2026-04-26T07:15:41Z</time></trkpt><trkpt lat="45.590128101730755" lon="10.711849670594384"><ele>269.0</ele><time>2026-04-26T07:15:42Z</time></trkpt><trkpt lat="45.59021506033373" lon="10.71176522607551"><ele>269.0</ele><time>2026-04-26T07:15:43Z</time></trkpt><trkpt lat="45.59031819599624" lon="10.711672111507697"><ele>269.0</ele><time>2026-04-26T07:15:44Z</time></trkpt><trkpt lat="45.59040030607775" lon="10.711613428070242"><ele>269.0</ele><time>2026-04-26T07:15:45Z</time></trkpt><trkpt lat="45.59046608434092" lon="10.711576435162977"><ele>269.0</ele><time>2026-04-26T07:15:46Z</time></trkpt><trkpt lat="45.59053854039857" lon="10.711551295243156"><ele>269.0</ele><time>2026-04-26T07:15:47Z</time></trkpt><trkpt lat="45.5906207234528" lon="10.711549192004428"><ele>269.0</ele><time>2026-04-26T07:15:48Z</time></trkpt><trkpt lat="45.590733503815386" lon="10.711613627425942"><ele>271.4</ele><time>2026-04-26T07:15:49Z</time></trkpt><trkpt lat="45.59084292024257" lon="10.711652863085407"><ele>273.79999999999995</ele><time>2026-04-26T07:15:50Z</time></trkpt><trkpt lat="45.59094383519395" lon="10.71171495641298"><ele>276.20000000000005</ele><time>2026-04-26T07:15:51Z</time></trkpt><trkpt lat="45.591044467231114" lon="10.711775019254064"><ele>278.6</ele><time>2026-04-26T07:15:52Z</time></trkpt><trkpt lat="45.591148843161385" lon="10.711840061401732"><ele>281.0</ele><time>2026-04-26T07:15:53Z</time></trkpt><trkpt lat="45.59125319082023" lon="10.711899937726157"><ele>281.40000000000003</ele><time>2026-04-26T07:15:54Z</time></trkpt><trkpt lat="45.59134511753574" lon="10.711942379247004"><ele>281.8</ele><time>2026-04-26T07:15:55Z</time></trkpt><trkpt lat="45.59142778224133" lon="10.71200178143527"><ele>282.20000000000005</ele><time>2026-04-26T07:15:56Z</time></trkpt><trkpt lat="45.591519925446995" lon="10.712043673965285"><ele>282.6</ele><time>2026-04-26T07:15:57Z</time></trkpt><trkpt lat="45.59162126987947" lon="10.712081728735898"><ele>283.0</ele><time>2026-04-26T07:15:58Z</time></trkpt><trkpt lat="45.591729332063785" lon="10.712119282523483"><ele>283.0</ele><time>2026-04-26T07:15:59Z</time></trkpt><trkpt lat="45.591843674417156" lon="10.712142084548313"><ele>283.0</ele><time>2026-04-26T07:16:00Z</time></trkpt><trkpt lat="45.591972045809385" lon="10.712172598104457"><ele>283.0</ele><time>2026-04-26T07:16:01Z</time></trkpt><trkpt lat="45.59209521822715" lon="10.712200952296035"><ele>283.0</ele><time>2026-04-26T07:16:02Z</time></trkpt><trkpt lat="45.59221093395409" lon="10.712214869652472"><ele>283.4</ele><time>2026-04-26T07:16:03Z</time></trkpt><trkpt lat="45.59230687802197" lon="10.712233552591321"><ele>283.8</ele><time>2026-04-26T07:16:04Z</time></trkpt><trkpt lat="45.5923844573812" lon="10.712242683729107"><ele>284.2</ele><time>2026-04-26T07:16:05Z</time></trkpt><trkpt lat="45.59251899390517" lon="10.71228863155844"><ele>284.6</ele><time>2026-04-26T07:16:07Z</time></trkpt><trkpt lat="45.59258936525289" lon="10.712302114694797"><ele>285.0</ele><time>2026-04-26T07:16:08Z</time></trkpt><trkpt lat="45.592657044898836" lon="10.712315012316287"><ele>285.0</ele><time>2026-04-26T07:16:09Z</time></trkpt><trkpt lat="45.592741982473896" lon="10.71233119862664"><ele>285.0</ele><time>2026-04-26T07:16:10Z</time></trkpt><trkpt lat="45.592838703085995" lon="10.71235298337781"><ele>285.0</ele><time>2026-04-26T07:16:11Z</time></trkpt><trkpt lat="45.592944474809144" lon="10.712352243137873"><ele>285.0</ele><time>2026-04-26T07:16:12Z</time></trkpt><trkpt lat="45.5930565469372" lon="10.712376384130721"><ele>285.0</ele><time>2026-04-26T07:16:13Z</time></trkpt><trkpt lat="45.593176853762394" lon="10.712422279571795"><ele>285.25</ele><time>2026-04-26T07:16:14Z</time></trkpt><trkpt lat="45.59330306694114" lon="10.712434458521141"><ele>285.5</ele><time>2026-04-26T07:16:15Z</time></trkpt><trkpt lat="45.59342931778696" lon="10.712462060421075"><ele>285.75</ele><time>2026-04-26T07:16:16Z</time></trkpt><trkpt lat="45.59353743051635" lon="10.712471002083397"><ele>286.0</ele><time>2026-04-26T07:16:17Z</time></trkpt><trkpt lat="45.59362760818245" lon="10.712494203683255"><ele>288.6</ele><time>2026-04-26T07:16:18Z</time></trkpt><trkpt lat="45.59371164917146" lon="10.712520466808398"><ele>291.20000000000005</ele><time>2026-04-26T07:16:19Z</time></trkpt><trkpt lat="45.59379281908938" lon="10.712576225343145"><ele>293.79999999999995</ele><time>2026-04-26T07:16:20Z</time></trkpt><trkpt lat="45.59386392660823" lon="10.712633222455592"><ele>296.4</ele><time>2026-04-26T07:16:21Z</time></trkpt><trkpt lat="45.593942970832956" lon="10.712719829133833"><ele>299.0</ele><time>2026-04-26T07:16:22Z</time></trkpt><trkpt lat="45.59399931186622" lon="10.71285174248091"><ele>299.2</ele><time>2026-04-26T07:16:23Z</time></trkpt><trkpt lat="45.59402930460062" lon="10.712989874566247"><ele>299.4</ele><time>2026-04-26T07:16:24Z</time></trkpt><trkpt lat="45.594058561432284" lon="10.713149206874554"><ele>299.6</ele><time>2026-04-26T07:16:25Z</time></trkpt><trkpt lat="45.59408963700093" lon="10.71326512743548"><ele>299.8</ele><time>2026-04-26T07:16:26Z</time></trkpt><trkpt lat="45.594135941778845" lon="10.71334952210984"><ele>300.0</ele><time>2026-04-26T07:16:28Z</time></trkpt><trkpt lat="45.59418583917292" lon="10.713422997573872"><ele>300.0</ele><time>2026-04-26T07:16:31Z</time></trkpt><trkpt lat="45.5942453840444" lon="10.713508924956683"><ele>300.0</ele><time>2026-04-26T07:16:40Z</time></trkpt><trkpt lat="45.59431034338645" lon="10.71359117359066"><ele>300.0</ele><time>2026-04-26T07:16:42Z</time></trkpt><trkpt lat="45.594321965093314" lon="10.713697157238144"><ele>300.0</ele><time>2026-04-26T07:16:45Z</time></trkpt><trkpt lat="45.59419493693512" lon="10.713795006704542"><ele>300.0</ele><time>2026-04-26T07:16:47Z</time></trkpt><trkpt lat="45.594133151490496" lon="10.713861231356658"><ele>300.0</ele><time>2026-04-26T07:16:48Z</time></trkpt><trkpt lat="45.594049470828836" lon="10.713952544333095"><ele>300.0</ele><time>2026-04-26T07:16:50Z</time></trkpt><trkpt lat="45.593983339594125" lon="10.714071533887264"><ele>300.0</ele><time>2026-04-26T07:16:52Z</time></trkpt><trkpt lat="45.59395902533577" lon="10.714239544673918"><ele>300.0</ele><time>2026-04-26T07:16:54Z</time></trkpt><trkpt lat="45.59395527434023" lon="10.71437940956589"><ele>300.0</ele><time>2026-04-26T07:16:56Z</time></trkpt><trkpt lat="45.59395748523255" lon="10.71449722801646"><ele>299.4</ele><time>2026-04-26T07:16:58Z</time></trkpt><trkpt lat="45.593947939063234" lon="10.71463472180976"><ele>298.8</ele><time>2026-04-26T07:17:00Z</time></trkpt><trkpt lat="45.59392778392472" lon="10.71480388696769"><ele>298.2</ele><time>2026-04-26T07:17:02Z</time></trkpt><trkpt lat="45.59388509089342" lon="10.714964952217933"><ele>297.6</ele><time>2026-04-26T07:17:04Z</time></trkpt><trkpt lat="45.59387898369004" lon="10.71508228618569"><ele>297.0</ele><time>2026-04-26T07:17:05Z</time></trkpt><trkpt lat="45.59385952460077" lon="10.715201717780193"><ele>296.5</ele><time>2026-04-26T07:17:06Z</time></trkpt><trkpt lat="45.593821304944356" lon="10.715289246606423"><ele>296.0</ele><time>2026-04-26T07:17:07Z</time></trkpt><trkpt lat="45.59379308472842" lon="10.715376817274802"><ele>295.5</ele><time>2026-04-26T07:17:08Z</time></trkpt><trkpt lat="45.59376671636875" lon="10.715473504654915"><ele>295.0</ele><time>2026-04-26T07:17:09Z</time></trkpt><trkpt lat="45.59371078507034" lon="10.71562284218166"><ele>294.5</ele><time>2026-04-26T07:17:11Z</time></trkpt><trkpt lat="45.59367715446514" lon="10.715710804865576"><ele>294.0</ele><time>2026-04-26T07:17:13Z</time></trkpt><trkpt lat="45.593652838421406" lon="10.715794024891451"><ele>292.3333333333333</ele><time>2026-04-26T07:17:20Z</time></trkpt><trkpt lat="45.59362289284463" lon="10.715893192777688"><ele>290.6666666666667</ele><time>2026-04-26T07:17:24Z</time></trkpt><trkpt lat="45.5935913750212" lon="10.71598891852521"><ele>289.0</ele><time>2026-04-26T07:17:29Z</time></trkpt><trkpt lat="45.593565553257534" lon="10.716083397041317"><ele>287.33333333333337</ele><time>2026-04-26T07:17:33Z</time></trkpt><trkpt lat="45.59345146135512" lon="10.716075411393806"><ele>285.6666666666667</ele><time>2026-04-26T07:17:35Z</time></trkpt><trkpt lat="45.59339719656665" lon="10.71612838247722"><ele>284.0</ele><time>2026-04-26T07:17:37Z</time></trkpt><trkpt lat="45.593378857243806" lon="10.716246915225575"><ele>283.6666666666667</ele><time>2026-04-26T07:17:39Z</time></trkpt><trkpt lat="45.59335832122717" lon="10.716367291688613"><ele>283.33333333333337</ele><time>2026-04-26T07:17:41Z</time></trkpt><trkpt lat="45.593330767638435" lon="10.716485030686405"><ele>283.0</ele><time>2026-04-26T07:17:43Z</time></trkpt><trkpt lat="45.59330244968837" lon="10.716592271816843"><ele>282.6666666666667</ele><time>2026-04-26T07:17:45Z</time></trkpt><trkpt lat="45.59326760437295" lon="10.71669164225998"><ele>282.3333333333333</ele><time>2026-04-26T07:17:47Z</time></trkpt><trkpt lat="45.59319541708445" lon="10.716785272150775"><ele>282.0</ele><time>2026-04-26T07:17:49Z</time></trkpt><trkpt lat="45.5931074179361" lon="10.716868642356008"><ele>282.2</ele><time>2026-04-26T07:17:51Z</time></trkpt><trkpt lat="45.593037190641475" lon="10.716948623153352"><ele>282.4</ele><time>2026-04-26T07:17:53Z</time></trkpt><trkpt lat="45.5929424155561" lon="10.717012447536842"><ele>282.6</ele><time>2026-04-26T07:17:55Z</time></trkpt><trkpt lat="45.59286681464621" lon="10.717006096850126"><ele>282.8</ele><time>2026-04-26T07:17:56Z</time></trkpt><trkpt lat="45.592806396050925" lon="10.717052783793093"><ele>283.0</ele><time>2026-04-26T07:17:57Z</time></trkpt><trkpt lat="45.59268978659593" lon="10.71709258084566"><ele>280.2</ele><time>2026-04-26T07:17:59Z</time></trkpt><trkpt lat="45.59257710551328" lon="10.717061733572544"><ele>277.4</ele><time>2026-04-26T07:18:01Z</time></trkpt><trkpt lat="45.592492467424066" lon="10.717030300752073"><ele>274.59999999999997</ele><time>2026-04-26T07:18:03Z</time></trkpt><trkpt lat="45.59242614884554" lon="10.717017400718131"><ele>271.8</ele><time>2026-04-26T07:18:05Z</time></trkpt><trkpt lat="45.59235490100042" lon="10.717005186242105"><ele>269.0</ele><time>2026-04-26T07:18:08Z</time></trkpt><trkpt lat="45.592313655457424" lon="10.717177050523857"><ele>269.0</ele><time>2026-04-26T07:18:09Z</time></trkpt><trkpt lat="45.592292429126466" lon="10.71726861286905"><ele>269.0</ele><time>2026-04-26T07:18:10Z</time></trkpt><trkpt lat="45.592228397543984" lon="10.717399068351805"><ele>269.0</ele><time>2026-04-26T07:18:12Z</time></trkpt><trkpt lat="45.59215516636626" lon="10.717527592021677"><ele>269.0</ele><time>2026-04-26T07:18:14Z</time></trkpt><trkpt lat="45.59204774180103" lon="10.717642192670521"><ele>269.0</ele><time>2026-04-26T07:18:16Z</time></trkpt><trkpt lat="45.591977743446776" lon="10.717678959316636"><ele>267.59999999999997</ele><time>2026-04-26T07:18:17Z</time></trkpt><trkpt lat="45.591929309818546" lon="10.717755372511"><ele>266.2</ele><time>2026-04-26T07:18:18Z</time></trkpt><trkpt lat="45.59187578872428" lon="10.71781250380356"><ele>264.79999999999995</ele><time>2026-04-26T07:18:19Z</time></trkpt><trkpt lat="45.591772607925364" lon="10.717892171161234"><ele>263.4</ele><time>2026-04-26T07:18:21Z</time></trkpt><trkpt lat="45.59166502775992" lon="10.717934194852432"><ele>262.0</ele><time>2026-04-26T07:18:23Z</time></trkpt><trkpt lat="45.59154655736069" lon="10.717996125799965"><ele>262.0</ele><time>2026-04-26T07:18:25Z</time></trkpt><trkpt lat="45.591500174599915" lon="10.71805949011081"><ele>262.0</ele><time>2026-04-26T07:18:26Z</time></trkpt><trkpt lat="45.591460118240484" lon="10.71813570895926"><ele>262.0</ele><time>2026-04-26T07:18:27Z</time></trkpt><trkpt lat="45.59139240812925" lon="10.718270084038815"><ele>262.0</ele><time>2026-04-26T07:18:29Z</time></trkpt><trkpt lat="45.59134337471487" lon="10.718337918066917"><ele>262.0</ele><time>2026-04-26T07:18:30Z</time></trkpt><trkpt lat="45.59128855280816" lon="10.718391707018046"><ele>262.0</ele><time>2026-04-26T07:18:31Z</time></trkpt><trkpt lat="45.591184021013866" lon="10.718491016349535"><ele>262.16666666666663</ele><time>2026-04-26T07:18:33Z</time></trkpt><trkpt lat="45.591114905040115" lon="10.718537957514783"><ele>262.3333333333333</ele><time>2026-04-26T07:18:34Z</time></trkpt><trkpt lat="45.59104032560199" lon="10.71857417811479"><ele>262.5</ele><time>2026-04-26T07:18:35Z</time></trkpt><trkpt lat="45.59096334387885" lon="10.718600307270375"><ele>262.6666666666667</ele><time>2026-04-26T07:18:36Z</time></trkpt><trkpt lat="45.59088977162387" lon="10.718618444107193"><ele>262.83333333333337</ele><time>2026-04-26T07:18:37Z</time></trkpt><trkpt lat="45.590823313620675" lon="10.71863235058053"><ele>263.0</ele><time>2026-04-26T07:18:38Z</time></trkpt><trkpt lat="45.590726761618996" lon="10.718701684085607"><ele>262.6</ele><time>2026-04-26T07:18:40Z</time></trkpt><trkpt lat="45.590678945157485" lon="10.71876121635274"><ele>262.20000000000005</ele><time>2026-04-26T07:18:43Z</time></trkpt><trkpt lat="45.59074739441828" lon="10.718935676900232"><ele>261.8</ele><time>2026-04-26T07:18:45Z</time></trkpt><trkpt lat="45.59084070951208" lon="10.719007671158806"><ele>261.40000000000003</ele><time>2026-04-26T07:18:47Z</time></trkpt><trkpt lat="45.59091006928653" lon="10.71905331967136"><ele>261.0</ele><time>2026-04-26T07:18:48Z</time></trkpt><trkpt lat="45.59098765243674" lon="10.719108347361715"><ele>261.0</ele><time>2026-04-26T07:18:49Z</time></trkpt><trkpt lat="45.591047139581775" lon="10.719155006614661"><ele>261.0</ele><time>2026-04-26T07:18:50Z</time></trkpt><trkpt lat="45.591100269673134" lon="10.719206512860989"><ele>261.0</ele><time>2026-04-26T07:18:51Z</time></trkpt><trkpt lat="45.591194897288744" lon="10.719336178523049"><ele>261.0</ele><time>2026-04-26T07:18:53Z</time></trkpt><trkpt lat="45.59124605321685" lon="10.719404413342263"><ele>261.0</ele><time>2026-04-26T07:18:54Z</time></trkpt><trkpt lat="45.59130269561165" lon="10.71944756066599"><ele>261.0</ele><time>2026-04-26T07:18:55Z</time></trkpt><trkpt lat="45.59135385329784" lon="10.719524630258494"><ele>261.0</ele><time>2026-04-26T07:18:56Z</time></trkpt><trkpt lat="45.59140672397632" lon="10.719580868000625"><ele>261.0</ele><time>2026-04-26T07:18:57Z</time></trkpt><trkpt lat="45.591467699775485" lon="10.719637909885009"><ele>261.0</ele><time>2026-04-26T07:18:58Z</time></trkpt><trkpt lat="45.59152076474154" lon="10.719694376938545"><ele>261.0</ele><time>2026-04-26T07:18:59Z</time></trkpt><trkpt lat="45.59156794020736" lon="10.719770138809205"><ele>261.0</ele><time>2026-04-26T07:19:00Z</time></trkpt><trkpt lat="45.59161610329216" lon="10.719854971648846"><ele>261.0</ele><time>2026-04-26T07:19:01Z</time></trkpt><trkpt lat="45.59167103138372" lon="10.719928257582495"><ele>261.0</ele><time>2026-04-26T07:19:02Z</time></trkpt><trkpt lat="45.59173160407569" lon="10.719997272369675"><ele>261.0</ele><time>2026-04-26T07:19:03Z</time></trkpt><trkpt lat="45.59178822407766" lon="10.720050416852684"><ele>261.0</ele><time>2026-04-26T07:19:04Z</time></trkpt><trkpt lat="45.59183261212455" lon="10.720115925186219"><ele>261.0</ele><time>2026-04-26T07:19:05Z</time></trkpt><trkpt lat="45.59191332758701" lon="10.72024518405577"><ele>261.0</ele><time>2026-04-26T07:19:07Z</time></trkpt><trkpt lat="45.591971636891365" lon="10.720310656433057"><ele>261.0</ele><time>2026-04-26T07:19:08Z</time></trkpt><trkpt lat="45.59204010183012" lon="10.72038934041235"><ele>261.0</ele><time>2026-04-26T07:19:09Z</time></trkpt><trkpt lat="45.592101740859356" lon="10.72046090287869"><ele>261.3333333333333</ele><time>2026-04-26T07:19:10Z</time></trkpt><trkpt lat="45.59216893875807" lon="10.720533298746684"><ele>261.6666666666667</ele><time>2026-04-26T07:19:11Z</time></trkpt><trkpt lat="45.59223643382634" lon="10.720613222947376"><ele>262.0</ele><time>2026-04-26T07:19:12Z</time></trkpt><trkpt lat="45.592308506896366" lon="10.720680940899317"><ele>262.33333333333337</ele><time>2026-04-26T07:19:13Z</time></trkpt><trkpt lat="45.59237451868701" lon="10.720757337111568"><ele>262.6666666666667</ele><time>2026-04-26T07:19:14Z</time></trkpt><trkpt lat="45.59245990608718" lon="10.720800605158063"><ele>263.0</ele><time>2026-04-26T07:19:15Z</time></trkpt><trkpt lat="45.5925299999348" lon="10.72084638413612"><ele>263.0</ele><time>2026-04-26T07:19:16Z</time></trkpt><trkpt lat="45.59261772908888" lon="10.720882285444882"><ele>263.0</ele><time>2026-04-26T07:19:17Z</time></trkpt><trkpt lat="45.59270585141519" lon="10.72094519319766"><ele>263.0</ele><time>2026-04-26T07:19:18Z</time></trkpt><trkpt lat="45.59276811117144" lon="10.72101694323638"><ele>263.0</ele><time>2026-04-26T07:19:19Z</time></trkpt><trkpt lat="45.59283366136666" lon="10.721111696388324"><ele>263.0</ele><time>2026-04-26T07:19:20Z</time></trkpt><trkpt lat="45.592897984767625" lon="10.721227773141125"><ele>264.5</ele><time>2026-04-26T07:19:21Z</time></trkpt><trkpt lat="45.59297196903429" lon="10.721355931964432"><ele>266.0</ele><time>2026-04-26T07:19:22Z</time></trkpt><trkpt lat="45.59304492078286" lon="10.721486054901938"><ele>267.5</ele><time>2026-04-26T07:19:23Z</time></trkpt><trkpt lat="45.59309134853584" lon="10.72161305909975"><ele>269.0</ele><time>2026-04-26T07:19:24Z</time></trkpt><trkpt lat="45.59316167770507" lon="10.721745569958877"><ele>269.0</ele><time>2026-04-26T07:19:25Z</time></trkpt><trkpt lat="45.59323043752998" lon="10.721858806377085"><ele>269.0</ele><time>2026-04-26T07:19:26Z</time></trkpt><trkpt lat="45.59328719727474" lon="10.721960817385769"><ele>269.0</ele><time>2026-04-26T07:19:27Z</time></trkpt><trkpt lat="45.59334562573645" lon="10.722077015678284"><ele>269.0</ele><time>2026-04-26T07:19:28Z</time></trkpt><trkpt lat="45.593393522944666" lon="10.722210328464868"><ele>269.0</ele><time>2026-04-26T07:19:29Z</time></trkpt><trkpt lat="45.59344590339321" lon="10.72231988357897"><ele>267.83333333333337</ele><time>2026-04-26T07:19:30Z</time></trkpt><trkpt lat="45.593499147432674" lon="10.722417107634927"><ele>266.6666666666667</ele><time>2026-04-26T07:19:31Z</time></trkpt><trkpt lat="45.59353667450748" lon="10.72251684447542"><ele>265.5</ele><time>2026-04-26T07:19:32Z</time></trkpt><trkpt lat="45.593585589121794" lon="10.722591009355488"><ele>264.3333333333333</ele><time>2026-04-26T07:19:33Z</time></trkpt><trkpt lat="45.593626767758714" lon="10.722669041688523"><ele>263.16666666666663</ele><time>2026-04-26T07:19:34Z</time></trkpt><trkpt lat="45.59367522983741" lon="10.72274392549548"><ele>262.0</ele><time>2026-04-26T07:19:35Z</time></trkpt><trkpt lat="45.593721507409015" lon="10.722841453827797"><ele>261.2</ele><time>2026-04-26T07:19:36Z</time></trkpt><trkpt lat="45.59376219184936" lon="10.722945145328389"><ele>260.4</ele><time>2026-04-26T07:19:37Z</time></trkpt><trkpt lat="45.59380813872204" lon="10.723045537695818"><ele>259.6</ele><time>2026-04-26T07:19:38Z</time></trkpt><trkpt lat="45.59385893354832" lon="10.723157248000692"><ele>258.8</ele><time>2026-04-26T07:19:39Z</time></trkpt><trkpt lat="45.59391877105318" lon="10.72327007110925"><ele>258.0</ele><time>2026-04-26T07:19:40Z</time></trkpt><trkpt lat="45.59397812490203" lon="10.723367078741932"><ele>258.0</ele><time>2026-04-26T07:19:41Z</time></trkpt><trkpt lat="45.59403834436633" lon="10.723447266525922"><ele>258.0</ele><time>2026-04-26T07:19:42Z</time></trkpt><trkpt lat="45.59408811435899" lon="10.723513231806269"><ele>258.0</ele><time>2026-04-26T07:19:43Z</time></trkpt><trkpt lat="45.59414807999372" lon="10.723590130180783"><ele>258.0</ele><time>2026-04-26T07:19:44Z</time></trkpt><trkpt lat="45.594212323644626" lon="10.723655114876966"><ele>258.0</ele><time>2026-04-26T07:19:45Z</time></trkpt><trkpt lat="45.59426973383717" lon="10.723698934055413"><ele>258.0</ele><time>2026-04-26T07:19:46Z</time></trkpt><trkpt lat="45.59437809999403" lon="10.723753955016441"><ele>258.0</ele><time>2026-04-26T07:19:48Z</time></trkpt><trkpt lat="45.59443624209532" lon="10.723793193801527"><ele>258.0</ele><time>2026-04-26T07:19:50Z</time></trkpt><trkpt lat="45.594518643327014" lon="10.723828145470227"><ele>258.0</ele><time>2026-04-26T07:19:53Z</time></trkpt><trkpt lat="45.594581989381766" lon="10.72384340884845"><ele>258.0</ele><time>2026-04-26T07:19:55Z</time></trkpt><trkpt lat="45.594640322909015" lon="10.72389701847001"><ele>258.0</ele><time>2026-04-26T07:19:57Z</time></trkpt><trkpt lat="45.59471745106836" lon="10.723810483638834"><ele>258.0</ele><time>2026-04-26T07:19:58Z</time></trkpt><trkpt lat="45.59477669003639" lon="10.723763423472194"><ele>258.0</ele><time>2026-04-26T07:20:00Z</time></trkpt><trkpt lat="45.59484640373159" lon="10.723763957425087"><ele>258.0</ele><time>2026-04-26T07:20:04Z</time></trkpt><trkpt lat="45.5949382729778" lon="10.723677337129319"><ele>258.0</ele><time>2026-04-26T07:20:07Z</time></trkpt><trkpt lat="45.59498667160961" lon="10.723615189787152"><ele>258.0</ele><time>2026-04-26T07:20:09Z</time></trkpt><trkpt lat="45.595052011662204" lon="10.723554830543415"><ele>258.0</ele><time>2026-04-26T07:20:11Z</time></trkpt><trkpt lat="45.59529161278268" lon="10.723883088771444"><ele>258.0</ele><time>2026-04-26T07:20:12Z</time></trkpt><trkpt lat="45.595365909762684" lon="10.723919249549452"><ele>258.0</ele><time>2026-04-26T07:20:13Z</time></trkpt><trkpt lat="45.59545695074576" lon="10.723982296102198"><ele>258.0</ele><time>2026-04-26T07:20:14Z</time></trkpt><trkpt lat="45.59556372756966" lon="10.724017775444656"><ele>258.0</ele><time>2026-04-26T07:20:15Z</time></trkpt><trkpt lat="45.59567201727723" lon="10.724059630282131"><ele>258.0</ele><time>2026-04-26T07:20:16Z</time></trkpt><trkpt lat="45.59577140144152" lon="10.724105236542792"><ele>258.0</ele><time>2026-04-26T07:20:17Z</time></trkpt><trkpt lat="45.59587275192282" lon="10.724157022398298"><ele>258.0</ele><time>2026-04-26T07:20:18Z</time></trkpt><trkpt lat="45.595964032227236" lon="10.724195291303747"><ele>258.0</ele><time>2026-04-26T07:20:19Z</time></trkpt><trkpt lat="45.596053864312246" lon="10.724253692672557"><ele>258.0</ele><time>2026-04-26T07:20:20Z</time></trkpt><trkpt lat="45.59613823291492" lon="10.724318884855228"><ele>258.0</ele><time>2026-04-26T07:20:21Z</time></trkpt><trkpt lat="45.59621612632813" lon="10.724378178094964"><ele>258.4</ele><time>2026-04-26T07:20:22Z</time></trkpt><trkpt lat="45.596296978446055" lon="10.72443679768019"><ele>258.8</ele><time>2026-04-26T07:20:23Z</time></trkpt><trkpt lat="45.596392652440215" lon="10.724522592474683"><ele>259.2</ele><time>2026-04-26T07:20:24Z</time></trkpt><trkpt lat="45.59649482297231" lon="10.724609322906632"><ele>259.6</ele><time>2026-04-26T07:20:25Z</time></trkpt><trkpt lat="45.59659378410405" lon="10.724687174333184"><ele>260.0</ele><time>2026-04-26T07:20:26Z</time></trkpt><trkpt lat="45.596677675715206" lon="10.72474647724324"><ele>260.0</ele><time>2026-04-26T07:20:27Z</time></trkpt><trkpt lat="45.59676393133494" lon="10.72478777135518"><ele>260.0</ele><time>2026-04-26T07:20:28Z</time></trkpt><trkpt lat="45.59685766281124" lon="10.7248221498712"><ele>260.0</ele><time>2026-04-26T07:20:29Z</time></trkpt><trkpt lat="45.59694561309659" lon="10.72484276114794"><ele>260.0</ele><time>2026-04-26T07:20:30Z</time></trkpt><trkpt lat="45.597022719303446" lon="10.724859002160386"><ele>260.0</ele><time>2026-04-26T07:20:31Z</time></trkpt><trkpt lat="45.59709065253626" lon="10.72487584827286"><ele>260.0</ele><time>2026-04-26T07:20:32Z</time></trkpt><trkpt lat="45.597153809704736" lon="10.724876955849243"><ele>260.1666666666667</ele><time>2026-04-26T07:20:33Z</time></trkpt><trkpt lat="45.597229005280695" lon="10.72483919308828"><ele>260.33333333333337</ele><time>2026-04-26T07:20:35Z</time></trkpt><trkpt lat="45.59728513578992" lon="10.724735007561044"><ele>260.5</ele><time>2026-04-26T07:20:37Z</time></trkpt><trkpt lat="45.59731226548368" lon="10.724636149865844"><ele>260.6666666666667</ele><time>2026-04-26T07:20:38Z</time></trkpt><trkpt lat="45.59734506784251" lon="10.724539355368618"><ele>260.8333333333333</ele><time>2026-04-26T07:20:39Z</time></trkpt><trkpt lat="45.59742248923604" lon="10.724457186404623"><ele>261.0</ele><time>2026-04-26T07:20:41Z</time></trkpt><trkpt lat="45.59751812507925" lon="10.724462014794625"><ele>261.0</ele><time>2026-04-26T07:20:43Z</time></trkpt><trkpt lat="45.59760735873953" lon="10.72453243945082"><ele>261.0</ele><time>2026-04-26T07:20:45Z</time></trkpt><trkpt lat="45.597666454498636" lon="10.724597167224783"><ele>261.0</ele><time>2026-04-26T07:20:46Z</time></trkpt><trkpt lat="45.597731826482566" lon="10.724659269783722"><ele>261.0</ele><time>2026-04-26T07:20:47Z</time></trkpt><trkpt lat="45.59784755899429" lon="10.724709724070344"><ele>261.0</ele><time>2026-04-26T07:20:49Z</time></trkpt><trkpt lat="45.59792500266" lon="10.724717878281439"><ele>261.1666666666667</ele><time>2026-04-26T07:20:50Z</time></trkpt><trkpt lat="45.59800627462449" lon="10.724712615760884"><ele>261.3333333333333</ele><time>2026-04-26T07:20:51Z</time></trkpt><trkpt lat="45.59808177999565" lon="10.724712541726362"><ele>261.5</ele><time>2026-04-26T07:20:52Z</time></trkpt><trkpt lat="45.59815168521286" lon="10.72471439367177"><ele>261.66666666666663</ele><time>2026-04-26T07:20:53Z</time></trkpt><trkpt lat="45.5982389746165" lon="10.724710389663567"><ele>261.8333333333333</ele><time>2026-04-26T07:20:54Z</time></trkpt><trkpt lat="45.59833778282869" lon="10.724691979083662"><ele>262.0</ele><time>2026-04-26T07:20:55Z</time></trkpt><trkpt lat="45.59844481298735" lon="10.724660556006382"><ele>262.0</ele><time>2026-04-26T07:20:56Z</time></trkpt><trkpt lat="45.59854585320107" lon="10.72462973313416"><ele>262.0</ele><time>2026-04-26T07:20:57Z</time></trkpt><trkpt lat="45.598637856723116" lon="10.724602967141662"><ele>262.0</ele><time>2026-04-26T07:20:58Z</time></trkpt><trkpt lat="45.59873692378131" lon="10.724562239516153"><ele>262.0</ele><time>2026-04-26T07:20:59Z</time></trkpt><trkpt lat="45.59883509647989" lon="10.724504729275244"><ele>262.0</ele><time>2026-04-26T07:21:00Z</time></trkpt><trkpt lat="45.598934520661004" lon="10.724437000568173"><ele>263.25</ele><time>2026-04-26T07:21:01Z</time></trkpt><trkpt lat="45.59904064735044" lon="10.724376536293905"><ele>264.5</ele><time>2026-04-26T07:21:02Z</time></trkpt><trkpt lat="45.59915483718961" lon="10.724322751239198"><ele>265.75</ele><time>2026-04-26T07:21:03Z</time></trkpt><trkpt lat="45.59927710153689" lon="10.72427457440406"><ele>267.0</ele><time>2026-04-26T07:21:04Z</time></trkpt><trkpt lat="45.5993971907043" lon="10.724216595901785"><ele>267.25</ele><time>2026-04-26T07:21:05Z</time></trkpt><trkpt lat="45.599515755895574" lon="10.724150123107833"><ele>267.5</ele><time>2026-04-26T07:21:06Z</time></trkpt><trkpt lat="45.5996393864604" lon="10.724077261577186"><ele>267.75</ele><time>2026-04-26T07:21:07Z</time></trkpt><trkpt lat="45.59975783426626" lon="10.724024064043006"><ele>268.0</ele><time>2026-04-26T07:21:08Z</time></trkpt><trkpt lat="45.599860920525266" lon="10.723988711008783"><ele>268.0</ele><time>2026-04-26T07:21:09Z</time></trkpt><trkpt lat="45.599950595629196" lon="10.723953738373257"><ele>268.0</ele><time>2026-04-26T07:21:10Z</time></trkpt><trkpt lat="45.60003496557989" lon="10.723892294607527"><ele>268.0</ele><time>2026-04-26T07:21:11Z</time></trkpt><trkpt lat="45.60012546505999" lon="10.723803514323883"><ele>268.0</ele><time>2026-04-26T07:21:12Z</time></trkpt><trkpt lat="45.600220759922266" lon="10.723711372854446"><ele>268.0</ele><time>2026-04-26T07:21:13Z</time></trkpt><trkpt lat="45.60031827520889" lon="10.723633819887048"><ele>269.0</ele><time>2026-04-26T07:21:14Z</time></trkpt><trkpt lat="45.600408436980736" lon="10.723587362559671"><ele>270.0</ele><time>2026-04-26T07:21:15Z</time></trkpt><trkpt lat="45.60048979026756" lon="10.72357970420106"><ele>271.0</ele><time>2026-04-26T07:21:16Z</time></trkpt><trkpt lat="45.60057550155895" lon="10.723597147127617"><ele>272.0</ele><time>2026-04-26T07:21:17Z</time></trkpt><trkpt lat="45.60067136761033" lon="10.723618804165325"><ele>273.0</ele><time>2026-04-26T07:21:18Z</time></trkpt><trkpt lat="45.6007817496232" lon="10.723610491631609"><ele>273.0</ele><time>2026-04-26T07:21:19Z</time></trkpt><trkpt lat="45.60088909501907" lon="10.723571792130366"><ele>273.0</ele><time>2026-04-26T07:21:20Z</time></trkpt><trkpt lat="45.60098445102257" lon="10.723509779129113"><ele>273.0</ele><time>2026-04-26T07:21:21Z</time></trkpt><trkpt lat="45.60107114273108" lon="10.7234253056689"><ele>273.0</ele><time>2026-04-26T07:21:22Z</time></trkpt><trkpt lat="45.60115965621785" lon="10.723319125023696"><ele>273.0</ele><time>2026-04-26T07:21:23Z</time></trkpt><trkpt lat="45.60125590644077" lon="10.723201165251954"><ele>274.6666666666667</ele><time>2026-04-26T07:21:24Z</time></trkpt><trkpt lat="45.6013662456558" lon="10.723076790768369"><ele>276.33333333333337</ele><time>2026-04-26T07:21:25Z</time></trkpt><trkpt lat="45.60157249834583" lon="10.723098998373521"><ele>278.0</ele><time>2026-04-26T07:21:26Z</time></trkpt><trkpt lat="45.60165860353856" lon="10.722994428808198"><ele>278.0</ele><time>2026-04-26T07:21:27Z</time></trkpt><trkpt lat="45.60172425704081" lon="10.72291784642131"><ele>278.0</ele><time>2026-04-26T07:21:28Z</time></trkpt><trkpt lat="45.60180388033391" lon="10.722840488653107"><ele>278.0</ele><time>2026-04-26T07:21:30Z</time></trkpt><trkpt lat="45.601890198723645" lon="10.722774408596303"><ele>278.0</ele><time>2026-04-26T07:21:32Z</time></trkpt><trkpt lat="45.602028948388096" lon="10.722703582042499"><ele>278.0</ele><time>2026-04-26T07:21:34Z</time></trkpt><trkpt lat="45.60211686683861" lon="10.72267621360502"><ele>280.1666666666667</ele><time>2026-04-26T07:21:35Z</time></trkpt><trkpt lat="45.602195876138005" lon="10.722679688399833"><ele>282.33333333333337</ele><time>2026-04-26T07:21:36Z</time></trkpt><trkpt lat="45.602289647835256" lon="10.722680317767608"><ele>284.5</ele><time>2026-04-26T07:21:37Z</time></trkpt><trkpt lat="45.602361526077736" lon="10.722636549171586"><ele>286.6666666666667</ele><time>2026-04-26T07:21:38Z</time></trkpt><trkpt lat="45.602389691000724" lon="10.72255352038449"><ele>288.8333333333333</ele><time>2026-04-26T07:21:39Z</time></trkpt><trkpt lat="45.602346806129" lon="10.722376699555706"><ele>291.0</ele><time>2026-04-26T07:21:41Z</time></trkpt><trkpt lat="45.60228534839656" lon="10.722325886229694"><ele>291.0</ele><time>2026-04-26T07:21:42Z</time></trkpt><trkpt lat="45.60218184085059" lon="10.722327888425504"><ele>291.0</ele><time>2026-04-26T07:21:43Z</time></trkpt><trkpt lat="45.60204809223229" lon="10.722320123620202"><ele>291.0</ele><time>2026-04-26T07:21:44Z</time></trkpt><trkpt lat="45.60193986608708" lon="10.722265154763727"><ele>291.0</ele><time>2026-04-26T07:21:45Z</time></trkpt><trkpt lat="45.601800945823705" lon="10.722144261810133"><ele>290.0</ele><time>2026-04-26T07:21:46Z</time></trkpt><trkpt lat="45.60169952068677" lon="10.721998396915064"><ele>289.0</ele><time>2026-04-26T07:21:47Z</time></trkpt><trkpt lat="45.601609654895086" lon="10.721819662436499"><ele>288.0</ele><time>2026-04-26T07:21:48Z</time></trkpt><trkpt lat="45.60153078229908" lon="10.721614349720332"><ele>288.0</ele><time>2026-04-26T07:21:49Z</time></trkpt><trkpt lat="45.60142432676265" lon="10.721373847169776"><ele>288.0</ele><time>2026-04-26T07:21:50Z</time></trkpt><trkpt lat="45.601287461908484" lon="10.721146570700755"><ele>288.0</ele><time>2026-04-26T07:21:51Z</time></trkpt><trkpt lat="45.60114498981144" lon="10.720957905651693"><ele>286.6666666666667</ele><time>2026-04-26T07:21:52Z</time></trkpt><trkpt lat="45.60100295759282" lon="10.72081696482664"><ele>285.33333333333337</ele><time>2026-04-26T07:21:53Z</time></trkpt><trkpt lat="45.60085240737243" lon="10.720728997918341"><ele>284.0</ele><time>2026-04-26T07:21:54Z</time></trkpt><trkpt lat="45.60070493667786" lon="10.720628188458576"><ele>284.0</ele><time>2026-04-26T07:21:55Z</time></trkpt><trkpt lat="45.60055629363245" lon="10.720531879101825"><ele>284.0</ele><time>2026-04-26T07:21:56Z</time></trkpt><trkpt lat="45.60041491917869" lon="10.720413755740642"><ele>284.0</ele><time>2026-04-26T07:21:57Z</time></trkpt><trkpt lat="45.600284844329614" lon="10.720280304422353"><ele>284.0</ele><time>2026-04-26T07:21:58Z</time></trkpt><trkpt lat="45.60014499575251" lon="10.72014114497241"><ele>284.0</ele><time>2026-04-26T07:21:59Z</time></trkpt><trkpt lat="45.60002175616182" lon="10.720007976109283"><ele>284.0</ele><time>2026-04-26T07:22:00Z</time></trkpt><trkpt lat="45.599909092035375" lon="10.719861951735746"><ele>284.0</ele><time>2026-04-26T07:22:01Z</time></trkpt><trkpt lat="45.59981061703962" lon="10.719692682409866"><ele>284.0</ele><time>2026-04-26T07:22:02Z</time></trkpt><trkpt lat="45.59972391751678" lon="10.719538214593731"><ele>284.0</ele><time>2026-04-26T07:22:03Z</time></trkpt><trkpt lat="45.59964671259795" lon="10.719398157089419"><ele>284.0</ele><time>2026-04-26T07:22:04Z</time></trkpt><trkpt lat="45.59959315204619" lon="10.719250755436814"><ele>284.5</ele><time>2026-04-26T07:22:05Z</time></trkpt><trkpt lat="45.599535470665145" lon="10.71914595074392"><ele>285.0</ele><time>2026-04-26T07:22:06Z</time></trkpt><trkpt lat="45.599500949973866" lon="10.719059598253253"><ele>285.5</ele><time>2026-04-26T07:22:07Z</time></trkpt><trkpt lat="45.59950904647757" lon="10.71896795751074"><ele>286.0</ele><time>2026-04-26T07:22:10Z</time></trkpt><trkpt lat="45.599541664220204" lon="10.71881475500487"><ele>286.5</ele><time>2026-04-26T07:22:13Z</time></trkpt><trkpt lat="45.59958259769656" lon="10.718718040337366"><ele>287.0</ele><time>2026-04-26T07:22:14Z</time></trkpt><trkpt lat="45.5996295263497" lon="10.718608432535978"><ele>286.7142857142857</ele><time>2026-04-26T07:22:15Z</time></trkpt><trkpt lat="45.599667275495946" lon="10.71853503892967"><ele>286.42857142857144</ele><time>2026-04-26T07:22:16Z</time></trkpt><trkpt lat="45.59970557371716" lon="10.718454734764709"><ele>286.1428571428571</ele><time>2026-04-26T07:22:17Z</time></trkpt><trkpt lat="45.59973791239558" lon="10.718369902850785"><ele>285.8571428571429</ele><time>2026-04-26T07:22:18Z</time></trkpt><trkpt lat="45.59977679068752" lon="10.718289904689803"><ele>285.57142857142856</ele><time>2026-04-26T07:22:19Z</time></trkpt><trkpt lat="45.59981453851062" lon="10.71820726532159"><ele>285.2857142857143</ele><time>2026-04-26T07:22:20Z</time></trkpt><trkpt lat="45.59985101139124" lon="10.718111788389852"><ele>285.0</ele><time>2026-04-26T07:22:21Z</time></trkpt><trkpt lat="45.599891015153965" lon="10.718037435245423"><ele>285.0</ele><time>2026-04-26T07:22:22Z</time></trkpt><trkpt lat="45.59992730835286" lon="10.717895855779316"><ele>285.0</ele><time>2026-04-26T07:22:24Z</time></trkpt><trkpt lat="45.59998500285265" lon="10.717798688912968"><ele>285.0</ele><time>2026-04-26T07:22:25Z</time></trkpt><trkpt lat="45.600043742473524" lon="10.717689014814384"><ele>285.0</ele><time>2026-04-26T07:22:26Z</time></trkpt><trkpt lat="45.60009659149575" lon="10.717603840435787"><ele>285.0</ele><time>2026-04-26T07:22:27Z</time></trkpt><trkpt lat="45.6001752565067" lon="10.717498311554094"><ele>284.75</ele><time>2026-04-26T07:22:28Z</time></trkpt><trkpt lat="45.60024497786916" lon="10.717392789318831"><ele>284.5</ele><time>2026-04-26T07:22:29Z</time></trkpt><trkpt lat="45.6003645336262" lon="10.717296196728515"><ele>284.25</ele><time>2026-04-26T07:22:30Z</time></trkpt><trkpt lat="45.600510574501556" lon="10.717189079646966"><ele>284.0</ele><time>2026-04-26T07:22:31Z</time></trkpt><trkpt lat="45.60066137541233" lon="10.717086504685101"><ele>284.5</ele><time>2026-04-26T07:22:32Z</time></trkpt><trkpt lat="45.60081092854793" lon="10.716989351560624"><ele>285.0</ele><time>2026-04-26T07:22:33Z</time></trkpt><trkpt lat="45.60093526155764" lon="10.71689635758115"><ele>285.5</ele><time>2026-04-26T07:22:34Z</time></trkpt><trkpt lat="45.60102906866448" lon="10.716801600131266"><ele>286.0</ele><time>2026-04-26T07:22:35Z</time></trkpt><trkpt lat="45.601093655385746" lon="10.716741967658512"><ele>288.75</ele><time>2026-04-26T07:22:36Z</time></trkpt><trkpt lat="45.60120074772649" lon="10.716778948198026"><ele>291.5</ele><time>2026-04-26T07:22:38Z</time></trkpt><trkpt lat="45.60123613342936" lon="10.716896242933451"><ele>294.25</ele><time>2026-04-26T07:22:40Z</time></trkpt><trkpt lat="45.60132049171524" lon="10.716935922723225"><ele>297.0</ele><time>2026-04-26T07:22:43Z</time></trkpt><trkpt lat="45.60141864664453" lon="10.71671433578992"><ele>297.0</ele><time>2026-04-26T07:22:44Z</time></trkpt><trkpt lat="45.60150129528098" lon="10.716696695450032"><ele>297.0</ele><time>2026-04-26T07:22:45Z</time></trkpt><trkpt lat="45.60156700479624" lon="10.716703767935673"><ele>297.0</ele><time>2026-04-26T07:22:46Z</time></trkpt><trkpt lat="45.60160441038601" lon="10.716850974258122"><ele>297.0</ele><time>2026-04-26T07:22:47Z</time></trkpt><trkpt lat="45.6016827046664" lon="10.71655675936542"><ele>297.0</ele><time>2026-04-26T07:22:48Z</time></trkpt><trkpt lat="45.601733640136004" lon="10.716431966710807"><ele>297.0</ele><time>2026-04-26T07:22:50Z</time></trkpt><trkpt lat="45.601765172895306" lon="10.7162369680911"><ele>297.0</ele><time>2026-04-26T07:22:52Z</time></trkpt><trkpt lat="45.60178320052776" lon="10.716149248233512"><ele>297.0</ele><time>2026-04-26T07:22:53Z</time></trkpt><trkpt lat="45.60183967264978" lon="10.716021553841735"><ele>297.0</ele><time>2026-04-26T07:22:55Z</time></trkpt><trkpt lat="45.60192141465369" lon="10.715983145786446"><ele>297.4</ele><time>2026-04-26T07:22:57Z</time></trkpt><trkpt lat="45.60201088604701" lon="10.715985973394854"><ele>297.79999999999995</ele><time>2026-04-26T07:22:58Z</time></trkpt><trkpt lat="45.60210641517729" lon="10.715977321752142"><ele>298.2</ele><time>2026-04-26T07:22:59Z</time></trkpt><trkpt lat="45.602212758015455" lon="10.71600249984812"><ele>298.59999999999997</ele><time>2026-04-26T07:23:00Z</time></trkpt><trkpt lat="45.60231056234547" lon="10.716007530196704"><ele>299.0</ele><time>2026-04-26T07:23:01Z</time></trkpt><trkpt lat="45.60241759686874" lon="10.716020394098003"><ele>299.0</ele><time>2026-04-26T07:23:02Z</time></trkpt><trkpt lat="45.60252786019327" lon="10.716029485716893"><ele>299.0</ele><time>2026-04-26T07:23:03Z</time></trkpt><trkpt lat="45.60263490371568" lon="10.716020299724407"><ele>299.0</ele><time>2026-04-26T07:23:04Z</time></trkpt><trkpt lat="45.60272028753292" lon="10.716010307288018"><ele>299.0</ele><time>2026-04-26T07:23:05Z</time></trkpt><trkpt lat="45.60280239512234" lon="10.715999627572316"><ele>299.0</ele><time>2026-04-26T07:23:06Z</time></trkpt><trkpt lat="45.6028829350446" lon="10.71597278937476"><ele>301.2</ele><time>2026-04-26T07:23:07Z</time></trkpt><trkpt lat="45.60296489244775" lon="10.715900535611299"><ele>303.4</ele><time>2026-04-26T07:23:08Z</time></trkpt><trkpt lat="45.6030431383001" lon="10.715826012449352"><ele>305.6</ele><time>2026-04-26T07:23:09Z</time></trkpt><trkpt lat="45.60311869508437" lon="10.71573614033115"><ele>307.8</ele><time>2026-04-26T07:23:10Z</time></trkpt><trkpt lat="45.60322554819221" lon="10.715655447767622"><ele>310.0</ele><time>2026-04-26T07:23:11Z</time></trkpt><trkpt lat="45.603314213376926" lon="10.715606582436608"><ele>310.0</ele><time>2026-04-26T07:23:12Z</time></trkpt><trkpt lat="45.603410928239335" lon="10.71556810375633"><ele>310.0</ele><time>2026-04-26T07:23:13Z</time></trkpt><trkpt lat="45.60351543810276" lon="10.71554196885843"><ele>310.0</ele><time>2026-04-26T07:23:14Z</time></trkpt><trkpt lat="45.60360516433321" lon="10.715529058547279"><ele>310.0</ele><time>2026-04-26T07:23:15Z</time></trkpt><trkpt lat="45.6038036797159" lon="10.715524931440337"><ele>311.0</ele><time>2026-04-26T07:23:17Z</time></trkpt><trkpt lat="45.603907895073235" lon="10.715523703288298"><ele>312.0</ele><time>2026-04-26T07:23:18Z</time></trkpt><trkpt lat="45.604014013738436" lon="10.715521574884422"><ele>313.0</ele><time>2026-04-26T07:23:19Z</time></trkpt><trkpt lat="45.60413820023022" lon="10.715547938184848"><ele>314.0</ele><time>2026-04-26T07:23:20Z</time></trkpt><trkpt lat="45.60422746937643" lon="10.71555473701428"><ele>315.0</ele><time>2026-04-26T07:23:21Z</time></trkpt><trkpt lat="45.60430672400991" lon="10.715557629730988"><ele>315.0</ele><time>2026-04-26T07:23:22Z</time></trkpt><trkpt lat="45.60437548549653" lon="10.715554869902927"><ele>315.0</ele><time>2026-04-26T07:23:23Z</time></trkpt><trkpt lat="45.604471293975934" lon="10.715548106766262"><ele>315.0</ele><time>2026-04-26T07:23:24Z</time></trkpt><trkpt lat="45.60457792487617" lon="10.715536749872292"><ele>315.0</ele><time>2026-04-26T07:23:25Z</time></trkpt><trkpt lat="45.60469567954658" lon="10.715519692878763"><ele>315.0</ele><time>2026-04-26T07:23:26Z</time></trkpt><trkpt lat="45.6048101929619" lon="10.715504443228877"><ele>316.0</ele><time>2026-04-26T07:23:27Z</time></trkpt><trkpt lat="45.60492345766824" lon="10.715487053508193"><ele>317.0</ele><time>2026-04-26T07:23:28Z</time></trkpt><trkpt lat="45.605022891003884" lon="10.715479452465312"><ele>318.0</ele><time>2026-04-26T07:23:29Z</time></trkpt><trkpt lat="45.60509879786274" lon="10.715485915859874"><ele>319.0</ele><time>2026-04-26T07:23:30Z</time></trkpt><trkpt lat="45.60518116654514" lon="10.715495284402516"><ele>320.0</ele><time>2026-04-26T07:23:31Z</time></trkpt><trkpt lat="45.6052749157339" lon="10.715499030041387"><ele>320.83333333333337</ele><time>2026-04-26T07:23:32Z</time></trkpt><trkpt lat="45.60535551638776" lon="10.715504674764244"><ele>321.6666666666667</ele><time>2026-04-26T07:23:33Z</time></trkpt><trkpt lat="45.60542839142544" lon="10.715502579855585"><ele>322.5</ele><time>2026-04-26T07:23:34Z</time></trkpt><trkpt lat="45.60554059254949" lon="10.71544662486968"><ele>323.3333333333333</ele><time>2026-04-26T07:23:36Z</time></trkpt><trkpt lat="45.605606004037895" lon="10.715428692537731"><ele>324.16666666666663</ele><time>2026-04-26T07:23:37Z</time></trkpt><trkpt lat="45.60570012754701" lon="10.71544281956089"><ele>325.0</ele><time>2026-04-26T07:23:39Z</time></trkpt><trkpt lat="45.60577052868516" lon="10.715393218168412"><ele>325.0</ele><time>2026-04-26T07:23:41Z</time></trkpt><trkpt lat="45.605845879091795" lon="10.71535674372544"><ele>325.0</ele><time>2026-04-26T07:23:44Z</time></trkpt><trkpt lat="45.605924815268885" lon="10.715339305901265"><ele>325.0</ele><time>2026-04-26T07:23:47Z</time></trkpt><trkpt lat="45.605996538258964" lon="10.715288420689133"><ele>325.0</ele><time>2026-04-26T07:27:24.001Z</time></trkpt><trkpt lat="45.606065197725464" lon="10.715234997045172"><ele>325.0</ele><time>2026-04-26T07:27:31Z</time></trkpt><trkpt lat="45.60614086892961" lon="10.715187705213536"><ele>325.0</ele><time>2026-04-26T07:27:33Z</time></trkpt><trkpt lat="45.60620521649636" lon="10.71515870965235"><ele>324.8333333333333</ele><time>2026-04-26T07:28:12Z</time></trkpt><trkpt lat="45.6062691093256" lon="10.715130584260129"><ele>324.66666666666663</ele><time>2026-04-26T07:28:20Z</time></trkpt><trkpt lat="45.606332337215036" lon="10.715104083118607"><ele>324.5</ele><time>2026-04-26T07:28:32Z</time></trkpt><trkpt lat="45.60640094576608" lon="10.715087679873823"><ele>324.3333333333333</ele><time>2026-04-26T07:28:46Z</time></trkpt><trkpt lat="45.60648971774633" lon="10.7150201829773"><ele>324.1666666666667</ele><time>2026-04-26T07:28:49Z</time></trkpt><trkpt lat="45.6066161797089" lon="10.715120841815642"><ele>324.0</ele><time>2026-04-26T07:28:50Z</time></trkpt><trkpt lat="45.6065656230504" lon="10.71532567986399"><ele>324.8333333333333</ele><time>2026-04-26T07:37:27Z</time></trkpt><trkpt lat="45.60655443108462" lon="10.71546152028369"><ele>325.6666666666667</ele><time>2026-04-26T07:37:29Z</time></trkpt><trkpt lat="45.60652828836856" lon="10.715548696528892"><ele>326.5</ele><time>2026-04-26T07:37:32Z</time></trkpt><trkpt lat="45.60644620206742" lon="10.715612105125583"><ele>327.33333333333337</ele><time>2026-04-26T07:37:35Z</time></trkpt><trkpt lat="45.60637236787928" lon="10.715625985441998"><ele>328.1666666666667</ele><time>2026-04-26T07:37:39Z</time></trkpt><trkpt lat="45.60629868728444" lon="10.715684171297573"><ele>329.0</ele><time>2026-04-26T07:38:11Z</time></trkpt><trkpt lat="45.60623117962815" lon="10.715702060597053"><ele>328.33333333333337</ele><time>2026-04-26T07:38:19Z</time></trkpt><trkpt lat="45.60614029435813" lon="10.715706783841611"><ele>327.6666666666667</ele><time>2026-04-26T07:38:22Z</time></trkpt><trkpt lat="45.606075587996266" lon="10.71576186627243"><ele>327.0</ele><time>2026-04-26T07:38:25Z</time></trkpt><trkpt lat="45.605995792352566" lon="10.715770475883824"><ele>326.3333333333333</ele><time>2026-04-26T07:38:27Z</time></trkpt><trkpt lat="45.60586773486015" lon="10.715805975580084"><ele>325.66666666666663</ele><time>2026-04-26T07:38:29Z</time></trkpt><trkpt lat="45.60580303812481" lon="10.715839448670321"><ele>325.0</ele><time>2026-04-26T07:38:30Z</time></trkpt><trkpt lat="45.605690381587195" lon="10.715862271080917"><ele>325.0</ele><time>2026-04-26T07:38:32Z</time></trkpt><trkpt lat="45.60555469162371" lon="10.715892244704383"><ele>325.0</ele><time>2026-04-26T07:38:34Z</time></trkpt><trkpt lat="45.60548434107632" lon="10.715902994199672"><ele>325.0</ele><time>2026-04-26T07:38:35Z</time></trkpt><trkpt lat="45.60540487403067" lon="10.715916171233658"><ele>325.0</ele><time>2026-04-26T07:38:36Z</time></trkpt><trkpt lat="45.60531983070276" lon="10.715925868725193"><ele>325.0</ele><time>2026-04-26T07:38:37Z</time></trkpt><trkpt lat="45.60524874759769" lon="10.715927385278528"><ele>325.0</ele><time>2026-04-26T07:38:38Z</time></trkpt><trkpt lat="45.605177596399024" lon="10.71593075997347"><ele>324.0</ele><time>2026-04-26T07:38:39Z</time></trkpt><trkpt lat="45.6050546120158" lon="10.715925671962664"><ele>323.0</ele><time>2026-04-26T07:38:41Z</time></trkpt><trkpt lat="45.604991568129144" lon="10.71593551850898"><ele>322.0</ele><time>2026-04-26T07:38:42Z</time></trkpt><trkpt lat="45.60488650588347" lon="10.715979716043094"><ele>321.0</ele><time>2026-04-26T07:38:43Z</time></trkpt><trkpt lat="45.60481079876063" lon="10.716008066223"><ele>320.0</ele><time>2026-04-26T07:38:44Z</time></trkpt><trkpt lat="45.60473532730257" lon="10.716020106723324"><ele>320.0</ele><time>2026-04-26T07:38:45Z</time></trkpt><trkpt lat="45.60466662402729" lon="10.716038859977528"><ele>320.0</ele><time>2026-04-26T07:38:46Z</time></trkpt><trkpt lat="45.60456985616681" lon="10.716055605627185"><ele>320.0</ele><time>2026-04-26T07:38:47Z</time></trkpt><trkpt lat="45.604468250035644" lon="10.716081676692184"><ele>320.0</ele><time>2026-04-26T07:38:49Z</time></trkpt><trkpt lat="45.60435448584637" lon="10.716080149127277"><ele>320.0</ele><time>2026-04-26T07:38:51Z</time></trkpt><trkpt lat="45.604236020384754" lon="10.716090628366752"><ele>321.5</ele><time>2026-04-26T07:38:53Z</time></trkpt><trkpt lat="45.60417007746589" lon="10.71609788894152"><ele>323.0</ele><time>2026-04-26T07:38:54Z</time></trkpt><trkpt lat="45.604101657757795" lon="10.716108523691425"><ele>324.5</ele><time>2026-04-26T07:38:55Z</time></trkpt><trkpt lat="45.603979990477015" lon="10.716122161605483"><ele>326.0</ele><time>2026-04-26T07:38:57Z</time></trkpt><trkpt lat="45.603912025127386" lon="10.716132543112622"><ele>327.5</ele><time>2026-04-26T07:38:58Z</time></trkpt><trkpt lat="45.603813935794165" lon="10.716156709332392"><ele>329.0</ele><time>2026-04-26T07:39:00Z</time></trkpt><trkpt lat="45.60372221744728" lon="10.716229291403568"><ele>326.59999999999997</ele><time>2026-04-26T07:39:02Z</time></trkpt><trkpt lat="45.6036252794525" lon="10.716309284443698"><ele>324.2</ele><time>2026-04-26T07:39:04Z</time></trkpt><trkpt lat="45.603556488023536" lon="10.716449136528889"><ele>321.79999999999995</ele><time>2026-04-26T07:39:06Z</time></trkpt><trkpt lat="45.60354422548017" lon="10.716616159547238"><ele>319.4</ele><time>2026-04-26T07:39:08Z</time></trkpt><trkpt lat="45.603542802049255" lon="10.71675692354466"><ele>317.0</ele><time>2026-04-26T07:39:10Z</time></trkpt><trkpt lat="45.60354966839654" lon="10.716914173964367"><ele>317.0</ele><time>2026-04-26T07:39:12Z</time></trkpt><trkpt lat="45.603533844394626" lon="10.717072957118676"><ele>317.0</ele><time>2026-04-26T07:39:14Z</time></trkpt><trkpt lat="45.60352431053218" lon="10.717169266372581"><ele>317.0</ele><time>2026-04-26T07:39:15Z</time></trkpt><trkpt lat="45.60352013183311" lon="10.71732217018253"><ele>317.0</ele><time>2026-04-26T07:39:17Z</time></trkpt><trkpt lat="45.603528178051654" lon="10.717451077466883"><ele>317.0</ele><time>2026-04-26T07:39:19Z</time></trkpt><trkpt lat="45.60354315009873" lon="10.717538815168552"><ele>317.0</ele><time>2026-04-26T07:39:20Z</time></trkpt><trkpt lat="45.60356781239574" lon="10.717626648680358"><ele>316.8</ele><time>2026-04-26T07:39:21Z</time></trkpt><trkpt lat="45.60360501818575" lon="10.717747903590345"><ele>316.6</ele><time>2026-04-26T07:39:23Z</time></trkpt><trkpt lat="45.60362787217586" lon="10.717841271244124"><ele>316.40000000000003</ele><time>2026-04-26T07:39:25Z</time></trkpt><trkpt lat="45.603625288207816" lon="10.71794872402801"><ele>316.2</ele><time>2026-04-26T07:39:27Z</time></trkpt><trkpt lat="45.6035820202261" lon="10.71809833772357"><ele>316.0</ele><time>2026-04-26T07:39:29Z</time></trkpt><trkpt lat="45.603511076790056" lon="10.718214960577217"><ele>316.0</ele><time>2026-04-26T07:39:31Z</time></trkpt><trkpt lat="45.603464859514055" lon="10.718296613820632"><ele>316.0</ele><time>2026-04-26T07:39:32Z</time></trkpt><trkpt lat="45.60343332282835" lon="10.718377985934978"><ele>316.0</ele><time>2026-04-26T07:39:33Z</time></trkpt><trkpt lat="45.603373741444194" lon="10.718485069772935"><ele>316.0</ele><time>2026-04-26T07:39:35Z</time></trkpt><trkpt lat="45.60330393505834" lon="10.718564860607279"><ele>316.0</ele><time>2026-04-26T07:39:37Z</time></trkpt><trkpt lat="45.60326635918079" lon="10.718647800425417"><ele>316.0</ele><time>2026-04-26T07:39:40Z</time></trkpt><trkpt lat="45.603243150454055" lon="10.718757243811028"><ele>316.66666666666663</ele><time>2026-04-26T07:39:58Z</time></trkpt><trkpt lat="45.60325991233638" lon="10.718914482500468"><ele>317.3333333333333</ele><time>2026-04-26T07:40:01Z</time></trkpt><trkpt lat="45.60330168627711" lon="10.719051440738255"><ele>318.0</ele><time>2026-04-26T07:40:03Z</time></trkpt><trkpt lat="45.60332572691658" lon="10.719172223387702"><ele>318.6666666666667</ele><time>2026-04-26T07:40:05Z</time></trkpt><trkpt lat="45.603341322530646" lon="10.71926535630217"><ele>319.33333333333337</ele><time>2026-04-26T07:40:08Z</time></trkpt><trkpt lat="45.603372233521206" lon="10.719364490950854"><ele>320.0</ele><time>2026-04-26T07:40:11Z</time></trkpt><trkpt lat="45.60345231625585" lon="10.719393954160461"><ele>319.2</ele><time>2026-04-26T07:42:39Z</time></trkpt><trkpt lat="45.603557290130176" lon="10.719418912598012"><ele>318.4</ele><time>2026-04-26T07:42:41Z</time></trkpt><trkpt lat="45.603640811004944" lon="10.719502825895926"><ele>317.6</ele><time>2026-04-26T07:42:43Z</time></trkpt><trkpt lat="45.60372760146701" lon="10.719587965792698"><ele>316.8</ele><time>2026-04-26T07:42:45Z</time></trkpt><trkpt lat="45.603821526903154" lon="10.719634559855717"><ele>316.0</ele><time>2026-04-26T07:42:47Z</time></trkpt><trkpt lat="45.60389261459843" lon="10.719639628673683"><ele>316.00000000000006</ele><time>2026-04-26T07:42:48Z</time></trkpt><trkpt lat="45.60395703628627" lon="10.719635579030843"><ele>316.0</ele><time>2026-04-26T07:42:49Z</time></trkpt><trkpt lat="45.60406484101334" lon="10.719650385215742"><ele>316.0</ele><time>2026-04-26T07:42:51Z</time></trkpt><trkpt lat="45.60412832678299" lon="10.719700142142004"><ele>316.0</ele><time>2026-04-26T07:42:52Z</time></trkpt><trkpt lat="45.604186689121626" lon="10.719737259209074"><ele>316.0</ele><time>2026-04-26T07:42:53Z</time></trkpt><trkpt lat="45.60424896135715" lon="10.71975994679363"><ele>316.00000000000006</ele><time>2026-04-26T07:42:54Z</time></trkpt><trkpt lat="45.60429875237856" lon="10.719824659910476"><ele>316.0</ele><time>2026-04-26T07:42:55Z</time></trkpt><trkpt lat="45.604355727081064" lon="10.719907590136529"><ele>316.0</ele><time>2026-04-26T07:42:56Z</time></trkpt><trkpt lat="45.6044196220842" lon="10.719993398459359"><ele>316.0</ele><time>2026-04-26T07:42:57Z</time></trkpt><trkpt lat="45.604487027498635" lon="10.720069847311027"><ele>316.0</ele><time>2026-04-26T07:42:58Z</time></trkpt><trkpt lat="45.60453823565266" lon="10.720170644856339"><ele>316.0</ele><time>2026-04-26T07:42:59Z</time></trkpt><trkpt lat="45.604595427861526" lon="10.720222103913832"><ele>316.0</ele><time>2026-04-26T07:43:00Z</time></trkpt><trkpt lat="45.604656776486095" lon="10.720309860356735"><ele>316.0</ele><time>2026-04-26T07:43:01Z</time></trkpt><trkpt lat="45.604715598427234" lon="10.720401000610806"><ele>317.20000000000005</ele><time>2026-04-26T07:43:02Z</time></trkpt><trkpt lat="45.604770763798506" lon="10.720495482005509"><ele>318.40000000000003</ele><time>2026-04-26T07:43:03Z</time></trkpt><trkpt lat="45.604823084730626" lon="10.720603328470618"><ele>319.6</ele><time>2026-04-26T07:43:04Z</time></trkpt><trkpt lat="45.60485723147108" lon="10.720719601432823"><ele>320.8</ele><time>2026-04-26T07:43:05Z</time></trkpt><trkpt lat="45.604885082819386" lon="10.720825878730427"><ele>322.0</ele><time>2026-04-26T07:43:06Z</time></trkpt><trkpt lat="45.6049378583223" lon="10.72098407125635"><ele>321.8333333333333</ele><time>2026-04-26T07:43:08Z</time></trkpt><trkpt lat="45.60496365456371" lon="10.7210804260156"><ele>321.66666666666663</ele><time>2026-04-26T07:43:09Z</time></trkpt><trkpt lat="45.604993867407515" lon="10.72118327867646"><ele>321.5</ele><time>2026-04-26T07:43:10Z</time></trkpt><trkpt lat="45.60502265661202" lon="10.72129289757949"><ele>321.3333333333333</ele><time>2026-04-26T07:43:11Z</time></trkpt><trkpt lat="45.60505022756579" lon="10.721399697172577"><ele>321.1666666666667</ele><time>2026-04-26T07:43:12Z</time></trkpt><trkpt lat="45.605084712913296" lon="10.72149521180024"><ele>321.0</ele><time>2026-04-26T07:43:13Z</time></trkpt><trkpt lat="45.60512241262219" lon="10.721619600795952"><ele>321.0</ele><time>2026-04-26T07:43:14Z</time></trkpt><trkpt lat="45.60517923580084" lon="10.721736401759571"><ele>321.0</ele><time>2026-04-26T07:43:15Z</time></trkpt><trkpt lat="45.60521557055486" lon="10.721811005215383"><ele>321.0</ele><time>2026-04-26T07:43:18Z</time></trkpt><trkpt lat="45.60525673826085" lon="10.721937509827507"><ele>321.0</ele><time>2026-04-26T07:43:21Z</time></trkpt><trkpt lat="45.60527838076284" lon="10.722084983138311"><ele>321.0</ele><time>2026-04-26T07:43:23Z</time></trkpt><trkpt lat="45.60530342008502" lon="10.722184083467525"><ele>321.0</ele><time>2026-04-26T07:43:24Z</time></trkpt><trkpt lat="45.605338023688894" lon="10.722274243673608"><ele>319.8</ele><time>2026-04-26T07:43:25Z</time></trkpt><trkpt lat="45.60539520339107" lon="10.722330785675716"><ele>318.6</ele><time>2026-04-26T07:43:26Z</time></trkpt><trkpt lat="45.605475156582706" lon="10.722354046510041"><ele>317.4</ele><time>2026-04-26T07:43:27Z</time></trkpt><trkpt lat="45.605555560143785" lon="10.72239273149147"><ele>316.2</ele><time>2026-04-26T07:43:28Z</time></trkpt><trkpt lat="45.60567020519087" lon="10.722377792557896"><ele>315.0</ele><time>2026-04-26T07:43:29Z</time></trkpt><trkpt lat="45.60582627940079" lon="10.722387926246864"><ele>315.0</ele><time>2026-04-26T07:43:30Z</time></trkpt><trkpt lat="45.606017647771445" lon="10.722430269737455"><ele>315.0</ele><time>2026-04-26T07:43:31Z</time></trkpt><trkpt lat="45.60618826219343" lon="10.72249750416759"><ele>315.0</ele><time>2026-04-26T07:43:32Z</time></trkpt><trkpt lat="45.606342933028074" lon="10.722548217061625"><ele>314.25</ele><time>2026-04-26T07:43:33Z</time></trkpt><trkpt lat="45.60647892493397" lon="10.722614634990727"><ele>313.5</ele><time>2026-04-26T07:43:34Z</time></trkpt><trkpt lat="45.60657943471753" lon="10.722714720262985"><ele>312.75</ele><time>2026-04-26T07:43:35Z</time></trkpt><trkpt lat="45.60666147899049" lon="10.72281977410548"><ele>312.0</ele><time>2026-04-26T07:43:36Z</time></trkpt><trkpt lat="45.606725860474825" lon="10.722882812667088"><ele>310.3333333333333</ele><time>2026-04-26T07:43:37Z</time></trkpt><trkpt lat="45.606742582584" lon="10.72297392812994"><ele>308.6666666666667</ele><time>2026-04-26T07:43:38Z</time></trkpt><trkpt lat="45.60675698665718" lon="10.723086427674062"><ele>307.0</ele><time>2026-04-26T07:43:39Z</time></trkpt><trkpt lat="45.60673882601219" lon="10.72320728943911"><ele>305.33333333333337</ele><time>2026-04-26T07:43:40Z</time></trkpt><trkpt lat="45.60662869142416" lon="10.723301554614846"><ele>303.6666666666667</ele><time>2026-04-26T07:43:41Z</time></trkpt><trkpt lat="45.6066125631834" lon="10.723400418165896"><ele>302.0</ele><time>2026-04-26T07:43:42Z</time></trkpt><trkpt lat="45.60668911940751" lon="10.72355028191455"><ele>302.1666666666667</ele><time>2026-04-26T07:43:44Z</time></trkpt><trkpt lat="45.60676968305359" lon="10.723595039519267"><ele>302.33333333333337</ele><time>2026-04-26T07:43:45Z</time></trkpt><trkpt lat="45.60683929355944" lon="10.723602125083396"><ele>302.5</ele><time>2026-04-26T07:43:46Z</time></trkpt><trkpt lat="45.60687806888775" lon="10.72372489439974"><ele>302.6666666666667</ele><time>2026-04-26T07:43:47Z</time></trkpt><trkpt lat="45.60691026166363" lon="10.72380733014104"><ele>302.8333333333333</ele><time>2026-04-26T07:43:48Z</time></trkpt><trkpt lat="45.606920182325574" lon="10.723899359854123"><ele>303.0</ele><time>2026-04-26T07:43:49Z</time></trkpt><trkpt lat="45.60688552904353" lon="10.72401765166932"><ele>303.0</ele><time>2026-04-26T07:43:50Z</time></trkpt><trkpt lat="45.606854677267776" lon="10.724163930517237"><ele>303.0</ele><time>2026-04-26T07:43:51Z</time></trkpt><trkpt lat="45.606785953963104" lon="10.72431634669456"><ele>303.0</ele><time>2026-04-26T07:43:52Z</time></trkpt><trkpt lat="45.60670294936588" lon="10.724502317858942"><ele>303.0</ele><time>2026-04-26T07:43:53Z</time></trkpt><trkpt lat="45.60662708150384" lon="10.72467126391939"><ele>304.4</ele><time>2026-04-26T07:43:54Z</time></trkpt><trkpt lat="45.606572556344766" lon="10.724814444224796"><ele>305.8</ele><time>2026-04-26T07:43:55Z</time></trkpt><trkpt lat="45.606520748853285" lon="10.724931094492359"><ele>307.2</ele><time>2026-04-26T07:43:56Z</time></trkpt><trkpt lat="45.606481322391765" lon="10.725060319749756"><ele>308.6</ele><time>2026-04-26T07:43:57Z</time></trkpt><trkpt lat="45.606463641597756" lon="10.725202499157101"><ele>310.0</ele><time>2026-04-26T07:43:58Z</time></trkpt><trkpt lat="45.606441910298294" lon="10.725341850061012"><ele>311.0</ele><time>2026-04-26T07:43:59Z</time></trkpt><trkpt lat="45.60641105568928" lon="10.725481761079548"><ele>312.0</ele><time>2026-04-26T07:44:00Z</time></trkpt><trkpt lat="45.60640657190644" lon="10.725621938210931"><ele>313.0</ele><time>2026-04-26T07:44:01Z</time></trkpt><trkpt lat="45.60642529497831" lon="10.725757677457354"><ele>314.0</ele><time>2026-04-26T07:44:02Z</time></trkpt><trkpt lat="45.60641981154054" lon="10.725890735106313"><ele>315.0</ele><time>2026-04-26T07:44:03Z</time></trkpt><trkpt lat="45.60643831759823" lon="10.726015042485955"><ele>315.3333333333333</ele><time>2026-04-26T07:44:04Z</time></trkpt><trkpt lat="45.60645828397083" lon="10.726130274761722"><ele>315.6666666666667</ele><time>2026-04-26T07:44:05Z</time></trkpt><trkpt lat="45.60647735381892" lon="10.72624033291407"><ele>316.0</ele><time>2026-04-26T07:44:06Z</time></trkpt><trkpt lat="45.606488842834985" lon="10.72632933314512"><ele>316.33333333333337</ele><time>2026-04-26T07:44:07Z</time></trkpt><trkpt lat="45.6065025747565" lon="10.726479709744297"><ele>316.6666666666667</ele><time>2026-04-26T07:44:09Z</time></trkpt><trkpt lat="45.60651774505917" lon="10.726601463903073"><ele>317.0</ele><time>2026-04-26T07:44:10Z</time></trkpt><trkpt lat="45.60653884855925" lon="10.726688225107122"><ele>317.0</ele><time>2026-04-26T07:44:11Z</time></trkpt><trkpt lat="45.60656543445212" lon="10.72678468976015"><ele>317.0</ele><time>2026-04-26T07:44:14Z</time></trkpt><trkpt lat="45.60651766686312" lon="10.726903062895337"><ele>317.0</ele><time>2026-04-26T07:44:17Z</time></trkpt><trkpt lat="45.60634199478843" lon="10.72696635408372"><ele>317.0</ele><time>2026-04-26T07:44:18Z</time></trkpt><trkpt lat="45.606257533644026" lon="10.727043495443912"><ele>316.2</ele><time>2026-04-26T07:44:19Z</time></trkpt><trkpt lat="45.60615637812961" lon="10.727124421810407"><ele>315.4</ele><time>2026-04-26T07:44:20Z</time></trkpt><trkpt lat="45.60607472225523" lon="10.727192936939277"><ele>314.6</ele><time>2026-04-26T07:44:21Z</time></trkpt><trkpt lat="45.60598605186054" lon="10.727236627645857"><ele>313.8</ele><time>2026-04-26T07:44:22Z</time></trkpt><trkpt lat="45.60590145220269" lon="10.727261969081374"><ele>313.0</ele><time>2026-04-26T07:44:23Z</time></trkpt><trkpt lat="45.60582260912882" lon="10.727288791877747"><ele>313.0</ele><time>2026-04-26T07:44:24Z</time></trkpt><trkpt lat="45.605713794976324" lon="10.727287744264236"><ele>313.0</ele><time>2026-04-26T07:44:25Z</time></trkpt><trkpt lat="45.60562601366559" lon="10.72729078682266"><ele>313.0</ele><time>2026-04-26T07:44:26Z</time></trkpt><trkpt lat="45.60554228217017" lon="10.727290786822458"><ele>313.0</ele><time>2026-04-26T07:44:27Z</time></trkpt><trkpt lat="45.60545786890683" lon="10.727299470435867"><ele>313.0</ele><time>2026-04-26T07:44:28Z</time></trkpt><trkpt lat="45.60535946862979" lon="10.727266484775305"><ele>313.2</ele><time>2026-04-26T07:44:29Z</time></trkpt><trkpt lat="45.60526397981349" lon="10.72725525079991"><ele>313.4</ele><time>2026-04-26T07:44:30Z</time></trkpt><trkpt lat="45.60518093246924" lon="10.727245480519219"><ele>313.59999999999997</ele><time>2026-04-26T07:44:31Z</time></trkpt><trkpt lat="45.605092767111195" lon="10.72723510812827"><ele>313.8</ele><time>2026-04-26T07:44:32Z</time></trkpt><trkpt lat="45.60499732839448" lon="10.727223880083779"><ele>314.0</ele><time>2026-04-26T07:44:33Z</time></trkpt><trkpt lat="45.60489744560366" lon="10.727233477069904"><ele>314.0</ele><time>2026-04-26T07:44:34Z</time></trkpt><trkpt lat="45.604802434720284" lon="10.727221354208679"><ele>314.0</ele><time>2026-04-26T07:44:35Z</time></trkpt><trkpt lat="45.60472194227551" lon="10.72721155679562"><ele>314.0</ele><time>2026-04-26T07:44:36Z</time></trkpt><trkpt lat="45.6046443218885" lon="10.727214171131711"><ele>314.0</ele><time>2026-04-26T07:44:37Z</time></trkpt><trkpt lat="45.60455959447601" lon="10.727217333846978"><ele>314.0</ele><time>2026-04-26T07:44:38Z</time></trkpt><trkpt lat="45.60446992263863" lon="10.727236431285474"><ele>314.0</ele><time>2026-04-26T07:44:39Z</time></trkpt><trkpt lat="45.60437863951771" lon="10.72725997096632"><ele>314.0</ele><time>2026-04-26T07:44:40Z</time></trkpt><trkpt lat="45.6042982370683" lon="10.727288460994117"><ele>314.0</ele><time>2026-04-26T07:44:41Z</time></trkpt><trkpt lat="45.60421989897269" lon="10.727322547903144"><ele>314.0</ele><time>2026-04-26T07:44:42Z</time></trkpt><trkpt lat="45.6041359193956" lon="10.727353271722695"><ele>314.0</ele><time>2026-04-26T07:44:43Z</time></trkpt><trkpt lat="45.60405133903399" lon="10.72738311285242"><ele>314.0</ele><time>2026-04-26T07:44:44Z</time></trkpt><trkpt lat="45.60397405595787" lon="10.72740704824683"><ele>314.0</ele><time>2026-04-26T07:44:45Z</time></trkpt><trkpt lat="45.60388980366384" lon="10.727433832954807"><ele>314.0</ele><time>2026-04-26T07:44:46Z</time></trkpt><trkpt lat="45.60379472599585" lon="10.727455033634206"><ele>314.0</ele><time>2026-04-26T07:44:47Z</time></trkpt><trkpt lat="45.60370372184697" lon="10.727478987519646"><ele>314.0</ele><time>2026-04-26T07:44:48Z</time></trkpt><trkpt lat="45.603613416922734" lon="10.727500060367637"><ele>314.0</ele><time>2026-04-26T07:44:49Z</time></trkpt><trkpt lat="45.60353689500327" lon="10.727518584542397"><ele>314.0</ele><time>2026-04-26T07:44:50Z</time></trkpt><trkpt lat="45.603469552031555" lon="10.727538233415586"><ele>314.0</ele><time>2026-04-26T07:44:51Z</time></trkpt><trkpt lat="45.603406810689236" lon="10.727567654951942"><ele>314.1666666666667</ele><time>2026-04-26T07:44:52Z</time></trkpt><trkpt lat="45.60333776861562" lon="10.727596869133162"><ele>314.33333333333337</ele><time>2026-04-26T07:44:53Z</time></trkpt><trkpt lat="45.60326719677226" lon="10.727638628621975"><ele>314.5</ele><time>2026-04-26T07:44:54Z</time></trkpt><trkpt lat="45.60320198441962" lon="10.727675421353997"><ele>314.6666666666667</ele><time>2026-04-26T07:44:55Z</time></trkpt><trkpt lat="45.60313362294977" lon="10.72771539147615"><ele>314.8333333333333</ele><time>2026-04-26T07:44:56Z</time></trkpt><trkpt lat="45.60306027159283" lon="10.727753374014576"><ele>315.0</ele><time>2026-04-26T07:44:57Z</time></trkpt><trkpt lat="45.602981183225054" lon="10.727788717941271"><ele>315.0</ele><time>2026-04-26T07:44:58Z</time></trkpt><trkpt lat="45.60291010995315" lon="10.727832073499187"><ele>315.0</ele><time>2026-04-26T07:44:59Z</time></trkpt><trkpt lat="45.60284467184111" lon="10.727871832613019"><ele>315.0</ele><time>2026-04-26T07:45:00Z</time></trkpt><trkpt lat="45.602784561239176" lon="10.727912790249626"><ele>315.0</ele><time>2026-04-26T07:45:01Z</time></trkpt><trkpt lat="45.6027206427875" lon="10.727956803485101"><ele>315.0</ele><time>2026-04-26T07:45:02Z</time></trkpt><trkpt lat="45.6026463453194" lon="10.727998828195817"><ele>315.0</ele><time>2026-04-26T07:45:03Z</time></trkpt><trkpt lat="45.60256007056664" lon="10.728042837389205"><ele>314.1666666666667</ele><time>2026-04-26T07:45:04Z</time></trkpt><trkpt lat="45.602475934138205" lon="10.728084086624804"><ele>313.3333333333333</ele><time>2026-04-26T07:45:05Z</time></trkpt><trkpt lat="45.60241298535991" lon="10.728116454656696"><ele>312.5</ele><time>2026-04-26T07:45:06Z</time></trkpt><trkpt lat="45.60231962043356" lon="10.728162777005714"><ele>311.66666666666663</ele><time>2026-04-26T07:45:09Z</time></trkpt><trkpt lat="45.60223450443887" lon="10.728193620520093"><ele>310.8333333333333</ele><time>2026-04-26T07:45:12Z</time></trkpt><trkpt lat="45.60214110096969" lon="10.72824184956885"><ele>310.0</ele><time>2026-04-26T07:45:14Z</time></trkpt><trkpt lat="45.60207976637448" lon="10.728269255565714"><ele>310.0</ele><time>2026-04-26T07:45:15Z</time></trkpt><trkpt lat="45.602017365295005" lon="10.728298312278303"><ele>310.0</ele><time>2026-04-26T07:45:16Z</time></trkpt><trkpt lat="45.60188968128215" lon="10.7283323305981"><ele>310.0</ele><time>2026-04-26T07:45:18Z</time></trkpt><trkpt lat="45.60179266972833" lon="10.728371815634123"><ele>310.0</ele><time>2026-04-26T07:45:20Z</time></trkpt><trkpt lat="45.60172835007969" lon="10.728381912757884"><ele>310.0</ele><time>2026-04-26T07:45:21Z</time></trkpt><trkpt lat="45.60165877664447" lon="10.728390913399124"><ele>310.0</ele><time>2026-04-26T07:45:22Z</time></trkpt><trkpt lat="45.60155401851174" lon="10.72840098142581"><ele>308.8</ele><time>2026-04-26T07:45:24Z</time></trkpt><trkpt lat="45.601495060878726" lon="10.728444226741512"><ele>307.6</ele><time>2026-04-26T07:45:26Z</time></trkpt><trkpt lat="45.60144703282043" lon="10.728508697851193"><ele>306.4</ele><time>2026-04-26T07:45:53Z</time></trkpt><trkpt lat="45.60151161997818" lon="10.72843616031675"><ele>305.2</ele><time>2026-04-26T07:45:56Z</time></trkpt><trkpt lat="45.601668027980274" lon="10.728469615390578"><ele>304.0</ele><time>2026-04-26T07:45:57Z</time></trkpt><trkpt lat="45.60177081954838" lon="10.728431908667197"><ele>304.0</ele><time>2026-04-26T07:45:59Z</time></trkpt><trkpt lat="45.60184204103581" lon="10.728417492890587"><ele>304.0</ele><time>2026-04-26T07:46:01Z</time></trkpt><trkpt lat="45.60192279272186" lon="10.728391519678784"><ele>304.0</ele><time>2026-04-26T07:46:10Z</time></trkpt><trkpt lat="45.601993163486654" lon="10.728344228053556"><ele>304.0</ele><time>2026-04-26T07:46:11Z</time></trkpt><trkpt lat="45.60209136279092" lon="10.728301627362171"><ele>304.0</ele><time>2026-04-26T07:46:13Z</time></trkpt><trkpt lat="45.6021682701343" lon="10.72826449714951"><ele>304.0</ele><time>2026-04-26T07:46:15Z</time></trkpt><trkpt lat="45.60227675945301" lon="10.72823632719108"><ele>305.2</ele><time>2026-04-26T07:46:17Z</time></trkpt><trkpt lat="45.60228244841589" lon="10.728384097707186"><ele>306.4</ele><time>2026-04-26T07:46:21Z</time></trkpt><trkpt lat="45.60224331034645" lon="10.728556960559063"><ele>307.6</ele><time>2026-04-26T07:46:22Z</time></trkpt><trkpt lat="45.60220243236654" lon="10.728726009320543"><ele>308.8</ele><time>2026-04-26T07:46:23Z</time></trkpt><trkpt lat="45.60217542184287" lon="10.728839970131295"><ele>310.0</ele><time>2026-04-26T07:46:24Z</time></trkpt><trkpt lat="45.60216166366321" lon="10.728929327853939"><ele>310.2</ele><time>2026-04-26T07:46:25Z</time></trkpt><trkpt lat="45.602167110094825" lon="10.729051407326303"><ele>310.4</ele><time>2026-04-26T07:46:27Z</time></trkpt><trkpt lat="45.602148455690546" lon="10.729211409057548"><ele>310.6</ele><time>2026-04-26T07:46:29Z</time></trkpt><trkpt lat="45.60217065691461" lon="10.729303811926266"><ele>310.8</ele><time>2026-04-26T07:46:30Z</time></trkpt><trkpt lat="45.60218321272109" lon="10.729465611397767"><ele>311.0</ele><time>2026-04-26T07:46:32Z</time></trkpt><trkpt lat="45.60218438479824" lon="10.72962029276687"><ele>311.0</ele><time>2026-04-26T07:46:34Z</time></trkpt><trkpt lat="45.60217747783276" lon="10.729784539203733"><ele>311.0</ele><time>2026-04-26T07:46:36Z</time></trkpt><trkpt lat="45.602181759606566" lon="10.729944822049402"><ele>311.0</ele><time>2026-04-26T07:46:38Z</time></trkpt><trkpt lat="45.60216734025371" lon="10.730065378602234"><ele>311.0</ele><time>2026-04-26T07:46:40Z</time></trkpt><trkpt lat="45.60209940051915" lon="10.7301848509218"><ele>311.0</ele><time>2026-04-26T07:46:42Z</time></trkpt><trkpt lat="45.6020389619052" lon="10.730231995594226"><ele>311.0</ele><time>2026-04-26T07:46:43Z</time></trkpt><trkpt lat="45.60196537705935" lon="10.73028216909315"><ele>311.0</ele><time>2026-04-26T07:46:44Z</time></trkpt><trkpt lat="45.601883000551084" lon="10.730343141149579"><ele>311.0</ele><time>2026-04-26T07:46:45Z</time></trkpt><trkpt lat="45.60182215598205" lon="10.730405661764907"><ele>311.0</ele><time>2026-04-26T07:46:46Z</time></trkpt><trkpt lat="45.601753576261785" lon="10.730455741910363"><ele>311.0</ele><time>2026-04-26T07:46:47Z</time></trkpt><trkpt lat="45.601659989334394" lon="10.730507596018471"><ele>311.0</ele><time>2026-04-26T07:46:48Z</time></trkpt><trkpt lat="45.601583741102715" lon="10.730590956204567"><ele>311.0</ele><time>2026-04-26T07:46:49Z</time></trkpt><trkpt lat="45.60147361940039" lon="10.730659607312756"><ele>311.0</ele><time>2026-04-26T07:46:51Z</time></trkpt><trkpt lat="45.60137167981085" lon="10.730754608759492"><ele>311.0</ele><time>2026-04-26T07:46:53Z</time></trkpt><trkpt lat="45.60129643570435" lon="10.730817588477407"><ele>311.0</ele><time>2026-04-26T07:46:54Z</time></trkpt><trkpt lat="45.60123250490026" lon="10.73089069151163"><ele>311.0</ele><time>2026-04-26T07:46:55Z</time></trkpt><trkpt lat="45.60118348099892" lon="10.730956532354178"><ele>310.1666666666667</ele><time>2026-04-26T07:46:56Z</time></trkpt><trkpt lat="45.60112678185256" lon="10.731001942005419"><ele>309.33333333333337</ele><time>2026-04-26T07:46:57Z</time></trkpt><trkpt lat="45.60105800646572" lon="10.731051617421576"><ele>308.5</ele><time>2026-04-26T07:46:58Z</time></trkpt><trkpt lat="45.60095695067511" lon="10.731128536482496"><ele>307.6666666666667</ele><time>2026-04-26T07:47:00Z</time></trkpt><trkpt lat="45.60085257534137" lon="10.731185661711574"><ele>306.8333333333333</ele><time>2026-04-26T07:47:02Z</time></trkpt><trkpt lat="45.60079641335786" lon="10.731227034612866"><ele>306.0</ele><time>2026-04-26T07:47:03Z</time></trkpt><trkpt lat="45.6006868496813" lon="10.73127547998897"><ele>306.0</ele><time>2026-04-26T07:47:05Z</time></trkpt><trkpt lat="45.60058798792763" lon="10.731331293829493"><ele>306.0</ele><time>2026-04-26T07:47:07Z</time></trkpt><trkpt lat="45.60051007733877" lon="10.731386275736924"><ele>306.0</ele><time>2026-04-26T07:47:09Z</time></trkpt><trkpt lat="45.60041399299846" lon="10.731440929399351"><ele>306.0</ele><time>2026-04-26T07:47:11Z</time></trkpt><trkpt lat="45.60034154946273" lon="10.731468372371074"><ele>306.0</ele><time>2026-04-26T07:47:12Z</time></trkpt><trkpt lat="45.60027958412395" lon="10.731518602531192"><ele>306.0</ele><time>2026-04-26T07:47:13Z</time></trkpt><trkpt lat="45.600200922647794" lon="10.73154957126188"><ele>306.0</ele><time>2026-04-26T07:47:14Z</time></trkpt><trkpt lat="45.600116790853434" lon="10.731591409557977"><ele>306.0</ele><time>2026-04-26T07:47:15Z</time></trkpt><trkpt lat="45.60004487866224" lon="10.731625700381008"><ele>306.0</ele><time>2026-04-26T07:47:16Z</time></trkpt><trkpt lat="45.599972031942755" lon="10.73166483741764"><ele>306.0</ele><time>2026-04-26T07:47:17Z</time></trkpt><trkpt lat="45.59990551774525" lon="10.731692416265798"><ele>306.0</ele><time>2026-04-26T07:47:18Z</time></trkpt><trkpt lat="45.59983510561072" lon="10.731739329503691"><ele>306.0</ele><time>2026-04-26T07:47:19Z</time></trkpt><trkpt lat="45.59976119970742" lon="10.731781016072755"><ele>306.0</ele><time>2026-04-26T07:47:20Z</time></trkpt><trkpt lat="45.599680456932404" lon="10.731851444319984"><ele>306.0</ele><time>2026-04-26T07:47:21Z</time></trkpt><trkpt lat="45.599615108437376" lon="10.731899569285178"><ele>306.0</ele><time>2026-04-26T07:47:22Z</time></trkpt><trkpt lat="45.59954369750131" lon="10.731948788826411"><ele>306.0</ele><time>2026-04-26T07:47:23Z</time></trkpt><trkpt lat="45.59946599572645" lon="10.732009183675627"><ele>306.0</ele><time>2026-04-26T07:47:24Z</time></trkpt><trkpt lat="45.5993690363826" lon="10.732077503630737"><ele>306.0</ele><time>2026-04-26T07:47:25Z</time></trkpt><trkpt lat="45.59928954706592" lon="10.732153776734819"><ele>305.3333333333333</ele><time>2026-04-26T07:47:26Z</time></trkpt><trkpt lat="45.59919970540028" lon="10.732233996951441"><ele>304.6666666666667</ele><time>2026-04-26T07:47:27Z</time></trkpt><trkpt lat="45.59912554645047" lon="10.732296547038192"><ele>304.0</ele><time>2026-04-26T07:47:28Z</time></trkpt><trkpt lat="45.599066259297004" lon="10.732341498145892"><ele>303.33333333333337</ele><time>2026-04-26T07:47:29Z</time></trkpt><trkpt lat="45.59901175289207" lon="10.732409672907991"><ele>302.6666666666667</ele><time>2026-04-26T07:47:30Z</time></trkpt><trkpt lat="45.59893308259012" lon="10.73252244071754"><ele>302.0</ele><time>2026-04-26T07:47:32Z</time></trkpt><trkpt lat="45.598842059845836" lon="10.732588539970932"><ele>302.0</ele><time>2026-04-26T07:47:34Z</time></trkpt><trkpt lat="45.598804876467305" lon="10.732671587735274"><ele>302.0</ele><time>2026-04-26T07:47:35Z</time></trkpt><trkpt lat="45.59867924025858" lon="10.732788322928384"><ele>302.0</ele><time>2026-04-26T07:47:37Z</time></trkpt><trkpt lat="45.59859757694748" lon="10.732833810774254"><ele>302.0</ele><time>2026-04-26T07:47:38Z</time></trkpt><trkpt lat="45.59849315793931" lon="10.732934212872008"><ele>302.0</ele><time>2026-04-26T07:47:40Z</time></trkpt><trkpt lat="45.59843743876971" lon="10.732981050393882"><ele>301.33333333333337</ele><time>2026-04-26T07:47:41Z</time></trkpt><trkpt lat="45.59838422406888" lon="10.73303440655782"><ele>300.6666666666667</ele><time>2026-04-26T07:47:42Z</time></trkpt><trkpt lat="45.59833609665706" lon="10.733097642171929"><ele>300.0</ele><time>2026-04-26T07:47:43Z</time></trkpt><trkpt lat="45.59825992402744" lon="10.733170498775111"><ele>299.3333333333333</ele><time>2026-04-26T07:47:44Z</time></trkpt><trkpt lat="45.59818644048599" lon="10.733237101714503"><ele>298.66666666666663</ele><time>2026-04-26T07:47:45Z</time></trkpt><trkpt lat="45.59810716395224" lon="10.733301831438089"><ele>298.0</ele><time>2026-04-26T07:47:46Z</time></trkpt><trkpt lat="45.598016913978064" lon="10.733370853545594"><ele>298.0</ele><time>2026-04-26T07:47:47Z</time></trkpt><trkpt lat="45.59784683046465" lon="10.733378682761778"><ele>298.0</ele><time>2026-04-26T07:47:48Z</time></trkpt><trkpt lat="45.59767002381483" lon="10.733451056115628"><ele>298.0</ele><time>2026-04-26T07:47:49Z</time></trkpt><trkpt lat="45.59750643204651" lon="10.73346889803251"><ele>297.25</ele><time>2026-04-26T07:47:50Z</time></trkpt><trkpt lat="45.597348202722074" lon="10.733501185577909"><ele>296.5</ele><time>2026-04-26T07:47:51Z</time></trkpt><trkpt lat="45.59721825569224" lon="10.733544189473506"><ele>295.75</ele><time>2026-04-26T07:47:52Z</time></trkpt><trkpt lat="45.597091076560254" lon="10.733567086741138"><ele>295.0</ele><time>2026-04-26T07:47:53Z</time></trkpt><trkpt lat="45.596982758782424" lon="10.73362554912843"><ele>291.6</ele><time>2026-04-26T07:47:54Z</time></trkpt><trkpt lat="45.59690537700835" lon="10.733725469754669"><ele>288.2</ele><time>2026-04-26T07:47:55Z</time></trkpt><trkpt lat="45.59683661764336" lon="10.733805736043964"><ele>284.8</ele><time>2026-04-26T07:47:56Z</time></trkpt><trkpt lat="45.59677128902623" lon="10.733828129835734"><ele>281.4</ele><time>2026-04-26T07:47:58Z</time></trkpt><trkpt lat="45.59673239903174" lon="10.733679073014207"><ele>278.0</ele><time>2026-04-26T07:48:00Z</time></trkpt><trkpt lat="45.59675385072925" lon="10.733449986063375"><ele>278.0</ele><time>2026-04-26T07:48:02Z</time></trkpt><trkpt lat="45.59677869257065" lon="10.733285743712381"><ele>278.0</ele><time>2026-04-26T07:48:03Z</time></trkpt><trkpt lat="45.59682924172686" lon="10.733151213752924"><ele>278.0</ele><time>2026-04-26T07:48:04Z</time></trkpt><trkpt lat="45.596881921632004" lon="10.7330553300428"><ele>278.0</ele><time>2026-04-26T07:48:05Z</time></trkpt><trkpt lat="45.5969527934455" lon="10.732944428771601"><ele>278.0</ele><time>2026-04-26T07:48:06Z</time></trkpt><trkpt lat="45.597019508775325" lon="10.732826590657428"><ele>280.6666666666667</ele><time>2026-04-26T07:48:07Z</time></trkpt><trkpt lat="45.597075550508286" lon="10.732721912050208"><ele>283.33333333333337</ele><time>2026-04-26T07:48:08Z</time></trkpt><trkpt lat="45.59713944908017" lon="10.732637816195199"><ele>286.0</ele><time>2026-04-26T07:48:09Z</time></trkpt><trkpt lat="45.59719522095652" lon="10.732557101056724"><ele>288.6666666666667</ele><time>2026-04-26T07:48:10Z</time></trkpt><trkpt lat="45.5972427990949" lon="10.73248302836332"><ele>291.3333333333333</ele><time>2026-04-26T07:48:11Z</time></trkpt><trkpt lat="45.597275204950776" lon="10.732399533509973"><ele>294.0</ele><time>2026-04-26T07:48:12Z</time></trkpt><trkpt lat="45.597281336084286" lon="10.732300084840153"><ele>294.0</ele><time>2026-04-26T07:48:13Z</time></trkpt><trkpt lat="45.59729230355405" lon="10.732184111251993"><ele>294.0</ele><time>2026-04-26T07:48:14Z</time></trkpt><trkpt lat="45.597309948062424" lon="10.732053048647844"><ele>294.0</ele><time>2026-04-26T07:48:15Z</time></trkpt><trkpt lat="45.597327486200705" lon="10.731948204871"><ele>294.0</ele><time>2026-04-26T07:48:16Z</time></trkpt><trkpt lat="45.59733266882364" lon="10.731781046288763"><ele>294.0</ele><time>2026-04-26T07:48:18Z</time></trkpt><trkpt lat="45.59732801587257" lon="10.731673619440711"><ele>294.0</ele><time>2026-04-26T07:48:20Z</time></trkpt><trkpt lat="45.59725559066813" lon="10.731628574090605"><ele>291.0</ele><time>2026-04-26T07:48:23Z</time></trkpt><trkpt lat="45.59717255857539" lon="10.7316843295914"><ele>288.0</ele><time>2026-04-26T07:48:24Z</time></trkpt><trkpt lat="45.59707223045424" lon="10.731824880174834"><ele>285.0</ele><time>2026-04-26T07:48:25Z</time></trkpt><trkpt lat="45.59697379521436" lon="10.73196070011001"><ele>282.0</ele><time>2026-04-26T07:48:26Z</time></trkpt><trkpt lat="45.59689700865094" lon="10.73207699429051"><ele>279.5</ele><time>2026-04-26T07:48:27Z</time></trkpt><trkpt lat="45.59681937441162" lon="10.732197924030483"><ele>277.0</ele><time>2026-04-26T07:48:28Z</time></trkpt><trkpt lat="45.59674265930686" lon="10.732322094914759"><ele>274.5</ele><time>2026-04-26T07:48:29Z</time></trkpt><trkpt lat="45.5966755949108" lon="10.73244361182871"><ele>272.0</ele><time>2026-04-26T07:48:30Z</time></trkpt><trkpt lat="45.59660649655384" lon="10.732569284774353"><ele>272.0</ele><time>2026-04-26T07:48:31Z</time></trkpt><trkpt lat="45.596528498440996" lon="10.732685212060868"><ele>272.0</ele><time>2026-04-26T07:48:32Z</time></trkpt><trkpt lat="45.59644283322805" lon="10.732788876256022"><ele>272.0</ele><time>2026-04-26T07:48:33Z</time></trkpt><trkpt lat="45.596360260206524" lon="10.732872527753933"><ele>272.0</ele><time>2026-04-26T07:48:34Z</time></trkpt><trkpt lat="45.59627361080078" lon="10.732928789248973"><ele>272.0</ele><time>2026-04-26T07:48:35Z</time></trkpt><trkpt lat="45.596185748959805" lon="10.732943659932072"><ele>269.4</ele><time>2026-04-26T07:48:36Z</time></trkpt><trkpt lat="45.59610732470587" lon="10.732924481809862"><ele>266.79999999999995</ele><time>2026-04-26T07:48:37Z</time></trkpt><trkpt lat="45.59604074483406" lon="10.732968191713262"><ele>264.2</ele><time>2026-04-26T07:48:39Z</time></trkpt><trkpt lat="45.5960163772841" lon="10.73318301443574"><ele>261.59999999999997</ele><time>2026-04-26T07:48:41Z</time></trkpt><trkpt lat="45.59601543830956" lon="10.733277736331647"><ele>259.0</ele><time>2026-04-26T07:48:42Z</time></trkpt><trkpt lat="45.5960031915597" lon="10.733402571422502"><ele>259.0</ele><time>2026-04-26T07:48:44Z</time></trkpt><trkpt lat="45.5960095612683" lon="10.733527119881863"><ele>259.0</ele><time>2026-04-26T07:48:46Z</time></trkpt><trkpt lat="45.59600240482057" lon="10.733618118089963"><ele>259.0</ele><time>2026-04-26T07:48:47Z</time></trkpt><trkpt lat="45.59598599759819" lon="10.733706593791656"><ele>259.0</ele><time>2026-04-26T07:48:48Z</time></trkpt><trkpt lat="45.59595769644806" lon="10.733870646477207"><ele>259.0</ele><time>2026-04-26T07:48:50Z</time></trkpt><trkpt lat="45.595938829633816" lon="10.73399897022048"><ele>259.0</ele><time>2026-04-26T07:48:52Z</time></trkpt><trkpt lat="45.59591929503425" lon="10.73409865550219"><ele>258.8</ele><time>2026-04-26T07:48:54Z</time></trkpt><trkpt lat="45.595898384888265" lon="10.734203535588229"><ele>258.59999999999997</ele><time>2026-04-26T07:48:56Z</time></trkpt><trkpt lat="45.59587246128923" lon="10.73431953355002"><ele>258.4</ele><time>2026-04-26T07:48:58Z</time></trkpt><trkpt lat="45.595854514883996" lon="10.734458144112416"><ele>258.2</ele><time>2026-04-26T07:49:00Z</time></trkpt><trkpt lat="45.595835367586695" lon="10.73460082534725"><ele>258.0</ele><time>2026-04-26T07:49:02Z</time></trkpt><trkpt lat="45.5958105403044" lon="10.734723878822454"><ele>258.0</ele><time>2026-04-26T07:49:04Z</time></trkpt><trkpt lat="45.595774662158654" lon="10.73483889585787"><ele>258.0</ele><time>2026-04-26T07:49:06Z</time></trkpt><trkpt lat="45.59575242279033" lon="10.734945975952131"><ele>258.0</ele><time>2026-04-26T07:49:08Z</time></trkpt><trkpt lat="45.59571476752641" lon="10.735054903041613"><ele>258.0</ele><time>2026-04-26T07:49:10Z</time></trkpt><trkpt lat="45.59564509652252" lon="10.735144323117376"><ele>258.0</ele><time>2026-04-26T07:49:12Z</time></trkpt><trkpt lat="45.59559850007441" lon="10.73524980163179"><ele>258.0</ele><time>2026-04-26T07:49:14Z</time></trkpt><trkpt lat="45.595547848898136" lon="10.735341765275692"><ele>255.8</ele><time>2026-04-26T07:49:16Z</time></trkpt><trkpt lat="45.595566995774455" lon="10.735510834629268"><ele>253.60000000000002</ele><time>2026-04-26T07:49:18Z</time></trkpt><trkpt lat="45.59564906709974" lon="10.735639342641631"><ele>251.39999999999998</ele><time>2026-04-26T07:49:20Z</time></trkpt><trkpt lat="45.595743645015396" lon="10.735692982487027"><ele>249.2</ele><time>2026-04-26T07:49:22Z</time></trkpt><trkpt lat="45.5958103762375" lon="10.735736626073352"><ele>247.0</ele><time>2026-04-26T07:49:24Z</time></trkpt><trkpt lat="45.59587214885551" lon="10.735785749012978"><ele>246.99999999999997</ele><time>2026-04-26T07:49:26Z</time></trkpt><trkpt lat="45.59587546670152" lon="10.735897976479002"><ele>247.0</ele><time>2026-04-26T07:49:29Z</time></trkpt><trkpt lat="45.59580177279068" lon="10.735943625896416"><ele>247.0</ele><time>2026-04-26T07:49:30Z</time></trkpt><trkpt lat="45.59568719879969" lon="10.735919149979079"><ele>247.0</ele><time>2026-04-26T07:49:32Z</time></trkpt><trkpt lat="45.59562796775349" lon="10.735881107307968"><ele>246.99999999999997</ele><time>2026-04-26T07:49:33Z</time></trkpt><trkpt lat="45.59553017167158" lon="10.735814276419356"><ele>247.0</ele><time>2026-04-26T07:49:35Z</time></trkpt><trkpt lat="45.595445451650754" lon="10.73575062235222"><ele>246.99999999999997</ele><time>2026-04-26T07:49:37Z</time></trkpt><trkpt lat="45.59539336272633" lon="10.735695441287247"><ele>247.0</ele><time>2026-04-26T07:49:40Z</time></trkpt><trkpt lat="45.59532533512957" lon="10.735664079344124"><ele>247.0</ele><time>2026-04-26T07:49:43Z</time></trkpt><trkpt lat="45.5952700119762" lon="10.735611109037231"><ele>247.0</ele><time>2026-04-26T07:49:45Z</time></trkpt><trkpt lat="45.595244709129446" lon="10.735761083401766"><ele>246.99999999999997</ele><time>2026-04-26T07:49:53Z</time></trkpt><trkpt lat="45.595291638173784" lon="10.735823856573994"><ele>247.0</ele><time>2026-04-26T07:49:54Z</time></trkpt><trkpt lat="45.59535094748506" lon="10.735930516636456"><ele>245.39999999999998</ele><time>2026-04-26T07:49:56Z</time></trkpt><trkpt lat="45.59538235779272" lon="10.736074409987507"><ele>243.79999999999998</ele><time>2026-04-26T07:49:58Z</time></trkpt><trkpt lat="45.59540871047452" lon="10.736197721774255"><ele>242.2</ele><time>2026-04-26T07:50:00Z</time></trkpt><trkpt lat="45.59542853809561" lon="10.736313813506918"><ele>240.6</ele><time>2026-04-26T07:50:02Z</time></trkpt><trkpt lat="45.595363899709234" lon="10.7364094817696"><ele>239.0</ele><time>2026-04-26T07:50:03.999Z</time></trkpt><trkpt lat="45.59529225033947" lon="10.736563715453482"><ele>239.00000000000003</ele><time>2026-04-26T07:50:05.999Z</time></trkpt><trkpt lat="45.59524748780757" lon="10.736649390086011"><ele>239.0</ele><time>2026-04-26T07:50:06.999Z</time></trkpt><trkpt lat="45.595184786580354" lon="10.73672541768946"><ele>239.0</ele><time>2026-04-26T07:50:08.999Z</time></trkpt><trkpt lat="45.59506411070698" lon="10.736709780951836"><ele>239.0</ele><time>2026-04-26T07:50:10.999Z</time></trkpt><trkpt lat="45.59499639797585" lon="10.736648876476558"><ele>239.00000000000003</ele><time>2026-04-26T07:50:11.999Z</time></trkpt><trkpt lat="45.59492718233021" lon="10.736625765574138"><ele>239.0</ele><time>2026-04-26T07:50:12.999Z</time></trkpt><trkpt lat="45.59485608438989" lon="10.736574842126489"><ele>239.0</ele><time>2026-04-26T07:50:13.999Z</time></trkpt><trkpt lat="45.59476768615377" lon="10.73647803883196"><ele>239.0</ele><time>2026-04-26T07:50:14.999Z</time></trkpt><trkpt lat="45.59465819396545" lon="10.736386246384175"><ele>239.0</ele><time>2026-04-26T07:50:15.999Z</time></trkpt><trkpt lat="45.594564184515335" lon="10.736324546729312"><ele>239.0</ele><time>2026-04-26T07:50:16.999Z</time></trkpt><trkpt lat="45.59442888285598" lon="10.736277698428127"><ele>238.6</ele><time>2026-04-26T07:50:18.999Z</time></trkpt><trkpt lat="45.59432599782081" lon="10.736256156013287"><ele>238.2</ele><time>2026-04-26T07:50:19.999Z</time></trkpt><trkpt lat="45.59419650041579" lon="10.736211023741655"><ele>237.79999999999998</ele><time>2026-04-26T07:50:21.999Z</time></trkpt><trkpt lat="45.59413892741918" lon="10.736162988793447"><ele>237.39999999999998</ele><time>2026-04-26T07:50:23.999Z</time></trkpt><trkpt lat="45.594102366827876" lon="10.736074951243681"><ele>237.0</ele><time>2026-04-26T07:50:25.999Z</time></trkpt><trkpt lat="45.594017974797836" lon="10.736038641906099"><ele>238.39999999999998</ele><time>2026-04-26T07:50:28Z</time></trkpt><trkpt lat="45.59404270064288" lon="10.73617583065078"><ele>239.79999999999998</ele><time>2026-04-26T07:50:31Z</time></trkpt><trkpt lat="45.59412722670613" lon="10.736314724086881"><ele>241.2</ele><time>2026-04-26T07:50:32Z</time></trkpt><trkpt lat="45.594229713588895" lon="10.73642626781023"><ele>242.6</ele><time>2026-04-26T07:50:33Z</time></trkpt><trkpt lat="45.59428739812177" lon="10.736514371663704"><ele>244.0</ele><time>2026-04-26T07:50:34Z</time></trkpt><trkpt lat="45.59434641823815" lon="10.736612218186908"><ele>243.99999999999997</ele><time>2026-04-26T07:50:35Z</time></trkpt><trkpt lat="45.59441701689851" lon="10.736711947800503"><ele>244.0</ele><time>2026-04-26T07:50:36Z</time></trkpt><trkpt lat="45.594486076171215" lon="10.736804321811881"><ele>244.0</ele><time>2026-04-26T07:50:37Z</time></trkpt><trkpt lat="45.59455456201431" lon="10.73688229763727"><ele>244.0</ele><time>2026-04-26T07:50:38Z</time></trkpt><trkpt lat="45.59461571268307" lon="10.73695775390825"><ele>243.99999999999997</ele><time>2026-04-26T07:50:39Z</time></trkpt><trkpt lat="45.59467907900014" lon="10.73704234115127"><ele>244.0</ele><time>2026-04-26T07:50:40Z</time></trkpt><trkpt lat="45.59474924089703" lon="10.737131369831722"><ele>244.39999999999998</ele><time>2026-04-26T07:50:41Z</time></trkpt><trkpt lat="45.59483054476553" lon="10.737234166883542"><ele>244.79999999999998</ele><time>2026-04-26T07:50:42Z</time></trkpt><trkpt lat="45.59492700173618" lon="10.737339421631619"><ele>245.20000000000002</ele><time>2026-04-26T07:50:43Z</time></trkpt><trkpt lat="45.59500158087881" lon="10.737437051441972"><ele>245.60000000000002</ele><time>2026-04-26T07:50:44Z</time></trkpt><trkpt lat="45.59504400086889" lon="10.737552985707891"><ele>246.0</ele><time>2026-04-26T07:50:45Z</time></trkpt><trkpt lat="45.595100819919786" lon="10.737656993049127"><ele>245.83333333333334</ele><time>2026-04-26T07:50:46Z</time></trkpt><trkpt lat="45.59513791323268" lon="10.737773786424484"><ele>245.66666666666669</ele><time>2026-04-26T07:50:47Z</time></trkpt><trkpt lat="45.59518167657484" lon="10.737874676710586"><ele>245.5</ele><time>2026-04-26T07:50:48Z</time></trkpt><trkpt lat="45.59521174823581" lon="10.73797391412699"><ele>245.33333333333334</ele><time>2026-04-26T07:50:49Z</time></trkpt><trkpt lat="45.595248162432156" lon="10.73806242990226"><ele>245.16666666666669</ele><time>2026-04-26T07:50:50Z</time></trkpt><trkpt lat="45.59527393880552" lon="10.738146591464897"><ele>245.0</ele><time>2026-04-26T07:50:51Z</time></trkpt><trkpt lat="45.595320068283534" lon="10.738281704333412"><ele>245.16666666666669</ele><time>2026-04-26T07:50:53Z</time></trkpt><trkpt lat="45.59536525960576" lon="10.738401266674337"><ele>245.33333333333334</ele><time>2026-04-26T07:50:55Z</time></trkpt><trkpt lat="45.595407902499545" lon="10.7385289751505"><ele>245.5</ele><time>2026-04-26T07:50:57Z</time></trkpt><trkpt lat="45.59542715431227" lon="10.738615826074113"><ele>245.66666666666669</ele><time>2026-04-26T07:50:59Z</time></trkpt><trkpt lat="45.59544664996686" lon="10.738704757027412"><ele>245.83333333333334</ele><time>2026-04-26T07:51:17Z</time></trkpt><trkpt lat="45.59547790196906" lon="10.738784462378431"><ele>246.0</ele><time>2026-04-26T07:51:21Z</time></trkpt><trkpt lat="45.595515526188066" lon="10.73892566077612"><ele>246.0</ele><time>2026-04-26T07:51:23Z</time></trkpt><trkpt lat="45.59555622652324" lon="10.739041110090866"><ele>246.0</ele><time>2026-04-26T07:51:24Z</time></trkpt><trkpt lat="45.5955880951102" lon="10.739136312934257"><ele>246.0</ele><time>2026-04-26T07:51:25Z</time></trkpt><trkpt lat="45.59563596197397" lon="10.739224757866996"><ele>246.0</ele><time>2026-04-26T07:51:26Z</time></trkpt><trkpt lat="45.59567354093747" lon="10.739336593169382"><ele>246.0</ele><time>2026-04-26T07:51:27Z</time></trkpt><trkpt lat="45.59570876467989" lon="10.739442715282005"><ele>246.0</ele><time>2026-04-26T07:51:28Z</time></trkpt><trkpt lat="45.59574390117007" lon="10.739550704457308"><ele>245.60000000000002</ele><time>2026-04-26T07:51:29Z</time></trkpt><trkpt lat="45.59576797721109" lon="10.739667655076948"><ele>245.20000000000002</ele><time>2026-04-26T07:51:30Z</time></trkpt><trkpt lat="45.59581410555163" lon="10.73974965739594"><ele>244.79999999999998</ele><time>2026-04-26T07:51:31Z</time></trkpt><trkpt lat="45.59586734220692" lon="10.739914272442004"><ele>244.39999999999998</ele><time>2026-04-26T07:51:33Z</time></trkpt><trkpt lat="45.59591517341699" lon="10.740041991423382"><ele>244.0</ele><time>2026-04-26T07:51:34Z</time></trkpt><trkpt lat="45.59595673356031" lon="10.7401674181951"><ele>243.79999999999998</ele><time>2026-04-26T07:51:35Z</time></trkpt><trkpt lat="45.596000308378244" lon="10.740276037606172"><ele>243.59999999999997</ele><time>2026-04-26T07:51:36Z</time></trkpt><trkpt lat="45.59603824900584" lon="10.740381396110122"><ele>243.4</ele><time>2026-04-26T07:51:37Z</time></trkpt><trkpt lat="45.596081593702316" lon="10.74049178384174"><ele>243.2</ele><time>2026-04-26T07:51:38Z</time></trkpt><trkpt lat="45.596116347480965" lon="10.740620797419368"><ele>243.0</ele><time>2026-04-26T07:51:39Z</time></trkpt><trkpt lat="45.59617415872392" lon="10.740741327584999"><ele>243.5</ele><time>2026-04-26T07:51:40Z</time></trkpt><trkpt lat="45.596220101889" lon="10.740862220677325"><ele>244.0</ele><time>2026-04-26T07:51:41Z</time></trkpt><trkpt lat="45.59626131039502" lon="10.740964373368259"><ele>244.5</ele><time>2026-04-26T07:51:42Z</time></trkpt><trkpt lat="45.59629847567527" lon="10.741057212123668"><ele>245.0</ele><time>2026-04-26T07:51:43Z</time></trkpt><trkpt lat="45.59634083558999" lon="10.74116238624958"><ele>245.5</ele><time>2026-04-26T07:51:44Z</time></trkpt><trkpt lat="45.59637823480703" lon="10.741284606646694"><ele>246.0</ele><time>2026-04-26T07:51:45Z</time></trkpt><trkpt lat="45.59641383783933" lon="10.741394453648736"><ele>246.0</ele><time>2026-04-26T07:51:46Z</time></trkpt><trkpt lat="45.59644826703164" lon="10.741476646637935"><ele>246.0</ele><time>2026-04-26T07:51:47Z</time></trkpt><trkpt lat="45.59651463060403" lon="10.741601922717072"><ele>246.0</ele><time>2026-04-26T07:51:49Z</time></trkpt><trkpt lat="45.59659170660991" lon="10.741660770631018"><ele>246.0</ele><time>2026-04-26T07:51:51Z</time></trkpt><trkpt lat="45.59666240704062" lon="10.741661449693233"><ele>246.0</ele><time>2026-04-26T07:51:52Z</time></trkpt><trkpt lat="45.59672662158273" lon="10.74164897839552"><ele>246.0</ele><time>2026-04-26T07:51:53Z</time></trkpt><trkpt lat="45.596768983100986" lon="10.741716925293774"><ele>246.0</ele><time>2026-04-26T07:51:54Z</time></trkpt><trkpt lat="45.596788334520184" lon="10.741847702389338"><ele>246.0</ele><time>2026-04-26T07:51:56Z</time></trkpt><trkpt lat="45.59682792101095" lon="10.74195543390006"><ele>246.0</ele><time>2026-04-26T07:51:57Z</time></trkpt><trkpt lat="45.59684801768836" lon="10.742056985875532"><ele>246.0</ele><time>2026-04-26T07:51:58Z</time></trkpt><trkpt lat="45.5968795984731" lon="10.742158969168473"><ele>246.0</ele><time>2026-04-26T07:51:59Z</time></trkpt><trkpt lat="45.59693090229996" lon="10.74225979500928"><ele>246.0</ele><time>2026-04-26T07:52:00Z</time></trkpt><trkpt lat="45.59698784017965" lon="10.742366161778016"><ele>247.25</ele><time>2026-04-26T07:52:01Z</time></trkpt><trkpt lat="45.597052206734254" lon="10.742472953501295"><ele>248.5</ele><time>2026-04-26T07:52:02Z</time></trkpt><trkpt lat="45.597138555324605" lon="10.742583363937124"><ele>249.75</ele><time>2026-04-26T07:52:03Z</time></trkpt><trkpt lat="45.59724217932966" lon="10.74270781617081"><ele>251.0</ele><time>2026-04-26T07:52:04Z</time></trkpt><trkpt lat="45.597324464889" lon="10.742816584493253"><ele>251.20000000000002</ele><time>2026-04-26T07:52:05Z</time></trkpt><trkpt lat="45.59738959738467" lon="10.742900674553471"><ele>251.40000000000003</ele><time>2026-04-26T07:52:06Z</time></trkpt><trkpt lat="45.59749032906716" lon="10.743032803129873"><ele>251.6</ele><time>2026-04-26T07:52:08Z</time></trkpt><trkpt lat="45.59754793650792" lon="10.743092884104781"><ele>251.8</ele><time>2026-04-26T07:52:09Z</time></trkpt><trkpt lat="45.597622260318936" lon="10.743149274303109"><ele>252.0</ele><time>2026-04-26T07:52:10Z</time></trkpt><trkpt lat="45.59769997531925" lon="10.743179127404986"><ele>252.0</ele><time>2026-04-26T07:52:11Z</time></trkpt><trkpt lat="45.597792034539324" lon="10.743242776362045"><ele>252.0</ele><time>2026-04-26T07:52:13Z</time></trkpt><trkpt lat="45.5978725605589" lon="10.743318756540155"><ele>252.0</ele><time>2026-04-26T07:52:15Z</time></trkpt><trkpt lat="45.597887657703524" lon="10.743406658200888"><ele>252.0</ele><time>2026-04-26T07:52:17Z</time></trkpt><trkpt lat="45.59786002043906" lon="10.743522316319456"><ele>252.0</ele><time>2026-04-26T07:52:18Z</time></trkpt><trkpt lat="45.597869530372414" lon="10.743677266496631"><ele>254.75</ele><time>2026-04-26T07:52:20Z</time></trkpt><trkpt lat="45.59787405605538" lon="10.74382201910051"><ele>257.5</ele><time>2026-04-26T07:52:22Z</time></trkpt><trkpt lat="45.59789098597074" lon="10.743989512413558"><ele>260.25</ele><time>2026-04-26T07:52:24Z</time></trkpt><trkpt lat="45.597940668608906" lon="10.744118449705836"><ele>263.0</ele><time>2026-04-26T07:52:26Z</time></trkpt><trkpt lat="45.59801924526726" lon="10.74427330983658"><ele>261.0</ele><time>2026-04-26T07:52:28Z</time></trkpt><trkpt lat="45.59808978451752" lon="10.744419099630125"><ele>259.0</ele><time>2026-04-26T07:52:29Z</time></trkpt><trkpt lat="45.59819004710085" lon="10.74458179942008"><ele>257.0</ele><time>2026-04-26T07:52:30Z</time></trkpt><trkpt lat="45.598302843587675" lon="10.744728995735468"><ele>255.0</ele><time>2026-04-26T07:52:31Z</time></trkpt><trkpt lat="45.598401123390914" lon="10.744838315114642"><ele>255.0</ele><time>2026-04-26T07:52:32Z</time></trkpt><trkpt lat="45.598494427124386" lon="10.744946915591719"><ele>255.0</ele><time>2026-04-26T07:52:33Z</time></trkpt><trkpt lat="45.59857735092557" lon="10.745055958374868"><ele>255.0</ele><time>2026-04-26T07:52:34Z</time></trkpt><trkpt lat="45.598648547749704" lon="10.745182440885953"><ele>255.0</ele><time>2026-04-26T07:52:35Z</time></trkpt><trkpt lat="45.59874241522697" lon="10.745286595178698"><ele>255.5</ele><time>2026-04-26T07:52:36Z</time></trkpt><trkpt lat="45.598814995130645" lon="10.74542919427521"><ele>256.0</ele><time>2026-04-26T07:52:37Z</time></trkpt><trkpt lat="45.59887418795059" lon="10.745516441265757"><ele>256.5</ele><time>2026-04-26T07:52:38Z</time></trkpt><trkpt lat="45.59891448202317" lon="10.745620970810592"><ele>257.0</ele><time>2026-04-26T07:52:39Z</time></trkpt><trkpt lat="45.59894913676686" lon="10.745715213667099"><ele>257.5</ele><time>2026-04-26T07:52:40Z</time></trkpt><trkpt lat="45.5989794255635" lon="10.74580588335483"><ele>258.0</ele><time>2026-04-26T07:52:41Z</time></trkpt><trkpt lat="45.59900037995642" lon="10.745890840007013"><ele>258.0</ele><time>2026-04-26T07:52:42Z</time></trkpt><trkpt lat="45.599029283337615" lon="10.746046754382629"><ele>258.0</ele><time>2026-04-26T07:52:44Z</time></trkpt><trkpt lat="45.59903722387396" lon="10.746143078083776"><ele>258.0</ele><time>2026-04-26T07:52:46Z</time></trkpt><trkpt lat="45.59900951824678" lon="10.746022449971136"><ele>258.0</ele><time>2026-04-26T07:52:53Z</time></trkpt><trkpt lat="45.59898177280622" lon="10.745877937749954"><ele>258.0</ele><time>2026-04-26T07:52:55Z</time></trkpt><trkpt lat="45.5991437354633" lon="10.745231357969622"><ele>259.6</ele><time>2026-04-26T07:52:57Z</time></trkpt><trkpt lat="45.59906376817426" lon="10.745092458495655"><ele>261.20000000000005</ele><time>2026-04-26T07:52:58Z</time></trkpt><trkpt lat="45.598981989912595" lon="10.744964715310592"><ele>262.8</ele><time>2026-04-26T07:52:59Z</time></trkpt><trkpt lat="45.59892127306815" lon="10.744858311205778"><ele>264.40000000000003</ele><time>2026-04-26T07:53:00Z</time></trkpt><trkpt lat="45.59886406792754" lon="10.744744154915908"><ele>266.0</ele><time>2026-04-26T07:53:01Z</time></trkpt><trkpt lat="45.598793896845514" lon="10.744602005406964"><ele>266.0</ele><time>2026-04-26T07:53:02Z</time></trkpt><trkpt lat="45.5987390268349" lon="10.744488123457787"><ele>266.0</ele><time>2026-04-26T07:53:03Z</time></trkpt><trkpt lat="45.59867263937703" lon="10.744352236844879"><ele>266.0</ele><time>2026-04-26T07:53:04Z</time></trkpt><trkpt lat="45.598606602492715" lon="10.744231785321995"><ele>266.0</ele><time>2026-04-26T07:53:05Z</time></trkpt><trkpt lat="45.59854483348906" lon="10.744119118230008"><ele>266.0</ele><time>2026-04-26T07:53:06Z</time></trkpt><trkpt lat="45.59848388688256" lon="10.744007951191177"><ele>263.0</ele><time>2026-04-26T07:53:07Z</time></trkpt><trkpt lat="45.59806669545024" lon="10.744319287709763"><ele>263.0</ele><time>2026-04-26T07:53:08Z</time></trkpt><trkpt lat="45.59802506961175" lon="10.74422412786943"><ele>263.0</ele><time>2026-04-26T07:53:09Z</time></trkpt><trkpt lat="45.59798174577904" lon="10.74410206599936"><ele>263.0</ele><time>2026-04-26T07:53:11Z</time></trkpt><trkpt lat="45.597954091312715" lon="10.743981247234036"><ele>263.0</ele><time>2026-04-26T07:53:13Z</time></trkpt><trkpt lat="45.59796435740715" lon="10.743820289392591"><ele>263.0</ele><time>2026-04-26T07:53:15Z</time></trkpt><trkpt lat="45.59801527869173" lon="10.743687994951724"><ele>263.0</ele><time>2026-04-26T07:53:17Z</time></trkpt><trkpt lat="45.59807567666887" lon="10.743620015881941"><ele>263.0</ele><time>2026-04-26T07:53:18Z</time></trkpt><trkpt lat="45.59814865638434" lon="10.74350636282053"><ele>263.0</ele><time>2026-04-26T07:53:19Z</time></trkpt><trkpt lat="45.598222672463464" lon="10.74338639305381"><ele>263.0</ele><time>2026-04-26T07:53:20Z</time></trkpt><trkpt lat="45.59827101656286" lon="10.74332331425095"><ele>263.0</ele><time>2026-04-26T07:53:22Z</time></trkpt><trkpt lat="45.59817602535038" lon="10.743454429260636"><ele>263.0</ele><time>2026-04-26T07:53:33Z</time></trkpt><trkpt lat="45.59810169755606" lon="10.743570109147683"><ele>263.0</ele><time>2026-04-26T07:53:34Z</time></trkpt><trkpt lat="45.5980296184475" lon="10.743671154297132"><ele>263.0</ele><time>2026-04-26T07:53:35Z</time></trkpt><trkpt lat="45.59798795520219" lon="10.743748296509997"><ele>263.0</ele><time>2026-04-26T07:53:36Z</time></trkpt><trkpt lat="45.59794774886095" lon="10.743879278183039"><ele>263.0</ele><time>2026-04-26T07:53:38Z</time></trkpt><trkpt lat="45.597952497865364" lon="10.743979384415297"><ele>263.0</ele><time>2026-04-26T07:53:49Z</time></trkpt><trkpt lat="45.59795777819186" lon="10.744103242192987"><ele>263.0</ele><time>2026-04-26T07:53:51Z</time></trkpt><trkpt lat="45.597994610431165" lon="10.744228560604286"><ele>263.0</ele><time>2026-04-26T07:53:52Z</time></trkpt><trkpt lat="45.598040966652285" lon="10.744338009068333"><ele>263.0</ele><time>2026-04-26T07:53:53Z</time></trkpt><trkpt lat="45.59807235390489" lon="10.744433470502889"><ele>263.0</ele><time>2026-04-26T07:53:55Z</time></trkpt><trkpt lat="45.59799332456292" lon="10.744246023841468"><ele>263.0</ele><time>2026-04-26T07:54:02Z</time></trkpt><trkpt lat="45.59796305126557" lon="10.744151651910235"><ele>263.0</ele><time>2026-04-26T07:54:03Z</time></trkpt><trkpt lat="45.597937712029186" lon="10.744054148816453"><ele>263.0</ele><time>2026-04-26T07:54:05Z</time></trkpt><trkpt lat="45.59791740627691" lon="10.743953626373992"><ele>263.0</ele><time>2026-04-26T07:54:08Z</time></trkpt><trkpt lat="45.59790589139952" lon="10.743857626287994"><ele>263.0</ele><time>2026-04-26T07:54:12Z</time></trkpt><trkpt lat="45.597897861121794" lon="10.743761172221596"><ele>263.0</ele><time>2026-04-26T07:54:17Z</time></trkpt><trkpt lat="45.59796234179198" lon="10.743367411244462"><ele>262.8</ele><time>2026-04-26T07:54:42Z</time></trkpt><trkpt lat="45.597867734295804" lon="10.7432355179555"><ele>262.6</ele><time>2026-04-26T07:54:43Z</time></trkpt><trkpt lat="45.597791342151936" lon="10.743191875022369"><ele>262.4</ele><time>2026-04-26T07:54:46Z</time></trkpt><trkpt lat="45.597724643029636" lon="10.74315685272244"><ele>262.2</ele><time>2026-04-26T07:54:48Z</time></trkpt><trkpt lat="45.597637179802526" lon="10.743109216994247"><ele>262.0</ele><time>2026-04-26T07:54:52Z</time></trkpt><trkpt lat="45.597415101229224" lon="10.743622949517304"><ele>259.8333333333333</ele><time>2026-04-26T07:55:03Z</time></trkpt><trkpt lat="45.597407242390574" lon="10.743713763430918"><ele>257.66666666666663</ele><time>2026-04-26T07:55:04Z</time></trkpt><trkpt lat="45.59739288355156" lon="10.7438190009911"><ele>255.5</ele><time>2026-04-26T07:55:06Z</time></trkpt><trkpt lat="45.597381605771275" lon="10.74392675155436"><ele>253.33333333333331</ele><time>2026-04-26T07:55:08Z</time></trkpt><trkpt lat="45.59737501461701" lon="10.744020742676167"><ele>251.16666666666666</ele><time>2026-04-26T07:55:10Z</time></trkpt><trkpt lat="45.59735363038721" lon="10.744145826368154"><ele>249.0</ele><time>2026-04-26T07:55:12Z</time></trkpt><trkpt lat="45.597381582931526" lon="10.744279055718303"><ele>248.5</ele><time>2026-04-26T07:55:14Z</time></trkpt><trkpt lat="45.59738837182173" lon="10.744423668724517"><ele>248.0</ele><time>2026-04-26T07:55:16Z</time></trkpt><trkpt lat="45.59739841227133" lon="10.744533460761517"><ele>247.5</ele><time>2026-04-26T07:55:17Z</time></trkpt><trkpt lat="45.59741584080626" lon="10.74464070169636"><ele>247.0</ele><time>2026-04-26T07:55:18Z</time></trkpt><trkpt lat="45.59742384543164" lon="10.744747644700615"><ele>246.5</ele><time>2026-04-26T07:55:19Z</time></trkpt><trkpt lat="45.597427686190464" lon="10.744850849968707"><ele>246.0</ele><time>2026-04-26T07:55:20Z</time></trkpt><trkpt lat="45.59742186239066" lon="10.744969272861677"><ele>246.0</ele><time>2026-04-26T07:55:21Z</time></trkpt><trkpt lat="45.59741272005977" lon="10.74507748784827"><ele>246.0</ele><time>2026-04-26T07:55:22Z</time></trkpt><trkpt lat="45.59739862294937" lon="10.7451791446982"><ele>246.0</ele><time>2026-04-26T07:55:23Z</time></trkpt><trkpt lat="45.597361077696426" lon="10.745330358708372"><ele>246.0</ele><time>2026-04-26T07:55:24Z</time></trkpt><trkpt lat="45.5973302691012" lon="10.745449495437363"><ele>246.0</ele><time>2026-04-26T07:55:25Z</time></trkpt><trkpt lat="45.59730106889206" lon="10.74557969575385"><ele>246.0</ele><time>2026-04-26T07:55:26Z</time></trkpt><trkpt lat="45.597278966882875" lon="10.7456956828037"><ele>245.4</ele><time>2026-04-26T07:55:27Z</time></trkpt><trkpt lat="45.597257956748386" lon="10.745840369759147"><ele>244.8</ele><time>2026-04-26T07:55:28Z</time></trkpt><trkpt lat="45.59724556853434" lon="10.74598401333072"><ele>244.20000000000002</ele><time>2026-04-26T07:55:29Z</time></trkpt><trkpt lat="45.59723902326441" lon="10.746117842009939"><ele>243.60000000000002</ele><time>2026-04-26T07:55:30Z</time></trkpt><trkpt lat="45.597241300060126" lon="10.746234294291412"><ele>243.0</ele><time>2026-04-26T07:55:31Z</time></trkpt><trkpt lat="45.59724814077289" lon="10.746340126311607"><ele>243.0</ele><time>2026-04-26T07:55:32Z</time></trkpt><trkpt lat="45.59726505881443" lon="10.746453983487317"><ele>243.0</ele><time>2026-04-26T07:55:34Z</time></trkpt><trkpt lat="45.5973161135016" lon="10.746615631697832"><ele>243.0</ele><time>2026-04-26T07:55:37Z</time></trkpt><trkpt lat="45.59715892839489" lon="10.746865191699072"><ele>243.0</ele><time>2026-04-26T07:55:38Z</time></trkpt><trkpt lat="45.597151636989445" lon="10.747066872760845"><ele>243.0</ele><time>2026-04-26T07:55:39Z</time></trkpt><trkpt lat="45.597121624026634" lon="10.747266031285717"><ele>243.0</ele><time>2026-04-26T07:55:40Z</time></trkpt><trkpt lat="45.59711240427458" lon="10.747461014472139"><ele>243.0</ele><time>2026-04-26T07:55:41Z</time></trkpt><trkpt lat="45.59708826559653" lon="10.747638353019367"><ele>243.0</ele><time>2026-04-26T07:55:42Z</time></trkpt><trkpt lat="45.59708264797232" lon="10.74781804583895"><ele>243.0</ele><time>2026-04-26T07:55:43Z</time></trkpt><trkpt lat="45.59706311629558" lon="10.748023418265321"><ele>243.0</ele><time>2026-04-26T07:55:44Z</time></trkpt><trkpt lat="45.59705808517428" lon="10.748224197135997"><ele>243.0</ele><time>2026-04-26T07:55:45Z</time></trkpt><trkpt lat="45.59704889253034" lon="10.748403319261739"><ele>243.0</ele><time>2026-04-26T07:55:46Z</time></trkpt><trkpt lat="45.59700535214085" lon="10.74855817527184"><ele>241.0</ele><time>2026-04-26T07:55:47Z</time></trkpt><trkpt lat="45.59695586550297" lon="10.748711331849872"><ele>239.0</ele><time>2026-04-26T07:55:48Z</time></trkpt><trkpt lat="45.59688140453605" lon="10.748891537482404"><ele>237.0</ele><time>2026-04-26T07:55:49Z</time></trkpt><trkpt lat="45.59682465980151" lon="10.749091460729408"><ele>235.0</ele><time>2026-04-26T07:55:50Z</time></trkpt><trkpt lat="45.59677687370792" lon="10.749281394004834"><ele>235.75</ele><time>2026-04-26T07:55:51Z</time></trkpt><trkpt lat="45.59674319557177" lon="10.749488494185305"><ele>236.5</ele><time>2026-04-26T07:55:52Z</time></trkpt><trkpt lat="45.596700730275344" lon="10.749689319408056"><ele>237.25</ele><time>2026-04-26T07:55:53Z</time></trkpt><trkpt lat="45.596628616048946" lon="10.749859929148926"><ele>238.0</ele><time>2026-04-26T07:55:54Z</time></trkpt><trkpt lat="45.596581908144074" lon="10.750024380222063"><ele>238.0</ele><time>2026-04-26T07:55:55Z</time></trkpt><trkpt lat="45.59651551989735" lon="10.75014247240292"><ele>238.0</ele><time>2026-04-26T07:55:56Z</time></trkpt><trkpt lat="45.59645878491792" lon="10.750292685446338"><ele>238.0</ele><time>2026-04-26T07:55:57Z</time></trkpt><trkpt lat="45.596406792739195" lon="10.750450609458305"><ele>238.0</ele><time>2026-04-26T07:55:58Z</time></trkpt><trkpt lat="45.59637677818455" lon="10.750592408500367"><ele>238.2</ele><time>2026-04-26T07:55:59Z</time></trkpt><trkpt lat="45.5963468543914" lon="10.750736347941748"><ele>238.4</ele><time>2026-04-26T07:56:01Z</time></trkpt><trkpt lat="45.596327786046245" lon="10.7508344625877"><ele>238.59999999999997</ele><time>2026-04-26T07:56:02Z</time></trkpt><trkpt lat="45.596300492249966" lon="10.750987919836671"><ele>238.79999999999998</ele><time>2026-04-26T07:56:03Z</time></trkpt><trkpt lat="45.596267797646576" lon="10.751175478389477"><ele>239.0</ele><time>2026-04-26T07:56:04Z</time></trkpt><trkpt lat="45.596242891987416" lon="10.751318354232879"><ele>238.6</ele><time>2026-04-26T07:56:05Z</time></trkpt><trkpt lat="45.596245504063354" lon="10.751425565201039"><ele>238.2</ele><time>2026-04-26T07:56:06Z</time></trkpt><trkpt lat="45.59622596670149" lon="10.75154053358442"><ele>237.79999999999998</ele><time>2026-04-26T07:56:08Z</time></trkpt><trkpt lat="45.59614806815293" lon="10.751634467326562"><ele>237.39999999999998</ele><time>2026-04-26T07:56:09Z</time></trkpt><trkpt lat="45.596098638758285" lon="10.751791734696216"><ele>237.0</ele><time>2026-04-26T07:56:10Z</time></trkpt><trkpt lat="45.59605749276903" lon="10.751910113967813"><ele>235.75</ele><time>2026-04-26T07:56:11Z</time></trkpt><trkpt lat="45.59602218843535" lon="10.752022311520276"><ele>234.5</ele><time>2026-04-26T07:56:12Z</time></trkpt><trkpt lat="45.595953538888224" lon="10.752143673265694"><ele>233.25</ele><time>2026-04-26T07:56:13Z</time></trkpt><trkpt lat="45.595862550400255" lon="10.752288603412824"><ele>232.0</ele><time>2026-04-26T07:56:14Z</time></trkpt><trkpt lat="45.595760176158755" lon="10.752407264304635"><ele>232.0</ele><time>2026-04-26T07:56:15Z</time></trkpt><trkpt lat="45.59569459271675" lon="10.752493916525"><ele>232.0</ele><time>2026-04-26T07:56:16Z</time></trkpt><trkpt lat="45.59564275971467" lon="10.752553931243312"><ele>232.0</ele><time>2026-04-26T07:56:17Z</time></trkpt><trkpt lat="45.59559705911608" lon="10.752632014012176"><ele>232.0</ele><time>2026-04-26T07:56:20Z</time></trkpt><trkpt lat="45.59568166748486" lon="10.75281118353469"><ele>232.0</ele><time>2026-04-26T07:56:24Z</time></trkpt><trkpt lat="45.59579313285616" lon="10.752867810701915"><ele>232.39999999999998</ele><time>2026-04-26T07:56:25Z</time></trkpt><trkpt lat="45.59585072897002" lon="10.752927687657692"><ele>232.79999999999998</ele><time>2026-04-26T07:56:26Z</time></trkpt><trkpt lat="45.5957416261558" lon="10.753099005304072"><ele>233.2</ele><time>2026-04-26T07:56:30Z</time></trkpt><trkpt lat="45.59567395260089" lon="10.753114931842779"><ele>233.6</ele><time>2026-04-26T07:56:31Z</time></trkpt><trkpt lat="45.59557401528103" lon="10.753153993198024"><ele>234.0</ele><time>2026-04-26T07:56:32Z</time></trkpt><trkpt lat="45.595491423096746" lon="10.75318269782895"><ele>234.0</ele><time>2026-04-26T07:56:33Z</time></trkpt><trkpt lat="45.59541731145958" lon="10.753213510818163"><ele>234.0</ele><time>2026-04-26T07:56:34Z</time></trkpt><trkpt lat="45.5953521498802" lon="10.75323206815267"><ele>234.0</ele><time>2026-04-26T07:56:36Z</time></trkpt><trkpt lat="45.59528199394827" lon="10.753287609867153"><ele>234.0</ele><time>2026-04-26T07:56:49Z</time></trkpt><trkpt lat="45.59521307499224" lon="10.753296558504612"><ele>234.0</ele><time>2026-04-26T07:56:50Z</time></trkpt><trkpt lat="45.59513120241069" lon="10.753388635898542"><ele>234.0</ele><time>2026-04-26T07:56:51Z</time></trkpt><trkpt lat="45.59503637591935" lon="10.753467752200107"><ele>232.25</ele><time>2026-04-26T07:56:52Z</time></trkpt><trkpt lat="45.59492070167638" lon="10.75356238374753"><ele>230.5</ele><time>2026-04-26T07:56:53Z</time></trkpt><trkpt lat="45.59480998442668" lon="10.753622138019121"><ele>228.75</ele><time>2026-04-26T07:56:54Z</time></trkpt><trkpt lat="45.594661378793226" lon="10.753738366049594"><ele>227.0</ele><time>2026-04-26T07:56:55Z</time></trkpt><trkpt lat="45.59452563325701" lon="10.753860804203281"><ele>226.33333333333334</ele><time>2026-04-26T07:56:56Z</time></trkpt><trkpt lat="45.59438617111122" lon="10.753970863112555"><ele>225.66666666666669</ele><time>2026-04-26T07:56:57Z</time></trkpt><trkpt lat="45.59424641377314" lon="10.754082658086588"><ele>225.0</ele><time>2026-04-26T07:56:58Z</time></trkpt><trkpt lat="45.594107483162645" lon="10.754193330126014"><ele>225.0</ele><time>2026-04-26T07:56:59Z</time></trkpt><trkpt lat="45.59396092745024" lon="10.754290306223439"><ele>225.0</ele><time>2026-04-26T07:57:00Z</time></trkpt><trkpt lat="45.59380544825149" lon="10.754411757093003"><ele>225.0</ele><time>2026-04-26T07:57:01Z</time></trkpt><trkpt lat="45.59363891485197" lon="10.754563717823409"><ele>223.66666666666669</ele><time>2026-04-26T07:57:02Z</time></trkpt><trkpt lat="45.59346973892289" lon="10.7546957537671"><ele>222.33333333333334</ele><time>2026-04-26T07:57:03Z</time></trkpt><trkpt lat="45.59329636656026" lon="10.754802502205346"><ele>221.0</ele><time>2026-04-26T07:57:04Z</time></trkpt><trkpt lat="45.59314939135893" lon="10.754914325032674"><ele>221.0</ele><time>2026-04-26T07:57:05Z</time></trkpt><trkpt lat="45.593013138577575" lon="10.755021179058005"><ele>221.0</ele><time>2026-04-26T07:57:06Z</time></trkpt><trkpt lat="45.59289552969341" lon="10.755115822111007"><ele>221.0</ele><time>2026-04-26T07:57:07Z</time></trkpt><trkpt lat="45.59278974438743" lon="10.755200458931553"><ele>221.0</ele><time>2026-04-26T07:57:08Z</time></trkpt><trkpt lat="45.592683648903346" lon="10.755297558508396"><ele>219.75</ele><time>2026-04-26T07:57:09Z</time></trkpt><trkpt lat="45.59258117822085" lon="10.755376176360093"><ele>218.5</ele><time>2026-04-26T07:57:10Z</time></trkpt><trkpt lat="45.592476260144366" lon="10.755456381251843"><ele>217.25</ele><time>2026-04-26T07:57:11Z</time></trkpt><trkpt lat="45.59236604133312" lon="10.755544252793223"><ele>216.0</ele><time>2026-04-26T07:57:12Z</time></trkpt><trkpt lat="45.59225811239981" lon="10.755641890092235"><ele>216.0</ele><time>2026-04-26T07:57:13Z</time></trkpt><trkpt lat="45.592109809831186" lon="10.755759439610753"><ele>216.0</ele><time>2026-04-26T07:57:14Z</time></trkpt><trkpt lat="45.59193511480032" lon="10.755889167662492"><ele>216.0</ele><time>2026-04-26T07:57:15Z</time></trkpt><trkpt lat="45.59177192379832" lon="10.756019029015341"><ele>216.0</ele><time>2026-04-26T07:57:16Z</time></trkpt><trkpt lat="45.59161304460428" lon="10.756122189891885"><ele>216.0</ele><time>2026-04-26T07:57:17Z</time></trkpt><trkpt lat="45.591476848303486" lon="10.75622670663183"><ele>216.0</ele><time>2026-04-26T07:57:18Z</time></trkpt><trkpt lat="45.59135477486626" lon="10.756344418228391"><ele>216.0</ele><time>2026-04-26T07:57:19Z</time></trkpt><trkpt lat="45.591229131056075" lon="10.756438800633257"><ele>216.00000000000003</ele><time>2026-04-26T07:57:20Z</time></trkpt><trkpt lat="45.59111858778807" lon="10.756521726471735"><ele>216.00000000000003</ele><time>2026-04-26T07:57:21Z</time></trkpt><trkpt lat="45.59102941980669" lon="10.756590044873816"><ele>216.0</ele><time>2026-04-26T07:57:22Z</time></trkpt><trkpt lat="45.59097065104797" lon="10.756632768390874"><ele>216.0</ele><time>2026-04-26T07:57:23Z</time></trkpt><trkpt lat="45.59087845672635" lon="10.756697982948548"><ele>215.8</ele><time>2026-04-26T07:57:24Z</time></trkpt><trkpt lat="45.590753632820004" lon="10.756740425357364"><ele>215.60000000000002</ele><time>2026-04-26T07:57:25Z</time></trkpt><trkpt lat="45.59064759785792" lon="10.75681677218616"><ele>215.4</ele><time>2026-04-26T07:57:26Z</time></trkpt><trkpt lat="45.59055725455709" lon="10.756877861901534"><ele>215.2</ele><time>2026-04-26T07:57:27Z</time></trkpt><trkpt lat="45.59049945624213" lon="10.756917116267285"><ele>215.0</ele><time>2026-04-26T07:57:28Z</time></trkpt><trkpt lat="45.59044729210343" lon="10.756983642605826"><ele>215.0</ele><time>2026-04-26T07:57:30Z</time></trkpt><trkpt lat="45.59055096943845" lon="10.757116055967627"><ele>215.0</ele><time>2026-04-26T07:57:31Z</time></trkpt><trkpt lat="45.5906277536937" lon="10.757277973600523"><ele>215.0</ele><time>2026-04-26T07:57:32Z</time></trkpt><trkpt lat="45.59075017193178" lon="10.75746201337438"><ele>215.0</ele><time>2026-04-26T07:57:33Z</time></trkpt><trkpt lat="45.590849852333" lon="10.757689839677612"><ele>215.0</ele><time>2026-04-26T07:57:34Z</time></trkpt><trkpt lat="45.59094123613207" lon="10.757944151202956"><ele>215.0</ele><time>2026-04-26T07:57:35Z</time></trkpt><trkpt lat="45.59102489793961" lon="10.758189417298686"><ele>214.33333333333334</ele><time>2026-04-26T07:57:36Z</time></trkpt><trkpt lat="45.5911120397295" lon="10.758425353477913"><ele>213.66666666666669</ele><time>2026-04-26T07:57:37Z</time></trkpt><trkpt lat="45.59119903959957" lon="10.75864411110542"><ele>213.0</ele><time>2026-04-26T07:57:38Z</time></trkpt><trkpt lat="45.59128723457745" lon="10.758877097040825"><ele>213.0</ele><time>2026-04-26T07:57:39Z</time></trkpt><trkpt lat="45.591376909747325" lon="10.759114586209272"><ele>213.0</ele><time>2026-04-26T07:57:40Z</time></trkpt><trkpt lat="45.59146234635061" lon="10.75934067889949"><ele>213.0</ele><time>2026-04-26T07:57:41Z</time></trkpt><trkpt lat="45.591552440298194" lon="10.759566513352098"><ele>213.33333333333331</ele><time>2026-04-26T07:57:42Z</time></trkpt><trkpt lat="45.591647521793504" lon="10.759813301895143"><ele>213.66666666666666</ele><time>2026-04-26T07:57:43Z</time></trkpt><trkpt lat="45.59175633824803" lon="10.760095912426397"><ele>214.0</ele><time>2026-04-26T07:57:44Z</time></trkpt><trkpt lat="45.59186898163958" lon="10.760394075561194"><ele>214.0</ele><time>2026-04-26T07:57:45Z</time></trkpt><trkpt lat="45.59198725135616" lon="10.760702460957122"><ele>214.0</ele><time>2026-04-26T07:57:46Z</time></trkpt><trkpt lat="45.59210210333827" lon="10.761000531698805"><ele>214.0</ele><time>2026-04-26T07:57:47Z</time></trkpt><trkpt lat="45.592203934431076" lon="10.761274271895935"><ele>214.0</ele><time>2026-04-26T07:57:48Z</time></trkpt><trkpt lat="45.5922980586968" lon="10.761529323004746"><ele>214.0</ele><time>2026-04-26T07:57:49Z</time></trkpt><trkpt lat="45.59239309016347" lon="10.761773322919785"><ele>214.33333333333331</ele><time>2026-04-26T07:57:50Z</time></trkpt><trkpt lat="45.592482687656876" lon="10.762002035703125"><ele>214.66666666666669</ele><time>2026-04-26T07:57:51Z</time></trkpt><trkpt lat="45.592574506738444" lon="10.762238295537907"><ele>215.0</ele><time>2026-04-26T07:57:52Z</time></trkpt><trkpt lat="45.592662510475556" lon="10.7624797240928"><ele>215.0</ele><time>2026-04-26T07:57:53Z</time></trkpt><trkpt lat="45.59274174377567" lon="10.762695371227663"><ele>215.0</ele><time>2026-04-26T07:57:54Z</time></trkpt><trkpt lat="45.592818461633286" lon="10.762900664056787"><ele>215.0</ele><time>2026-04-26T07:57:55Z</time></trkpt><trkpt lat="45.59289237298135" lon="10.763091553450622"><ele>215.25</ele><time>2026-04-26T07:57:56Z</time></trkpt><trkpt lat="45.592963625333496" lon="10.763270479522655"><ele>215.5</ele><time>2026-04-26T07:57:57Z</time></trkpt><trkpt lat="45.59302616789595" lon="10.763430199517321"><ele>215.75</ele><time>2026-04-26T07:57:58Z</time></trkpt><trkpt lat="45.59308192101703" lon="10.763571928320017"><ele>216.0</ele><time>2026-04-26T07:57:59Z</time></trkpt><trkpt lat="45.59312916854058" lon="10.763692421500187"><ele>216.0</ele><time>2026-04-26T07:58:00Z</time></trkpt><trkpt lat="45.59316118748385" lon="10.763784130087833"><ele>216.0</ele><time>2026-04-26T07:58:01Z</time></trkpt><trkpt lat="45.59314709018657" lon="10.763873421076939"><ele>216.0</ele><time>2026-04-26T07:58:03Z</time></trkpt><trkpt lat="45.59304653164937" lon="10.763932784987466"><ele>216.0</ele><time>2026-04-26T07:58:05Z</time></trkpt><trkpt lat="45.592970503576616" lon="10.764031869844503"><ele>216.0</ele><time>2026-04-26T07:58:07Z</time></trkpt><trkpt lat="45.59289248971215" lon="10.764117427762356"><ele>216.0</ele><time>2026-04-26T07:58:08Z</time></trkpt><trkpt lat="45.59279708188759" lon="10.764200081613083"><ele>216.0</ele><time>2026-04-26T07:58:09Z</time></trkpt><trkpt lat="45.59274095031396" lon="10.76428309826757"><ele>216.00000000000003</ele><time>2026-04-26T07:58:10Z</time></trkpt><trkpt lat="45.59268193709675" lon="10.764443034529535"><ele>216.00000000000003</ele><time>2026-04-26T07:58:12Z</time></trkpt><trkpt lat="45.592619970408045" lon="10.764568808698183"><ele>216.0</ele><time>2026-04-26T07:58:14Z</time></trkpt><trkpt lat="45.5925707562541" lon="10.764629123815064"><ele>216.0</ele><time>2026-04-26T07:58:15Z</time></trkpt><trkpt lat="45.59259440891616" lon="10.76477870732545"><ele>216.0</ele><time>2026-04-26T07:58:17Z</time></trkpt><trkpt lat="45.592616304205194" lon="10.764875470240678"><ele>216.00000000000003</ele><time>2026-04-26T07:58:18Z</time></trkpt><trkpt lat="45.59255264179775" lon="10.765011725161399"><ele>216.00000000000003</ele><time>2026-04-26T07:58:20Z</time></trkpt><trkpt lat="45.592519589614184" lon="10.76510539036512"><ele>216.0</ele><time>2026-04-26T07:58:21Z</time></trkpt><trkpt lat="45.5924393723642" lon="10.76524677768429"><ele>216.0</ele><time>2026-04-26T07:58:22Z</time></trkpt><trkpt lat="45.59233665622967" lon="10.765401228529983"><ele>216.0</ele><time>2026-04-26T07:58:23Z</time></trkpt><trkpt lat="45.592251722223416" lon="10.765530035552016"><ele>216.00000000000003</ele><time>2026-04-26T07:58:24Z</time></trkpt><trkpt lat="45.592178011057996" lon="10.76563475844452"><ele>216.00000000000003</ele><time>2026-04-26T07:58:25Z</time></trkpt><trkpt lat="45.5921127133342" lon="10.76573299067278"><ele>216.0</ele><time>2026-04-26T07:58:26Z</time></trkpt><trkpt lat="45.59205896632603" lon="10.765839968167763"><ele>216.0</ele><time>2026-04-26T07:58:27Z</time></trkpt><trkpt lat="45.59199276187196" lon="10.765969135020281"><ele>216.0</ele><time>2026-04-26T07:58:28Z</time></trkpt><trkpt lat="45.59191999070539" lon="10.766119304362247"><ele>216.0</ele><time>2026-04-26T07:58:29Z</time></trkpt><trkpt lat="45.591855822552475" lon="10.766276440146331"><ele>216.0</ele><time>2026-04-26T07:58:30Z</time></trkpt><trkpt lat="45.59180381372595" lon="10.7664274027055"><ele>216.0</ele><time>2026-04-26T07:58:31Z</time></trkpt><trkpt lat="45.59175936410846" lon="10.766563026092852"><ele>216.0</ele><time>2026-04-26T07:58:32Z</time></trkpt><trkpt lat="45.59171105115749" lon="10.766678862167941"><ele>216.00000000000003</ele><time>2026-04-26T07:58:33Z</time></trkpt><trkpt lat="45.59166072968275" lon="10.76679857993739"><ele>216.00000000000003</ele><time>2026-04-26T07:58:34Z</time></trkpt><trkpt lat="45.59162822229987" lon="10.766926397435357"><ele>216.0</ele><time>2026-04-26T07:58:35Z</time></trkpt><trkpt lat="45.59157796350275" lon="10.767073813279984"><ele>216.0</ele><time>2026-04-26T07:58:36Z</time></trkpt><trkpt lat="45.59153601519282" lon="10.767235705409766"><ele>216.20000000000002</ele><time>2026-04-26T07:58:37Z</time></trkpt><trkpt lat="45.59151916024913" lon="10.767391342568242"><ele>216.40000000000003</ele><time>2026-04-26T07:58:38Z</time></trkpt><trkpt lat="45.59150780269825" lon="10.767532723823665"><ele>216.6</ele><time>2026-04-26T07:58:39Z</time></trkpt><trkpt lat="45.591496517123204" lon="10.767673622217563"><ele>216.8</ele><time>2026-04-26T07:58:40Z</time></trkpt><trkpt lat="45.591506069350245" lon="10.767821923560914"><ele>217.0</ele><time>2026-04-26T07:58:41Z</time></trkpt><trkpt lat="45.59152438944059" lon="10.767984127149024"><ele>217.0</ele><time>2026-04-26T07:58:42Z</time></trkpt><trkpt lat="45.59153042142399" lon="10.768153770623343"><ele>217.0</ele><time>2026-04-26T07:58:43Z</time></trkpt><trkpt lat="45.59154865118044" lon="10.768287772501965"><ele>217.0</ele><time>2026-04-26T07:58:44Z</time></trkpt><trkpt lat="45.59156767146834" lon="10.768405418156721"><ele>217.0</ele><time>2026-04-26T07:58:45Z</time></trkpt><trkpt lat="45.591620102927315" lon="10.76853469225474"><ele>217.0</ele><time>2026-04-26T07:58:46Z</time></trkpt><trkpt lat="45.59165374910175" lon="10.768656507602662"><ele>217.0</ele><time>2026-04-26T07:58:47Z</time></trkpt><trkpt lat="45.59169364662823" lon="10.76880250727792"><ele>217.0</ele><time>2026-04-26T07:58:48Z</time></trkpt><trkpt lat="45.591730090679334" lon="10.768933418181065"><ele>217.0</ele><time>2026-04-26T07:58:49Z</time></trkpt><trkpt lat="45.59175927177609" lon="10.76905470018486"><ele>217.0</ele><time>2026-04-26T07:58:50Z</time></trkpt><trkpt lat="45.59179310013495" lon="10.769170951557197"><ele>217.0</ele><time>2026-04-26T07:58:51Z</time></trkpt><trkpt lat="45.59185906286438" lon="10.769303002968838"><ele>217.39999999999998</ele><time>2026-04-26T07:58:52Z</time></trkpt><trkpt lat="45.59192064165141" lon="10.769416023356397"><ele>217.79999999999998</ele><time>2026-04-26T07:58:53Z</time></trkpt><trkpt lat="45.59198964207629" lon="10.769541074360957"><ele>218.2</ele><time>2026-04-26T07:58:54Z</time></trkpt><trkpt lat="45.59205654092407" lon="10.76967572504027"><ele>218.6</ele><time>2026-04-26T07:58:55Z</time></trkpt><trkpt lat="45.59212804391929" lon="10.769809866827465"><ele>219.0</ele><time>2026-04-26T07:58:56Z</time></trkpt><trkpt lat="45.59220581726854" lon="10.7699490305152"><ele>219.0</ele><time>2026-04-26T07:58:57Z</time></trkpt><trkpt lat="45.592266678338596" lon="10.770068937243437"><ele>219.0</ele><time>2026-04-26T07:58:58Z</time></trkpt><trkpt lat="45.59231415517593" lon="10.770174210003198"><ele>219.0</ele><time>2026-04-26T07:58:59Z</time></trkpt><trkpt lat="45.59237915639081" lon="10.770260387590847"><ele>219.0</ele><time>2026-04-26T07:59:00Z</time></trkpt><trkpt lat="45.59242342400104" lon="10.770360581946132"><ele>219.0</ele><time>2026-04-26T07:59:01Z</time></trkpt><trkpt lat="45.59247138501945" lon="10.770445302725888"><ele>219.0</ele><time>2026-04-26T07:59:02Z</time></trkpt><trkpt lat="45.59252548929825" lon="10.770515554765893"><ele>219.0</ele><time>2026-04-26T07:59:03Z</time></trkpt><trkpt lat="45.59259477051724" lon="10.770602951889833"><ele>218.99999999999997</ele><time>2026-04-26T07:59:04Z</time></trkpt><trkpt lat="45.59268674697763" lon="10.770702377547018"><ele>218.99999999999997</ele><time>2026-04-26T07:59:05Z</time></trkpt><trkpt lat="45.592773246507655" lon="10.770813057585764"><ele>219.0</ele><time>2026-04-26T07:59:06Z</time></trkpt><trkpt lat="45.59284353546127" lon="10.770920764867354"><ele>219.0</ele><time>2026-04-26T07:59:07Z</time></trkpt><trkpt lat="45.59291665835774" lon="10.771036391780877"><ele>219.2</ele><time>2026-04-26T07:59:08Z</time></trkpt><trkpt lat="45.59297891933799" lon="10.771127752371893"><ele>219.39999999999998</ele><time>2026-04-26T07:59:09Z</time></trkpt><trkpt lat="45.593047556126194" lon="10.771203306538657"><ele>219.6</ele><time>2026-04-26T07:59:10Z</time></trkpt><trkpt lat="45.59311959179852" lon="10.771280411282905"><ele>219.8</ele><time>2026-04-26T07:59:11Z</time></trkpt><trkpt lat="45.59320658844712" lon="10.771360659305882"><ele>220.0</ele><time>2026-04-26T07:59:12Z</time></trkpt><trkpt lat="45.593298121407365" lon="10.771460660125166"><ele>220.0</ele><time>2026-04-26T07:59:13Z</time></trkpt><trkpt lat="45.593378017878365" lon="10.771566459377665"><ele>220.0</ele><time>2026-04-26T07:59:14Z</time></trkpt><trkpt lat="45.59345767143891" lon="10.771675787398234"><ele>220.0</ele><time>2026-04-26T07:59:15Z</time></trkpt><trkpt lat="45.59353576457322" lon="10.771780086477209"><ele>220.0</ele><time>2026-04-26T07:59:16Z</time></trkpt><trkpt lat="45.59360283781371" lon="10.771877516772701"><ele>220.0</ele><time>2026-04-26T07:59:17Z</time></trkpt><trkpt lat="45.5936575518979" lon="10.77196169074981"><ele>220.16666666666666</ele><time>2026-04-26T07:59:18Z</time></trkpt><trkpt lat="45.59371686914926" lon="10.77203139687291"><ele>220.33333333333331</ele><time>2026-04-26T07:59:19Z</time></trkpt><trkpt lat="45.59378509262739" lon="10.772094984498302"><ele>220.5</ele><time>2026-04-26T07:59:20Z</time></trkpt><trkpt lat="45.593851892065686" lon="10.77214641339721"><ele>220.66666666666669</ele><time>2026-04-26T07:59:21Z</time></trkpt><trkpt lat="45.593919492887565" lon="10.77220354435835"><ele>220.83333333333334</ele><time>2026-04-26T07:59:22Z</time></trkpt><trkpt lat="45.5939756328845" lon="10.77225572410845"><ele>221.0</ele><time>2026-04-26T07:59:23Z</time></trkpt><trkpt lat="45.5940854295354" lon="10.772362621119589"><ele>221.00000000000003</ele><time>2026-04-26T07:59:25Z</time></trkpt><trkpt lat="45.59415917742244" lon="10.772418226076596"><ele>221.0</ele><time>2026-04-26T07:59:26Z</time></trkpt><trkpt lat="45.59423802659657" lon="10.772484501241815"><ele>221.0</ele><time>2026-04-26T07:59:27Z</time></trkpt><trkpt lat="45.59432047069752" lon="10.772547185678999"><ele>221.0</ele><time>2026-04-26T07:59:28Z</time></trkpt><trkpt lat="45.59439061856338" lon="10.772587434604846"><ele>221.00000000000003</ele><time>2026-04-26T07:59:29Z</time></trkpt><trkpt lat="45.59445536991294" lon="10.772625839538184"><ele>221.0</ele><time>2026-04-26T07:59:30Z</time></trkpt><trkpt lat="45.59451492345298" lon="10.772661644861747"><ele>221.33333333333334</ele><time>2026-04-26T07:59:31Z</time></trkpt><trkpt lat="45.59461285553237" lon="10.772734519776904"><ele>221.66666666666669</ele><time>2026-04-26T07:59:33Z</time></trkpt><trkpt lat="45.594663264499104" lon="10.772807871309364"><ele>222.0</ele><time>2026-04-26T07:59:34Z</time></trkpt><trkpt lat="45.59473209148508" lon="10.772881661623705"><ele>222.33333333333331</ele><time>2026-04-26T07:59:35Z</time></trkpt><trkpt lat="45.594806102930505" lon="10.772954732639882"><ele>222.66666666666666</ele><time>2026-04-26T07:59:36Z</time></trkpt><trkpt lat="45.59488292049129" lon="10.773021809483705"><ele>223.0</ele><time>2026-04-26T07:59:37Z</time></trkpt><trkpt lat="45.594967185788235" lon="10.773075728953657"><ele>223.0</ele><time>2026-04-26T07:59:38Z</time></trkpt><trkpt lat="45.595064577332565" lon="10.77312744905309"><ele>223.0</ele><time>2026-04-26T07:59:39Z</time></trkpt><trkpt lat="45.595164573241476" lon="10.773164719096652"><ele>223.0</ele><time>2026-04-26T07:59:40Z</time></trkpt><trkpt lat="45.59526786446862" lon="10.773199529918053"><ele>223.0</ele><time>2026-04-26T07:59:41Z</time></trkpt><trkpt lat="45.59536644376958" lon="10.773226358050772"><ele>223.0</ele><time>2026-04-26T07:59:42Z</time></trkpt><trkpt lat="45.59546859407743" lon="10.773262477290649"><ele>222.8</ele><time>2026-04-26T07:59:43Z</time></trkpt><trkpt lat="45.595569587142045" lon="10.773243698742535"><ele>222.60000000000002</ele><time>2026-04-26T07:59:44Z</time></trkpt><trkpt lat="45.59565545613197" lon="10.773244351519907"><ele>222.39999999999998</ele><time>2026-04-26T07:59:45Z</time></trkpt><trkpt lat="45.59573960180262" lon="10.77325788405671"><ele>222.2</ele><time>2026-04-26T07:59:46Z</time></trkpt><trkpt lat="45.595831652251015" lon="10.773295177253363"><ele>222.0</ele><time>2026-04-26T07:59:47Z</time></trkpt><trkpt lat="45.59593128161361" lon="10.773359595545976"><ele>222.0</ele><time>2026-04-26T07:59:48Z</time></trkpt><trkpt lat="45.596034067053175" lon="10.773472023458273"><ele>222.0</ele><time>2026-04-26T07:59:49Z</time></trkpt><trkpt lat="45.59614829954851" lon="10.773592020573911"><ele>222.0</ele><time>2026-04-26T07:59:50Z</time></trkpt><trkpt lat="45.59627868024652" lon="10.773705406852713"><ele>222.0</ele><time>2026-04-26T07:59:51Z</time></trkpt><trkpt lat="45.59637901328746" lon="10.773831581882476"><ele>222.39999999999998</ele><time>2026-04-26T07:59:52Z</time></trkpt><trkpt lat="45.59647766046953" lon="10.773888940706119"><ele>222.79999999999998</ele><time>2026-04-26T07:59:53Z</time></trkpt><trkpt lat="45.596545681600496" lon="10.77392680411911"><ele>223.2</ele><time>2026-04-26T07:59:54Z</time></trkpt><trkpt lat="45.5966254070823" lon="10.774014583853578"><ele>223.6</ele><time>2026-04-26T07:59:56Z</time></trkpt><trkpt lat="45.59652414348669" lon="10.77411581317849"><ele>224.0</ele><time>2026-04-26T08:00:00Z</time></trkpt><trkpt lat="45.59648348465552" lon="10.774185965029252"><ele>224.0</ele><time>2026-04-26T08:00:01Z</time></trkpt><trkpt lat="45.59640943602076" lon="10.77425484936508"><ele>224.0</ele><time>2026-04-26T08:00:03Z</time></trkpt><trkpt lat="45.59630749605406" lon="10.774398768649082"><ele>224.0</ele><time>2026-04-26T08:00:05Z</time></trkpt><trkpt lat="45.59624901179726" lon="10.774517580454068"><ele>224.0</ele><time>2026-04-26T08:00:06Z</time></trkpt><trkpt lat="45.59616455385722" lon="10.774663879787708"><ele>223.75</ele><time>2026-04-26T08:00:07Z</time></trkpt><trkpt lat="45.596078217125864" lon="10.774816236677191"><ele>223.5</ele><time>2026-04-26T08:00:08Z</time></trkpt><trkpt lat="45.59598608266954" lon="10.774956468676148"><ele>223.25</ele><time>2026-04-26T08:00:09Z</time></trkpt><trkpt lat="45.595869298750685" lon="10.775093867119363"><ele>223.0</ele><time>2026-04-26T08:00:10Z</time></trkpt><trkpt lat="45.59572210911144" lon="10.775213202849072"><ele>224.0</ele><time>2026-04-26T08:00:11Z</time></trkpt><trkpt lat="45.595546884591215" lon="10.775333803350266"><ele>225.0</ele><time>2026-04-26T08:00:12Z</time></trkpt><trkpt lat="45.5953794534986" lon="10.775475912389277"><ele>226.0</ele><time>2026-04-26T08:00:13Z</time></trkpt><trkpt lat="45.59522919933553" lon="10.775621041255215"><ele>226.0</ele><time>2026-04-26T08:00:14Z</time></trkpt><trkpt lat="45.59510032920673" lon="10.775749843523263"><ele>226.0</ele><time>2026-04-26T08:00:15Z</time></trkpt><trkpt lat="45.59496837612022" lon="10.775870384530126"><ele>226.0</ele><time>2026-04-26T08:00:16Z</time></trkpt><trkpt lat="45.594853448069195" lon="10.775984504571488"><ele>226.25</ele><time>2026-04-26T08:00:17Z</time></trkpt><trkpt lat="45.59474462053255" lon="10.776094467120929"><ele>226.5</ele><time>2026-04-26T08:00:18Z</time></trkpt><trkpt lat="45.59464603210466" lon="10.776203087926627"><ele>226.75</ele><time>2026-04-26T08:00:19Z</time></trkpt><trkpt lat="45.5945608755593" lon="10.776313189154648"><ele>227.0</ele><time>2026-04-26T08:00:20Z</time></trkpt><trkpt lat="45.594456651420366" lon="10.776432678168494"><ele>226.33333333333334</ele><time>2026-04-26T08:00:21Z</time></trkpt><trkpt lat="45.59433739962277" lon="10.776581091840663"><ele>225.66666666666669</ele><time>2026-04-26T08:00:22Z</time></trkpt><trkpt lat="45.59420131226419" lon="10.776743587653936"><ele>225.0</ele><time>2026-04-26T08:00:23Z</time></trkpt><trkpt lat="45.59406548324303" lon="10.77691719992201"><ele>224.66666666666669</ele><time>2026-04-26T08:00:24Z</time></trkpt><trkpt lat="45.59393569327482" lon="10.77707980579779"><ele>224.33333333333334</ele><time>2026-04-26T08:00:25Z</time></trkpt><trkpt lat="45.59381144089406" lon="10.777244763865207"><ele>224.0</ele><time>2026-04-26T08:00:26Z</time></trkpt><trkpt lat="45.593689125096525" lon="10.77739818127322"><ele>224.0</ele><time>2026-04-26T08:00:27Z</time></trkpt><trkpt lat="45.59354616701227" lon="10.777547113480152"><ele>224.0</ele><time>2026-04-26T08:00:28Z</time></trkpt><trkpt lat="45.59344025112051" lon="10.77767322891927"><ele>224.0</ele><time>2026-04-26T08:00:29Z</time></trkpt><trkpt lat="45.593322468131134" lon="10.777807107286273"><ele>224.0</ele><time>2026-04-26T08:00:30Z</time></trkpt><trkpt lat="45.59319978336369" lon="10.777944146718088"><ele>224.0</ele><time>2026-04-26T08:00:31Z</time></trkpt><trkpt lat="45.59307364631955" lon="10.778084947703427"><ele>224.0</ele><time>2026-04-26T08:00:32Z</time></trkpt><trkpt lat="45.59294692398735" lon="10.778228423624752"><ele>223.66666666666669</ele><time>2026-04-26T08:00:33Z</time></trkpt><trkpt lat="45.592819887578486" lon="10.77837300649351"><ele>223.33333333333331</ele><time>2026-04-26T08:00:34Z</time></trkpt><trkpt lat="45.59267881066578" lon="10.778538510263008"><ele>223.0</ele><time>2026-04-26T08:00:35Z</time></trkpt><trkpt lat="45.59256430685824" lon="10.778682382689377"><ele>223.60000000000002</ele><time>2026-04-26T08:00:36Z</time></trkpt><trkpt lat="45.59247770111657" lon="10.778814421203526"><ele>224.20000000000002</ele><time>2026-04-26T08:00:37Z</time></trkpt><trkpt lat="45.592407089591475" lon="10.778958032363803"><ele>224.8</ele><time>2026-04-26T08:00:38Z</time></trkpt><trkpt lat="45.59236167099756" lon="10.77909412667399"><ele>225.4</ele><time>2026-04-26T08:00:39Z</time></trkpt><trkpt lat="45.59233560777154" lon="10.779216566651609"><ele>226.0</ele><time>2026-04-26T08:00:40Z</time></trkpt><trkpt lat="45.592318902615105" lon="10.779307112229914"><ele>226.5</ele><time>2026-04-26T08:00:41Z</time></trkpt><trkpt lat="45.59230229560934" lon="10.779463595393015"><ele>227.0</ele><time>2026-04-26T08:00:42Z</time></trkpt><trkpt lat="45.59224233891418" lon="10.77961224872251"><ele>227.5</ele><time>2026-04-26T08:00:43Z</time></trkpt><trkpt lat="45.59215165025796" lon="10.779772120407774"><ele>228.0</ele><time>2026-04-26T08:00:44Z</time></trkpt><trkpt lat="45.59204278836551" lon="10.779966212221483"><ele>228.5</ele><time>2026-04-26T08:00:45Z</time></trkpt><trkpt lat="45.591939668279906" lon="10.780136022553938"><ele>229.0</ele><time>2026-04-26T08:00:46Z</time></trkpt><trkpt lat="45.59184854593498" lon="10.780264369075956"><ele>229.5</ele><time>2026-04-26T08:00:47Z</time></trkpt><trkpt lat="45.591781633578336" lon="10.780386977780685"><ele>230.0</ele><time>2026-04-26T08:00:48Z</time></trkpt><trkpt lat="45.59172281976107" lon="10.780488398863948"><ele>230.8</ele><time>2026-04-26T08:00:49Z</time></trkpt><trkpt lat="45.591678680357845" lon="10.78058295466951"><ele>231.6</ele><time>2026-04-26T08:00:50Z</time></trkpt><trkpt lat="45.59164378873054" lon="10.780664307587339"><ele>232.39999999999998</ele><time>2026-04-26T08:00:51Z</time></trkpt><trkpt lat="45.59162190687769" lon="10.78079616916555"><ele>233.2</ele><time>2026-04-26T08:00:53Z</time></trkpt><trkpt lat="45.591674495812285" lon="10.780892891044934"><ele>234.0</ele><time>2026-04-26T08:00:55Z</time></trkpt><trkpt lat="45.59158691646383" lon="10.781071601293903"><ele>235.0</ele><time>2026-04-26T08:00:59Z</time></trkpt><trkpt lat="45.59155840833472" lon="10.781154617694567"><ele>236.0</ele><time>2026-04-26T08:01:00Z</time></trkpt><trkpt lat="45.591527525472046" lon="10.781245576937007"><ele>237.0</ele><time>2026-04-26T08:01:01Z</time></trkpt><trkpt lat="45.59148095161628" lon="10.781401259426168"><ele>238.0</ele><time>2026-04-26T08:01:03Z</time></trkpt><trkpt lat="45.59144401730072" lon="10.78152964708266"><ele>239.0</ele><time>2026-04-26T08:01:05Z</time></trkpt><trkpt lat="45.59140871753534" lon="10.78165834523618"><ele>240.0</ele><time>2026-04-26T08:01:07Z</time></trkpt><trkpt lat="45.59140976072165" lon="10.7817936315242"><ele>241.0</ele><time>2026-04-26T08:01:09Z</time></trkpt><trkpt lat="45.59139922542969" lon="10.781928184025034"><ele>242.0</ele><time>2026-04-26T08:01:11Z</time></trkpt><trkpt lat="45.591357843949275" lon="10.782032456113674"><ele>243.0</ele><time>2026-04-26T08:01:13Z</time></trkpt><trkpt lat="45.591279544386175" lon="10.782077685816349"><ele>244.0</ele><time>2026-04-26T08:01:16Z</time></trkpt><trkpt lat="45.59120265141761" lon="10.78200597475153"><ele>245.0</ele><time>2026-04-26T08:01:18Z</time></trkpt><trkpt lat="45.59110755335042" lon="10.78191932269169"><ele>245.4</ele><time>2026-04-26T08:01:20Z</time></trkpt><trkpt lat="45.59102388525872" lon="10.781821378070902"><ele>245.8</ele><time>2026-04-26T08:01:22Z</time></trkpt><trkpt lat="45.59095064083641" lon="10.781742099718013"><ele>246.2</ele><time>2026-04-26T08:01:24Z</time></trkpt><trkpt lat="45.59089400785673" lon="10.781682166172361"><ele>246.6</ele><time>2026-04-26T08:01:26Z</time></trkpt><trkpt lat="45.59082133426986" lon="10.781605256985882"><ele>247.0</ele><time>2026-04-26T08:01:28Z</time></trkpt><trkpt lat="45.590744460215376" lon="10.78152113102191"><ele>246.99999999999997</ele><time>2026-04-26T08:01:30Z</time></trkpt><trkpt lat="45.59068816440897" lon="10.781462043728228"><ele>247.0</ele><time>2026-04-26T08:01:31Z</time></trkpt><trkpt lat="45.5906204237188" lon="10.781406319382045"><ele>247.0</ele><time>2026-04-26T08:01:32Z</time></trkpt><trkpt lat="45.59055933666191" lon="10.78135351438103"><ele>247.0</ele><time>2026-04-26T08:01:33Z</time></trkpt><trkpt lat="45.590462691795125" lon="10.781252270458166"><ele>246.99999999999997</ele><time>2026-04-26T08:01:35Z</time></trkpt><trkpt lat="45.590407549203604" lon="10.781193087235515"><ele>247.0</ele><time>2026-04-26T08:01:36Z</time></trkpt><trkpt lat="45.59035022734056" lon="10.781133672272228"><ele>246.8</ele><time>2026-04-26T08:01:37Z</time></trkpt><trkpt lat="45.59025213890102" lon="10.781036395326897"><ele>246.6</ele><time>2026-04-26T08:01:39Z</time></trkpt><trkpt lat="45.590161220619265" lon="10.780950077965233"><ele>246.40000000000003</ele><time>2026-04-26T08:01:41Z</time></trkpt><trkpt lat="45.59009489325615" lon="10.780874137293821"><ele>246.20000000000002</ele><time>2026-04-26T08:01:43Z</time></trkpt><trkpt lat="45.59003155579309" lon="10.780806766652375"><ele>246.0</ele><time>2026-04-26T08:01:46Z</time></trkpt><trkpt lat="45.589925234342275" lon="10.780977200944541"><ele>246.0</ele><time>2026-04-26T08:01:47Z</time></trkpt><trkpt lat="45.58984675821861" lon="10.781073794946348"><ele>246.00000000000003</ele><time>2026-04-26T08:01:48Z</time></trkpt><trkpt lat="45.58979076848674" lon="10.781173845757548"><ele>246.00000000000003</ele><time>2026-04-26T08:01:49Z</time></trkpt><trkpt lat="45.58976222147177" lon="10.78130983640538"><ele>246.0</ele><time>2026-04-26T08:01:50Z</time></trkpt><trkpt lat="45.58973712631851" lon="10.781459168675871"><ele>246.0</ele><time>2026-04-26T08:01:51Z</time></trkpt><trkpt lat="45.58971503284287" lon="10.781602982484937"><ele>246.0</ele><time>2026-04-26T08:01:52Z</time></trkpt><trkpt lat="45.58969857786177" lon="10.781715940892154"><ele>246.00000000000003</ele><time>2026-04-26T08:01:53Z</time></trkpt><trkpt lat="45.58968092416967" lon="10.781839961818141"><ele>246.00000000000003</ele><time>2026-04-26T08:01:54Z</time></trkpt><trkpt lat="45.58966433294656" lon="10.781948872702168"><ele>246.0</ele><time>2026-04-26T08:01:55Z</time></trkpt><trkpt lat="45.58963203686895" lon="10.782099923133007"><ele>246.0</ele><time>2026-04-26T08:01:56Z</time></trkpt><trkpt lat="45.58959507276522" lon="10.782223109922079"><ele>246.20000000000002</ele><time>2026-04-26T08:01:58Z</time></trkpt><trkpt lat="45.58956360778154" lon="10.782383053855908"><ele>246.40000000000003</ele><time>2026-04-26T08:02:00Z</time></trkpt><trkpt lat="45.58951329695904" lon="10.782498100051567"><ele>246.6</ele><time>2026-04-26T08:02:02Z</time></trkpt><trkpt lat="45.589477179077576" lon="10.782629039723801"><ele>246.8</ele><time>2026-04-26T08:05:14.001Z</time></trkpt><trkpt lat="45.589401757178074" lon="10.782642145575076"><ele>247.0</ele><time>2026-04-26T08:05:16.001Z</time></trkpt><trkpt lat="45.58933544817191" lon="10.782612718032647"><ele>247.66666666666666</ele><time>2026-04-26T08:05:18.001Z</time></trkpt><trkpt lat="45.589168256970254" lon="10.782512678415051"><ele>248.33333333333331</ele><time>2026-04-26T08:05:20.001Z</time></trkpt><trkpt lat="45.58903184368066" lon="10.78240805263894"><ele>249.0</ele><time>2026-04-26T08:05:21.001Z</time></trkpt><trkpt lat="45.588849460940985" lon="10.782268197883662"><ele>247.66666666666669</ele><time>2026-04-26T08:05:22.001Z</time></trkpt><trkpt lat="45.5886631250817" lon="10.782126218267305"><ele>246.33333333333334</ele><time>2026-04-26T08:05:23.001Z</time></trkpt><trkpt lat="45.588469572615445" lon="10.7819830926081"><ele>245.0</ele><time>2026-04-26T08:05:24.001Z</time></trkpt><trkpt lat="45.588265548709934" lon="10.781833762500426"><ele>245.0</ele><time>2026-04-26T08:05:25.001Z</time></trkpt><trkpt lat="45.58807365351834" lon="10.781692215365828"><ele>245.0</ele><time>2026-04-26T08:05:26.001Z</time></trkpt><trkpt lat="45.58788685554138" lon="10.78155295570737"><ele>245.0</ele><time>2026-04-26T08:05:27.001Z</time></trkpt><trkpt lat="45.587703581667924" lon="10.781413024524495"><ele>244.66666666666669</ele><time>2026-04-26T08:05:28.001Z</time></trkpt><trkpt lat="45.58750909509957" lon="10.781262140473006"><ele>244.33333333333331</ele><time>2026-04-26T08:05:29.001Z</time></trkpt><trkpt lat="45.587316286178414" lon="10.781114824884579"><ele>244.0</ele><time>2026-04-26T08:05:30.001Z</time></trkpt><trkpt lat="45.58712531842433" lon="10.780972874047455"><ele>245.33333333333331</ele><time>2026-04-26T08:05:31Z</time></trkpt><trkpt lat="45.58694492374588" lon="10.78083533685687"><ele>246.66666666666669</ele><time>2026-04-26T08:05:32Z</time></trkpt><trkpt lat="45.58676925743247" lon="10.780708281855615"><ele>248.0</ele><time>2026-04-26T08:05:33Z</time></trkpt><trkpt lat="45.586599427304144" lon="10.780581999967282"><ele>248.0</ele><time>2026-04-26T08:05:34Z</time></trkpt><trkpt lat="45.58641629265063" lon="10.780457392744218"><ele>248.0</ele><time>2026-04-26T08:05:35Z</time></trkpt><trkpt lat="45.58623957200135" lon="10.780337672543093"><ele>248.0</ele><time>2026-04-26T08:05:36Z</time></trkpt><trkpt lat="45.58607786450158" lon="10.780226917441354"><ele>247.0</ele><time>2026-04-26T08:05:37Z</time></trkpt><trkpt lat="45.58592745770572" lon="10.780121373900283"><ele>246.0</ele><time>2026-04-26T08:05:38Z</time></trkpt><trkpt lat="45.58577098565771" lon="10.780012037701294"><ele>245.0</ele><time>2026-04-26T08:05:39Z</time></trkpt><trkpt lat="45.58560532401861" lon="10.77989330368647"><ele>245.0</ele><time>2026-04-26T08:05:40Z</time></trkpt><trkpt lat="45.58542313564975" lon="10.779769153869442"><ele>245.0</ele><time>2026-04-26T08:05:41Z</time></trkpt><trkpt lat="45.58523729526106" lon="10.779642078070822"><ele>245.0</ele><time>2026-04-26T08:05:42Z</time></trkpt><trkpt lat="45.58506004661855" lon="10.77952144888246"><ele>245.5</ele><time>2026-04-26T08:05:43Z</time></trkpt><trkpt lat="45.58486598379447" lon="10.77939214873717"><ele>246.0</ele><time>2026-04-26T08:05:44Z</time></trkpt><trkpt lat="45.58464471357167" lon="10.779242738179072"><ele>245.0</ele><time>2026-04-26T08:05:45Z</time></trkpt><trkpt lat="45.584448642267475" lon="10.779108352195594"><ele>244.0</ele><time>2026-04-26T08:05:46Z</time></trkpt><trkpt lat="45.584274661027216" lon="10.778978930042808"><ele>243.0</ele><time>2026-04-26T08:05:47Z</time></trkpt><trkpt lat="45.584105620001445" lon="10.778841485026698"><ele>243.0</ele><time>2026-04-26T08:05:48Z</time></trkpt><trkpt lat="45.58395778162187" lon="10.778704525075257"><ele>243.0</ele><time>2026-04-26T08:05:49Z</time></trkpt><trkpt lat="45.58382741554743" lon="10.778569839353901"><ele>243.0</ele><time>2026-04-26T08:05:50Z</time></trkpt><trkpt lat="45.58372579290026" lon="10.778441769000176"><ele>240.75</ele><time>2026-04-26T08:05:51Z</time></trkpt><trkpt lat="45.583621896851675" lon="10.77830664054616"><ele>238.5</ele><time>2026-04-26T08:05:52Z</time></trkpt><trkpt lat="45.58353040391646" lon="10.77815935569141"><ele>236.25</ele><time>2026-04-26T08:05:53Z</time></trkpt><trkpt lat="45.583460599009285" lon="10.77802930220558"><ele>234.0</ele><time>2026-04-26T08:05:54Z</time></trkpt><trkpt lat="45.58339217847457" lon="10.777924910871723"><ele>234.0</ele><time>2026-04-26T08:05:55Z</time></trkpt><trkpt lat="45.583344351485266" lon="10.777830723379424"><ele>233.99999999999997</ele><time>2026-04-26T08:05:56Z</time></trkpt><trkpt lat="45.58330171849311" lon="10.777746601144003"><ele>233.99999999999997</ele><time>2026-04-26T08:05:57Z</time></trkpt><trkpt lat="45.583249595197316" lon="10.777623603495773"><ele>234.0</ele><time>2026-04-26T08:05:59Z</time></trkpt><trkpt lat="45.583299775259704" lon="10.777746761730581"><ele>234.0</ele><time>2026-04-26T08:06:00Z</time></trkpt><trkpt lat="45.58322527374419" lon="10.777924290281582"><ele>234.0</ele><time>2026-04-26T08:06:04Z</time></trkpt><trkpt lat="45.583187591147855" lon="10.77808424415776"><ele>233.99999999999997</ele><time>2026-04-26T08:06:06Z</time></trkpt><trkpt lat="45.5831569147702" lon="10.778196737270134"><ele>233.99999999999997</ele><time>2026-04-26T08:06:07Z</time></trkpt><trkpt lat="45.58314624362117" lon="10.778300134932225"><ele>234.0</ele><time>2026-04-26T08:06:08Z</time></trkpt><trkpt lat="45.58314165391768" lon="10.778407707171077"><ele>234.0</ele><time>2026-04-26T08:06:09Z</time></trkpt><trkpt lat="45.58312846635829" lon="10.778550158420147"><ele>234.5</ele><time>2026-04-26T08:06:10Z</time></trkpt><trkpt lat="45.58310540861475" lon="10.778715302701878"><ele>235.0</ele><time>2026-04-26T08:06:11Z</time></trkpt><trkpt lat="45.58307101417454" lon="10.77887803420107"><ele>235.5</ele><time>2026-04-26T08:06:12Z</time></trkpt><trkpt lat="45.58303307292361" lon="10.779047946427552"><ele>236.0</ele><time>2026-04-26T08:06:13Z</time></trkpt><trkpt lat="45.58300341964934" lon="10.779233929431115"><ele>237.5</ele><time>2026-04-26T08:06:14Z</time></trkpt><trkpt lat="45.58297825662978" lon="10.779430234434072"><ele>239.0</ele><time>2026-04-26T08:06:15Z</time></trkpt><trkpt lat="45.58295851896782" lon="10.779601568469648"><ele>240.5</ele><time>2026-04-26T08:06:16Z</time></trkpt><trkpt lat="45.58293281498718" lon="10.779771830566954"><ele>242.0</ele><time>2026-04-26T08:06:17Z</time></trkpt><trkpt lat="45.58291221929735" lon="10.779927421286686"><ele>242.00000000000003</ele><time>2026-04-26T08:06:18Z</time></trkpt><trkpt lat="45.582890587045725" lon="10.780067780882316"><ele>242.0</ele><time>2026-04-26T08:06:19Z</time></trkpt><trkpt lat="45.58287135220603" lon="10.780194970850776"><ele>242.0</ele><time>2026-04-26T08:06:20Z</time></trkpt><trkpt lat="45.582854636816954" lon="10.7802880626091"><ele>242.0</ele><time>2026-04-26T08:06:21Z</time></trkpt><trkpt lat="45.58286114735104" lon="10.78040507253785"><ele>242.00000000000003</ele><time>2026-04-26T08:06:23Z</time></trkpt><trkpt lat="45.58293330391611" lon="10.780439702990945"><ele>242.0</ele><time>2026-04-26T08:06:25Z</time></trkpt><trkpt lat="45.5829987027167" lon="10.780423054926205"><ele>242.6</ele><time>2026-04-26T08:06:26Z</time></trkpt><trkpt lat="45.58306282479197" lon="10.78042271359827"><ele>243.2</ele><time>2026-04-26T08:06:27Z</time></trkpt><trkpt lat="45.58312341641357" lon="10.78050113266633"><ele>243.8</ele><time>2026-04-26T08:06:29Z</time></trkpt><trkpt lat="45.58312290172495" lon="10.780593887372046"><ele>244.4</ele><time>2026-04-26T08:06:30Z</time></trkpt><trkpt lat="45.58317068021742" lon="10.780790746702495"><ele>245.0</ele><time>2026-04-26T08:06:32Z</time></trkpt><trkpt lat="45.58319956961177" lon="10.780920137267968"><ele>244.4</ele><time>2026-04-26T08:06:33Z</time></trkpt><trkpt lat="45.58323187014071" lon="10.781031366332266"><ele>243.8</ele><time>2026-04-26T08:06:34Z</time></trkpt><trkpt lat="45.58326919616598" lon="10.781123373971946"><ele>243.2</ele><time>2026-04-26T08:06:35Z</time></trkpt><trkpt lat="45.58330257774083" lon="10.781239477970102"><ele>242.6</ele><time>2026-04-26T08:06:36Z</time></trkpt><trkpt lat="45.58335831910268" lon="10.781364135603997"><ele>242.0</ele><time>2026-04-26T08:06:37Z</time></trkpt><trkpt lat="45.58341033301018" lon="10.781505995426576"><ele>242.0</ele><time>2026-04-26T08:06:38Z</time></trkpt><trkpt lat="45.583473244457174" lon="10.781646200121417"><ele>242.0</ele><time>2026-04-26T08:06:39Z</time></trkpt><trkpt lat="45.58352030994786" lon="10.781765491876294"><ele>242.0</ele><time>2026-04-26T08:06:40Z</time></trkpt><trkpt lat="45.583563796548276" lon="10.781870071476172"><ele>242.0</ele><time>2026-04-26T08:06:41Z</time></trkpt><trkpt lat="45.583608658553274" lon="10.78197948668268"><ele>242.0</ele><time>2026-04-26T08:06:42Z</time></trkpt><trkpt lat="45.58364955037145" lon="10.78207961159771"><ele>242.8</ele><time>2026-04-26T08:06:43Z</time></trkpt><trkpt lat="45.5837102268704" lon="10.782151008929803"><ele>243.6</ele><time>2026-04-26T08:06:44Z</time></trkpt><trkpt lat="45.58378117651466" lon="10.782221159871002"><ele>244.40000000000003</ele><time>2026-04-26T08:06:45Z</time></trkpt><trkpt lat="45.58386517863947" lon="10.782306737001786"><ele>245.20000000000002</ele><time>2026-04-26T08:06:46Z</time></trkpt><trkpt lat="45.58393898970383" lon="10.782390826043358"><ele>246.0</ele><time>2026-04-26T08:06:47Z</time></trkpt><trkpt lat="45.584028773749914" lon="10.782461506118935"><ele>246.0</ele><time>2026-04-26T08:06:48Z</time></trkpt><trkpt lat="45.584123870864204" lon="10.78255794580943"><ele>246.00000000000003</ele><time>2026-04-26T08:06:49Z</time></trkpt><trkpt lat="45.58421140113606" lon="10.782653065927546"><ele>246.00000000000003</ele><time>2026-04-26T08:06:50Z</time></trkpt><trkpt lat="45.5842815527879" lon="10.782726677383971"><ele>246.0</ele><time>2026-04-26T08:06:51Z</time></trkpt><trkpt lat="45.58435807367737" lon="10.78284798593762"><ele>246.0</ele><time>2026-04-26T08:06:53Z</time></trkpt><trkpt lat="45.58441498009291" lon="10.782974139588442"><ele>245.83333333333334</ele><time>2026-04-26T08:06:55Z</time></trkpt><trkpt lat="45.58445973143603" lon="10.783062108489023"><ele>245.66666666666669</ele><time>2026-04-26T08:06:56Z</time></trkpt><trkpt lat="45.5844860747174" lon="10.783157907568805"><ele>245.5</ele><time>2026-04-26T08:06:56.999Z</time></trkpt><trkpt lat="45.58448629838072" lon="10.783257776596525"><ele>245.33333333333334</ele><time>2026-04-26T08:06:57.999Z</time></trkpt><trkpt lat="45.58448584146782" lon="10.783374808731443"><ele>245.16666666666669</ele><time>2026-04-26T08:06:58.999Z</time></trkpt><trkpt lat="45.58448173180828" lon="10.783523193544603"><ele>245.0</ele><time>2026-04-26T08:06:59.999Z</time></trkpt><trkpt lat="45.584480789949374" lon="10.78367954284617"><ele>245.0</ele><time>2026-04-26T08:07:00.999Z</time></trkpt><trkpt lat="45.5845004348487" lon="10.783841391815402"><ele>245.0</ele><time>2026-04-26T08:07:01.999Z</time></trkpt><trkpt lat="45.584505841935645" lon="10.784030205953066"><ele>245.0</ele><time>2026-04-26T08:07:02.999Z</time></trkpt><trkpt lat="45.5845108240526" lon="10.784216709184834"><ele>245.0</ele><time>2026-04-26T08:07:03.999Z</time></trkpt><trkpt lat="45.58451894973412" lon="10.78439932745523"><ele>246.33333333333334</ele><time>2026-04-26T08:07:04.999Z</time></trkpt><trkpt lat="45.58452123437576" lon="10.784551840028158"><ele>247.66666666666669</ele><time>2026-04-26T08:07:05.999Z</time></trkpt><trkpt lat="45.5845208452173" lon="10.784682590543335"><ele>249.0</ele><time>2026-04-26T08:07:06.999Z</time></trkpt><trkpt lat="45.5845258086216" lon="10.784784632486234"><ele>250.33333333333331</ele><time>2026-04-26T08:07:07.999Z</time></trkpt><trkpt lat="45.58453384019556" lon="10.78487815124511"><ele>251.66666666666666</ele><time>2026-04-26T08:07:08.999Z</time></trkpt><trkpt lat="45.58458834399615" lon="10.784926933625536"><ele>253.0</ele><time>2026-04-26T08:07:10.999Z</time></trkpt><trkpt lat="45.584673958209656" lon="10.784871403528689"><ele>252.99999999999997</ele><time>2026-04-26T08:07:13.999Z</time></trkpt><trkpt lat="45.5847764007981" lon="10.784806471566007"><ele>253.0</ele><time>2026-04-26T08:07:16Z</time></trkpt><trkpt lat="45.58486197551542" lon="10.784759174605663"><ele>253.0</ele><time>2026-04-26T08:07:18Z</time></trkpt><trkpt lat="45.584901085770674" lon="10.784666043842293"><ele>253.0</ele><time>2026-04-26T08:07:20Z</time></trkpt><trkpt lat="45.58491062810722" lon="10.784559201059132"><ele>252.99999999999997</ele><time>2026-04-26T08:07:22Z</time></trkpt><trkpt lat="45.584904080108345" lon="10.784425053932786"><ele>253.0</ele><time>2026-04-26T08:07:24Z</time></trkpt><trkpt lat="45.58489821247013" lon="10.78424629600521"><ele>253.2</ele><time>2026-04-26T08:07:26Z</time></trkpt><trkpt lat="45.58488259127791" lon="10.784156033864178"><ele>253.4</ele><time>2026-04-26T08:07:27Z</time></trkpt><trkpt lat="45.58487629278733" lon="10.78404120847247"><ele>253.59999999999997</ele><time>2026-04-26T08:07:28Z</time></trkpt><trkpt lat="45.5849261887708" lon="10.78387004260311"><ele>253.79999999999998</ele><time>2026-04-26T08:07:29Z</time></trkpt><trkpt lat="45.58491876824758" lon="10.78373517462661"><ele>254.0</ele><time>2026-04-26T08:07:30Z</time></trkpt><trkpt lat="45.584963555555184" lon="10.783558765064647"><ele>254.00000000000003</ele><time>2026-04-26T08:07:31Z</time></trkpt><trkpt lat="45.58497977850875" lon="10.783400155315968"><ele>254.0</ele><time>2026-04-26T08:07:32Z</time></trkpt><trkpt lat="45.58499453420129" lon="10.783281306019633"><ele>254.0</ele><time>2026-04-26T08:07:33Z</time></trkpt><trkpt lat="45.58501452108339" lon="10.783189922253712"><ele>254.0</ele><time>2026-04-26T08:07:34Z</time></trkpt><trkpt lat="45.58502759425157" lon="10.783057200062338"><ele>254.00000000000003</ele><time>2026-04-26T08:07:36Z</time></trkpt><trkpt lat="45.58501392005904" lon="10.782960614858531"><ele>254.0</ele><time>2026-04-26T08:07:37Z</time></trkpt><trkpt lat="45.58497684736607" lon="10.782786000455115"><ele>254.6</ele><time>2026-04-26T08:07:39Z</time></trkpt><trkpt lat="45.5849690408763" lon="10.78266657414493"><ele>255.2</ele><time>2026-04-26T08:07:41Z</time></trkpt><trkpt lat="45.58503328495947" lon="10.782537276267746"><ele>255.79999999999998</ele><time>2026-04-26T08:07:43Z</time></trkpt><trkpt lat="45.58509238073058" lon="10.782447598698571"><ele>256.4</ele><time>2026-04-26T08:07:45Z</time></trkpt><trkpt lat="45.585160092844696" lon="10.782423229406204"><ele>257.0</ele><time>2026-04-26T08:07:47Z</time></trkpt><trkpt lat="45.58523904931297" lon="10.782516171611514"><ele>257.0</ele><time>2026-04-26T08:08:00Z</time></trkpt><trkpt lat="45.58529097787829" lon="10.782589125851779"><ele>257.0</ele><time>2026-04-26T08:08:01Z</time></trkpt><trkpt lat="45.58535745871845" lon="10.782667721243012"><ele>257.0</ele><time>2026-04-26T08:08:02Z</time></trkpt><trkpt lat="45.585431469076624" lon="10.782750377381415"><ele>257.0</ele><time>2026-04-26T08:08:03Z</time></trkpt><trkpt lat="45.585506998383394" lon="10.782837434902156"><ele>257.0</ele><time>2026-04-26T08:08:04Z</time></trkpt><trkpt lat="45.585593849743276" lon="10.782924342364254"><ele>258.0</ele><time>2026-04-26T08:08:05Z</time></trkpt><trkpt lat="45.58569663996332" lon="10.782989258064896"><ele>259.0</ele><time>2026-04-26T08:08:06Z</time></trkpt><trkpt lat="45.58581727047374" lon="10.783054894144518"><ele>260.0</ele><time>2026-04-26T08:08:07Z</time></trkpt><trkpt lat="45.58593926005812" lon="10.783088895462038"><ele>261.0</ele><time>2026-04-26T08:08:08Z</time></trkpt><trkpt lat="45.58607236219805" lon="10.783129859783413"><ele>261.5</ele><time>2026-04-26T08:08:09Z</time></trkpt><trkpt lat="45.586212534376536" lon="10.783191278635247"><ele>262.0</ele><time>2026-04-26T08:08:10Z</time></trkpt><trkpt lat="45.58633856062463" lon="10.78324442306061"><ele>262.5</ele><time>2026-04-26T08:08:11Z</time></trkpt><trkpt lat="45.58645764535736" lon="10.783284474003313"><ele>263.0</ele><time>2026-04-26T08:08:12Z</time></trkpt><trkpt lat="45.58656842443902" lon="10.783360464769167"><ele>263.0</ele><time>2026-04-26T08:08:13Z</time></trkpt><trkpt lat="45.58667596303907" lon="10.783464976868574"><ele>263.0</ele><time>2026-04-26T08:08:14Z</time></trkpt><trkpt lat="45.586803789614265" lon="10.78356774930629"><ele>263.0</ele><time>2026-04-26T08:08:15Z</time></trkpt><trkpt lat="45.58693813139534" lon="10.783668210294922"><ele>263.0</ele><time>2026-04-26T08:08:16Z</time></trkpt><trkpt lat="45.58705457131607" lon="10.783756028346819"><ele>262.75</ele><time>2026-04-26T08:08:17Z</time></trkpt><trkpt lat="45.587173298536946" lon="10.783843261718234"><ele>262.5</ele><time>2026-04-26T08:08:18Z</time></trkpt><trkpt lat="45.5872860115649" lon="10.783920811216698"><ele>262.25</ele><time>2026-04-26T08:08:19Z</time></trkpt><trkpt lat="45.58739650599958" lon="10.783983707550073"><ele>262.0</ele><time>2026-04-26T08:08:20Z</time></trkpt><trkpt lat="45.587509656540234" lon="10.784028563562122"><ele>262.0</ele><time>2026-04-26T08:08:21Z</time></trkpt><trkpt lat="45.58763547227573" lon="10.784067511495207"><ele>262.0</ele><time>2026-04-26T08:08:22Z</time></trkpt><trkpt lat="45.58776614387092" lon="10.784102988064129"><ele>262.0</ele><time>2026-04-26T08:08:23Z</time></trkpt><trkpt lat="45.587878192645185" lon="10.784145035888708"><ele>262.0</ele><time>2026-04-26T08:08:24Z</time></trkpt><trkpt lat="45.58797671988264" lon="10.784209201026213"><ele>261.8333333333333</ele><time>2026-04-26T08:08:24.999Z</time></trkpt><trkpt lat="45.588068585623766" lon="10.78426867314132"><ele>261.66666666666663</ele><time>2026-04-26T08:08:25.999Z</time></trkpt><trkpt lat="45.588144953303285" lon="10.784336130225395"><ele>261.5</ele><time>2026-04-26T08:08:26.999Z</time></trkpt><trkpt lat="45.5882141767418" lon="10.784397001491623"><ele>261.3333333333333</ele><time>2026-04-26T08:08:27.999Z</time></trkpt><trkpt lat="45.58826883630092" lon="10.784449082759139"><ele>261.1666666666667</ele><time>2026-04-26T08:08:28.999Z</time></trkpt><trkpt lat="45.5883652880689" lon="10.784513933147997"><ele>261.0</ele><time>2026-04-26T08:08:30.999Z</time></trkpt><trkpt lat="45.58842189680375" lon="10.784458580867387"><ele>261.0</ele><time>2026-04-26T08:08:31.999Z</time></trkpt><trkpt lat="45.58853184332882" lon="10.784504475462699"><ele>261.0</ele><time>2026-04-26T08:08:33.999Z</time></trkpt><trkpt lat="45.58859483358372" lon="10.784571366602583"><ele>261.0</ele><time>2026-04-26T08:08:34.999Z</time></trkpt><trkpt lat="45.588673728485254" lon="10.784630272784545"><ele>261.0</ele><time>2026-04-26T08:08:35.999Z</time></trkpt><trkpt lat="45.58876771648005" lon="10.784696655055935"><ele>261.0</ele><time>2026-04-26T08:08:36.999Z</time></trkpt><trkpt lat="45.588886126646024" lon="10.784757952509771"><ele>261.0</ele><time>2026-04-26T08:08:37.999Z</time></trkpt><trkpt lat="45.588993943638386" lon="10.784854705076347"><ele>261.0</ele><time>2026-04-26T08:08:38.999Z</time></trkpt><trkpt lat="45.58909216033709" lon="10.784965372425441"><ele>261.0</ele><time>2026-04-26T08:08:39.999Z</time></trkpt><trkpt lat="45.58919289362445" lon="10.785092886565064"><ele>261.0</ele><time>2026-04-26T08:08:40.999Z</time></trkpt><trkpt lat="45.589287605275764" lon="10.785221772221709"><ele>262.0</ele><time>2026-04-26T08:08:41.999Z</time></trkpt><trkpt lat="45.589390772114974" lon="10.785358586775116"><ele>263.0</ele><time>2026-04-26T08:08:42.999Z</time></trkpt><trkpt lat="45.58949921993615" lon="10.785506907716758"><ele>264.0</ele><time>2026-04-26T08:08:43.999Z</time></trkpt><trkpt lat="45.58959229770657" lon="10.785623146285113"><ele>265.0</ele><time>2026-04-26T08:08:44.999Z</time></trkpt><trkpt lat="45.58967083756841" lon="10.78572654652977"><ele>265.0</ele><time>2026-04-26T08:08:45.999Z</time></trkpt><trkpt lat="45.58978099940567" lon="10.785823194880258"><ele>265.0</ele><time>2026-04-26T08:08:46.999Z</time></trkpt><trkpt lat="45.58989058661508" lon="10.785916544107854"><ele>265.0</ele><time>2026-04-26T08:08:47.999Z</time></trkpt><trkpt lat="45.589998635456205" lon="10.78602306103416"><ele>265.0</ele><time>2026-04-26T08:08:48.999Z</time></trkpt><trkpt lat="45.59010880694455" lon="10.786129461408065"><ele>265.5</ele><time>2026-04-26T08:08:49.999Z</time></trkpt><trkpt lat="45.59022136986608" lon="10.786248746568141"><ele>266.0</ele><time>2026-04-26T08:08:50.999Z</time></trkpt><trkpt lat="45.590332440247074" lon="10.786367234329516"><ele>266.5</ele><time>2026-04-26T08:08:51.999Z</time></trkpt><trkpt lat="45.59044413173514" lon="10.786509003189243"><ele>267.0</ele><time>2026-04-26T08:08:52.999Z</time></trkpt><trkpt lat="45.59055028454709" lon="10.786632246348406"><ele>267.0</ele><time>2026-04-26T08:08:53.999Z</time></trkpt><trkpt lat="45.5906552465399" lon="10.786758351281513"><ele>267.0</ele><time>2026-04-26T08:08:54.999Z</time></trkpt><trkpt lat="45.59076060557017" lon="10.78689711315362"><ele>267.0</ele><time>2026-04-26T08:08:55.999Z</time></trkpt><trkpt lat="45.590857723812206" lon="10.787024885214624"><ele>267.0</ele><time>2026-04-26T08:08:56.999Z</time></trkpt><trkpt lat="45.5909551326273" lon="10.78715378016343"><ele>268.0</ele><time>2026-04-26T08:08:57.999Z</time></trkpt><trkpt lat="45.59106042661472" lon="10.78727631746218"><ele>269.0</ele><time>2026-04-26T08:08:58.999Z</time></trkpt><trkpt lat="45.591167087324784" lon="10.787401066975184"><ele>270.0</ele><time>2026-04-26T08:08:59.999Z</time></trkpt><trkpt lat="45.59127360155179" lon="10.787532655746451"><ele>271.0</ele><time>2026-04-26T08:09:00.999Z</time></trkpt><trkpt lat="45.591378722212625" lon="10.78766714694618"><ele>271.25</ele><time>2026-04-26T08:09:01.999Z</time></trkpt><trkpt lat="45.59148393646137" lon="10.787809401553666"><ele>271.5</ele><time>2026-04-26T08:09:02.999Z</time></trkpt><trkpt lat="45.591591345552764" lon="10.78794463035188"><ele>271.75</ele><time>2026-04-26T08:09:03.999Z</time></trkpt><trkpt lat="45.5917041337558" lon="10.788068296146102"><ele>272.0</ele><time>2026-04-26T08:09:04.999Z</time></trkpt><trkpt lat="45.591818646881116" lon="10.788179377732995"><ele>272.0</ele><time>2026-04-26T08:09:05.999Z</time></trkpt><trkpt lat="45.59193308333248" lon="10.788304792735405"><ele>272.0</ele><time>2026-04-26T08:09:06.999Z</time></trkpt><trkpt lat="45.59204307081756" lon="10.788409350624974"><ele>272.0</ele><time>2026-04-26T08:09:07.999Z</time></trkpt><trkpt lat="45.592128809066125" lon="10.788516279954884"><ele>272.0</ele><time>2026-04-26T08:09:08.999Z</time></trkpt><trkpt lat="45.59219561880442" lon="10.78861678863133"><ele>272.2</ele><time>2026-04-26T08:09:09.999Z</time></trkpt><trkpt lat="45.59226389702116" lon="10.788715099047321"><ele>272.4</ele><time>2026-04-26T08:09:10.999Z</time></trkpt><trkpt lat="45.59233498092626" lon="10.788816785246395"><ele>272.6</ele><time>2026-04-26T08:09:11.999Z</time></trkpt><trkpt lat="45.59241808162258" lon="10.788878802384168"><ele>272.8</ele><time>2026-04-26T08:09:12.999Z</time></trkpt><trkpt lat="45.59249638923004" lon="10.788922831621639"><ele>273.0</ele><time>2026-04-26T08:09:13.999Z</time></trkpt><trkpt lat="45.592582423242234" lon="10.788978971652233"><ele>273.0</ele><time>2026-04-26T08:09:14.999Z</time></trkpt><trkpt lat="45.59264379130842" lon="10.789098341644994"><ele>273.0</ele><time>2026-04-26T08:09:15.999Z</time></trkpt><trkpt lat="45.59272929452984" lon="10.789184445909575"><ele>273.0</ele><time>2026-04-26T08:09:16.999Z</time></trkpt><trkpt lat="45.59281260135709" lon="10.789296488665391"><ele>273.0</ele><time>2026-04-26T08:09:17.999Z</time></trkpt><trkpt lat="45.59290164482849" lon="10.789395440858971"><ele>273.0</ele><time>2026-04-26T08:09:18.999Z</time></trkpt><trkpt lat="45.59297460802901" lon="10.78948903549882"><ele>273.8</ele><time>2026-04-26T08:09:19.999Z</time></trkpt><trkpt lat="45.593058954580414" lon="10.789613847502647"><ele>274.6</ele><time>2026-04-26T08:09:22Z</time></trkpt><trkpt lat="45.59303894462096" lon="10.789752209657555"><ele>275.4</ele><time>2026-04-26T08:09:24Z</time></trkpt><trkpt lat="45.59299007021491" lon="10.78981606436612"><ele>276.2</ele><time>2026-04-26T08:09:25Z</time></trkpt><trkpt lat="45.59292584411681" lon="10.789907885842734"><ele>277.0</ele><time>2026-04-26T08:09:26Z</time></trkpt><trkpt lat="45.5928669234645" lon="10.789981745500608"><ele>276.6</ele><time>2026-04-26T08:09:27Z</time></trkpt><trkpt lat="45.59279878244858" lon="10.790064421421725"><ele>276.2</ele><time>2026-04-26T08:09:29Z</time></trkpt><trkpt lat="45.59290798163867" lon="10.790195959826304"><ele>275.8</ele><time>2026-04-26T08:09:31Z</time></trkpt><trkpt lat="45.59296589216405" lon="10.790275279640172"><ele>275.4</ele><time>2026-04-26T08:09:32Z</time></trkpt><trkpt lat="45.59303054041789" lon="10.79035816975142"><ele>275.0</ele><time>2026-04-26T08:09:33Z</time></trkpt><trkpt lat="45.59310394078928" lon="10.790480457528357"><ele>275.8</ele><time>2026-04-26T08:09:34Z</time></trkpt><trkpt lat="45.593199056762195" lon="10.790605659334306"><ele>276.6</ele><time>2026-04-26T08:09:35Z</time></trkpt><trkpt lat="45.59327812850735" lon="10.79071861078784"><ele>277.4</ele><time>2026-04-26T08:09:36Z</time></trkpt><trkpt lat="45.59335850027964" lon="10.790789565942609"><ele>278.2</ele><time>2026-04-26T08:09:37Z</time></trkpt><trkpt lat="45.593408070057585" lon="10.790902456901971"><ele>279.0</ele><time>2026-04-26T08:09:38Z</time></trkpt><trkpt lat="45.593465809473656" lon="10.791025834823472"><ele>279.59999999999997</ele><time>2026-04-26T08:09:39Z</time></trkpt><trkpt lat="45.59356426144853" lon="10.791116714353535"><ele>280.2</ele><time>2026-04-26T08:09:40Z</time></trkpt><trkpt lat="45.593623812722264" lon="10.79121367140751"><ele>280.79999999999995</ele><time>2026-04-26T08:09:41Z</time></trkpt><trkpt lat="45.59370543741594" lon="10.791318721418557"><ele>281.4</ele><time>2026-04-26T08:09:42Z</time></trkpt><trkpt lat="45.59379180632535" lon="10.7914362513328"><ele>282.0</ele><time>2026-04-26T08:09:43Z</time></trkpt><trkpt lat="45.59386948989461" lon="10.79153612175459"><ele>282.0</ele><time>2026-04-26T08:09:44Z</time></trkpt><trkpt lat="45.59392405138582" lon="10.791642691014246"><ele>282.0</ele><time>2026-04-26T08:09:45Z</time></trkpt><trkpt lat="45.59396676854823" lon="10.79177473444049"><ele>282.0</ele><time>2026-04-26T08:09:46Z</time></trkpt><trkpt lat="45.594017730530936" lon="10.791928269230228"><ele>282.0</ele><time>2026-04-26T08:09:47Z</time></trkpt><trkpt lat="45.59405891727103" lon="10.792063096532553"><ele>282.0</ele><time>2026-04-26T08:09:48Z</time></trkpt><trkpt lat="45.59410541866162" lon="10.792175845751716"><ele>282.6666666666667</ele><time>2026-04-26T08:09:49Z</time></trkpt><trkpt lat="45.59416629320735" lon="10.792260384649534"><ele>283.3333333333333</ele><time>2026-04-26T08:09:50Z</time></trkpt><trkpt lat="45.59423641243503" lon="10.79234605320592"><ele>284.0</ele><time>2026-04-26T08:09:51Z</time></trkpt><trkpt lat="45.59431056463156" lon="10.7924077694457"><ele>284.66666666666663</ele><time>2026-04-26T08:09:52Z</time></trkpt><trkpt lat="45.59436963105475" lon="10.79248877901045"><ele>285.3333333333333</ele><time>2026-04-26T08:09:53Z</time></trkpt><trkpt lat="45.594430954738435" lon="10.792578879080077"><ele>286.0</ele><time>2026-04-26T08:09:54Z</time></trkpt><trkpt lat="45.594498992388026" lon="10.792709598936472"><ele>285.75</ele><time>2026-04-26T08:09:55Z</time></trkpt><trkpt lat="45.5945893938413" lon="10.792851015579062"><ele>285.5</ele><time>2026-04-26T08:09:56Z</time></trkpt><trkpt lat="45.5946772842956" lon="10.792983701214188"><ele>285.25</ele><time>2026-04-26T08:09:57Z</time></trkpt><trkpt lat="45.594771248830305" lon="10.793148288226455"><ele>285.0</ele><time>2026-04-26T08:09:58Z</time></trkpt><trkpt lat="45.59483107735232" lon="10.793288903359095"><ele>285.0</ele><time>2026-04-26T08:09:59Z</time></trkpt><trkpt lat="45.59487652750215" lon="10.793424545897727"><ele>285.0</ele><time>2026-04-26T08:10:00Z</time></trkpt><trkpt lat="45.59495319905085" lon="10.793530884643948"><ele>285.0</ele><time>2026-04-26T08:10:01Z</time></trkpt><trkpt lat="45.595028603138346" lon="10.793656598203967"><ele>285.0</ele><time>2026-04-26T08:10:02Z</time></trkpt><trkpt lat="45.59512275947856" lon="10.793739505324464"><ele>285.0</ele><time>2026-04-26T08:10:03Z</time></trkpt><trkpt lat="45.595207171962976" lon="10.79385391914791"><ele>284.8</ele><time>2026-04-26T08:10:04Z</time></trkpt><trkpt lat="45.5952949084233" lon="10.793969101646578"><ele>284.6</ele><time>2026-04-26T08:10:05Z</time></trkpt><trkpt lat="45.5953619494165" lon="10.794077110779265"><ele>284.4</ele><time>2026-04-26T08:10:06Z</time></trkpt><trkpt lat="45.59542920502066" lon="10.794178694300339"><ele>284.2</ele><time>2026-04-26T08:10:07Z</time></trkpt><trkpt lat="45.59549012869957" lon="10.79427828478826"><ele>284.0</ele><time>2026-04-26T08:10:08Z</time></trkpt><trkpt lat="45.59554257477769" lon="10.794347332506288"><ele>284.0</ele><time>2026-04-26T08:10:09Z</time></trkpt><trkpt lat="45.59560874987303" lon="10.794453795486579"><ele>284.0</ele><time>2026-04-26T08:10:11Z</time></trkpt><trkpt lat="45.595702867488285" lon="10.794529214542141"><ele>284.0</ele><time>2026-04-26T08:10:14.999Z</time></trkpt><trkpt lat="45.59586586953123" lon="10.794494065651742"><ele>284.0</ele><time>2026-04-26T08:10:16.999Z</time></trkpt><trkpt lat="45.59596499201307" lon="10.794470371132398"><ele>284.0</ele><time>2026-04-26T08:10:17.999Z</time></trkpt><trkpt lat="45.596069956874274" lon="10.794445432748958"><ele>284.0</ele><time>2026-04-26T08:10:18.999Z</time></trkpt><trkpt lat="45.59617518605402" lon="10.794401790747509"><ele>284.0</ele><time>2026-04-26T08:10:19.999Z</time></trkpt><trkpt lat="45.59628173265367" lon="10.79440129062211"><ele>284.0</ele><time>2026-04-26T08:10:20.999Z</time></trkpt><trkpt lat="45.59634683484969" lon="10.794388675467369"><ele>284.0</ele><time>2026-04-26T08:10:21.999Z</time></trkpt><trkpt lat="45.59644977857678" lon="10.794367819926276"><ele>282.0</ele><time>2026-04-26T08:10:22.999Z</time></trkpt><trkpt lat="45.59657675769732" lon="10.794336017789893"><ele>280.0</ele><time>2026-04-26T08:10:23.999Z</time></trkpt><trkpt lat="45.596692861412755" lon="10.794313444331586"><ele>278.0</ele><time>2026-04-26T08:10:24.999Z</time></trkpt><trkpt lat="45.59680122348559" lon="10.794301036193755"><ele>276.0</ele><time>2026-04-26T08:10:25.999Z</time></trkpt><trkpt lat="45.596886615102186" lon="10.794297469622247"><ele>274.0</ele><time>2026-04-26T08:10:26.999Z</time></trkpt><trkpt lat="45.597024823071244" lon="10.794295921367771"><ele>272.4</ele><time>2026-04-26T08:10:27.999Z</time></trkpt><trkpt lat="45.597118278666834" lon="10.79428167215321"><ele>270.79999999999995</ele><time>2026-04-26T08:10:28.999Z</time></trkpt><trkpt lat="45.59719812761407" lon="10.794317830571421"><ele>269.20000000000005</ele><time>2026-04-26T08:10:29.999Z</time></trkpt><trkpt lat="45.59727843995294" lon="10.794360459489864"><ele>267.6</ele><time>2026-04-26T08:10:30.999Z</time></trkpt><trkpt lat="45.59737800626596" lon="10.7944546633531"><ele>266.0</ele><time>2026-04-26T08:10:31.999Z</time></trkpt><trkpt lat="45.597486018327096" lon="10.794533261016683"><ele>266.0</ele><time>2026-04-26T08:10:32.999Z</time></trkpt><trkpt lat="45.597608818730855" lon="10.794614510202729"><ele>266.0</ele><time>2026-04-26T08:10:33.999Z</time></trkpt><trkpt lat="45.59772364935474" lon="10.794689018340334"><ele>266.0</ele><time>2026-04-26T08:10:34.999Z</time></trkpt><trkpt lat="45.59783587826841" lon="10.794757153998102"><ele>266.0</ele><time>2026-04-26T08:10:35.999Z</time></trkpt><trkpt lat="45.59794170372578" lon="10.79481271600036"><ele>264.1666666666667</ele><time>2026-04-26T08:10:36.999Z</time></trkpt><trkpt lat="45.59803197340761" lon="10.794867480422482"><ele>262.33333333333337</ele><time>2026-04-26T08:10:37.999Z</time></trkpt><trkpt lat="45.59810613627805" lon="10.794940705499295"><ele>260.5</ele><time>2026-04-26T08:10:38.999Z</time></trkpt><trkpt lat="45.59815822747565" lon="10.795023196795254"><ele>258.6666666666667</ele><time>2026-04-26T08:10:39.999Z</time></trkpt><trkpt lat="45.598211734307256" lon="10.795093630702688"><ele>256.8333333333333</ele><time>2026-04-26T08:10:40.999Z</time></trkpt><trkpt lat="45.598285535648024" lon="10.795131676312199"><ele>255.0</ele><time>2026-04-26T08:10:41.999Z</time></trkpt><trkpt lat="45.59838636052681" lon="10.79511613930178"><ele>255.0</ele><time>2026-04-26T08:10:42.999Z</time></trkpt><trkpt lat="45.59852409546305" lon="10.795078058277976"><ele>255.0</ele><time>2026-04-26T08:10:43.999Z</time></trkpt><trkpt lat="45.59868179969426" lon="10.795049163835671"><ele>255.0</ele><time>2026-04-26T08:10:44.999Z</time></trkpt><trkpt lat="45.59886396791329" lon="10.794969060151077"><ele>254.0</ele><time>2026-04-26T08:10:45.999Z</time></trkpt><trkpt lat="45.598981009331396" lon="10.794882313925992"><ele>253.0</ele><time>2026-04-26T08:10:46.999Z</time></trkpt><trkpt lat="45.59908930621072" lon="10.794806570208658"><ele>252.0</ele><time>2026-04-26T08:10:47.999Z</time></trkpt><trkpt lat="45.599181797369816" lon="10.794763988637015"><ele>251.0</ele><time>2026-04-26T08:10:48.999Z</time></trkpt><trkpt lat="45.59927779678262" lon="10.79475073022052"><ele>250.0</ele><time>2026-04-26T08:10:49.999Z</time></trkpt><trkpt lat="45.59936730842378" lon="10.794751360292123"><ele>250.0</ele><time>2026-04-26T08:10:50.999Z</time></trkpt><trkpt lat="45.59944855101303" lon="10.794755777305557"><ele>250.0</ele><time>2026-04-26T08:10:51.999Z</time></trkpt><trkpt lat="45.599535721602145" lon="10.79474568684427"><ele>250.0</ele><time>2026-04-26T08:10:52.999Z</time></trkpt><trkpt lat="45.59964777051502" lon="10.794724190718279"><ele>250.0</ele><time>2026-04-26T08:10:54.999Z</time></trkpt><trkpt lat="45.59974646394456" lon="10.79470940725395"><ele>250.0</ele><time>2026-04-26T08:10:56.999Z</time></trkpt><trkpt lat="45.59987572631587" lon="10.794694047611731"><ele>249.75</ele><time>2026-04-26T08:10:58.999Z</time></trkpt><trkpt lat="45.59999786908337" lon="10.794672144878227"><ele>249.5</ele><time>2026-04-26T08:10:59.999Z</time></trkpt><trkpt lat="45.60012564204438" lon="10.794653263933114"><ele>249.25</ele><time>2026-04-26T08:11:00.999Z</time></trkpt><trkpt lat="45.60023052249558" lon="10.794622057422155"><ele>249.0</ele><time>2026-04-26T08:11:01.999Z</time></trkpt><trkpt lat="45.6003374101015" lon="10.794597158096952"><ele>249.0</ele><time>2026-04-26T08:11:02.999Z</time></trkpt><trkpt lat="45.600441681349466" lon="10.794573811693668"><ele>248.99999999999997</ele><time>2026-04-26T08:11:03.999Z</time></trkpt><trkpt lat="45.600531207977546" lon="10.794553487685867"><ele>248.99999999999997</ele><time>2026-04-26T08:11:04.999Z</time></trkpt><trkpt lat="45.60061102876303" lon="10.794525998111679"><ele>249.0</ele><time>2026-04-26T08:11:05.999Z</time></trkpt><trkpt lat="45.60070634368223" lon="10.79448238431319"><ele>249.0</ele><time>2026-04-26T08:11:07.999Z</time></trkpt><trkpt lat="45.60078728769324" lon="10.794446296005122"><ele>249.0</ele><time>2026-04-26T08:11:09.999Z</time></trkpt><trkpt lat="45.600898763842004" lon="10.794632454737169"><ele>249.0</ele><time>2026-04-26T08:11:10.999Z</time></trkpt><trkpt lat="45.6010054874543" lon="10.794787372976694"><ele>249.0</ele><time>2026-04-26T08:11:11.999Z</time></trkpt><trkpt lat="45.60112052534908" lon="10.794941059194642"><ele>248.75</ele><time>2026-04-26T08:11:12.999Z</time></trkpt><trkpt lat="45.60125220106131" lon="10.795048670056627"><ele>248.5</ele><time>2026-04-26T08:11:13.999Z</time></trkpt><trkpt lat="45.6013784552603" lon="10.795134835940587"><ele>248.25</ele><time>2026-04-26T08:11:14.999Z</time></trkpt><trkpt lat="45.60151030235684" lon="10.795193901359978"><ele>248.0</ele><time>2026-04-26T08:11:15.999Z</time></trkpt><trkpt lat="45.60165130968629" lon="10.795214890577949"><ele>248.5</ele><time>2026-04-26T08:11:16.999Z</time></trkpt><trkpt lat="45.60180628479585" lon="10.795198839825467"><ele>249.0</ele><time>2026-04-26T08:11:17.999Z</time></trkpt><trkpt lat="45.60194448721953" lon="10.795171259864617"><ele>249.5</ele><time>2026-04-26T08:11:18.999Z</time></trkpt><trkpt lat="45.602081610563395" lon="10.795165143434671"><ele>250.0</ele><time>2026-04-26T08:11:19.999Z</time></trkpt><trkpt lat="45.60220621134156" lon="10.795188174222199"><ele>250.2</ele><time>2026-04-26T08:11:20.999Z</time></trkpt><trkpt lat="45.60231559241112" lon="10.795205838319193"><ele>250.4</ele><time>2026-04-26T08:11:21.999Z</time></trkpt><trkpt lat="45.6024108514167" lon="10.795191867344622"><ele>250.60000000000002</ele><time>2026-04-26T08:11:22.999Z</time></trkpt><trkpt lat="45.602496603551" lon="10.795206343619611"><ele>250.8</ele><time>2026-04-26T08:11:23.999Z</time></trkpt><trkpt lat="45.60255656907734" lon="10.79524451410787"><ele>251.0</ele><time>2026-04-26T08:11:24.999Z</time></trkpt><trkpt lat="45.60262192412213" lon="10.795352901929949"><ele>251.0</ele><time>2026-04-26T08:11:25.999Z</time></trkpt><trkpt lat="45.60270419398629" lon="10.795499933159325"><ele>251.0</ele><time>2026-04-26T08:11:26.999Z</time></trkpt><trkpt lat="45.60270545874041" lon="10.795648775806242"><ele>251.0</ele><time>2026-04-26T08:11:28Z</time></trkpt><trkpt lat="45.60273772136664" lon="10.795812419366321"><ele>251.0</ele><time>2026-04-26T08:11:29Z</time></trkpt><trkpt lat="45.602730230089335" lon="10.796026857522632"><ele>251.0</ele><time>2026-04-26T08:11:30Z</time></trkpt><trkpt lat="45.60272316212891" lon="10.796244692686582"><ele>251.0</ele><time>2026-04-26T08:11:31Z</time></trkpt><trkpt lat="45.60272296776749" lon="10.79642449902418"><ele>251.0</ele><time>2026-04-26T08:11:32Z</time></trkpt><trkpt lat="45.602728710520914" lon="10.796595412578991"><ele>251.0</ele><time>2026-04-26T08:11:33Z</time></trkpt><trkpt lat="45.602746207370764" lon="10.79675890170318"><ele>251.0</ele><time>2026-04-26T08:11:34Z</time></trkpt><trkpt lat="45.6027619140495" lon="10.79692586079365"><ele>251.00000000000003</ele><time>2026-04-26T08:11:35Z</time></trkpt><trkpt lat="45.602774596707825" lon="10.79707297843288"><ele>251.00000000000003</ele><time>2026-04-26T08:11:36Z</time></trkpt><trkpt lat="45.60279375089483" lon="10.797196367293019"><ele>251.0</ele><time>2026-04-26T08:11:37Z</time></trkpt><trkpt lat="45.60284793233996" lon="10.797281882508656"><ele>251.0</ele><time>2026-04-26T08:11:38Z</time></trkpt><trkpt lat="45.60294352876919" lon="10.797299115723272"><ele>251.0</ele><time>2026-04-26T08:11:39Z</time></trkpt><trkpt lat="45.603068329840156" lon="10.79738109002646"><ele>251.00000000000003</ele><time>2026-04-26T08:11:40Z</time></trkpt><trkpt lat="45.6031632955131" lon="10.797444335943528"><ele>251.00000000000003</ele><time>2026-04-26T08:11:41Z</time></trkpt><trkpt lat="45.60321123358992" lon="10.797523741916155"><ele>251.0</ele><time>2026-04-26T08:11:42Z</time></trkpt><trkpt lat="45.6032152947241" lon="10.797619163994309"><ele>251.0</ele><time>2026-04-26T08:11:43Z</time></trkpt><trkpt lat="45.60318904699946" lon="10.797783288926933"><ele>251.0</ele><time>2026-04-26T08:11:44Z</time></trkpt><trkpt lat="45.6031708812654" lon="10.797962053731569"><ele>251.00000000000003</ele><time>2026-04-26T08:11:45Z</time></trkpt><trkpt lat="45.603213147834225" lon="10.79809240425747"><ele>251.00000000000003</ele><time>2026-04-26T08:11:46Z</time></trkpt><trkpt lat="45.603263444892775" lon="10.798179709875917"><ele>251.0</ele><time>2026-04-26T08:11:47Z</time></trkpt><trkpt lat="45.603369444702594" lon="10.798236148990478"><ele>251.0</ele><time>2026-04-26T08:11:48Z</time></trkpt><trkpt lat="45.60350854080725" lon="10.79829780194827"><ele>251.33333333333334</ele><time>2026-04-26T08:11:49Z</time></trkpt><trkpt lat="45.60367217431019" lon="10.798356643820211"><ele>251.66666666666669</ele><time>2026-04-26T08:11:50Z</time></trkpt><trkpt lat="45.60382791420607" lon="10.798432361967588"><ele>252.0</ele><time>2026-04-26T08:11:51Z</time></trkpt><trkpt lat="45.6040125615478" lon="10.798512121960329"><ele>252.0</ele><time>2026-04-26T08:11:52Z</time></trkpt><trkpt lat="45.60413610272479" lon="10.798602362686454"><ele>252.0</ele><time>2026-04-26T08:11:53Z</time></trkpt><trkpt lat="45.60426694282996" lon="10.798692167546244"><ele>252.0</ele><time>2026-04-26T08:11:54Z</time></trkpt><trkpt lat="45.604410606984125" lon="10.798767551832835"><ele>252.0</ele><time>2026-04-26T08:11:55Z</time></trkpt><trkpt lat="45.60452392802319" lon="10.798819474792753"><ele>252.0</ele><time>2026-04-26T08:11:56Z</time></trkpt><trkpt lat="45.60466287453218" lon="10.798892215943807"><ele>252.0</ele><time>2026-04-26T08:11:57Z</time></trkpt><trkpt lat="45.60480032696601" lon="10.798971816172898"><ele>252.0</ele><time>2026-04-26T08:11:58Z</time></trkpt><trkpt lat="45.604919734704495" lon="10.799046860657958"><ele>252.0</ele><time>2026-04-26T08:11:59Z</time></trkpt><trkpt lat="45.605032302126546" lon="10.799113036092173"><ele>252.0</ele><time>2026-04-26T08:12:00Z</time></trkpt><trkpt lat="45.60515204802556" lon="10.799180980865556"><ele>252.0</ele><time>2026-04-26T08:12:01Z</time></trkpt><trkpt lat="45.60525793258501" lon="10.799260482011434"><ele>252.0</ele><time>2026-04-26T08:12:02Z</time></trkpt><trkpt lat="45.60534895153174" lon="10.799323730649167"><ele>252.0</ele><time>2026-04-26T08:12:03Z</time></trkpt><trkpt lat="45.605439434613125" lon="10.799357056948134"><ele>252.0</ele><time>2026-04-26T08:12:04Z</time></trkpt><trkpt lat="45.605501223697004" lon="10.799609033838847"><ele>255.0</ele><time>2026-04-26T08:12:06Z</time></trkpt><trkpt lat="45.605529053956495" lon="10.799786697594545"><ele>258.0</ele><time>2026-04-26T08:12:07Z</time></trkpt><trkpt lat="45.605510015058314" lon="10.80002937942726"><ele>261.0</ele><time>2026-04-26T08:12:08Z</time></trkpt><trkpt lat="45.60546759148233" lon="10.800253414922182"><ele>261.6666666666667</ele><time>2026-04-26T08:12:09Z</time></trkpt><trkpt lat="45.605424502434005" lon="10.8004962821974"><ele>262.33333333333337</ele><time>2026-04-26T08:12:10Z</time></trkpt><trkpt lat="45.605393054688854" lon="10.800742358731815"><ele>263.0</ele><time>2026-04-26T08:12:11Z</time></trkpt><trkpt lat="45.60536893625245" lon="10.80099290868641"><ele>264.6666666666667</ele><time>2026-04-26T08:12:12Z</time></trkpt><trkpt lat="45.60534496984223" lon="10.801250758622375"><ele>266.3333333333333</ele><time>2026-04-26T08:12:13Z</time></trkpt><trkpt lat="45.60532180982249" lon="10.801521279381728"><ele>268.0</ele><time>2026-04-26T08:12:14Z</time></trkpt><trkpt lat="45.60530324428346" lon="10.80178850195246"><ele>264.0</ele><time>2026-04-26T08:12:15Z</time></trkpt><trkpt lat="45.60528695729631" lon="10.80203075516332"><ele>260.0</ele><time>2026-04-26T08:12:16Z</time></trkpt><trkpt lat="45.60527188977666" lon="10.802265125496737"><ele>256.0</ele><time>2026-04-26T08:12:17Z</time></trkpt><trkpt lat="45.605262122679164" lon="10.802493142927661"><ele>256.3333333333333</ele><time>2026-04-26T08:12:18Z</time></trkpt><trkpt lat="45.605247323903704" lon="10.802708445742155"><ele>256.6666666666667</ele><time>2026-04-26T08:12:19Z</time></trkpt><trkpt lat="45.605229056020406" lon="10.802924271143418"><ele>257.0</ele><time>2026-04-26T08:12:20Z</time></trkpt><trkpt lat="45.60521280508981" lon="10.803149000449505"><ele>257.0</ele><time>2026-04-26T08:12:21Z</time></trkpt><trkpt lat="45.605197512006434" lon="10.803383522658908"><ele>257.0</ele><time>2026-04-26T08:12:22Z</time></trkpt><trkpt lat="45.60515764998352" lon="10.803629774057555"><ele>257.0</ele><time>2026-04-26T08:12:23Z</time></trkpt><trkpt lat="45.60514705444927" lon="10.803858142584406"><ele>257.75</ele><time>2026-04-26T08:12:24Z</time></trkpt><trkpt lat="45.60512944339941" lon="10.80406308036171"><ele>258.5</ele><time>2026-04-26T08:12:25Z</time></trkpt><trkpt lat="45.60510635349684" lon="10.804271445104723"><ele>259.25</ele><time>2026-04-26T08:12:25.999Z</time></trkpt><trkpt lat="45.60510571007298" lon="10.80448064037698"><ele>260.0</ele><time>2026-04-26T08:12:26.999Z</time></trkpt><trkpt lat="45.60510291819935" lon="10.80466853107468"><ele>260.2</ele><time>2026-04-26T08:12:27.999Z</time></trkpt><trkpt lat="45.60510271109639" lon="10.804834915115833"><ele>260.4</ele><time>2026-04-26T08:12:28.999Z</time></trkpt><trkpt lat="45.60510271108902" lon="10.804958999818497"><ele>260.6</ele><time>2026-04-26T08:12:29.999Z</time></trkpt><trkpt lat="45.60510271108795" lon="10.80504935604003"><ele>260.8</ele><time>2026-04-26T08:12:30.999Z</time></trkpt><trkpt lat="45.60511595225392" lon="10.80518287003364"><ele>261.0</ele><time>2026-04-26T08:12:32.999Z</time></trkpt><trkpt lat="45.605159304669904" lon="10.80533510757222"><ele>261.0</ele><time>2026-04-26T08:12:34.999Z</time></trkpt><trkpt lat="45.605227938657535" lon="10.805409051970472"><ele>261.0</ele><time>2026-04-26T08:12:35.999Z</time></trkpt><trkpt lat="45.6053345666795" lon="10.805506101328048"><ele>261.0</ele><time>2026-04-26T08:12:36.999Z</time></trkpt><trkpt lat="45.605433760700734" lon="10.80560614741524"><ele>261.0</ele><time>2026-04-26T08:12:37.999Z</time></trkpt><trkpt lat="45.60550356505649" lon="10.8057267290708"><ele>261.0</ele><time>2026-04-26T08:12:38.999Z</time></trkpt><trkpt lat="45.60556258985537" lon="10.8059132981552"><ele>262.3333333333333</ele><time>2026-04-26T08:12:39.999Z</time></trkpt><trkpt lat="45.605613150972786" lon="10.806130782061434"><ele>263.66666666666663</ele><time>2026-04-26T08:12:40.999Z</time></trkpt><trkpt lat="45.60567032750853" lon="10.80638677161727"><ele>265.0</ele><time>2026-04-26T08:12:41.999Z</time></trkpt><trkpt lat="45.605751027063484" lon="10.806643881457333"><ele>264.66666666666663</ele><time>2026-04-26T08:12:42.999Z</time></trkpt><trkpt lat="45.6058011974616" lon="10.806879397922122"><ele>264.3333333333333</ele><time>2026-04-26T08:12:43.999Z</time></trkpt><trkpt lat="45.60585655096725" lon="10.807085438378845"><ele>264.0</ele><time>2026-04-26T08:12:44.999Z</time></trkpt><trkpt lat="45.60590698204594" lon="10.807287265056807"><ele>264.0</ele><time>2026-04-26T08:12:45.999Z</time></trkpt><trkpt lat="45.605954120020144" lon="10.80745884259725"><ele>264.0</ele><time>2026-04-26T08:12:46.999Z</time></trkpt><trkpt lat="45.606003091057666" lon="10.807606458325658"><ele>264.0</ele><time>2026-04-26T08:12:47.999Z</time></trkpt><trkpt lat="45.60604352867796" lon="10.80774182569509"><ele>264.0</ele><time>2026-04-26T08:12:48.999Z</time></trkpt><trkpt lat="45.606071849433945" lon="10.80785568324895"><ele>264.0</ele><time>2026-04-26T08:12:49.999Z</time></trkpt><trkpt lat="45.60611046121435" lon="10.807991819953566"><ele>264.0</ele><time>2026-04-26T08:12:50.999Z</time></trkpt><trkpt lat="45.60614987864542" lon="10.808158076241325"><ele>264.0</ele><time>2026-04-26T08:12:51.999Z</time></trkpt><trkpt lat="45.60617126881002" lon="10.808315335622604"><ele>264.0</ele><time>2026-04-26T08:12:52.999Z</time></trkpt><trkpt lat="45.60619838028464" lon="10.808454188503813"><ele>264.0</ele><time>2026-04-26T08:12:53.999Z</time></trkpt><trkpt lat="45.60622956953275" lon="10.80858143828644"><ele>264.0</ele><time>2026-04-26T08:12:54.999Z</time></trkpt><trkpt lat="45.60628083911055" lon="10.808677948862146"><ele>264.75</ele><time>2026-04-26T08:12:55.999Z</time></trkpt><trkpt lat="45.606359713154085" lon="10.80879033389074"><ele>265.5</ele><time>2026-04-26T08:12:56.999Z</time></trkpt><trkpt lat="45.60646240561206" lon="10.808920088348653"><ele>266.25</ele><time>2026-04-26T08:12:57.999Z</time></trkpt><trkpt lat="45.60657238863132" lon="10.809064801007969"><ele>267.0</ele><time>2026-04-26T08:12:58.999Z</time></trkpt><trkpt lat="45.60668038667271" lon="10.809192682908064"><ele>267.0</ele><time>2026-04-26T08:12:59.999Z</time></trkpt><trkpt lat="45.60676924243199" lon="10.809292720772874"><ele>267.0</ele><time>2026-04-26T08:13:00.999Z</time></trkpt><trkpt lat="45.60684166338077" lon="10.8093776403045"><ele>267.0</ele><time>2026-04-26T08:13:01.999Z</time></trkpt><trkpt lat="45.606899102516465" lon="10.809460487895995"><ele>267.0</ele><time>2026-04-26T08:13:02.999Z</time></trkpt><trkpt lat="45.606943735631766" lon="10.809552932171023"><ele>267.0</ele><time>2026-04-26T08:13:03.999Z</time></trkpt><trkpt lat="45.606977378062616" lon="10.809636722312604"><ele>267.0</ele><time>2026-04-26T08:13:04.999Z</time></trkpt><trkpt lat="45.60702716072522" lon="10.809718761213722"><ele>267.0</ele><time>2026-04-26T08:13:06.999Z</time></trkpt><trkpt lat="45.60687663115491" lon="10.809863728766402"><ele>267.0</ele><time>2026-04-26T08:13:11.999Z</time></trkpt><trkpt lat="45.606765452000985" lon="10.80992406619935"><ele>267.0</ele><time>2026-04-26T08:13:13.999Z</time></trkpt><trkpt lat="45.6066820229049" lon="10.809988300181534"><ele>267.0</ele><time>2026-04-26T08:13:15.999Z</time></trkpt><trkpt lat="45.606607498708065" lon="10.810043233065326"><ele>267.0</ele><time>2026-04-26T08:13:17.999Z</time></trkpt><trkpt lat="45.60650579502486" lon="10.81012472907795"><ele>267.0</ele><time>2026-04-26T08:13:19.999Z</time></trkpt><trkpt lat="45.606468102339385" lon="10.810247603917409"><ele>267.0</ele><time>2026-04-26T08:13:21.999Z</time></trkpt><trkpt lat="45.60640647865365" lon="10.81039078634768"><ele>267.0</ele><time>2026-04-26T08:13:23.999Z</time></trkpt><trkpt lat="45.60632048460754" lon="10.810579742447828"><ele>267.0</ele><time>2026-04-26T08:13:25.999Z</time></trkpt><trkpt lat="45.606262257862774" lon="10.810689679398859"><ele>267.0</ele><time>2026-04-26T08:13:26.999Z</time></trkpt><trkpt lat="45.606217885592905" lon="10.810778522712084"><ele>267.0</ele><time>2026-04-26T08:13:27.999Z</time></trkpt><trkpt lat="45.60618848544879" lon="10.810862992832755"><ele>267.0</ele><time>2026-04-26T08:13:28.999Z</time></trkpt><trkpt lat="45.60612642637735" lon="10.810956341369238"><ele>267.0</ele><time>2026-04-26T08:13:29.999Z</time></trkpt><trkpt lat="45.60607090487992" lon="10.811052004624761"><ele>267.0</ele><time>2026-04-26T08:13:30.999Z</time></trkpt><trkpt lat="45.60600133914296" lon="10.811148283880668"><ele>267.3333333333333</ele><time>2026-04-26T08:13:31.999Z</time></trkpt><trkpt lat="45.60594528511748" lon="10.811245240261448"><ele>267.6666666666667</ele><time>2026-04-26T08:13:32.999Z</time></trkpt><trkpt lat="45.60589236277881" lon="10.81132931041477"><ele>268.0</ele><time>2026-04-26T08:13:34Z</time></trkpt><trkpt lat="45.605850160426684" lon="10.811406883220041"><ele>268.33333333333337</ele><time>2026-04-26T08:13:35Z</time></trkpt><trkpt lat="45.60580068996467" lon="10.811480462905246"><ele>268.6666666666667</ele><time>2026-04-26T08:13:36Z</time></trkpt><trkpt lat="45.60574296629115" lon="10.811562324784418"><ele>269.0</ele><time>2026-04-26T08:13:37Z</time></trkpt><trkpt lat="45.60569283288351" lon="10.811651119897196"><ele>269.0</ele><time>2026-04-26T08:13:38Z</time></trkpt><trkpt lat="45.605656784805916" lon="10.81174323270905"><ele>269.0</ele><time>2026-04-26T08:13:39Z</time></trkpt><trkpt lat="45.60562927792972" lon="10.811852142935198"><ele>269.0</ele><time>2026-04-26T08:13:40Z</time></trkpt><trkpt lat="45.60561759671393" lon="10.811951877435325"><ele>269.0</ele><time>2026-04-26T08:13:41Z</time></trkpt><trkpt lat="45.605589820395934" lon="10.812105167107852"><ele>269.0</ele><time>2026-04-26T08:13:43Z</time></trkpt><trkpt lat="45.605569293722645" lon="10.812238614979803"><ele>269.0</ele><time>2026-04-26T08:13:49Z</time></trkpt><trkpt lat="45.605536387780205" lon="10.812367421091981"><ele>269.2</ele><time>2026-04-26T08:13:52Z</time></trkpt><trkpt lat="45.60546983650822" lon="10.812497860653155"><ele>269.4</ele><time>2026-04-26T08:13:56Z</time></trkpt><trkpt lat="45.60537640432829" lon="10.812601976925526"><ele>269.6</ele><time>2026-04-26T08:13:58Z</time></trkpt><trkpt lat="45.60532197786088" lon="10.812692647638372"><ele>269.8</ele><time>2026-04-26T08:14:00Z</time></trkpt><trkpt lat="45.60527428137238" lon="10.812862525597573"><ele>270.0</ele><time>2026-04-26T08:14:02Z</time></trkpt><trkpt lat="45.60523082386438" lon="10.812969577811073"><ele>269.6666666666667</ele><time>2026-04-26T08:14:03Z</time></trkpt><trkpt lat="45.605176700158914" lon="10.813143959259559"><ele>269.3333333333333</ele><time>2026-04-26T08:14:05Z</time></trkpt><trkpt lat="45.60514382510777" lon="10.813241476637693"><ele>269.0</ele><time>2026-04-26T08:14:06Z</time></trkpt><trkpt lat="45.60511249976367" lon="10.813354681030004"><ele>268.66666666666663</ele><time>2026-04-26T08:14:07Z</time></trkpt><trkpt lat="45.6050787579731" lon="10.813445699083031"><ele>268.3333333333333</ele><time>2026-04-26T08:14:08Z</time></trkpt><trkpt lat="45.60504666658657" lon="10.813553986018892"><ele>268.0</ele><time>2026-04-26T08:14:09Z</time></trkpt><trkpt lat="45.60501354439812" lon="10.813665738448345"><ele>268.0</ele><time>2026-04-26T08:14:10Z</time></trkpt><trkpt lat="45.60497962402436" lon="10.813777231049219"><ele>268.0</ele><time>2026-04-26T08:14:11Z</time></trkpt><trkpt lat="45.60496083594312" lon="10.813872043473726"><ele>268.0</ele><time>2026-04-26T08:14:12Z</time></trkpt><trkpt lat="45.60493926704933" lon="10.813957723853035"><ele>268.0</ele><time>2026-04-26T08:14:13Z</time></trkpt><trkpt lat="45.604912863193405" lon="10.814053907370488"><ele>268.0</ele><time>2026-04-26T08:14:14Z</time></trkpt><trkpt lat="45.60488362569891" lon="10.814148826219252"><ele>268.0</ele><time>2026-04-26T08:14:15Z</time></trkpt><trkpt lat="45.60485803257833" lon="10.81425721014467"><ele>268.0</ele><time>2026-04-26T08:14:16Z</time></trkpt><trkpt lat="45.604834786958016" lon="10.81437466212491"><ele>268.16666666666663</ele><time>2026-04-26T08:14:17Z</time></trkpt><trkpt lat="45.604805120709614" lon="10.81447985924362"><ele>268.3333333333333</ele><time>2026-04-26T08:14:18Z</time></trkpt><trkpt lat="45.60477981602855" lon="10.814593370361518"><ele>268.5</ele><time>2026-04-26T08:14:19Z</time></trkpt><trkpt lat="45.60475823738298" lon="10.814707358864709"><ele>268.6666666666667</ele><time>2026-04-26T08:14:20Z</time></trkpt><trkpt lat="45.60474349586849" lon="10.81481150120313"><ele>268.83333333333337</ele><time>2026-04-26T08:14:21Z</time></trkpt><trkpt lat="45.60472422303868" lon="10.814921330623704"><ele>269.0</ele><time>2026-04-26T08:14:22Z</time></trkpt><trkpt lat="45.604699750619666" lon="10.815029741884585"><ele>269.0</ele><time>2026-04-26T08:14:23Z</time></trkpt><trkpt lat="45.60467329067814" lon="10.815149635928144"><ele>269.0</ele><time>2026-04-26T08:14:24Z</time></trkpt><trkpt lat="45.60466665883055" lon="10.815289068450632"><ele>269.0</ele><time>2026-04-26T08:14:25Z</time></trkpt><trkpt lat="45.60464078552614" lon="10.815405285353343"><ele>269.0</ele><time>2026-04-26T08:14:26Z</time></trkpt><trkpt lat="45.60462678440583" lon="10.815519462762527"><ele>269.0</ele><time>2026-04-26T08:14:27Z</time></trkpt><trkpt lat="45.60462906435835" lon="10.815633331733371"><ele>269.0</ele><time>2026-04-26T08:14:29Z</time></trkpt><trkpt lat="45.60459771733279" lon="10.815729031583027"><ele>269.0</ele><time>2026-04-26T08:14:41Z</time></trkpt><trkpt lat="45.604606900058144" lon="10.81582854981308"><ele>269.0</ele><time>2026-04-26T08:14:45.999Z</time></trkpt><trkpt lat="45.60463703131734" lon="10.81592684983081"><ele>269.0</ele><time>2026-04-26T08:14:47.999Z</time></trkpt><trkpt lat="45.60467642754321" lon="10.816006581748427"><ele>269.0</ele><time>2026-04-26T08:14:48.999Z</time></trkpt><trkpt lat="45.604705518942964" lon="10.816166221250835"><ele>269.0</ele><time>2026-04-26T08:14:50.999Z</time></trkpt><trkpt lat="45.604709467129034" lon="10.816279564370598"><ele>269.0</ele><time>2026-04-26T08:14:51.999Z</time></trkpt><trkpt lat="45.6046288688174" lon="10.816391280759849"><ele>269.0</ele><time>2026-04-26T08:14:52.999Z</time></trkpt><trkpt lat="45.6046267673657" lon="10.816535207768412"><ele>269.0</ele><time>2026-04-26T08:14:53.999Z</time></trkpt><trkpt lat="45.604629243448926" lon="10.816647869567758"><ele>269.0</ele><time>2026-04-26T08:14:54.999Z</time></trkpt><trkpt lat="45.604633399010716" lon="10.816759959566758"><ele>269.0</ele><time>2026-04-26T08:14:55.999Z</time></trkpt><trkpt lat="45.604645474272424" lon="10.816874319465965"><ele>269.0</ele><time>2026-04-26T08:14:56.999Z</time></trkpt><trkpt lat="45.60466173216423" lon="10.816977537573743"><ele>269.0</ele><time>2026-04-26T08:14:57.999Z</time></trkpt><trkpt lat="45.60468329773514" lon="10.817081568515478"><ele>269.6666666666667</ele><time>2026-04-26T08:14:58.999Z</time></trkpt><trkpt lat="45.60471070159142" lon="10.817195360617436"><ele>270.33333333333337</ele><time>2026-04-26T08:14:59.999Z</time></trkpt><trkpt lat="45.604743241633" lon="10.81731815917397"><ele>271.0</ele><time>2026-04-26T08:15:00.999Z</time></trkpt><trkpt lat="45.60477049761958" lon="10.817438214896391"><ele>271.6666666666667</ele><time>2026-04-26T08:15:01.999Z</time></trkpt><trkpt lat="45.60478720133302" lon="10.817527523529563"><ele>272.3333333333333</ele><time>2026-04-26T08:15:02.999Z</time></trkpt><trkpt lat="45.60479797557325" lon="10.81764380107125"><ele>273.0</ele><time>2026-04-26T08:15:04.999Z</time></trkpt><trkpt lat="45.6047458284722" lon="10.81780737327946"><ele>273.2</ele><time>2026-04-26T08:15:07.999Z</time></trkpt><trkpt lat="45.604707671339895" lon="10.81791935945376"><ele>273.4</ele><time>2026-04-26T08:15:08.999Z</time></trkpt><trkpt lat="45.60465842257309" lon="10.818040250237242"><ele>273.59999999999997</ele><time>2026-04-26T08:15:09.999Z</time></trkpt><trkpt lat="45.60460850702932" lon="10.818159613703463"><ele>273.8</ele><time>2026-04-26T08:15:10.999Z</time></trkpt><trkpt lat="45.60456083282353" lon="10.818281484811182"><ele>274.0</ele><time>2026-04-26T08:15:11.999Z</time></trkpt><trkpt lat="45.604513096427034" lon="10.818407656126048"><ele>273.5</ele><time>2026-04-26T08:15:12.999Z</time></trkpt><trkpt lat="45.60446684294275" lon="10.818529535819637"><ele>273.0</ele><time>2026-04-26T08:15:13.999Z</time></trkpt><trkpt lat="45.60443214319314" lon="10.818612232836337"><ele>272.5</ele><time>2026-04-26T08:15:14.999Z</time></trkpt><trkpt lat="45.60441516643962" lon="10.81871849137871"><ele>272.0</ele><time>2026-04-26T08:15:15.999Z</time></trkpt><trkpt lat="45.60440676010077" lon="10.818816923320803"><ele>271.5</ele><time>2026-04-26T08:15:16.999Z</time></trkpt><trkpt lat="45.604385388384955" lon="10.818993687924143"><ele>271.0</ele><time>2026-04-26T08:15:18.999Z</time></trkpt><trkpt lat="45.60438826558102" lon="10.81909006785313"><ele>271.0</ele><time>2026-04-26T08:15:19.999Z</time></trkpt><trkpt lat="45.60439526783836" lon="10.81921294539333"><ele>271.0</ele><time>2026-04-26T08:15:21.999Z</time></trkpt><trkpt lat="45.60442621796552" lon="10.819379986426918"><ele>271.0</ele><time>2026-04-26T08:15:23.999Z</time></trkpt><trkpt lat="45.60445288964061" lon="10.81947867650418"><ele>271.0</ele><time>2026-04-26T08:15:24.999Z</time></trkpt><trkpt lat="45.604483181581564" lon="10.819583532260006"><ele>271.0</ele><time>2026-04-26T08:15:25.999Z</time></trkpt><trkpt lat="45.60450085176717" lon="10.819679524544206"><ele>271.0</ele><time>2026-04-26T08:15:27.999Z</time></trkpt><trkpt lat="45.604511178496274" lon="10.819872257498474"><ele>271.3333333333333</ele><time>2026-04-26T08:15:29.999Z</time></trkpt><trkpt lat="45.6045045998734" lon="10.819972714992623"><ele>271.66666666666663</ele><time>2026-04-26T08:15:30.999Z</time></trkpt><trkpt lat="45.60449164420479" lon="10.820061808184564"><ele>272.0</ele><time>2026-04-26T08:15:31.999Z</time></trkpt><trkpt lat="45.60446735323085" lon="10.820201121806367"><ele>272.3333333333333</ele><time>2026-04-26T08:15:33.999Z</time></trkpt><trkpt lat="45.60445551933668" lon="10.820312202237918"><ele>272.6666666666667</ele><time>2026-04-26T08:15:34.999Z</time></trkpt><trkpt lat="45.604442821730814" lon="10.820401392539186"><ele>273.0</ele><time>2026-04-26T08:15:35.999Z</time></trkpt><trkpt lat="45.60439924937546" lon="10.820569832485525"><ele>273.8</ele><time>2026-04-26T08:15:37.999Z</time></trkpt><trkpt lat="45.60437154881866" lon="10.820716009672743"><ele>274.6</ele><time>2026-04-26T08:15:40Z</time></trkpt><trkpt lat="45.60436982574589" lon="10.820808560178564"><ele>275.4</ele><time>2026-04-26T08:15:41Z</time></trkpt><trkpt lat="45.60433745947178" lon="10.820911581008763"><ele>276.2</ele><time>2026-04-26T08:15:42Z</time></trkpt><trkpt lat="45.604332684612274" lon="10.821033487192508"><ele>277.0</ele><time>2026-04-26T08:15:43Z</time></trkpt><trkpt lat="45.60429081320809" lon="10.821211131465876"><ele>277.8</ele><time>2026-04-26T08:15:45Z</time></trkpt><trkpt lat="45.6042774758019" lon="10.821314296543392"><ele>278.6</ele><time>2026-04-26T08:15:46Z</time></trkpt><trkpt lat="45.604255368499295" lon="10.821485297897555"><ele>279.40000000000003</ele><time>2026-04-26T08:15:48Z</time></trkpt><trkpt lat="45.604255115703" lon="10.821616069202864"><ele>280.2</ele><time>2026-04-26T08:15:49Z</time></trkpt><trkpt lat="45.604239407609185" lon="10.821746354039929"><ele>281.0</ele><time>2026-04-26T08:15:50Z</time></trkpt><trkpt lat="45.6042374290492" lon="10.821864161193465"><ele>281.75</ele><time>2026-04-26T08:15:51Z</time></trkpt><trkpt lat="45.60418228604053" lon="10.821967558948952"><ele>282.5</ele><time>2026-04-26T08:15:53Z</time></trkpt><trkpt lat="45.60405859990591" lon="10.821909673752316"><ele>283.25</ele><time>2026-04-26T08:15:55Z</time></trkpt><trkpt lat="45.60393645470709" lon="10.821859725896237"><ele>284.0</ele><time>2026-04-26T08:15:57Z</time></trkpt><trkpt lat="45.60383261389484" lon="10.821872514616246"><ele>284.0</ele><time>2026-04-26T08:15:58Z</time></trkpt><trkpt lat="45.603716122983066" lon="10.821886861284174"><ele>284.0</ele><time>2026-04-26T08:15:59Z</time></trkpt><trkpt lat="45.603639117307104" lon="10.82207991651847"><ele>284.0</ele><time>2026-04-26T08:16:00Z</time></trkpt><trkpt lat="45.60355735726552" lon="10.822110979928357"><ele>284.0</ele><time>2026-04-26T08:16:01Z</time></trkpt><trkpt lat="45.60347135629251" lon="10.82213747010256"><ele>284.0</ele><time>2026-04-26T08:16:02Z</time></trkpt><trkpt lat="45.60339449726949" lon="10.822151560099675"><ele>283.0</ele><time>2026-04-26T08:16:03Z</time></trkpt><trkpt lat="45.60332101467536" lon="10.822170223955304"><ele>282.0</ele><time>2026-04-26T08:16:04Z</time></trkpt><trkpt lat="45.60324873314408" lon="10.822200874604613"><ele>281.0</ele><time>2026-04-26T08:16:05Z</time></trkpt><trkpt lat="45.60317207002757" lon="10.822239398255647"><ele>280.0</ele><time>2026-04-26T08:16:06Z</time></trkpt><trkpt lat="45.6030945266225" lon="10.822274513206091"><ele>279.0</ele><time>2026-04-26T08:16:07Z</time></trkpt><trkpt lat="45.603025742325784" lon="10.822315455738261"><ele>278.0</ele><time>2026-04-26T08:16:08Z</time></trkpt><trkpt lat="45.60294428606509" lon="10.822364235165827"><ele>278.0</ele><time>2026-04-26T08:16:09Z</time></trkpt><trkpt lat="45.60285356512458" lon="10.82241357904721"><ele>278.0</ele><time>2026-04-26T08:16:10Z</time></trkpt><trkpt lat="45.60278113268435" lon="10.822450615444787"><ele>278.0</ele><time>2026-04-26T08:16:11Z</time></trkpt><trkpt lat="45.602703541783775" lon="10.822488858012823"><ele>278.0</ele><time>2026-04-26T08:16:12Z</time></trkpt><trkpt lat="45.60261945125006" lon="10.822529277354251"><ele>278.0</ele><time>2026-04-26T08:16:13Z</time></trkpt><trkpt lat="45.60252930711552" lon="10.822585194554726"><ele>278.0</ele><time>2026-04-26T08:16:14Z</time></trkpt><trkpt lat="45.60244613667927" lon="10.82265009648833"><ele>278.5</ele><time>2026-04-26T08:16:15Z</time></trkpt><trkpt lat="45.602365958321364" lon="10.822711160070359"><ele>279.0</ele><time>2026-04-26T08:16:16Z</time></trkpt><trkpt lat="45.60229824222986" lon="10.822754823600087"><ele>279.5</ele><time>2026-04-26T08:16:17Z</time></trkpt><trkpt lat="45.60222787786859" lon="10.822808960278968"><ele>280.0</ele><time>2026-04-26T08:16:18Z</time></trkpt><trkpt lat="45.60216005314458" lon="10.822852875528731"><ele>280.5</ele><time>2026-04-26T08:16:19Z</time></trkpt><trkpt lat="45.60207988328046" lon="10.82291200718372"><ele>281.0</ele><time>2026-04-26T08:16:20Z</time></trkpt><trkpt lat="45.6020000402357" lon="10.82297968690919"><ele>280.83333333333337</ele><time>2026-04-26T08:16:21Z</time></trkpt><trkpt lat="45.60192254918058" lon="10.823041235719566"><ele>280.6666666666667</ele><time>2026-04-26T08:16:22Z</time></trkpt><trkpt lat="45.60184155893013" lon="10.823107739768492"><ele>280.5</ele><time>2026-04-26T08:16:23Z</time></trkpt><trkpt lat="45.601765549663256" lon="10.823167319536932"><ele>280.3333333333333</ele><time>2026-04-26T08:16:24Z</time></trkpt><trkpt lat="45.601690851720925" lon="10.823232427329106"><ele>280.16666666666663</ele><time>2026-04-26T08:16:25Z</time></trkpt><trkpt lat="45.60162053332279" lon="10.823313075582194"><ele>280.0</ele><time>2026-04-26T08:16:26Z</time></trkpt><trkpt lat="45.60156898158824" lon="10.823392242046294"><ele>280.0</ele><time>2026-04-26T08:16:27Z</time></trkpt><trkpt lat="45.60152402519193" lon="10.82347694570103"><ele>280.0</ele><time>2026-04-26T08:16:28Z</time></trkpt><trkpt lat="45.601465303826885" lon="10.823582859473"><ele>280.0</ele><time>2026-04-26T08:16:30Z</time></trkpt><trkpt lat="45.60139023744201" lon="10.823622757151268"><ele>280.0</ele><time>2026-04-26T08:16:35Z</time></trkpt><trkpt lat="45.60130295407901" lon="10.823682262140007"><ele>280.0</ele><time>2026-04-26T08:16:37Z</time></trkpt><trkpt lat="45.60123052399982" lon="10.823738384565157"><ele>280.0</ele><time>2026-04-26T08:16:39Z</time></trkpt><trkpt lat="45.60114818657117" lon="10.823796508273572"><ele>281.8333333333333</ele><time>2026-04-26T08:16:41Z</time></trkpt><trkpt lat="45.60104941664309" lon="10.823857269539436"><ele>283.66666666666663</ele><time>2026-04-26T08:16:43Z</time></trkpt><trkpt lat="45.60098613688485" lon="10.82388218584157"><ele>285.5</ele><time>2026-04-26T08:16:45Z</time></trkpt><trkpt lat="45.60089561128647" lon="10.823935931233502"><ele>287.3333333333333</ele><time>2026-04-26T08:16:47Z</time></trkpt><trkpt lat="45.60083096398827" lon="10.823962321023377"><ele>289.1666666666667</ele><time>2026-04-26T08:16:48Z</time></trkpt><trkpt lat="45.60076073388901" lon="10.824010235832937"><ele>291.0</ele><time>2026-04-26T08:16:49Z</time></trkpt><trkpt lat="45.60069511445408" lon="10.824027183160352"><ele>291.0</ele><time>2026-04-26T08:16:50Z</time></trkpt><trkpt lat="45.60062748726469" lon="10.8240106655842"><ele>291.0</ele><time>2026-04-26T08:16:52Z</time></trkpt><trkpt lat="45.600568303287865" lon="10.823978846290219"><ele>291.0</ele><time>2026-04-26T08:16:53Z</time></trkpt><trkpt lat="45.600507121971475" lon="10.823931666134962"><ele>291.0</ele><time>2026-04-26T08:16:54Z</time></trkpt><trkpt lat="45.600423677261" lon="10.823901017203896"><ele>291.0</ele><time>2026-04-26T08:16:55Z</time></trkpt><trkpt lat="45.60034659260561" lon="10.823823238531416"><ele>291.0</ele><time>2026-04-26T08:16:56Z</time></trkpt><trkpt lat="45.60026654367574" lon="10.82376678879918"><ele>291.3333333333333</ele><time>2026-04-26T08:16:57Z</time></trkpt><trkpt lat="45.60018533770929" lon="10.823710907095748"><ele>291.6666666666667</ele><time>2026-04-26T08:16:58Z</time></trkpt><trkpt lat="45.6001167520226" lon="10.823684514647448"><ele>292.0</ele><time>2026-04-26T08:16:59Z</time></trkpt><trkpt lat="45.60004532859891" lon="10.823638825534049"><ele>292.33333333333337</ele><time>2026-04-26T08:17:00Z</time></trkpt><trkpt lat="45.59997165248779" lon="10.823608352288204"><ele>292.6666666666667</ele><time>2026-04-26T08:17:01Z</time></trkpt><trkpt lat="45.599895697714636" lon="10.82354586600555"><ele>293.0</ele><time>2026-04-26T08:17:02Z</time></trkpt><trkpt lat="45.59979823027666" lon="10.823484812028573"><ele>291.83333333333337</ele><time>2026-04-26T08:17:03Z</time></trkpt><trkpt lat="45.59972170223052" lon="10.823429096893713"><ele>290.6666666666667</ele><time>2026-04-26T08:17:04Z</time></trkpt><trkpt lat="45.59965919463776" lon="10.823367249438448"><ele>289.5</ele><time>2026-04-26T08:17:05Z</time></trkpt><trkpt lat="45.59959777700874" lon="10.823296612790093"><ele>288.3333333333333</ele><time>2026-04-26T08:17:06Z</time></trkpt><trkpt lat="45.59953028328513" lon="10.823254377760113"><ele>287.16666666666663</ele><time>2026-04-26T08:17:07Z</time></trkpt><trkpt lat="45.599397874453835" lon="10.82323639731807"><ele>286.0</ele><time>2026-04-26T08:17:08.999Z</time></trkpt><trkpt lat="45.599296225372804" lon="10.823214815716257"><ele>286.0</ele><time>2026-04-26T08:17:09.999Z</time></trkpt><trkpt lat="45.599204582147" lon="10.823195358502245"><ele>286.0</ele><time>2026-04-26T08:17:10.999Z</time></trkpt><trkpt lat="45.59910098740939" lon="10.823173363809365"><ele>286.0</ele><time>2026-04-26T08:17:11.999Z</time></trkpt><trkpt lat="45.5990059978651" lon="10.82315752983417"><ele>286.0</ele><time>2026-04-26T08:17:12.999Z</time></trkpt><trkpt lat="45.598909056535895" lon="10.823143471382007"><ele>286.0</ele><time>2026-04-26T08:17:13.999Z</time></trkpt><trkpt lat="45.598822667239624" lon="10.823097668003724"><ele>286.0</ele><time>2026-04-26T08:17:14.999Z</time></trkpt><trkpt lat="45.59873543205313" lon="10.823083078994308"><ele>286.0</ele><time>2026-04-26T08:17:15.999Z</time></trkpt><trkpt lat="45.59864444477583" lon="10.823049001435928"><ele>286.0</ele><time>2026-04-26T08:17:16.999Z</time></trkpt><trkpt lat="45.59855829932311" lon="10.823006397296899"><ele>286.0</ele><time>2026-04-26T08:17:17.999Z</time></trkpt><trkpt lat="45.59846527304786" lon="10.822970113098215"><ele>286.0</ele><time>2026-04-26T08:17:18.999Z</time></trkpt><trkpt lat="45.598383426522204" lon="10.822929456876736"><ele>286.5</ele><time>2026-04-26T08:17:19.999Z</time></trkpt><trkpt lat="45.598296978652655" lon="10.822902416602894"><ele>287.0</ele><time>2026-04-26T08:17:20.999Z</time></trkpt><trkpt lat="45.59821201742065" lon="10.822880326646885"><ele>287.5</ele><time>2026-04-26T08:17:21.999Z</time></trkpt><trkpt lat="45.598125500208354" lon="10.822876327313713"><ele>288.0</ele><time>2026-04-26T08:17:22.999Z</time></trkpt><trkpt lat="45.59805369624069" lon="10.82286312515587"><ele>288.5</ele><time>2026-04-26T08:17:23.999Z</time></trkpt><trkpt lat="45.597961028190696" lon="10.82285528541873"><ele>289.0</ele><time>2026-04-26T08:17:24.999Z</time></trkpt><trkpt lat="45.597867840412455" lon="10.822836742490656"><ele>287.8</ele><time>2026-04-26T08:17:25.999Z</time></trkpt><trkpt lat="45.5977629167491" lon="10.822816717753438"><ele>286.59999999999997</ele><time>2026-04-26T08:17:26.999Z</time></trkpt><trkpt lat="45.597666401939264" lon="10.822760624634052"><ele>285.4</ele><time>2026-04-26T08:17:27.999Z</time></trkpt><trkpt lat="45.59756954857353" lon="10.822736305553834"><ele>284.2</ele><time>2026-04-26T08:17:28.999Z</time></trkpt><trkpt lat="45.59747836766989" lon="10.822680160008842"><ele>283.0</ele><time>2026-04-26T08:17:29.999Z</time></trkpt><trkpt lat="45.597374920293234" lon="10.822626899988423"><ele>281.0</ele><time>2026-04-26T08:17:30.999Z</time></trkpt><trkpt lat="45.59729640050389" lon="10.82260077332367"><ele>279.0</ele><time>2026-04-26T08:17:31.999Z</time></trkpt><trkpt lat="45.59720816491797" lon="10.82256624989655"><ele>277.0</ele><time>2026-04-26T08:17:32.999Z</time></trkpt><trkpt lat="45.597114636946124" lon="10.822495044217519"><ele>275.0</ele><time>2026-04-26T08:17:33.999Z</time></trkpt><trkpt lat="45.597042328875204" lon="10.822448699703337"><ele>273.0</ele><time>2026-04-26T08:17:34.999Z</time></trkpt><trkpt lat="45.596954401963856" lon="10.822357902645951"><ele>273.0</ele><time>2026-04-26T08:17:36.999Z</time></trkpt><trkpt lat="45.596894775727286" lon="10.82222285016539"><ele>273.0</ele><time>2026-04-26T08:17:38.999Z</time></trkpt><trkpt lat="45.59682289638021" lon="10.822107878184855"><ele>273.0</ele><time>2026-04-26T08:17:40.999Z</time></trkpt><trkpt lat="45.59676382136236" lon="10.822011024933284"><ele>273.0</ele><time>2026-04-26T08:17:43.999Z</time></trkpt><trkpt lat="45.59662992692012" lon="10.822092029280894"><ele>273.0</ele><time>2026-04-26T08:17:47.999Z</time></trkpt><trkpt lat="45.59656409057459" lon="10.822165706237755"><ele>273.0</ele><time>2026-04-26T08:17:49.999Z</time></trkpt><trkpt lat="45.59648818825847" lon="10.82223786315797"><ele>273.0</ele><time>2026-04-26T08:17:50.999Z</time></trkpt><trkpt lat="45.596419833275704" lon="10.822304505235957"><ele>273.0</ele><time>2026-04-26T08:17:51.999Z</time></trkpt><trkpt lat="45.59635888056734" lon="10.822344018195155"><ele>273.0</ele><time>2026-04-26T08:17:52.999Z</time></trkpt><trkpt lat="45.596288025334516" lon="10.822393129748063"><ele>273.0</ele><time>2026-04-26T08:17:54.999Z</time></trkpt><trkpt lat="45.596226611198276" lon="10.822435695723307"><ele>273.8</ele><time>2026-04-26T08:17:55.999Z</time></trkpt><trkpt lat="45.5961279800808" lon="10.822517327809264"><ele>274.6</ele><time>2026-04-26T08:17:57.999Z</time></trkpt><trkpt lat="45.596010029742885" lon="10.822595849160514"><ele>275.4</ele><time>2026-04-26T08:18:00Z</time></trkpt><trkpt lat="45.595946906668445" lon="10.82264166073008"><ele>276.2</ele><time>2026-04-26T08:18:01Z</time></trkpt><trkpt lat="45.59587530524291" lon="10.822696367106575"><ele>277.0</ele><time>2026-04-26T08:18:02Z</time></trkpt><trkpt lat="45.59577875726607" lon="10.82278600297441"><ele>277.0</ele><time>2026-04-26T08:18:04Z</time></trkpt><trkpt lat="45.59572861796474" lon="10.822858926823097"><ele>277.0</ele><time>2026-04-26T08:18:05Z</time></trkpt><trkpt lat="45.595672189992726" lon="10.822907835677661"><ele>277.0</ele><time>2026-04-26T08:18:06Z</time></trkpt><trkpt lat="45.595573636843504" lon="10.823029149361954"><ele>277.0</ele><time>2026-04-26T08:18:08Z</time></trkpt><trkpt lat="45.595491732672016" lon="10.823148050196695"><ele>277.0</ele><time>2026-04-26T08:18:10Z</time></trkpt><trkpt lat="45.595437691752274" lon="10.823234987438708"><ele>277.0</ele><time>2026-04-26T08:18:11Z</time></trkpt><trkpt lat="45.59539189305886" lon="10.823333108655238"><ele>277.0</ele><time>2026-04-26T08:18:13Z</time></trkpt><trkpt lat="45.59533767902388" lon="10.823414848446266"><ele>277.0</ele><time>2026-04-26T08:18:15Z</time></trkpt><trkpt lat="45.59527747842631" lon="10.823496600381223"><ele>277.0</ele><time>2026-04-26T08:18:18Z</time></trkpt><trkpt lat="45.59521312488378" lon="10.82360688123263"><ele>277.0</ele><time>2026-04-26T08:18:21Z</time></trkpt><trkpt lat="45.59516014343822" lon="10.823683113436461"><ele>277.0</ele><time>2026-04-26T08:18:23Z</time></trkpt><trkpt lat="45.595096745060815" lon="10.823752771007243"><ele>276.3333333333333</ele><time>2026-04-26T08:18:25Z</time></trkpt><trkpt lat="45.59503120112077" lon="10.823842520856216"><ele>275.66666666666663</ele><time>2026-04-26T08:18:27Z</time></trkpt><trkpt lat="45.59497966928804" lon="10.823927655534419"><ele>275.0</ele><time>2026-04-26T08:18:29Z</time></trkpt><trkpt lat="45.59494266981567" lon="10.824002274613092"><ele>274.3333333333333</ele><time>2026-04-26T08:18:31Z</time></trkpt><trkpt lat="45.59487716414797" lon="10.824089910366496"><ele>273.6666666666667</ele><time>2026-04-26T08:18:34Z</time></trkpt><trkpt lat="45.594800205707436" lon="10.824151577525527"><ele>273.0</ele><time>2026-04-26T08:18:36Z</time></trkpt><trkpt lat="45.59471089273871" lon="10.824183867194453"><ele>273.0</ele><time>2026-04-26T08:18:38Z</time></trkpt><trkpt lat="45.594624302040096" lon="10.824199007540455"><ele>273.0</ele><time>2026-04-26T08:18:40Z</time></trkpt><trkpt lat="45.5945462877387" lon="10.824249719757365"><ele>273.0</ele><time>2026-04-26T08:18:42Z</time></trkpt><trkpt lat="45.59443889555514" lon="10.824265016723409"><ele>273.0</ele><time>2026-04-26T08:18:44Z</time></trkpt><trkpt lat="45.59432109573996" lon="10.82422767654985"><ele>273.0</ele><time>2026-04-26T08:18:46Z</time></trkpt><trkpt lat="45.59424670644886" lon="10.824188734235962"><ele>272.0</ele><time>2026-04-26T08:18:47Z</time></trkpt><trkpt lat="45.59417306377529" lon="10.824144433104927"><ele>271.0</ele><time>2026-04-26T08:18:48Z</time></trkpt><trkpt lat="45.59411606578872" lon="10.824101515272895"><ele>270.0</ele><time>2026-04-26T08:18:49Z</time></trkpt><trkpt lat="45.59404586534029" lon="10.824063119247294"><ele>269.0</ele><time>2026-04-26T08:18:50Z</time></trkpt><trkpt lat="45.59399570818952" lon="10.823989954165635"><ele>268.0</ele><time>2026-04-26T08:18:51Z</time></trkpt><trkpt lat="45.59393765798753" lon="10.823888125406068"><ele>267.0</ele><time>2026-04-26T08:18:53Z</time></trkpt><trkpt lat="45.593864147857936" lon="10.823756788484275"><ele>267.0</ele><time>2026-04-26T08:18:55Z</time></trkpt><trkpt lat="45.59380423047503" lon="10.823713626650266"><ele>267.0</ele><time>2026-04-26T08:18:56Z</time></trkpt><trkpt lat="45.593742071409096" lon="10.823651704068128"><ele>267.0</ele><time>2026-04-26T08:18:57Z</time></trkpt><trkpt lat="45.59366099073833" lon="10.823585447021612"><ele>267.0</ele><time>2026-04-26T08:18:58Z</time></trkpt><trkpt lat="45.59356781516371" lon="10.823528256996035"><ele>267.0</ele><time>2026-04-26T08:18:59Z</time></trkpt><trkpt lat="45.59348265835521" lon="10.823468716353494"><ele>267.0</ele><time>2026-04-26T08:19:00Z</time></trkpt><trkpt lat="45.59339088221959" lon="10.823387147493781"><ele>264.4</ele><time>2026-04-26T08:19:01Z</time></trkpt><trkpt lat="45.59329733459826" lon="10.823329433651875"><ele>261.79999999999995</ele><time>2026-04-26T08:19:02Z</time></trkpt><trkpt lat="45.593213565691826" lon="10.823296428221424"><ele>259.2</ele><time>2026-04-26T08:19:03Z</time></trkpt><trkpt lat="45.593147348211815" lon="10.823264965543318"><ele>256.59999999999997</ele><time>2026-04-26T08:19:04Z</time></trkpt><trkpt lat="45.59304548680451" lon="10.823177871024335"><ele>254.0</ele><time>2026-04-26T08:19:05.999Z</time></trkpt><trkpt lat="45.59291146079831" lon="10.823142362150334"><ele>254.2</ele><time>2026-04-26T08:19:07.999Z</time></trkpt><trkpt lat="45.592838109156766" lon="10.823157357891041"><ele>254.39999999999998</ele><time>2026-04-26T08:19:08.999Z</time></trkpt><trkpt lat="45.59275621158491" lon="10.823160673085999"><ele>254.6</ele><time>2026-04-26T08:19:09.999Z</time></trkpt><trkpt lat="45.5926953250614" lon="10.823136541825644"><ele>254.8</ele><time>2026-04-26T08:19:10.999Z</time></trkpt><trkpt lat="45.59257319329692" lon="10.823030739655243"><ele>255.0</ele><time>2026-04-26T08:19:12.999Z</time></trkpt><trkpt lat="45.59246486987274" lon="10.822942413645126"><ele>255.0</ele><time>2026-04-26T08:19:14.999Z</time></trkpt><trkpt lat="45.592420823355326" lon="10.822834175250305"><ele>255.0</ele><time>2026-04-26T08:19:16.999Z</time></trkpt><trkpt lat="45.592453768793696" lon="10.82272581948055"><ele>255.0</ele><time>2026-04-26T08:19:17.999Z</time></trkpt><trkpt lat="45.59247764694437" lon="10.82257867655921"><ele>255.0</ele><time>2026-04-26T08:19:18.999Z</time></trkpt><trkpt lat="45.592504495568626" lon="10.8224108803683"><ele>255.0</ele><time>2026-04-26T08:19:19.999Z</time></trkpt><trkpt lat="45.592526735187306" lon="10.822289962204518"><ele>252.4</ele><time>2026-04-26T08:19:20.999Z</time></trkpt><trkpt lat="45.592503478105506" lon="10.822188541015562"><ele>249.8</ele><time>2026-04-26T08:19:22.999Z</time></trkpt><trkpt lat="45.592402593672446" lon="10.82214544877426"><ele>247.2</ele><time>2026-04-26T08:19:24.999Z</time></trkpt><trkpt lat="45.59231031795416" lon="10.82214666854427"><ele>244.6</ele><time>2026-04-26T08:19:25.999Z</time></trkpt><trkpt lat="45.59219373172274" lon="10.822143360662208"><ele>242.0</ele><time>2026-04-26T08:19:26.999Z</time></trkpt><trkpt lat="45.592068009939716" lon="10.822121655806365"><ele>241.6</ele><time>2026-04-26T08:19:27.999Z</time></trkpt><trkpt lat="45.59193809019166" lon="10.822099844374542"><ele>241.2</ele><time>2026-04-26T08:19:28.999Z</time></trkpt><trkpt lat="45.59183470850869" lon="10.822081948558772"><ele>240.8</ele><time>2026-04-26T08:19:29.999Z</time></trkpt><trkpt lat="45.59172554319224" lon="10.82207934217921"><ele>240.4</ele><time>2026-04-26T08:19:30.999Z</time></trkpt><trkpt lat="45.59163137743095" lon="10.822109681460256"><ele>240.0</ele><time>2026-04-26T08:19:31.999Z</time></trkpt><trkpt lat="45.59154196828593" lon="10.822134162351382"><ele>240.0</ele><time>2026-04-26T08:19:32.999Z</time></trkpt><trkpt lat="45.591444372337996" lon="10.822130052777327"><ele>240.0</ele><time>2026-04-26T08:19:33.999Z</time></trkpt><trkpt lat="45.591360802940436" lon="10.822124251474072"><ele>240.0</ele><time>2026-04-26T08:19:34.999Z</time></trkpt><trkpt lat="45.591279580133204" lon="10.822117476504033"><ele>240.0</ele><time>2026-04-26T08:19:35.999Z</time></trkpt><trkpt lat="45.59118142599687" lon="10.8220195672304"><ele>240.0</ele><time>2026-04-26T08:19:36.999Z</time></trkpt><trkpt lat="45.591064288363846" lon="10.821967037285223"><ele>239.8</ele><time>2026-04-26T08:19:37.999Z</time></trkpt><trkpt lat="45.59094945926475" lon="10.821940439017396"><ele>239.6</ele><time>2026-04-26T08:19:38.999Z</time></trkpt><trkpt lat="45.59084125444257" lon="10.821895336530693"><ele>239.39999999999998</ele><time>2026-04-26T08:19:39.999Z</time></trkpt><trkpt lat="45.59073703681753" lon="10.821840635419361"><ele>239.2</ele><time>2026-04-26T08:19:40.999Z</time></trkpt><trkpt lat="45.59063170567177" lon="10.821801551514394"><ele>239.0</ele><time>2026-04-26T08:19:41.999Z</time></trkpt><trkpt lat="45.590521892668136" lon="10.821743061987375"><ele>236.2</ele><time>2026-04-26T08:19:42.999Z</time></trkpt><trkpt lat="45.59041450610404" lon="10.821729152333033"><ele>233.39999999999998</ele><time>2026-04-26T08:19:43.999Z</time></trkpt><trkpt lat="45.590325301363436" lon="10.821705589266559"><ele>230.6</ele><time>2026-04-26T08:19:44.999Z</time></trkpt><trkpt lat="45.59024107703246" lon="10.821666054153996"><ele>227.8</ele><time>2026-04-26T08:19:45.999Z</time></trkpt><trkpt lat="45.59014315256896" lon="10.821640720220872"><ele>225.0</ele><time>2026-04-26T08:19:46.999Z</time></trkpt><trkpt lat="45.59002726172331" lon="10.821601869354572"><ele>224.8</ele><time>2026-04-26T08:19:47.999Z</time></trkpt><trkpt lat="45.58992600075866" lon="10.82153818905392"><ele>224.6</ele><time>2026-04-26T08:19:48.999Z</time></trkpt><trkpt lat="45.58982035706853" lon="10.821539959519919"><ele>224.39999999999998</ele><time>2026-04-26T08:19:49.999Z</time></trkpt><trkpt lat="45.58972674639897" lon="10.821527941930995"><ele>224.2</ele><time>2026-04-26T08:19:50.999Z</time></trkpt><trkpt lat="45.58962593990537" lon="10.8215360509434"><ele>224.0</ele><time>2026-04-26T08:19:52Z</time></trkpt><trkpt lat="45.589527015765505" lon="10.821564153232242"><ele>223.6</ele><time>2026-04-26T08:19:53Z</time></trkpt><trkpt lat="45.589435340309265" lon="10.821588354828625"><ele>223.2</ele><time>2026-04-26T08:19:54Z</time></trkpt><trkpt lat="45.58934590455344" lon="10.821575405059177"><ele>222.79999999999998</ele><time>2026-04-26T08:19:55Z</time></trkpt><trkpt lat="45.58925508898576" lon="10.821586939210333"><ele>222.39999999999998</ele><time>2026-04-26T08:19:56Z</time></trkpt><trkpt lat="45.58917469911392" lon="10.821633454772046"><ele>222.0</ele><time>2026-04-26T08:19:57Z</time></trkpt><trkpt lat="45.589083030136926" lon="10.8216654791007"><ele>222.0</ele><time>2026-04-26T08:19:58Z</time></trkpt><trkpt lat="45.58900420729186" lon="10.821687530778116"><ele>222.0</ele><time>2026-04-26T08:19:59Z</time></trkpt><trkpt lat="45.58893105488022" lon="10.821704164201932"><ele>222.0</ele><time>2026-04-26T08:20:00Z</time></trkpt><trkpt lat="45.58884513312247" lon="10.821721979071903"><ele>222.0</ele><time>2026-04-26T08:20:01Z</time></trkpt><trkpt lat="45.58876079582435" lon="10.821716909988554"><ele>222.0</ele><time>2026-04-26T08:20:02Z</time></trkpt><trkpt lat="45.58867735977218" lon="10.821740482178173"><ele>222.0</ele><time>2026-04-26T08:20:03Z</time></trkpt><trkpt lat="45.58860734000259" lon="10.821778831007027"><ele>221.42857142857142</ele><time>2026-04-26T08:20:04Z</time></trkpt><trkpt lat="45.58854226327482" lon="10.82174287344747"><ele>220.85714285714286</ele><time>2026-04-26T08:20:05Z</time></trkpt><trkpt lat="45.588470960388776" lon="10.821730374510004"><ele>220.28571428571428</ele><time>2026-04-26T08:20:06Z</time></trkpt><trkpt lat="45.588400393735284" lon="10.821717764028406"><ele>219.71428571428572</ele><time>2026-04-26T08:20:07Z</time></trkpt><trkpt lat="45.588312216486244" lon="10.821701267487214"><ele>219.14285714285717</ele><time>2026-04-26T08:20:08Z</time></trkpt><trkpt lat="45.58823747294519" lon="10.821685456781035"><ele>218.57142857142858</ele><time>2026-04-26T08:20:09Z</time></trkpt><trkpt lat="45.588166478732255" lon="10.821691906105567"><ele>218.0</ele><time>2026-04-26T08:20:10Z</time></trkpt><trkpt lat="45.58810132489973" lon="10.821669293285753"><ele>218.00000000000003</ele><time>2026-04-26T08:20:11Z</time></trkpt><trkpt lat="45.5880321822069" lon="10.821652229275408"><ele>218.0</ele><time>2026-04-26T08:20:12Z</time></trkpt><trkpt lat="45.58789331468579" lon="10.821614341476623"><ele>218.0</ele><time>2026-04-26T08:20:14Z</time></trkpt><trkpt lat="45.58781784514455" lon="10.821595812123887"><ele>218.0</ele><time>2026-04-26T08:20:15Z</time></trkpt><trkpt lat="45.58774680645668" lon="10.821581981944536"><ele>218.00000000000003</ele><time>2026-04-26T08:20:16Z</time></trkpt><trkpt lat="45.58766436259636" lon="10.821571120200343"><ele>218.0</ele><time>2026-04-26T08:20:17Z</time></trkpt><trkpt lat="45.587583800132045" lon="10.821561217804609"><ele>217.50000000000003</ele><time>2026-04-26T08:20:18Z</time></trkpt><trkpt lat="45.58751799882899" lon="10.821552427102713"><ele>217.0</ele><time>2026-04-26T08:20:19Z</time></trkpt><trkpt lat="45.58741187404086" lon="10.821550581134716"><ele>216.5</ele><time>2026-04-26T08:20:21Z</time></trkpt><trkpt lat="45.58732327432639" lon="10.821539495140419"><ele>216.0</ele><time>2026-04-26T08:20:23Z</time></trkpt><trkpt lat="45.58729939297664" lon="10.821434454387102"><ele>215.50000000000003</ele><time>2026-04-26T08:20:26Z</time></trkpt><trkpt lat="45.58732988317258" lon="10.821304203057428"><ele>215.0</ele><time>2026-04-26T08:20:28Z</time></trkpt><trkpt lat="45.587275158926026" lon="10.821159606248088"><ele>215.00000000000003</ele><time>2026-04-26T08:20:30Z</time></trkpt><trkpt lat="45.58720463937567" lon="10.82115087182702"><ele>215.0</ele><time>2026-04-26T08:20:31Z</time></trkpt><trkpt lat="45.587141166157956" lon="10.821115461881323"><ele>215.0</ele><time>2026-04-26T08:20:32Z</time></trkpt><trkpt lat="45.58707640843827" lon="10.821077433682452"><ele>215.0</ele><time>2026-04-26T08:20:33Z</time></trkpt><trkpt lat="45.586962785763006" lon="10.82100506218761"><ele>215.00000000000003</ele><time>2026-04-26T08:20:35Z</time></trkpt><trkpt lat="45.58689620063524" lon="10.82095654831083"><ele>215.0</ele><time>2026-04-26T08:20:36Z</time></trkpt><trkpt lat="45.58679767598436" lon="10.820877797650734"><ele>213.83333333333334</ele><time>2026-04-26T08:20:38Z</time></trkpt><trkpt lat="45.58672428724822" lon="10.820765631465765"><ele>212.66666666666669</ele><time>2026-04-26T08:20:40Z</time></trkpt><trkpt lat="45.58677579991614" lon="10.820659154858133"><ele>211.5</ele><time>2026-04-26T08:20:42Z</time></trkpt><trkpt lat="45.586886930949106" lon="10.820632015488213"><ele>210.33333333333331</ele><time>2026-04-26T08:20:44Z</time></trkpt><trkpt lat="45.5869525578939" lon="10.820665007605385"><ele>209.16666666666666</ele><time>2026-04-26T08:20:45Z</time></trkpt><trkpt lat="45.58701390864647" lon="10.820637103871592"><ele>208.0</ele><time>2026-04-26T08:20:46Z</time></trkpt><trkpt lat="45.587094999142685" lon="10.820580544624626"><ele>208.0</ele><time>2026-04-26T08:20:48Z</time></trkpt><trkpt lat="45.587145074530476" lon="10.82052162305832"><ele>208.0</ele><time>2026-04-26T08:20:50Z</time></trkpt><trkpt lat="45.58710473847522" lon="10.820373943980874"><ele>208.0</ele><time>2026-04-26T08:20:52Z</time></trkpt><trkpt lat="45.5870405726198" lon="10.820308497547762"><ele>208.0</ele><time>2026-04-26T08:20:53Z</time></trkpt><trkpt lat="45.586954003206" lon="10.82022587359835"><ele>208.0</ele><time>2026-04-26T08:20:55Z</time></trkpt><trkpt lat="45.586878887305296" lon="10.820148910089628"><ele>205.99999999999997</ele><time>2026-04-26T08:20:57Z</time></trkpt><trkpt lat="45.58683427257969" lon="10.820059772848776"><ele>204.0</ele><time>2026-04-26T08:20:59Z</time></trkpt><trkpt lat="45.58680660768407" lon="10.81995104503387"><ele>202.0</ele><time>2026-04-26T08:21:01Z</time></trkpt><trkpt lat="45.58679103545474" lon="10.819836093511569"><ele>200.0</ele><time>2026-04-26T08:21:02Z</time></trkpt><trkpt lat="45.586788501199294" lon="10.81973368490349"><ele>197.99999999999997</ele><time>2026-04-26T08:21:03Z</time></trkpt><trkpt lat="45.58678484874786" lon="10.81963750847481"><ele>196.0</ele><time>2026-04-26T08:21:04Z</time></trkpt><trkpt lat="45.58676845111207" lon="10.819500194970628"><ele>196.0</ele><time>2026-04-26T08:21:06Z</time></trkpt><trkpt lat="45.586762139533406" lon="10.81939187210011"><ele>196.0</ele><time>2026-04-26T08:21:07Z</time></trkpt><trkpt lat="45.586758884256454" lon="10.81929859655425"><ele>196.0</ele><time>2026-04-26T08:21:08Z</time></trkpt><trkpt lat="45.58675383960029" lon="10.819207969848838"><ele>196.0</ele><time>2026-04-26T08:21:09Z</time></trkpt><trkpt lat="45.586752268061" lon="10.819106836241819"><ele>196.0</ele><time>2026-04-26T08:21:10Z</time></trkpt><trkpt lat="45.586750931262" lon="10.818982018430544"><ele>196.0</ele><time>2026-04-26T08:21:11Z</time></trkpt><trkpt lat="45.586744944808046" lon="10.818875471364233"><ele>196.0</ele><time>2026-04-26T08:21:12Z</time></trkpt><trkpt lat="45.586741434146106" lon="10.81875350047109"><ele>195.60000000000002</ele><time>2026-04-26T08:21:13Z</time></trkpt><trkpt lat="45.58673666970763" lon="10.818613141856966"><ele>195.2</ele><time>2026-04-26T08:21:14Z</time></trkpt><trkpt lat="45.586732470669304" lon="10.818486416261173"><ele>194.8</ele><time>2026-04-26T08:21:15Z</time></trkpt><trkpt lat="45.58673374802043" lon="10.818340298361225"><ele>194.39999999999998</ele><time>2026-04-26T08:21:16Z</time></trkpt><trkpt lat="45.58673082071518" lon="10.818201063519028"><ele>194.0</ele><time>2026-04-26T08:21:17Z</time></trkpt><trkpt lat="45.586696036683016" lon="10.818090773760298"><ele>194.00000000000003</ele><time>2026-04-26T08:21:18Z</time></trkpt><trkpt lat="45.586673888584535" lon="10.81795701241928"><ele>194.0</ele><time>2026-04-26T08:21:19Z</time></trkpt><trkpt lat="45.586655988185676" lon="10.817834089671921"><ele>194.0</ele><time>2026-04-26T08:21:20Z</time></trkpt><trkpt lat="45.58664274543956" lon="10.81771784288995"><ele>194.0</ele><time>2026-04-26T08:21:21Z</time></trkpt><trkpt lat="45.58664558227054" lon="10.81761271721117"><ele>194.00000000000003</ele><time>2026-04-26T08:21:22Z</time></trkpt><trkpt lat="45.58665229359529" lon="10.817500971652002"><ele>194.0</ele><time>2026-04-26T08:21:23Z</time></trkpt><trkpt lat="45.58666311495985" lon="10.81736217591799"><ele>193.79999999999998</ele><time>2026-04-26T08:21:24Z</time></trkpt><trkpt lat="45.58667046649901" lon="10.817236095974321"><ele>193.6</ele><time>2026-04-26T08:21:25Z</time></trkpt><trkpt lat="45.58667164468734" lon="10.817128649338395"><ele>193.4</ele><time>2026-04-26T08:21:26Z</time></trkpt><trkpt lat="45.586654854847765" lon="10.81694008833766"><ele>193.2</ele><time>2026-04-26T08:21:28Z</time></trkpt><trkpt lat="45.586620281072626" lon="10.816840396979925"><ele>193.0</ele><time>2026-04-26T08:21:29Z</time></trkpt><trkpt lat="45.58656166936288" lon="10.81672569205031"><ele>192.25</ele><time>2026-04-26T08:21:30Z</time></trkpt><trkpt lat="45.58646775278331" lon="10.816601222393142"><ele>191.5</ele><time>2026-04-26T08:21:31Z</time></trkpt><trkpt lat="45.58638700832043" lon="10.816471918857264"><ele>190.75</ele><time>2026-04-26T08:21:32Z</time></trkpt><trkpt lat="45.58629323644538" lon="10.816349386636226"><ele>190.0</ele><time>2026-04-26T08:21:33Z</time></trkpt><trkpt lat="45.58621868442426" lon="10.816191282470468"><ele>189.0</ele><time>2026-04-26T08:21:34Z</time></trkpt><trkpt lat="45.586118623010535" lon="10.816060265418185"><ele>188.0</ele><time>2026-04-26T08:21:35Z</time></trkpt><trkpt lat="45.586044972997904" lon="10.815904533237145"><ele>187.0</ele><time>2026-04-26T08:21:36Z</time></trkpt><trkpt lat="45.585934907404884" lon="10.815724335523088"><ele>186.0</ele><time>2026-04-26T08:21:37Z</time></trkpt><trkpt lat="45.58582025167166" lon="10.815536622766558"><ele>186.0</ele><time>2026-04-26T08:21:38Z</time></trkpt><trkpt lat="45.5856882422588" lon="10.815356492290714"><ele>186.0</ele><time>2026-04-26T08:21:39Z</time></trkpt><trkpt lat="45.585582428833504" lon="10.81518322390622"><ele>186.0</ele><time>2026-04-26T08:21:40Z</time></trkpt><trkpt lat="45.585478901312634" lon="10.81501896654886"><ele>186.25</ele><time>2026-04-26T08:21:41Z</time></trkpt><trkpt lat="45.585382630123306" lon="10.81486313808122"><ele>186.5</ele><time>2026-04-26T08:21:42Z</time></trkpt><trkpt lat="45.585297094522566" lon="10.81472133348195"><ele>186.75</ele><time>2026-04-26T08:21:43Z</time></trkpt><trkpt lat="45.58522294476665" lon="10.814600891095528"><ele>187.0</ele><time>2026-04-26T08:21:44Z</time></trkpt><trkpt lat="45.585155256642" lon="10.814469103564214"><ele>186.66666666666669</ele><time>2026-04-26T08:21:45Z</time></trkpt><trkpt lat="45.58508868909174" lon="10.814381227421071"><ele>186.33333333333334</ele><time>2026-04-26T08:21:46Z</time></trkpt><trkpt lat="45.58503403953594" lon="10.814275265487886"><ele>186.0</ele><time>2026-04-26T08:21:47Z</time></trkpt><trkpt lat="45.584990410557864" lon="10.814185656289819"><ele>185.66666666666666</ele><time>2026-04-26T08:21:48Z</time></trkpt><trkpt lat="45.584951001590376" lon="10.81410844570965"><ele>185.33333333333331</ele><time>2026-04-26T08:21:49Z</time></trkpt><trkpt lat="45.58487607606297" lon="10.81400330088962"><ele>185.0</ele><time>2026-04-26T08:21:51Z</time></trkpt><trkpt lat="45.58479292062832" lon="10.813932073057497"><ele>185.0</ele><time>2026-04-26T08:21:53Z</time></trkpt><trkpt lat="45.58472289921732" lon="10.813896991731582"><ele>185.0</ele><time>2026-04-26T08:21:57Z</time></trkpt><trkpt lat="45.58472377802782" lon="10.8140579635246"><ele>185.0</ele><time>2026-04-26T08:21:59Z</time></trkpt><trkpt lat="45.58478047668797" lon="10.814203294321754"><ele>185.0</ele><time>2026-04-26T08:22:38Z</time></trkpt><trkpt lat="45.58481722671643" lon="10.814315112435104"><ele>185.0</ele><time>2026-04-26T08:22:39Z</time></trkpt><trkpt lat="45.584855298604566" lon="10.814438869439952"><ele>184.0</ele><time>2026-04-26T08:22:40Z</time></trkpt><trkpt lat="45.584888498850006" lon="10.814573888262807"><ele>183.0</ele><time>2026-04-26T08:22:41Z</time></trkpt><trkpt lat="45.58491537184735" lon="10.81473903082749"><ele>182.0</ele><time>2026-04-26T08:22:42Z</time></trkpt><trkpt lat="45.5849303822281" lon="10.81492688773064"><ele>181.0</ele><time>2026-04-26T08:22:43Z</time></trkpt><trkpt lat="45.58491436327773" lon="10.815143754358681"><ele>181.0</ele><time>2026-04-26T08:22:44Z</time></trkpt><trkpt lat="45.58487939000901" lon="10.815392002686359"><ele>181.0</ele><time>2026-04-26T08:22:45Z</time></trkpt><trkpt lat="45.58483977197731" lon="10.81561494869612"><ele>181.0</ele><time>2026-04-26T08:22:46Z</time></trkpt><trkpt lat="45.584789498565186" lon="10.815813108040258"><ele>182.25</ele><time>2026-04-26T08:22:47Z</time></trkpt><trkpt lat="45.58472163268836" lon="10.81599656004496"><ele>183.5</ele><time>2026-04-26T08:22:48Z</time></trkpt><trkpt lat="45.58464107707913" lon="10.816158033731012"><ele>184.75</ele><time>2026-04-26T08:22:49Z</time></trkpt><trkpt lat="45.5845297515432" lon="10.81632361423806"><ele>186.0</ele><time>2026-04-26T08:22:50Z</time></trkpt><trkpt lat="45.58442112684424" lon="10.816524800630708"><ele>181.66666666666666</ele><time>2026-04-26T08:22:51Z</time></trkpt><trkpt lat="45.58433243026922" lon="10.816700529408095"><ele>177.33333333333331</ele><time>2026-04-26T08:22:52Z</time></trkpt><trkpt lat="45.584245901482376" lon="10.816880055248994"><ele>173.0</ele><time>2026-04-26T08:22:53Z</time></trkpt><trkpt lat="45.58417526726442" lon="10.81707684344118"><ele>173.0</ele><time>2026-04-26T08:22:54Z</time></trkpt><trkpt lat="45.58414706033814" lon="10.817295226138736"><ele>173.0</ele><time>2026-04-26T08:22:55Z</time></trkpt><trkpt lat="45.58412494790643" lon="10.817546226382548"><ele>173.0</ele><time>2026-04-26T08:22:56Z</time></trkpt><trkpt lat="45.58411750172758" lon="10.817852460500527"><ele>171.33333333333331</ele><time>2026-04-26T08:22:57Z</time></trkpt><trkpt lat="45.584089159139516" lon="10.818137012486531"><ele>169.66666666666666</ele><time>2026-04-26T08:22:58Z</time></trkpt><trkpt lat="45.584060146116805" lon="10.818435777165137"><ele>168.0</ele><time>2026-04-26T08:22:59Z</time></trkpt><trkpt lat="45.5840350105511" lon="10.818703084267508"><ele>167.0</ele><time>2026-04-26T08:23:00Z</time></trkpt><trkpt lat="45.58402210403729" lon="10.818951114925829"><ele>166.0</ele><time>2026-04-26T08:23:01Z</time></trkpt><trkpt lat="45.58404833862033" lon="10.81918918235563"><ele>165.0</ele><time>2026-04-26T08:23:02Z</time></trkpt><trkpt lat="45.58408926850016" lon="10.819403685377779"><ele>164.0</ele><time>2026-04-26T08:23:03Z</time></trkpt><trkpt lat="45.58412542223095" lon="10.819577096900263"><ele>163.0</ele><time>2026-04-26T08:23:04Z</time></trkpt><trkpt lat="45.58416556291903" lon="10.819765305759768"><ele>162.0</ele><time>2026-04-26T08:23:05Z</time></trkpt><trkpt lat="45.584194220386046" lon="10.81993854472382"><ele>161.0</ele><time>2026-04-26T08:23:06Z</time></trkpt><trkpt lat="45.58421593204106" lon="10.82011279971571"><ele>161.0</ele><time>2026-04-26T08:23:07Z</time></trkpt><trkpt lat="45.58420643037774" lon="10.82028724932702"><ele>161.0</ele><time>2026-04-26T08:23:08Z</time></trkpt><trkpt lat="45.58415888016354" lon="10.820422499058306"><ele>161.0</ele><time>2026-04-26T08:23:09Z</time></trkpt><trkpt lat="45.58403455109473" lon="10.820419865928072"><ele>161.0</ele><time>2026-04-26T08:23:10Z</time></trkpt><trkpt lat="45.583993065590725" lon="10.82030451078668"><ele>161.0</ele><time>2026-04-26T08:23:11Z</time></trkpt><trkpt lat="45.58393267483046" lon="10.82003407140594"><ele>161.0</ele><time>2026-04-26T08:23:13Z</time></trkpt><trkpt lat="45.58383504435088" lon="10.819833417359497"><ele>161.0</ele><time>2026-04-26T08:23:14Z</time></trkpt><trkpt lat="45.5837472174231" lon="10.81958530465556"><ele>161.0</ele><time>2026-04-26T08:23:15Z</time></trkpt><trkpt lat="45.5836990188224" lon="10.819329370232072"><ele>156.0</ele><time>2026-04-26T08:23:16Z</time></trkpt><trkpt lat="45.583668872564445" lon="10.819092587854454"><ele>151.0</ele><time>2026-04-26T08:23:17Z</time></trkpt><trkpt lat="45.58363806556433" lon="10.818871192861426"><ele>146.0</ele><time>2026-04-26T08:23:18Z</time></trkpt><trkpt lat="45.583589363275046" lon="10.81869397837351"><ele>146.0</ele><time>2026-04-26T08:23:19Z</time></trkpt><trkpt lat="45.58354991630437" lon="10.81854809508588"><ele>146.0</ele><time>2026-04-26T08:23:20Z</time></trkpt><trkpt lat="45.58347823977636" lon="10.818483468333879"><ele>146.0</ele><time>2026-04-26T08:23:21Z</time></trkpt><trkpt lat="45.583391642898846" lon="10.818461061509478"><ele>146.0</ele><time>2026-04-26T08:23:22Z</time></trkpt><trkpt lat="45.58331743715193" lon="10.818419626528652"><ele>146.0</ele><time>2026-04-26T08:23:23Z</time></trkpt><trkpt lat="45.583230216063654" lon="10.818521665674192"><ele>146.0</ele><time>2026-04-26T08:23:24Z</time></trkpt><trkpt lat="45.58317634715509" lon="10.818678692792407"><ele>146.0</ele><time>2026-04-26T08:23:25Z</time></trkpt><trkpt lat="45.583177023520186" lon="10.818872741781616"><ele>146.0</ele><time>2026-04-26T08:23:26Z</time></trkpt><trkpt lat="45.58321615113228" lon="10.819054687106101"><ele>146.0</ele><time>2026-04-26T08:23:27Z</time></trkpt><trkpt lat="45.58326196792056" lon="10.819244046884874"><ele>144.25</ele><time>2026-04-26T08:23:28Z</time></trkpt><trkpt lat="45.58326429415079" lon="10.819450872829908"><ele>142.5</ele><time>2026-04-26T08:23:29Z</time></trkpt><trkpt lat="45.5832339627056" lon="10.819656925214433"><ele>140.75</ele><time>2026-04-26T08:23:30Z</time></trkpt><trkpt lat="45.583180421789386" lon="10.819834611656805"><ele>139.0</ele><time>2026-04-26T08:23:31Z</time></trkpt><trkpt lat="45.58312444511057" lon="10.819988903959807"><ele>139.0</ele><time>2026-04-26T08:23:32Z</time></trkpt><trkpt lat="45.58299954567177" lon="10.820100386032541"><ele>139.0</ele><time>2026-04-26T08:23:33Z</time></trkpt><trkpt lat="45.58289271651798" lon="10.82025418510401"><ele>139.0</ele><time>2026-04-26T08:23:34Z</time></trkpt><trkpt lat="45.58283083821826" lon="10.8204458355258"><ele>139.0</ele><time>2026-04-26T08:23:35Z</time></trkpt><trkpt lat="45.582808451486166" lon="10.820671674635683"><ele>136.66666666666669</ele><time>2026-04-26T08:23:36Z</time></trkpt><trkpt lat="45.582796510621804" lon="10.820920585422236"><ele>134.33333333333334</ele><time>2026-04-26T08:23:37Z</time></trkpt><trkpt lat="45.58281139608242" lon="10.821204518497607"><ele>132.0</ele><time>2026-04-26T08:23:38Z</time></trkpt><trkpt lat="45.582862875225466" lon="10.821521844474317"><ele>127.5</ele><time>2026-04-26T08:23:39Z</time></trkpt><trkpt lat="45.58293254438982" lon="10.821880222341862"><ele>123.0</ele><time>2026-04-26T08:23:40Z</time></trkpt><trkpt lat="45.582998897593576" lon="10.822247443367447"><ele>123.0</ele><time>2026-04-26T08:23:41Z</time></trkpt><trkpt lat="45.58306164871959" lon="10.822580949103111"><ele>123.0</ele><time>2026-04-26T08:23:42Z</time></trkpt><trkpt lat="45.58310857432779" lon="10.82289796394642"><ele>122.25</ele><time>2026-04-26T08:23:43Z</time></trkpt><trkpt lat="45.583146616585196" lon="10.823134049840407"><ele>121.5</ele><time>2026-04-26T08:23:44Z</time></trkpt><trkpt lat="45.5831898153281" lon="10.823327605539173"><ele>120.75</ele><time>2026-04-26T08:23:45Z</time></trkpt><trkpt lat="45.58326981261708" lon="10.823436707165442"><ele>120.0</ele><time>2026-04-26T08:23:46Z</time></trkpt><trkpt lat="45.58338707808704" lon="10.823530535201032"><ele>117.0</ele><time>2026-04-26T08:23:47Z</time></trkpt><trkpt lat="45.583543960244235" lon="10.823600193058123"><ele>114.0</ele><time>2026-04-26T08:23:48Z</time></trkpt><trkpt lat="45.58375151663831" lon="10.823641274692129"><ele>111.0</ele><time>2026-04-26T08:23:49Z</time></trkpt><trkpt lat="45.58395470568148" lon="10.823678405336135"><ele>110.33333333333334</ele><time>2026-04-26T08:23:50Z</time></trkpt><trkpt lat="45.58413860574145" lon="10.823732296072066"><ele>109.66666666666667</ele><time>2026-04-26T08:23:51Z</time></trkpt><trkpt lat="45.58431338358043" lon="10.823789086768937"><ele>109.0</ele><time>2026-04-26T08:23:52Z</time></trkpt><trkpt lat="45.58446929530644" lon="10.823865593673348"><ele>118.66666666666667</ele><time>2026-04-26T08:23:53Z</time></trkpt><trkpt lat="45.58457076362947" lon="10.824012658659623"><ele>128.33333333333334</ele><time>2026-04-26T08:23:54Z</time></trkpt><trkpt lat="45.584635614671676" lon="10.824203469522878"><ele>138.0</ele><time>2026-04-26T08:23:55Z</time></trkpt><trkpt lat="45.58472495853135" lon="10.824448804658626"><ele>138.0</ele><time>2026-04-26T08:23:56Z</time></trkpt><trkpt lat="45.58482051919405" lon="10.8247163089191"><ele>138.0</ele><time>2026-04-26T08:23:57Z</time></trkpt><trkpt lat="45.58491626984268" lon="10.824957321209881"><ele>138.0</ele><time>2026-04-26T08:23:58Z</time></trkpt><trkpt lat="45.58500407282024" lon="10.825218775293964"><ele>124.5</ele><time>2026-04-26T08:23:59Z</time></trkpt><trkpt lat="45.585109364139015" lon="10.825493224267396"><ele>111.0</ele><time>2026-04-26T08:24:00Z</time></trkpt><trkpt lat="45.585206181031026" lon="10.825810274457718"><ele>108.0</ele><time>2026-04-26T08:24:01Z</time></trkpt><trkpt lat="45.58530429794167" lon="10.826064455840326"><ele>105.0</ele><time>2026-04-26T08:24:02Z</time></trkpt><trkpt lat="45.58538609754629" lon="10.826298292542132"><ele>102.0</ele><time>2026-04-26T08:24:03Z</time></trkpt><trkpt lat="45.585441232268046" lon="10.826486977240764"><ele>105.19999999999999</ele><time>2026-04-26T08:24:04Z</time></trkpt><trkpt lat="45.585468336030964" lon="10.826645564506231"><ele>108.4</ele><time>2026-04-26T08:24:05Z</time></trkpt><trkpt lat="45.58554383769958" lon="10.826782242140448"><ele>111.60000000000001</ele><time>2026-04-26T08:24:06Z</time></trkpt><trkpt lat="45.58559112935053" lon="10.826903255769789"><ele>114.80000000000001</ele><time>2026-04-26T08:24:07Z</time></trkpt><trkpt lat="45.58564976843504" lon="10.827020382451067"><ele>118.0</ele><time>2026-04-26T08:24:08Z</time></trkpt><trkpt lat="45.585694771566544" lon="10.827121401515784"><ele>118.0</ele><time>2026-04-26T08:24:09Z</time></trkpt><trkpt lat="45.58575520547406" lon="10.827256927289165"><ele>118.0</ele><time>2026-04-26T08:24:10Z</time></trkpt><trkpt lat="45.58582556758509" lon="10.827400437379316"><ele>118.0</ele><time>2026-04-26T08:24:11Z</time></trkpt><trkpt lat="45.5859067372872" lon="10.82755104911237"><ele>118.0</ele><time>2026-04-26T08:24:12Z</time></trkpt><trkpt lat="45.58595061298118" lon="10.827713234775707"><ele>115.60000000000001</ele><time>2026-04-26T08:24:13Z</time></trkpt><trkpt lat="45.58600874221428" lon="10.827854443514294"><ele>113.20000000000002</ele><time>2026-04-26T08:24:14Z</time></trkpt><trkpt lat="45.58603200440029" lon="10.827966438450119"><ele>110.8</ele><time>2026-04-26T08:24:15Z</time></trkpt><trkpt lat="45.58605904263543" lon="10.828056127596486"><ele>108.4</ele><time>2026-04-26T08:24:16Z</time></trkpt><trkpt lat="45.58605801353874" lon="10.828151836160272"><ele>106.0</ele><time>2026-04-26T08:24:17Z</time></trkpt><trkpt lat="45.58595414589051" lon="10.828349831256528"><ele>105.0</ele><time>2026-04-26T08:24:19Z</time></trkpt><trkpt lat="45.58593749449965" lon="10.828617425654826"><ele>104.0</ele><time>2026-04-26T08:24:21Z</time></trkpt><trkpt lat="45.58595730139104" lon="10.828821294509671"><ele>103.0</ele><time>2026-04-26T08:24:22Z</time></trkpt><trkpt lat="45.585977126755715" lon="10.829032356681687"><ele>103.0</ele><time>2026-04-26T08:24:23Z</time></trkpt><trkpt lat="45.58599459521092" lon="10.829211178889818"><ele>103.0</ele><time>2026-04-26T08:24:24Z</time></trkpt><trkpt lat="45.58600335016738" lon="10.829389022778276"><ele>103.0</ele><time>2026-04-26T08:24:25Z</time></trkpt><trkpt lat="45.586061730572496" lon="10.829548818215917"><ele>103.0</ele><time>2026-04-26T08:24:26Z</time></trkpt><trkpt lat="45.586146330744505" lon="10.829717432724854"><ele>105.0</ele><time>2026-04-26T08:24:27Z</time></trkpt><trkpt lat="45.5862297021917" lon="10.829912591820872"><ele>107.0</ele><time>2026-04-26T08:24:28Z</time></trkpt><trkpt lat="45.58630387111359" lon="10.830162917308789"><ele>109.0</ele><time>2026-04-26T08:24:29Z</time></trkpt><trkpt lat="45.58636819602447" lon="10.83042867544127"><ele>109.0</ele><time>2026-04-26T08:24:30Z</time></trkpt><trkpt lat="45.58641699426694" lon="10.830667535859002"><ele>109.0</ele><time>2026-04-26T08:24:31Z</time></trkpt><trkpt lat="45.58646997382999" lon="10.830891047559916"><ele>109.0</ele><time>2026-04-26T08:24:32Z</time></trkpt><trkpt lat="45.58653137241095" lon="10.831118117906627"><ele>107.0</ele><time>2026-04-26T08:24:33Z</time></trkpt><trkpt lat="45.586617886155025" lon="10.83134965208785"><ele>105.0</ele><time>2026-04-26T08:24:34Z</time></trkpt><trkpt lat="45.586715564416316" lon="10.831578686865388"><ele>103.0</ele><time>2026-04-26T08:24:35Z</time></trkpt><trkpt lat="45.58681172203927" lon="10.83180778257835"><ele>103.0</ele><time>2026-04-26T08:24:36Z</time></trkpt><trkpt lat="45.58691401495351" lon="10.83198198560875"><ele>103.0</ele><time>2026-04-26T08:24:37Z</time></trkpt><trkpt lat="45.58702435601171" lon="10.832115494737854"><ele>103.0</ele><time>2026-04-26T08:24:38Z</time></trkpt><trkpt lat="45.587145715237185" lon="10.832248097772691"><ele>102.66666666666667</ele><time>2026-04-26T08:24:39Z</time></trkpt><trkpt lat="45.58727842449986" lon="10.832377613189148"><ele>102.33333333333334</ele><time>2026-04-26T08:24:40Z</time></trkpt><trkpt lat="45.58742480464682" lon="10.832548031464636"><ele>102.0</ele><time>2026-04-26T08:24:41Z</time></trkpt><trkpt lat="45.58756937381305" lon="10.832749728576083"><ele>102.0</ele><time>2026-04-26T08:24:42Z</time></trkpt><trkpt lat="45.58769948100703" lon="10.832960810042728"><ele>102.0</ele><time>2026-04-26T08:24:43Z</time></trkpt><trkpt lat="45.58781037892435" lon="10.833180150663658"><ele>102.0</ele><time>2026-04-26T08:24:44Z</time></trkpt><trkpt lat="45.58790537494828" lon="10.833382694724314"><ele>102.33333333333334</ele><time>2026-04-26T08:24:45Z</time></trkpt><trkpt lat="45.5879918729125" lon="10.83361840202161"><ele>102.66666666666667</ele><time>2026-04-26T08:24:46Z</time></trkpt><trkpt lat="45.58810410258803" lon="10.83381111507071"><ele>103.0</ele><time>2026-04-26T08:24:47Z</time></trkpt><trkpt lat="45.5882029333185" lon="10.834001384804989"><ele>103.0</ele><time>2026-04-26T08:24:48Z</time></trkpt><trkpt lat="45.588274276381185" lon="10.834159691226123"><ele>103.0</ele><time>2026-04-26T08:24:49Z</time></trkpt><trkpt lat="45.588311639675695" lon="10.83425443722316"><ele>103.0</ele><time>2026-04-26T08:24:50Z</time></trkpt><trkpt lat="45.58833749875548" lon="10.834407070922428"><ele>103.0</ele><time>2026-04-26T08:24:52Z</time></trkpt><trkpt lat="45.588360767165085" lon="10.834500145846889"><ele>103.0</ele><time>2026-04-26T08:24:53Z</time></trkpt><trkpt lat="45.588354985114776" lon="10.834601230639905"><ele>103.33333333333334</ele><time>2026-04-26T08:24:54Z</time></trkpt><trkpt lat="45.58862759305503" lon="10.83465008320576"><ele>103.66666666666666</ele><time>2026-04-26T08:24:55Z</time></trkpt><trkpt lat="45.58873964774809" lon="10.834735719234295"><ele>104.0</ele><time>2026-04-26T08:24:56Z</time></trkpt><trkpt lat="45.58885832321966" lon="10.834818968979395"><ele>103.5</ele><time>2026-04-26T08:24:57Z</time></trkpt><trkpt lat="45.588967258402626" lon="10.83489335466134"><ele>103.0</ele><time>2026-04-26T08:24:58Z</time></trkpt><trkpt lat="45.589099460294044" lon="10.834970948027557"><ele>102.5</ele><time>2026-04-26T08:24:59Z</time></trkpt><trkpt lat="45.58923264907181" lon="10.835053309934334"><ele>102.0</ele><time>2026-04-26T08:25:00Z</time></trkpt><trkpt lat="45.589363621541956" lon="10.835123132531997"><ele>102.25</ele><time>2026-04-26T08:25:01Z</time></trkpt><trkpt lat="45.5894893695009" lon="10.835197326060992"><ele>102.5</ele><time>2026-04-26T08:25:02Z</time></trkpt><trkpt lat="45.58961036924784" lon="10.835277066655317"><ele>102.75</ele><time>2026-04-26T08:25:03Z</time></trkpt><trkpt lat="45.58973847995503" lon="10.835356022881946"><ele>103.0</ele><time>2026-04-26T08:25:04Z</time></trkpt><trkpt lat="45.58986755288588" lon="10.835408239371475"><ele>103.4</ele><time>2026-04-26T08:25:05Z</time></trkpt><trkpt lat="45.589963950407736" lon="10.835461512523164"><ele>103.80000000000001</ele><time>2026-04-26T08:25:06Z</time></trkpt><trkpt lat="45.59006023606818" lon="10.835505141349314"><ele>104.2</ele><time>2026-04-26T08:25:07Z</time></trkpt><trkpt lat="45.590164520048745" lon="10.835552851573437"><ele>104.6</ele><time>2026-04-26T08:25:08Z</time></trkpt><trkpt lat="45.59025470438384" lon="10.835584686905563"><ele>105.0</ele><time>2026-04-26T08:25:09Z</time></trkpt><trkpt lat="45.590356006071985" lon="10.835648091072457"><ele>105.0</ele><time>2026-04-26T08:25:10Z</time></trkpt><trkpt lat="45.59043829887773" lon="10.83569388988515"><ele>105.0</ele><time>2026-04-26T08:25:11Z</time></trkpt><trkpt lat="45.590519703187375" lon="10.83572379394501"><ele>105.0</ele><time>2026-04-26T08:25:12Z</time></trkpt><trkpt lat="45.59060694080187" lon="10.835762923153766"><ele>105.0</ele><time>2026-04-26T08:25:13Z</time></trkpt><trkpt lat="45.590677596241036" lon="10.835804758195014"><ele>105.0</ele><time>2026-04-26T08:25:14Z</time></trkpt><trkpt lat="45.590744410772416" lon="10.835845332250251"><ele>105.0</ele><time>2026-04-26T08:25:15Z</time></trkpt><trkpt lat="45.59082216747883" lon="10.835884166828716"><ele>105.0</ele><time>2026-04-26T08:25:17Z</time></trkpt><trkpt lat="45.59088993600895" lon="10.83592288435602"><ele>105.0</ele><time>2026-04-26T08:25:20Z</time></trkpt><trkpt lat="45.59095459409868" lon="10.835971049122245"><ele>105.0</ele><time>2026-04-26T08:25:22Z</time></trkpt><trkpt lat="45.591011290169504" lon="10.836011897588769"><ele>105.0</ele><time>2026-04-26T08:25:25Z</time></trkpt><trkpt lat="45.59110031435169" lon="10.836056269988765"><ele>105.0</ele><time>2026-04-26T08:25:38Z</time></trkpt><trkpt lat="45.591167728077174" lon="10.836090215617928"><ele>105.0</ele><time>2026-04-26T08:25:40Z</time></trkpt><trkpt lat="45.59123591973672" lon="10.83611945037233"><ele>105.0</ele><time>2026-04-26T08:25:43Z</time></trkpt><trkpt lat="45.591304696047686" lon="10.836182208144141"><ele>106.71428571428572</ele><time>2026-04-26T08:25:47Z</time></trkpt><trkpt lat="45.59135448410167" lon="10.836253519561524"><ele>108.42857142857143</ele><time>2026-04-26T08:26:54Z</time></trkpt><trkpt lat="45.591416490836124" lon="10.836323806051487"><ele>110.14285714285714</ele><time>2026-04-26T08:26:56Z</time></trkpt><trkpt lat="45.59146856538898" lon="10.83641008299278"><ele>111.85714285714286</ele><time>2026-04-26T08:26:57Z</time></trkpt><trkpt lat="45.59152296176976" lon="10.836456416366152"><ele>113.57142857142858</ele><time>2026-04-26T08:26:59Z</time></trkpt><trkpt lat="45.59159587039147" lon="10.836422138932399"><ele>115.28571428571429</ele><time>2026-04-26T08:27:46Z</time></trkpt><trkpt lat="45.59165300437709" lon="10.836352425854507"><ele>117.0</ele><time>2026-04-26T08:27:48Z</time></trkpt><trkpt lat="45.59169763877398" lon="10.83622118777618"><ele>117.0</ele><time>2026-04-26T08:27:50Z</time></trkpt><trkpt lat="45.59173593268165" lon="10.836144219048256"><ele>117.0</ele><time>2026-04-26T08:27:51Z</time></trkpt><trkpt lat="45.59179555724525" lon="10.836016120258023"><ele>117.0</ele><time>2026-04-26T08:27:53Z</time></trkpt><trkpt lat="45.59184916104531" lon="10.83593181944818"><ele>117.0</ele><time>2026-04-26T08:27:55Z</time></trkpt><trkpt lat="45.5918799154253" lon="10.835811359802188"><ele>117.0</ele><time>2026-04-26T08:27:57Z</time></trkpt><trkpt lat="45.591877251089166" lon="10.835694067255542"><ele>117.0</ele><time>2026-04-26T08:27:59Z</time></trkpt><trkpt lat="45.5919038553141" lon="10.835528018127246"><ele>117.6</ele><time>2026-04-26T08:28:01Z</time></trkpt><trkpt lat="45.59193610821051" lon="10.835449247895948"><ele>118.19999999999999</ele><time>2026-04-26T08:28:02Z</time></trkpt><trkpt lat="45.592026009216916" lon="10.835477821845313"><ele>118.8</ele><time>2026-04-26T08:28:05Z</time></trkpt><trkpt lat="45.592099716953754" lon="10.83550501374373"><ele>119.4</ele><time>2026-04-26T08:28:07Z</time></trkpt><trkpt lat="45.592178962912236" lon="10.835582514886315"><ele>120.0</ele><time>2026-04-26T08:28:09Z</time></trkpt><trkpt lat="45.5923183149962" lon="10.835706889060058"><ele>121.75</ele><time>2026-04-26T08:28:11Z</time></trkpt><trkpt lat="45.592403123924235" lon="10.835765603202471"><ele>123.5</ele><time>2026-04-26T08:28:12Z</time></trkpt><trkpt lat="45.59248570308219" lon="10.835857400597925"><ele>125.25</ele><time>2026-04-26T08:28:13Z</time></trkpt><trkpt lat="45.59257924934693" lon="10.835995172791922"><ele>127.0</ele><time>2026-04-26T08:28:14Z</time></trkpt><trkpt lat="45.59268243361885" lon="10.836114741256877"><ele>127.0</ele><time>2026-04-26T08:28:15Z</time></trkpt><trkpt lat="45.592775937993885" lon="10.836213090637289"><ele>126.99999999999999</ele><time>2026-04-26T08:28:16Z</time></trkpt><trkpt lat="45.59287127296811" lon="10.836308178960078"><ele>126.99999999999999</ele><time>2026-04-26T08:28:17Z</time></trkpt><trkpt lat="45.59294916147699" lon="10.836387851642435"><ele>127.0</ele><time>2026-04-26T08:28:18Z</time></trkpt><trkpt lat="45.59300067335347" lon="10.836452015474524"><ele>127.0</ele><time>2026-04-26T08:28:19Z</time></trkpt><trkpt lat="45.5930590627972" lon="10.83652556666766"><ele>127.33333333333334</ele><time>2026-04-26T08:28:21Z</time></trkpt><trkpt lat="45.59302839577213" lon="10.836691669313828"><ele>127.66666666666667</ele><time>2026-04-26T08:28:28Z</time></trkpt><trkpt lat="45.59295686858555" lon="10.836800404270653"><ele>128.0</ele><time>2026-04-26T08:28:29Z</time></trkpt><trkpt lat="45.59290808741899" lon="10.836888526531379"><ele>128.33333333333334</ele><time>2026-04-26T08:28:30Z</time></trkpt><trkpt lat="45.59287191574804" lon="10.836963761918442"><ele>128.66666666666666</ele><time>2026-04-26T08:28:31Z</time></trkpt><trkpt lat="45.59286284083748" lon="10.837072274015286"><ele>129.0</ele><time>2026-04-26T08:28:33Z</time></trkpt><trkpt lat="45.59291221785703" lon="10.837140114727694"><ele>129.0</ele><time>2026-04-26T08:28:35Z</time></trkpt><trkpt lat="45.593073368283704" lon="10.837221659275142"><ele>129.0</ele><time>2026-04-26T08:28:37Z</time></trkpt><trkpt lat="45.593185959471334" lon="10.83728297025719"><ele>129.0</ele><time>2026-04-26T08:28:38Z</time></trkpt><trkpt lat="45.59330867910354" lon="10.837362058821867"><ele>129.0</ele><time>2026-04-26T08:28:39Z</time></trkpt><trkpt lat="45.59345275590826" lon="10.837457939999412"><ele>129.0</ele><time>2026-04-26T08:28:40Z</time></trkpt><trkpt lat="45.59356958002622" lon="10.837556957715163"><ele>129.0</ele><time>2026-04-26T08:28:41Z</time></trkpt><trkpt lat="45.5936732838515" lon="10.837653030756327"><ele>129.0</ele><time>2026-04-26T08:28:42Z</time></trkpt><trkpt lat="45.59379850274303" lon="10.837714284515561"><ele>129.0</ele><time>2026-04-26T08:28:43Z</time></trkpt><trkpt lat="45.59392932666687" lon="10.837776944447187"><ele>128.25</ele><time>2026-04-26T08:28:44Z</time></trkpt><trkpt lat="45.59405431465832" lon="10.837843569572364"><ele>127.5</ele><time>2026-04-26T08:28:45Z</time></trkpt><trkpt lat="45.594166618549785" lon="10.83791267892255"><ele>126.75</ele><time>2026-04-26T08:28:46Z</time></trkpt><trkpt lat="45.59425739564365" lon="10.83798032954108"><ele>126.0</ele><time>2026-04-26T08:28:47Z</time></trkpt><trkpt lat="45.59436424913181" lon="10.838049350722155"><ele>126.0</ele><time>2026-04-26T08:28:48Z</time></trkpt><trkpt lat="45.5944692878587" lon="10.838121321374077"><ele>126.0</ele><time>2026-04-26T08:28:49Z</time></trkpt><trkpt lat="45.59456738852298" lon="10.838208232092825"><ele>126.0</ele><time>2026-04-26T08:28:50Z</time></trkpt><trkpt lat="45.59468101622402" lon="10.838281541201065"><ele>126.0</ele><time>2026-04-26T08:28:51Z</time></trkpt><trkpt lat="45.594803783470624" lon="10.838375536313647"><ele>126.33333333333334</ele><time>2026-04-26T08:28:52Z</time></trkpt><trkpt lat="45.594949275487764" lon="10.838477892781352"><ele>126.66666666666667</ele><time>2026-04-26T08:28:53Z</time></trkpt><trkpt lat="45.59508622230893" lon="10.838584308473004"><ele>127.0</ele><time>2026-04-26T08:28:54Z</time></trkpt><trkpt lat="45.59521929583409" lon="10.838692863382825"><ele>127.5</ele><time>2026-04-26T08:28:55Z</time></trkpt><trkpt lat="45.59534020556012" lon="10.838797541356376"><ele>128.0</ele><time>2026-04-26T08:28:56Z</time></trkpt><trkpt lat="45.595464386158746" lon="10.838905279388817"><ele>128.5</ele><time>2026-04-26T08:28:57Z</time></trkpt><trkpt lat="45.5955858430843" lon="10.839007402345377"><ele>129.0</ele><time>2026-04-26T08:28:58Z</time></trkpt><trkpt lat="45.59572603299094" lon="10.83911825120387"><ele>129.0</ele><time>2026-04-26T08:28:59Z</time></trkpt><trkpt lat="45.595848502196525" lon="10.839229337845211"><ele>129.0</ele><time>2026-04-26T08:29:00Z</time></trkpt><trkpt lat="45.5959715285802" lon="10.839342871204376"><ele>129.0</ele><time>2026-04-26T08:29:01Z</time></trkpt><trkpt lat="45.59609375627123" lon="10.839453265962717"><ele>129.0</ele><time>2026-04-26T08:29:02Z</time></trkpt><trkpt lat="45.59621943203239" lon="10.839568908548086"><ele>129.25</ele><time>2026-04-26T08:29:03Z</time></trkpt><trkpt lat="45.59634581399369" lon="10.83967461257727"><ele>129.5</ele><time>2026-04-26T08:29:04Z</time></trkpt><trkpt lat="45.59646843918431" lon="10.839781626312776"><ele>129.75</ele><time>2026-04-26T08:29:05Z</time></trkpt><trkpt lat="45.59659902714822" lon="10.839896645610867"><ele>130.0</ele><time>2026-04-26T08:29:06Z</time></trkpt><trkpt lat="45.59670502577702" lon="10.839996155890688"><ele>130.0</ele><time>2026-04-26T08:29:07Z</time></trkpt><trkpt lat="45.59680560473815" lon="10.840090468746487"><ele>130.0</ele><time>2026-04-26T08:29:08Z</time></trkpt><trkpt lat="45.596884269601254" lon="10.840175336650285"><ele>130.0</ele><time>2026-04-26T08:29:09Z</time></trkpt><trkpt lat="45.5969623041223" lon="10.840246385197638"><ele>130.0</ele><time>2026-04-26T08:29:10Z</time></trkpt><trkpt lat="45.5970335334619" lon="10.840288439080922"><ele>130.0</ele><time>2026-04-26T08:29:11Z</time></trkpt><trkpt lat="45.59709589050545" lon="10.840365585458597"><ele>130.0</ele><time>2026-04-26T08:29:13Z</time></trkpt><trkpt lat="45.59717435295333" lon="10.84032858425234"><ele>130.0</ele><time>2026-04-26T08:29:15Z</time></trkpt><trkpt lat="45.59721962285301" lon="10.840251208147736"><ele>130.0</ele><time>2026-04-26T08:29:16Z</time></trkpt><trkpt lat="45.59726997770295" lon="10.840167713497816"><ele>130.0</ele><time>2026-04-26T08:29:17Z</time></trkpt><trkpt lat="45.59732299484461" lon="10.84009564766041"><ele>130.0</ele><time>2026-04-26T08:29:18Z</time></trkpt><trkpt lat="45.59741913315445" lon="10.840090428327617"><ele>130.0</ele><time>2026-04-26T08:29:20Z</time></trkpt><trkpt lat="45.59754429658752" lon="10.840192844388582"><ele>130.25</ele><time>2026-04-26T08:29:22Z</time></trkpt><trkpt lat="45.597633721400534" lon="10.840287319881385"><ele>130.5</ele><time>2026-04-26T08:29:23Z</time></trkpt><trkpt lat="45.5977481657053" lon="10.8403906789103"><ele>130.75</ele><time>2026-04-26T08:29:24Z</time></trkpt><trkpt lat="45.597857766034664" lon="10.840474287958589"><ele>131.0</ele><time>2026-04-26T08:29:25Z</time></trkpt><trkpt lat="45.59796253358813" lon="10.84053915203434"><ele>131.0</ele><time>2026-04-26T08:29:26Z</time></trkpt><trkpt lat="45.59807829194314" lon="10.840574955326558"><ele>131.0</ele><time>2026-04-26T08:29:27Z</time></trkpt><trkpt lat="45.59816510034313" lon="10.840618271262041"><ele>131.0</ele><time>2026-04-26T08:29:28Z</time></trkpt><trkpt lat="45.59822936863712" lon="10.840661979581006"><ele>131.0</ele><time>2026-04-26T08:29:29Z</time></trkpt><trkpt lat="45.5981980810261" lon="10.840804349000711"><ele>131.0</ele><time>2026-04-26T08:29:32Z</time></trkpt><trkpt lat="45.59815254932933" lon="10.840924977566523"><ele>129.33333333333331</ele><time>2026-04-26T08:29:33Z</time></trkpt><trkpt lat="45.598064647730325" lon="10.841109012439032"><ele>127.66666666666666</ele><time>2026-04-26T08:29:34Z</time></trkpt><trkpt lat="45.59796542409133" lon="10.841333616133676"><ele>126.0</ele><time>2026-04-26T08:29:35Z</time></trkpt><trkpt lat="45.59788020476132" lon="10.841512714908422"><ele>126.19999999999999</ele><time>2026-04-26T08:29:36Z</time></trkpt><trkpt lat="45.597806350811574" lon="10.841661624285072"><ele>126.39999999999999</ele><time>2026-04-26T08:29:37Z</time></trkpt><trkpt lat="45.59775685849303" lon="10.841790337857374"><ele>126.6</ele><time>2026-04-26T08:29:38Z</time></trkpt><trkpt lat="45.597717525477606" lon="10.841877551742666"><ele>126.8</ele><time>2026-04-26T08:29:39Z</time></trkpt><trkpt lat="45.59775388522988" lon="10.842037805276137"><ele>127.0</ele><time>2026-04-26T08:29:41Z</time></trkpt><trkpt lat="45.59781571265364" lon="10.842141706350963"><ele>126.33333333333334</ele><time>2026-04-26T08:29:42Z</time></trkpt><trkpt lat="45.597906238222464" lon="10.84227249039959"><ele>125.66666666666666</ele><time>2026-04-26T08:29:43Z</time></trkpt><trkpt lat="45.59804386724419" lon="10.84242228381057"><ele>125.0</ele><time>2026-04-26T08:29:44Z</time></trkpt><trkpt lat="45.598170140537945" lon="10.842532744016742"><ele>124.0</ele><time>2026-04-26T08:29:45Z</time></trkpt><trkpt lat="45.59827879955353" lon="10.842640633555618"><ele>123.0</ele><time>2026-04-26T08:29:46Z</time></trkpt><trkpt lat="45.59838284159449" lon="10.842742981707335"><ele>122.0</ele><time>2026-04-26T08:29:47Z</time></trkpt><trkpt lat="45.59848402874603" lon="10.842831486808528"><ele>121.0</ele><time>2026-04-26T08:29:48Z</time></trkpt><trkpt lat="45.59859636332607" lon="10.842951525660295"><ele>122.0</ele><time>2026-04-26T08:29:49Z</time></trkpt><trkpt lat="45.59872798862779" lon="10.84310996000968"><ele>123.0</ele><time>2026-04-26T08:29:50Z</time></trkpt><trkpt lat="45.59889998448092" lon="10.843280829635"><ele>124.0</ele><time>2026-04-26T08:29:51Z</time></trkpt><trkpt lat="45.599099176285165" lon="10.843428678536958"><ele>123.33333333333334</ele><time>2026-04-26T08:29:52Z</time></trkpt><trkpt lat="45.59927556727428" lon="10.843556341187368"><ele>122.66666666666666</ele><time>2026-04-26T08:29:53Z</time></trkpt><trkpt lat="45.59943576513534" lon="10.843680067360197"><ele>122.0</ele><time>2026-04-26T08:29:54Z</time></trkpt><trkpt lat="45.59959302884826" lon="10.843784560545075"><ele>122.0</ele><time>2026-04-26T08:29:55Z</time></trkpt><trkpt lat="45.5997498293927" lon="10.843881585193923"><ele>122.0</ele><time>2026-04-26T08:29:56Z</time></trkpt><trkpt lat="45.599912063092624" lon="10.843984954251246"><ele>122.0</ele><time>2026-04-26T08:29:57Z</time></trkpt><trkpt lat="45.60008524991789" lon="10.844085276518953"><ele>122.0</ele><time>2026-04-26T08:29:58Z</time></trkpt><trkpt lat="45.60025079297686" lon="10.844200213318917"><ele>122.0</ele><time>2026-04-26T08:29:59Z</time></trkpt><trkpt lat="45.60041739299694" lon="10.844327940519143"><ele>122.0</ele><time>2026-04-26T08:29:59.999Z</time></trkpt><trkpt lat="45.6005782521098" lon="10.844469100174978"><ele>120.66666666666666</ele><time>2026-04-26T08:30:00.999Z</time></trkpt><trkpt lat="45.60073620859777" lon="10.844638943274452"><ele>119.33333333333334</ele><time>2026-04-26T08:30:01.999Z</time></trkpt><trkpt lat="45.60088709947686" lon="10.844806766396774"><ele>118.0</ele><time>2026-04-26T08:30:02.999Z</time></trkpt><trkpt lat="45.60105711066188" lon="10.844954597847801"><ele>118.33333333333334</ele><time>2026-04-26T08:30:03.999Z</time></trkpt><trkpt lat="45.60123718900026" lon="10.845101859432761"><ele>118.66666666666666</ele><time>2026-04-26T08:30:04.999Z</time></trkpt><trkpt lat="45.60142378807463" lon="10.845253525639695"><ele>119.0</ele><time>2026-04-26T08:30:05.999Z</time></trkpt><trkpt lat="45.60161483637222" lon="10.845405171275619"><ele>119.0</ele><time>2026-04-26T08:30:06.999Z</time></trkpt><trkpt lat="45.60181120112504" lon="10.8455621425986"><ele>119.0</ele><time>2026-04-26T08:30:07.999Z</time></trkpt><trkpt lat="45.60200709363233" lon="10.845714220623414"><ele>119.0</ele><time>2026-04-26T08:30:08.999Z</time></trkpt><trkpt lat="45.60218902989227" lon="10.84585970851311"><ele>118.66666666666666</ele><time>2026-04-26T08:30:09.999Z</time></trkpt><trkpt lat="45.60236663970482" lon="10.845998245905275"><ele>118.33333333333334</ele><time>2026-04-26T08:30:10.999Z</time></trkpt><trkpt lat="45.602558070726204" lon="10.846136367329157"><ele>118.0</ele><time>2026-04-26T08:30:11.999Z</time></trkpt><trkpt lat="45.60274560748611" lon="10.846294907936139"><ele>117.0</ele><time>2026-04-26T08:30:12.999Z</time></trkpt><trkpt lat="45.60301096177509" lon="10.846297657887611"><ele>116.0</ele><time>2026-04-26T08:30:13.999Z</time></trkpt><trkpt lat="45.60320415031149" lon="10.846474538206575"><ele>116.0</ele><time>2026-04-26T08:30:14.999Z</time></trkpt><trkpt lat="45.603396461251485" lon="10.846650979736836"><ele>116.0</ele><time>2026-04-26T08:30:15.999Z</time></trkpt><trkpt lat="45.603590796702825" lon="10.846827861394349"><ele>116.33333333333333</ele><time>2026-04-26T08:30:16.999Z</time></trkpt><trkpt lat="45.603774881361446" lon="10.846995412880261"><ele>116.66666666666666</ele><time>2026-04-26T08:30:17.999Z</time></trkpt><trkpt lat="45.603955235314075" lon="10.847158896113196"><ele>117.0</ele><time>2026-04-26T08:30:18.999Z</time></trkpt><trkpt lat="45.60413928044527" lon="10.847324720687546"><ele>117.0</ele><time>2026-04-26T08:30:19.999Z</time></trkpt><trkpt lat="45.60432233848219" lon="10.847485474109867"><ele>117.0</ele><time>2026-04-26T08:30:20.999Z</time></trkpt><trkpt lat="45.60450476413925" lon="10.847643671930856"><ele>117.0</ele><time>2026-04-26T08:30:21.999Z</time></trkpt><trkpt lat="45.60468787581805" lon="10.847796589541586"><ele>116.66666666666666</ele><time>2026-04-26T08:30:22.999Z</time></trkpt><trkpt lat="45.60487356459208" lon="10.84795182758636"><ele>116.33333333333333</ele><time>2026-04-26T08:30:23.999Z</time></trkpt><trkpt lat="45.605055217665765" lon="10.848101220471717"><ele>116.0</ele><time>2026-04-26T08:30:24.999Z</time></trkpt><trkpt lat="45.60524045412589" lon="10.848249686491487"><ele>115.33333333333333</ele><time>2026-04-26T08:30:25.999Z</time></trkpt><trkpt lat="45.60542346244496" lon="10.848394888705228"><ele>114.66666666666666</ele><time>2026-04-26T08:30:26.999Z</time></trkpt><trkpt lat="45.60560490783703" lon="10.84853488692933"><ele>114.0</ele><time>2026-04-26T08:30:28Z</time></trkpt><trkpt lat="45.605784036210906" lon="10.848670032812176"><ele>114.0</ele><time>2026-04-26T08:30:29Z</time></trkpt><trkpt lat="45.60596228993075" lon="10.848802662079565"><ele>114.0</ele><time>2026-04-26T08:30:30Z</time></trkpt><trkpt lat="45.60614162222997" lon="10.848935248562755"><ele>114.0</ele><time>2026-04-26T08:30:31Z</time></trkpt><trkpt lat="45.606332670689596" lon="10.84907178616955"><ele>114.0</ele><time>2026-04-26T08:30:32Z</time></trkpt><trkpt lat="45.60651916744807" lon="10.849204171678581"><ele>114.0</ele><time>2026-04-26T08:30:33Z</time></trkpt><trkpt lat="45.60669383814052" lon="10.84932770828785"><ele>114.0</ele><time>2026-04-26T08:30:34Z</time></trkpt><trkpt lat="45.606869020393745" lon="10.849446512362789"><ele>115.0</ele><time>2026-04-26T08:30:35Z</time></trkpt><trkpt lat="45.60705002583133" lon="10.84956668809434"><ele>116.0</ele><time>2026-04-26T08:30:36Z</time></trkpt><trkpt lat="45.60723818877189" lon="10.849688043887172"><ele>117.0</ele><time>2026-04-26T08:30:37Z</time></trkpt><trkpt lat="45.60742977097024" lon="10.849809915093608"><ele>117.0</ele><time>2026-04-26T08:30:38Z</time></trkpt><trkpt lat="45.60761997256386" lon="10.84993098821531"><ele>117.0</ele><time>2026-04-26T08:30:39Z</time></trkpt><trkpt lat="45.60781204950018" lon="10.850048270788017"><ele>117.0</ele><time>2026-04-26T08:30:40Z</time></trkpt><trkpt lat="45.60799221734498" lon="10.850158101183624"><ele>115.33333333333334</ele><time>2026-04-26T08:30:41Z</time></trkpt><trkpt lat="45.608182200771765" lon="10.850269781163739"><ele>113.66666666666667</ele><time>2026-04-26T08:30:42Z</time></trkpt><trkpt lat="45.60836951703949" lon="10.850377048126147"><ele>112.0</ele><time>2026-04-26T08:30:43Z</time></trkpt><trkpt lat="45.60855438508864" lon="10.850481709328673"><ele>114.0</ele><time>2026-04-26T08:30:44Z</time></trkpt><trkpt lat="45.6087344317788" lon="10.850581037946531"><ele>116.0</ele><time>2026-04-26T08:30:45Z</time></trkpt><trkpt lat="45.60892830944748" lon="10.850684644767174"><ele>118.0</ele><time>2026-04-26T08:30:46Z</time></trkpt><trkpt lat="45.6091159368837" lon="10.850786895274931"><ele>118.0</ele><time>2026-04-26T08:30:47Z</time></trkpt><trkpt lat="45.6093140549368" lon="10.850886216763705"><ele>118.0</ele><time>2026-04-26T08:30:48Z</time></trkpt><trkpt lat="45.609514928559314" lon="10.850987730008733"><ele>118.0</ele><time>2026-04-26T08:30:49Z</time></trkpt><trkpt lat="45.60971909578404" lon="10.851091804046606"><ele>116.0</ele><time>2026-04-26T08:30:50Z</time></trkpt><trkpt lat="45.609917428552016" lon="10.851192903951087"><ele>114.0</ele><time>2026-04-26T08:30:51Z</time></trkpt><trkpt lat="45.610110110986255" lon="10.851293727884418"><ele>112.0</ele><time>2026-04-26T08:30:52Z</time></trkpt><trkpt lat="45.610301052029314" lon="10.851396788172412"><ele>111.33333333333334</ele><time>2026-04-26T08:30:53Z</time></trkpt><trkpt lat="45.61049589497338" lon="10.851502417009828"><ele>110.66666666666666</ele><time>2026-04-26T08:30:54Z</time></trkpt><trkpt lat="45.610694360717126" lon="10.851616125828455"><ele>110.0</ele><time>2026-04-26T08:30:55Z</time></trkpt><trkpt lat="45.61087996505273" lon="10.851727315288024"><ele>110.0</ele><time>2026-04-26T08:30:56Z</time></trkpt><trkpt lat="45.61105729243147" lon="10.851838621954819"><ele>110.0</ele><time>2026-04-26T08:30:57Z</time></trkpt><trkpt lat="45.611209878001084" lon="10.851940676155936"><ele>110.0</ele><time>2026-04-26T08:30:58Z</time></trkpt><trkpt lat="45.61136218490244" lon="10.85204718674805"><ele>109.5</ele><time>2026-04-26T08:30:59Z</time></trkpt><trkpt lat="45.611501282647474" lon="10.852147050208469"><ele>109.0</ele><time>2026-04-26T08:31:00Z</time></trkpt><trkpt lat="45.61162604179186" lon="10.852243240449186"><ele>108.5</ele><time>2026-04-26T08:31:01Z</time></trkpt><trkpt lat="45.61173965120915" lon="10.852339515270318"><ele>108.0</ele><time>2026-04-26T08:31:02Z</time></trkpt><trkpt lat="45.611945222994436" lon="10.852264015872034"><ele>107.0</ele><time>2026-04-26T08:31:03Z</time></trkpt><trkpt lat="45.61216119265315" lon="10.85209335155417"><ele>106.0</ele><time>2026-04-26T08:31:04Z</time></trkpt><trkpt lat="45.61235813422288" lon="10.851880745335594"><ele>107.0</ele><time>2026-04-26T08:31:05Z</time></trkpt><trkpt lat="45.61253572009116" lon="10.851731839084334"><ele>108.0</ele><time>2026-04-26T08:31:06Z</time></trkpt><trkpt lat="45.61290618912674" lon="10.852129412658378"><ele>106.0</ele><time>2026-04-26T08:31:07Z</time></trkpt><trkpt lat="45.61311937014904" lon="10.852030000614207"><ele>104.0</ele><time>2026-04-26T08:31:08Z</time></trkpt><trkpt lat="45.61332146011429" lon="10.851934556922409"><ele>102.0</ele><time>2026-04-26T08:31:09Z</time></trkpt><trkpt lat="45.61350868857208" lon="10.851848111517883"><ele>104.66666666666666</ele><time>2026-04-26T08:31:10Z</time></trkpt><trkpt lat="45.613699908493814" lon="10.85176832156293"><ele>107.33333333333333</ele><time>2026-04-26T08:31:11Z</time></trkpt><trkpt lat="45.61388746193826" lon="10.851734040276712"><ele>110.0</ele><time>2026-04-26T08:31:12Z</time></trkpt><trkpt lat="45.61406471716242" lon="10.851761184306154"><ele>108.33333333333333</ele><time>2026-04-26T08:31:13Z</time></trkpt><trkpt lat="45.61425299310076" lon="10.851803169560236"><ele>106.66666666666666</ele><time>2026-04-26T08:31:14Z</time></trkpt><trkpt lat="45.61447973802534" lon="10.851824046044852"><ele>105.0</ele><time>2026-04-26T08:31:15Z</time></trkpt><trkpt lat="45.61470850836362" lon="10.851838628857049"><ele>105.0</ele><time>2026-04-26T08:31:16Z</time></trkpt><trkpt lat="45.61492566391343" lon="10.851901301004819"><ele>105.0</ele><time>2026-04-26T08:31:17Z</time></trkpt><trkpt lat="45.615133071399214" lon="10.851975500856579"><ele>105.0</ele><time>2026-04-26T08:31:18Z</time></trkpt><trkpt lat="45.61535525138029" lon="10.852043780692624"><ele>104.5</ele><time>2026-04-26T08:31:19Z</time></trkpt><trkpt lat="45.61558559954952" lon="10.85209998616156"><ele>104.0</ele><time>2026-04-26T08:31:20Z</time></trkpt><trkpt lat="45.615823683840986" lon="10.852157166298337"><ele>104.0</ele><time>2026-04-26T08:31:21Z</time></trkpt><trkpt lat="45.61606109662647" lon="10.85219072328967"><ele>104.0</ele><time>2026-04-26T08:31:22Z</time></trkpt><trkpt lat="45.61629899929751" lon="10.852214911090357"><ele>104.0</ele><time>2026-04-26T08:31:23Z</time></trkpt><trkpt lat="45.616548284652175" lon="10.852245257082794"><ele>104.0</ele><time>2026-04-26T08:31:24Z</time></trkpt><trkpt lat="45.61679300954261" lon="10.852282056671706"><ele>105.5</ele><time>2026-04-26T08:31:25Z</time></trkpt><trkpt lat="45.61704065532187" lon="10.852323939530685"><ele>107.0</ele><time>2026-04-26T08:31:26Z</time></trkpt><trkpt lat="45.617289136803485" lon="10.852385807978871"><ele>107.0</ele><time>2026-04-26T08:31:27Z</time></trkpt><trkpt lat="45.61753093400137" lon="10.852435278640936"><ele>107.0</ele><time>2026-04-26T08:31:28Z</time></trkpt><trkpt lat="45.617769432512944" lon="10.852499657135885"><ele>104.66666666666666</ele><time>2026-04-26T08:31:29Z</time></trkpt><trkpt lat="45.61798226191369" lon="10.85255499208568"><ele>102.33333333333334</ele><time>2026-04-26T08:31:30Z</time></trkpt><trkpt lat="45.618182712331524" lon="10.852617071236308"><ele>100.0</ele><time>2026-04-26T08:31:31Z</time></trkpt><trkpt lat="45.61837541349397" lon="10.852660778489692"><ele>100.0</ele><time>2026-04-26T08:31:32Z</time></trkpt><trkpt lat="45.618561260979185" lon="10.852696130359858"><ele>100.0</ele><time>2026-04-26T08:31:33Z</time></trkpt><trkpt lat="45.618765524045116" lon="10.852695083054671"><ele>100.0</ele><time>2026-04-26T08:31:34Z</time></trkpt><trkpt lat="45.61898545034233" lon="10.852736508801568"><ele>101.0</ele><time>2026-04-26T08:31:35Z</time></trkpt><trkpt lat="45.61923414084672" lon="10.852867555494843"><ele>102.0</ele><time>2026-04-26T08:31:36Z</time></trkpt><trkpt lat="45.6194426403023" lon="10.853007939632244"><ele>107.0</ele><time>2026-04-26T08:31:37Z</time></trkpt><trkpt lat="45.61964374980557" lon="10.853179877752329"><ele>112.0</ele><time>2026-04-26T08:31:38Z</time></trkpt><trkpt lat="45.619847866409685" lon="10.85332405157149"><ele>112.0</ele><time>2026-04-26T08:31:39Z</time></trkpt><trkpt lat="45.62007057163238" lon="10.853431100378655"><ele>112.0</ele><time>2026-04-26T08:31:39.999Z</time></trkpt><trkpt lat="45.62029223148968" lon="10.853554048187865"><ele>110.33333333333334</ele><time>2026-04-26T08:31:40.999Z</time></trkpt><trkpt lat="45.62049489498118" lon="10.853670270486512"><ele>108.66666666666666</ele><time>2026-04-26T08:31:41.999Z</time></trkpt><trkpt lat="45.620680601545665" lon="10.853764948510896"><ele>107.0</ele><time>2026-04-26T08:31:42.999Z</time></trkpt><trkpt lat="45.62086448287282" lon="10.85385901287161"><ele>107.0</ele><time>2026-04-26T08:31:43.999Z</time></trkpt><trkpt lat="45.62104544630915" lon="10.854004714394474"><ele>107.0</ele><time>2026-04-26T08:31:44.999Z</time></trkpt><trkpt lat="45.62121108664785" lon="10.854170872735478"><ele>107.0</ele><time>2026-04-26T08:31:45.999Z</time></trkpt><trkpt lat="45.62137748016065" lon="10.854386815532694"><ele>108.33333333333333</ele><time>2026-04-26T08:31:46.999Z</time></trkpt><trkpt lat="45.62153316514902" lon="10.854624946707963"><ele>109.66666666666666</ele><time>2026-04-26T08:31:47.999Z</time></trkpt><trkpt lat="45.6216637133636" lon="10.85486407937286"><ele>111.0</ele><time>2026-04-26T08:31:48.999Z</time></trkpt><trkpt lat="45.62184947587628" lon="10.855029817350225"><ele>114.0</ele><time>2026-04-26T08:31:49.999Z</time></trkpt><trkpt lat="45.62205186111075" lon="10.855120834141381"><ele>117.0</ele><time>2026-04-26T08:31:50.999Z</time></trkpt><trkpt lat="45.622239427463995" lon="10.855265553625655"><ele>120.0</ele><time>2026-04-26T08:31:51.999Z</time></trkpt><trkpt lat="45.62239134103912" lon="10.855447390348829"><ele>120.0</ele><time>2026-04-26T08:31:52.999Z</time></trkpt><trkpt lat="45.622454337239205" lon="10.855814961750987"><ele>120.0</ele><time>2026-04-26T08:31:53.999Z</time></trkpt><trkpt lat="45.62250998847269" lon="10.856094346825389"><ele>117.66666666666666</ele><time>2026-04-26T08:31:54.999Z</time></trkpt><trkpt lat="45.622561268526944" lon="10.856378019709249"><ele>115.33333333333333</ele><time>2026-04-26T08:31:55.999Z</time></trkpt><trkpt lat="45.622636605216314" lon="10.8566168337866"><ele>113.0</ele><time>2026-04-26T08:31:56.999Z</time></trkpt><trkpt lat="45.62285007708746" lon="10.85677211729009"><ele>115.33333333333333</ele><time>2026-04-26T08:31:57.999Z</time></trkpt><trkpt lat="45.62297966818077" lon="10.8570040095548"><ele>117.66666666666666</ele><time>2026-04-26T08:31:58.999Z</time></trkpt><trkpt lat="45.62311714319711" lon="10.857246252949484"><ele>120.0</ele><time>2026-04-26T08:31:59.999Z</time></trkpt><trkpt lat="45.6232220050503" lon="10.857467226285154"><ele>120.0</ele><time>2026-04-26T08:32:00.999Z</time></trkpt><trkpt lat="45.623335721546006" lon="10.857703310747734"><ele>120.0</ele><time>2026-04-26T08:32:01.999Z</time></trkpt><trkpt lat="45.62344532945724" lon="10.857930738182288"><ele>120.0</ele><time>2026-04-26T08:32:02.999Z</time></trkpt><trkpt lat="45.62355780564567" lon="10.8581430293445"><ele>122.66666666666666</ele><time>2026-04-26T08:32:03.999Z</time></trkpt><trkpt lat="45.62366511361798" lon="10.85834569392359"><ele>125.33333333333333</ele><time>2026-04-26T08:32:04.999Z</time></trkpt><trkpt lat="45.62376174696661" lon="10.85856002114075"><ele>128.0</ele><time>2026-04-26T08:32:05.999Z</time></trkpt><trkpt lat="45.62384125972428" lon="10.858780057679102"><ele>128.66666666666666</ele><time>2026-04-26T08:32:06.999Z</time></trkpt><trkpt lat="45.62390466911875" lon="10.859018853310543"><ele>129.33333333333334</ele><time>2026-04-26T08:32:07.999Z</time></trkpt><trkpt lat="45.62396800438025" lon="10.859301909764074"><ele>130.0</ele><time>2026-04-26T08:32:08.999Z</time></trkpt><trkpt lat="45.62401979860522" lon="10.859584354083921"><ele>130.0</ele><time>2026-04-26T08:32:09.999Z</time></trkpt><trkpt lat="45.624056130194624" lon="10.859818479226789"><ele>130.0</ele><time>2026-04-26T08:32:10.999Z</time></trkpt><trkpt lat="45.62409426601022" lon="10.860053397258525"><ele>130.0</ele><time>2026-04-26T08:32:11.999Z</time></trkpt><trkpt lat="45.62416751117351" lon="10.860331874636044"><ele>130.66666666666669</ele><time>2026-04-26T08:32:12.999Z</time></trkpt><trkpt lat="45.62423235683344" lon="10.860604367035904"><ele>131.33333333333334</ele><time>2026-04-26T08:32:13.999Z</time></trkpt><trkpt lat="45.62429561298075" lon="10.860881622125103"><ele>132.0</ele><time>2026-04-26T08:32:14.999Z</time></trkpt><trkpt lat="45.62438283287611" lon="10.861189334820345"><ele>130.5</ele><time>2026-04-26T08:32:15.999Z</time></trkpt><trkpt lat="45.6245030648999" lon="10.86148820762503"><ele>129.0</ele><time>2026-04-26T08:32:16.999Z</time></trkpt><trkpt lat="45.62461360170587" lon="10.861767252608184"><ele>129.0</ele><time>2026-04-26T08:32:17.999Z</time></trkpt><trkpt lat="45.6246897612827" lon="10.862048899984964"><ele>129.0</ele><time>2026-04-26T08:32:18.999Z</time></trkpt><trkpt lat="45.624788861190076" lon="10.862272975061707"><ele>129.0</ele><time>2026-04-26T08:32:19.999Z</time></trkpt><trkpt lat="45.62486659841484" lon="10.862467430835578"><ele>128.8</ele><time>2026-04-26T08:32:20.999Z</time></trkpt><trkpt lat="45.62494157667548" lon="10.862634565637832"><ele>128.60000000000002</ele><time>2026-04-26T08:32:21.999Z</time></trkpt><trkpt lat="45.62500140965772" lon="10.862744631426812"><ele>128.4</ele><time>2026-04-26T08:32:22.999Z</time></trkpt><trkpt lat="45.62506433878355" lon="10.862827379702711"><ele>128.20000000000002</ele><time>2026-04-26T08:32:23.999Z</time></trkpt><trkpt lat="45.62510449092624" lon="10.862940893488243"><ele>128.0</ele><time>2026-04-26T08:32:25.999Z</time></trkpt><trkpt lat="45.62504386074784" lon="10.863089382683903"><ele>128.0</ele><time>2026-04-26T08:32:28Z</time></trkpt><trkpt lat="45.62499462976015" lon="10.86323267317835"><ele>128.0</ele><time>2026-04-26T08:32:29Z</time></trkpt><trkpt lat="45.62495718623826" lon="10.863406832318242"><ele>128.0</ele><time>2026-04-26T08:32:30Z</time></trkpt><trkpt lat="45.624938470877964" lon="10.863618378342357"><ele>128.0</ele><time>2026-04-26T08:32:31Z</time></trkpt><trkpt lat="45.6249455193234" lon="10.863803173061218"><ele>127.5</ele><time>2026-04-26T08:32:32Z</time></trkpt><trkpt lat="45.624949684922164" lon="10.863965191512378"><ele>127.0</ele><time>2026-04-26T08:32:33Z</time></trkpt><trkpt lat="45.624927693934616" lon="10.86411630230285"><ele>126.5</ele><time>2026-04-26T08:32:34Z</time></trkpt><trkpt lat="45.62487463919786" lon="10.86425544407836"><ele>126.0</ele><time>2026-04-26T08:32:35Z</time></trkpt><trkpt lat="45.62479481164279" lon="10.864411128272234"><ele>125.6</ele><time>2026-04-26T08:32:36Z</time></trkpt><trkpt lat="45.62474756852599" lon="10.864529784135174"><ele>125.19999999999999</ele><time>2026-04-26T08:32:37Z</time></trkpt><trkpt lat="45.62469425884317" lon="10.864666617670323"><ele>124.80000000000001</ele><time>2026-04-26T08:32:38Z</time></trkpt><trkpt lat="45.624658615045654" lon="10.864771203797757"><ele>124.4</ele><time>2026-04-26T08:32:39Z</time></trkpt><trkpt lat="45.62462893339577" lon="10.86486085393022"><ele>124.0</ele><time>2026-04-26T08:32:41Z</time></trkpt><trkpt lat="45.62476725934398" lon="10.864951326273303"><ele>124.0</ele><time>2026-04-26T08:32:45Z</time></trkpt><trkpt lat="45.62487494114596" lon="10.865020430098841"><ele>124.0</ele><time>2026-04-26T08:32:46Z</time></trkpt><trkpt lat="45.62500124511512" lon="10.865074873310505"><ele>124.0</ele><time>2026-04-26T08:32:47Z</time></trkpt><trkpt lat="45.62513070397879" lon="10.865107533706706"><ele>124.0</ele><time>2026-04-26T08:32:48Z</time></trkpt><trkpt lat="45.62524989774467" lon="10.865191856278509"><ele>124.0</ele><time>2026-04-26T08:32:49Z</time></trkpt><trkpt lat="45.625356197966994" lon="10.865256444733678"><ele>124.0</ele><time>2026-04-26T08:32:50Z</time></trkpt><trkpt lat="45.625453864577715" lon="10.865332395343197"><ele>124.0</ele><time>2026-04-26T08:32:51Z</time></trkpt><trkpt lat="45.62556783571541" lon="10.865401667720763"><ele>124.0</ele><time>2026-04-26T08:32:52Z</time></trkpt><trkpt lat="45.62567776358989" lon="10.865521121947719"><ele>124.0</ele><time>2026-04-26T08:32:53Z</time></trkpt><trkpt lat="45.62580497766069" lon="10.86561278163419"><ele>124.0</ele><time>2026-04-26T08:32:54Z</time></trkpt><trkpt lat="45.625930641233566" lon="10.86570898296567"><ele>124.0</ele><time>2026-04-26T08:32:55Z</time></trkpt><trkpt lat="45.62605785279917" lon="10.865816511633556"><ele>124.0</ele><time>2026-04-26T08:32:56Z</time></trkpt><trkpt lat="45.626181277821644" lon="10.86592166986714"><ele>123.75</ele><time>2026-04-26T08:32:57Z</time></trkpt><trkpt lat="45.62630495273523" lon="10.86602593107647"><ele>123.5</ele><time>2026-04-26T08:32:58Z</time></trkpt><trkpt lat="45.626418598737416" lon="10.866121784666225"><ele>123.25</ele><time>2026-04-26T08:32:59Z</time></trkpt><trkpt lat="45.62654217524276" lon="10.866232257013044"><ele>123.0</ele><time>2026-04-26T08:33:00Z</time></trkpt><trkpt lat="45.626666268119344" lon="10.866365669053186"><ele>123.0</ele><time>2026-04-26T08:33:01Z</time></trkpt><trkpt lat="45.626798566694745" lon="10.866479737253565"><ele>123.0</ele><time>2026-04-26T08:33:02Z</time></trkpt><trkpt lat="45.626943409712055" lon="10.866571088115066"><ele>123.0</ele><time>2026-04-26T08:33:03Z</time></trkpt><trkpt lat="45.62707548117583" lon="10.866680908314269"><ele>122.33333333333334</ele><time>2026-04-26T08:33:04Z</time></trkpt><trkpt lat="45.62720963952436" lon="10.866821064610875"><ele>121.66666666666667</ele><time>2026-04-26T08:33:05Z</time></trkpt><trkpt lat="45.627339652239655" lon="10.866936144089388"><ele>121.0</ele><time>2026-04-26T08:33:06Z</time></trkpt><trkpt lat="45.62748024794647" lon="10.867031787023237"><ele>121.0</ele><time>2026-04-26T08:33:07Z</time></trkpt><trkpt lat="45.627610668805985" lon="10.867144198155968"><ele>121.0</ele><time>2026-04-26T08:33:08Z</time></trkpt><trkpt lat="45.62774194171935" lon="10.86725837558485"><ele>121.0</ele><time>2026-04-26T08:33:09Z</time></trkpt><trkpt lat="45.62787561247585" lon="10.867374858673564"><ele>121.66666666666667</ele><time>2026-04-26T08:33:10Z</time></trkpt><trkpt lat="45.62800711118967" lon="10.867484370239712"><ele>122.33333333333334</ele><time>2026-04-26T08:33:11Z</time></trkpt><trkpt lat="45.628143927341156" lon="10.8675916272584"><ele>123.0</ele><time>2026-04-26T08:33:12Z</time></trkpt><trkpt lat="45.62826822111555" lon="10.867722273425859"><ele>123.0</ele><time>2026-04-26T08:33:13Z</time></trkpt><trkpt lat="45.628398774988305" lon="10.867834378180339"><ele>123.0</ele><time>2026-04-26T08:33:14Z</time></trkpt><trkpt lat="45.62853384730407" lon="10.867916996611513"><ele>123.0</ele><time>2026-04-26T08:33:15Z</time></trkpt><trkpt lat="45.62865200354351" lon="10.868047605804438"><ele>123.0</ele><time>2026-04-26T08:33:16Z</time></trkpt><trkpt lat="45.62877003459196" lon="10.868136575586156"><ele>122.75</ele><time>2026-04-26T08:33:17Z</time></trkpt><trkpt lat="45.62888295951891" lon="10.8682289606533"><ele>122.5</ele><time>2026-04-26T08:33:18Z</time></trkpt><trkpt lat="45.62900452551364" lon="10.8683366431103"><ele>122.25</ele><time>2026-04-26T08:33:19Z</time></trkpt><trkpt lat="45.62913008073783" lon="10.868459028265123"><ele>122.0</ele><time>2026-04-26T08:33:20Z</time></trkpt><trkpt lat="45.62925741070569" lon="10.868571849064887"><ele>122.0</ele><time>2026-04-26T08:33:21Z</time></trkpt><trkpt lat="45.62938511628987" lon="10.868695220183708"><ele>122.0</ele><time>2026-04-26T08:33:22Z</time></trkpt><trkpt lat="45.629519616776996" lon="10.868820386156159"><ele>122.0</ele><time>2026-04-26T08:33:23Z</time></trkpt><trkpt lat="45.629653540845936" lon="10.868943098255835"><ele>122.66666666666666</ele><time>2026-04-26T08:33:24Z</time></trkpt><trkpt lat="45.62979184981966" lon="10.869053521795353"><ele>123.33333333333334</ele><time>2026-04-26T08:33:25Z</time></trkpt><trkpt lat="45.6299382888451" lon="10.869178682462886"><ele>124.0</ele><time>2026-04-26T08:33:26Z</time></trkpt><trkpt lat="45.630087915683205" lon="10.869302389929878"><ele>123.33333333333334</ele><time>2026-04-26T08:33:27Z</time></trkpt><trkpt lat="45.630231168218735" lon="10.869426261821264"><ele>122.66666666666666</ele><time>2026-04-26T08:33:28Z</time></trkpt><trkpt lat="45.63036728477045" lon="10.869538376526533"><ele>122.0</ele><time>2026-04-26T08:33:29Z</time></trkpt><trkpt lat="45.63050962004402" lon="10.869663591378746"><ele>122.0</ele><time>2026-04-26T08:33:30Z</time></trkpt><trkpt lat="45.630643317721834" lon="10.86978076426756"><ele>122.0</ele><time>2026-04-26T08:33:31Z</time></trkpt><trkpt lat="45.630780219249274" lon="10.86989467271704"><ele>122.0</ele><time>2026-04-26T08:33:32Z</time></trkpt><trkpt lat="45.630910371635" lon="10.870008623381612"><ele>122.0</ele><time>2026-04-26T08:33:33Z</time></trkpt><trkpt lat="45.631042430719845" lon="10.870129046941695"><ele>122.0</ele><time>2026-04-26T08:33:34Z</time></trkpt><trkpt lat="45.631178342168326" lon="10.870257013112674"><ele>122.0</ele><time>2026-04-26T08:33:35Z</time></trkpt><trkpt lat="45.63132683983608" lon="10.870394612509552"><ele>122.0</ele><time>2026-04-26T08:33:36Z</time></trkpt><trkpt lat="45.63146684745679" lon="10.870544357784468"><ele>122.0</ele><time>2026-04-26T08:33:37Z</time></trkpt><trkpt lat="45.631627500358654" lon="10.87071079699757"><ele>122.0</ele><time>2026-04-26T08:33:38Z</time></trkpt><trkpt lat="45.631775028268805" lon="10.87085938685989"><ele>122.5</ele><time>2026-04-26T08:33:39Z</time></trkpt><trkpt lat="45.63188151131038" lon="10.870965947714454"><ele>123.0</ele><time>2026-04-26T08:33:40Z</time></trkpt><trkpt lat="45.632008738370054" lon="10.871094765537448"><ele>123.5</ele><time>2026-04-26T08:33:41Z</time></trkpt><trkpt lat="45.63211969447501" lon="10.871203702632922"><ele>124.0</ele><time>2026-04-26T08:33:42Z</time></trkpt><trkpt lat="45.63221751286029" lon="10.871292496001601"><ele>124.0</ele><time>2026-04-26T08:33:43Z</time></trkpt><trkpt lat="45.632286945237325" lon="10.871382148402597"><ele>124.0</ele><time>2026-04-26T08:33:44Z</time></trkpt><trkpt lat="45.632355753120784" lon="10.871456472367116"><ele>124.0</ele><time>2026-04-26T08:33:45Z</time></trkpt><trkpt lat="45.63244062707577" lon="10.871532461520347"><ele>124.0</ele><time>2026-04-26T08:33:47Z</time></trkpt><trkpt lat="45.63241847450381" lon="10.87176652217647"><ele>124.0</ele><time>2026-04-26T08:33:48Z</time></trkpt><trkpt lat="45.63239243306078" lon="10.871966651557024"><ele>124.0</ele><time>2026-04-26T08:33:49Z</time></trkpt><trkpt lat="45.63239056060764" lon="10.872163850005514"><ele>124.0</ele><time>2026-04-26T08:33:50Z</time></trkpt><trkpt lat="45.632414355551234" lon="10.872301186225453"><ele>124.0</ele><time>2026-04-26T08:33:51Z</time></trkpt><trkpt lat="45.632487380904195" lon="10.872406119728096"><ele>124.0</ele><time>2026-04-26T08:33:52Z</time></trkpt><trkpt lat="45.63260063977685" lon="10.872494960735402"><ele>124.0</ele><time>2026-04-26T08:33:53Z</time></trkpt><trkpt lat="45.63275663433632" lon="10.872593378849086"><ele>124.0</ele><time>2026-04-26T08:33:54Z</time></trkpt><trkpt lat="45.63292796980486" lon="10.872700068055531"><ele>124.0</ele><time>2026-04-26T08:33:55Z</time></trkpt><trkpt lat="45.633111456285505" lon="10.872820171755848"><ele>124.33333333333334</ele><time>2026-04-26T08:33:56Z</time></trkpt><trkpt lat="45.63329203738069" lon="10.872927609015948"><ele>124.66666666666666</ele><time>2026-04-26T08:33:57Z</time></trkpt><trkpt lat="45.63346152597649" lon="10.873035466727472"><ele>125.0</ele><time>2026-04-26T08:33:58Z</time></trkpt><trkpt lat="45.63364770047745" lon="10.873159153448256"><ele>124.0</ele><time>2026-04-26T08:33:59Z</time></trkpt><trkpt lat="45.63381432830887" lon="10.873312213821475"><ele>123.0</ele><time>2026-04-26T08:34:00Z</time></trkpt><trkpt lat="45.633970800957755" lon="10.87343352466779"><ele>122.0</ele><time>2026-04-26T08:34:01Z</time></trkpt><trkpt lat="45.634126000903954" lon="10.873527886115024"><ele>122.0</ele><time>2026-04-26T08:34:02Z</time></trkpt><trkpt lat="45.6342606453203" lon="10.87363959129487"><ele>122.0</ele><time>2026-04-26T08:34:03Z</time></trkpt><trkpt lat="45.63437369324532" lon="10.873739449155465"><ele>122.0</ele><time>2026-04-26T08:34:04Z</time></trkpt><trkpt lat="45.634474479154235" lon="10.873824595807774"><ele>122.0</ele><time>2026-04-26T08:34:05Z</time></trkpt><trkpt lat="45.63455771856876" lon="10.873888612506635"><ele>121.99999999999999</ele><time>2026-04-26T08:34:06Z</time></trkpt><trkpt lat="45.63461936613056" lon="10.873921572159368"><ele>122.0</ele><time>2026-04-26T08:34:07Z</time></trkpt><trkpt lat="45.634680457839416" lon="10.87394417931886"><ele>122.0</ele><time>2026-04-26T08:34:09Z</time></trkpt><trkpt lat="45.634787690839644" lon="10.87378706108699"><ele>122.0</ele><time>2026-04-26T08:34:11.999Z</time></trkpt><trkpt lat="45.63482638961042" lon="10.873693213566959"><ele>121.99999999999999</ele><time>2026-04-26T08:34:12.999Z</time></trkpt><trkpt lat="45.63486213113973" lon="10.873606537428554"><ele>122.0</ele><time>2026-04-26T08:34:13.999Z</time></trkpt><trkpt lat="45.63491987781279" lon="10.873491049947427"><ele>121.99999999999999</ele><time>2026-04-26T08:34:15.999Z</time></trkpt><trkpt lat="45.6349848065823" lon="10.873434424266371"><ele>122.0</ele><time>2026-04-26T08:34:18.999Z</time></trkpt><trkpt lat="45.635036706431656" lon="10.87351819449885"><ele>122.0</ele><time>2026-04-26T08:34:26.999Z</time></trkpt><trkpt lat="45.635130205981525" lon="10.873580643590136"><ele>122.0</ele><time>2026-04-26T08:34:28.999Z</time></trkpt><trkpt lat="45.63519002512851" lon="10.873615022121665"><ele>121.99999999999999</ele><time>2026-04-26T08:34:29.999Z</time></trkpt><trkpt lat="45.63525160562402" lon="10.87367858519769"><ele>122.0</ele><time>2026-04-26T08:34:30.999Z</time></trkpt><trkpt lat="45.635332601169" lon="10.873746998625137"><ele>122.0</ele><time>2026-04-26T08:34:31.999Z</time></trkpt><trkpt lat="45.63542575295139" lon="10.873830038155349"><ele>122.0</ele><time>2026-04-26T08:34:32.999Z</time></trkpt><trkpt lat="45.63552592967233" lon="10.873916513442017"><ele>122.0</ele><time>2026-04-26T08:34:34Z</time></trkpt><trkpt lat="45.635629695761644" lon="10.874003164274573"><ele>122.0</ele><time>2026-04-26T08:34:35Z</time></trkpt><trkpt lat="45.63572937943554" lon="10.874097637534511"><ele>122.0</ele><time>2026-04-26T08:34:36Z</time></trkpt><trkpt lat="45.635828381969304" lon="10.87420162004142"><ele>122.0</ele><time>2026-04-26T08:34:37Z</time></trkpt><trkpt lat="45.63593132078622" lon="10.874303944409142"><ele>122.0</ele><time>2026-04-26T08:34:38Z</time></trkpt><trkpt lat="45.63604526777148" lon="10.874406621363235"><ele>122.0</ele><time>2026-04-26T08:34:39Z</time></trkpt><trkpt lat="45.636164810066354" lon="10.874516275105558"><ele>121.75</ele><time>2026-04-26T08:34:40Z</time></trkpt><trkpt lat="45.63627288488099" lon="10.874635800190925"><ele>121.5</ele><time>2026-04-26T08:34:41Z</time></trkpt><trkpt lat="45.63637809396609" lon="10.874743227981188"><ele>121.25</ele><time>2026-04-26T08:34:42Z</time></trkpt><trkpt lat="45.63649385829283" lon="10.874850598076117"><ele>121.0</ele><time>2026-04-26T08:34:43Z</time></trkpt><trkpt lat="45.636610768721276" lon="10.874960849438187"><ele>121.0</ele><time>2026-04-26T08:34:44Z</time></trkpt><trkpt lat="45.636715733142736" lon="10.875082773391588"><ele>121.0</ele><time>2026-04-26T08:34:45Z</time></trkpt><trkpt lat="45.6368281342418" lon="10.875197818168711"><ele>121.0</ele><time>2026-04-26T08:34:46Z</time></trkpt><trkpt lat="45.636944908555726" lon="10.875301399235187"><ele>121.0</ele><time>2026-04-26T08:34:47Z</time></trkpt><trkpt lat="45.637047856473984" lon="10.875400115875694"><ele>121.0</ele><time>2026-04-26T08:34:48Z</time></trkpt><trkpt lat="45.63714778570697" lon="10.875494972632172"><ele>121.0</ele><time>2026-04-26T08:34:49Z</time></trkpt><trkpt lat="45.637247180238255" lon="10.875601029758085"><ele>121.0</ele><time>2026-04-26T08:34:50Z</time></trkpt><trkpt lat="45.63734394535146" lon="10.875687553048754"><ele>121.0</ele><time>2026-04-26T08:34:51Z</time></trkpt><trkpt lat="45.63742496571207" lon="10.87576849901506"><ele>121.0</ele><time>2026-04-26T08:34:52Z</time></trkpt><trkpt lat="45.63749740422581" lon="10.875845302180236"><ele>121.0</ele><time>2026-04-26T08:34:53Z</time></trkpt><trkpt lat="45.637550757585615" lon="10.875898651059495"><ele>121.0</ele><time>2026-04-26T08:34:54Z</time></trkpt><trkpt lat="45.6376082616573" lon="10.876000248904157"><ele>121.0</ele><time>2026-04-26T08:34:56Z</time></trkpt><trkpt lat="45.63758872426185" lon="10.87619468542347"><ele>121.0</ele><time>2026-04-26T08:34:58Z</time></trkpt><trkpt lat="45.637579117063154" lon="10.876299398255348"><ele>120.8</ele><time>2026-04-26T08:34:59Z</time></trkpt><trkpt lat="45.63762289802178" lon="10.87645957614999"><ele>120.6</ele><time>2026-04-26T08:35:01Z</time></trkpt><trkpt lat="45.63771283963499" lon="10.876572658729087"><ele>120.4</ele><time>2026-04-26T08:35:03Z</time></trkpt><trkpt lat="45.63778499417323" lon="10.876613179786437"><ele>120.2</ele><time>2026-04-26T08:35:04Z</time></trkpt><trkpt lat="45.63788153847958" lon="10.876647031731785"><ele>120.0</ele><time>2026-04-26T08:35:05Z</time></trkpt><trkpt lat="45.637974872772354" lon="10.876691493750396"><ele>120.0</ele><time>2026-04-26T08:35:06Z</time></trkpt><trkpt lat="45.63804504754625" lon="10.876724023244627"><ele>120.0</ele><time>2026-04-26T08:35:07Z</time></trkpt><trkpt lat="45.638115522269004" lon="10.87677560048955"><ele>120.0</ele><time>2026-04-26T08:35:09Z</time></trkpt><trkpt lat="45.63811881334226" lon="10.876895961445218"><ele>120.0</ele><time>2026-04-26T08:35:11Z</time></trkpt><trkpt lat="45.63813096793595" lon="10.877027226834594"><ele>120.0</ele><time>2026-04-26T08:35:13Z</time></trkpt><trkpt lat="45.63824070638607" lon="10.877055035421156"><ele>120.0</ele><time>2026-04-26T08:35:15Z</time></trkpt><trkpt lat="45.63829684927406" lon="10.877117200195809"><ele>120.2</ele><time>2026-04-26T08:35:16Z</time></trkpt><trkpt lat="45.63837666398923" lon="10.87717650846982"><ele>120.4</ele><time>2026-04-26T08:35:17Z</time></trkpt><trkpt lat="45.63850005829476" lon="10.877109494084959"><ele>120.6</ele><time>2026-04-26T08:35:18Z</time></trkpt><trkpt lat="45.63857192476485" lon="10.877126553613477"><ele>120.8</ele><time>2026-04-26T08:35:19Z</time></trkpt><trkpt lat="45.6386658649883" lon="10.877196124797628"><ele>121.0</ele><time>2026-04-26T08:35:21Z</time></trkpt><trkpt lat="45.638814479860024" lon="10.877128468856867"><ele>121.0</ele><time>2026-04-26T08:35:22Z</time></trkpt><trkpt lat="45.63888501085028" lon="10.877218639163173"><ele>121.0</ele><time>2026-04-26T08:35:23Z</time></trkpt><trkpt lat="45.638957714145846" lon="10.877311587694196"><ele>121.0</ele><time>2026-04-26T08:35:24Z</time></trkpt><trkpt lat="45.63903772533501" lon="10.877413878202775"><ele>121.0</ele><time>2026-04-26T08:35:25Z</time></trkpt><trkpt lat="45.63912635169194" lon="10.877526717583116"><ele>121.0</ele><time>2026-04-26T08:35:26Z</time></trkpt><trkpt lat="45.63921860496594" lon="10.877641263758536"><ele>120.75</ele><time>2026-04-26T08:35:27Z</time></trkpt><trkpt lat="45.63931416542335" lon="10.87775780067498"><ele>120.5</ele><time>2026-04-26T08:35:28Z</time></trkpt><trkpt lat="45.63941458292803" lon="10.877874514299698"><ele>120.25</ele><time>2026-04-26T08:35:29Z</time></trkpt><trkpt lat="45.63951634047186" lon="10.877989107003787"><ele>120.0</ele><time>2026-04-26T08:35:30Z</time></trkpt><trkpt lat="45.63961586720236" lon="10.878099905632014"><ele>120.0</ele><time>2026-04-26T08:35:31Z</time></trkpt><trkpt lat="45.63971765542089" lon="10.878209548487648"><ele>120.0</ele><time>2026-04-26T08:35:32Z</time></trkpt><trkpt lat="45.63981851679671" lon="10.878312478791356"><ele>120.0</ele><time>2026-04-26T08:35:33Z</time></trkpt><trkpt lat="45.63993665070695" lon="10.878427369080178"><ele>120.0</ele><time>2026-04-26T08:35:34Z</time></trkpt><trkpt lat="45.64004930390561" lon="10.878533655508377"><ele>119.25</ele><time>2026-04-26T08:35:35Z</time></trkpt><trkpt lat="45.64015109650206" lon="10.878626305201959"><ele>118.5</ele><time>2026-04-26T08:35:36Z</time></trkpt><trkpt lat="45.640248567799524" lon="10.878713117766285"><ele>117.75</ele><time>2026-04-26T08:35:37Z</time></trkpt><trkpt lat="45.64034598995649" lon="10.878795613465888"><ele>117.0</ele><time>2026-04-26T08:35:38Z</time></trkpt><trkpt lat="45.640457879916" lon="10.878885177705591"><ele>117.0</ele><time>2026-04-26T08:35:39Z</time></trkpt><trkpt lat="45.640580553046405" lon="10.878977986277853"><ele>117.0</ele><time>2026-04-26T08:35:40Z</time></trkpt><trkpt lat="45.64070228589054" lon="10.879069893364404"><ele>117.0</ele><time>2026-04-26T08:35:41Z</time></trkpt><trkpt lat="45.64083246607344" lon="10.879166909044441"><ele>117.0</ele><time>2026-04-26T08:35:42Z</time></trkpt><trkpt lat="45.64095960926233" lon="10.879260456557498"><ele>116.66666666666666</ele><time>2026-04-26T08:35:43Z</time></trkpt><trkpt lat="45.64111163578538" lon="10.879372312309162"><ele>116.33333333333333</ele><time>2026-04-26T08:35:44Z</time></trkpt><trkpt lat="45.64126144361734" lon="10.879482535662234"><ele>116.0</ele><time>2026-04-26T08:35:45Z</time></trkpt><trkpt lat="45.64141675497565" lon="10.879596808331131"><ele>116.0</ele><time>2026-04-26T08:35:46Z</time></trkpt><trkpt lat="45.641547866793786" lon="10.879693725610492"><ele>116.0</ele><time>2026-04-26T08:35:47Z</time></trkpt><trkpt lat="45.64166705932797" lon="10.87978677239172"><ele>116.0</ele><time>2026-04-26T08:35:48Z</time></trkpt><trkpt lat="45.641795803563404" lon="10.879893764668275"><ele>116.0</ele><time>2026-04-26T08:35:49Z</time></trkpt><trkpt lat="45.64193120410072" lon="10.880007534816183"><ele>116.0</ele><time>2026-04-26T08:35:50Z</time></trkpt><trkpt lat="45.64203634255769" lon="10.880099917851776"><ele>116.0</ele><time>2026-04-26T08:35:51Z</time></trkpt><trkpt lat="45.642138652813394" lon="10.880193564487586"><ele>116.0</ele><time>2026-04-26T08:35:52Z</time></trkpt><trkpt lat="45.64223509058138" lon="10.880283337033044"><ele>116.0</ele><time>2026-04-26T08:35:53Z</time></trkpt><trkpt lat="45.64232474144623" lon="10.880369424946302"><ele>114.8</ele><time>2026-04-26T08:35:54Z</time></trkpt><trkpt lat="45.64239964372556" lon="10.880441350515381"><ele>113.6</ele><time>2026-04-26T08:35:55Z</time></trkpt><trkpt lat="45.6424613103679" lon="10.880500566327456"><ele>112.4</ele><time>2026-04-26T08:35:56Z</time></trkpt><trkpt lat="45.642542532160476" lon="10.880578560182132"><ele>111.2</ele><time>2026-04-26T08:35:58Z</time></trkpt><trkpt lat="45.642620529266416" lon="10.88065961979474"><ele>110.0</ele><time>2026-04-26T08:36:01Z</time></trkpt><trkpt lat="45.64270933671432" lon="10.880592317459069"><ele>109.5</ele><time>2026-04-26T08:36:03Z</time></trkpt><trkpt lat="45.642840198725274" lon="10.880560635035401"><ele>109.0</ele><time>2026-04-26T08:36:05Z</time></trkpt><trkpt lat="45.64294061014466" lon="10.88049709534357"><ele>108.5</ele><time>2026-04-26T08:36:06Z</time></trkpt><trkpt lat="45.64303436956023" lon="10.880409390740011"><ele>108.0</ele><time>2026-04-26T08:36:07Z</time></trkpt><trkpt lat="45.643115742679036" lon="10.880323556510344"><ele>108.0</ele><time>2026-04-26T08:36:08Z</time></trkpt><trkpt lat="45.643177393388136" lon="10.880256423808538"><ele>108.0</ele><time>2026-04-26T08:36:09Z</time></trkpt><trkpt lat="45.64322476967155" lon="10.880193889218937"><ele>108.0</ele><time>2026-04-26T08:36:10Z</time></trkpt><trkpt lat="45.64326234443791" lon="10.880107671759594"><ele>108.0</ele><time>2026-04-26T08:36:11Z</time></trkpt><trkpt lat="45.64329029442799" lon="10.880000529307281"><ele>108.0</ele><time>2026-04-26T08:36:12Z</time></trkpt><trkpt lat="45.64331152827142" lon="10.879876783230436"><ele>108.0</ele><time>2026-04-26T08:36:13Z</time></trkpt><trkpt lat="45.64332440799251" lon="10.879748847971536"><ele>108.2</ele><time>2026-04-26T08:36:14Z</time></trkpt><trkpt lat="45.64332720894766" lon="10.879618416456678"><ele>108.4</ele><time>2026-04-26T08:36:15Z</time></trkpt><trkpt lat="45.643328634957605" lon="10.879490123102022"><ele>108.60000000000001</ele><time>2026-04-26T08:36:16Z</time></trkpt><trkpt lat="45.64331468015768" lon="10.879348321951774"><ele>108.80000000000001</ele><time>2026-04-26T08:36:17Z</time></trkpt><trkpt lat="45.643289159119284" lon="10.87918417606268"><ele>109.0</ele><time>2026-04-26T08:36:18Z</time></trkpt><trkpt lat="45.64325496097301" lon="10.879017794253222"><ele>110.0</ele><time>2026-04-26T08:36:19Z</time></trkpt><trkpt lat="45.64321603383089" lon="10.87885511416888"><ele>111.0</ele><time>2026-04-26T08:36:20Z</time></trkpt><trkpt lat="45.64317119525102" lon="10.878727724727838"><ele>112.0</ele><time>2026-04-26T08:36:21Z</time></trkpt><trkpt lat="45.64312006794626" lon="10.878633904246236"><ele>113.0</ele><time>2026-04-26T08:36:22Z</time></trkpt><trkpt lat="45.64307864873823" lon="10.878554884343421"><ele>114.0</ele><time>2026-04-26T08:36:23Z</time></trkpt><trkpt lat="45.64295508741776" lon="10.878483316941047"><ele>114.0</ele><time>2026-04-26T08:36:26Z</time></trkpt><trkpt lat="45.64314396187492" lon="10.878413885845587"><ele>114.0</ele><time>2026-04-26T08:36:29Z</time></trkpt><trkpt lat="45.64324755527987" lon="10.878452723975943"><ele>114.0</ele><time>2026-04-26T08:36:30Z</time></trkpt><trkpt lat="45.64342951713098" lon="10.878532510520136"><ele>114.0</ele><time>2026-04-26T08:36:31Z</time></trkpt><trkpt lat="45.64361730811908" lon="10.878613993080409"><ele>114.0</ele><time>2026-04-26T08:36:32Z</time></trkpt><trkpt lat="45.643809281299376" lon="10.878681915570503"><ele>114.0</ele><time>2026-04-26T08:36:33Z</time></trkpt><trkpt lat="45.64400081170057" lon="10.878751974569271"><ele>114.66666666666666</ele><time>2026-04-26T08:36:34Z</time></trkpt><trkpt lat="45.64419565212471" lon="10.878821923665104"><ele>115.33333333333333</ele><time>2026-04-26T08:36:35Z</time></trkpt><trkpt lat="45.64439880784005" lon="10.878894425935586"><ele>116.0</ele><time>2026-04-26T08:36:36Z</time></trkpt><trkpt lat="45.644600777020884" lon="10.878961000151005"><ele>118.0</ele><time>2026-04-26T08:36:37Z</time></trkpt><trkpt lat="45.64480064914381" lon="10.879027506814815"><ele>120.0</ele><time>2026-04-26T08:36:38Z</time></trkpt><trkpt lat="45.64499643672064" lon="10.8790952190509"><ele>122.0</ele><time>2026-04-26T08:36:39Z</time></trkpt><trkpt lat="45.64518135397016" lon="10.879166955617766"><ele>124.0</ele><time>2026-04-26T08:36:40Z</time></trkpt><trkpt lat="45.645366861845886" lon="10.879222724589537"><ele>126.0</ele><time>2026-04-26T08:36:41Z</time></trkpt><trkpt lat="45.645544480909365" lon="10.879300941198117"><ele>128.0</ele><time>2026-04-26T08:36:42Z</time></trkpt><trkpt lat="45.645734763243105" lon="10.879363054206328"><ele>129.33333333333331</ele><time>2026-04-26T08:36:43Z</time></trkpt><trkpt lat="45.645921927537785" lon="10.879422910190186"><ele>130.66666666666666</ele><time>2026-04-26T08:36:44Z</time></trkpt><trkpt lat="45.646107669964955" lon="10.879493382908567"><ele>132.0</ele><time>2026-04-26T08:36:45Z</time></trkpt><trkpt lat="45.64628287578074" lon="10.879578023467626"><ele>132.0</ele><time>2026-04-26T08:36:46Z</time></trkpt><trkpt lat="45.64643763363416" lon="10.879700389082375"><ele>132.0</ele><time>2026-04-26T08:36:47Z</time></trkpt><trkpt lat="45.64657522368324" lon="10.879862750168757"><ele>132.0</ele><time>2026-04-26T08:36:48Z</time></trkpt><trkpt lat="45.646706905950595" lon="10.88006082163303"><ele>127.33333333333334</ele><time>2026-04-26T08:36:49Z</time></trkpt><trkpt lat="45.646810830592884" lon="10.880288728372578"><ele>122.66666666666667</ele><time>2026-04-26T08:36:50Z</time></trkpt><trkpt lat="45.64689313126044" lon="10.880495281647205"><ele>118.0</ele><time>2026-04-26T08:36:51Z</time></trkpt><trkpt lat="45.64696867346159" lon="10.880681613747054"><ele>122.66666666666667</ele><time>2026-04-26T08:36:52Z</time></trkpt><trkpt lat="45.64704600938339" lon="10.880857154068455"><ele>127.33333333333334</ele><time>2026-04-26T08:36:53Z</time></trkpt><trkpt lat="45.647139833147406" lon="10.881066823146476"><ele>132.0</ele><time>2026-04-26T08:36:54Z</time></trkpt><trkpt lat="45.64735142577775" lon="10.881349855688462"><ele>132.0</ele><time>2026-04-26T08:36:55Z</time></trkpt><trkpt lat="45.64745767778799" lon="10.881570895179106"><ele>132.0</ele><time>2026-04-26T08:36:56Z</time></trkpt><trkpt lat="45.6475661307904" lon="10.881798059258463"><ele>132.0</ele><time>2026-04-26T08:36:57Z</time></trkpt><trkpt lat="45.64767601384592" lon="10.882027193908007"><ele>132.33333333333334</ele><time>2026-04-26T08:36:58Z</time></trkpt><trkpt lat="45.64778819224484" lon="10.882246716331684"><ele>132.66666666666669</ele><time>2026-04-26T08:36:59Z</time></trkpt><trkpt lat="45.64789153878543" lon="10.882434660910189"><ele>133.0</ele><time>2026-04-26T08:37:00Z</time></trkpt><trkpt lat="45.64800677497507" lon="10.882625261410785"><ele>129.66666666666669</ele><time>2026-04-26T08:37:01Z</time></trkpt><trkpt lat="45.64813485632432" lon="10.882820437058124"><ele>126.33333333333334</ele><time>2026-04-26T08:37:02Z</time></trkpt><trkpt lat="45.648268741228186" lon="10.883004410289582"><ele>123.0</ele><time>2026-04-26T08:37:03Z</time></trkpt><trkpt lat="45.64841483982972" lon="10.883182013490082"><ele>123.0</ele><time>2026-04-26T08:37:04Z</time></trkpt><trkpt lat="45.64857620491467" lon="10.88333579111636"><ele>123.0</ele><time>2026-04-26T08:37:05Z</time></trkpt><trkpt lat="45.64872640212712" lon="10.883482397196122"><ele>123.0</ele><time>2026-04-26T08:37:06Z</time></trkpt><trkpt lat="45.64887571596256" lon="10.88362520881679"><ele>123.0</ele><time>2026-04-26T08:37:07Z</time></trkpt><trkpt lat="45.649023817638565" lon="10.88376501668189"><ele>123.0</ele><time>2026-04-26T08:37:08Z</time></trkpt><trkpt lat="45.649175057575796" lon="10.883905561408255"><ele>123.0</ele><time>2026-04-26T08:37:09Z</time></trkpt><trkpt lat="45.649332581224414" lon="10.88405296561085"><ele>125.0</ele><time>2026-04-26T08:37:10Z</time></trkpt><trkpt lat="45.64949437459837" lon="10.88420040221168"><ele>127.0</ele><time>2026-04-26T08:37:11Z</time></trkpt><trkpt lat="45.64965086855973" lon="10.884352205289987"><ele>129.0</ele><time>2026-04-26T08:37:12Z</time></trkpt><trkpt lat="45.649809853511755" lon="10.884505662780231"><ele>129.0</ele><time>2026-04-26T08:37:13Z</time></trkpt><trkpt lat="45.64997143138937" lon="10.88465553726549"><ele>129.0</ele><time>2026-04-26T08:37:14Z</time></trkpt><trkpt lat="45.650125464373986" lon="10.884795657665583"><ele>129.0</ele><time>2026-04-26T08:37:15Z</time></trkpt><trkpt lat="45.65027118275298" lon="10.884932571598494"><ele>129.0</ele><time>2026-04-26T08:37:16Z</time></trkpt><trkpt lat="45.65040953245239" lon="10.885108192647348"><ele>129.0</ele><time>2026-04-26T08:37:17Z</time></trkpt><trkpt lat="45.650545392650564" lon="10.885296363704521"><ele>129.0</ele><time>2026-04-26T08:37:18Z</time></trkpt><trkpt lat="45.65068980841609" lon="10.885474457670902"><ele>129.0</ele><time>2026-04-26T08:37:19Z</time></trkpt><trkpt lat="45.6508249662073" lon="10.885669753016739"><ele>129.0</ele><time>2026-04-26T08:37:20Z</time></trkpt><trkpt lat="45.65095048433083" lon="10.885852140436327"><ele>129.0</ele><time>2026-04-26T08:37:21Z</time></trkpt><trkpt lat="45.65107072797508" lon="10.886028634117375"><ele>130.33333333333334</ele><time>2026-04-26T08:37:22Z</time></trkpt><trkpt lat="45.65121101675835" lon="10.886237613258624"><ele>131.66666666666669</ele><time>2026-04-26T08:37:23Z</time></trkpt><trkpt lat="45.651341147766495" lon="10.886428580020985"><ele>133.0</ele><time>2026-04-26T08:37:24Z</time></trkpt><trkpt lat="45.651475174159884" lon="10.886634429911496"><ele>131.33333333333334</ele><time>2026-04-26T08:37:25Z</time></trkpt><trkpt lat="45.65161039551952" lon="10.886857361353757"><ele>129.66666666666666</ele><time>2026-04-26T08:37:26Z</time></trkpt><trkpt lat="45.65174757321694" lon="10.88703325703279"><ele>128.0</ele><time>2026-04-26T08:37:27Z</time></trkpt><trkpt lat="45.6518662079268" lon="10.887217183424996"><ele>129.33333333333331</ele><time>2026-04-26T08:37:28Z</time></trkpt><trkpt lat="45.651989025351284" lon="10.887391548710351"><ele>130.66666666666666</ele><time>2026-04-26T08:37:29Z</time></trkpt><trkpt lat="45.652118685000765" lon="10.887552395008122"><ele>132.0</ele><time>2026-04-26T08:37:30Z</time></trkpt><trkpt lat="45.6522373053603" lon="10.887699022662124"><ele>132.0</ele><time>2026-04-26T08:37:31Z</time></trkpt><trkpt lat="45.652357682141" lon="10.88784253519387"><ele>132.0</ele><time>2026-04-26T08:37:32Z</time></trkpt><trkpt lat="45.6524723996007" lon="10.887964947962594"><ele>132.0</ele><time>2026-04-26T08:37:33Z</time></trkpt><trkpt lat="45.65258512379114" lon="10.888067333523148"><ele>132.0</ele><time>2026-04-26T08:37:34Z</time></trkpt><trkpt lat="45.65269449762383" lon="10.888146129310794"><ele>131.75</ele><time>2026-04-26T08:37:35Z</time></trkpt><trkpt lat="45.65279290171111" lon="10.888257087286053"><ele>131.5</ele><time>2026-04-26T08:37:36Z</time></trkpt><trkpt lat="45.65283516987429" lon="10.88842681408178"><ele>131.25</ele><time>2026-04-26T08:37:37Z</time></trkpt><trkpt lat="45.65289509038975" lon="10.88865107465856"><ele>131.0</ele><time>2026-04-26T08:37:38Z</time></trkpt><trkpt lat="45.65293635478786" lon="10.888873301190442"><ele>131.0</ele><time>2026-04-26T08:37:39Z</time></trkpt><trkpt lat="45.65297263977816" lon="10.889046088550916"><ele>131.0</ele><time>2026-04-26T08:37:40Z</time></trkpt><trkpt lat="45.653007553707326" lon="10.889154531404998"><ele>131.0</ele><time>2026-04-26T08:37:41Z</time></trkpt><trkpt lat="45.65304043062993" lon="10.889275147835395"><ele>131.0</ele><time>2026-04-26T08:37:42Z</time></trkpt><trkpt lat="45.653075857098166" lon="10.889426021153708"><ele>131.0</ele><time>2026-04-26T08:37:43Z</time></trkpt><trkpt lat="45.653117386634115" lon="10.889588321401272"><ele>130.6</ele><time>2026-04-26T08:37:44Z</time></trkpt><trkpt lat="45.65315797278659" lon="10.889756138796741"><ele>130.2</ele><time>2026-04-26T08:37:45Z</time></trkpt><trkpt lat="45.653195491680904" lon="10.88989921959832"><ele>129.8</ele><time>2026-04-26T08:37:46Z</time></trkpt><trkpt lat="45.65323106433893" lon="10.890039812274223"><ele>129.4</ele><time>2026-04-26T08:37:47Z</time></trkpt><trkpt lat="45.65326672985941" lon="10.890179802799913"><ele>129.0</ele><time>2026-04-26T08:37:48Z</time></trkpt><trkpt lat="45.653300972540414" lon="10.890316154134592"><ele>128.5</ele><time>2026-04-26T08:37:49Z</time></trkpt><trkpt lat="45.65333815471575" lon="10.890454877619808"><ele>128.0</ele><time>2026-04-26T08:37:50Z</time></trkpt><trkpt lat="45.65338593395012" lon="10.890603071471617"><ele>127.5</ele><time>2026-04-26T08:37:51Z</time></trkpt><trkpt lat="45.653449109770534" lon="10.890761711004878"><ele>127.0</ele><time>2026-04-26T08:37:52Z</time></trkpt><trkpt lat="45.653526548428346" lon="10.890901494987215"><ele>127.0</ele><time>2026-04-26T08:37:53Z</time></trkpt><trkpt lat="45.65359959545259" lon="10.891022616578596"><ele>126.99999999999999</ele><time>2026-04-26T08:37:54Z</time></trkpt><trkpt lat="45.65366809051544" lon="10.891135576653575"><ele>126.99999999999999</ele><time>2026-04-26T08:37:55Z</time></trkpt><trkpt lat="45.65374024080021" lon="10.891258571952386"><ele>127.0</ele><time>2026-04-26T08:37:56Z</time></trkpt><trkpt lat="45.653814772153545" lon="10.89139038270834"><ele>127.0</ele><time>2026-04-26T08:37:57Z</time></trkpt><trkpt lat="45.65390439831114" lon="10.891521230976128"><ele>127.0</ele><time>2026-04-26T08:37:58Z</time></trkpt><trkpt lat="45.65396137563581" lon="10.891660360690501"><ele>126.99999999999999</ele><time>2026-04-26T08:37:59Z</time></trkpt><trkpt lat="45.65402272660665" lon="10.891781212182147"><ele>126.99999999999999</ele><time>2026-04-26T08:38:00Z</time></trkpt><trkpt lat="45.65407818680629" lon="10.89188965268608"><ele>127.0</ele><time>2026-04-26T08:38:01Z</time></trkpt><trkpt lat="45.65413556648727" lon="10.892005103677429"><ele>127.0</ele><time>2026-04-26T08:38:02Z</time></trkpt><trkpt lat="45.65418585857522" lon="10.892133258974745"><ele>126.75</ele><time>2026-04-26T08:38:03Z</time></trkpt><trkpt lat="45.654240053147184" lon="10.892281702496105"><ele>126.5</ele><time>2026-04-26T08:38:04Z</time></trkpt><trkpt lat="45.65428325234109" lon="10.892449659691161"><ele>126.25</ele><time>2026-04-26T08:38:05Z</time></trkpt><trkpt lat="45.65432169260625" lon="10.892595622276454"><ele>126.0</ele><time>2026-04-26T08:38:06Z</time></trkpt><trkpt lat="45.65436217001011" lon="10.892738574138008"><ele>125.83333333333333</ele><time>2026-04-26T08:38:07Z</time></trkpt><trkpt lat="45.65439427266497" lon="10.892867196294057"><ele>125.66666666666666</ele><time>2026-04-26T08:38:08Z</time></trkpt><trkpt lat="45.65442793687041" lon="10.892970004654847"><ele>125.5</ele><time>2026-04-26T08:38:09Z</time></trkpt><trkpt lat="45.654462140036145" lon="10.89307502584151"><ele>125.33333333333333</ele><time>2026-04-26T08:38:10Z</time></trkpt><trkpt lat="45.65449945790328" lon="10.893186257006242"><ele>125.16666666666666</ele><time>2026-04-26T08:38:11Z</time></trkpt><trkpt lat="45.654552605273274" lon="10.893301364705403"><ele>125.0</ele><time>2026-04-26T08:38:12Z</time></trkpt><trkpt lat="45.654603762756786" lon="10.893412710680632"><ele>123.5</ele><time>2026-04-26T08:38:13Z</time></trkpt><trkpt lat="45.65469053716876" lon="10.893548329719668"><ele>122.0</ele><time>2026-04-26T08:38:14Z</time></trkpt><trkpt lat="45.65478908995028" lon="10.893664013061759"><ele>120.5</ele><time>2026-04-26T08:38:15Z</time></trkpt><trkpt lat="45.65489830798483" lon="10.893760787010615"><ele>119.0</ele><time>2026-04-26T08:38:16Z</time></trkpt><trkpt lat="45.655038297685884" lon="10.893812172017698"><ele>119.0</ele><time>2026-04-26T08:38:17Z</time></trkpt><trkpt lat="45.65518568700551" lon="10.893840432250752"><ele>119.0</ele><time>2026-04-26T08:38:18Z</time></trkpt><trkpt lat="45.65533184588147" lon="10.893870332293599"><ele>119.0</ele><time>2026-04-26T08:38:19Z</time></trkpt><trkpt lat="45.65547927067821" lon="10.893891175762711"><ele>119.0</ele><time>2026-04-26T08:38:20Z</time></trkpt><trkpt lat="45.65563725954481" lon="10.89389757343552"><ele>119.66666666666666</ele><time>2026-04-26T08:38:21Z</time></trkpt><trkpt lat="45.655800576603845" lon="10.893908545891069"><ele>120.33333333333334</ele><time>2026-04-26T08:38:22Z</time></trkpt><trkpt lat="45.65594098051139" lon="10.893932500642393"><ele>121.0</ele><time>2026-04-26T08:38:23Z</time></trkpt><trkpt lat="45.65608346415983" lon="10.893978011846627"><ele>120.5</ele><time>2026-04-26T08:38:24Z</time></trkpt><trkpt lat="45.65622716234855" lon="10.894003117826289"><ele>120.0</ele><time>2026-04-26T08:38:25Z</time></trkpt><trkpt lat="45.65636091199208" lon="10.894019806117942"><ele>119.5</ele><time>2026-04-26T08:38:26Z</time></trkpt><trkpt lat="45.65647475915506" lon="10.894052432789577"><ele>119.0</ele><time>2026-04-26T08:38:27Z</time></trkpt><trkpt lat="45.65656471229274" lon="10.894071919192509"><ele>119.0</ele><time>2026-04-26T08:38:28Z</time></trkpt><trkpt lat="45.65664285697186" lon="10.89410584703705"><ele>119.0</ele><time>2026-04-26T08:38:29Z</time></trkpt><trkpt lat="45.65673017750759" lon="10.894129561003021"><ele>119.0</ele><time>2026-04-26T08:38:30Z</time></trkpt><trkpt lat="45.65683096417515" lon="10.894149378831166"><ele>119.0</ele><time>2026-04-26T08:38:31Z</time></trkpt><trkpt lat="45.65694842909385" lon="10.8941555883624"><ele>119.0</ele><time>2026-04-26T08:38:32Z</time></trkpt><trkpt lat="45.657073618438154" lon="10.894163517266795"><ele>119.5</ele><time>2026-04-26T08:38:33Z</time></trkpt><trkpt lat="45.657211305278935" lon="10.894179623562222"><ele>120.0</ele><time>2026-04-26T08:38:34Z</time></trkpt><trkpt lat="45.65735958560464" lon="10.894187881734036"><ele>120.5</ele><time>2026-04-26T08:38:35Z</time></trkpt><trkpt lat="45.65748869294428" lon="10.894182049084478"><ele>121.0</ele><time>2026-04-26T08:38:36Z</time></trkpt><trkpt lat="45.657598015831184" lon="10.894188503846696"><ele>121.0</ele><time>2026-04-26T08:38:37Z</time></trkpt><trkpt lat="45.65767110004556" lon="10.894209067642562"><ele>121.0</ele><time>2026-04-26T08:38:38Z</time></trkpt><trkpt lat="45.65774485042224" lon="10.894189251717483"><ele>121.0</ele><time>2026-04-26T08:38:41Z</time></trkpt><trkpt lat="45.65789183113668" lon="10.894033994967598"><ele>121.0</ele><time>2026-04-26T08:44:03.41Z</time></trkpt><trkpt lat="45.65780615179978" lon="10.894091677625001"><ele>121.0</ele><time>2026-04-26T08:44:08Z</time></trkpt><trkpt lat="45.65772677772729" lon="10.894137977108844"><ele>121.00000000000001</ele><time>2026-04-26T08:50:40.999Z</time></trkpt><trkpt lat="45.65763138051588" lon="10.894165616169198"><ele>121.0</ele><time>2026-04-26T08:50:42.999Z</time></trkpt><trkpt lat="45.6575515668238" lon="10.8941763426096"><ele>121.0</ele><time>2026-04-26T08:50:43.999Z</time></trkpt><trkpt lat="45.65746332857472" lon="10.894172299524694"><ele>121.0</ele><time>2026-04-26T08:50:45Z</time></trkpt><trkpt lat="45.65737845830148" lon="10.894157649687724"><ele>121.00000000000001</ele><time>2026-04-26T08:50:46Z</time></trkpt><trkpt lat="45.65730412991576" lon="10.89414631365093"><ele>121.0</ele><time>2026-04-26T08:50:47Z</time></trkpt><trkpt lat="45.657226320528295" lon="10.894140725181819"><ele>121.0</ele><time>2026-04-26T08:50:48Z</time></trkpt><trkpt lat="45.657132333772296" lon="10.894137513115936"><ele>121.0</ele><time>2026-04-26T08:50:49Z</time></trkpt><trkpt lat="45.657038100545726" lon="10.89412881327689"><ele>121.0</ele><time>2026-04-26T08:50:50Z</time></trkpt><trkpt lat="45.65694784925156" lon="10.894117937392707"><ele>121.0</ele><time>2026-04-26T08:50:51Z</time></trkpt><trkpt lat="45.656875198253516" lon="10.89410381520536"><ele>121.0</ele><time>2026-04-26T08:50:52Z</time></trkpt><trkpt lat="45.656771230582585" lon="10.894098894938272"><ele>120.6</ele><time>2026-04-26T08:50:54Z</time></trkpt><trkpt lat="45.656703237074986" lon="10.894078469902945"><ele>120.19999999999999</ele><time>2026-04-26T08:50:56Z</time></trkpt><trkpt lat="45.656686884787426" lon="10.89424425314617"><ele>119.80000000000001</ele><time>2026-04-26T08:50:57Z</time></trkpt><trkpt lat="45.656687992493175" lon="10.89437534644005"><ele>119.4</ele><time>2026-04-26T08:50:58Z</time></trkpt><trkpt lat="45.656679025111785" lon="10.894526141608361"><ele>119.0</ele><time>2026-04-26T08:50:59Z</time></trkpt><trkpt lat="45.65666087372947" lon="10.894690984032987"><ele>117.99999999999999</ele><time>2026-04-26T08:51:00Z</time></trkpt><trkpt lat="45.656645783525875" lon="10.894852627140533"><ele>117.0</ele><time>2026-04-26T08:51:01Z</time></trkpt><trkpt lat="45.6566344639761" lon="10.894985899537337"><ele>116.0</ele><time>2026-04-26T08:51:02Z</time></trkpt><trkpt lat="45.656626098681436" lon="10.895100029943135"><ele>115.0</ele><time>2026-04-26T08:51:03Z</time></trkpt><trkpt lat="45.656617533292234" lon="10.895211521846793"><ele>113.99999999999999</ele><time>2026-04-26T08:51:04Z</time></trkpt><trkpt lat="45.656608144464634" lon="10.89531163069651"><ele>113.0</ele><time>2026-04-26T08:51:05Z</time></trkpt><trkpt lat="45.656594886753105" lon="10.895431554011841"><ele>113.0</ele><time>2026-04-26T08:51:06Z</time></trkpt><trkpt lat="45.65658649070627" lon="10.895536135907347"><ele>113.00000000000001</ele><time>2026-04-26T08:51:07Z</time></trkpt><trkpt lat="45.65656796709223" lon="10.895722151350752"><ele>113.00000000000001</ele><time>2026-04-26T08:51:09Z</time></trkpt><trkpt lat="45.65655507395908" lon="10.89584163849945"><ele>113.0</ele><time>2026-04-26T08:51:10Z</time></trkpt><trkpt lat="45.65653926396676" lon="10.895975047334764"><ele>113.0</ele><time>2026-04-26T08:51:11Z</time></trkpt><trkpt lat="45.65652288608704" lon="10.896127294950968"><ele>114.0</ele><time>2026-04-26T08:51:12Z</time></trkpt><trkpt lat="45.65650891793771" lon="10.896288767715946"><ele>115.0</ele><time>2026-04-26T08:51:13Z</time></trkpt><trkpt lat="45.65649885885214" lon="10.896458150475437"><ele>116.0</ele><time>2026-04-26T08:51:14Z</time></trkpt><trkpt lat="45.65647834291406" lon="10.896650615787337"><ele>117.0</ele><time>2026-04-26T08:51:15Z</time></trkpt><trkpt lat="45.65645869912501" lon="10.896834321506397"><ele>117.5</ele><time>2026-04-26T08:51:16Z</time></trkpt><trkpt lat="45.65643986366172" lon="10.897011113759543"><ele>118.0</ele><time>2026-04-26T08:51:17Z</time></trkpt><trkpt lat="45.65642405916779" lon="10.89718900820213"><ele>118.5</ele><time>2026-04-26T08:51:18Z</time></trkpt><trkpt lat="45.65640104284779" lon="10.897361521560574"><ele>119.0</ele><time>2026-04-26T08:51:19Z</time></trkpt><trkpt lat="45.6563813468193" lon="10.89751430041864"><ele>118.99999999999999</ele><time>2026-04-26T08:51:20Z</time></trkpt><trkpt lat="45.65635088170185" lon="10.897645524554873"><ele>119.0</ele><time>2026-04-26T08:51:21Z</time></trkpt><trkpt lat="45.65632715951615" lon="10.897757167734321"><ele>119.0</ele><time>2026-04-26T08:51:22Z</time></trkpt><trkpt lat="45.65630652850571" lon="10.897854335124403"><ele>119.0</ele><time>2026-04-26T08:51:23Z</time></trkpt><trkpt lat="45.65636659499199" lon="10.897750469926818"><ele>118.99999999999999</ele><time>2026-04-26T08:51:24Z</time></trkpt><trkpt lat="45.656337462240224" lon="10.897642957854575"><ele>119.0</ele><time>2026-04-26T08:51:25Z</time></trkpt><trkpt lat="45.656365494437026" lon="10.897447149493916"><ele>119.0</ele><time>2026-04-26T08:51:34Z</time></trkpt><trkpt lat="45.65633970642782" lon="10.897338078229312"><ele>119.0</ele><time>2026-04-26T08:51:35Z</time></trkpt><trkpt lat="45.65635205712247" lon="10.897205090586644"><ele>119.0</ele><time>2026-04-26T08:51:36Z</time></trkpt><trkpt lat="45.65636598260776" lon="10.89705762466752"><ele>119.0</ele><time>2026-04-26T08:51:37Z</time></trkpt><trkpt lat="45.65638540744803" lon="10.896901429463322"><ele>119.0</ele><time>2026-04-26T08:51:38Z</time></trkpt><trkpt lat="45.656402385281766" lon="10.896743586662684"><ele>118.6</ele><time>2026-04-26T08:51:39Z</time></trkpt><trkpt lat="45.65641389141214" lon="10.896587124022785"><ele>118.2</ele><time>2026-04-26T08:51:40Z</time></trkpt><trkpt lat="45.656425399905594" lon="10.896454305352114"><ele>117.79999999999998</ele><time>2026-04-26T08:51:41Z</time></trkpt><trkpt lat="45.65643869380409" lon="10.896321586859294"><ele>117.39999999999999</ele><time>2026-04-26T08:51:42Z</time></trkpt><trkpt lat="45.656449692255435" lon="10.89621365137282"><ele>117.0</ele><time>2026-04-26T08:51:43Z</time></trkpt><trkpt lat="45.65646958884304" lon="10.89610166977572"><ele>117.0</ele><time>2026-04-26T08:51:44Z</time></trkpt><trkpt lat="45.65647419858147" lon="10.895989318194559"><ele>117.0</ele><time>2026-04-26T08:51:44.999Z</time></trkpt><trkpt lat="45.65647923504577" lon="10.895886568404691"><ele>117.0</ele><time>2026-04-26T08:51:45.999Z</time></trkpt><trkpt lat="45.65648748576058" lon="10.895749133186918"><ele>117.0</ele><time>2026-04-26T08:51:47.999Z</time></trkpt><trkpt lat="45.656495207585046" lon="10.895619182897134"><ele>117.0</ele><time>2026-04-26T08:51:49.999Z</time></trkpt><trkpt lat="45.6564009680651" lon="10.895581160119846"><ele>117.0</ele><time>2026-04-26T08:51:52.999Z</time></trkpt><trkpt lat="45.65632425931331" lon="10.895562361692143"><ele>116.39999999999999</ele><time>2026-04-26T08:51:53.999Z</time></trkpt><trkpt lat="45.656236747917625" lon="10.895539632120565"><ele>115.79999999999998</ele><time>2026-04-26T08:51:54.999Z</time></trkpt><trkpt lat="45.656146688216346" lon="10.89551356593395"><ele>115.2</ele><time>2026-04-26T08:51:55.999Z</time></trkpt><trkpt lat="45.65605118402632" lon="10.895496480434806"><ele>114.6</ele><time>2026-04-26T08:51:56.999Z</time></trkpt><trkpt lat="45.655951928088086" lon="10.895477957340661"><ele>114.0</ele><time>2026-04-26T08:51:57.999Z</time></trkpt><trkpt lat="45.6558460805486" lon="10.895480528442938"><ele>114.0</ele><time>2026-04-26T08:51:58.999Z</time></trkpt><trkpt lat="45.655728869589915" lon="10.895508017784856"><ele>114.0</ele><time>2026-04-26T08:51:59.999Z</time></trkpt><trkpt lat="45.65563395043005" lon="10.895477446436287"><ele>114.0</ele><time>2026-04-26T08:52:00.999Z</time></trkpt><trkpt lat="45.65553301432645" lon="10.895471010843924"><ele>114.0</ele><time>2026-04-26T08:52:01.999Z</time></trkpt><trkpt lat="45.65543644872324" lon="10.895471471681503"><ele>114.0</ele><time>2026-04-26T08:52:02.999Z</time></trkpt><trkpt lat="45.65533348141832" lon="10.895472184851885"><ele>114.0</ele><time>2026-04-26T08:52:03.999Z</time></trkpt><trkpt lat="45.655219872183956" lon="10.895496517277795"><ele>114.0</ele><time>2026-04-26T08:52:04.999Z</time></trkpt><trkpt lat="45.65512746980473" lon="10.895516484127011"><ele>114.0</ele><time>2026-04-26T08:52:05.999Z</time></trkpt><trkpt lat="45.6550477894551" lon="10.895523710131746"><ele>114.0</ele><time>2026-04-26T08:52:06.999Z</time></trkpt><trkpt lat="45.6549622831642" lon="10.895527795596148"><ele>114.0</ele><time>2026-04-26T08:52:07.999Z</time></trkpt><trkpt lat="45.654884753486634" lon="10.895540867677745"><ele>114.0</ele><time>2026-04-26T08:52:08.999Z</time></trkpt><trkpt lat="45.654820434835415" lon="10.895566405227521"><ele>114.0</ele><time>2026-04-26T08:52:09.999Z</time></trkpt><trkpt lat="45.65472232313374" lon="10.895656623110243"><ele>114.0</ele><time>2026-04-26T08:52:11.999Z</time></trkpt><trkpt lat="45.654657326454966" lon="10.895764183984483"><ele>114.0</ele><time>2026-04-26T08:52:13.999Z</time></trkpt><trkpt lat="45.65463924055648" lon="10.895925030876638"><ele>114.0</ele><time>2026-04-26T08:52:15.999Z</time></trkpt><trkpt lat="45.654581554907004" lon="10.89601862227319"><ele>114.0</ele><time>2026-04-26T08:52:17.999Z</time></trkpt><trkpt lat="45.654490993098555" lon="10.896050646371688"><ele>114.0</ele><time>2026-04-26T08:52:19.999Z</time></trkpt><trkpt lat="45.654390691372484" lon="10.896009402480379"><ele>114.0</ele><time>2026-04-26T08:52:21.999Z</time></trkpt><trkpt lat="45.65433552040658" lon="10.895948758057754"><ele>114.0</ele><time>2026-04-26T08:52:22.999Z</time></trkpt><trkpt lat="45.65428275320037" lon="10.895827522205455"><ele>114.0</ele><time>2026-04-26T08:52:24.999Z</time></trkpt><trkpt lat="45.65426613775782" lon="10.895739707436444"><ele>114.0</ele><time>2026-04-26T08:52:25.999Z</time></trkpt><trkpt lat="45.65425669336155" lon="10.895629127047016"><ele>114.0</ele><time>2026-04-26T08:52:27.999Z</time></trkpt><trkpt lat="45.65418841605299" lon="10.895624185452448"><ele>114.0</ele><time>2026-04-26T08:52:29.999Z</time></trkpt><trkpt lat="45.65406702950314" lon="10.895658241089114"><ele>114.0</ele><time>2026-04-26T08:52:31.999Z</time></trkpt><trkpt lat="45.65397299731603" lon="10.895688718893542"><ele>114.0</ele><time>2026-04-26T08:52:32.999Z</time></trkpt><trkpt lat="45.65387442605503" lon="10.895716285285143"><ele>114.0</ele><time>2026-04-26T08:52:33.999Z</time></trkpt><trkpt lat="45.65375671555401" lon="10.89573328297345"><ele>114.0</ele><time>2026-04-26T08:52:34.999Z</time></trkpt><trkpt lat="45.65366414920878" lon="10.895770661199665"><ele>114.0</ele><time>2026-04-26T08:52:35.999Z</time></trkpt><trkpt lat="45.653547012191765" lon="10.89581091714904"><ele>114.0</ele><time>2026-04-26T08:52:36.999Z</time></trkpt><trkpt lat="45.653413560317425" lon="10.895837026629874"><ele>114.0</ele><time>2026-04-26T08:52:37.999Z</time></trkpt><trkpt lat="45.65328041018743" lon="10.895885267971348"><ele>114.5</ele><time>2026-04-26T08:52:38.999Z</time></trkpt><trkpt lat="45.65314598959623" lon="10.895943254013781"><ele>115.0</ele><time>2026-04-26T08:52:39.999Z</time></trkpt><trkpt lat="45.65303008741859" lon="10.895984294639229"><ele>115.5</ele><time>2026-04-26T08:52:40.999Z</time></trkpt><trkpt lat="45.65292933658469" lon="10.896024321029449"><ele>116.0</ele><time>2026-04-26T08:52:41.999Z</time></trkpt><trkpt lat="45.652836713366675" lon="10.896060679156541"><ele>115.99999999999999</ele><time>2026-04-26T08:52:42.999Z</time></trkpt><trkpt lat="45.65275540273283" lon="10.896099713335822"><ele>116.0</ele><time>2026-04-26T08:52:43.999Z</time></trkpt><trkpt lat="45.65266200148671" lon="10.896126942203685"><ele>116.0</ele><time>2026-04-26T08:52:45.999Z</time></trkpt><trkpt lat="45.6526246022036" lon="10.896201977171213"><ele>116.0</ele><time>2026-04-26T08:52:48.999Z</time></trkpt><trkpt lat="45.65265899344027" lon="10.896345890041891"><ele>115.99999999999999</ele><time>2026-04-26T08:55:57Z</time></trkpt><trkpt lat="45.652677856095586" lon="10.896447453500986"><ele>116.0</ele><time>2026-04-26T08:55:58Z</time></trkpt><trkpt lat="45.65269673678732" lon="10.896570308198815"><ele>116.0</ele><time>2026-04-26T08:55:59Z</time></trkpt><trkpt lat="45.65271985369565" lon="10.896705514994549"><ele>116.0</ele><time>2026-04-26T08:56:00Z</time></trkpt><trkpt lat="45.65274541135031" lon="10.896851709872719"><ele>116.0</ele><time>2026-04-26T08:56:01Z</time></trkpt><trkpt lat="45.652775655224914" lon="10.896956020928362"><ele>116.0</ele><time>2026-04-26T08:56:02Z</time></trkpt><trkpt lat="45.65280096855902" lon="10.897086180708834"><ele>116.0</ele><time>2026-04-26T08:56:03Z</time></trkpt><trkpt lat="45.652815885464896" lon="10.89724616702361"><ele>115.8</ele><time>2026-04-26T08:56:04Z</time></trkpt><trkpt lat="45.65283342571727" lon="10.89738539736297"><ele>115.6</ele><time>2026-04-26T08:56:05Z</time></trkpt><trkpt lat="45.652839284401644" lon="10.89753186842684"><ele>115.4</ele><time>2026-04-26T08:56:06Z</time></trkpt><trkpt lat="45.65283747361149" lon="10.897695258680955"><ele>115.2</ele><time>2026-04-26T08:56:07Z</time></trkpt><trkpt lat="45.65283085451035" lon="10.897860773378806"><ele>115.0</ele><time>2026-04-26T08:56:08Z</time></trkpt><trkpt lat="45.65282494647924" lon="10.898001858665271"><ele>115.33333333333334</ele><time>2026-04-26T08:56:09Z</time></trkpt><trkpt lat="45.652825901755044" lon="10.898119513786613"><ele>115.66666666666667</ele><time>2026-04-26T08:56:10Z</time></trkpt><trkpt lat="45.652827868205385" lon="10.898237893023863"><ele>116.0</ele><time>2026-04-26T08:56:11Z</time></trkpt><trkpt lat="45.652817226136925" lon="10.898385160870658"><ele>116.33333333333334</ele><time>2026-04-26T08:56:13Z</time></trkpt><trkpt lat="45.65280735322" lon="10.89849038574507"><ele>116.66666666666667</ele><time>2026-04-26T08:56:16Z</time></trkpt><trkpt lat="45.65278018115667" lon="10.898597100262547"><ele>117.0</ele><time>2026-04-26T08:56:24Z</time></trkpt><trkpt lat="45.65276114121598" lon="10.898701409938322"><ele>118.0</ele><time>2026-04-26T08:56:25Z</time></trkpt><trkpt lat="45.65273159948802" lon="10.898811651208925"><ele>119.0</ele><time>2026-04-26T08:56:26Z</time></trkpt><trkpt lat="45.65271600385295" lon="10.898940522574843"><ele>120.0</ele><time>2026-04-26T08:56:27Z</time></trkpt><trkpt lat="45.65268699077858" lon="10.899076297989016"><ele>121.0</ele><time>2026-04-26T08:56:28Z</time></trkpt><trkpt lat="45.65265765736123" lon="10.899351955328099"><ele>123.19999999999999</ele><time>2026-04-26T08:56:29Z</time></trkpt><trkpt lat="45.65263876889481" lon="10.899531925985473"><ele>125.39999999999999</ele><time>2026-04-26T08:56:30Z</time></trkpt><trkpt lat="45.652637133581045" lon="10.899665280612219"><ele>127.6</ele><time>2026-04-26T08:56:31Z</time></trkpt><trkpt lat="45.65265600887185" lon="10.899793430098535"><ele>129.79999999999998</ele><time>2026-04-26T08:56:32Z</time></trkpt><trkpt lat="45.652700893618665" lon="10.899894906826798"><ele>132.0</ele><time>2026-04-26T08:56:33Z</time></trkpt><trkpt lat="45.65274377706589" lon="10.900005153792259"><ele>132.4</ele><time>2026-04-26T08:56:34Z</time></trkpt><trkpt lat="45.652847727499264" lon="10.900133174822193"><ele>132.79999999999998</ele><time>2026-04-26T08:56:35Z</time></trkpt><trkpt lat="45.65293849814672" lon="10.900209584583065"><ele>133.2</ele><time>2026-04-26T08:56:36Z</time></trkpt><trkpt lat="45.653008122868165" lon="10.900268589048528"><ele>133.6</ele><time>2026-04-26T08:56:37Z</time></trkpt><trkpt lat="45.65308736296705" lon="10.900349957725945"><ele>134.0</ele><time>2026-04-26T08:56:39Z</time></trkpt><trkpt lat="45.652984023858316" lon="10.900322537277178"><ele>134.0</ele><time>2026-04-26T08:56:44Z</time></trkpt><trkpt lat="45.652862298544214" lon="10.900227735489965"><ele>134.0</ele><time>2026-04-26T08:56:45Z</time></trkpt><trkpt lat="45.65274560120429" lon="10.900139754632695"><ele>134.0</ele><time>2026-04-26T08:56:46Z</time></trkpt><trkpt lat="45.652622775521245" lon="10.900036050727168"><ele>134.0</ele><time>2026-04-26T08:56:47Z</time></trkpt><trkpt lat="45.65249149502065" lon="10.89993212863767"><ele>133.33333333333331</ele><time>2026-04-26T08:56:48Z</time></trkpt><trkpt lat="45.652355024112104" lon="10.89982522887142"><ele>132.66666666666666</ele><time>2026-04-26T08:56:49Z</time></trkpt><trkpt lat="45.65221271448948" lon="10.899708327091314"><ele>132.0</ele><time>2026-04-26T08:56:50Z</time></trkpt><trkpt lat="45.652060370376056" lon="10.899581966634377"><ele>130.66666666666666</ele><time>2026-04-26T08:56:51Z</time></trkpt><trkpt lat="45.651899936494516" lon="10.899451931865377"><ele>129.33333333333331</ele><time>2026-04-26T08:56:52Z</time></trkpt><trkpt lat="45.651755752113736" lon="10.899331777658322"><ele>128.0</ele><time>2026-04-26T08:56:53Z</time></trkpt><trkpt lat="45.651584854800646" lon="10.899197461607681"><ele>128.0</ele><time>2026-04-26T08:56:54Z</time></trkpt><trkpt lat="45.65142380176043" lon="10.899064652201272"><ele>128.0</ele><time>2026-04-26T08:56:55Z</time></trkpt><trkpt lat="45.651219613658824" lon="10.898943593172575"><ele>128.0</ele><time>2026-04-26T08:56:56Z</time></trkpt><trkpt lat="45.65099739959255" lon="10.898785162139855"><ele>133.0</ele><time>2026-04-26T08:56:57Z</time></trkpt><trkpt lat="45.650879835264924" lon="10.898702824355809"><ele>138.0</ele><time>2026-04-26T08:56:58Z</time></trkpt><trkpt lat="45.65066597354345" lon="10.898579525473473"><ele>143.0</ele><time>2026-04-26T08:56:59Z</time></trkpt><trkpt lat="45.65045946636424" lon="10.898461209032861"><ele>136.5</ele><time>2026-04-26T08:57:00Z</time></trkpt><trkpt lat="45.6502368194874" lon="10.898335428093365"><ele>130.0</ele><time>2026-04-26T08:57:01Z</time></trkpt><trkpt lat="45.65002648110307" lon="10.898205284890139"><ele>130.0</ele><time>2026-04-26T08:57:02Z</time></trkpt><trkpt lat="45.64980546429809" lon="10.898060804134232"><ele>130.0</ele><time>2026-04-26T08:57:03Z</time></trkpt><trkpt lat="45.64958267189584" lon="10.8979376731005"><ele>136.0</ele><time>2026-04-26T08:57:04Z</time></trkpt><trkpt lat="45.649362126651354" lon="10.89782185267307"><ele>142.0</ele><time>2026-04-26T08:57:05Z</time></trkpt><trkpt lat="45.64914313969951" lon="10.897722688919986"><ele>131.5</ele><time>2026-04-26T08:57:06Z</time></trkpt><trkpt lat="45.64892553029248" lon="10.897585308240386"><ele>121.0</ele><time>2026-04-26T08:57:07Z</time></trkpt><trkpt lat="45.64871374393776" lon="10.897469978356117"><ele>128.0</ele><time>2026-04-26T08:57:08Z</time></trkpt><trkpt lat="45.64850705198644" lon="10.897333354579114"><ele>135.0</ele><time>2026-04-26T08:57:09Z</time></trkpt><trkpt lat="45.64830354662267" lon="10.897197323820112"><ele>135.0</ele><time>2026-04-26T08:57:10Z</time></trkpt><trkpt lat="45.64811093064894" lon="10.897046123346856"><ele>135.0</ele><time>2026-04-26T08:57:11Z</time></trkpt><trkpt lat="45.647913635918805" lon="10.8968824294458"><ele>135.0</ele><time>2026-04-26T08:57:12Z</time></trkpt><trkpt lat="45.647718249474416" lon="10.89671602686553"><ele>134.33333333333334</ele><time>2026-04-26T08:57:13Z</time></trkpt><trkpt lat="45.647528339128556" lon="10.896546671970693"><ele>133.66666666666669</ele><time>2026-04-26T08:57:14Z</time></trkpt><trkpt lat="45.647343407146984" lon="10.896372967979467"><ele>133.0</ele><time>2026-04-26T08:57:15Z</time></trkpt><trkpt lat="45.647161154035686" lon="10.896202303123697"><ele>133.0</ele><time>2026-04-26T08:57:16Z</time></trkpt><trkpt lat="45.64697014790733" lon="10.896012913456913"><ele>133.0</ele><time>2026-04-26T08:57:17Z</time></trkpt><trkpt lat="45.64679414761842" lon="10.895838763262656"><ele>133.0</ele><time>2026-04-26T08:57:18Z</time></trkpt><trkpt lat="45.64663093481062" lon="10.895663661358924"><ele>132.33333333333334</ele><time>2026-04-26T08:57:19Z</time></trkpt><trkpt lat="45.646472754577765" lon="10.895474127115982"><ele>131.66666666666666</ele><time>2026-04-26T08:57:20Z</time></trkpt><trkpt lat="45.64633423551706" lon="10.895272692208192"><ele>131.0</ele><time>2026-04-26T08:57:21Z</time></trkpt><trkpt lat="45.64622234791625" lon="10.895074054114524"><ele>132.25</ele><time>2026-04-26T08:57:22Z</time></trkpt><trkpt lat="45.646115144958436" lon="10.89490035922644"><ele>133.5</ele><time>2026-04-26T08:57:23Z</time></trkpt><trkpt lat="45.646029346703735" lon="10.894740128686541"><ele>134.75</ele><time>2026-04-26T08:57:24Z</time></trkpt><trkpt lat="45.64594625460929" lon="10.894620568158654"><ele>136.0</ele><time>2026-04-26T08:57:25Z</time></trkpt><trkpt lat="45.64590423763636" lon="10.894501681154717"><ele>136.0</ele><time>2026-04-26T08:57:26Z</time></trkpt><trkpt lat="45.645855804124366" lon="10.894404806729545"><ele>136.0</ele><time>2026-04-26T08:57:27Z</time></trkpt><trkpt lat="45.645801140572026" lon="10.894349612105659"><ele>136.0</ele><time>2026-04-26T08:57:29Z</time></trkpt><trkpt lat="45.64564359471608" lon="10.894607894012395"><ele>136.0</ele><time>2026-04-26T08:57:32Z</time></trkpt><trkpt lat="45.64553198565583" lon="10.894732504739064"><ele>136.0</ele><time>2026-04-26T08:57:33Z</time></trkpt><trkpt lat="45.64544164828912" lon="10.89483014949705"><ele>136.0</ele><time>2026-04-26T08:57:34Z</time></trkpt><trkpt lat="45.64536555054412" lon="10.894884181245454"><ele>136.0</ele><time>2026-04-26T08:57:35Z</time></trkpt><trkpt lat="45.64530071679457" lon="10.8949089745033"><ele>136.0</ele><time>2026-04-26T08:57:36Z</time></trkpt><trkpt lat="45.64523693738437" lon="10.894928970492035"><ele>136.0</ele><time>2026-04-26T08:57:37Z</time></trkpt><trkpt lat="45.64516877471861" lon="10.894953009641812"><ele>136.0</ele><time>2026-04-26T08:57:38Z</time></trkpt><trkpt lat="45.64510245437774" lon="10.894940868198123"><ele>139.4</ele><time>2026-04-26T08:57:39Z</time></trkpt><trkpt lat="45.645017891670534" lon="10.894890310572649"><ele>142.8</ele><time>2026-04-26T08:57:40Z</time></trkpt><trkpt lat="45.64491468035175" lon="10.894793551140301"><ele>146.20000000000002</ele><time>2026-04-26T08:57:41Z</time></trkpt><trkpt lat="45.64480846947301" lon="10.894737405982797"><ele>149.6</ele><time>2026-04-26T08:57:42Z</time></trkpt><trkpt lat="45.644705688568784" lon="10.89466725906605"><ele>153.0</ele><time>2026-04-26T08:57:43Z</time></trkpt><trkpt lat="45.644611590350024" lon="10.894624036861543"><ele>153.0</ele><time>2026-04-26T08:57:44Z</time></trkpt><trkpt lat="45.64450008738019" lon="10.894574700449299"><ele>153.0</ele><time>2026-04-26T08:57:45Z</time></trkpt><trkpt lat="45.64442419561599" lon="10.894494162730112"><ele>153.0</ele><time>2026-04-26T08:57:46Z</time></trkpt><trkpt lat="45.644342737401026" lon="10.894402451518427"><ele>153.0</ele><time>2026-04-26T08:57:47Z</time></trkpt><trkpt lat="45.644265835083516" lon="10.894339600160816"><ele>153.0</ele><time>2026-04-26T08:57:48Z</time></trkpt><trkpt lat="45.644187074200836" lon="10.894322615769141"><ele>154.0</ele><time>2026-04-26T08:57:49Z</time></trkpt><trkpt lat="45.644116668562056" lon="10.89430818265812"><ele>155.0</ele><time>2026-04-26T08:57:50Z</time></trkpt><trkpt lat="45.64403545181749" lon="10.894311246654139"><ele>156.0</ele><time>2026-04-26T08:57:51Z</time></trkpt><trkpt lat="45.64392315295216" lon="10.894311872349245"><ele>157.0</ele><time>2026-04-26T08:57:52Z</time></trkpt><trkpt lat="45.64382346820375" lon="10.894297899878987"><ele>158.0</ele><time>2026-04-26T08:57:53Z</time></trkpt><trkpt lat="45.643724763807676" lon="10.894243216375871"><ele>158.0</ele><time>2026-04-26T08:57:54Z</time></trkpt><trkpt lat="45.643640838233146" lon="10.894167360751482"><ele>158.0</ele><time>2026-04-26T08:57:55Z</time></trkpt><trkpt lat="45.64355953000416" lon="10.894088971434867"><ele>158.0</ele><time>2026-04-26T08:57:56Z</time></trkpt><trkpt lat="45.64347315286824" lon="10.894131289124301"><ele>158.0</ele><time>2026-04-26T08:57:57Z</time></trkpt><trkpt lat="45.643372205726834" lon="10.894087916517751"><ele>158.0</ele><time>2026-04-26T08:57:58Z</time></trkpt><trkpt lat="45.64329621402394" lon="10.894041584186414"><ele>160.4</ele><time>2026-04-26T08:57:59Z</time></trkpt><trkpt lat="45.64323703202773" lon="10.893973926263305"><ele>162.8</ele><time>2026-04-26T08:58:01Z</time></trkpt><trkpt lat="45.643109525499945" lon="10.893908575204767"><ele>165.2</ele><time>2026-04-26T08:58:03Z</time></trkpt><trkpt lat="45.64302350643404" lon="10.89384651756905"><ele>167.6</ele><time>2026-04-26T08:58:04Z</time></trkpt><trkpt lat="45.64295072023092" lon="10.893805055563963"><ele>170.0</ele><time>2026-04-26T08:58:05Z</time></trkpt><trkpt lat="45.64281027835344" lon="10.893793090366769"><ele>171.2</ele><time>2026-04-26T08:58:07Z</time></trkpt><trkpt lat="45.64268324250649" lon="10.89377793149179"><ele>172.4</ele><time>2026-04-26T08:58:09Z</time></trkpt><trkpt lat="45.642614331644225" lon="10.893769040335933"><ele>173.60000000000002</ele><time>2026-04-26T08:58:11Z</time></trkpt><trkpt lat="45.64252590031156" lon="10.893753037876461"><ele>174.8</ele><time>2026-04-26T08:58:13Z</time></trkpt><trkpt lat="45.6424597726327" lon="10.893836141190453"><ele>176.0</ele><time>2026-04-26T08:58:15Z</time></trkpt><trkpt lat="45.642380496025005" lon="10.893893379301513"><ele>176.0</ele><time>2026-04-26T08:58:17Z</time></trkpt><trkpt lat="45.64231319404946" lon="10.893849597996153"><ele>176.0</ele><time>2026-04-26T08:58:21Z</time></trkpt><trkpt lat="45.642251374063136" lon="10.893817930464945"><ele>176.0</ele><time>2026-04-26T08:58:26Z</time></trkpt><trkpt lat="45.64226559723817" lon="10.893704510490872"><ele>176.0</ele><time>2026-04-26T08:59:14Z</time></trkpt><trkpt lat="45.64221106588571" lon="10.893585171864439"><ele>176.0</ele><time>2026-04-26T08:59:17Z</time></trkpt><trkpt lat="45.6421947921345" lon="10.893449003369772"><ele>176.0</ele><time>2026-04-26T08:59:19Z</time></trkpt><trkpt lat="45.64217169740033" lon="10.893330756489405"><ele>174.5</ele><time>2026-04-26T09:01:25.001Z</time></trkpt><trkpt lat="45.64221524253972" lon="10.893235014711857"><ele>173.0</ele><time>2026-04-26T09:01:28.001Z</time></trkpt><trkpt lat="45.6422572483063" lon="10.89314828481275"><ele>171.5</ele><time>2026-04-26T09:01:30.001Z</time></trkpt><trkpt lat="45.64228986588738" lon="10.89303376116076"><ele>170.0</ele><time>2026-04-26T09:01:32.001Z</time></trkpt><trkpt lat="45.64231145844174" lon="10.892920644459316"><ele>168.5</ele><time>2026-04-26T09:01:34.001Z</time></trkpt><trkpt lat="45.64231494332582" lon="10.892797855591944"><ele>167.0</ele><time>2026-04-26T09:01:37Z</time></trkpt><trkpt lat="45.64228644010963" lon="10.892680635039392"><ele>165.6</ele><time>2026-04-26T09:01:39Z</time></trkpt><trkpt lat="45.64226109983825" lon="10.892564500699796"><ele>164.2</ele><time>2026-04-26T09:01:41Z</time></trkpt><trkpt lat="45.64224333643684" lon="10.89242200397639"><ele>162.8</ele><time>2026-04-26T09:01:43Z</time></trkpt><trkpt lat="45.64223990925037" lon="10.892255952916456"><ele>161.4</ele><time>2026-04-26T09:01:45Z</time></trkpt><trkpt lat="45.64225514844119" lon="10.892070800324376"><ele>160.0</ele><time>2026-04-26T09:01:47Z</time></trkpt><trkpt lat="45.642267549026606" lon="10.891977937216385"><ele>160.0</ele><time>2026-04-26T09:01:48Z</time></trkpt><trkpt lat="45.6422897780822" lon="10.891881023779188"><ele>160.0</ele><time>2026-04-26T09:01:49Z</time></trkpt><trkpt lat="45.64230870091076" lon="10.891794731417162"><ele>160.0</ele><time>2026-04-26T09:01:50Z</time></trkpt><trkpt lat="45.642336941254584" lon="10.891660763479312"><ele>160.0</ele><time>2026-04-26T09:01:52Z</time></trkpt><trkpt lat="45.64235388128799" lon="10.891547217163419"><ele>160.0</ele><time>2026-04-26T09:01:54Z</time></trkpt><trkpt lat="45.642370704739214" lon="10.891459337455492"><ele>160.0</ele><time>2026-04-26T09:01:55Z</time></trkpt><trkpt lat="45.64238855864455" lon="10.891354883402553"><ele>159.14285714285714</ele><time>2026-04-26T09:01:56Z</time></trkpt><trkpt lat="45.64240525674481" lon="10.891267857681186"><ele>158.28571428571428</ele><time>2026-04-26T09:01:57Z</time></trkpt><trkpt lat="45.64242934550955" lon="10.891171293925169"><ele>157.42857142857144</ele><time>2026-04-26T09:01:58Z</time></trkpt><trkpt lat="45.64245132078992" lon="10.891074021235404"><ele>156.57142857142856</ele><time>2026-04-26T09:01:59Z</time></trkpt><trkpt lat="45.64247016886019" lon="10.890980720360279"><ele>155.71428571428572</ele><time>2026-04-26T09:02:00Z</time></trkpt><trkpt lat="45.64248991891361" lon="10.890881260486056"><ele>154.85714285714286</ele><time>2026-04-26T09:02:01Z</time></trkpt><trkpt lat="45.642512007682264" lon="10.890781549046185"><ele>154.0</ele><time>2026-04-26T09:02:02Z</time></trkpt><trkpt lat="45.64253610309747" lon="10.890671366863884"><ele>152.5</ele><time>2026-04-26T09:02:03Z</time></trkpt><trkpt lat="45.642567303813586" lon="10.890528985671498"><ele>151.0</ele><time>2026-04-26T09:02:04Z</time></trkpt><trkpt lat="45.64259789251774" lon="10.890407609197998"><ele>149.5</ele><time>2026-04-26T09:02:05Z</time></trkpt><trkpt lat="45.64263436137859" lon="10.890286739635691"><ele>148.0</ele><time>2026-04-26T09:02:06Z</time></trkpt><trkpt lat="45.6426587219978" lon="10.89018774155583"><ele>146.5</ele><time>2026-04-26T09:02:07Z</time></trkpt><trkpt lat="45.64268216804236" lon="10.890079247126224"><ele>145.0</ele><time>2026-04-26T09:02:09Z</time></trkpt><trkpt lat="45.642723119373194" lon="10.88997964795885"><ele>143.0</ele><time>2026-04-26T09:02:14Z</time></trkpt><trkpt lat="45.642799275635994" lon="10.88999119550861"><ele>141.0</ele><time>2026-04-26T09:02:15Z</time></trkpt><trkpt lat="45.642922979451264" lon="10.890020306154193"><ele>139.0</ele><time>2026-04-26T09:02:16Z</time></trkpt><trkpt lat="45.642989541028214" lon="10.89006270419039"><ele>137.0</ele><time>2026-04-26T09:02:18Z</time></trkpt><trkpt lat="45.64305531463895" lon="10.889895168215354"><ele>135.0</ele><time>2026-04-26T09:02:19Z</time></trkpt><trkpt lat="45.64307230002768" lon="10.889801134219553"><ele>135.0</ele><time>2026-04-26T09:02:20Z</time></trkpt><trkpt lat="45.64309264687959" lon="10.889661408880357"><ele>135.0</ele><time>2026-04-26T09:02:21Z</time></trkpt><trkpt lat="45.64310524323261" lon="10.889522387433505"><ele>135.0</ele><time>2026-04-26T09:02:22Z</time></trkpt><trkpt lat="45.64311657176367" lon="10.889404154138608"><ele>135.0</ele><time>2026-04-26T09:02:23Z</time></trkpt><trkpt lat="45.6431284675857" lon="10.889290092518252"><ele>135.0</ele><time>2026-04-26T09:02:24Z</time></trkpt><trkpt lat="45.64316222595288" lon="10.889147178079797"><ele>134.33333333333334</ele><time>2026-04-26T09:02:26Z</time></trkpt><trkpt lat="45.642892428497646" lon="10.888880074126066"><ele>133.66666666666669</ele><time>2026-04-26T09:02:45Z</time></trkpt><trkpt lat="45.64280936696882" lon="10.888793239992706"><ele>133.0</ele><time>2026-04-26T09:02:46Z</time></trkpt><trkpt lat="45.64271829397675" lon="10.888706162958758"><ele>133.0</ele><time>2026-04-26T09:02:47Z</time></trkpt><trkpt lat="45.64262122832834" lon="10.888604439004592"><ele>133.0</ele><time>2026-04-26T09:02:48Z</time></trkpt><trkpt lat="45.64252416087898" lon="10.888500810873843"><ele>133.0</ele><time>2026-04-26T09:02:49Z</time></trkpt><trkpt lat="45.64243649360099" lon="10.88837697253532"><ele>133.0</ele><time>2026-04-26T09:02:50Z</time></trkpt><trkpt lat="45.64234762916547" lon="10.888286949231052"><ele>132.0</ele><time>2026-04-26T09:02:51Z</time></trkpt><trkpt lat="45.64225874190798" lon="10.888176937944475"><ele>131.0</ele><time>2026-04-26T09:02:52Z</time></trkpt><trkpt lat="45.642156726050274" lon="10.888074680612267"><ele>130.0</ele><time>2026-04-26T09:02:53Z</time></trkpt><trkpt lat="45.64206294385036" lon="10.887967497036577"><ele>129.0</ele><time>2026-04-26T09:02:54Z</time></trkpt><trkpt lat="45.64198302638527" lon="10.887866440272914"><ele>129.4</ele><time>2026-04-26T09:02:55Z</time></trkpt><trkpt lat="45.64189488160081" lon="10.887768061364312"><ele>129.8</ele><time>2026-04-26T09:02:56Z</time></trkpt><trkpt lat="45.64181501902272" lon="10.887673068751674"><ele>130.2</ele><time>2026-04-26T09:02:57Z</time></trkpt><trkpt lat="45.64172456998317" lon="10.887576123909218"><ele>130.6</ele><time>2026-04-26T09:02:58Z</time></trkpt><trkpt lat="45.641626203112516" lon="10.887479445335902"><ele>131.0</ele><time>2026-04-26T09:02:59Z</time></trkpt><trkpt lat="45.641526683320436" lon="10.887370636573372"><ele>129.75</ele><time>2026-04-26T09:03:00Z</time></trkpt><trkpt lat="45.64142434361747" lon="10.887260987702255"><ele>128.5</ele><time>2026-04-26T09:03:01Z</time></trkpt><trkpt lat="45.641333359869726" lon="10.887153674020729"><ele>127.25</ele><time>2026-04-26T09:03:02Z</time></trkpt><trkpt lat="45.64124055865845" lon="10.887062762699227"><ele>126.0</ele><time>2026-04-26T09:03:03Z</time></trkpt><trkpt lat="45.641152220017645" lon="10.88697724548677"><ele>126.0</ele><time>2026-04-26T09:03:04Z</time></trkpt><trkpt lat="45.641079997544004" lon="10.886888490660452"><ele>126.0</ele><time>2026-04-26T09:03:05Z</time></trkpt><trkpt lat="45.641012884648745" lon="10.886807446069158"><ele>126.0</ele><time>2026-04-26T09:03:06Z</time></trkpt><trkpt lat="45.640946442518946" lon="10.88672718834866"><ele>126.0</ele><time>2026-04-26T09:03:07Z</time></trkpt><trkpt lat="45.64086500142042" lon="10.886618263432704"><ele>126.0</ele><time>2026-04-26T09:03:08Z</time></trkpt><trkpt lat="45.640772939366734" lon="10.886528446655607"><ele>125.25</ele><time>2026-04-26T09:03:09Z</time></trkpt><trkpt lat="45.64066895948423" lon="10.886425779563798"><ele>124.5</ele><time>2026-04-26T09:03:10Z</time></trkpt><trkpt lat="45.64056438426267" lon="10.886315166223671"><ele>123.75</ele><time>2026-04-26T09:03:11Z</time></trkpt><trkpt lat="45.64045676214153" lon="10.886208935827879"><ele>123.0</ele><time>2026-04-26T09:03:12Z</time></trkpt><trkpt lat="45.640360851989946" lon="10.886123844774838"><ele>123.4</ele><time>2026-04-26T09:03:13Z</time></trkpt><trkpt lat="45.640275703780695" lon="10.886042679222028"><ele>123.80000000000001</ele><time>2026-04-26T09:03:14Z</time></trkpt><trkpt lat="45.64020249784922" lon="10.885985421464543"><ele>124.2</ele><time>2026-04-26T09:03:15Z</time></trkpt><trkpt lat="45.640118029764736" lon="10.885906186085663"><ele>124.6</ele><time>2026-04-26T09:03:16Z</time></trkpt><trkpt lat="45.64001862643412" lon="10.885795236201446"><ele>125.0</ele><time>2026-04-26T09:03:17Z</time></trkpt><trkpt lat="45.639909061965255" lon="10.885698114278869"><ele>125.0</ele><time>2026-04-26T09:03:18Z</time></trkpt><trkpt lat="45.63979939853622" lon="10.885607893465881"><ele>125.0</ele><time>2026-04-26T09:03:19Z</time></trkpt><trkpt lat="45.63970556751584" lon="10.885522504978413"><ele>125.0</ele><time>2026-04-26T09:03:20Z</time></trkpt><trkpt lat="45.639611516263095" lon="10.885425120920418"><ele>125.0</ele><time>2026-04-26T09:03:21Z</time></trkpt><trkpt lat="45.639507495251145" lon="10.88532353235979"><ele>124.8</ele><time>2026-04-26T09:03:22Z</time></trkpt><trkpt lat="45.63941248946852" lon="10.885234042121423"><ele>124.6</ele><time>2026-04-26T09:03:23Z</time></trkpt><trkpt lat="45.63931014865576" lon="10.88516371934956"><ele>124.4</ele><time>2026-04-26T09:03:24Z</time></trkpt><trkpt lat="45.63922771190977" lon="10.885078937007187"><ele>124.2</ele><time>2026-04-26T09:03:25Z</time></trkpt><trkpt lat="45.6391447782856" lon="10.88498943913221"><ele>124.0</ele><time>2026-04-26T09:03:26Z</time></trkpt><trkpt lat="45.63906425718986" lon="10.884906381791255"><ele>124.0</ele><time>2026-04-26T09:03:27Z</time></trkpt><trkpt lat="45.63897761211412" lon="10.884828934722064"><ele>124.0</ele><time>2026-04-26T09:03:28Z</time></trkpt><trkpt lat="45.638897626519686" lon="10.884742131703206"><ele>124.0</ele><time>2026-04-26T09:03:29Z</time></trkpt><trkpt lat="45.638818596577174" lon="10.884648359800217"><ele>124.0</ele><time>2026-04-26T09:03:30Z</time></trkpt><trkpt lat="45.638728863076324" lon="10.884577327234283"><ele>124.0</ele><time>2026-04-26T09:03:31Z</time></trkpt><trkpt lat="45.63864915893539" lon="10.884487788228421"><ele>123.80000000000001</ele><time>2026-04-26T09:03:32Z</time></trkpt><trkpt lat="45.63857068451296" lon="10.8844146189449"><ele>123.60000000000001</ele><time>2026-04-26T09:03:33Z</time></trkpt><trkpt lat="45.63849134842774" lon="10.88434428669423"><ele>123.4</ele><time>2026-04-26T09:03:34Z</time></trkpt><trkpt lat="45.63841873286471" lon="10.884277688909819"><ele>123.2</ele><time>2026-04-26T09:03:35Z</time></trkpt><trkpt lat="45.638341667032854" lon="10.884182890835046"><ele>123.0</ele><time>2026-04-26T09:03:36Z</time></trkpt><trkpt lat="45.638256717192334" lon="10.884118833839475"><ele>123.0</ele><time>2026-04-26T09:03:37Z</time></trkpt><trkpt lat="45.638156507767356" lon="10.884023505375211"><ele>123.00000000000001</ele><time>2026-04-26T09:03:38Z</time></trkpt><trkpt lat="45.63806227589097" lon="10.883926150450701"><ele>123.00000000000001</ele><time>2026-04-26T09:03:39Z</time></trkpt><trkpt lat="45.63798153912315" lon="10.883848302823178"><ele>123.0</ele><time>2026-04-26T09:03:40Z</time></trkpt><trkpt lat="45.637897928044445" lon="10.883779080682864"><ele>123.0</ele><time>2026-04-26T09:03:41Z</time></trkpt><trkpt lat="45.637799056891915" lon="10.883698300154053"><ele>123.0</ele><time>2026-04-26T09:03:42Z</time></trkpt><trkpt lat="45.63769649687592" lon="10.883611393558038"><ele>123.0</ele><time>2026-04-26T09:03:43Z</time></trkpt><trkpt lat="45.63760372298669" lon="10.88350309763777"><ele>123.0</ele><time>2026-04-26T09:03:44Z</time></trkpt><trkpt lat="45.63750234957696" lon="10.883403003451834"><ele>123.0</ele><time>2026-04-26T09:03:45Z</time></trkpt><trkpt lat="45.637393203322894" lon="10.88329369580969"><ele>123.0</ele><time>2026-04-26T09:03:46Z</time></trkpt><trkpt lat="45.63728665630137" lon="10.883194961853844"><ele>123.0</ele><time>2026-04-26T09:03:47Z</time></trkpt><trkpt lat="45.63718030159979" lon="10.883101333402221"><ele>123.0</ele><time>2026-04-26T09:03:48Z</time></trkpt><trkpt lat="45.63705304847591" lon="10.883003604475148"><ele>123.0</ele><time>2026-04-26T09:03:49Z</time></trkpt><trkpt lat="45.636972217019874" lon="10.882900076547436"><ele>123.25</ele><time>2026-04-26T09:03:50Z</time></trkpt><trkpt lat="45.63686784412943" lon="10.882790031206204"><ele>123.5</ele><time>2026-04-26T09:03:51Z</time></trkpt><trkpt lat="45.636769035679485" lon="10.882692013922659"><ele>123.75</ele><time>2026-04-26T09:03:52Z</time></trkpt><trkpt lat="45.63667676674695" lon="10.882608169894892"><ele>124.0</ele><time>2026-04-26T09:03:53Z</time></trkpt><trkpt lat="45.63657460644757" lon="10.88251285892195"><ele>124.0</ele><time>2026-04-26T09:03:54Z</time></trkpt><trkpt lat="45.63647015073587" lon="10.882409986363008"><ele>124.0</ele><time>2026-04-26T09:03:55Z</time></trkpt><trkpt lat="45.63636556390206" lon="10.882300417874498"><ele>124.0</ele><time>2026-04-26T09:03:56Z</time></trkpt><trkpt lat="45.636270884220416" lon="10.882212033396613"><ele>124.0</ele><time>2026-04-26T09:03:57Z</time></trkpt><trkpt lat="45.636173633738615" lon="10.88211895015744"><ele>124.0</ele><time>2026-04-26T09:03:58Z</time></trkpt><trkpt lat="45.63608130899143" lon="10.882034290584542"><ele>124.0</ele><time>2026-04-26T09:03:59Z</time></trkpt><trkpt lat="45.63598740170815" lon="10.881945199461718"><ele>124.0</ele><time>2026-04-26T09:04:00Z</time></trkpt><trkpt lat="45.635901361409" lon="10.881860140063068"><ele>124.0</ele><time>2026-04-26T09:04:01Z</time></trkpt><trkpt lat="45.635828078960934" lon="10.881783638586288"><ele>124.0</ele><time>2026-04-26T09:04:02Z</time></trkpt><trkpt lat="45.6357751946447" lon="10.881731060859952"><ele>124.0</ele><time>2026-04-26T09:04:03Z</time></trkpt><trkpt lat="45.63571291170147" lon="10.88168524437811"><ele>124.0</ele><time>2026-04-26T09:04:05Z</time></trkpt><trkpt lat="45.63569022732873" lon="10.881769848860566"><ele>124.0</ele><time>2026-04-26T09:04:07Z</time></trkpt><trkpt lat="45.635674381867666" lon="10.881970481666071"><ele>124.0</ele><time>2026-04-26T09:04:09Z</time></trkpt><trkpt lat="45.63567018976454" lon="10.882135308418643"><ele>124.0</ele><time>2026-04-26T09:04:10Z</time></trkpt><trkpt lat="45.635646308827994" lon="10.882283257867629"><ele>124.80000000000001</ele><time>2026-04-26T09:04:11Z</time></trkpt><trkpt lat="45.635619193490086" lon="10.882381742113546"><ele>125.60000000000001</ele><time>2026-04-26T09:04:12Z</time></trkpt><trkpt lat="45.63556166808212" lon="10.88246941015404"><ele>126.4</ele><time>2026-04-26T09:04:14Z</time></trkpt><trkpt lat="45.63549866199926" lon="10.88243950332981"><ele>127.2</ele><time>2026-04-26T09:04:21Z</time></trkpt><trkpt lat="45.635409257066556" lon="10.88230120337262"><ele>128.0</ele><time>2026-04-26T09:04:23Z</time></trkpt><trkpt lat="45.63535967680073" lon="10.88216424842401"><ele>128.5</ele><time>2026-04-26T09:04:24Z</time></trkpt><trkpt lat="45.63528387411223" lon="10.881998575062044"><ele>129.0</ele><time>2026-04-26T09:04:25Z</time></trkpt><trkpt lat="45.635220129106635" lon="10.881827975095842"><ele>129.5</ele><time>2026-04-26T09:04:26Z</time></trkpt><trkpt lat="45.63513972122979" lon="10.881618928871617"><ele>130.0</ele><time>2026-04-26T09:04:27Z</time></trkpt><trkpt lat="45.6350645591995" lon="10.881431461992044"><ele>130.0</ele><time>2026-04-26T09:04:28Z</time></trkpt><trkpt lat="45.63498508874211" lon="10.881234136091562"><ele>130.0</ele><time>2026-04-26T09:04:29Z</time></trkpt><trkpt lat="45.634876653489464" lon="10.88104536466482"><ele>130.0</ele><time>2026-04-26T09:04:30Z</time></trkpt><trkpt lat="45.63474484930595" lon="10.880878954752312"><ele>129.33333333333334</ele><time>2026-04-26T09:04:31Z</time></trkpt><trkpt lat="45.6345942388356" lon="10.880729779055502"><ele>128.66666666666666</ele><time>2026-04-26T09:04:32Z</time></trkpt><trkpt lat="45.63443192576539" lon="10.880584167566942"><ele>128.0</ele><time>2026-04-26T09:04:33Z</time></trkpt><trkpt lat="45.63425690558316" lon="10.880434681129588"><ele>128.0</ele><time>2026-04-26T09:04:34Z</time></trkpt><trkpt lat="45.634073562628025" lon="10.880298436638359"><ele>128.0</ele><time>2026-04-26T09:04:35Z</time></trkpt><trkpt lat="45.63388633269884" lon="10.88018822305882"><ele>128.0</ele><time>2026-04-26T09:04:36Z</time></trkpt><trkpt lat="45.6336987898396" lon="10.880110447903913"><ele>127.0</ele><time>2026-04-26T09:04:37Z</time></trkpt><trkpt lat="45.633503692927654" lon="10.8800403073102"><ele>126.0</ele><time>2026-04-26T09:04:38Z</time></trkpt><trkpt lat="45.63330085962065" lon="10.879988325833763"><ele>125.0</ele><time>2026-04-26T09:04:39Z</time></trkpt><trkpt lat="45.6330964192011" lon="10.879950009924247"><ele>125.0</ele><time>2026-04-26T09:04:40Z</time></trkpt><trkpt lat="45.63289028957582" lon="10.879895688741614"><ele>125.0</ele><time>2026-04-26T09:04:41Z</time></trkpt><trkpt lat="45.632694389139886" lon="10.87983671615162"><ele>125.0</ele><time>2026-04-26T09:04:42Z</time></trkpt><trkpt lat="45.632501551530495" lon="10.879789140643416"><ele>126.33333333333333</ele><time>2026-04-26T09:04:43Z</time></trkpt><trkpt lat="45.63232715632637" lon="10.879714831677425"><ele>127.66666666666666</ele><time>2026-04-26T09:04:44Z</time></trkpt><trkpt lat="45.63214571301021" lon="10.879640066578913"><ele>129.0</ele><time>2026-04-26T09:04:45Z</time></trkpt><trkpt lat="45.63197192646309" lon="10.879545827262929"><ele>127.33333333333334</ele><time>2026-04-26T09:04:46Z</time></trkpt><trkpt lat="45.63179966356757" lon="10.879438829300534"><ele>125.66666666666667</ele><time>2026-04-26T09:04:47Z</time></trkpt><trkpt lat="45.63160496010973" lon="10.879303913206174"><ele>124.0</ele><time>2026-04-26T09:04:48Z</time></trkpt><trkpt lat="45.631407227458304" lon="10.879167041651954"><ele>124.0</ele><time>2026-04-26T09:04:49Z</time></trkpt><trkpt lat="45.6312756251808" lon="10.87909355473962"><ele>124.0</ele><time>2026-04-26T09:04:50Z</time></trkpt><trkpt lat="45.631178092644404" lon="10.87898470082853"><ele>124.0</ele><time>2026-04-26T09:04:51Z</time></trkpt><trkpt lat="45.631064116368826" lon="10.878884121805068"><ele>124.0</ele><time>2026-04-26T09:04:52Z</time></trkpt><trkpt lat="45.63112095286379" lon="10.878927863887151"><ele>131.66666666666669</ele><time>2026-04-26T09:04:54Z</time></trkpt><trkpt lat="45.63100030086807" lon="10.878837860346747"><ele>139.33333333333334</ele><time>2026-04-26T09:05:02Z</time></trkpt><trkpt lat="45.63087711627724" lon="10.878731111861587"><ele>147.0</ele><time>2026-04-26T09:05:03Z</time></trkpt><trkpt lat="45.63072398034401" lon="10.878601050998219"><ele>147.0</ele><time>2026-04-26T09:05:04Z</time></trkpt><trkpt lat="45.63053967636921" lon="10.878438198879904"><ele>147.0</ele><time>2026-04-26T09:05:05Z</time></trkpt><trkpt lat="45.63033375947139" lon="10.878261705207189"><ele>146.0</ele><time>2026-04-26T09:05:06Z</time></trkpt><trkpt lat="45.630112990531885" lon="10.878074426405526"><ele>145.0</ele><time>2026-04-26T09:05:07Z</time></trkpt><trkpt lat="45.62993201244229" lon="10.877908314870714"><ele>145.0</ele><time>2026-04-26T09:05:08Z</time></trkpt><trkpt lat="45.62974920153167" lon="10.877718014861928"><ele>145.0</ele><time>2026-04-26T09:05:09Z</time></trkpt><trkpt lat="45.62955413029592" lon="10.87754161245259"><ele>144.33333333333334</ele><time>2026-04-26T09:05:10Z</time></trkpt><trkpt lat="45.62939368822146" lon="10.877379978220858"><ele>143.66666666666666</ele><time>2026-04-26T09:05:11Z</time></trkpt><trkpt lat="45.62923337165899" lon="10.87721540277259"><ele>143.0</ele><time>2026-04-26T09:05:12Z</time></trkpt><trkpt lat="45.62911516007129" lon="10.877050589191189"><ele>143.0</ele><time>2026-04-26T09:05:13Z</time></trkpt><trkpt lat="45.62902256568056" lon="10.876933681011947"><ele>143.0</ele><time>2026-04-26T09:05:14Z</time></trkpt><trkpt lat="45.628957570822216" lon="10.876849578437565"><ele>143.0</ele><time>2026-04-26T09:05:15Z</time></trkpt><trkpt lat="45.62899001441577" lon="10.876970658693704"><ele>143.0</ele><time>2026-04-26T09:05:20Z</time></trkpt><trkpt lat="45.62909442577248" lon="10.877085107975102"><ele>143.0</ele><time>2026-04-26T09:05:21Z</time></trkpt><trkpt lat="45.629212230714124" lon="10.877234670074346"><ele>143.0</ele><time>2026-04-26T09:05:22Z</time></trkpt><trkpt lat="45.62937156079308" lon="10.877405974292053"><ele>143.0</ele><time>2026-04-26T09:05:23Z</time></trkpt><trkpt lat="45.62955478415811" lon="10.87760529854446"><ele>143.0</ele><time>2026-04-26T09:05:24Z</time></trkpt><trkpt lat="45.6297654108747" lon="10.877808260269708"><ele>144.0</ele><time>2026-04-26T09:05:25Z</time></trkpt><trkpt lat="45.62999105155354" lon="10.878028640243137"><ele>145.0</ele><time>2026-04-26T09:05:26Z</time></trkpt><trkpt lat="45.63020919884568" lon="10.878243425069208"><ele>146.0</ele><time>2026-04-26T09:05:27Z</time></trkpt><trkpt lat="45.630416177765866" lon="10.878418811128556"><ele>147.0</ele><time>2026-04-26T09:05:28Z</time></trkpt><trkpt lat="45.63061134069357" lon="10.878590519685071"><ele>147.0</ele><time>2026-04-26T09:05:29Z</time></trkpt><trkpt lat="45.63076975813353" lon="10.878724574417259"><ele>147.0</ele><time>2026-04-26T09:05:30Z</time></trkpt><trkpt lat="45.630903395755254" lon="10.878817674083807"><ele>147.0</ele><time>2026-04-26T09:05:31Z</time></trkpt><trkpt lat="45.63100202451064" lon="10.878890429242787"><ele>147.0</ele><time>2026-04-26T09:05:32Z</time></trkpt><trkpt lat="45.63108500314208" lon="10.878934202277307"><ele>147.0</ele><time>2026-04-26T09:05:33Z</time></trkpt><trkpt lat="45.63113414171611" lon="10.879001971769863"><ele>147.0</ele><time>2026-04-26T09:05:34Z</time></trkpt><trkpt lat="45.631213618515105" lon="10.87907088756244"><ele>147.0</ele><time>2026-04-26T09:05:36Z</time></trkpt><trkpt lat="45.63129685874425" lon="10.879143467135822"><ele>147.0</ele><time>2026-04-26T09:05:38Z</time></trkpt><trkpt lat="45.631355727436095" lon="10.879192365663622"><ele>147.0</ele><time>2026-04-26T09:05:39Z</time></trkpt><trkpt lat="45.63142600915699" lon="10.879250742029667"><ele>147.0</ele><time>2026-04-26T09:05:40Z</time></trkpt><trkpt lat="45.631504041694654" lon="10.879315028554592"><ele>148.2</ele><time>2026-04-26T09:05:41Z</time></trkpt><trkpt lat="45.631579836823825" lon="10.879372995598043"><ele>149.39999999999998</ele><time>2026-04-26T09:05:42Z</time></trkpt><trkpt lat="45.63166175122392" lon="10.879431558737119"><ele>150.60000000000002</ele><time>2026-04-26T09:05:43Z</time></trkpt><trkpt lat="45.63174604713442" lon="10.879490730307348"><ele>151.8</ele><time>2026-04-26T09:05:44Z</time></trkpt><trkpt lat="45.63181170106621" lon="10.879533656623618"><ele>153.0</ele><time>2026-04-26T09:05:45Z</time></trkpt><trkpt lat="45.63192180476584" lon="10.879597961670715"><ele>148.20000000000002</ele><time>2026-04-26T09:05:47Z</time></trkpt><trkpt lat="45.632013878334185" lon="10.879646927323412"><ele>143.4</ele><time>2026-04-26T09:05:49Z</time></trkpt><trkpt lat="45.63210986913898" lon="10.879696556135478"><ele>138.60000000000002</ele><time>2026-04-26T09:05:51Z</time></trkpt><trkpt lat="45.63217235319297" lon="10.879728861197034"><ele>133.8</ele><time>2026-04-26T09:05:53Z</time></trkpt><trkpt lat="45.632145430367785" lon="10.879565041151778"><ele>129.0</ele><time>2026-04-26T09:06:06Z</time></trkpt><trkpt lat="45.63213675459327" lon="10.879452112374253"><ele>129.0</ele><time>2026-04-26T09:06:08Z</time></trkpt><trkpt lat="45.63211327407223" lon="10.879332321541668"><ele>129.0</ele><time>2026-04-26T09:06:10Z</time></trkpt><trkpt lat="45.63207206236534" lon="10.879177173098606"><ele>129.0</ele><time>2026-04-26T09:06:12.018Z</time></trkpt><trkpt lat="45.63218772162453" lon="10.878797629776328"><ele>126.2</ele><time>2026-04-26T09:06:14Z</time></trkpt><trkpt lat="45.632287756962235" lon="10.878818317483793"><ele>123.4</ele><time>2026-04-26T09:06:15Z</time></trkpt><trkpt lat="45.63231227657576" lon="10.878685196379047"><ele>120.6</ele><time>2026-04-26T09:06:17Z</time></trkpt><trkpt lat="45.63234601111911" lon="10.878559789333279"><ele>117.8</ele><time>2026-04-26T09:06:18Z</time></trkpt><trkpt lat="45.63239008473226" lon="10.878412945446685"><ele>115.0</ele><time>2026-04-26T09:06:19Z</time></trkpt><trkpt lat="45.63243831228077" lon="10.878248288406557"><ele>113.83333333333334</ele><time>2026-04-26T09:06:20Z</time></trkpt><trkpt lat="45.63247760469003" lon="10.878113872321798"><ele>112.66666666666667</ele><time>2026-04-26T09:06:21Z</time></trkpt><trkpt lat="45.63250227095102" lon="10.878005629971723"><ele>111.5</ele><time>2026-04-26T09:06:22Z</time></trkpt><trkpt lat="45.632520326258984" lon="10.877905532971216"><ele>110.33333333333334</ele><time>2026-04-26T09:06:23Z</time></trkpt><trkpt lat="45.632543003441064" lon="10.877789590119306"><ele>109.16666666666667</ele><time>2026-04-26T09:06:25Z</time></trkpt><trkpt lat="45.63245510985637" lon="10.87770122778833"><ele>108.0</ele><time>2026-04-26T09:06:28Z</time></trkpt><trkpt lat="45.63237509269852" lon="10.877671738807662"><ele>108.0</ele><time>2026-04-26T09:06:29Z</time></trkpt><trkpt lat="45.63228017702685" lon="10.877634522654853"><ele>108.0</ele><time>2026-04-26T09:06:30Z</time></trkpt><trkpt lat="45.632174950236916" lon="10.877612559954466"><ele>108.0</ele><time>2026-04-26T09:06:31Z</time></trkpt><trkpt lat="45.632048153639715" lon="10.877595874564438"><ele>108.0</ele><time>2026-04-26T09:06:32Z</time></trkpt><trkpt lat="45.63190728728397" lon="10.877592151620554"><ele>108.25</ele><time>2026-04-26T09:06:33Z</time></trkpt><trkpt lat="45.63175932316076" lon="10.877581610340721"><ele>108.5</ele><time>2026-04-26T09:06:34Z</time></trkpt><trkpt lat="45.63161746632532" lon="10.87755864322087"><ele>108.75</ele><time>2026-04-26T09:06:35Z</time></trkpt><trkpt lat="45.631481056210866" lon="10.877532589584158"><ele>109.0</ele><time>2026-04-26T09:06:36Z</time></trkpt><trkpt lat="45.63133720994236" lon="10.877514208084671"><ele>109.0</ele><time>2026-04-26T09:06:37Z</time></trkpt><trkpt lat="45.631203996307406" lon="10.877505467117071"><ele>109.0</ele><time>2026-04-26T09:06:38Z</time></trkpt><trkpt lat="45.63106225513692" lon="10.877501440781728"><ele>109.0</ele><time>2026-04-26T09:06:39Z</time></trkpt><trkpt lat="45.63092069468193" lon="10.877472353419689"><ele>109.0</ele><time>2026-04-26T09:06:40Z</time></trkpt><trkpt lat="45.63078295111279" lon="10.877451454247343"><ele>108.75</ele><time>2026-04-26T09:06:41Z</time></trkpt><trkpt lat="45.63063738497158" lon="10.87741144803365"><ele>108.5</ele><time>2026-04-26T09:06:42Z</time></trkpt><trkpt lat="45.63051489103639" lon="10.877373373594297"><ele>108.25</ele><time>2026-04-26T09:06:43Z</time></trkpt><trkpt lat="45.6304095412508" lon="10.877340395925124"><ele>108.0</ele><time>2026-04-26T09:06:44Z</time></trkpt><trkpt lat="45.63030316277692" lon="10.87731173021968"><ele>109.66666666666667</ele><time>2026-04-26T09:06:45Z</time></trkpt><trkpt lat="45.630222389817085" lon="10.877276402152749"><ele>111.33333333333334</ele><time>2026-04-26T09:06:46Z</time></trkpt><trkpt lat="45.63014496263782" lon="10.877238452063333"><ele>113.0</ele><time>2026-04-26T09:06:47Z</time></trkpt><trkpt lat="45.63006995639841" lon="10.877192000827861"><ele>114.66666666666667</ele><time>2026-04-26T09:06:49Z</time></trkpt><trkpt lat="45.630030213938795" lon="10.877274993689056"><ele>116.33333333333334</ele><time>2026-04-26T09:06:53Z</time></trkpt><trkpt lat="45.63003723483657" lon="10.877371626541315"><ele>118.0</ele><time>2026-04-26T09:06:56Z</time></trkpt><trkpt lat="45.63011364289909" lon="10.877464400922491"><ele>118.00000000000001</ele><time>2026-04-26T09:06:58Z</time></trkpt><trkpt lat="45.63018904434724" lon="10.87752758550279"><ele>118.0</ele><time>2026-04-26T09:06:59Z</time></trkpt><trkpt lat="45.630257326732135" lon="10.877569990951987"><ele>118.0</ele><time>2026-04-26T09:07:00Z</time></trkpt><trkpt lat="45.63032849796363" lon="10.877607862319804"><ele>118.0</ele><time>2026-04-26T09:07:01Z</time></trkpt><trkpt lat="45.630398207616736" lon="10.877647658067293"><ele>118.00000000000001</ele><time>2026-04-26T09:07:02Z</time></trkpt><trkpt lat="45.630456711594675" lon="10.877688484973213"><ele>118.0</ele><time>2026-04-26T09:07:03Z</time></trkpt><trkpt lat="45.630522784576506" lon="10.877730688940556"><ele>118.0</ele><time>2026-04-26T09:07:05Z</time></trkpt><trkpt lat="45.63043785937066" lon="10.87776918433949"><ele>118.0</ele><time>2026-04-26T09:07:10Z</time></trkpt><trkpt lat="45.6303301581296" lon="10.877708698002843"><ele>118.0</ele><time>2026-04-26T09:07:11Z</time></trkpt><trkpt lat="45.630197976017804" lon="10.877605343239647"><ele>118.0</ele><time>2026-04-26T09:07:12Z</time></trkpt><trkpt lat="45.63005195842162" lon="10.877513856032488"><ele>118.0</ele><time>2026-04-26T09:07:13Z</time></trkpt><trkpt lat="45.62992627536016" lon="10.87741427216559"><ele>118.00000000000001</ele><time>2026-04-26T09:07:14Z</time></trkpt><trkpt lat="45.62982993494812" lon="10.877350060544565"><ele>118.00000000000001</ele><time>2026-04-26T09:07:15Z</time></trkpt><trkpt lat="45.62974160077415" lon="10.8772897718099"><ele>118.0</ele><time>2026-04-26T09:07:16Z</time></trkpt><trkpt lat="45.629682123424004" lon="10.877237431549966"><ele>118.0</ele><time>2026-04-26T09:07:17Z</time></trkpt><trkpt lat="45.62962077144906" lon="10.87721088087459"><ele>118.0</ele><time>2026-04-26T09:07:20Z</time></trkpt><trkpt lat="45.62953882271118" lon="10.87717799492256"><ele>118.00000000000001</ele><time>2026-04-26T09:07:22Z</time></trkpt><trkpt lat="45.62941259730506" lon="10.877253941832377"><ele>118.00000000000001</ele><time>2026-04-26T09:07:23Z</time></trkpt><trkpt lat="45.6293507112047" lon="10.877185236781722"><ele>118.0</ele><time>2026-04-26T09:07:24Z</time></trkpt><trkpt lat="45.62928453700272" lon="10.877111771106934"><ele>118.0</ele><time>2026-04-26T09:07:25Z</time></trkpt><trkpt lat="45.62921413694755" lon="10.877030400845408"><ele>117.80000000000001</ele><time>2026-04-26T09:07:26Z</time></trkpt><trkpt lat="45.629136339434325" lon="10.876935108178692"><ele>117.60000000000001</ele><time>2026-04-26T09:07:27Z</time></trkpt><trkpt lat="45.62906593487074" lon="10.876845716688349"><ele>117.39999999999999</ele><time>2026-04-26T09:07:28Z</time></trkpt><trkpt lat="45.62899478226751" lon="10.876752704604822"><ele>117.19999999999999</ele><time>2026-04-26T09:07:29Z</time></trkpt><trkpt lat="45.62892451809646" lon="10.87665474840452"><ele>117.0</ele><time>2026-04-26T09:07:30Z</time></trkpt><trkpt lat="45.628854493294064" lon="10.876553297938313"><ele>117.0</ele><time>2026-04-26T09:07:31Z</time></trkpt><trkpt lat="45.62877950735615" lon="10.876441773237362"><ele>116.99999999999999</ele><time>2026-04-26T09:07:32Z</time></trkpt><trkpt lat="45.6287081659808" lon="10.876330986825824"><ele>116.99999999999999</ele><time>2026-04-26T09:07:33Z</time></trkpt><trkpt lat="45.62863407791735" lon="10.876214083011071"><ele>117.0</ele><time>2026-04-26T09:07:34Z</time></trkpt><trkpt lat="45.62855771868263" lon="10.876087583172973"><ele>117.0</ele><time>2026-04-26T09:07:35Z</time></trkpt><trkpt lat="45.62848554596172" lon="10.87596685933295"><ele>118.0</ele><time>2026-04-26T09:07:36Z</time></trkpt><trkpt lat="45.628412816095654" lon="10.875845092693558"><ele>119.0</ele><time>2026-04-26T09:07:37Z</time></trkpt><trkpt lat="45.628334445937135" lon="10.875713600625174"><ele>120.0</ele><time>2026-04-26T09:07:38Z</time></trkpt><trkpt lat="45.628253256755606" lon="10.875577302751388"><ele>121.0</ele><time>2026-04-26T09:07:39Z</time></trkpt><trkpt lat="45.628168839682225" lon="10.875432978780417"><ele>121.0</ele><time>2026-04-26T09:07:40Z</time></trkpt><trkpt lat="45.62807402891144" lon="10.87527088525223"><ele>121.0</ele><time>2026-04-26T09:07:41Z</time></trkpt><trkpt lat="45.627981217082144" lon="10.875112350134799"><ele>121.0</ele><time>2026-04-26T09:07:42Z</time></trkpt><trkpt lat="45.62788689363144" lon="10.874953231707163"><ele>121.0</ele><time>2026-04-26T09:07:43Z</time></trkpt><trkpt lat="45.62779924546583" lon="10.874806697628324"><ele>123.0</ele><time>2026-04-26T09:07:44Z</time></trkpt><trkpt lat="45.627728699873124" lon="10.874692022163655"><ele>125.0</ele><time>2026-04-26T09:07:45Z</time></trkpt><trkpt lat="45.627659146653805" lon="10.874580485084651"><ele>127.0</ele><time>2026-04-26T09:07:46Z</time></trkpt><trkpt lat="45.6275889512847" lon="10.874473225542722"><ele>129.0</ele><time>2026-04-26T09:07:47Z</time></trkpt><trkpt lat="45.62747544769057" lon="10.874311205469478"><ele>127.16666666666667</ele><time>2026-04-26T09:07:48Z</time></trkpt><trkpt lat="45.62741132561749" lon="10.874221523784938"><ele>125.33333333333334</ele><time>2026-04-26T09:07:49Z</time></trkpt><trkpt lat="45.62735849870517" lon="10.874151734033362"><ele>123.5</ele><time>2026-04-26T09:07:50Z</time></trkpt><trkpt lat="45.627279903283764" lon="10.874053513323265"><ele>121.66666666666667</ele><time>2026-04-26T09:07:52Z</time></trkpt><trkpt lat="45.62719882254982" lon="10.873958481909401"><ele>119.83333333333334</ele><time>2026-04-26T09:07:56Z</time></trkpt><trkpt lat="45.62714658302269" lon="10.873897731942325"><ele>118.0</ele><time>2026-04-26T09:07:57Z</time></trkpt><trkpt lat="45.627092578986606" lon="10.87381492093617"><ele>118.0</ele><time>2026-04-26T09:07:58Z</time></trkpt><trkpt lat="45.62703919681801" lon="10.873710593078338"><ele>118.00000000000001</ele><time>2026-04-26T09:08:00Z</time></trkpt><trkpt lat="45.62697961673867" lon="10.873667024613844"><ele>118.00000000000001</ele><time>2026-04-26T09:08:01Z</time></trkpt><trkpt lat="45.62690536448774" lon="10.873618469272104"><ele>118.0</ele><time>2026-04-26T09:08:02Z</time></trkpt><trkpt lat="45.626817238195876" lon="10.873555862370608"><ele>118.0</ele><time>2026-04-26T09:08:03Z</time></trkpt><trkpt lat="45.626731620932546" lon="10.873421963948854"><ele>119.0</ele><time>2026-04-26T09:08:04Z</time></trkpt><trkpt lat="45.62665107105775" lon="10.873286642318284"><ele>120.0</ele><time>2026-04-26T09:08:05Z</time></trkpt><trkpt lat="45.62656888719028" lon="10.873147804652891"><ele>121.0</ele><time>2026-04-26T09:08:06Z</time></trkpt><trkpt lat="45.62679698478322" lon="10.872213833015966"><ele>118.75</ele><time>2026-04-26T09:08:07Z</time></trkpt><trkpt lat="45.626721403786654" lon="10.872056608439213"><ele>116.5</ele><time>2026-04-26T09:08:08Z</time></trkpt><trkpt lat="45.62665401383421" lon="10.871921099685121"><ele>114.25</ele><time>2026-04-26T09:08:09Z</time></trkpt><trkpt lat="45.62658351894418" lon="10.8717916135095"><ele>112.0</ele><time>2026-04-26T09:08:10Z</time></trkpt><trkpt lat="45.62650348604974" lon="10.871649865839005"><ele>112.0</ele><time>2026-04-26T09:08:11Z</time></trkpt><trkpt lat="45.626417174761436" lon="10.871526866075941"><ele>112.0</ele><time>2026-04-26T09:08:12Z</time></trkpt><trkpt lat="45.62631274884748" lon="10.871419502492842"><ele>112.0</ele><time>2026-04-26T09:08:13Z</time></trkpt><trkpt lat="45.626211049435994" lon="10.871305384479706"><ele>112.0</ele><time>2026-04-26T09:08:14Z</time></trkpt><trkpt lat="45.626099258375596" lon="10.87118499090994"><ele>112.0</ele><time>2026-04-26T09:08:15Z</time></trkpt><trkpt lat="45.62599286259833" lon="10.871068650988416"><ele>112.0</ele><time>2026-04-26T09:08:16Z</time></trkpt><trkpt lat="45.625885977157296" lon="10.870983693361865"><ele>112.0</ele><time>2026-04-26T09:08:17Z</time></trkpt><trkpt lat="45.625775092083046" lon="10.87086944155897"><ele>112.0</ele><time>2026-04-26T09:08:18Z</time></trkpt><trkpt lat="45.625640775645465" lon="10.870741136316843"><ele>111.5</ele><time>2026-04-26T09:08:19Z</time></trkpt><trkpt lat="45.62552356184202" lon="10.870613480348892"><ele>111.0</ele><time>2026-04-26T09:08:20Z</time></trkpt><trkpt lat="45.625396839360796" lon="10.870504135499441"><ele>110.5</ele><time>2026-04-26T09:08:21Z</time></trkpt><trkpt lat="45.625273697621736" lon="10.870401254457878"><ele>110.0</ele><time>2026-04-26T09:08:22Z</time></trkpt><trkpt lat="45.625155855767815" lon="10.870305353342975"><ele>110.0</ele><time>2026-04-26T09:08:23Z</time></trkpt><trkpt lat="45.62503306868258" lon="10.870208731074062"><ele>110.0</ele><time>2026-04-26T09:08:24Z</time></trkpt><trkpt lat="45.62491344723846" lon="10.870103052224023"><ele>110.0</ele><time>2026-04-26T09:08:25Z</time></trkpt><trkpt lat="45.62479928676272" lon="10.870020172929353"><ele>110.0</ele><time>2026-04-26T09:08:26Z</time></trkpt><trkpt lat="45.624682592367684" lon="10.8699435717822"><ele>109.66666666666666</ele><time>2026-04-26T09:08:27Z</time></trkpt><trkpt lat="45.62455173440574" lon="10.869846819678985"><ele>109.33333333333334</ele><time>2026-04-26T09:08:28Z</time></trkpt><trkpt lat="45.624417318456494" lon="10.869749144458735"><ele>109.0</ele><time>2026-04-26T09:08:29Z</time></trkpt><trkpt lat="45.62427511689716" lon="10.869653803031765"><ele>109.0</ele><time>2026-04-26T09:08:30Z</time></trkpt><trkpt lat="45.62413465632998" lon="10.869560696674652"><ele>109.0</ele><time>2026-04-26T09:08:31Z</time></trkpt><trkpt lat="45.62399378010985" lon="10.869454358722143"><ele>109.0</ele><time>2026-04-26T09:08:32Z</time></trkpt><trkpt lat="45.62385044849147" lon="10.86934877587291"><ele>108.66666666666667</ele><time>2026-04-26T09:08:33Z</time></trkpt><trkpt lat="45.62371786361287" lon="10.869238783730209"><ele>108.33333333333334</ele><time>2026-04-26T09:08:34Z</time></trkpt><trkpt lat="45.62358577428931" lon="10.869137126410115"><ele>108.0</ele><time>2026-04-26T09:08:35Z</time></trkpt><trkpt lat="45.62345646732257" lon="10.869017501975446"><ele>108.0</ele><time>2026-04-26T09:08:36Z</time></trkpt><trkpt lat="45.62332687013892" lon="10.868917202860679"><ele>108.0</ele><time>2026-04-26T09:08:37Z</time></trkpt><trkpt lat="45.62319810654923" lon="10.868819034716424"><ele>108.0</ele><time>2026-04-26T09:08:38Z</time></trkpt><trkpt lat="45.62307947083067" lon="10.868710397470169"><ele>108.0</ele><time>2026-04-26T09:08:39Z</time></trkpt><trkpt lat="45.622961926312236" lon="10.868585498996971"><ele>108.0</ele><time>2026-04-26T09:08:40Z</time></trkpt><trkpt lat="45.62285771246456" lon="10.868470600077949"><ele>108.0</ele><time>2026-04-26T09:08:41Z</time></trkpt><trkpt lat="45.622762040499374" lon="10.868361834742316"><ele>108.0</ele><time>2026-04-26T09:08:42Z</time></trkpt><trkpt lat="45.62266850831696" lon="10.868275692608428"><ele>108.0</ele><time>2026-04-26T09:08:43Z</time></trkpt><trkpt lat="45.622591100918015" lon="10.868182278246577"><ele>108.33333333333333</ele><time>2026-04-26T09:08:44Z</time></trkpt><trkpt lat="45.62252135674218" lon="10.868108421404587"><ele>108.66666666666666</ele><time>2026-04-26T09:08:45Z</time></trkpt><trkpt lat="45.62245296411087" lon="10.868074780065639"><ele>109.0</ele><time>2026-04-26T09:08:46Z</time></trkpt><trkpt lat="45.622375304017595" lon="10.86806482934162"><ele>109.33333333333333</ele><time>2026-04-26T09:08:48Z</time></trkpt><trkpt lat="45.62229550383806" lon="10.868174186281765"><ele>109.66666666666666</ele><time>2026-04-26T09:08:50Z</time></trkpt><trkpt lat="45.62226127247989" lon="10.868264661243572"><ele>110.0</ele><time>2026-04-26T09:08:51Z</time></trkpt><trkpt lat="45.622244516177645" lon="10.868412385984279"><ele>111.33333333333333</ele><time>2026-04-26T09:08:53Z</time></trkpt><trkpt lat="45.62228642119557" lon="10.868493532241574"><ele>112.66666666666666</ele><time>2026-04-26T09:08:55Z</time></trkpt><trkpt lat="45.62240663889394" lon="10.868598943386973"><ele>114.0</ele><time>2026-04-26T09:08:57Z</time></trkpt><trkpt lat="45.62248431593882" lon="10.868673318905994"><ele>115.33333333333334</ele><time>2026-04-26T09:08:59Z</time></trkpt><trkpt lat="45.62241877896769" lon="10.86869318687095"><ele>116.66666666666667</ele><time>2026-04-26T09:09:06Z</time></trkpt><trkpt lat="45.62235993045403" lon="10.868653191663961"><ele>118.0</ele><time>2026-04-26T09:09:08Z</time></trkpt><trkpt lat="45.62230988518124" lon="10.868592671999613"><ele>118.0</ele><time>2026-04-26T09:09:09Z</time></trkpt><trkpt lat="45.622240039554754" lon="10.86853367566687"><ele>118.00000000000001</ele><time>2026-04-26T09:09:10Z</time></trkpt><trkpt lat="45.6221866451308" lon="10.868463744485641"><ele>118.00000000000001</ele><time>2026-04-26T09:09:11Z</time></trkpt><trkpt lat="45.62209956961966" lon="10.868421940238141"><ele>118.0</ele><time>2026-04-26T09:09:13Z</time></trkpt><trkpt lat="45.62199163459209" lon="10.86838346304505"><ele>118.0</ele><time>2026-04-26T09:09:16Z</time></trkpt><trkpt lat="45.62190003957751" lon="10.868307338212531"><ele>117.75</ele><time>2026-04-26T09:09:17Z</time></trkpt><trkpt lat="45.621815037833926" lon="10.868228680948135"><ele>117.5</ele><time>2026-04-26T09:09:18Z</time></trkpt><trkpt lat="45.62173311703168" lon="10.868123700482036"><ele>117.25</ele><time>2026-04-26T09:09:19Z</time></trkpt><trkpt lat="45.62162961516341" lon="10.868030870988894"><ele>117.0</ele><time>2026-04-26T09:09:20Z</time></trkpt><trkpt lat="45.62153781798875" lon="10.867898650651574"><ele>117.0</ele><time>2026-04-26T09:09:21Z</time></trkpt><trkpt lat="45.62141659109864" lon="10.867827812922716"><ele>117.0</ele><time>2026-04-26T09:09:22Z</time></trkpt><trkpt lat="45.6213069961541" lon="10.867713542564072"><ele>117.0</ele><time>2026-04-26T09:09:23Z</time></trkpt><trkpt lat="45.62119686909783" lon="10.86761441051386"><ele>117.0</ele><time>2026-04-26T09:09:24Z</time></trkpt><trkpt lat="45.621084202374604" lon="10.867534128646547"><ele>117.5</ele><time>2026-04-26T09:09:25Z</time></trkpt><trkpt lat="45.620977930124546" lon="10.867423198770824"><ele>118.0</ele><time>2026-04-26T09:09:26Z</time></trkpt><trkpt lat="45.62088019504268" lon="10.867310847098803"><ele>118.5</ele><time>2026-04-26T09:09:27Z</time></trkpt><trkpt lat="45.62080378100181" lon="10.86717102793544"><ele>119.0</ele><time>2026-04-26T09:09:28Z</time></trkpt><trkpt lat="45.62070786450481" lon="10.867059286563142"><ele>119.0</ele><time>2026-04-26T09:09:29Z</time></trkpt><trkpt lat="45.620607395806545" lon="10.866966355114693"><ele>119.0</ele><time>2026-04-26T09:09:30Z</time></trkpt><trkpt lat="45.62050610519719" lon="10.866868401070764"><ele>119.0</ele><time>2026-04-26T09:09:31Z</time></trkpt><trkpt lat="45.62039821202094" lon="10.866762262371854"><ele>119.0</ele><time>2026-04-26T09:09:32Z</time></trkpt><trkpt lat="45.62029635954931" lon="10.866675118950775"><ele>119.75</ele><time>2026-04-26T09:09:33Z</time></trkpt><trkpt lat="45.6201906843458" lon="10.86656061389795"><ele>120.5</ele><time>2026-04-26T09:09:34Z</time></trkpt><trkpt lat="45.62009899730295" lon="10.866429391831653"><ele>121.25</ele><time>2026-04-26T09:09:35Z</time></trkpt><trkpt lat="45.62001527834227" lon="10.866271326283682"><ele>122.0</ele><time>2026-04-26T09:09:36Z</time></trkpt><trkpt lat="45.619907733026665" lon="10.866151597817744"><ele>122.0</ele><time>2026-04-26T09:09:37Z</time></trkpt><trkpt lat="45.619711999326725" lon="10.866144725372274"><ele>122.0</ele><time>2026-04-26T09:09:38Z</time></trkpt><trkpt lat="45.619617793782915" lon="10.865990862571353"><ele>122.0</ele><time>2026-04-26T09:09:38.999Z</time></trkpt><trkpt lat="45.61953639925655" lon="10.865854413870624"><ele>123.75</ele><time>2026-04-26T09:09:39.999Z</time></trkpt><trkpt lat="45.61944807748442" lon="10.86570628998648"><ele>125.5</ele><time>2026-04-26T09:09:40.999Z</time></trkpt><trkpt lat="45.619375195087464" lon="10.865585641343385"><ele>127.25</ele><time>2026-04-26T09:09:41.999Z</time></trkpt><trkpt lat="45.61928338513343" lon="10.865434798262202"><ele>129.0</ele><time>2026-04-26T09:09:42.999Z</time></trkpt><trkpt lat="45.619198964877164" lon="10.865295320531214"><ele>129.0</ele><time>2026-04-26T09:09:43.999Z</time></trkpt><trkpt lat="45.619113178008575" lon="10.86515324719982"><ele>129.0</ele><time>2026-04-26T09:09:45Z</time></trkpt><trkpt lat="45.61902568832913" lon="10.865010917133796"><ele>129.0</ele><time>2026-04-26T09:09:45.999Z</time></trkpt><trkpt lat="45.618931196428626" lon="10.86487532260964"><ele>129.0</ele><time>2026-04-26T09:09:46.999Z</time></trkpt><trkpt lat="45.61883978631213" lon="10.864755864127918"><ele>128.8</ele><time>2026-04-26T09:09:47.999Z</time></trkpt><trkpt lat="45.61874821190759" lon="10.864667730306142"><ele>128.60000000000002</ele><time>2026-04-26T09:09:49Z</time></trkpt><trkpt lat="45.61865833546354" lon="10.864597977409739"><ele>128.4</ele><time>2026-04-26T09:09:50Z</time></trkpt><trkpt lat="45.61857249607475" lon="10.864522801047956"><ele>128.20000000000002</ele><time>2026-04-26T09:09:51Z</time></trkpt><trkpt lat="45.61846924549391" lon="10.864429726562184"><ele>128.0</ele><time>2026-04-26T09:09:52Z</time></trkpt><trkpt lat="45.61835407946495" lon="10.864321641265718"><ele>125.5</ele><time>2026-04-26T09:09:53Z</time></trkpt><trkpt lat="45.61822892157339" lon="10.864242519914837"><ele>123.0</ele><time>2026-04-26T09:09:54Z</time></trkpt><trkpt lat="45.61810434647446" lon="10.864166553717158"><ele>120.5</ele><time>2026-04-26T09:09:55Z</time></trkpt><trkpt lat="45.618011246400194" lon="10.864041849970851"><ele>118.0</ele><time>2026-04-26T09:09:56Z</time></trkpt><trkpt lat="45.61792563495077" lon="10.863918763415992"><ele>118.0</ele><time>2026-04-26T09:09:57Z</time></trkpt><trkpt lat="45.61784959676271" lon="10.863796020221447"><ele>118.0</ele><time>2026-04-26T09:09:58Z</time></trkpt><trkpt lat="45.61806786260616" lon="10.862923060558462"><ele>116.5</ele><time>2026-04-26T09:09:59Z</time></trkpt><trkpt lat="45.61800846429907" lon="10.86276655664821"><ele>115.0</ele><time>2026-04-26T09:10:00Z</time></trkpt><trkpt lat="45.61795605197324" lon="10.862621637501302"><ele>113.5</ele><time>2026-04-26T09:10:01Z</time></trkpt><trkpt lat="45.61790244392739" lon="10.862447738654083"><ele>112.0</ele><time>2026-04-26T09:10:02Z</time></trkpt><trkpt lat="45.61786818768321" lon="10.862321288097005"><ele>111.5</ele><time>2026-04-26T09:10:03Z</time></trkpt><trkpt lat="45.61782270216225" lon="10.86216802992564"><ele>111.0</ele><time>2026-04-26T09:10:04Z</time></trkpt><trkpt lat="45.617782602885825" lon="10.861998686867807"><ele>110.5</ele><time>2026-04-26T09:10:05Z</time></trkpt><trkpt lat="45.61775177823577" lon="10.861812682706129"><ele>110.0</ele><time>2026-04-26T09:10:06Z</time></trkpt><trkpt lat="45.61772856256359" lon="10.861638907923234"><ele>111.33333333333333</ele><time>2026-04-26T09:10:07Z</time></trkpt><trkpt lat="45.617706826043076" lon="10.86148967352306"><ele>112.66666666666666</ele><time>2026-04-26T09:10:08Z</time></trkpt><trkpt lat="45.61768879219122" lon="10.861355837522444"><ele>114.0</ele><time>2026-04-26T09:10:09Z</time></trkpt><trkpt lat="45.617673779765916" lon="10.861244153588292"><ele>115.33333333333334</ele><time>2026-04-26T09:10:10Z</time></trkpt><trkpt lat="45.617660828720524" lon="10.86114567510924"><ele>116.66666666666667</ele><time>2026-04-26T09:10:11Z</time></trkpt><trkpt lat="45.6176567994773" lon="10.861014338570774"><ele>118.0</ele><time>2026-04-26T09:10:12Z</time></trkpt><trkpt lat="45.61764756998152" lon="10.860859301083249"><ele>118.5</ele><time>2026-04-26T09:10:13Z</time></trkpt><trkpt lat="45.61764117385038" lon="10.86068941471195"><ele>119.0</ele><time>2026-04-26T09:10:14Z</time></trkpt><trkpt lat="45.61764406013556" lon="10.860510679937649"><ele>119.5</ele><time>2026-04-26T09:10:15Z</time></trkpt><trkpt lat="45.61765598913679" lon="10.860357163756984"><ele>120.0</ele><time>2026-04-26T09:10:16Z</time></trkpt><trkpt lat="45.61766832972436" lon="10.860196829647109"><ele>120.0</ele><time>2026-04-26T09:10:17Z</time></trkpt><trkpt lat="45.61769557606859" lon="10.86001182625687"><ele>120.0</ele><time>2026-04-26T09:10:18Z</time></trkpt><trkpt lat="45.617731200271166" lon="10.859827207259052"><ele>120.0</ele><time>2026-04-26T09:10:19Z</time></trkpt><trkpt lat="45.61776734520147" lon="10.859658711965517"><ele>120.0</ele><time>2026-04-26T09:10:20Z</time></trkpt><trkpt lat="45.617807199950484" lon="10.859511346480286"><ele>118.4</ele><time>2026-04-26T09:10:21Z</time></trkpt><trkpt lat="45.61786113117175" lon="10.859358113559356"><ele>116.8</ele><time>2026-04-26T09:10:22Z</time></trkpt><trkpt lat="45.6179218163658" lon="10.859221572132714"><ele>115.19999999999999</ele><time>2026-04-26T09:10:23Z</time></trkpt><trkpt lat="45.61797636672317" lon="10.85910027468083"><ele>113.6</ele><time>2026-04-26T09:10:24Z</time></trkpt><trkpt lat="45.61803339725681" lon="10.859002185778062"><ele>112.0</ele><time>2026-04-26T09:10:25Z</time></trkpt><trkpt lat="45.61806663243106" lon="10.858924489148386"><ele>112.0</ele><time>2026-04-26T09:10:26Z</time></trkpt><trkpt lat="45.618095986185004" lon="10.858841936209888"><ele>111.99999999999999</ele><time>2026-04-26T09:10:27Z</time></trkpt><trkpt lat="45.61806940403654" lon="10.858713117901148"><ele>111.99999999999999</ele><time>2026-04-26T09:10:30Z</time></trkpt><trkpt lat="45.61795194910868" lon="10.858610492083992"><ele>112.0</ele><time>2026-04-26T09:10:32Z</time></trkpt><trkpt lat="45.617867872247885" lon="10.85853498007754"><ele>112.0</ele><time>2026-04-26T09:10:33Z</time></trkpt><trkpt lat="45.61777985086096" lon="10.858450839847563"><ele>113.6</ele><time>2026-04-26T09:10:34Z</time></trkpt><trkpt lat="45.61770565094303" lon="10.858367878337093"><ele>115.19999999999999</ele><time>2026-04-26T09:10:35Z</time></trkpt><trkpt lat="45.61763108378699" lon="10.858296089752963"><ele>116.8</ele><time>2026-04-26T09:10:36Z</time></trkpt><trkpt lat="45.61756964433902" lon="10.85822763905449"><ele>118.4</ele><time>2026-04-26T09:10:37Z</time></trkpt><trkpt lat="45.61751245444618" lon="10.858162131124416"><ele>120.0</ele><time>2026-04-26T09:10:38Z</time></trkpt><trkpt lat="45.61741364149975" lon="10.858063609839036"><ele>120.0</ele><time>2026-04-26T09:10:40Z</time></trkpt><trkpt lat="45.61732685932634" lon="10.857969143487761"><ele>120.0</ele><time>2026-04-26T09:10:42Z</time></trkpt><trkpt lat="45.61722941643539" lon="10.857863070931362"><ele>120.0</ele><time>2026-04-26T09:10:44Z</time></trkpt><trkpt lat="45.617173373298705" lon="10.857800314672337"><ele>120.0</ele><time>2026-04-26T09:10:45Z</time></trkpt><trkpt lat="45.6171021695326" lon="10.857745176375571"><ele>120.0</ele><time>2026-04-26T09:10:46Z</time></trkpt><trkpt lat="45.61701197559915" lon="10.857672139598925"><ele>120.0</ele><time>2026-04-26T09:10:47Z</time></trkpt><trkpt lat="45.616912146878384" lon="10.857581172585409"><ele>120.0</ele><time>2026-04-26T09:10:48Z</time></trkpt><trkpt lat="45.616807902903844" lon="10.857494699085366"><ele>120.0</ele><time>2026-04-26T09:10:49Z</time></trkpt><trkpt lat="45.616707097347295" lon="10.857393407500586"><ele>120.0</ele><time>2026-04-26T09:10:50Z</time></trkpt><trkpt lat="45.61660436928695" lon="10.857273569423425"><ele>120.0</ele><time>2026-04-26T09:10:51Z</time></trkpt><trkpt lat="45.61649684358227" lon="10.857160034580149"><ele>120.0</ele><time>2026-04-26T09:10:52Z</time></trkpt><trkpt lat="45.61638789191912" lon="10.857057469754684"><ele>120.0</ele><time>2026-04-26T09:10:53Z</time></trkpt><trkpt lat="45.616275742385106" lon="10.856946721295529"><ele>120.0</ele><time>2026-04-26T09:10:54Z</time></trkpt><trkpt lat="45.616159035833036" lon="10.85683627323346"><ele>119.75</ele><time>2026-04-26T09:10:55Z</time></trkpt><trkpt lat="45.61605107885463" lon="10.856733388594066"><ele>119.5</ele><time>2026-04-26T09:10:56Z</time></trkpt><trkpt lat="45.615933796289156" lon="10.856622319317728"><ele>119.25</ele><time>2026-04-26T09:10:57Z</time></trkpt><trkpt lat="45.615820331896415" lon="10.856508036598774"><ele>119.0</ele><time>2026-04-26T09:10:58Z</time></trkpt><trkpt lat="45.615711122898475" lon="10.856392186881157"><ele>119.0</ele><time>2026-04-26T09:10:59Z</time></trkpt><trkpt lat="45.61559778455748" lon="10.856269033045747"><ele>119.0</ele><time>2026-04-26T09:11:00Z</time></trkpt><trkpt lat="45.61551142434184" lon="10.856168132184157"><ele>119.0</ele><time>2026-04-26T09:11:01Z</time></trkpt><trkpt lat="45.615430834824515" lon="10.856101054302465"><ele>119.0</ele><time>2026-04-26T09:11:02Z</time></trkpt><trkpt lat="45.615338009918645" lon="10.856012724951558"><ele>119.16666666666666</ele><time>2026-04-26T09:11:03Z</time></trkpt><trkpt lat="45.615248888642185" lon="10.855926261098078"><ele>119.33333333333333</ele><time>2026-04-26T09:11:04Z</time></trkpt><trkpt lat="45.61517548433902" lon="10.855861768938967"><ele>119.5</ele><time>2026-04-26T09:11:05Z</time></trkpt><trkpt lat="45.61511596110437" lon="10.855807603488874"><ele>119.66666666666666</ele><time>2026-04-26T09:11:06Z</time></trkpt><trkpt lat="45.61504847115123" lon="10.855767436120654"><ele>119.83333333333333</ele><time>2026-04-26T09:11:08Z</time></trkpt><trkpt lat="45.61497661507648" lon="10.855872875188835"><ele>120.0</ele><time>2026-04-26T09:11:10Z</time></trkpt><trkpt lat="45.614918116942945" lon="10.855918333707944"><ele>120.0</ele><time>2026-04-26T09:11:12Z</time></trkpt><trkpt lat="45.61490840163464" lon="10.855818768021111"><ele>120.0</ele><time>2026-04-26T09:11:15Z</time></trkpt><trkpt lat="45.61497642913291" lon="10.855698663526997"><ele>120.0</ele><time>2026-04-26T09:11:17Z</time></trkpt><trkpt lat="45.61505737120603" lon="10.855573885073728"><ele>120.0</ele><time>2026-04-26T09:11:18Z</time></trkpt><trkpt lat="45.61512940440991" lon="10.855417804232054"><ele>120.0</ele><time>2026-04-26T09:11:19Z</time></trkpt><trkpt lat="45.61519950381445" lon="10.855296810192028"><ele>120.0</ele><time>2026-04-26T09:11:20Z</time></trkpt><trkpt lat="45.61525272194437" lon="10.85518600625122"><ele>120.0</ele><time>2026-04-26T09:11:21Z</time></trkpt><trkpt lat="45.61530409785839" lon="10.855073582526035"><ele>120.0</ele><time>2026-04-26T09:11:22Z</time></trkpt><trkpt lat="45.61534132982641" lon="10.854964748488122"><ele>120.0</ele><time>2026-04-26T09:11:23Z</time></trkpt><trkpt lat="45.61536260446209" lon="10.854837647243325"><ele>120.0</ele><time>2026-04-26T09:11:24Z</time></trkpt><trkpt lat="45.6153856119808" lon="10.854729703482915"><ele>120.0</ele><time>2026-04-26T09:11:25Z</time></trkpt><trkpt lat="45.61543727355476" lon="10.854604413645793"><ele>119.25</ele><time>2026-04-26T09:11:27Z</time></trkpt><trkpt lat="45.61552343414655" lon="10.854538329469515"><ele>118.5</ele><time>2026-04-26T09:11:29Z</time></trkpt><trkpt lat="45.6156632016369" lon="10.854548203681054"><ele>117.75</ele><time>2026-04-26T09:11:31Z</time></trkpt><trkpt lat="45.615770492962994" lon="10.8545671815295"><ele>117.0</ele><time>2026-04-26T09:11:32Z</time></trkpt><trkpt lat="45.61589259010999" lon="10.854586887610102"><ele>117.0</ele><time>2026-04-26T09:11:33Z</time></trkpt><trkpt lat="45.616021894064076" lon="10.85460584692953"><ele>117.0</ele><time>2026-04-26T09:11:34Z</time></trkpt><trkpt lat="45.61615255693276" lon="10.854628658230354"><ele>117.0</ele><time>2026-04-26T09:11:35Z</time></trkpt><trkpt lat="45.61629240050734" lon="10.854647480052803"><ele>117.0</ele><time>2026-04-26T09:11:36Z</time></trkpt><trkpt lat="45.61643558795844" lon="10.854664298649912"><ele>116.5</ele><time>2026-04-26T09:11:37Z</time></trkpt><trkpt lat="45.61657241954571" lon="10.854684841565518"><ele>116.0</ele><time>2026-04-26T09:11:38Z</time></trkpt><trkpt lat="45.61670656329024" lon="10.854704030332849"><ele>115.5</ele><time>2026-04-26T09:11:39Z</time></trkpt><trkpt lat="45.616845955106655" lon="10.854720362841777"><ele>115.0</ele><time>2026-04-26T09:11:40Z</time></trkpt><trkpt lat="45.616988798033375" lon="10.85473811425603"><ele>114.25</ele><time>2026-04-26T09:11:41Z</time></trkpt><trkpt lat="45.61712745627068" lon="10.854737563587951"><ele>113.5</ele><time>2026-04-26T09:11:42Z</time></trkpt><trkpt lat="45.61726996845795" lon="10.854724220389683"><ele>112.75</ele><time>2026-04-26T09:11:43Z</time></trkpt><trkpt lat="45.61742033994699" lon="10.854729474466703"><ele>112.0</ele><time>2026-04-26T09:11:44Z</time></trkpt><trkpt lat="45.617559892305444" lon="10.854737227518463"><ele>112.0</ele><time>2026-04-26T09:11:45Z</time></trkpt><trkpt lat="45.61768653509063" lon="10.854749897727276"><ele>112.0</ele><time>2026-04-26T09:11:46Z</time></trkpt><trkpt lat="45.61781587037064" lon="10.85476054238858"><ele>112.0</ele><time>2026-04-26T09:11:47Z</time></trkpt><trkpt lat="45.61796200980165" lon="10.854765636649951"><ele>112.0</ele><time>2026-04-26T09:11:48Z</time></trkpt><trkpt lat="45.61811702476988" lon="10.854762284562142"><ele>112.75</ele><time>2026-04-26T09:11:49Z</time></trkpt><trkpt lat="45.61825473450388" lon="10.854767322761964"><ele>113.5</ele><time>2026-04-26T09:11:50Z</time></trkpt><trkpt lat="45.618378927739805" lon="10.854772866859074"><ele>114.25</ele><time>2026-04-26T09:11:51Z</time></trkpt><trkpt lat="45.618512522174704" lon="10.854780022148198"><ele>115.0</ele><time>2026-04-26T09:11:52Z</time></trkpt><trkpt lat="45.61864154290953" lon="10.854805115990802"><ele>114.25</ele><time>2026-04-26T09:11:53Z</time></trkpt><trkpt lat="45.61875486969996" lon="10.854833066831622"><ele>113.5</ele><time>2026-04-26T09:11:54Z</time></trkpt><trkpt lat="45.618855553526146" lon="10.854861365896959"><ele>112.75</ele><time>2026-04-26T09:11:55Z</time></trkpt><trkpt lat="45.6189655453224" lon="10.854906432135506"><ele>112.0</ele><time>2026-04-26T09:11:56Z</time></trkpt><trkpt lat="45.61908562797963" lon="10.854975428187867"><ele>112.0</ele><time>2026-04-26T09:11:57Z</time></trkpt><trkpt lat="45.61920733273235" lon="10.855041066063292"><ele>112.0</ele><time>2026-04-26T09:11:58Z</time></trkpt><trkpt lat="45.61933367622505" lon="10.855106519446235"><ele>112.0</ele><time>2026-04-26T09:11:59Z</time></trkpt><trkpt lat="45.61944629428768" lon="10.85517273837108"><ele>112.0</ele><time>2026-04-26T09:12:00Z</time></trkpt><trkpt lat="45.61955120187655" lon="10.855229516193223"><ele>112.0</ele><time>2026-04-26T09:12:01Z</time></trkpt><trkpt lat="45.619644904989876" lon="10.855287563602793"><ele>111.99999999999999</ele><time>2026-04-26T09:12:02Z</time></trkpt><trkpt lat="45.61973184042434" lon="10.855340926508854"><ele>111.99999999999999</ele><time>2026-04-26T09:12:03Z</time></trkpt><trkpt lat="45.61980461672679" lon="10.85538880405837"><ele>112.0</ele><time>2026-04-26T09:12:04Z</time></trkpt><trkpt lat="45.61985913984293" lon="10.85543713488183"><ele>112.0</ele><time>2026-04-26T09:12:05Z</time></trkpt><trkpt lat="45.619915270193815" lon="10.855592477270006"><ele>112.00000000000001</ele><time>2026-04-26T09:12:07Z</time></trkpt><trkpt lat="45.619927991433194" lon="10.855699908744759"><ele>112.0</ele><time>2026-04-26T09:12:08Z</time></trkpt><trkpt lat="45.61992608694855" lon="10.855827798431923"><ele>112.0</ele><time>2026-04-26T09:12:09Z</time></trkpt><trkpt lat="45.6199050169727" lon="10.855927178363249"><ele>112.0</ele><time>2026-04-26T09:12:10Z</time></trkpt><trkpt lat="45.61989065478416" lon="10.856031300422881"><ele>112.00000000000001</ele><time>2026-04-26T09:12:12Z</time></trkpt><trkpt lat="45.61995402459274" lon="10.85601386389699"><ele>112.0</ele><time>2026-04-26T09:12:15Z</time></trkpt><trkpt lat="45.61999839976688" lon="10.855861523079193"><ele>112.00000000000001</ele><time>2026-04-26T09:12:18Z</time></trkpt><trkpt lat="45.620001232967724" lon="10.855712939492546"><ele>112.0</ele><time>2026-04-26T09:12:19Z</time></trkpt><trkpt lat="45.620009346124526" lon="10.855606835100026"><ele>112.0</ele><time>2026-04-26T09:12:20Z</time></trkpt><trkpt lat="45.62001178992996" lon="10.855511362439508"><ele>112.0</ele><time>2026-04-26T09:12:21Z</time></trkpt><trkpt lat="45.62000999834838" lon="10.855359285739167"><ele>112.00000000000001</ele><time>2026-04-26T09:12:23Z</time></trkpt><trkpt lat="45.61998098701103" lon="10.855240348287444"><ele>112.0</ele><time>2026-04-26T09:12:25Z</time></trkpt><trkpt lat="45.61990708962234" lon="10.855182675636247"><ele>112.0</ele><time>2026-04-26T09:12:27Z</time></trkpt><trkpt lat="45.61983345976345" lon="10.855138768168645"><ele>111.99999999999999</ele><time>2026-04-26T09:12:28Z</time></trkpt><trkpt lat="45.61975197000293" lon="10.855102250079485"><ele>111.99999999999999</ele><time>2026-04-26T09:12:29Z</time></trkpt><trkpt lat="45.619665648211814" lon="10.855067746144663"><ele>112.0</ele><time>2026-04-26T09:12:30Z</time></trkpt><trkpt lat="45.61956975626689" lon="10.85502200485682"><ele>112.0</ele><time>2026-04-26T09:12:31Z</time></trkpt><trkpt lat="45.61947839670089" lon="10.854969276527022"><ele>112.0</ele><time>2026-04-26T09:12:32Z</time></trkpt><trkpt lat="45.61936644473485" lon="10.854900097457218"><ele>112.0</ele><time>2026-04-26T09:12:33Z</time></trkpt><trkpt lat="45.61923582092657" lon="10.85480343837894"><ele>112.0</ele><time>2026-04-26T09:12:34Z</time></trkpt><trkpt lat="45.61910373925022" lon="10.854716130429923"><ele>112.0</ele><time>2026-04-26T09:12:35Z</time></trkpt><trkpt lat="45.61900404566668" lon="10.854649644292602"><ele>112.0</ele><time>2026-04-26T09:12:36Z</time></trkpt><trkpt lat="45.61891298987342" lon="10.854611583302345"><ele>112.0</ele><time>2026-04-26T09:12:37Z</time></trkpt><trkpt lat="45.61880436424943" lon="10.854562816344702"><ele>112.0</ele><time>2026-04-26T09:12:38Z</time></trkpt><trkpt lat="45.61866966619167" lon="10.854539226050282"><ele>112.0</ele><time>2026-04-26T09:12:39Z</time></trkpt><trkpt lat="45.618523529650254" lon="10.854516021964"><ele>112.75</ele><time>2026-04-26T09:12:40Z</time></trkpt><trkpt lat="45.6183739540265" lon="10.854499515935363"><ele>113.5</ele><time>2026-04-26T09:12:41Z</time></trkpt><trkpt lat="45.618238750719776" lon="10.854489697778401"><ele>114.25</ele><time>2026-04-26T09:12:42Z</time></trkpt><trkpt lat="45.61810047516562" lon="10.854490383469612"><ele>115.0</ele><time>2026-04-26T09:12:43Z</time></trkpt><trkpt lat="45.61795758180749" lon="10.854499795015094"><ele>114.0</ele><time>2026-04-26T09:12:44Z</time></trkpt><trkpt lat="45.61780117452158" lon="10.854496593662239"><ele>113.0</ele><time>2026-04-26T09:12:45Z</time></trkpt><trkpt lat="45.61763215996061" lon="10.854479877765568"><ele>112.0</ele><time>2026-04-26T09:12:46Z</time></trkpt><trkpt lat="45.61745667184136" lon="10.854459975423637"><ele>112.0</ele><time>2026-04-26T09:12:47Z</time></trkpt><trkpt lat="45.617297178461115" lon="10.854464857197359"><ele>112.0</ele><time>2026-04-26T09:12:48Z</time></trkpt><trkpt lat="45.61715432514266" lon="10.854449057762695"><ele>112.0</ele><time>2026-04-26T09:12:49Z</time></trkpt><trkpt lat="45.61701578223444" lon="10.854390819427039"><ele>112.0</ele><time>2026-04-26T09:12:50Z</time></trkpt><trkpt lat="45.616875016414575" lon="10.854333405396623"><ele>112.75</ele><time>2026-04-26T09:12:51Z</time></trkpt><trkpt lat="45.61673131169033" lon="10.854356102081317"><ele>113.5</ele><time>2026-04-26T09:12:52Z</time></trkpt><trkpt lat="45.616598884945944" lon="10.854362836308463"><ele>114.25</ele><time>2026-04-26T09:12:53Z</time></trkpt><trkpt lat="45.616468948855704" lon="10.854350305004203"><ele>115.0</ele><time>2026-04-26T09:12:54Z</time></trkpt><trkpt lat="45.6163594393737" lon="10.854331486926815"><ele>115.0</ele><time>2026-04-26T09:12:55Z</time></trkpt><trkpt lat="45.616256121813095" lon="10.854312557983555"><ele>115.0</ele><time>2026-04-26T09:12:56Z</time></trkpt><trkpt lat="45.6161673497037" lon="10.854284670454113"><ele>115.0</ele><time>2026-04-26T09:12:57Z</time></trkpt><trkpt lat="45.61608106551966" lon="10.854240489412145"><ele>115.0</ele><time>2026-04-26T09:12:58Z</time></trkpt><trkpt lat="45.615973653168304" lon="10.854193616813653"><ele>115.0</ele><time>2026-04-26T09:12:59Z</time></trkpt><trkpt lat="45.615848361169405" lon="10.854155202865451"><ele>112.75</ele><time>2026-04-26T09:13:00Z</time></trkpt><trkpt lat="45.615714874771804" lon="10.854145604669343"><ele>110.5</ele><time>2026-04-26T09:13:01Z</time></trkpt><trkpt lat="45.615582669786185" lon="10.854128832806198"><ele>108.25</ele><time>2026-04-26T09:13:02Z</time></trkpt><trkpt lat="45.615444892618754" lon="10.85413061897204"><ele>106.0</ele><time>2026-04-26T09:13:03Z</time></trkpt><trkpt lat="45.615329735825625" lon="10.854136973737615"><ele>106.0</ele><time>2026-04-26T09:13:04Z</time></trkpt><trkpt lat="45.61522704854238" lon="10.854119952004714"><ele>106.0</ele><time>2026-04-26T09:13:05Z</time></trkpt><trkpt lat="45.61511448152212" lon="10.85410172806793"><ele>106.0</ele><time>2026-04-26T09:13:06Z</time></trkpt><trkpt lat="45.6150080794012" lon="10.854099846023637"><ele>106.0</ele><time>2026-04-26T09:13:07Z</time></trkpt><trkpt lat="45.61489197124267" lon="10.85408694992502"><ele>106.0</ele><time>2026-04-26T09:13:08Z</time></trkpt><trkpt lat="45.61477518174075" lon="10.85409284615236"><ele>106.0</ele><time>2026-04-26T09:13:09Z</time></trkpt><trkpt lat="45.61464126957206" lon="10.854099430331233"><ele>106.0</ele><time>2026-04-26T09:13:10Z</time></trkpt><trkpt lat="45.61452189131515" lon="10.854107674674648"><ele>106.0</ele><time>2026-04-26T09:13:11Z</time></trkpt><trkpt lat="45.61439917655719" lon="10.854109646556632"><ele>106.0</ele><time>2026-04-26T09:13:12Z</time></trkpt><trkpt lat="45.614283029548616" lon="10.854101931909431"><ele>106.75</ele><time>2026-04-26T09:13:13Z</time></trkpt><trkpt lat="45.6141850547379" lon="10.854094865146301"><ele>107.5</ele><time>2026-04-26T09:13:14Z</time></trkpt><trkpt lat="45.61408807312438" lon="10.854100693739497"><ele>108.25</ele><time>2026-04-26T09:13:15Z</time></trkpt><trkpt lat="45.61395607379149" lon="10.854140805661995"><ele>109.0</ele><time>2026-04-26T09:13:16Z</time></trkpt><trkpt lat="45.61382862303358" lon="10.85413406065136"><ele>109.0</ele><time>2026-04-26T09:13:17Z</time></trkpt><trkpt lat="45.61370811161019" lon="10.854145409617132"><ele>109.0</ele><time>2026-04-26T09:13:18Z</time></trkpt><trkpt lat="45.61358505643353" lon="10.854155750250898"><ele>109.0</ele><time>2026-04-26T09:13:19Z</time></trkpt><trkpt lat="45.613490910417184" lon="10.854200121496765"><ele>109.0</ele><time>2026-04-26T09:13:20Z</time></trkpt><trkpt lat="45.613373647830336" lon="10.85419048149085"><ele>108.0</ele><time>2026-04-26T09:13:21Z</time></trkpt><trkpt lat="45.613256972709365" lon="10.85421164510466"><ele>107.0</ele><time>2026-04-26T09:13:22Z</time></trkpt><trkpt lat="45.613148437617625" lon="10.854236395524024"><ele>106.0</ele><time>2026-04-26T09:13:23Z</time></trkpt><trkpt lat="45.613021154795696" lon="10.854245207570543"><ele>105.0</ele><time>2026-04-26T09:13:24Z</time></trkpt><trkpt lat="45.61290058481177" lon="10.854287376238833"><ele>106.5</ele><time>2026-04-26T09:13:25Z</time></trkpt><trkpt lat="45.612791257487444" lon="10.85430230701985"><ele>108.0</ele><time>2026-04-26T09:13:26Z</time></trkpt><trkpt lat="45.61268087875085" lon="10.854323366017192"><ele>109.5</ele><time>2026-04-26T09:13:27Z</time></trkpt><trkpt lat="45.612562071224865" lon="10.854359873300638"><ele>111.0</ele><time>2026-04-26T09:13:28Z</time></trkpt><trkpt lat="45.61244430035591" lon="10.854410996139853"><ele>111.0</ele><time>2026-04-26T09:13:29Z</time></trkpt><trkpt lat="45.61232977271204" lon="10.85444590004442"><ele>111.0</ele><time>2026-04-26T09:13:30Z</time></trkpt><trkpt lat="45.612184812439175" lon="10.854497285881008"><ele>111.0</ele><time>2026-04-26T09:13:31Z</time></trkpt><trkpt lat="45.61204464361996" lon="10.854518343069467"><ele>111.0</ele><time>2026-04-26T09:13:32Z</time></trkpt><trkpt lat="45.611935641137535" lon="10.854561769831752"><ele>110.8</ele><time>2026-04-26T09:13:33Z</time></trkpt><trkpt lat="45.61181797511531" lon="10.854591920105507"><ele>110.6</ele><time>2026-04-26T09:13:34Z</time></trkpt><trkpt lat="45.61171625556174" lon="10.854649069588149"><ele>110.4</ele><time>2026-04-26T09:13:35Z</time></trkpt><trkpt lat="45.61160791243864" lon="10.85467853408111"><ele>110.2</ele><time>2026-04-26T09:13:36Z</time></trkpt><trkpt lat="45.61151194343839" lon="10.854715492015115"><ele>110.0</ele><time>2026-04-26T09:13:37Z</time></trkpt><trkpt lat="45.61142389651333" lon="10.854757806361102"><ele>109.99999999999999</ele><time>2026-04-26T09:13:38Z</time></trkpt><trkpt lat="45.611344949719445" lon="10.85479982449394"><ele>110.0</ele><time>2026-04-26T09:13:39Z</time></trkpt><trkpt lat="45.61126782419739" lon="10.854833342423845"><ele>110.0</ele><time>2026-04-26T09:13:40Z</time></trkpt><trkpt lat="45.6111869657119" lon="10.85487374138242"><ele>110.0</ele><time>2026-04-26T09:13:41Z</time></trkpt><trkpt lat="45.61110511012372" lon="10.854893520150524"><ele>109.99999999999999</ele><time>2026-04-26T09:13:42Z</time></trkpt><trkpt lat="45.61101388912428" lon="10.854944075365239"><ele>110.0</ele><time>2026-04-26T09:13:43Z</time></trkpt><trkpt lat="45.6109033849963" lon="10.854995113607714"><ele>109.4</ele><time>2026-04-26T09:13:44Z</time></trkpt><trkpt lat="45.61080313464855" lon="10.855073948739458"><ele>108.8</ele><time>2026-04-26T09:13:45Z</time></trkpt><trkpt lat="45.61071360876313" lon="10.855172977266982"><ele>108.19999999999999</ele><time>2026-04-26T09:13:46Z</time></trkpt><trkpt lat="45.61065835062419" lon="10.855281051120162"><ele>107.6</ele><time>2026-04-26T09:13:47Z</time></trkpt><trkpt lat="45.61058488718654" lon="10.85535508931055"><ele>107.0</ele><time>2026-04-26T09:13:49Z</time></trkpt><trkpt lat="45.610545294320595" lon="10.8555046386482"><ele>108.49999999999999</ele><time>2026-04-26T09:13:51Z</time></trkpt><trkpt lat="45.61051147191765" lon="10.855635809390662"><ele>110.0</ele><time>2026-04-26T09:13:53Z</time></trkpt><trkpt lat="45.6105073755459" lon="10.855732420790998"><ele>111.5</ele><time>2026-04-26T09:13:54Z</time></trkpt><trkpt lat="45.61050618361243" lon="10.855851323902291"><ele>113.0</ele><time>2026-04-26T09:13:55Z</time></trkpt><trkpt lat="45.61049826547228" lon="10.855965069792523"><ele>114.49999999999999</ele><time>2026-04-26T09:13:56Z</time></trkpt><trkpt lat="45.61048151896653" lon="10.856065015618315"><ele>116.0</ele><time>2026-04-26T09:13:57Z</time></trkpt><trkpt lat="45.610461886764234" lon="10.856185097169671"><ele>115.99999999999999</ele><time>2026-04-26T09:13:58Z</time></trkpt><trkpt lat="45.61045703548215" lon="10.856283948375399"><ele>116.0</ele><time>2026-04-26T09:13:59Z</time></trkpt><trkpt lat="45.61043925223198" lon="10.85639125590216"><ele>116.0</ele><time>2026-04-26T09:14:00Z</time></trkpt><trkpt lat="45.610427091309866" lon="10.856482721262422"><ele>116.0</ele><time>2026-04-26T09:14:01Z</time></trkpt><trkpt lat="45.610406850403955" lon="10.856626950185051"><ele>115.99999999999999</ele><time>2026-04-26T09:14:03Z</time></trkpt><trkpt lat="45.610369405829424" lon="10.856735024461784"><ele>116.0</ele><time>2026-04-26T09:14:05Z</time></trkpt><trkpt lat="45.61027495795808" lon="10.85680982779719"><ele>116.0</ele><time>2026-04-26T09:14:07Z</time></trkpt><trkpt lat="45.61023736484178" lon="10.856915360802601"><ele>116.0</ele><time>2026-04-26T09:14:09Z</time></trkpt><trkpt lat="45.61017711236847" lon="10.85699077420707"><ele>116.0</ele><time>2026-04-26T09:14:11Z</time></trkpt><trkpt lat="45.6102102423704" lon="10.857293769968976"><ele>116.0</ele><time>2026-04-26T09:14:13Z</time></trkpt><trkpt lat="45.61026839376966" lon="10.857345922512177"><ele>116.0</ele><time>2026-04-26T09:14:14Z</time></trkpt><trkpt lat="45.61034028812859" lon="10.857377649673587"><ele>117.0</ele><time>2026-04-26T09:14:16Z</time></trkpt><trkpt lat="45.61042210453893" lon="10.857447932456052"><ele>117.0</ele><time>2026-04-26T09:14:20Z</time></trkpt></trkseg><trkseg><trkpt lat="45.61039416206532" lon="10.857236632697898"><ele>117.0</ele><time>2026-04-26T09:38:04.999Z</time></trkpt><trkpt lat="45.610339681738076" lon="10.857184611688625"><ele>117.0</ele><time>2026-04-26T09:38:07.999Z</time></trkpt><trkpt lat="45.6102652947324" lon="10.85711983513307"><ele>117.0</ele><time>2026-04-26T09:38:09.999Z</time></trkpt><trkpt lat="45.61019700163833" lon="10.857097031288312"><ele>117.0</ele><time>2026-04-26T09:38:10.999Z</time></trkpt><trkpt lat="45.61012525446988" lon="10.857078693329488"><ele>117.0</ele><time>2026-04-26T09:38:12.999Z</time></trkpt><trkpt lat="45.61001999603926" lon="10.857054131113108"><ele>117.0</ele><time>2026-04-26T09:38:15.999Z</time></trkpt><trkpt lat="45.60991836743786" lon="10.857065777218478"><ele>116.83333333333333</ele><time>2026-04-26T09:38:17.999Z</time></trkpt><trkpt lat="45.609819442470965" lon="10.85708007907633"><ele>116.66666666666666</ele><time>2026-04-26T09:38:19.999Z</time></trkpt><trkpt lat="45.60975096949945" lon="10.857089618099566"><ele>116.5</ele><time>2026-04-26T09:38:20.999Z</time></trkpt><trkpt lat="45.609677369291234" lon="10.857074516058464"><ele>116.33333333333333</ele><time>2026-04-26T09:38:21.999Z</time></trkpt><trkpt lat="45.60960887247325" lon="10.857101623896838"><ele>116.16666666666666</ele><time>2026-04-26T09:38:22.999Z</time></trkpt><trkpt lat="45.60952990132614" lon="10.857090610912756"><ele>116.0</ele><time>2026-04-26T09:38:23.999Z</time></trkpt><trkpt lat="45.60946581713471" lon="10.857097315456379"><ele>115.83333333333333</ele><time>2026-04-26T09:38:24.999Z</time></trkpt><trkpt lat="45.60939965969289" lon="10.857103201523826"><ele>115.66666666666666</ele><time>2026-04-26T09:38:25.999Z</time></trkpt><trkpt lat="45.60932202398966" lon="10.857125952145125"><ele>115.5</ele><time>2026-04-26T09:38:26.999Z</time></trkpt><trkpt lat="45.60922299298485" lon="10.857099474321492"><ele>115.33333333333334</ele><time>2026-04-26T09:38:27.999Z</time></trkpt><trkpt lat="45.60914620781005" lon="10.857073426781168"><ele>115.16666666666667</ele><time>2026-04-26T09:38:28.999Z</time></trkpt><trkpt lat="45.60906760011991" lon="10.85703485548064"><ele>115.0</ele><time>2026-04-26T09:38:29.999Z</time></trkpt><trkpt lat="45.608980117740586" lon="10.856988268511751"><ele>115.0</ele><time>2026-04-26T09:38:30.999Z</time></trkpt><trkpt lat="45.60887743611057" lon="10.856952466271144"><ele>115.0</ele><time>2026-04-26T09:38:31.999Z</time></trkpt><trkpt lat="45.608779305635025" lon="10.856915414837252"><ele>115.0</ele><time>2026-04-26T09:38:32.999Z</time></trkpt><trkpt lat="45.60869021511365" lon="10.856870022290419"><ele>115.0</ele><time>2026-04-26T09:38:33.999Z</time></trkpt><trkpt lat="45.60860825535304" lon="10.856831051531103"><ele>115.0</ele><time>2026-04-26T09:38:34.999Z</time></trkpt><trkpt lat="45.60853210203945" lon="10.856795325402125"><ele>113.4</ele><time>2026-04-26T09:38:35.999Z</time></trkpt><trkpt lat="45.608460958958226" lon="10.856769544987559"><ele>111.8</ele><time>2026-04-26T09:38:36.999Z</time></trkpt><trkpt lat="45.608351814156315" lon="10.856708977424056"><ele>110.19999999999999</ele><time>2026-04-26T09:38:38.999Z</time></trkpt><trkpt lat="45.60825563282777" lon="10.85665644540209"><ele>108.6</ele><time>2026-04-26T09:38:39.999Z</time></trkpt><trkpt lat="45.60814646864231" lon="10.856595248601987"><ele>107.0</ele><time>2026-04-26T09:38:40.999Z</time></trkpt><trkpt lat="45.60805368123132" lon="10.856550049161829"><ele>106.99999999999999</ele><time>2026-04-26T09:38:41.999Z</time></trkpt><trkpt lat="45.60797966199703" lon="10.856505823630181"><ele>107.0</ele><time>2026-04-26T09:38:42.999Z</time></trkpt><trkpt lat="45.60791724441413" lon="10.856468422069339"><ele>107.0</ele><time>2026-04-26T09:38:43.999Z</time></trkpt><trkpt lat="45.60783110865518" lon="10.856401871217722"><ele>107.0</ele><time>2026-04-26T09:38:45.999Z</time></trkpt><trkpt lat="45.607769674548834" lon="10.856330755673273"><ele>106.99999999999999</ele><time>2026-04-26T09:38:47.999Z</time></trkpt><trkpt lat="45.60770374129693" lon="10.856301333036676"><ele>107.0</ele><time>2026-04-26T09:38:49.999Z</time></trkpt><trkpt lat="45.60756962609069" lon="10.856421558359061"><ele>107.39999999999999</ele><time>2026-04-26T09:38:51.999Z</time></trkpt><trkpt lat="45.60755972903556" lon="10.856527331793348"><ele>107.79999999999998</ele><time>2026-04-26T09:38:52.999Z</time></trkpt><trkpt lat="45.60753111180948" lon="10.85666550649513"><ele>108.2</ele><time>2026-04-26T09:38:54.999Z</time></trkpt><trkpt lat="45.60748525440025" lon="10.856760339544653"><ele>108.6</ele><time>2026-04-26T09:38:56.999Z</time></trkpt><trkpt lat="45.60734055185794" lon="10.856678321571078"><ele>109.0</ele><time>2026-04-26T09:38:58.999Z</time></trkpt><trkpt lat="45.60724604426658" lon="10.856638044031563"><ele>109.0</ele><time>2026-04-26T09:39:00.999Z</time></trkpt><trkpt lat="45.60715611910317" lon="10.856649185629195"><ele>109.0</ele><time>2026-04-26T09:39:02.999Z</time></trkpt><trkpt lat="45.60708474465862" lon="10.856653659691181"><ele>109.0</ele><time>2026-04-26T09:39:03.999Z</time></trkpt><trkpt lat="45.60698297525772" lon="10.856566743634735"><ele>109.0</ele><time>2026-04-26T09:39:04.999Z</time></trkpt><trkpt lat="45.606863432224955" lon="10.856455316773681"><ele>109.0</ele><time>2026-04-26T09:39:05.999Z</time></trkpt><trkpt lat="45.60673685402655" lon="10.85634735907848"><ele>109.25</ele><time>2026-04-26T09:39:06.999Z</time></trkpt><trkpt lat="45.606611853882754" lon="10.85623444436804"><ele>109.5</ele><time>2026-04-26T09:39:07.999Z</time></trkpt><trkpt lat="45.60648636360621" lon="10.85612893116147"><ele>109.75</ele><time>2026-04-26T09:39:08.999Z</time></trkpt><trkpt lat="45.60637772337834" lon="10.85602177888072"><ele>110.0</ele><time>2026-04-26T09:39:09.999Z</time></trkpt><trkpt lat="45.606261645296684" lon="10.855903048470497"><ele>113.33333333333333</ele><time>2026-04-26T09:39:10.999Z</time></trkpt><trkpt lat="45.6061444970376" lon="10.855769137368402"><ele>116.66666666666666</ele><time>2026-04-26T09:39:11.999Z</time></trkpt><trkpt lat="45.606029978183294" lon="10.85561746122874"><ele>120.0</ele><time>2026-04-26T09:39:12.999Z</time></trkpt><trkpt lat="45.605916693323074" lon="10.855437596659408"><ele>120.0</ele><time>2026-04-26T09:39:13.999Z</time></trkpt><trkpt lat="45.60579651932713" lon="10.855247529958222"><ele>120.0</ele><time>2026-04-26T09:39:14.999Z</time></trkpt><trkpt lat="45.60568859984289" lon="10.855041818258453"><ele>120.0</ele><time>2026-04-26T09:39:15.999Z</time></trkpt><trkpt lat="45.605589091119704" lon="10.854864437902279"><ele>121.33333333333334</ele><time>2026-04-26T09:39:16.999Z</time></trkpt><trkpt lat="45.60547660756418" lon="10.854687694571782"><ele>122.66666666666667</ele><time>2026-04-26T09:39:17.999Z</time></trkpt><trkpt lat="45.60534453494701" lon="10.854527164709225"><ele>124.0</ele><time>2026-04-26T09:39:18.999Z</time></trkpt><trkpt lat="45.60520881094851" lon="10.85438160638397"><ele>121.0</ele><time>2026-04-26T09:39:19.999Z</time></trkpt><trkpt lat="45.605075264064354" lon="10.854241656443948"><ele>118.0</ele><time>2026-04-26T09:39:20.999Z</time></trkpt><trkpt lat="45.604947878841784" lon="10.854103657444988"><ele>115.0</ele><time>2026-04-26T09:39:21.999Z</time></trkpt><trkpt lat="45.604818900167956" lon="10.853959060988682"><ele>115.0</ele><time>2026-04-26T09:39:22.999Z</time></trkpt><trkpt lat="45.60468905237089" lon="10.853818801314883"><ele>115.0</ele><time>2026-04-26T09:39:23.999Z</time></trkpt><trkpt lat="45.604560904221806" lon="10.853680112935"><ele>115.0</ele><time>2026-04-26T09:39:24.999Z</time></trkpt><trkpt lat="45.60444539289644" lon="10.853538543338194"><ele>115.25</ele><time>2026-04-26T09:39:25.999Z</time></trkpt><trkpt lat="45.604328634164716" lon="10.853380732710628"><ele>115.5</ele><time>2026-04-26T09:39:26.999Z</time></trkpt><trkpt lat="45.60420901963175" lon="10.853286531946738"><ele>115.75</ele><time>2026-04-26T09:39:27.999Z</time></trkpt><trkpt lat="45.60409259515559" lon="10.853175574057897"><ele>116.0</ele><time>2026-04-26T09:39:28.999Z</time></trkpt><trkpt lat="45.60397475825887" lon="10.853073473383565"><ele>116.0</ele><time>2026-04-26T09:39:29.999Z</time></trkpt><trkpt lat="45.60384358505199" lon="10.852966998022332"><ele>116.0</ele><time>2026-04-26T09:39:30.999Z</time></trkpt><trkpt lat="45.60368259037953" lon="10.852858734448256"><ele>116.0</ele><time>2026-04-26T09:39:31.999Z</time></trkpt><trkpt lat="45.60351660598959" lon="10.852753232774745"><ele>115.66666666666666</ele><time>2026-04-26T09:39:32.999Z</time></trkpt><trkpt lat="45.60335814471657" lon="10.852664950658387"><ele>115.33333333333334</ele><time>2026-04-26T09:39:33.999Z</time></trkpt><trkpt lat="45.603198504507354" lon="10.852589171159682"><ele>115.0</ele><time>2026-04-26T09:39:34.999Z</time></trkpt><trkpt lat="45.60302570224004" lon="10.852503060164421"><ele>115.0</ele><time>2026-04-26T09:39:35.999Z</time></trkpt><trkpt lat="45.60283327492451" lon="10.852407358099784"><ele>115.0</ele><time>2026-04-26T09:39:36.999Z</time></trkpt><trkpt lat="45.60264445270154" lon="10.852313433399427"><ele>115.0</ele><time>2026-04-26T09:39:37.999Z</time></trkpt><trkpt lat="45.60246269299277" lon="10.8522239083352"><ele>115.0</ele><time>2026-04-26T09:39:38.999Z</time></trkpt><trkpt lat="45.60229766167137" lon="10.852135536670513"><ele>115.0</ele><time>2026-04-26T09:39:39.999Z</time></trkpt><trkpt lat="45.60213168177378" lon="10.85204732565267"><ele>115.0</ele><time>2026-04-26T09:39:40.999Z</time></trkpt><trkpt lat="45.601971791775746" lon="10.851961281504783"><ele>115.25</ele><time>2026-04-26T09:39:41.999Z</time></trkpt><trkpt lat="45.60182113877869" lon="10.851871321508268"><ele>115.5</ele><time>2026-04-26T09:39:42.999Z</time></trkpt><trkpt lat="45.601685745579864" lon="10.851780204708476"><ele>115.75</ele><time>2026-04-26T09:39:43.999Z</time></trkpt><trkpt lat="45.601569610574636" lon="10.851693123052177"><ele>116.0</ele><time>2026-04-26T09:39:44.999Z</time></trkpt><trkpt lat="45.601467337849286" lon="10.851606920108082"><ele>115.49999999999999</ele><time>2026-04-26T09:39:45.999Z</time></trkpt><trkpt lat="45.60137562472041" lon="10.851535648074934"><ele>115.0</ele><time>2026-04-26T09:39:46.999Z</time></trkpt><trkpt lat="45.601313507069584" lon="10.851487837366918"><ele>114.5</ele><time>2026-04-26T09:39:47.999Z</time></trkpt><trkpt lat="45.6012432282067" lon="10.851422330013214"><ele>114.0</ele><time>2026-04-26T09:39:49.999Z</time></trkpt><trkpt lat="45.60126548156324" lon="10.851337426337924"><ele>113.49999999999999</ele><time>2026-04-26T09:39:51.999Z</time></trkpt><trkpt lat="45.60132919493434" lon="10.851275578368202"><ele>113.0</ele><time>2026-04-26T09:39:53.999Z</time></trkpt><trkpt lat="45.601405449013356" lon="10.851210417684388"><ele>113.0</ele><time>2026-04-26T09:39:55.999Z</time></trkpt><trkpt lat="45.60146103657196" lon="10.85116181586846"><ele>113.0</ele><time>2026-04-26T09:39:56.999Z</time></trkpt><trkpt lat="45.601537110924205" lon="10.851155125290962"><ele>113.0</ele><time>2026-04-26T09:39:57.999Z</time></trkpt><trkpt lat="45.60159884047618" lon="10.851130269257624"><ele>113.0</ele><time>2026-04-26T09:39:58.999Z</time></trkpt><trkpt lat="45.60163973555036" lon="10.85103286556242"><ele>113.0</ele><time>2026-04-26T09:39:59.999Z</time></trkpt><trkpt lat="45.60169750122941" lon="10.850970366241"><ele>113.0</ele><time>2026-04-26T09:40:00.999Z</time></trkpt><trkpt lat="45.60175703863071" lon="10.850894314597454"><ele>113.0</ele><time>2026-04-26T09:40:01.999Z</time></trkpt><trkpt lat="45.601806774808985" lon="10.85082715933987"><ele>112.83333333333333</ele><time>2026-04-26T09:40:02.999Z</time></trkpt><trkpt lat="45.60188847179525" lon="10.850695854720131"><ele>112.66666666666666</ele><time>2026-04-26T09:40:04.999Z</time></trkpt><trkpt lat="45.60192790500087" lon="10.850616814871767"><ele>112.5</ele><time>2026-04-26T09:40:05.999Z</time></trkpt><trkpt lat="45.601969596829136" lon="10.850497775924241"><ele>112.33333333333334</ele><time>2026-04-26T09:40:07.999Z</time></trkpt><trkpt lat="45.6019406750917" lon="10.85040990901285"><ele>112.16666666666667</ele><time>2026-04-26T09:40:08.999Z</time></trkpt><trkpt lat="45.60188290012466" lon="10.850339439671874"><ele>112.0</ele><time>2026-04-26T09:40:09.999Z</time></trkpt><trkpt lat="45.60178604156165" lon="10.850309046088407"><ele>112.0</ele><time>2026-04-26T09:40:10.999Z</time></trkpt><trkpt lat="45.601694924475034" lon="10.850256917747462"><ele>112.0</ele><time>2026-04-26T09:40:11.998Z</time></trkpt><trkpt lat="45.60158837943594" lon="10.850190123150695"><ele>112.0</ele><time>2026-04-26T09:40:12.998Z</time></trkpt><trkpt lat="45.60146717428382" lon="10.850155403240631"><ele>112.0</ele><time>2026-04-26T09:40:13.998Z</time></trkpt><trkpt lat="45.6013313575703" lon="10.85013404464149"><ele>112.0</ele><time>2026-04-26T09:40:14.998Z</time></trkpt><trkpt lat="45.601229218193" lon="10.85011100611493"><ele>112.0</ele><time>2026-04-26T09:40:15.998Z</time></trkpt><trkpt lat="45.60109677107406" lon="10.850105724134735"><ele>112.0</ele><time>2026-04-26T09:40:16.998Z</time></trkpt><trkpt lat="45.60095695593598" lon="10.850078573248286"><ele>112.0</ele><time>2026-04-26T09:40:17.998Z</time></trkpt><trkpt lat="45.60082635936735" lon="10.850031164448499"><ele>112.0</ele><time>2026-04-26T09:40:18.998Z</time></trkpt><trkpt lat="45.60070420030142" lon="10.85000267600154"><ele>111.99999999999999</ele><time>2026-04-26T09:40:19.998Z</time></trkpt><trkpt lat="45.600584047874776" lon="10.849960760008033"><ele>111.99999999999999</ele><time>2026-04-26T09:40:20.998Z</time></trkpt><trkpt lat="45.6004774752356" lon="10.849926199127081"><ele>112.0</ele><time>2026-04-26T09:40:21.998Z</time></trkpt><trkpt lat="45.60039467823017" lon="10.849896116473758"><ele>112.0</ele><time>2026-04-26T09:40:22.998Z</time></trkpt><trkpt lat="45.60030627232945" lon="10.849858905526384"><ele>111.50000000000001</ele><time>2026-04-26T09:40:23.998Z</time></trkpt><trkpt lat="45.60021238637654" lon="10.84983323938752"><ele>111.0</ele><time>2026-04-26T09:40:24.998Z</time></trkpt><trkpt lat="45.60012527127948" lon="10.849806118794888"><ele>110.5</ele><time>2026-04-26T09:40:25.998Z</time></trkpt><trkpt lat="45.600033355613824" lon="10.849775631621215"><ele>110.0</ele><time>2026-04-26T09:40:27.998Z</time></trkpt><trkpt lat="45.599966538945495" lon="10.849749819115942"><ele>109.50000000000001</ele><time>2026-04-26T09:40:29.999Z</time></trkpt><trkpt lat="45.599895588422946" lon="10.849709012839575"><ele>109.0</ele><time>2026-04-26T09:40:32.999Z</time></trkpt><trkpt lat="45.5999478212619" lon="10.849374118971559"><ele>108.5</ele><time>2026-04-26T09:40:45.999Z</time></trkpt><trkpt lat="45.59999190063434" lon="10.849217930303965"><ele>108.0</ele><time>2026-04-26T09:40:46.999Z</time></trkpt><trkpt lat="45.600047032397704" lon="10.849026402209663"><ele>107.5</ele><time>2026-04-26T09:40:47.999Z</time></trkpt><trkpt lat="45.60011237131783" lon="10.848818515388684"><ele>107.0</ele><time>2026-04-26T09:40:48.999Z</time></trkpt><trkpt lat="45.60018821874245" lon="10.848629179886135"><ele>106.75</ele><time>2026-04-26T09:40:49.999Z</time></trkpt><trkpt lat="45.600279098463844" lon="10.848455932956536"><ele>106.5</ele><time>2026-04-26T09:40:50.999Z</time></trkpt><trkpt lat="45.60037695740455" lon="10.84829933527485"><ele>106.25</ele><time>2026-04-26T09:40:51.999Z</time></trkpt><trkpt lat="45.600483471472074" lon="10.848152891219694"><ele>106.0</ele><time>2026-04-26T09:40:52.999Z</time></trkpt><trkpt lat="45.60052928666215" lon="10.847910051951573"><ele>106.0</ele><time>2026-04-26T09:40:53.999Z</time></trkpt><trkpt lat="45.60066682748259" lon="10.847916132721162"><ele>106.0</ele><time>2026-04-26T09:40:54.999Z</time></trkpt><trkpt lat="45.600744653876575" lon="10.847821479305729"><ele>106.0</ele><time>2026-04-26T09:40:55.999Z</time></trkpt><trkpt lat="45.60075756719213" lon="10.84772057883713"><ele>106.0</ele><time>2026-04-26T09:40:57.999Z</time></trkpt><trkpt lat="45.600643748129045" lon="10.847514753853364"><ele>105.8</ele><time>2026-04-26T09:40:58.999Z</time></trkpt><trkpt lat="45.600710629121686" lon="10.847429669075707"><ele>105.6</ele><time>2026-04-26T09:41:01.999Z</time></trkpt><trkpt lat="45.60079040483323" lon="10.847328179867317"><ele>105.4</ele><time>2026-04-26T09:41:03.999Z</time></trkpt><trkpt lat="45.600890272290414" lon="10.847382661598163"><ele>105.2</ele><time>2026-04-26T09:41:04.999Z</time></trkpt><trkpt lat="45.60095750590755" lon="10.84730610984023"><ele>105.0</ele><time>2026-04-26T09:41:07.999Z</time></trkpt><trkpt lat="45.60099679740039" lon="10.84719171343083"><ele>105.0</ele><time>2026-04-26T09:41:10.999Z</time></trkpt><trkpt lat="45.6009742089383" lon="10.847106673935256"><ele>105.0</ele><time>2026-04-26T09:41:13.999Z</time></trkpt><trkpt lat="45.600907390366444" lon="10.847145899053388"><ele>105.0</ele><time>2026-04-26T09:41:19.999Z</time></trkpt><trkpt lat="45.60091163776398" lon="10.847262171481733"><ele>105.0</ele><time>2026-04-26T09:41:21.999Z</time></trkpt><trkpt lat="45.600859044145665" lon="10.847365064245968"><ele>105.0</ele><time>2026-04-26T09:41:24.999Z</time></trkpt><trkpt lat="45.60079271127302" lon="10.847423821558657"><ele>105.0</ele><time>2026-04-26T09:41:26.999Z</time></trkpt><trkpt lat="45.60072013113053" lon="10.847498817381155"><ele>105.0</ele><time>2026-04-26T09:41:28.999Z</time></trkpt><trkpt lat="45.60064665644238" lon="10.847454078952312"><ele>105.0</ele><time>2026-04-26T09:41:32.999Z</time></trkpt><trkpt lat="45.600579447641564" lon="10.847289536344611"><ele>105.0</ele><time>2026-04-26T09:41:34.999Z</time></trkpt><trkpt lat="45.60049813912645" lon="10.847149840366853"><ele>105.0</ele><time>2026-04-26T09:41:36.999Z</time></trkpt><trkpt lat="45.60044799232089" lon="10.847062624907215"><ele>105.0</ele><time>2026-04-26T09:41:37.999Z</time></trkpt><trkpt lat="45.600378964635986" lon="10.846966232940723"><ele>104.8</ele><time>2026-04-26T09:41:38.999Z</time></trkpt><trkpt lat="45.60030861461266" lon="10.846862323636964"><ele>104.6</ele><time>2026-04-26T09:41:39.999Z</time></trkpt><trkpt lat="45.600236117956996" lon="10.846760732980863"><ele>104.4</ele><time>2026-04-26T09:41:40.999Z</time></trkpt><trkpt lat="45.60016094249689" lon="10.846654673025409"><ele>104.2</ele><time>2026-04-26T09:41:41.999Z</time></trkpt><trkpt lat="45.60009545384041" lon="10.84657521388801"><ele>104.0</ele><time>2026-04-26T09:41:42.999Z</time></trkpt><trkpt lat="45.60001574572567" lon="10.846504621979541"><ele>103.4</ele><time>2026-04-26T09:41:43.999Z</time></trkpt><trkpt lat="45.599932819694764" lon="10.846451020306906"><ele>102.80000000000001</ele><time>2026-04-26T09:41:44.999Z</time></trkpt><trkpt lat="45.59984556960942" lon="10.84641063442209"><ele>102.19999999999999</ele><time>2026-04-26T09:41:45.999Z</time></trkpt><trkpt lat="45.59975930417761" lon="10.846371052773138"><ele>101.6</ele><time>2026-04-26T09:41:46.999Z</time></trkpt><trkpt lat="45.59965860230042" lon="10.84631108851912"><ele>101.0</ele><time>2026-04-26T09:41:47.999Z</time></trkpt><trkpt lat="45.5995837997983" lon="10.846243933909195"><ele>101.0</ele><time>2026-04-26T09:41:48.999Z</time></trkpt><trkpt lat="45.599511379698086" lon="10.846172726741067"><ele>101.0</ele><time>2026-04-26T09:41:49.999Z</time></trkpt><trkpt lat="45.599429688328875" lon="10.846096470543662"><ele>101.0</ele><time>2026-04-26T09:41:50.999Z</time></trkpt><trkpt lat="45.599344624235606" lon="10.846008481807564"><ele>101.0</ele><time>2026-04-26T09:41:51.999Z</time></trkpt><trkpt lat="45.59926624208996" lon="10.845941920992356"><ele>101.0</ele><time>2026-04-26T09:41:52.999Z</time></trkpt><trkpt lat="45.59916414388799" lon="10.845881127049864"><ele>100.75</ele><time>2026-04-26T09:41:53.999Z</time></trkpt><trkpt lat="45.59904527729158" lon="10.845818965155601"><ele>100.5</ele><time>2026-04-26T09:41:54.999Z</time></trkpt><trkpt lat="45.598934877288045" lon="10.845749302756195"><ele>100.25</ele><time>2026-04-26T09:41:55.999Z</time></trkpt><trkpt lat="45.598839967058396" lon="10.845677831822178"><ele>100.0</ele><time>2026-04-26T09:41:56.999Z</time></trkpt><trkpt lat="45.59875150151983" lon="10.845612923574434"><ele>100.00000000000001</ele><time>2026-04-26T09:41:57.999Z</time></trkpt><trkpt lat="45.598661345561126" lon="10.84556441606326"><ele>100.0</ele><time>2026-04-26T09:41:58.999Z</time></trkpt><trkpt lat="45.59857387653638" lon="10.845532674425128"><ele>100.0</ele><time>2026-04-26T09:41:59.999Z</time></trkpt><trkpt lat="45.59848523661367" lon="10.845520092460452"><ele>100.0</ele><time>2026-04-26T09:42:00.999Z</time></trkpt><trkpt lat="45.59842472646808" lon="10.84546931258441"><ele>100.00000000000001</ele><time>2026-04-26T09:42:01.999Z</time></trkpt><trkpt lat="45.59836135782417" lon="10.845401018575945"><ele>100.0</ele><time>2026-04-26T09:42:02.999Z</time></trkpt><trkpt lat="45.59829129672443" lon="10.845339654354015"><ele>100.0</ele><time>2026-04-26T09:42:03.999Z</time></trkpt><trkpt lat="45.59821729004816" lon="10.845296358254346"><ele>100.0</ele><time>2026-04-26T09:42:04.999Z</time></trkpt><trkpt lat="45.598128076357234" lon="10.84523271400348"><ele>100.0</ele><time>2026-04-26T09:42:05.999Z</time></trkpt><trkpt lat="45.598040075911676" lon="10.845179043923778"><ele>100.0</ele><time>2026-04-26T09:42:06.999Z</time></trkpt><trkpt lat="45.597944407335035" lon="10.845121582247288"><ele>100.0</ele><time>2026-04-26T09:42:07.999Z</time></trkpt><trkpt lat="45.59788102877413" lon="10.845071243628619"><ele>100.00000000000001</ele><time>2026-04-26T09:42:08.999Z</time></trkpt><trkpt lat="45.597789711195105" lon="10.84501472157213"><ele>100.0</ele><time>2026-04-26T09:42:09.999Z</time></trkpt><trkpt lat="45.59770678832341" lon="10.84501413742697"><ele>100.0</ele><time>2026-04-26T09:42:10.999Z</time></trkpt><trkpt lat="45.597640643382164" lon="10.8451197185012"><ele>100.0</ele><time>2026-04-26T09:42:15.999Z</time></trkpt><trkpt lat="45.59770006627612" lon="10.845209578405198"><ele>100.00000000000001</ele><time>2026-04-26T09:42:17.998Z</time></trkpt><trkpt lat="45.597774200900965" lon="10.845240924139596"><ele>100.0</ele><time>2026-04-26T09:42:18.998Z</time></trkpt><trkpt lat="45.597869919458915" lon="10.845286241423022"><ele>100.0</ele><time>2026-04-26T09:42:19.998Z</time></trkpt><trkpt lat="45.597958311117594" lon="10.84531753842637"><ele>100.0</ele><time>2026-04-26T09:42:20.998Z</time></trkpt><trkpt lat="45.598074063420775" lon="10.845394164240714"><ele>100.0</ele><time>2026-04-26T09:42:22.998Z</time></trkpt><trkpt lat="45.59813587056132" lon="10.845441452618264"><ele>100.0</ele><time>2026-04-26T09:42:23.998Z</time></trkpt><trkpt lat="45.59826686347742" lon="10.845524018087493"><ele>100.0</ele><time>2026-04-26T09:42:25.998Z</time></trkpt><trkpt lat="45.598334340256834" lon="10.845539633573482"><ele>100.0</ele><time>2026-04-26T09:42:26.998Z</time></trkpt><trkpt lat="45.59841010956164" lon="10.84554380369397"><ele>100.0</ele><time>2026-04-26T09:42:28.998Z</time></trkpt><trkpt lat="45.59829959746424" lon="10.845628162631396"><ele>100.0</ele><time>2026-04-26T09:42:47.999Z</time></trkpt><trkpt lat="45.59821408842638" lon="10.84558777404917"><ele>100.0</ele><time>2026-04-26T09:42:48.999Z</time></trkpt><trkpt lat="45.59813988055179" lon="10.845549121316857"><ele>100.0</ele><time>2026-04-26T09:42:49.999Z</time></trkpt><trkpt lat="45.59805848224122" lon="10.845498259492937"><ele>100.0</ele><time>2026-04-26T09:42:50.999Z</time></trkpt><trkpt lat="45.5979656972858" lon="10.845451113387465"><ele>100.0</ele><time>2026-04-26T09:42:51.999Z</time></trkpt><trkpt lat="45.59786878304963" lon="10.84539663439154"><ele>100.0</ele><time>2026-04-26T09:42:52.999Z</time></trkpt><trkpt lat="45.597769824391655" lon="10.84533454131817"><ele>100.0</ele><time>2026-04-26T09:42:53.999Z</time></trkpt><trkpt lat="45.5976593215341" lon="10.8452705876654"><ele>100.0</ele><time>2026-04-26T09:42:54.999Z</time></trkpt><trkpt lat="45.59757151221838" lon="10.845217848881079"><ele>100.2</ele><time>2026-04-26T09:42:55.999Z</time></trkpt><trkpt lat="45.5974787461237" lon="10.84518430202301"><ele>100.4</ele><time>2026-04-26T09:42:56.999Z</time></trkpt><trkpt lat="45.59738905366089" lon="10.845137987666625"><ele>100.6</ele><time>2026-04-26T09:42:57.999Z</time></trkpt><trkpt lat="45.597290908506444" lon="10.845093786096166"><ele>100.8</ele><time>2026-04-26T09:42:58.999Z</time></trkpt><trkpt lat="45.59718937023252" lon="10.845042688737438"><ele>101.0</ele><time>2026-04-26T09:42:59.999Z</time></trkpt><trkpt lat="45.59707204131332" lon="10.84497682744097"><ele>101.0</ele><time>2026-04-26T09:43:00.999Z</time></trkpt><trkpt lat="45.59694968339355" lon="10.844904087852093"><ele>101.0</ele><time>2026-04-26T09:43:01.999Z</time></trkpt><trkpt lat="45.59683178203214" lon="10.844828704854862"><ele>101.0</ele><time>2026-04-26T09:43:02.999Z</time></trkpt><trkpt lat="45.59671244550254" lon="10.844756647841301"><ele>101.0</ele><time>2026-04-26T09:43:03.999Z</time></trkpt><trkpt lat="45.596589533421444" lon="10.844680777331169"><ele>101.0</ele><time>2026-04-26T09:43:04.999Z</time></trkpt><trkpt lat="45.59646866341349" lon="10.84460524047373"><ele>101.0</ele><time>2026-04-26T09:43:05.999Z</time></trkpt><trkpt lat="45.59634251727025" lon="10.844533123159307"><ele>101.0</ele><time>2026-04-26T09:43:06.999Z</time></trkpt><trkpt lat="45.59619948157008" lon="10.844468374600481"><ele>101.0</ele><time>2026-04-26T09:43:07.999Z</time></trkpt><trkpt lat="45.59607786068017" lon="10.844401568631564"><ele>101.25</ele><time>2026-04-26T09:43:08.999Z</time></trkpt><trkpt lat="45.595942674257934" lon="10.844330921221273"><ele>101.5</ele><time>2026-04-26T09:43:09.999Z</time></trkpt><trkpt lat="45.59582930200072" lon="10.844290427724873"><ele>101.75</ele><time>2026-04-26T09:43:10.999Z</time></trkpt><trkpt lat="45.59571578039311" lon="10.844242818067496"><ele>102.0</ele><time>2026-04-26T09:43:11.999Z</time></trkpt><trkpt lat="45.5956001150454" lon="10.844189018184606"><ele>102.0</ele><time>2026-04-26T09:43:12.999Z</time></trkpt><trkpt lat="45.595493698431056" lon="10.844149748589297"><ele>102.0</ele><time>2026-04-26T09:43:13.999Z</time></trkpt><trkpt lat="45.595404759624955" lon="10.844120212787352"><ele>102.0</ele><time>2026-04-26T09:43:14.999Z</time></trkpt><trkpt lat="45.59531832214914" lon="10.844105873196517"><ele>102.0</ele><time>2026-04-26T09:43:15.999Z</time></trkpt><trkpt lat="45.59523680398059" lon="10.844101960683552"><ele>102.0</ele><time>2026-04-26T09:43:16.999Z</time></trkpt><trkpt lat="45.59513981899146" lon="10.844099578481853"><ele>101.5</ele><time>2026-04-26T09:43:17.999Z</time></trkpt><trkpt lat="45.59501310770552" lon="10.844073084701265"><ele>101.0</ele><time>2026-04-26T09:43:18.999Z</time></trkpt><trkpt lat="45.59488368511432" lon="10.84401683277325"><ele>100.5</ele><time>2026-04-26T09:43:19.999Z</time></trkpt><trkpt lat="45.5947696166499" lon="10.843988988749006"><ele>100.0</ele><time>2026-04-26T09:43:20.999Z</time></trkpt><trkpt lat="45.59467234647095" lon="10.843963902291891"><ele>100.0</ele><time>2026-04-26T09:43:21.999Z</time></trkpt><trkpt lat="45.59458846607432" lon="10.843943832271517"><ele>100.0</ele><time>2026-04-26T09:43:22.999Z</time></trkpt><trkpt lat="45.59449427147217" lon="10.843945171761494"><ele>100.0</ele><time>2026-04-26T09:43:24.999Z</time></trkpt><trkpt lat="45.59444193034907" lon="10.844052199006345"><ele>100.0</ele><time>2026-04-26T09:43:26.999Z</time></trkpt><trkpt lat="45.594401241541675" lon="10.844186188103494"><ele>100.0</ele><time>2026-04-26T09:43:27.999Z</time></trkpt><trkpt lat="45.59437693209727" lon="10.844376985993962"><ele>101.0</ele><time>2026-04-26T09:43:29Z</time></trkpt><trkpt lat="45.594344861824624" lon="10.844606157202978"><ele>102.0</ele><time>2026-04-26T09:43:30Z</time></trkpt><trkpt lat="45.59430858686672" lon="10.844841252865313"><ele>103.0</ele><time>2026-04-26T09:43:31Z</time></trkpt><trkpt lat="45.59427513084684" lon="10.845017696554196"><ele>102.50000000000001</ele><time>2026-04-26T09:43:32Z</time></trkpt><trkpt lat="45.59424733721797" lon="10.845163763993195"><ele>102.0</ele><time>2026-04-26T09:43:33Z</time></trkpt><trkpt lat="45.59422921494591" lon="10.845265544927143"><ele>101.5</ele><time>2026-04-26T09:43:34Z</time></trkpt><trkpt lat="45.594192703565405" lon="10.845387850049068"><ele>101.0</ele><time>2026-04-26T09:43:36Z</time></trkpt><trkpt lat="45.59412838306154" lon="10.845372159317863"><ele>100.50000000000001</ele><time>2026-04-26T09:43:40Z</time></trkpt><trkpt lat="45.59405679263811" lon="10.84532516037569"><ele>100.0</ele><time>2026-04-26T09:43:42Z</time></trkpt><trkpt lat="45.5939680056281" lon="10.845251622038464"><ele>100.00000000000001</ele><time>2026-04-26T09:43:43Z</time></trkpt><trkpt lat="45.59386590194604" lon="10.84517254623801"><ele>100.0</ele><time>2026-04-26T09:43:44Z</time></trkpt><trkpt lat="45.59376562914987" lon="10.845163181124262"><ele>100.0</ele><time>2026-04-26T09:43:45Z</time></trkpt><trkpt lat="45.59368102352161" lon="10.845131130098514"><ele>100.0</ele><time>2026-04-26T09:43:46Z</time></trkpt><trkpt lat="45.59360822600381" lon="10.84509213994868"><ele>100.00000000000001</ele><time>2026-04-26T09:43:47Z</time></trkpt><trkpt lat="45.59355596251141" lon="10.845035644690237"><ele>100.0</ele><time>2026-04-26T09:43:50Z</time></trkpt><trkpt lat="45.593534810087036" lon="10.84492683116324"><ele>100.33333333333334</ele><time>2026-04-26T09:43:53Z</time></trkpt><trkpt lat="45.59353272009397" lon="10.844807401258368"><ele>100.66666666666667</ele><time>2026-04-26T09:43:54Z</time></trkpt><trkpt lat="45.59355885585542" lon="10.84463673494515"><ele>101.0</ele><time>2026-04-26T09:43:55Z</time></trkpt><trkpt lat="45.59358621695052" lon="10.844497867073928"><ele>101.33333333333334</ele><time>2026-04-26T09:43:56Z</time></trkpt><trkpt lat="45.59360271802205" lon="10.844404931143595"><ele>101.66666666666667</ele><time>2026-04-26T09:43:57Z</time></trkpt><trkpt lat="45.59360396494211" lon="10.844309825721991"><ele>102.0</ele><time>2026-04-26T09:43:59Z</time></trkpt><trkpt lat="45.59354344281083" lon="10.844278260316502"><ele>102.0</ele><time>2026-04-26T09:44:01Z</time></trkpt><trkpt lat="45.59346953231904" lon="10.844272975806271"><ele>102.0</ele><time>2026-04-26T09:44:02Z</time></trkpt><trkpt lat="45.59335236582513" lon="10.844268537095191"><ele>102.0</ele><time>2026-04-26T09:44:03Z</time></trkpt><trkpt lat="45.593223026454645" lon="10.844259662476055"><ele>102.0</ele><time>2026-04-26T09:44:04Z</time></trkpt><trkpt lat="45.59312520209174" lon="10.844251025253001"><ele>102.0</ele><time>2026-04-26T09:44:05Z</time></trkpt><trkpt lat="45.59299955508222" lon="10.844239707480558"><ele>102.0</ele><time>2026-04-26T09:44:07Z</time></trkpt><trkpt lat="45.59291207633391" lon="10.844236792239151"><ele>102.0</ele><time>2026-04-26T09:44:09Z</time></trkpt><trkpt lat="45.59289073726265" lon="10.844133055963447"><ele>102.0</ele><time>2026-04-26T09:44:11Z</time></trkpt><trkpt lat="45.592892156980476" lon="10.844009101019996"><ele>102.0</ele><time>2026-04-26T09:44:12Z</time></trkpt><trkpt lat="45.59290462446236" lon="10.843880496328996"><ele>102.0</ele><time>2026-04-26T09:44:13Z</time></trkpt><trkpt lat="45.592880803186034" lon="10.843782033909843"><ele>102.0</ele><time>2026-04-26T09:44:15Z</time></trkpt><trkpt lat="45.592764489415515" lon="10.843740846301092"><ele>101.25</ele><time>2026-04-26T09:44:17Z</time></trkpt><trkpt lat="45.59265653420372" lon="10.843765091588294"><ele>100.5</ele><time>2026-04-26T09:44:18Z</time></trkpt><trkpt lat="45.59254503103211" lon="10.843795180081484"><ele>99.75</ele><time>2026-04-26T09:44:19Z</time></trkpt><trkpt lat="45.592387719342874" lon="10.843825376747372"><ele>99.0</ele><time>2026-04-26T09:44:20Z</time></trkpt><trkpt lat="45.59220486651448" lon="10.843851376839213"><ele>99.0</ele><time>2026-04-26T09:44:21Z</time></trkpt><trkpt lat="45.59204141813805" lon="10.843871575340891"><ele>99.0</ele><time>2026-04-26T09:44:22Z</time></trkpt><trkpt lat="45.591880509418765" lon="10.84388283922018"><ele>99.0</ele><time>2026-04-26T09:44:23Z</time></trkpt><trkpt lat="45.59174033881877" lon="10.843897730630411"><ele>99.75</ele><time>2026-04-26T09:44:23.999Z</time></trkpt><trkpt lat="45.59160449083013" lon="10.843911549268352"><ele>100.5</ele><time>2026-04-26T09:44:24.999Z</time></trkpt><trkpt lat="45.5914781419475" lon="10.843922403881344"><ele>101.25</ele><time>2026-04-26T09:44:25.999Z</time></trkpt><trkpt lat="45.591375870229406" lon="10.843934018424935"><ele>102.0</ele><time>2026-04-26T09:44:26.999Z</time></trkpt><trkpt lat="45.59126026677283" lon="10.843924434678208"><ele>101.75</ele><time>2026-04-26T09:44:27.999Z</time></trkpt><trkpt lat="45.59113559582471" lon="10.843901723567122"><ele>101.5</ele><time>2026-04-26T09:44:28.999Z</time></trkpt><trkpt lat="45.59102212632296" lon="10.843912151875504"><ele>101.25</ele><time>2026-04-26T09:44:29.999Z</time></trkpt><trkpt lat="45.59089460921467" lon="10.843947585307161"><ele>101.0</ele><time>2026-04-26T09:44:30.999Z</time></trkpt><trkpt lat="45.590735422829994" lon="10.843998539608183"><ele>101.0</ele><time>2026-04-26T09:44:31.999Z</time></trkpt><trkpt lat="45.59056065707751" lon="10.844049008203948"><ele>101.0</ele><time>2026-04-26T09:44:32.999Z</time></trkpt><trkpt lat="45.590372810644816" lon="10.84409996481458"><ele>101.0</ele><time>2026-04-26T09:44:33.999Z</time></trkpt><trkpt lat="45.59018889538513" lon="10.84414757588228"><ele>101.0</ele><time>2026-04-26T09:44:34.999Z</time></trkpt><trkpt lat="45.590017239262714" lon="10.844190445702806"><ele>101.0</ele><time>2026-04-26T09:44:35.999Z</time></trkpt><trkpt lat="45.58985453070665" lon="10.844226301241356"><ele>101.0</ele><time>2026-04-26T09:44:36.999Z</time></trkpt><trkpt lat="45.589698424549866" lon="10.84424854283813"><ele>101.0</ele><time>2026-04-26T09:44:37.999Z</time></trkpt><trkpt lat="45.58952884359608" lon="10.844267545622918"><ele>101.0</ele><time>2026-04-26T09:44:38.999Z</time></trkpt><trkpt lat="45.589368937030216" lon="10.844294425560241"><ele>101.0</ele><time>2026-04-26T09:44:39.999Z</time></trkpt><trkpt lat="45.58922987047299" lon="10.844310606799514"><ele>101.0</ele><time>2026-04-26T09:44:40.999Z</time></trkpt><trkpt lat="45.58910856627471" lon="10.844336086190951"><ele>101.0</ele><time>2026-04-26T09:44:41.999Z</time></trkpt><trkpt lat="45.58897735059347" lon="10.844372201187335"><ele>101.0</ele><time>2026-04-26T09:44:42.999Z</time></trkpt><trkpt lat="45.588838365391766" lon="10.844432206747117"><ele>101.0</ele><time>2026-04-26T09:44:43.999Z</time></trkpt><trkpt lat="45.588692618133464" lon="10.844496084995711"><ele>100.66666666666666</ele><time>2026-04-26T09:44:44.999Z</time></trkpt><trkpt lat="45.58852879982407" lon="10.844545947448594"><ele>100.33333333333334</ele><time>2026-04-26T09:44:45.999Z</time></trkpt><trkpt lat="45.58836324958941" lon="10.84460250010183"><ele>100.0</ele><time>2026-04-26T09:44:46.999Z</time></trkpt><trkpt lat="45.588222016474646" lon="10.844644523861056"><ele>100.0</ele><time>2026-04-26T09:44:47.999Z</time></trkpt><trkpt lat="45.588091310715875" lon="10.84467888869986"><ele>100.0</ele><time>2026-04-26T09:44:49Z</time></trkpt><trkpt lat="45.587985687183426" lon="10.844714764306769"><ele>100.0</ele><time>2026-04-26T09:44:50Z</time></trkpt><trkpt lat="45.58788532870175" lon="10.84475563321511"><ele>100.0</ele><time>2026-04-26T09:44:51Z</time></trkpt><trkpt lat="45.58779841090692" lon="10.844798425591318"><ele>100.0</ele><time>2026-04-26T09:44:52Z</time></trkpt><trkpt lat="45.58773497984458" lon="10.844856057498118"><ele>99.66666666666667</ele><time>2026-04-26T09:44:53Z</time></trkpt><trkpt lat="45.587674374101674" lon="10.844940758702094"><ele>99.33333333333334</ele><time>2026-04-26T09:44:54Z</time></trkpt><trkpt lat="45.5876408653115" lon="10.845037488663921"><ele>99.0</ele><time>2026-04-26T09:44:55Z</time></trkpt><trkpt lat="45.587621558472144" lon="10.845156865488875"><ele>98.66666666666666</ele><time>2026-04-26T09:44:56Z</time></trkpt><trkpt lat="45.58760021481195" lon="10.845278025935247"><ele>98.33333333333333</ele><time>2026-04-26T09:44:57Z</time></trkpt><trkpt lat="45.587597799053476" lon="10.845372664914679"><ele>98.0</ele><time>2026-04-26T09:44:58Z</time></trkpt><trkpt lat="45.58759504304085" lon="10.845481177102979"><ele>98.80000000000001</ele><time>2026-04-26T09:45:00Z</time></trkpt><trkpt lat="45.58766865518019" lon="10.845538622936568"><ele>99.6</ele><time>2026-04-26T09:45:15Z</time></trkpt><trkpt lat="45.58775142059885" lon="10.845622513279512"><ele>100.4</ele><time>2026-04-26T09:45:16Z</time></trkpt><trkpt lat="45.58785641857055" lon="10.845657335875234"><ele>101.19999999999999</ele><time>2026-04-26T09:45:17Z</time></trkpt><trkpt lat="45.587978157096586" lon="10.845700394177847"><ele>102.0</ele><time>2026-04-26T09:45:18Z</time></trkpt><trkpt lat="45.588108829283975" lon="10.84574833310102"><ele>102.0</ele><time>2026-04-26T09:45:19Z</time></trkpt><trkpt lat="45.58829186409441" lon="10.845816389234665"><ele>102.0</ele><time>2026-04-26T09:45:20Z</time></trkpt><trkpt lat="45.58850735222727" lon="10.84589717478862"><ele>102.0</ele><time>2026-04-26T09:45:21Z</time></trkpt><trkpt lat="45.58871308091576" lon="10.84597256711765"><ele>102.66666666666666</ele><time>2026-04-26T09:45:22Z</time></trkpt><trkpt lat="45.588899294746355" lon="10.846034776430084"><ele>103.33333333333333</ele><time>2026-04-26T09:45:23Z</time></trkpt><trkpt lat="45.58910174484703" lon="10.846101136778527"><ele>104.0</ele><time>2026-04-26T09:45:24Z</time></trkpt><trkpt lat="45.58931047722611" lon="10.846173525337774"><ele>104.0</ele><time>2026-04-26T09:45:25Z</time></trkpt><trkpt lat="45.58949014806621" lon="10.84623644388858"><ele>104.0</ele><time>2026-04-26T09:45:26Z</time></trkpt><trkpt lat="45.58966657483461" lon="10.846297075935249"><ele>104.0</ele><time>2026-04-26T09:45:27Z</time></trkpt><trkpt lat="45.58983319500663" lon="10.846347660507286"><ele>103.5</ele><time>2026-04-26T09:45:28Z</time></trkpt><trkpt lat="45.589966724891845" lon="10.84639562238593"><ele>103.0</ele><time>2026-04-26T09:45:29Z</time></trkpt><trkpt lat="45.59011527719419" lon="10.84643796884171"><ele>102.5</ele><time>2026-04-26T09:45:30Z</time></trkpt><trkpt lat="45.59023484925735" lon="10.846480084605847"><ele>102.0</ele><time>2026-04-26T09:45:31Z</time></trkpt><trkpt lat="45.59033522877402" lon="10.846530156849058"><ele>102.19999999999999</ele><time>2026-04-26T09:45:32Z</time></trkpt><trkpt lat="45.59044663510552" lon="10.846565565720226"><ele>102.4</ele><time>2026-04-26T09:45:33Z</time></trkpt><trkpt lat="45.59053802296164" lon="10.846585301553052"><ele>102.6</ele><time>2026-04-26T09:45:34Z</time></trkpt><trkpt lat="45.59061234163317" lon="10.846576945980352"><ele>102.80000000000001</ele><time>2026-04-26T09:45:36Z</time></trkpt><trkpt lat="45.590594981218494" lon="10.846784103703193"><ele>103.0</ele><time>2026-04-26T09:45:39Z</time></trkpt><trkpt lat="45.59057396745697" lon="10.846913296744638"><ele>103.0</ele><time>2026-04-26T09:45:40Z</time></trkpt><trkpt lat="45.590543891171706" lon="10.847039572450132"><ele>103.0</ele><time>2026-04-26T09:45:41Z</time></trkpt><trkpt lat="45.59049863263017" lon="10.847217683746711"><ele>103.0</ele><time>2026-04-26T09:45:42Z</time></trkpt><trkpt lat="45.59045328378844" lon="10.84738401774899"><ele>103.0</ele><time>2026-04-26T09:45:43Z</time></trkpt><trkpt lat="45.59041151734141" lon="10.847507731738183"><ele>103.0</ele><time>2026-04-26T09:45:44Z</time></trkpt><trkpt lat="45.59037761881799" lon="10.847615661368982"><ele>103.0</ele><time>2026-04-26T09:45:45Z</time></trkpt><trkpt lat="45.59036765079461" lon="10.847710034472888"><ele>103.0</ele><time>2026-04-26T09:45:46Z</time></trkpt><trkpt lat="45.59031138008914" lon="10.847862579119806"><ele>103.0</ele><time>2026-04-26T09:45:48Z</time></trkpt><trkpt lat="45.59018617941852" lon="10.84790670526855"><ele>103.0</ele><time>2026-04-26T09:45:52Z</time></trkpt><trkpt lat="45.59005982907098" lon="10.847812107556093"><ele>103.0</ele><time>2026-04-26T09:45:54Z</time></trkpt><trkpt lat="45.58994927272749" lon="10.847731297640847"><ele>103.0</ele><time>2026-04-26T09:45:55Z</time></trkpt><trkpt lat="45.58982800547075" lon="10.847649387490657"><ele>103.0</ele><time>2026-04-26T09:45:56Z</time></trkpt><trkpt lat="45.58969698508987" lon="10.847587563126012"><ele>103.0</ele><time>2026-04-26T09:45:57Z</time></trkpt><trkpt lat="45.589568181329525" lon="10.847511483031473"><ele>104.75</ele><time>2026-04-26T09:45:58Z</time></trkpt><trkpt lat="45.5894267771576" lon="10.847436638723327"><ele>106.5</ele><time>2026-04-26T09:45:59Z</time></trkpt><trkpt lat="45.58928243177011" lon="10.847373867578728"><ele>108.25</ele><time>2026-04-26T09:46:00Z</time></trkpt><trkpt lat="45.589148988245476" lon="10.847305133783824"><ele>110.0</ele><time>2026-04-26T09:46:01Z</time></trkpt><trkpt lat="45.58898882686499" lon="10.847424486426943"><ele>109.99999999999999</ele><time>2026-04-26T09:46:02Z</time></trkpt><trkpt lat="45.58887027134425" lon="10.847379033567085"><ele>110.0</ele><time>2026-04-26T09:46:03Z</time></trkpt><trkpt lat="45.588788684523436" lon="10.847348201399038"><ele>110.0</ele><time>2026-04-26T09:46:04Z</time></trkpt><trkpt lat="45.588718645142144" lon="10.847321732784957"><ele>110.0</ele><time>2026-04-26T09:46:05Z</time></trkpt><trkpt lat="45.588652647373976" lon="10.84729679171916"><ele>109.99999999999999</ele><time>2026-04-26T09:46:06Z</time></trkpt><trkpt lat="45.58856936610569" lon="10.847265319149376"><ele>110.0</ele><time>2026-04-26T09:46:09Z</time></trkpt><trkpt lat="45.58849287748617" lon="10.847234239865054"><ele>109.99999999999999</ele><time>2026-04-26T09:46:10Z</time></trkpt><trkpt lat="45.58842509369947" lon="10.847203892590732"><ele>110.0</ele><time>2026-04-26T09:46:11Z</time></trkpt><trkpt lat="45.58836334227164" lon="10.847172426615135"><ele>110.0</ele><time>2026-04-26T09:46:13Z</time></trkpt><trkpt lat="45.5884335577299" lon="10.847191911594074"><ele>110.0</ele><time>2026-04-26T09:46:17Z</time></trkpt><trkpt lat="45.588501237959505" lon="10.847237632775714"><ele>110.0</ele><time>2026-04-26T09:46:18Z</time></trkpt><trkpt lat="45.58856795637427" lon="10.847264711935589"><ele>109.99999999999999</ele><time>2026-04-26T09:46:19Z</time></trkpt><trkpt lat="45.588658065003365" lon="10.847298839053277"><ele>110.0</ele><time>2026-04-26T09:46:21Z</time></trkpt><trkpt lat="45.588725998842826" lon="10.847349913096926"><ele>112.0</ele><time>2026-04-26T09:46:23Z</time></trkpt><trkpt lat="45.58867106608946" lon="10.84741271853269"><ele>114.0</ele><time>2026-04-26T09:46:27Z</time></trkpt><trkpt lat="45.58850674102286" lon="10.847358490723254"><ele>116.0</ele><time>2026-04-26T09:46:29Z</time></trkpt><trkpt lat="45.58834013389132" lon="10.847218837905862"><ele>118.0</ele><time>2026-04-26T09:46:30Z</time></trkpt><trkpt lat="45.588193733397176" lon="10.847101980027773"><ele>118.0</ele><time>2026-04-26T09:46:31Z</time></trkpt><trkpt lat="45.58805156681159" lon="10.847029079968715"><ele>118.0</ele><time>2026-04-26T09:46:32Z</time></trkpt><trkpt lat="45.587889758240955" lon="10.84691742497084"><ele>118.0</ele><time>2026-04-26T09:46:33Z</time></trkpt><trkpt lat="45.58773030572" lon="10.846806261821015"><ele>116.33333333333334</ele><time>2026-04-26T09:46:34Z</time></trkpt><trkpt lat="45.5875832373857" lon="10.846683510774543"><ele>114.66666666666666</ele><time>2026-04-26T09:46:35Z</time></trkpt><trkpt lat="45.58742283920953" lon="10.846567135752801"><ele>113.0</ele><time>2026-04-26T09:46:36Z</time></trkpt><trkpt lat="45.58728769936765" lon="10.846414170420582"><ele>113.0</ele><time>2026-04-26T09:46:37Z</time></trkpt><trkpt lat="45.58712582924034" lon="10.846279824840794"><ele>113.0</ele><time>2026-04-26T09:46:38Z</time></trkpt><trkpt lat="45.58696380676524" lon="10.846145805900692"><ele>113.0</ele><time>2026-04-26T09:46:39Z</time></trkpt><trkpt lat="45.5868045140144" lon="10.845998923869969"><ele>112.0</ele><time>2026-04-26T09:46:40Z</time></trkpt><trkpt lat="45.58662149224267" lon="10.845839760486598"><ele>111.0</ele><time>2026-04-26T09:46:41Z</time></trkpt><trkpt lat="45.58646010916137" lon="10.84568511932854"><ele>110.0</ele><time>2026-04-26T09:46:42Z</time></trkpt><trkpt lat="45.58628666887985" lon="10.845543644422927"><ele>110.33333333333333</ele><time>2026-04-26T09:46:43Z</time></trkpt><trkpt lat="45.58612788045976" lon="10.845398162696402"><ele>110.66666666666666</ele><time>2026-04-26T09:46:44Z</time></trkpt><trkpt lat="45.585977466697884" lon="10.845255187936278"><ele>111.0</ele><time>2026-04-26T09:46:45Z</time></trkpt><trkpt lat="45.58583348499622" lon="10.845102305935104"><ele>111.0</ele><time>2026-04-26T09:46:46Z</time></trkpt><trkpt lat="45.585683878472" lon="10.844965112828435"><ele>111.0</ele><time>2026-04-26T09:46:47Z</time></trkpt><trkpt lat="45.585531505926284" lon="10.84482062066064"><ele>111.0</ele><time>2026-04-26T09:46:48Z</time></trkpt><trkpt lat="45.585367958627195" lon="10.844686059569346"><ele>111.33333333333334</ele><time>2026-04-26T09:46:49Z</time></trkpt><trkpt lat="45.58521660340592" lon="10.844531261822857"><ele>111.66666666666667</ele><time>2026-04-26T09:46:50Z</time></trkpt><trkpt lat="45.58506210443682" lon="10.84435547395139"><ele>112.0</ele><time>2026-04-26T09:46:51Z</time></trkpt><trkpt lat="45.584903151145916" lon="10.844183366441124"><ele>112.0</ele><time>2026-04-26T09:46:52Z</time></trkpt><trkpt lat="45.584745043457" lon="10.844007726348133"><ele>112.0</ele><time>2026-04-26T09:46:53Z</time></trkpt><trkpt lat="45.58458060096521" lon="10.843839809907779"><ele>112.0</ele><time>2026-04-26T09:46:54Z</time></trkpt><trkpt lat="45.58442239585992" lon="10.843663473804169"><ele>114.66666666666667</ele><time>2026-04-26T09:46:55Z</time></trkpt><trkpt lat="45.58427384655797" lon="10.843477136004193"><ele>117.33333333333334</ele><time>2026-04-26T09:46:56Z</time></trkpt><trkpt lat="45.58414436437115" lon="10.84324810841274"><ele>120.0</ele><time>2026-04-26T09:46:57Z</time></trkpt><trkpt lat="45.58401234836372" lon="10.843023658946402"><ele>120.0</ele><time>2026-04-26T09:46:58Z</time></trkpt><trkpt lat="45.5838825121957" lon="10.842803246267845"><ele>120.0</ele><time>2026-04-26T09:46:59Z</time></trkpt><trkpt lat="45.5837500730734" lon="10.842574669459342"><ele>120.0</ele><time>2026-04-26T09:47:00Z</time></trkpt><trkpt lat="45.583612469352246" lon="10.842352660300651"><ele>123.0</ele><time>2026-04-26T09:47:01Z</time></trkpt><trkpt lat="45.58347684086065" lon="10.842125009606518"><ele>126.0</ele><time>2026-04-26T09:47:02Z</time></trkpt><trkpt lat="45.58334094118541" lon="10.841895641110938"><ele>129.0</ele><time>2026-04-26T09:47:03Z</time></trkpt><trkpt lat="45.58320515441953" lon="10.84165514428043"><ele>119.5</ele><time>2026-04-26T09:47:04Z</time></trkpt><trkpt lat="45.58306287561604" lon="10.841347466032127"><ele>110.0</ele><time>2026-04-26T09:47:05Z</time></trkpt><trkpt lat="45.582946508250934" lon="10.841084072331588"><ele>119.0</ele><time>2026-04-26T09:47:06Z</time></trkpt><trkpt lat="45.582810948505205" lon="10.840821074300715"><ele>128.0</ele><time>2026-04-26T09:47:07Z</time></trkpt><trkpt lat="45.58267732391913" lon="10.840566620255508"><ele>128.0</ele><time>2026-04-26T09:47:08Z</time></trkpt><trkpt lat="45.58257871187761" lon="10.840327130885635"><ele>128.0</ele><time>2026-04-26T09:47:09Z</time></trkpt><trkpt lat="45.58247410975671" lon="10.840091567344405"><ele>128.0</ele><time>2026-04-26T09:47:10Z</time></trkpt><trkpt lat="45.5823937912795" lon="10.83982264062933"><ele>122.66666666666666</ele><time>2026-04-26T09:47:11Z</time></trkpt><trkpt lat="45.58230742908627" lon="10.839544834281435"><ele>117.33333333333334</ele><time>2026-04-26T09:47:12Z</time></trkpt><trkpt lat="45.58222371819255" lon="10.839239123947323"><ele>112.0</ele><time>2026-04-26T09:47:13Z</time></trkpt><trkpt lat="45.582128067491" lon="10.838959290390022"><ele>113.66666666666667</ele><time>2026-04-26T09:47:14Z</time></trkpt><trkpt lat="45.58203386176949" lon="10.838693742152326"><ele>115.33333333333334</ele><time>2026-04-26T09:47:15Z</time></trkpt><trkpt lat="45.581937129571934" lon="10.838439400388873"><ele>117.0</ele><time>2026-04-26T09:47:16Z</time></trkpt><trkpt lat="45.581855852442445" lon="10.838182009435018"><ele>117.0</ele><time>2026-04-26T09:47:17Z</time></trkpt><trkpt lat="45.58177374972971" lon="10.837904467311391"><ele>117.0</ele><time>2026-04-26T09:47:18Z</time></trkpt><trkpt lat="45.58168744872987" lon="10.83762816373134"><ele>117.0</ele><time>2026-04-26T09:47:19Z</time></trkpt><trkpt lat="45.581604234147065" lon="10.83737294850604"><ele>113.66666666666666</ele><time>2026-04-26T09:47:20Z</time></trkpt><trkpt lat="45.581533929344964" lon="10.837130537577055"><ele>110.33333333333333</ele><time>2026-04-26T09:47:21Z</time></trkpt><trkpt lat="45.58146525921683" lon="10.836922729801659"><ele>107.0</ele><time>2026-04-26T09:47:22Z</time></trkpt><trkpt lat="45.58139379316671" lon="10.836723303341934"><ele>106.25</ele><time>2026-04-26T09:47:23Z</time></trkpt><trkpt lat="45.581327254403334" lon="10.836538376606056"><ele>105.5</ele><time>2026-04-26T09:47:24Z</time></trkpt><trkpt lat="45.58126205655632" lon="10.83636697585874"><ele>104.75</ele><time>2026-04-26T09:47:25Z</time></trkpt><trkpt lat="45.58120614755964" lon="10.83619186318566"><ele>104.0</ele><time>2026-04-26T09:47:26Z</time></trkpt><trkpt lat="45.58113954008762" lon="10.836041418108543"><ele>104.0</ele><time>2026-04-26T09:47:27Z</time></trkpt><trkpt lat="45.58108181423732" lon="10.835885294408461"><ele>104.0</ele><time>2026-04-26T09:47:28Z</time></trkpt><trkpt lat="45.58104860802394" lon="10.835760908411796"><ele>104.0</ele><time>2026-04-26T09:47:29Z</time></trkpt><trkpt lat="45.58101716244538" lon="10.835653448333849"><ele>104.0</ele><time>2026-04-26T09:47:30Z</time></trkpt><trkpt lat="45.58104614787055" lon="10.835527147710895"><ele>104.0</ele><time>2026-04-26T09:47:33Z</time></trkpt><trkpt lat="45.58102210766639" lon="10.83543622676794"><ele>104.0</ele><time>2026-04-26T09:47:35Z</time></trkpt><trkpt lat="45.580978336571945" lon="10.835349424337696"><ele>104.0</ele><time>2026-04-26T09:47:40Z</time></trkpt><trkpt lat="45.580900911123926" lon="10.83514730594694"><ele>104.0</ele><time>2026-04-26T09:47:42Z</time></trkpt><trkpt lat="45.58085716718363" lon="10.835041918584958"><ele>104.0</ele><time>2026-04-26T09:47:43Z</time></trkpt><trkpt lat="45.580809296802684" lon="10.834930128655449"><ele>104.0</ele><time>2026-04-26T09:47:44Z</time></trkpt><trkpt lat="45.5807624680433" lon="10.83482535459623"><ele>103.75</ele><time>2026-04-26T09:47:45Z</time></trkpt><trkpt lat="45.58072232700397" lon="10.834735172984386"><ele>103.5</ele><time>2026-04-26T09:47:46Z</time></trkpt><trkpt lat="45.58067325995352" lon="10.8345742572705"><ele>103.25</ele><time>2026-04-26T09:47:48Z</time></trkpt><trkpt lat="45.58061591469117" lon="10.834384600961885"><ele>103.0</ele><time>2026-04-26T09:47:50Z</time></trkpt><trkpt lat="45.58104047583283" lon="10.833753737226532"><ele>102.75</ele><time>2026-04-26T09:47:51Z</time></trkpt><trkpt lat="45.58103575378165" lon="10.83360573887364"><ele>102.5</ele><time>2026-04-26T09:47:52Z</time></trkpt><trkpt lat="45.58102655534443" lon="10.833444630072814"><ele>102.25</ele><time>2026-04-26T09:47:53Z</time></trkpt><trkpt lat="45.58102531868653" lon="10.833256025688575"><ele>102.0</ele><time>2026-04-26T09:47:54Z</time></trkpt><trkpt lat="45.58101127651312" lon="10.83305444614968"><ele>101.25</ele><time>2026-04-26T09:47:55Z</time></trkpt><trkpt lat="45.5810036692982" lon="10.832833644801417"><ele>100.5</ele><time>2026-04-26T09:47:56Z</time></trkpt><trkpt lat="45.580986765273494" lon="10.832612906346474"><ele>99.75</ele><time>2026-04-26T09:47:57.001Z</time></trkpt><trkpt lat="45.58099299321154" lon="10.832418777768616"><ele>99.0</ele><time>2026-04-26T09:47:58.001Z</time></trkpt><trkpt lat="45.58100214336367" lon="10.832229923339787"><ele>98.75</ele><time>2026-04-26T09:47:59.001Z</time></trkpt><trkpt lat="45.58100753523522" lon="10.832038547914463"><ele>98.5</ele><time>2026-04-26T09:48:00.001Z</time></trkpt><trkpt lat="45.58102448302565" lon="10.831849387175577"><ele>98.25</ele><time>2026-04-26T09:48:01.001Z</time></trkpt><trkpt lat="45.58104543328244" lon="10.831633868360868"><ele>98.0</ele><time>2026-04-26T09:48:02.001Z</time></trkpt><trkpt lat="45.58105330020846" lon="10.831427866704026"><ele>98.0</ele><time>2026-04-26T09:48:03.001Z</time></trkpt><trkpt lat="45.58106467484077" lon="10.831212580573329"><ele>98.0</ele><time>2026-04-26T09:48:04.001Z</time></trkpt><trkpt lat="45.58108003300723" lon="10.831014378842951"><ele>98.0</ele><time>2026-04-26T09:48:05.001Z</time></trkpt><trkpt lat="45.58108881087147" lon="10.830830707912575"><ele>98.0</ele><time>2026-04-26T09:48:06.001Z</time></trkpt><trkpt lat="45.58110842578029" lon="10.830655061315971"><ele>98.0</ele><time>2026-04-26T09:48:07.001Z</time></trkpt><trkpt lat="45.58112186663804" lon="10.830481272916234"><ele>98.0</ele><time>2026-04-26T09:48:08.001Z</time></trkpt><trkpt lat="45.58113482189894" lon="10.830322133304096"><ele>98.0</ele><time>2026-04-26T09:48:09.001Z</time></trkpt><trkpt lat="45.58114567708906" lon="10.830166079295717"><ele>98.0</ele><time>2026-04-26T09:48:10.001Z</time></trkpt><trkpt lat="45.58113835276448" lon="10.830035536095803"><ele>98.0</ele><time>2026-04-26T09:48:11.001Z</time></trkpt><trkpt lat="45.581115348095395" lon="10.829916828003713"><ele>98.25</ele><time>2026-04-26T09:48:12.001Z</time></trkpt><trkpt lat="45.58107549682666" lon="10.829798556543079"><ele>98.5</ele><time>2026-04-26T09:48:13.001Z</time></trkpt><trkpt lat="45.58100729822608" lon="10.829663248205096"><ele>98.75</ele><time>2026-04-26T09:48:14.001Z</time></trkpt><trkpt lat="45.58091718617768" lon="10.829488193336061"><ele>99.0</ele><time>2026-04-26T09:48:15.001Z</time></trkpt><trkpt lat="45.58082053935939" lon="10.82930048817097"><ele>99.4</ele><time>2026-04-26T09:48:16.001Z</time></trkpt><trkpt lat="45.58074764593042" lon="10.829144865367972"><ele>99.80000000000001</ele><time>2026-04-26T09:48:17.001Z</time></trkpt><trkpt lat="45.58068200231568" lon="10.829015220449831"><ele>100.19999999999999</ele><time>2026-04-26T09:48:18.001Z</time></trkpt><trkpt lat="45.58061899857781" lon="10.828887439965921"><ele>100.6</ele><time>2026-04-26T09:48:19.001Z</time></trkpt><trkpt lat="45.580564448825115" lon="10.828783305983325"><ele>101.0</ele><time>2026-04-26T09:48:20.001Z</time></trkpt><trkpt lat="45.58051060111425" lon="10.828683900086192"><ele>101.0</ele><time>2026-04-26T09:48:21.001Z</time></trkpt><trkpt lat="45.58041938490573" lon="10.828565105056116"><ele>101.0</ele><time>2026-04-26T09:48:23.001Z</time></trkpt><trkpt lat="45.58035613149307" lon="10.828526351950849"><ele>101.0</ele><time>2026-04-26T09:48:24.001Z</time></trkpt><trkpt lat="45.580274755464714" lon="10.828478162677303"><ele>101.0</ele><time>2026-04-26T09:48:25.001Z</time></trkpt><trkpt lat="45.58021207422087" lon="10.828366711063088"><ele>101.0</ele><time>2026-04-26T09:48:26.001Z</time></trkpt><trkpt lat="45.58010958795629" lon="10.828243113583815"><ele>100.75</ele><time>2026-04-26T09:48:27.001Z</time></trkpt><trkpt lat="45.58001632795586" lon="10.828093390162865"><ele>100.5</ele><time>2026-04-26T09:48:28.001Z</time></trkpt><trkpt lat="45.579924035400275" lon="10.827951243946863"><ele>100.25</ele><time>2026-04-26T09:48:29.001Z</time></trkpt><trkpt lat="45.57985431771169" lon="10.82782696234986"><ele>100.0</ele><time>2026-04-26T09:48:30.001Z</time></trkpt><trkpt lat="45.579789703404494" lon="10.82773365726333"><ele>100.0</ele><time>2026-04-26T09:48:31.001Z</time></trkpt><trkpt lat="45.57975600556395" lon="10.827630165156165"><ele>100.0</ele><time>2026-04-26T09:48:33.001Z</time></trkpt><trkpt lat="45.57982639580345" lon="10.827528875656874"><ele>100.0</ele><time>2026-04-26T09:48:35.001Z</time></trkpt><trkpt lat="45.57989651139437" lon="10.827433742785207"><ele>100.0</ele><time>2026-04-26T09:48:36.001Z</time></trkpt><trkpt lat="45.57998314349063" lon="10.827311733880743"><ele>100.0</ele><time>2026-04-26T09:48:37.001Z</time></trkpt><trkpt lat="45.58006859820877" lon="10.827170176224946"><ele>100.0</ele><time>2026-04-26T09:48:38.001Z</time></trkpt><trkpt lat="45.580149008225696" lon="10.827024960935642"><ele>100.0</ele><time>2026-04-26T09:48:39.001Z</time></trkpt><trkpt lat="45.580232458703826" lon="10.82688162445436"><ele>100.0</ele><time>2026-04-26T09:48:40.001Z</time></trkpt><trkpt lat="45.58032143505437" lon="10.826735951539796"><ele>100.0</ele><time>2026-04-26T09:48:41.001Z</time></trkpt><trkpt lat="45.58040619255687" lon="10.826602324518502"><ele>100.0</ele><time>2026-04-26T09:48:42.001Z</time></trkpt><trkpt lat="45.580484417806694" lon="10.826471972246889"><ele>100.0</ele><time>2026-04-26T09:48:43.001Z</time></trkpt><trkpt lat="45.58056130023508" lon="10.82632285787085"><ele>100.0</ele><time>2026-04-26T09:48:44.001Z</time></trkpt><trkpt lat="45.58064517866262" lon="10.826186555310116"><ele>100.0</ele><time>2026-04-26T09:48:45.001Z</time></trkpt><trkpt lat="45.580728022835764" lon="10.826064713420019"><ele>99.8</ele><time>2026-04-26T09:48:46.001Z</time></trkpt><trkpt lat="45.580786320191336" lon="10.825949149925625"><ele>99.6</ele><time>2026-04-26T09:48:47.001Z</time></trkpt><trkpt lat="45.5808423704795" lon="10.825835930097407"><ele>99.4</ele><time>2026-04-26T09:48:48.001Z</time></trkpt><trkpt lat="45.580904346213096" lon="10.82571370931846"><ele>99.2</ele><time>2026-04-26T09:48:49.001Z</time></trkpt><trkpt lat="45.580969459202855" lon="10.82560874580155"><ele>99.0</ele><time>2026-04-26T09:48:50.001Z</time></trkpt><trkpt lat="45.58104651611198" lon="10.825511872328477"><ele>99.0</ele><time>2026-04-26T09:48:51.001Z</time></trkpt><trkpt lat="45.58110198483879" lon="10.825426443356866"><ele>99.0</ele><time>2026-04-26T09:48:52Z</time></trkpt><trkpt lat="45.58117893838059" lon="10.825306398874467"><ele>99.0</ele><time>2026-04-26T09:48:53Z</time></trkpt><trkpt lat="45.58123616378257" lon="10.825193085930033"><ele>99.0</ele><time>2026-04-26T09:48:54Z</time></trkpt><trkpt lat="45.58127265221966" lon="10.825119227889175"><ele>99.0</ele><time>2026-04-26T09:48:55Z</time></trkpt><trkpt lat="45.58133979083346" lon="10.82502554678083"><ele>99.0</ele><time>2026-04-26T09:48:57Z</time></trkpt><trkpt lat="45.58133858492421" lon="10.824928237902936"><ele>99.0</ele><time>2026-04-26T09:48:59Z</time></trkpt><trkpt lat="45.58128449266772" lon="10.824779777229402"><ele>99.0</ele><time>2026-04-26T09:49:01Z</time></trkpt><trkpt lat="45.58123837358879" lon="10.824685778529089"><ele>99.0</ele><time>2026-04-26T09:49:02Z</time></trkpt><trkpt lat="45.581196641855236" lon="10.824588633915024"><ele>99.0</ele><time>2026-04-26T09:49:03Z</time></trkpt><trkpt lat="45.58115162552017" lon="10.824465611742035"><ele>99.0</ele><time>2026-04-26T09:49:04Z</time></trkpt><trkpt lat="45.5810986281399" lon="10.824332224847184"><ele>99.4</ele><time>2026-04-26T09:49:05Z</time></trkpt><trkpt lat="45.581036522958115" lon="10.824212968915612"><ele>99.80000000000001</ele><time>2026-04-26T09:49:06Z</time></trkpt><trkpt lat="45.580960759396135" lon="10.824107758740082"><ele>100.19999999999999</ele><time>2026-04-26T09:49:07Z</time></trkpt><trkpt lat="45.58088784000927" lon="10.824006197970164"><ele>100.6</ele><time>2026-04-26T09:49:08Z</time></trkpt><trkpt lat="45.580817597569904" lon="10.823913738267901"><ele>101.0</ele><time>2026-04-26T09:49:09Z</time></trkpt><trkpt lat="45.58075299535649" lon="10.823829858403181"><ele>101.0</ele><time>2026-04-26T09:49:10Z</time></trkpt><trkpt lat="45.5806867039302" lon="10.823759402250822"><ele>101.0</ele><time>2026-04-26T09:49:11Z</time></trkpt><trkpt lat="45.58059909251108" lon="10.823677873657882"><ele>101.0</ele><time>2026-04-26T09:49:12Z</time></trkpt><trkpt lat="45.58049429020574" lon="10.823622136443447"><ele>101.0</ele><time>2026-04-26T09:49:13Z</time></trkpt><trkpt lat="45.58038162837069" lon="10.823585396189822"><ele>101.0</ele><time>2026-04-26T09:49:14Z</time></trkpt><trkpt lat="45.58026701651641" lon="10.823547458244935"><ele>100.5</ele><time>2026-04-26T09:49:15Z</time></trkpt><trkpt lat="45.580149725761515" lon="10.823514514186046"><ele>100.0</ele><time>2026-04-26T09:49:16Z</time></trkpt><trkpt lat="45.580018972642804" lon="10.823452889816783"><ele>99.5</ele><time>2026-04-26T09:49:17Z</time></trkpt><trkpt lat="45.57986175098728" lon="10.82341596733266"><ele>99.0</ele><time>2026-04-26T09:49:18Z</time></trkpt><trkpt lat="45.579764354032804" lon="10.823388958565571"><ele>99.0</ele><time>2026-04-26T09:49:19Z</time></trkpt><trkpt lat="45.57959158668613" lon="10.823337828034822"><ele>99.0</ele><time>2026-04-26T09:49:20Z</time></trkpt><trkpt lat="45.579434357189626" lon="10.823316183691768"><ele>99.0</ele><time>2026-04-26T09:49:21Z</time></trkpt><trkpt lat="45.579280223146974" lon="10.82327914366147"><ele>98.25</ele><time>2026-04-26T09:49:22Z</time></trkpt><trkpt lat="45.57916030710005" lon="10.823252794426084"><ele>97.5</ele><time>2026-04-26T09:49:23Z</time></trkpt><trkpt lat="45.57904117178745" lon="10.823219249273615"><ele>96.75</ele><time>2026-04-26T09:49:24Z</time></trkpt><trkpt lat="45.57893309954493" lon="10.82318231146792"><ele>96.0</ele><time>2026-04-26T09:49:25Z</time></trkpt><trkpt lat="45.578823614173125" lon="10.823128489734945"><ele>96.0</ele><time>2026-04-26T09:49:26Z</time></trkpt><trkpt lat="45.57870309163974" lon="10.823065290752908"><ele>96.0</ele><time>2026-04-26T09:49:27Z</time></trkpt><trkpt lat="45.57856725774356" lon="10.822987983216878"><ele>96.0</ele><time>2026-04-26T09:49:28Z</time></trkpt><trkpt lat="45.57843719290874" lon="10.822907052852873"><ele>96.0</ele><time>2026-04-26T09:49:29.001Z</time></trkpt><trkpt lat="45.57832162869668" lon="10.822830548096281"><ele>96.0</ele><time>2026-04-26T09:49:30.001Z</time></trkpt><trkpt lat="45.578219408599885" lon="10.82277396636063"><ele>96.0</ele><time>2026-04-26T09:49:31.001Z</time></trkpt><trkpt lat="45.578123030339896" lon="10.822696472124647"><ele>96.0</ele><time>2026-04-26T09:49:32.001Z</time></trkpt><trkpt lat="45.57800205922786" lon="10.822602459164264"><ele>96.0</ele><time>2026-04-26T09:49:33.001Z</time></trkpt><trkpt lat="45.5778609806225" lon="10.822523451687877"><ele>96.0</ele><time>2026-04-26T09:49:34.001Z</time></trkpt><trkpt lat="45.57774380926804" lon="10.822421322591996"><ele>96.0</ele><time>2026-04-26T09:49:35.001Z</time></trkpt><trkpt lat="45.57763112047754" lon="10.82233852560517"><ele>96.0</ele><time>2026-04-26T09:49:36.001Z</time></trkpt><trkpt lat="45.57752440649651" lon="10.822252597338178"><ele>96.0</ele><time>2026-04-26T09:49:37.001Z</time></trkpt><trkpt lat="45.57743413727492" lon="10.822194568390609"><ele>96.0</ele><time>2026-04-26T09:49:38.001Z</time></trkpt><trkpt lat="45.57734539568509" lon="10.822157683248806"><ele>96.0</ele><time>2026-04-26T09:49:39.001Z</time></trkpt><trkpt lat="45.57725153103469" lon="10.82215584394569"><ele>96.0</ele><time>2026-04-26T09:49:40.001Z</time></trkpt><trkpt lat="45.5771297879881" lon="10.822149109914834"><ele>96.0</ele><time>2026-04-26T09:49:41.001Z</time></trkpt><trkpt lat="45.57699156450501" lon="10.822134700750839"><ele>96.0</ele><time>2026-04-26T09:49:42.001Z</time></trkpt><trkpt lat="45.57685485235852" lon="10.822087636315453"><ele>96.5</ele><time>2026-04-26T09:49:43.001Z</time></trkpt><trkpt lat="45.57673202818468" lon="10.822037062000517"><ele>97.0</ele><time>2026-04-26T09:49:44.001Z</time></trkpt><trkpt lat="45.57659167787234" lon="10.822005306380378"><ele>97.5</ele><time>2026-04-26T09:49:45.001Z</time></trkpt><trkpt lat="45.576450696816174" lon="10.821961675726586"><ele>98.0</ele><time>2026-04-26T09:49:46.001Z</time></trkpt><trkpt lat="45.57631351202001" lon="10.82192428818715"><ele>98.0</ele><time>2026-04-26T09:49:47.001Z</time></trkpt><trkpt lat="45.57619800655011" lon="10.82189479041752"><ele>98.0</ele><time>2026-04-26T09:49:48.001Z</time></trkpt><trkpt lat="45.57609457762224" lon="10.821878956517754"><ele>98.0</ele><time>2026-04-26T09:49:49.001Z</time></trkpt><trkpt lat="45.57597780768332" lon="10.821857101090572"><ele>98.0</ele><time>2026-04-26T09:49:50.001Z</time></trkpt><trkpt lat="45.57585948254831" lon="10.821829725037455"><ele>97.25</ele><time>2026-04-26T09:49:51.001Z</time></trkpt><trkpt lat="45.57574410614539" lon="10.821780804545881"><ele>96.5</ele><time>2026-04-26T09:49:52.001Z</time></trkpt><trkpt lat="45.57561669546394" lon="10.821723301013273"><ele>95.75</ele><time>2026-04-26T09:49:53.001Z</time></trkpt><trkpt lat="45.57548748575596" lon="10.82166976201858"><ele>95.0</ele><time>2026-04-26T09:49:54.001Z</time></trkpt><trkpt lat="45.57534761913173" lon="10.821605790123808"><ele>95.0</ele><time>2026-04-26T09:49:55.001Z</time></trkpt><trkpt lat="45.57521994186774" lon="10.821538440866746"><ele>95.0</ele><time>2026-04-26T09:49:56.001Z</time></trkpt><trkpt lat="45.575069058015885" lon="10.821466056876242"><ele>95.0</ele><time>2026-04-26T09:49:57.001Z</time></trkpt><trkpt lat="45.574942280678925" lon="10.82140987545498"><ele>95.0</ele><time>2026-04-26T09:49:58.001Z</time></trkpt><trkpt lat="45.57483731032947" lon="10.821334561808884"><ele>95.0</ele><time>2026-04-26T09:49:59.001Z</time></trkpt><trkpt lat="45.57473642394589" lon="10.821305431121718"><ele>95.0</ele><time>2026-04-26T09:50:00.001Z</time></trkpt><trkpt lat="45.574635818713425" lon="10.821279378407302"><ele>95.0</ele><time>2026-04-26T09:50:01.001Z</time></trkpt><trkpt lat="45.574527591883545" lon="10.821276526625637"><ele>95.0</ele><time>2026-04-26T09:50:02.001Z</time></trkpt><trkpt lat="45.57438829604923" lon="10.821240252385829"><ele>95.5</ele><time>2026-04-26T09:50:03.001Z</time></trkpt><trkpt lat="45.57425325588361" lon="10.821202951278787"><ele>96.0</ele><time>2026-04-26T09:50:04.001Z</time></trkpt><trkpt lat="45.574115376347784" lon="10.821122910404481"><ele>96.5</ele><time>2026-04-26T09:50:05.001Z</time></trkpt><trkpt lat="45.57397362347158" lon="10.82105404480552"><ele>97.0</ele><time>2026-04-26T09:50:06.001Z</time></trkpt><trkpt lat="45.573828830289244" lon="10.820984624242827"><ele>97.25</ele><time>2026-04-26T09:50:07.001Z</time></trkpt><trkpt lat="45.573681563832096" lon="10.820916637413244"><ele>97.5</ele><time>2026-04-26T09:50:08.001Z</time></trkpt><trkpt lat="45.57355189540112" lon="10.820833670259043"><ele>97.75</ele><time>2026-04-26T09:50:09.001Z</time></trkpt><trkpt lat="45.57341825613083" lon="10.820771420843306"><ele>98.0</ele><time>2026-04-26T09:50:10.001Z</time></trkpt><trkpt lat="45.57329754002447" lon="10.820716807934172"><ele>98.0</ele><time>2026-04-26T09:50:11.001Z</time></trkpt><trkpt lat="45.573157923582045" lon="10.82064155698865"><ele>98.0</ele><time>2026-04-26T09:50:12.001Z</time></trkpt><trkpt lat="45.573021648072356" lon="10.820557216582076"><ele>98.0</ele><time>2026-04-26T09:50:13.001Z</time></trkpt><trkpt lat="45.572885052782574" lon="10.820476150953013"><ele>98.0</ele><time>2026-04-26T09:50:14.001Z</time></trkpt><trkpt lat="45.57275811083703" lon="10.820400604786098"><ele>98.0</ele><time>2026-04-26T09:50:15.001Z</time></trkpt><trkpt lat="45.57260772395844" lon="10.82032045757713"><ele>98.0</ele><time>2026-04-26T09:50:16.001Z</time></trkpt><trkpt lat="45.572483524344" lon="10.82025017283155"><ele>98.0</ele><time>2026-04-26T09:50:17.001Z</time></trkpt><trkpt lat="45.57236894356228" lon="10.820184204553009"><ele>98.0</ele><time>2026-04-26T09:50:18.001Z</time></trkpt><trkpt lat="45.57228475719608" lon="10.820124781284555"><ele>98.0</ele><time>2026-04-26T09:50:19.001Z</time></trkpt><trkpt lat="45.57221531887269" lon="10.820099073199968"><ele>98.0</ele><time>2026-04-26T09:50:20.001Z</time></trkpt><trkpt lat="45.57214503609908" lon="10.820115794644932"><ele>98.0</ele><time>2026-04-26T09:50:22.001Z</time></trkpt><trkpt lat="45.57210096199264" lon="10.820316172784466"><ele>98.0</ele><time>2026-04-26T09:50:24.001Z</time></trkpt><trkpt lat="45.57207226463216" lon="10.820484341399707"><ele>98.0</ele><time>2026-04-26T09:50:25.001Z</time></trkpt><trkpt lat="45.57204842390973" lon="10.820672680251414"><ele>98.2</ele><time>2026-04-26T09:50:26.001Z</time></trkpt><trkpt lat="45.57202383458137" lon="10.820836039692246"><ele>98.4</ele><time>2026-04-26T09:50:27.001Z</time></trkpt><trkpt lat="45.57200358521182" lon="10.820946494591189"><ele>98.60000000000001</ele><time>2026-04-26T09:50:28.001Z</time></trkpt><trkpt lat="45.57196934024389" lon="10.821024023369425"><ele>98.80000000000001</ele><time>2026-04-26T09:50:30.001Z</time></trkpt><trkpt lat="45.571876921518324" lon="10.821011399667968"><ele>99.0</ele><time>2026-04-26T09:50:32.001Z</time></trkpt><trkpt lat="45.57178399302589" lon="10.820961324348977"><ele>98.25</ele><time>2026-04-26T09:50:33.001Z</time></trkpt><trkpt lat="45.57166747389782" lon="10.82088752598876"><ele>97.5</ele><time>2026-04-26T09:50:34.001Z</time></trkpt><trkpt lat="45.57155271129737" lon="10.820816427741974"><ele>96.75</ele><time>2026-04-26T09:50:35.001Z</time></trkpt><trkpt lat="45.5714303827202" lon="10.820765446028512"><ele>96.0</ele><time>2026-04-26T09:50:36.001Z</time></trkpt><trkpt lat="45.57130402326114" lon="10.820708645894896"><ele>95.5</ele><time>2026-04-26T09:50:37.001Z</time></trkpt><trkpt lat="45.571151772840025" lon="10.820652391598934"><ele>95.0</ele><time>2026-04-26T09:50:38.001Z</time></trkpt><trkpt lat="45.571004555247185" lon="10.820589476061862"><ele>94.5</ele><time>2026-04-26T09:50:39.001Z</time></trkpt><trkpt lat="45.57088332401955" lon="10.82054019048409"><ele>94.0</ele><time>2026-04-26T09:50:40.001Z</time></trkpt><trkpt lat="45.57077695652969" lon="10.820500891333161"><ele>94.0</ele><time>2026-04-26T09:50:41.001Z</time></trkpt><trkpt lat="45.57067018875222" lon="10.820451423717696"><ele>94.0</ele><time>2026-04-26T09:50:42.001Z</time></trkpt><trkpt lat="45.57054950914038" lon="10.820390249060491"><ele>94.0</ele><time>2026-04-26T09:50:43.001Z</time></trkpt><trkpt lat="45.57041288072413" lon="10.82032841393278"><ele>94.0</ele><time>2026-04-26T09:50:44.001Z</time></trkpt><trkpt lat="45.570257817134724" lon="10.820275021178562"><ele>94.25</ele><time>2026-04-26T09:50:45.001Z</time></trkpt><trkpt lat="45.570105010671085" lon="10.820216106766285"><ele>94.5</ele><time>2026-04-26T09:50:46.001Z</time></trkpt><trkpt lat="45.56996034246465" lon="10.82015303214006"><ele>94.75</ele><time>2026-04-26T09:50:47.001Z</time></trkpt><trkpt lat="45.56984038054284" lon="10.820105869056732"><ele>95.0</ele><time>2026-04-26T09:50:48.001Z</time></trkpt><trkpt lat="45.56972642394089" lon="10.820059467440787"><ele>95.0</ele><time>2026-04-26T09:50:49.001Z</time></trkpt><trkpt lat="45.56962754096766" lon="10.82002107358315"><ele>95.0</ele><time>2026-04-26T09:50:50.001Z</time></trkpt><trkpt lat="45.56953935124114" lon="10.819989228663339"><ele>95.0</ele><time>2026-04-26T09:50:51.001Z</time></trkpt><trkpt lat="45.569452683195316" lon="10.819950881103852"><ele>95.0</ele><time>2026-04-26T09:50:52.001Z</time></trkpt><trkpt lat="45.56938448321518" lon="10.819924273634768"><ele>95.0</ele><time>2026-04-26T09:50:53.001Z</time></trkpt><trkpt lat="45.569297835395716" lon="10.81993851198981"><ele>95.0</ele><time>2026-04-26T09:50:55.001Z</time></trkpt><trkpt lat="45.56926239661067" lon="10.82008457285514"><ele>95.0</ele><time>2026-04-26T09:50:57.001Z</time></trkpt><trkpt lat="45.56925145172338" lon="10.820196937561306"><ele>95.0</ele><time>2026-04-26T09:50:58.001Z</time></trkpt><trkpt lat="45.569272553590444" lon="10.820288878481056"><ele>95.0</ele><time>2026-04-26T09:50:59.001Z</time></trkpt><trkpt lat="45.56936805855466" lon="10.820457940473094"><ele>95.0</ele><time>2026-04-26T09:51:01.001Z</time></trkpt><trkpt lat="45.56944892969207" lon="10.820573053479304"><ele>95.0</ele><time>2026-04-26T09:51:02.001Z</time></trkpt><trkpt lat="45.569544361434495" lon="10.820714605065785"><ele>95.0</ele><time>2026-04-26T09:51:03.001Z</time></trkpt><trkpt lat="45.569630812683165" lon="10.820880101189482"><ele>95.0</ele><time>2026-04-26T09:51:04.001Z</time></trkpt><trkpt lat="45.569702874611984" lon="10.821006340943695"><ele>95.0</ele><time>2026-04-26T09:51:05.001Z</time></trkpt><trkpt lat="45.569755298052556" lon="10.82112468181203"><ele>95.0</ele><time>2026-04-26T09:51:06.001Z</time></trkpt><trkpt lat="45.56979994943635" lon="10.82123388542949"><ele>95.0</ele><time>2026-04-26T09:51:07.001Z</time></trkpt><trkpt lat="45.56983402893464" lon="10.821371286629264"><ele>95.4</ele><time>2026-04-26T09:51:08.001Z</time></trkpt><trkpt lat="45.56987615527443" lon="10.82152075096355"><ele>95.8</ele><time>2026-04-26T09:51:09.001Z</time></trkpt><trkpt lat="45.56991550707818" lon="10.821663145296691"><ele>96.19999999999999</ele><time>2026-04-26T09:51:10.001Z</time></trkpt><trkpt lat="45.569941783968346" lon="10.821812892950257"><ele>96.6</ele><time>2026-04-26T09:51:11.001Z</time></trkpt><trkpt lat="45.56996435564092" lon="10.821950338374462"><ele>97.0</ele><time>2026-04-26T09:51:12.001Z</time></trkpt><trkpt lat="45.569985860527545" lon="10.822077347402328"><ele>97.19999999999999</ele><time>2026-04-26T09:51:13.001Z</time></trkpt><trkpt lat="45.57000687841779" lon="10.822163018997536"><ele>97.4</ele><time>2026-04-26T09:51:14.001Z</time></trkpt><trkpt lat="45.57007012750626" lon="10.822262082629686"><ele>97.6</ele><time>2026-04-26T09:51:16.001Z</time></trkpt><trkpt lat="45.57019307901438" lon="10.822307821252657"><ele>97.80000000000001</ele><time>2026-04-26T09:51:18.001Z</time></trkpt><trkpt lat="45.570303040843406" lon="10.822367774396792"><ele>98.0</ele><time>2026-04-26T09:51:19.001Z</time></trkpt><trkpt lat="45.570381382497814" lon="10.822600934275812"><ele>101.0</ele><time>2026-04-26T09:51:20.001Z</time></trkpt><trkpt lat="45.570522030954194" lon="10.822697046835296"><ele>104.0</ele><time>2026-04-26T09:51:21.001Z</time></trkpt><trkpt lat="45.570672416364374" lon="10.822785755539826"><ele>107.0</ele><time>2026-04-26T09:51:22.001Z</time></trkpt><trkpt lat="45.570787215650924" lon="10.822844625811328"><ele>110.0</ele><time>2026-04-26T09:51:23.001Z</time></trkpt><trkpt lat="45.57088778754805" lon="10.822904666173619"><ele>110.0</ele><time>2026-04-26T09:51:24.001Z</time></trkpt><trkpt lat="45.57098734356158" lon="10.822964852890165"><ele>110.0</ele><time>2026-04-26T09:51:25.001Z</time></trkpt><trkpt lat="45.5710860796355" lon="10.823024255853928"><ele>110.0</ele><time>2026-04-26T09:51:26.001Z</time></trkpt><trkpt lat="45.571204390567175" lon="10.823091730565388"><ele>110.0</ele><time>2026-04-26T09:51:27.001Z</time></trkpt><trkpt lat="45.571317386311286" lon="10.823146313538423"><ele>108.5</ele><time>2026-04-26T09:51:28.001Z</time></trkpt><trkpt lat="45.57143800227533" lon="10.823202122478815"><ele>107.0</ele><time>2026-04-26T09:51:29.001Z</time></trkpt><trkpt lat="45.57155586439758" lon="10.823261865695995"><ele>105.5</ele><time>2026-04-26T09:51:30.001Z</time></trkpt><trkpt lat="45.57162643597254" lon="10.823312066041277"><ele>104.0</ele><time>2026-04-26T09:51:31.001Z</time></trkpt><trkpt lat="45.571726735526546" lon="10.823416214997216"><ele>104.0</ele><time>2026-04-26T09:51:32.001Z</time></trkpt><trkpt lat="45.57180445688131" lon="10.823457862833251"><ele>104.0</ele><time>2026-04-26T09:51:33.001Z</time></trkpt><trkpt lat="45.571880517095" lon="10.823498620562978"><ele>104.0</ele><time>2026-04-26T09:51:34.001Z</time></trkpt><trkpt lat="45.571941644046014" lon="10.82353137613439"><ele>104.0</ele><time>2026-04-26T09:51:35.001Z</time></trkpt><trkpt lat="45.57201302143852" lon="10.823569624520639"><ele>104.0</ele><time>2026-04-26T09:51:37.001Z</time></trkpt><trkpt lat="45.57217116020555" lon="10.823329638824937"><ele>103.33333333333333</ele><time>2026-04-26T09:51:41.001Z</time></trkpt><trkpt lat="45.57221098602674" lon="10.823413524006666"><ele>102.66666666666666</ele><time>2026-04-26T09:51:42.001Z</time></trkpt><trkpt lat="45.57224327180174" lon="10.8234993420725"><ele>102.0</ele><time>2026-04-26T09:51:43.001Z</time></trkpt><trkpt lat="45.57223245647949" lon="10.823630981043573"><ele>101.33333333333334</ele><time>2026-04-26T09:51:45.001Z</time></trkpt><trkpt lat="45.57217018167888" lon="10.82374023447254"><ele>100.66666666666667</ele><time>2026-04-26T09:51:47.001Z</time></trkpt><trkpt lat="45.57210487002143" lon="10.82387349096648"><ele>100.0</ele><time>2026-04-26T09:51:49.001Z</time></trkpt><trkpt lat="45.5719275034275" lon="10.823983900021013"><ele>102.2</ele><time>2026-04-26T09:51:51.001Z</time></trkpt><trkpt lat="45.57190909195758" lon="10.82407342592838"><ele>104.4</ele><time>2026-04-26T09:51:52.001Z</time></trkpt><trkpt lat="45.57185660680928" lon="10.824257282059632"><ele>106.6</ele><time>2026-04-26T09:51:55.001Z</time></trkpt><trkpt lat="45.57185318813926" lon="10.824384912622278"><ele>108.8</ele><time>2026-04-26T09:51:57.001Z</time></trkpt><trkpt lat="45.571878068226695" lon="10.824169245574158"><ele>111.0</ele><time>2026-04-26T09:52:03.001Z</time></trkpt><trkpt lat="45.57191996678004" lon="10.82403520352803"><ele>111.0</ele><time>2026-04-26T09:52:04.001Z</time></trkpt><trkpt lat="45.571937188240206" lon="10.823936807499097"><ele>111.0</ele><time>2026-04-26T09:52:05.001Z</time></trkpt><trkpt lat="45.571883623504064" lon="10.82383433589614"><ele>111.0</ele><time>2026-04-26T09:52:07.001Z</time></trkpt><trkpt lat="45.57171435634427" lon="10.823905124990391"><ele>111.0</ele><time>2026-04-26T09:52:13.001Z</time></trkpt><trkpt lat="45.571720312923794" lon="10.824000784906469"><ele>111.0</ele><time>2026-04-26T09:52:15.001Z</time></trkpt><trkpt lat="45.57185228774569" lon="10.824232498372588"><ele>111.8</ele><time>2026-04-26T09:52:17.001Z</time></trkpt><trkpt lat="45.571838149692105" lon="10.824324486203025"><ele>112.6</ele><time>2026-04-26T09:52:18.001Z</time></trkpt><trkpt lat="45.571860889504066" lon="10.82449510501437"><ele>113.4</ele><time>2026-04-26T09:52:20.001Z</time></trkpt><trkpt lat="45.57188685373575" lon="10.824588298188871"><ele>114.2</ele><time>2026-04-26T09:52:21.001Z</time></trkpt><trkpt lat="45.571964510262305" lon="10.824719102476326"><ele>115.0</ele><time>2026-04-26T09:52:23.001Z</time></trkpt><trkpt lat="45.5718304968211" lon="10.824944377580037"><ele>115.0</ele><time>2026-04-26T09:52:24.001Z</time></trkpt><trkpt lat="45.57184790122874" lon="10.825066276654953"><ele>115.0</ele><time>2026-04-26T09:52:26.001Z</time></trkpt><trkpt lat="45.5718506077548" lon="10.825198054425357"><ele>115.0</ele><time>2026-04-26T09:52:29.001Z</time></trkpt><trkpt lat="45.5718667394719" lon="10.825312477939795"><ele>115.0</ele><time>2026-04-26T09:52:32.001Z</time></trkpt><trkpt lat="45.57176251854314" lon="10.825359588386203"><ele>115.0</ele><time>2026-04-26T09:52:35.001Z</time></trkpt><trkpt lat="45.57168070033999" lon="10.825358044588821"><ele>115.6</ele><time>2026-04-26T09:52:36.001Z</time></trkpt><trkpt lat="45.571593687899394" lon="10.82537760285556"><ele>116.2</ele><time>2026-04-26T09:52:37.001Z</time></trkpt><trkpt lat="45.57149223627258" lon="10.82541223949537"><ele>116.80000000000001</ele><time>2026-04-26T09:52:38.001Z</time></trkpt><trkpt lat="45.57138428297527" lon="10.82546778044051"><ele>117.4</ele><time>2026-04-26T09:52:39.001Z</time></trkpt><trkpt lat="45.571279681674405" lon="10.825491117298334"><ele>118.0</ele><time>2026-04-26T09:52:40.001Z</time></trkpt><trkpt lat="45.571181116117884" lon="10.825528023384567"><ele>118.0</ele><time>2026-04-26T09:52:41.001Z</time></trkpt><trkpt lat="45.571083362632564" lon="10.825551389047577"><ele>118.00000000000001</ele><time>2026-04-26T09:52:42.001Z</time></trkpt><trkpt lat="45.57098236566508" lon="10.825583815285158"><ele>118.00000000000001</ele><time>2026-04-26T09:52:43.001Z</time></trkpt><trkpt lat="45.57086850351858" lon="10.825616609119514"><ele>118.0</ele><time>2026-04-26T09:52:44.001Z</time></trkpt><trkpt lat="45.57075284109715" lon="10.825647272544854"><ele>118.0</ele><time>2026-04-26T09:52:45.001Z</time></trkpt><trkpt lat="45.570654388500145" lon="10.825680331929268"><ele>118.00000000000001</ele><time>2026-04-26T09:52:46.001Z</time></trkpt><trkpt lat="45.57055941372049" lon="10.825727188644882"><ele>118.0</ele><time>2026-04-26T09:52:47.001Z</time></trkpt><trkpt lat="45.57046295227876" lon="10.825777730784354"><ele>118.0</ele><time>2026-04-26T09:52:48.001Z</time></trkpt><trkpt lat="45.5703793307538" lon="10.825826161906615"><ele>118.0</ele><time>2026-04-26T09:52:49.001Z</time></trkpt><trkpt lat="45.57030306492487" lon="10.825862912132909"><ele>118.00000000000001</ele><time>2026-04-26T09:52:50.001Z</time></trkpt><trkpt lat="45.57023234122799" lon="10.825889947102116"><ele>118.0</ele><time>2026-04-26T09:52:51.001Z</time></trkpt><trkpt lat="45.570126883249905" lon="10.825960779260525"><ele>119.75</ele><time>2026-04-26T09:52:53.001Z</time></trkpt><trkpt lat="45.57003437243124" lon="10.82599945959771"><ele>121.5</ele><time>2026-04-26T09:52:55.001Z</time></trkpt><trkpt lat="45.56995774097698" lon="10.826054839829501"><ele>123.25</ele><time>2026-04-26T09:52:57.001Z</time></trkpt><trkpt lat="45.56989964393257" lon="10.826101521839957"><ele>125.0</ele><time>2026-04-26T09:52:59.001Z</time></trkpt><trkpt lat="45.57007103764391" lon="10.826549597707327"><ele>125.0</ele><time>2026-04-26T09:53:04.001Z</time></trkpt><trkpt lat="45.570190589236255" lon="10.826596491569536"><ele>125.0</ele><time>2026-04-26T09:53:06.001Z</time></trkpt><trkpt lat="45.570289597778014" lon="10.826602471236038"><ele>125.0</ele><time>2026-04-26T09:53:07.001Z</time></trkpt><trkpt lat="45.57038796442949" lon="10.826608412136995"><ele>125.0</ele><time>2026-04-26T09:53:08.001Z</time></trkpt><trkpt lat="45.570477651551506" lon="10.826613828832532"><ele>125.0</ele><time>2026-04-26T09:53:09.001Z</time></trkpt><trkpt lat="45.57057008799236" lon="10.826619411573756"><ele>125.8</ele><time>2026-04-26T09:53:10.001Z</time></trkpt><trkpt lat="45.57067396912011" lon="10.826625685521078"><ele>126.6</ele><time>2026-04-26T09:53:11.001Z</time></trkpt><trkpt lat="45.57078541209874" lon="10.826632416167676"><ele>127.4</ele><time>2026-04-26T09:53:12.001Z</time></trkpt><trkpt lat="45.57089282316468" lon="10.826638903308163"><ele>128.2</ele><time>2026-04-26T09:53:13.001Z</time></trkpt><trkpt lat="45.570995996204" lon="10.826591771737244"><ele>129.0</ele><time>2026-04-26T09:53:14.001Z</time></trkpt><trkpt lat="45.5711391175962" lon="10.826539380595236"><ele>129.75</ele><time>2026-04-26T09:53:15.001Z</time></trkpt><trkpt lat="45.57128345618688" lon="10.826470331764314"><ele>130.5</ele><time>2026-04-26T09:53:16.001Z</time></trkpt><trkpt lat="45.571374055468254" lon="10.8263983578906"><ele>131.25</ele><time>2026-04-26T09:53:17.001Z</time></trkpt><trkpt lat="45.571500209851756" lon="10.826313625331043"><ele>132.0</ele><time>2026-04-26T09:53:18.001Z</time></trkpt><trkpt lat="45.57159746513621" lon="10.826233788643638"><ele>132.0</ele><time>2026-04-26T09:53:19.001Z</time></trkpt><trkpt lat="45.571693597297475" lon="10.826156819309713"><ele>132.0</ele><time>2026-04-26T09:53:20.001Z</time></trkpt><trkpt lat="45.571952339675846" lon="10.82569001162066"><ele>128.66666666666666</ele><time>2026-04-26T09:53:21.001Z</time></trkpt><trkpt lat="45.57201862615645" lon="10.825590500457245"><ele>125.33333333333333</ele><time>2026-04-26T09:53:23.001Z</time></trkpt><trkpt lat="45.5721292853663" lon="10.82566497776462"><ele>122.0</ele><time>2026-04-26T09:53:24.001Z</time></trkpt><trkpt lat="45.571912252030664" lon="10.82533537425384"><ele>122.0</ele><time>2026-04-26T09:53:27.001Z</time></trkpt><trkpt lat="45.57184419925064" lon="10.82531726161124"><ele>121.99999999999999</ele><time>2026-04-26T09:53:53Z</time></trkpt><trkpt lat="45.57172050030943" lon="10.825360708112209"><ele>121.99999999999999</ele><time>2026-04-26T09:53:55Z</time></trkpt><trkpt lat="45.57158192500732" lon="10.825396071876929"><ele>122.0</ele><time>2026-04-26T09:53:56Z</time></trkpt><trkpt lat="45.571498055805215" lon="10.825444581443247"><ele>122.0</ele><time>2026-04-26T09:53:57Z</time></trkpt><trkpt lat="45.57141174254147" lon="10.825474202409843"><ele>122.0</ele><time>2026-04-26T09:53:58Z</time></trkpt><trkpt lat="45.57129771933783" lon="10.8254889086779"><ele>122.0</ele><time>2026-04-26T09:53:59Z</time></trkpt><trkpt lat="45.571171600640376" lon="10.825526869646035"><ele>122.0</ele><time>2026-04-26T09:54:00Z</time></trkpt><trkpt lat="45.571046250879945" lon="10.825564121550343"><ele>122.0</ele><time>2026-04-26T09:54:01Z</time></trkpt><trkpt lat="45.570920675819146" lon="10.825605700237903"><ele>122.75</ele><time>2026-04-26T09:54:02Z</time></trkpt><trkpt lat="45.5708210734427" lon="10.825640292592913"><ele>123.5</ele><time>2026-04-26T09:54:03Z</time></trkpt><trkpt lat="45.57072839989106" lon="10.825674587118117"><ele>124.25</ele><time>2026-04-26T09:54:04Z</time></trkpt><trkpt lat="45.570646157576604" lon="10.825734878690074"><ele>125.0</ele><time>2026-04-26T09:54:06Z</time></trkpt><trkpt lat="45.57009094838667" lon="10.825983849046079"><ele>125.0</ele><time>2026-04-26T09:54:09Z</time></trkpt><trkpt lat="45.569967955732345" lon="10.826054920251487"><ele>125.0</ele><time>2026-04-26T09:54:10Z</time></trkpt><trkpt lat="45.569858338337355" lon="10.82614814646143"><ele>125.0</ele><time>2026-04-26T09:54:11Z</time></trkpt><trkpt lat="45.56976606360191" lon="10.826257984969457"><ele>125.0</ele><time>2026-04-26T09:54:12Z</time></trkpt><trkpt lat="45.56967892513784" lon="10.826355961105461"><ele>124.99999999999999</ele><time>2026-04-26T09:54:13Z</time></trkpt><trkpt lat="45.5696039710872" lon="10.826442493655229"><ele>125.0</ele><time>2026-04-26T09:54:14Z</time></trkpt><trkpt lat="45.569554704481334" lon="10.826502090958623"><ele>125.0</ele><time>2026-04-26T09:54:15Z</time></trkpt><trkpt lat="45.569500917513466" lon="10.826558754183583"><ele>125.0</ele><time>2026-04-26T09:54:17Z</time></trkpt><trkpt lat="45.569459597724865" lon="10.826629954785524"><ele>124.99999999999999</ele><time>2026-04-26T09:54:18Z</time></trkpt><trkpt lat="45.56932657425341" lon="10.826660579547829"><ele>125.0</ele><time>2026-04-26T09:54:19Z</time></trkpt><trkpt lat="45.569165183329616" lon="10.826692212923861"><ele>124.33333333333333</ele><time>2026-04-26T09:54:20Z</time></trkpt><trkpt lat="45.56899826736161" lon="10.826753031310945"><ele>123.66666666666666</ele><time>2026-04-26T09:54:21Z</time></trkpt><trkpt lat="45.568809670373895" lon="10.826811738819744"><ele>123.0</ele><time>2026-04-26T09:54:22Z</time></trkpt><trkpt lat="45.56862971410824" lon="10.82686859289535"><ele>137.33333333333334</ele><time>2026-04-26T09:54:23Z</time></trkpt><trkpt lat="45.56845155319214" lon="10.826892107458262"><ele>151.66666666666669</ele><time>2026-04-26T09:54:24Z</time></trkpt><trkpt lat="45.56829921312876" lon="10.826895242852025"><ele>166.0</ele><time>2026-04-26T09:54:25Z</time></trkpt><trkpt lat="45.56813367493281" lon="10.826852813945662"><ele>166.0</ele><time>2026-04-26T09:54:26Z</time></trkpt><trkpt lat="45.5679864933769" lon="10.826814416412136"><ele>166.0</ele><time>2026-04-26T09:54:27Z</time></trkpt><trkpt lat="45.56786164187566" lon="10.82669429315892"><ele>166.0</ele><time>2026-04-26T09:54:28Z</time></trkpt><trkpt lat="45.567725980552964" lon="10.826582691152685"><ele>166.0</ele><time>2026-04-26T09:54:29Z</time></trkpt><trkpt lat="45.56756748101965" lon="10.826490654702493"><ele>166.0</ele><time>2026-04-26T09:54:30Z</time></trkpt><trkpt lat="45.56740314539069" lon="10.826433051075426"><ele>166.0</ele><time>2026-04-26T09:54:31Z</time></trkpt><trkpt lat="45.567243571039505" lon="10.826395895596189"><ele>166.0</ele><time>2026-04-26T09:54:32Z</time></trkpt><trkpt lat="45.56708477604634" lon="10.82636969035886"><ele>166.0</ele><time>2026-04-26T09:54:33Z</time></trkpt><trkpt lat="45.56691711912726" lon="10.826316665677867"><ele>166.0</ele><time>2026-04-26T09:54:34Z</time></trkpt><trkpt lat="45.56673258510408" lon="10.826268957160009"><ele>184.0</ele><time>2026-04-26T09:54:35Z</time></trkpt><trkpt lat="45.566524205554664" lon="10.826234369959572"><ele>202.0</ele><time>2026-04-26T09:54:36Z</time></trkpt><trkpt lat="45.566298487266785" lon="10.826191059197855"><ele>220.0</ele><time>2026-04-26T09:54:37Z</time></trkpt><trkpt lat="45.56605681502281" lon="10.826153417269605"><ele>220.0</ele><time>2026-04-26T09:54:38Z</time></trkpt><trkpt lat="45.56578919159738" lon="10.826104530568019"><ele>220.0</ele><time>2026-04-26T09:54:39Z</time></trkpt><trkpt lat="45.56551671520294" lon="10.826056365644511"><ele>214.5</ele><time>2026-04-26T09:54:40Z</time></trkpt><trkpt lat="45.565246878164764" lon="10.826002124797789"><ele>209.0</ele><time>2026-04-26T09:54:41Z</time></trkpt><trkpt lat="45.564946772354915" lon="10.82595636588911"><ele>185.0</ele><time>2026-04-26T09:54:42Z</time></trkpt><trkpt lat="45.564751813613285" lon="10.82589483229421"><ele>161.0</ele><time>2026-04-26T09:54:43Z</time></trkpt><trkpt lat="45.564524163917746" lon="10.82586173348839"><ele>137.0</ele><time>2026-04-26T09:54:44Z</time></trkpt><trkpt lat="45.564297410996694" lon="10.82584327493627"><ele>128.66666666666666</ele><time>2026-04-26T09:54:45Z</time></trkpt><trkpt lat="45.564084191906716" lon="10.825848765439485"><ele>120.33333333333334</ele><time>2026-04-26T09:54:46Z</time></trkpt><trkpt lat="45.563864075164766" lon="10.825885765817716"><ele>112.0</ele><time>2026-04-26T09:54:47Z</time></trkpt><trkpt lat="45.56363988306396" lon="10.825951020230018"><ele>117.0</ele><time>2026-04-26T09:54:48Z</time></trkpt><trkpt lat="45.56341145237683" lon="10.826047069936376"><ele>122.0</ele><time>2026-04-26T09:54:49Z</time></trkpt><trkpt lat="45.56319669830194" lon="10.826163783621768"><ele>122.0</ele><time>2026-04-26T09:54:50Z</time></trkpt><trkpt lat="45.56298808783949" lon="10.826318837557878"><ele>122.0</ele><time>2026-04-26T09:54:51Z</time></trkpt><trkpt lat="45.562800536597116" lon="10.826511976127078"><ele>110.5</ele><time>2026-04-26T09:54:52Z</time></trkpt><trkpt lat="45.562628559939384" lon="10.826742424434276"><ele>99.0</ele><time>2026-04-26T09:54:53Z</time></trkpt><trkpt lat="45.562466196934245" lon="10.827012930086271"><ele>98.0</ele><time>2026-04-26T09:54:54.001Z</time></trkpt><trkpt lat="45.562295660096304" lon="10.827285022163217"><ele>97.0</ele><time>2026-04-26T09:54:55.001Z</time></trkpt><trkpt lat="45.562122740837374" lon="10.82755643231639"><ele>107.5</ele><time>2026-04-26T09:54:56.001Z</time></trkpt><trkpt lat="45.56193748997146" lon="10.827779550570005"><ele>118.0</ele><time>2026-04-26T09:54:57.001Z</time></trkpt><trkpt lat="45.56174997679318" lon="10.82793776706646"><ele>118.0</ele><time>2026-04-26T09:54:58.001Z</time></trkpt><trkpt lat="45.561586261258135" lon="10.82814288689546"><ele>118.0</ele><time>2026-04-26T09:54:59.001Z</time></trkpt><trkpt lat="45.56140532793245" lon="10.828336106509246"><ele>118.0</ele><time>2026-04-26T09:55:00.001Z</time></trkpt><trkpt lat="45.56123274089969" lon="10.828555444122095"><ele>118.0</ele><time>2026-04-26T09:55:01.001Z</time></trkpt><trkpt lat="45.56106003145193" lon="10.828783854665728"><ele>118.0</ele><time>2026-04-26T09:55:02.001Z</time></trkpt><trkpt lat="45.56089656897218" lon="10.829054386649453"><ele>118.0</ele><time>2026-04-26T09:55:03.001Z</time></trkpt><trkpt lat="45.56074652384921" lon="10.82928527282283"><ele>118.0</ele><time>2026-04-26T09:55:04.001Z</time></trkpt><trkpt lat="45.56062922392697" lon="10.829566105889015"><ele>118.0</ele><time>2026-04-26T09:55:05.001Z</time></trkpt><trkpt lat="45.56049577327248" lon="10.829849178394968"><ele>118.0</ele><time>2026-04-26T09:55:06.001Z</time></trkpt><trkpt lat="45.560357611500585" lon="10.830109467050537"><ele>118.0</ele><time>2026-04-26T09:55:07.001Z</time></trkpt><trkpt lat="45.56020270406343" lon="10.830298932548136"><ele>118.0</ele><time>2026-04-26T09:55:08.001Z</time></trkpt><trkpt lat="45.56003879139518" lon="10.83044635238886"><ele>118.0</ele><time>2026-04-26T09:55:09.001Z</time></trkpt><trkpt lat="45.559846386684455" lon="10.83059727259508"><ele>118.0</ele><time>2026-04-26T09:55:10Z</time></trkpt><trkpt lat="45.559634625401436" lon="10.830762461830176"><ele>158.5</ele><time>2026-04-26T09:55:11Z</time></trkpt><trkpt lat="45.55941441477827" lon="10.83095446567072"><ele>199.0</ele><time>2026-04-26T09:55:12Z</time></trkpt><trkpt lat="45.559186190161725" lon="10.831107602489352"><ele>199.0</ele><time>2026-04-26T09:55:13Z</time></trkpt><trkpt lat="45.558963290351905" lon="10.831236194426818"><ele>199.0</ele><time>2026-04-26T09:55:14Z</time></trkpt><trkpt lat="45.55874836894526" lon="10.83134916047376"><ele>205.66666666666666</ele><time>2026-04-26T09:55:15Z</time></trkpt><trkpt lat="45.5585547393761" lon="10.831443778710128"><ele>212.33333333333331</ele><time>2026-04-26T09:55:16Z</time></trkpt><trkpt lat="45.55838433879537" lon="10.831541981236855"><ele>219.0</ele><time>2026-04-26T09:55:17Z</time></trkpt><trkpt lat="45.55815606578921" lon="10.831614329482795"><ele>219.0</ele><time>2026-04-26T09:55:18Z</time></trkpt><trkpt lat="45.55793660991914" lon="10.831672012125706"><ele>219.0</ele><time>2026-04-26T09:55:19Z</time></trkpt><trkpt lat="45.557733375260774" lon="10.83171584218379"><ele>219.0</ele><time>2026-04-26T09:55:20Z</time></trkpt><trkpt lat="45.55754061597736" lon="10.831725742164807"><ele>207.33333333333334</ele><time>2026-04-26T09:55:21Z</time></trkpt><trkpt lat="45.557343583800744" lon="10.8317236955458"><ele>195.66666666666669</ele><time>2026-04-26T09:55:22Z</time></trkpt><trkpt lat="45.55715521360412" lon="10.831665849835838"><ele>184.0</ele><time>2026-04-26T09:55:23Z</time></trkpt><trkpt lat="45.55696173945909" lon="10.83159924531613"><ele>184.0</ele><time>2026-04-26T09:55:24Z</time></trkpt><trkpt lat="45.556750534387646" lon="10.831529743928488"><ele>184.0</ele><time>2026-04-26T09:55:25Z</time></trkpt><trkpt lat="45.55653264859317" lon="10.831503381292622"><ele>184.0</ele><time>2026-04-26T09:55:26Z</time></trkpt><trkpt lat="45.55633365822976" lon="10.831485381087322"><ele>201.33333333333334</ele><time>2026-04-26T09:55:27Z</time></trkpt><trkpt lat="45.55613316280602" lon="10.831442455769304"><ele>218.66666666666669</ele><time>2026-04-26T09:55:28Z</time></trkpt><trkpt lat="45.555926339049705" lon="10.83134829678876"><ele>236.0</ele><time>2026-04-26T09:55:29Z</time></trkpt><trkpt lat="45.555765617080944" lon="10.831219445445885"><ele>236.0</ele><time>2026-04-26T09:55:30Z</time></trkpt><trkpt lat="45.55556544235187" lon="10.831097508063534"><ele>236.0</ele><time>2026-04-26T09:55:31Z</time></trkpt><trkpt lat="45.55537710551723" lon="10.830911049689615"><ele>236.0</ele><time>2026-04-26T09:55:32Z</time></trkpt><trkpt lat="45.55521992842987" lon="10.830725484373371"><ele>188.33333333333334</ele><time>2026-04-26T09:55:33Z</time></trkpt><trkpt lat="45.55506315057573" lon="10.830533579414526"><ele>140.66666666666669</ele><time>2026-04-26T09:55:34Z</time></trkpt><trkpt lat="45.55489506916829" lon="10.83038855759559"><ele>93.0</ele><time>2026-04-26T09:55:35Z</time></trkpt><trkpt lat="45.55471236688076" lon="10.830253225555888"><ele>95.66666666666666</ele><time>2026-04-26T09:55:36Z</time></trkpt><trkpt lat="45.55452832226774" lon="10.830134174476884"><ele>98.33333333333333</ele><time>2026-04-26T09:55:37Z</time></trkpt><trkpt lat="45.55433199930513" lon="10.830010473988064"><ele>101.0</ele><time>2026-04-26T09:55:38Z</time></trkpt><trkpt lat="45.55412723328739" lon="10.82989978104373"><ele>101.0</ele><time>2026-04-26T09:55:39Z</time></trkpt><trkpt lat="45.55390733680687" lon="10.829797487432804"><ele>101.0</ele><time>2026-04-26T09:55:40Z</time></trkpt><trkpt lat="45.55369878317691" lon="10.829723703863921"><ele>101.0</ele><time>2026-04-26T09:55:41Z</time></trkpt><trkpt lat="45.55348314349917" lon="10.829634811811328"><ele>102.0</ele><time>2026-04-26T09:55:42Z</time></trkpt><trkpt lat="45.55327278267636" lon="10.829541990018084"><ele>103.0</ele><time>2026-04-26T09:55:43Z</time></trkpt><trkpt lat="45.55305919444254" lon="10.829429787283201"><ele>104.0</ele><time>2026-04-26T09:55:44Z</time></trkpt><trkpt lat="45.552858858328264" lon="10.829281299988587"><ele>104.0</ele><time>2026-04-26T09:55:45Z</time></trkpt><trkpt lat="45.55267215270529" lon="10.829085743302645"><ele>104.0</ele><time>2026-04-26T09:55:46Z</time></trkpt><trkpt lat="45.55248006781172" lon="10.828898481561312"><ele>104.0</ele><time>2026-04-26T09:55:47Z</time></trkpt><trkpt lat="45.55230228991967" lon="10.828701764972555"><ele>104.0</ele><time>2026-04-26T09:55:48Z</time></trkpt><trkpt lat="45.5521210901131" lon="10.828491005260595"><ele>113.0</ele><time>2026-04-26T09:55:49Z</time></trkpt><trkpt lat="45.55194434101599" lon="10.828284550759511"><ele>122.0</ele><time>2026-04-26T09:55:50Z</time></trkpt><trkpt lat="45.55176966472231" lon="10.82808913771652"><ele>122.0</ele><time>2026-04-26T09:55:51Z</time></trkpt><trkpt lat="45.55159927469971" lon="10.82789468423837"><ele>122.0</ele><time>2026-04-26T09:55:52Z</time></trkpt><trkpt lat="45.55144750940158" lon="10.827690215347499"><ele>122.0</ele><time>2026-04-26T09:55:53Z</time></trkpt><trkpt lat="45.551313812302396" lon="10.82744840100249"><ele>115.66666666666666</ele><time>2026-04-26T09:55:54Z</time></trkpt><trkpt lat="45.55117300757514" lon="10.82720051649333"><ele>109.33333333333334</ele><time>2026-04-26T09:55:55Z</time></trkpt><trkpt lat="45.55103975044046" lon="10.826984962563946"><ele>103.0</ele><time>2026-04-26T09:55:56Z</time></trkpt><trkpt lat="45.550912149067585" lon="10.82677920099729"><ele>99.33333333333334</ele><time>2026-04-26T09:55:57Z</time></trkpt><trkpt lat="45.55079482815235" lon="10.826582045972067"><ele>95.66666666666667</ele><time>2026-04-26T09:55:58Z</time></trkpt><trkpt lat="45.550680553552304" lon="10.826392800366532"><ele>92.0</ele><time>2026-04-26T09:55:59Z</time></trkpt><trkpt lat="45.55057667850342" lon="10.826210392910925"><ele>92.0</ele><time>2026-04-26T09:56:00Z</time></trkpt><trkpt lat="45.550476450515674" lon="10.826044738440446"><ele>92.0</ele><time>2026-04-26T09:56:01Z</time></trkpt><trkpt lat="45.55037927597198" lon="10.825900454916594"><ele>92.0</ele><time>2026-04-26T09:56:02Z</time></trkpt><trkpt lat="45.55026809425596" lon="10.825709996814412"><ele>92.33333333333334</ele><time>2026-04-26T09:56:03Z</time></trkpt><trkpt lat="45.550149624614065" lon="10.825514272949848"><ele>92.66666666666667</ele><time>2026-04-26T09:56:04Z</time></trkpt><trkpt lat="45.55002477164326" lon="10.825312275246514"><ele>93.0</ele><time>2026-04-26T09:56:05Z</time></trkpt><trkpt lat="45.54987463459602" lon="10.825111899965181"><ele>93.0</ele><time>2026-04-26T09:56:06Z</time></trkpt><trkpt lat="45.549717928417216" lon="10.824939470933183"><ele>93.0</ele><time>2026-04-26T09:56:07Z</time></trkpt><trkpt lat="45.54957537194079" lon="10.824783863055211"><ele>93.0</ele><time>2026-04-26T09:56:08Z</time></trkpt><trkpt lat="45.549439180471765" lon="10.824640518445188"><ele>94.0</ele><time>2026-04-26T09:56:09Z</time></trkpt><trkpt lat="45.54932218910172" lon="10.824508640616456"><ele>95.0</ele><time>2026-04-26T09:56:10Z</time></trkpt><trkpt lat="45.54920134042757" lon="10.824390904755054"><ele>96.0</ele><time>2026-04-26T09:56:11Z</time></trkpt><trkpt lat="45.54907965836041" lon="10.824252161496757"><ele>96.0</ele><time>2026-04-26T09:56:12Z</time></trkpt><trkpt lat="45.548957639178994" lon="10.82412675371366"><ele>96.0</ele><time>2026-04-26T09:56:13Z</time></trkpt><trkpt lat="45.54883569493204" lon="10.824007078255159"><ele>96.0</ele><time>2026-04-26T09:56:14Z</time></trkpt><trkpt lat="45.5487072534218" lon="10.823892966876967"><ele>96.0</ele><time>2026-04-26T09:56:15Z</time></trkpt><trkpt lat="45.54859104414799" lon="10.823796788865229"><ele>96.0</ele><time>2026-04-26T09:56:16Z</time></trkpt><trkpt lat="45.548473542545366" lon="10.823721789390547"><ele>96.0</ele><time>2026-04-26T09:56:17Z</time></trkpt><trkpt lat="45.54835853642637" lon="10.823633680160096"><ele>96.0</ele><time>2026-04-26T09:56:18Z</time></trkpt><trkpt lat="45.548231937759745" lon="10.823541600061107"><ele>96.66666666666666</ele><time>2026-04-26T09:56:19Z</time></trkpt><trkpt lat="45.54809409331007" lon="10.823449998178134"><ele>97.33333333333333</ele><time>2026-04-26T09:56:20Z</time></trkpt><trkpt lat="45.54794133035695" lon="10.823363435224744"><ele>98.0</ele><time>2026-04-26T09:56:21Z</time></trkpt><trkpt lat="45.547774109641374" lon="10.823284744785163"><ele>98.33333333333333</ele><time>2026-04-26T09:56:22Z</time></trkpt><trkpt lat="45.54760402101861" lon="10.823235831548475"><ele>98.66666666666666</ele><time>2026-04-26T09:56:23Z</time></trkpt><trkpt lat="45.54745784704411" lon="10.823175796707849"><ele>99.0</ele><time>2026-04-26T09:56:24Z</time></trkpt><trkpt lat="45.54730315637664" lon="10.823136668569463"><ele>99.0</ele><time>2026-04-26T09:56:25Z</time></trkpt><trkpt lat="45.547152899235236" lon="10.823099192860964"><ele>99.0</ele><time>2026-04-26T09:56:26Z</time></trkpt><trkpt lat="45.54699585292469" lon="10.823074680192946"><ele>99.0</ele><time>2026-04-26T09:56:27Z</time></trkpt><trkpt lat="45.54684025817106" lon="10.823061011255552"><ele>100.66666666666666</ele><time>2026-04-26T09:56:28Z</time></trkpt><trkpt lat="45.54668060410788" lon="10.823046644409642"><ele>102.33333333333333</ele><time>2026-04-26T09:56:29Z</time></trkpt><trkpt lat="45.546523412238834" lon="10.823005205456424"><ele>104.0</ele><time>2026-04-26T09:56:30Z</time></trkpt><trkpt lat="45.54636769782795" lon="10.823012825676349"><ele>104.0</ele><time>2026-04-26T09:56:31Z</time></trkpt><trkpt lat="45.54620440426248" lon="10.822996564127825"><ele>104.0</ele><time>2026-04-26T09:56:32Z</time></trkpt><trkpt lat="45.54606535602145" lon="10.822989141927426"><ele>104.0</ele><time>2026-04-26T09:56:33Z</time></trkpt><trkpt lat="45.54590622590132" lon="10.82297865465206"><ele>104.0</ele><time>2026-04-26T09:56:34Z</time></trkpt><trkpt lat="45.54574838552366" lon="10.822965481091435"><ele>104.0</ele><time>2026-04-26T09:56:35Z</time></trkpt><trkpt lat="45.54559557742416" lon="10.822956146327057"><ele>104.0</ele><time>2026-04-26T09:56:36Z</time></trkpt><trkpt lat="45.54544145252978" lon="10.82294423954921"><ele>104.66666666666666</ele><time>2026-04-26T09:56:37Z</time></trkpt><trkpt lat="45.54529300654901" lon="10.822933690383005"><ele>105.33333333333334</ele><time>2026-04-26T09:56:38Z</time></trkpt><trkpt lat="45.545119800295694" lon="10.822924428003867"><ele>106.0</ele><time>2026-04-26T09:56:39Z</time></trkpt><trkpt lat="45.54495553137379" lon="10.822912960258162"><ele>106.0</ele><time>2026-04-26T09:56:40Z</time></trkpt><trkpt lat="45.54479105701744" lon="10.822901543860779"><ele>106.0</ele><time>2026-04-26T09:56:41Z</time></trkpt><trkpt lat="45.54464569180699" lon="10.822880219858272"><ele>106.0</ele><time>2026-04-26T09:56:42Z</time></trkpt><trkpt lat="45.544496090219305" lon="10.822871831367532"><ele>106.75</ele><time>2026-04-26T09:56:43Z</time></trkpt><trkpt lat="45.54434693597267" lon="10.822859771168694"><ele>107.5</ele><time>2026-04-26T09:56:44Z</time></trkpt><trkpt lat="45.54419889692186" lon="10.822845655772543"><ele>108.25</ele><time>2026-04-26T09:56:45Z</time></trkpt><trkpt lat="45.544048773890594" lon="10.82283483317649"><ele>109.0</ele><time>2026-04-26T09:56:46Z</time></trkpt><trkpt lat="45.543901660282295" lon="10.822820298508386"><ele>109.0</ele><time>2026-04-26T09:56:47Z</time></trkpt><trkpt lat="45.5437503797963" lon="10.822807851497238"><ele>109.0</ele><time>2026-04-26T09:56:48Z</time></trkpt><trkpt lat="45.54359824253106" lon="10.82280140284347"><ele>109.0</ele><time>2026-04-26T09:56:49Z</time></trkpt><trkpt lat="45.54344591770198" lon="10.822792669061803"><ele>109.33333333333334</ele><time>2026-04-26T09:56:50Z</time></trkpt><trkpt lat="45.54328667004493" lon="10.822780760124358"><ele>109.66666666666666</ele><time>2026-04-26T09:56:51Z</time></trkpt><trkpt lat="45.54312714406043" lon="10.82276623532415"><ele>110.0</ele><time>2026-04-26T09:56:52Z</time></trkpt><trkpt lat="45.54296194778918" lon="10.822751035238769"><ele>110.33333333333333</ele><time>2026-04-26T09:56:53Z</time></trkpt><trkpt lat="45.542793703405444" lon="10.822730586354988"><ele>110.66666666666666</ele><time>2026-04-26T09:56:54Z</time></trkpt><trkpt lat="45.542624362958264" lon="10.822695028986596"><ele>111.0</ele><time>2026-04-26T09:56:55Z</time></trkpt><trkpt lat="45.54244200312059" lon="10.82264913235764"><ele>111.33333333333334</ele><time>2026-04-26T09:56:56Z</time></trkpt><trkpt lat="45.542269248203226" lon="10.822596200939943"><ele>111.66666666666667</ele><time>2026-04-26T09:56:57Z</time></trkpt><trkpt lat="45.542100038319326" lon="10.82252574093555"><ele>112.0</ele><time>2026-04-26T09:56:58Z</time></trkpt><trkpt lat="45.541933430309264" lon="10.822444760302764"><ele>112.33333333333334</ele><time>2026-04-26T09:56:59Z</time></trkpt><trkpt lat="45.541763843370354" lon="10.82236383875938"><ele>112.66666666666666</ele><time>2026-04-26T09:57:00.001Z</time></trkpt><trkpt lat="45.54159425379603" lon="10.822274319938384"><ele>113.0</ele><time>2026-04-26T09:57:01.001Z</time></trkpt><trkpt lat="45.54142566002822" lon="10.82218129649757"><ele>113.0</ele><time>2026-04-26T09:57:02.001Z</time></trkpt><trkpt lat="45.541251570690626" lon="10.822088361843017"><ele>113.0</ele><time>2026-04-26T09:57:03.001Z</time></trkpt><trkpt lat="45.541075372145706" lon="10.822004407865272"><ele>113.0</ele><time>2026-04-26T09:57:04.001Z</time></trkpt><trkpt lat="45.540936963057554" lon="10.821924164093486"><ele>113.33333333333333</ele><time>2026-04-26T09:57:05.001Z</time></trkpt><trkpt lat="45.540848954048386" lon="10.82187718979687"><ele>113.66666666666666</ele><time>2026-04-26T09:57:06.001Z</time></trkpt><trkpt lat="45.54054677279792" lon="10.821716140625375"><ele>114.0</ele><time>2026-04-26T09:57:07.001Z</time></trkpt><trkpt lat="45.540365503737156" lon="10.821617834830429"><ele>113.33333333333334</ele><time>2026-04-26T09:57:08.001Z</time></trkpt><trkpt lat="45.54018826688213" lon="10.821524573689606"><ele>112.66666666666667</ele><time>2026-04-26T09:57:09.001Z</time></trkpt><trkpt lat="45.540017356688175" lon="10.821433150775754"><ele>112.0</ele><time>2026-04-26T09:57:10Z</time></trkpt><trkpt lat="45.539846559383875" lon="10.821345157775129"><ele>112.0</ele><time>2026-04-26T09:57:11Z</time></trkpt><trkpt lat="45.539679525575885" lon="10.821262022687655"><ele>112.0</ele><time>2026-04-26T09:57:12Z</time></trkpt><trkpt lat="45.53951035797417" lon="10.821170924972021"><ele>112.0</ele><time>2026-04-26T09:57:13Z</time></trkpt><trkpt lat="45.53934126366824" lon="10.821082100222718"><ele>112.33333333333334</ele><time>2026-04-26T09:57:14Z</time></trkpt><trkpt lat="45.53917051011888" lon="10.820993776665906"><ele>112.66666666666666</ele><time>2026-04-26T09:57:15Z</time></trkpt><trkpt lat="45.53899946509185" lon="10.820902025803012"><ele>113.0</ele><time>2026-04-26T09:57:16Z</time></trkpt><trkpt lat="45.53882928162315" lon="10.820806363767554"><ele>112.33333333333333</ele><time>2026-04-26T09:57:17Z</time></trkpt><trkpt lat="45.53865436256503" lon="10.820707076171145"><ele>111.66666666666666</ele><time>2026-04-26T09:57:18Z</time></trkpt><trkpt lat="45.538485214996754" lon="10.820598282191115"><ele>111.0</ele><time>2026-04-26T09:57:19Z</time></trkpt><trkpt lat="45.53830903158705" lon="10.820468918696136"><ele>111.0</ele><time>2026-04-26T09:57:20Z</time></trkpt><trkpt lat="45.538140119748554" lon="10.820340287398173"><ele>111.0</ele><time>2026-04-26T09:57:21Z</time></trkpt><trkpt lat="45.537972221700784" lon="10.82020332324861"><ele>111.0</ele><time>2026-04-26T09:57:22Z</time></trkpt><trkpt lat="45.53780293605839" lon="10.82006784916927"><ele>111.66666666666666</ele><time>2026-04-26T09:57:23Z</time></trkpt><trkpt lat="45.53764751302018" lon="10.819950383099552"><ele>112.33333333333333</ele><time>2026-04-26T09:57:24Z</time></trkpt><trkpt lat="45.5374990919265" lon="10.819839301142709"><ele>113.0</ele><time>2026-04-26T09:57:25Z</time></trkpt><trkpt lat="45.53734286810213" lon="10.8197291046983"><ele>113.0</ele><time>2026-04-26T09:57:26Z</time></trkpt><trkpt lat="45.537180431990016" lon="10.81962120746383"><ele>113.0</ele><time>2026-04-26T09:57:27Z</time></trkpt><trkpt lat="45.537013037722915" lon="10.81950808539592"><ele>113.0</ele><time>2026-04-26T09:57:28Z</time></trkpt><trkpt lat="45.536847232251766" lon="10.8193926491077"><ele>112.33333333333333</ele><time>2026-04-26T09:57:29Z</time></trkpt><trkpt lat="45.53668466323705" lon="10.819277406628858"><ele>111.66666666666666</ele><time>2026-04-26T09:57:30Z</time></trkpt><trkpt lat="45.536518149140406" lon="10.819177038863545"><ele>111.0</ele><time>2026-04-26T09:57:31Z</time></trkpt><trkpt lat="45.5363671090492" lon="10.819088145470637"><ele>110.66666666666666</ele><time>2026-04-26T09:57:32Z</time></trkpt><trkpt lat="45.53621527203511" lon="10.818987321370752"><ele>110.33333333333333</ele><time>2026-04-26T09:57:33Z</time></trkpt><trkpt lat="45.536062863253335" lon="10.818878134558826"><ele>110.0</ele><time>2026-04-26T09:57:34Z</time></trkpt><trkpt lat="45.53590497658784" lon="10.81877175710806"><ele>110.0</ele><time>2026-04-26T09:57:35Z</time></trkpt><trkpt lat="45.53574738981071" lon="10.818675946884008"><ele>110.0</ele><time>2026-04-26T09:57:36Z</time></trkpt><trkpt lat="45.53558971292379" lon="10.818607506177086"><ele>110.0</ele><time>2026-04-26T09:57:37Z</time></trkpt><trkpt lat="45.535433306217115" lon="10.818547819640251"><ele>110.0</ele><time>2026-04-26T09:57:38Z</time></trkpt><trkpt lat="45.53529739220246" lon="10.818501512907046"><ele>110.0</ele><time>2026-04-26T09:57:39Z</time></trkpt><trkpt lat="45.53514078771499" lon="10.818458039376004"><ele>110.0</ele><time>2026-04-26T09:57:40Z</time></trkpt><trkpt lat="45.53498254609625" lon="10.818418765738407"><ele>110.0</ele><time>2026-04-26T09:57:41Z</time></trkpt><trkpt lat="45.53482832219736" lon="10.818397011776199"><ele>110.0</ele><time>2026-04-26T09:57:42Z</time></trkpt><trkpt lat="45.53467261695738" lon="10.81837116130462"><ele>110.0</ele><time>2026-04-26T09:57:43Z</time></trkpt><trkpt lat="45.534521441306005" lon="10.81835178652823"><ele>110.33333333333333</ele><time>2026-04-26T09:57:44Z</time></trkpt><trkpt lat="45.534366421697236" lon="10.818329979112185"><ele>110.66666666666666</ele><time>2026-04-26T09:57:45Z</time></trkpt><trkpt lat="45.53421560552301" lon="10.818310851560335"><ele>111.0</ele><time>2026-04-26T09:57:46Z</time></trkpt><trkpt lat="45.53406453084814" lon="10.818289425430264"><ele>111.0</ele><time>2026-04-26T09:57:47Z</time></trkpt><trkpt lat="45.53391550618457" lon="10.818275396383061"><ele>111.0</ele><time>2026-04-26T09:57:48Z</time></trkpt><trkpt lat="45.53377181206079" lon="10.818258360721059"><ele>111.0</ele><time>2026-04-26T09:57:49Z</time></trkpt><trkpt lat="45.533635710233725" lon="10.81823733950936"><ele>111.0</ele><time>2026-04-26T09:57:50Z</time></trkpt><trkpt lat="45.53349776520327" lon="10.81822221595711"><ele>111.5</ele><time>2026-04-26T09:57:51Z</time></trkpt><trkpt lat="45.53335677141495" lon="10.818220578312387"><ele>112.0</ele><time>2026-04-26T09:57:52Z</time></trkpt><trkpt lat="45.53321352930715" lon="10.818220735480226"><ele>112.5</ele><time>2026-04-26T09:57:53Z</time></trkpt><trkpt lat="45.53305909588977" lon="10.818209959641724"><ele>113.0</ele><time>2026-04-26T09:57:54Z</time></trkpt><trkpt lat="45.532902813669565" lon="10.818208784062387"><ele>112.75</ele><time>2026-04-26T09:57:55Z</time></trkpt><trkpt lat="45.532757856269065" lon="10.818195910128264"><ele>112.5</ele><time>2026-04-26T09:57:56Z</time></trkpt><trkpt lat="45.53260950398186" lon="10.81818793080245"><ele>112.25</ele><time>2026-04-26T09:57:57Z</time></trkpt><trkpt lat="45.532459223665505" lon="10.818204679207799"><ele>112.0</ele><time>2026-04-26T09:57:58Z</time></trkpt><trkpt lat="45.5323071070062" lon="10.81822813488489"><ele>112.0</ele><time>2026-04-26T09:57:59Z</time></trkpt><trkpt lat="45.5321543476313" lon="10.818231864789817"><ele>112.0</ele><time>2026-04-26T09:58:00Z</time></trkpt><trkpt lat="45.53199498750076" lon="10.818238482126702"><ele>112.0</ele><time>2026-04-26T09:58:01Z</time></trkpt><trkpt lat="45.53183747119223" lon="10.818257765291149"><ele>112.33333333333334</ele><time>2026-04-26T09:58:02Z</time></trkpt><trkpt lat="45.531711277767336" lon="10.818255218291776"><ele>112.66666666666666</ele><time>2026-04-26T09:58:03Z</time></trkpt><trkpt lat="45.53155917893963" lon="10.818248746129315"><ele>113.0</ele><time>2026-04-26T09:58:04Z</time></trkpt><trkpt lat="45.531387239831986" lon="10.818243757141008"><ele>113.0</ele><time>2026-04-26T09:58:05Z</time></trkpt><trkpt lat="45.531227292461864" lon="10.81824683763959"><ele>113.0</ele><time>2026-04-26T09:58:06Z</time></trkpt><trkpt lat="45.53107667950769" lon="10.818255672374233"><ele>113.0</ele><time>2026-04-26T09:58:07Z</time></trkpt><trkpt lat="45.530950638913765" lon="10.818239665390555"><ele>113.0</ele><time>2026-04-26T09:58:08Z</time></trkpt><trkpt lat="45.530816422127614" lon="10.818230161308103"><ele>112.33333333333333</ele><time>2026-04-26T09:58:09Z</time></trkpt><trkpt lat="45.53066817685767" lon="10.81822335825287"><ele>111.66666666666666</ele><time>2026-04-26T09:58:10Z</time></trkpt><trkpt lat="45.53049947217062" lon="10.818231341754906"><ele>111.0</ele><time>2026-04-26T09:58:11Z</time></trkpt><trkpt lat="45.53034838973112" lon="10.818248113969691"><ele>111.0</ele><time>2026-04-26T09:58:12Z</time></trkpt><trkpt lat="45.53020273032016" lon="10.818262836409218"><ele>111.0</ele><time>2026-04-26T09:58:13Z</time></trkpt><trkpt lat="45.53004964445317" lon="10.818268207954306"><ele>111.0</ele><time>2026-04-26T09:58:14Z</time></trkpt><trkpt lat="45.52989852034394" lon="10.818296767114191"><ele>111.0</ele><time>2026-04-26T09:58:15Z</time></trkpt><trkpt lat="45.52975733246904" lon="10.818322390699848"><ele>111.0</ele><time>2026-04-26T09:58:16Z</time></trkpt><trkpt lat="45.52962556696309" lon="10.818330325814557"><ele>111.0</ele><time>2026-04-26T09:58:17Z</time></trkpt><trkpt lat="45.52948621283629" lon="10.818357107544921"><ele>111.0</ele><time>2026-04-26T09:58:18Z</time></trkpt><trkpt lat="45.529351199217615" lon="10.818383640542635"><ele>111.25</ele><time>2026-04-26T09:58:19Z</time></trkpt><trkpt lat="45.529211848185746" lon="10.818386396006298"><ele>111.5</ele><time>2026-04-26T09:58:20Z</time></trkpt><trkpt lat="45.52906559773802" lon="10.81838666346839"><ele>111.75</ele><time>2026-04-26T09:58:21Z</time></trkpt><trkpt lat="45.5289041825687" lon="10.818367388846758"><ele>112.0</ele><time>2026-04-26T09:58:22Z</time></trkpt><trkpt lat="45.528738223840996" lon="10.818345918576068"><ele>111.66666666666667</ele><time>2026-04-26T09:58:23Z</time></trkpt><trkpt lat="45.52857484146359" lon="10.818320853613631"><ele>111.33333333333334</ele><time>2026-04-26T09:58:24Z</time></trkpt><trkpt lat="45.528400528678496" lon="10.818298000189467"><ele>111.0</ele><time>2026-04-26T09:58:25Z</time></trkpt><trkpt lat="45.528230694370706" lon="10.81828769282998"><ele>111.0</ele><time>2026-04-26T09:58:26Z</time></trkpt><trkpt lat="45.528078482326436" lon="10.818278776926963"><ele>111.0</ele><time>2026-04-26T09:58:27Z</time></trkpt><trkpt lat="45.52793551353206" lon="10.818277682375046"><ele>111.0</ele><time>2026-04-26T09:58:28Z</time></trkpt><trkpt lat="45.52780271072714" lon="10.818274913985867"><ele>111.0</ele><time>2026-04-26T09:58:29Z</time></trkpt><trkpt lat="45.52767548719781" lon="10.81826473109277"><ele>112.0</ele><time>2026-04-26T09:58:30Z</time></trkpt><trkpt lat="45.52754519017496" lon="10.81826506315659"><ele>113.0</ele><time>2026-04-26T09:58:31Z</time></trkpt><trkpt lat="45.527411784261716" lon="10.818254961342642"><ele>114.0</ele><time>2026-04-26T09:58:32Z</time></trkpt><trkpt lat="45.5272952257728" lon="10.818252340678978"><ele>115.0</ele><time>2026-04-26T09:58:33Z</time></trkpt><trkpt lat="45.5271987104435" lon="10.81824894056471"><ele>115.00000000000001</ele><time>2026-04-26T09:58:34Z</time></trkpt><trkpt lat="45.52711492605932" lon="10.818247076089571"><ele>115.0</ele><time>2026-04-26T09:58:35Z</time></trkpt><trkpt lat="45.5270395499871" lon="10.818241334151308"><ele>115.0</ele><time>2026-04-26T09:58:36Z</time></trkpt><trkpt lat="45.52696374175037" lon="10.818218290246959"><ele>115.0</ele><time>2026-04-26T09:58:37Z</time></trkpt><trkpt lat="45.52688719260994" lon="10.818202150492366"><ele>115.00000000000001</ele><time>2026-04-26T09:58:38Z</time></trkpt><trkpt lat="45.52677497584449" lon="10.818247967788224"><ele>115.0</ele><time>2026-04-26T09:58:40Z</time></trkpt><trkpt lat="45.52669401416222" lon="10.818383456885655"><ele>115.0</ele><time>2026-04-26T09:58:42Z</time></trkpt><trkpt lat="45.52672832757182" lon="10.818523746004232"><ele>115.0</ele><time>2026-04-26T09:58:43Z</time></trkpt><trkpt lat="45.526743302274305" lon="10.818663288390953"><ele>115.0</ele><time>2026-04-26T09:58:44Z</time></trkpt><trkpt lat="45.52674645239614" lon="10.818765086404925"><ele>115.0</ele><time>2026-04-26T09:58:45Z</time></trkpt><trkpt lat="45.52672961458396" lon="10.818924595238396"><ele>115.0</ele><time>2026-04-26T09:58:47Z</time></trkpt><trkpt lat="45.526716319694714" lon="10.819051848978825"><ele>115.0</ele><time>2026-04-26T09:58:49Z</time></trkpt><trkpt lat="45.526667538066896" lon="10.819210079419864"><ele>115.0</ele><time>2026-04-26T09:58:51Z</time></trkpt><trkpt lat="45.526617793339504" lon="10.819275597268637"><ele>115.0</ele><time>2026-04-26T09:58:52Z</time></trkpt><trkpt lat="45.526551766406655" lon="10.819339182587704"><ele>115.0</ele><time>2026-04-26T09:58:53Z</time></trkpt><trkpt lat="45.52646620770526" lon="10.819378527873264"><ele>115.0</ele><time>2026-04-26T09:58:54Z</time></trkpt><trkpt lat="45.5263639071527" lon="10.819398532871691"><ele>115.0</ele><time>2026-04-26T09:58:55Z</time></trkpt><trkpt lat="45.52626955907329" lon="10.81938459836426"><ele>115.0</ele><time>2026-04-26T09:58:56Z</time></trkpt><trkpt lat="45.52614924606531" lon="10.819362890330252"><ele>115.0</ele><time>2026-04-26T09:58:57Z</time></trkpt><trkpt lat="45.526041236037685" lon="10.819348895198411"><ele>115.0</ele><time>2026-04-26T09:58:58Z</time></trkpt><trkpt lat="45.52593083405809" lon="10.819342754800276"><ele>115.0</ele><time>2026-04-26T09:58:59Z</time></trkpt><trkpt lat="45.5258235629183" lon="10.819341700029161"><ele>115.0</ele><time>2026-04-26T09:59:00Z</time></trkpt><trkpt lat="45.52570148996421" lon="10.819360907924768"><ele>115.0</ele><time>2026-04-26T09:59:01Z</time></trkpt><trkpt lat="45.52560525812537" lon="10.819352306912375"><ele>115.0</ele><time>2026-04-26T09:59:02Z</time></trkpt><trkpt lat="45.52550942778782" lon="10.819357396431103"><ele>115.0</ele><time>2026-04-26T09:59:03Z</time></trkpt><trkpt lat="45.52542284606968" lon="10.819364555065855"><ele>115.0</ele><time>2026-04-26T09:59:04Z</time></trkpt><trkpt lat="45.52534204172744" lon="10.819370030453463"><ele>114.99999999999999</ele><time>2026-04-26T09:59:05Z</time></trkpt><trkpt lat="45.5252652328666" lon="10.819374284703946"><ele>115.0</ele><time>2026-04-26T09:59:06Z</time></trkpt><trkpt lat="45.52519319505833" lon="10.819380423263008"><ele>114.99999999999999</ele><time>2026-04-26T09:59:07Z</time></trkpt><trkpt lat="45.5251259299276" lon="10.819392844992729"><ele>114.99999999999999</ele><time>2026-04-26T09:59:08Z</time></trkpt><trkpt lat="45.525051188882976" lon="10.819402588857498"><ele>115.0</ele><time>2026-04-26T09:59:09Z</time></trkpt><trkpt lat="45.52497933626955" lon="10.81943906063913"><ele>114.99999999999999</ele><time>2026-04-26T09:59:10Z</time></trkpt><trkpt lat="45.52491347071014" lon="10.81949658636335"><ele>114.99999999999999</ele><time>2026-04-26T09:59:11Z</time></trkpt><trkpt lat="45.52485797221203" lon="10.819570453404703"><ele>115.0</ele><time>2026-04-26T09:59:12Z</time></trkpt><trkpt lat="45.524844803625996" lon="10.819740571768678"><ele>115.0</ele><time>2026-04-26T09:59:13Z</time></trkpt><trkpt lat="45.52482438527858" lon="10.819911228741208"><ele>115.0</ele><time>2026-04-26T09:59:14Z</time></trkpt><trkpt lat="45.52480500763558" lon="10.820082425729863"><ele>115.0</ele><time>2026-04-26T09:59:15Z</time></trkpt><trkpt lat="45.52478116516712" lon="10.820252423074994"><ele>115.2</ele><time>2026-04-26T09:59:16Z</time></trkpt><trkpt lat="45.52473894562695" lon="10.82040333673493"><ele>115.4</ele><time>2026-04-26T09:59:17Z</time></trkpt><trkpt lat="45.52471981063644" lon="10.820553386036051"><ele>115.6</ele><time>2026-04-26T09:59:18Z</time></trkpt><trkpt lat="45.524698632805446" lon="10.820695864220054"><ele>115.8</ele><time>2026-04-26T09:59:19Z</time></trkpt><trkpt lat="45.52468473217617" lon="10.820836834713155"><ele>116.0</ele><time>2026-04-26T09:59:20Z</time></trkpt><trkpt lat="45.52465300507802" lon="10.820974279674855"><ele>116.19999999999999</ele><time>2026-04-26T09:59:21Z</time></trkpt><trkpt lat="45.52462400445489" lon="10.821102302231575"><ele>116.39999999999999</ele><time>2026-04-26T09:59:22Z</time></trkpt><trkpt lat="45.52459918609637" lon="10.821262344337494"><ele>116.6</ele><time>2026-04-26T09:59:23Z</time></trkpt><trkpt lat="45.524548845528514" lon="10.82135895752339"><ele>116.8</ele><time>2026-04-26T09:59:24Z</time></trkpt><trkpt lat="45.52450015480451" lon="10.821470903597568"><ele>117.0</ele><time>2026-04-26T09:59:25Z</time></trkpt><trkpt lat="45.524441462089456" lon="10.821584781052925"><ele>117.0</ele><time>2026-04-26T09:59:26Z</time></trkpt><trkpt lat="45.52436126261925" lon="10.821722541047599"><ele>117.0</ele><time>2026-04-26T09:59:27Z</time></trkpt><trkpt lat="45.52425834017283" lon="10.821826937225598"><ele>117.0</ele><time>2026-04-26T09:59:28Z</time></trkpt><trkpt lat="45.52414321637106" lon="10.821914997415133"><ele>117.0</ele><time>2026-04-26T09:59:29Z</time></trkpt><trkpt lat="45.524038344082676" lon="10.821988366390393"><ele>117.0</ele><time>2026-04-26T09:59:30Z</time></trkpt><trkpt lat="45.523924188265035" lon="10.822071078252819"><ele>117.0</ele><time>2026-04-26T09:59:31Z</time></trkpt><trkpt lat="45.52375904650038" lon="10.822131684488818"><ele>117.0</ele><time>2026-04-26T09:59:32Z</time></trkpt><trkpt lat="45.52361970728227" lon="10.822184161948156"><ele>117.0</ele><time>2026-04-26T09:59:33Z</time></trkpt><trkpt lat="45.523479872324415" lon="10.822203027858196"><ele>117.25</ele><time>2026-04-26T09:59:34Z</time></trkpt><trkpt lat="45.52333333788459" lon="10.822220760401203"><ele>117.5</ele><time>2026-04-26T09:59:35Z</time></trkpt><trkpt lat="45.5231955455807" lon="10.822237592210874"><ele>117.75</ele><time>2026-04-26T09:59:36Z</time></trkpt><trkpt lat="45.523063853706816" lon="10.822249145854197"><ele>118.0</ele><time>2026-04-26T09:59:37Z</time></trkpt><trkpt lat="45.52293241905112" lon="10.822274287531183"><ele>118.0</ele><time>2026-04-26T09:59:38Z</time></trkpt><trkpt lat="45.522802127142654" lon="10.822294494409567"><ele>118.0</ele><time>2026-04-26T09:59:39Z</time></trkpt><trkpt lat="45.52266962117299" lon="10.82229040116704"><ele>118.0</ele><time>2026-04-26T09:59:40Z</time></trkpt><trkpt lat="45.522567696038074" lon="10.822298866295421"><ele>118.0</ele><time>2026-04-26T09:59:41Z</time></trkpt><trkpt lat="45.52247776732898" lon="10.822302984789122"><ele>118.00000000000001</ele><time>2026-04-26T09:59:42Z</time></trkpt><trkpt lat="45.52239478352323" lon="10.822298332095366"><ele>118.0</ele><time>2026-04-26T09:59:43Z</time></trkpt><trkpt lat="45.52232153789498" lon="10.822291296522373"><ele>118.0</ele><time>2026-04-26T09:59:44Z</time></trkpt><trkpt lat="45.5222443285228" lon="10.822281667788"><ele>118.0</ele><time>2026-04-26T09:59:45Z</time></trkpt><trkpt lat="45.522163392131795" lon="10.822267073831528"><ele>118.00000000000001</ele><time>2026-04-26T09:59:46Z</time></trkpt><trkpt lat="45.52209008319317" lon="10.822280917860908"><ele>118.0</ele><time>2026-04-26T09:59:47Z</time></trkpt><trkpt lat="45.521956617866294" lon="10.822326093417177"><ele>117.5</ele><time>2026-04-26T09:59:49Z</time></trkpt><trkpt lat="45.52186497268555" lon="10.82241758292962"><ele>117.0</ele><time>2026-04-26T09:59:50Z</time></trkpt><trkpt lat="45.52175397477187" lon="10.822418002585424"><ele>116.5</ele><time>2026-04-26T09:59:51Z</time></trkpt><trkpt lat="45.521636955362645" lon="10.82240968716237"><ele>116.0</ele><time>2026-04-26T09:59:52Z</time></trkpt><trkpt lat="45.52151608170172" lon="10.822430362371225"><ele>116.0</ele><time>2026-04-26T09:59:53Z</time></trkpt><trkpt lat="45.52140143007077" lon="10.822425133729729"><ele>116.0</ele><time>2026-04-26T09:59:54Z</time></trkpt><trkpt lat="45.52128753275693" lon="10.822435991950206"><ele>116.0</ele><time>2026-04-26T09:59:55Z</time></trkpt><trkpt lat="45.52117522158336" lon="10.822440027008936"><ele>116.0</ele><time>2026-04-26T09:59:56Z</time></trkpt><trkpt lat="45.52107518328767" lon="10.822447977692711"><ele>116.0</ele><time>2026-04-26T09:59:57Z</time></trkpt><trkpt lat="45.52097856101703" lon="10.82244902346379"><ele>115.83333333333333</ele><time>2026-04-26T09:59:58Z</time></trkpt><trkpt lat="45.5208864045692" lon="10.822449221575443"><ele>115.66666666666666</ele><time>2026-04-26T09:59:59Z</time></trkpt><trkpt lat="45.520800812134986" lon="10.822446311988369"><ele>115.5</ele><time>2026-04-26T10:00:00Z</time></trkpt><trkpt lat="45.5207152407582" lon="10.822442469983292"><ele>115.33333333333334</ele><time>2026-04-26T10:00:01Z</time></trkpt><trkpt lat="45.52063093521548" lon="10.822441717391985"><ele>115.16666666666667</ele><time>2026-04-26T10:00:02Z</time></trkpt><trkpt lat="45.52054640108762" lon="10.822443492214349"><ele>115.0</ele><time>2026-04-26T10:00:03Z</time></trkpt><trkpt lat="45.520468072209" lon="10.822441800508699"><ele>115.16666666666667</ele><time>2026-04-26T10:00:04Z</time></trkpt><trkpt lat="45.52038442362615" lon="10.822436529637054"><ele>115.33333333333334</ele><time>2026-04-26T10:00:05Z</time></trkpt><trkpt lat="45.520307135306375" lon="10.82244084603839"><ele>115.5</ele><time>2026-04-26T10:00:06Z</time></trkpt><trkpt lat="45.52022356124037" lon="10.822446763680945"><ele>115.66666666666666</ele><time>2026-04-26T10:00:07Z</time></trkpt><trkpt lat="45.52013279552895" lon="10.822442296332861"><ele>115.83333333333333</ele><time>2026-04-26T10:00:08Z</time></trkpt><trkpt lat="45.520041704919315" lon="10.822446088546414"><ele>116.0</ele><time>2026-04-26T10:00:09Z</time></trkpt><trkpt lat="45.5199386857071" lon="10.822452074119768"><ele>116.0</ele><time>2026-04-26T10:00:10Z</time></trkpt><trkpt lat="45.51982965260193" lon="10.822455358739804"><ele>116.0</ele><time>2026-04-26T10:00:11Z</time></trkpt><trkpt lat="45.51971054563835" lon="10.822466165550592"><ele>116.0</ele><time>2026-04-26T10:00:12Z</time></trkpt><trkpt lat="45.51959686264039" lon="10.822479458314888"><ele>116.0</ele><time>2026-04-26T10:00:13Z</time></trkpt><trkpt lat="45.519486248725336" lon="10.822545211004394"><ele>116.6</ele><time>2026-04-26T10:00:14Z</time></trkpt><trkpt lat="45.51937654183194" lon="10.82260275350754"><ele>117.19999999999999</ele><time>2026-04-26T10:00:15Z</time></trkpt><trkpt lat="45.519271863073165" lon="10.822670364839896"><ele>117.80000000000001</ele><time>2026-04-26T10:00:16Z</time></trkpt><trkpt lat="45.51917301443974" lon="10.822723186082653"><ele>118.4</ele><time>2026-04-26T10:00:17Z</time></trkpt><trkpt lat="45.51909883200523" lon="10.822802443724013"><ele>119.0</ele><time>2026-04-26T10:00:18Z</time></trkpt><trkpt lat="45.51902250246523" lon="10.822850109482493"><ele>119.49999999999999</ele><time>2026-04-26T10:00:19Z</time></trkpt><trkpt lat="45.5189653341845" lon="10.822894481799148"><ele>120.0</ele><time>2026-04-26T10:00:20Z</time></trkpt><trkpt lat="45.51888120918354" lon="10.822957683848848"><ele>120.5</ele><time>2026-04-26T10:00:22Z</time></trkpt><trkpt lat="45.51882497343814" lon="10.823003955669149"><ele>121.0</ele><time>2026-04-26T10:02:11Z</time></trkpt><trkpt lat="45.51876298770634" lon="10.823059871603382"><ele>121.49999999999999</ele><time>2026-04-26T10:02:13Z</time></trkpt><trkpt lat="45.518688528477135" lon="10.823117203134714"><ele>122.0</ele><time>2026-04-26T10:02:16Z</time></trkpt><trkpt lat="45.51863690315113" lon="10.823186113498764"><ele>122.0</ele><time>2026-04-26T10:02:17Z</time></trkpt><trkpt lat="45.518594897245336" lon="10.823302292185495"><ele>121.99999999999999</ele><time>2026-04-26T10:02:18Z</time></trkpt><trkpt lat="45.51856035356123" lon="10.823442150161092"><ele>121.99999999999999</ele><time>2026-04-26T10:02:19Z</time></trkpt><trkpt lat="45.5185326456995" lon="10.823607026588299"><ele>122.0</ele><time>2026-04-26T10:02:20Z</time></trkpt><trkpt lat="45.51850884643831" lon="10.823784724637308"><ele>122.0</ele><time>2026-04-26T10:02:21Z</time></trkpt><trkpt lat="45.51848557930408" lon="10.823956715363593"><ele>122.75</ele><time>2026-04-26T10:02:22Z</time></trkpt><trkpt lat="45.51844032958659" lon="10.824134868554903"><ele>123.5</ele><time>2026-04-26T10:02:23Z</time></trkpt><trkpt lat="45.51842167261516" lon="10.8243027812929"><ele>124.25</ele><time>2026-04-26T10:02:24Z</time></trkpt><trkpt lat="45.51840463383935" lon="10.82446869673989"><ele>125.0</ele><time>2026-04-26T10:02:25Z</time></trkpt><trkpt lat="45.518389645175674" lon="10.824629778566425"><ele>126.5</ele><time>2026-04-26T10:02:26Z</time></trkpt><trkpt lat="45.518383923353504" lon="10.82481032215025"><ele>128.0</ele><time>2026-04-26T10:02:27Z</time></trkpt><trkpt lat="45.51837715894016" lon="10.825021359769401"><ele>129.5</ele><time>2026-04-26T10:02:28Z</time></trkpt><trkpt lat="45.51838250487844" lon="10.825266658506756"><ele>131.0</ele><time>2026-04-26T10:02:29Z</time></trkpt><trkpt lat="45.51837617887164" lon="10.825526489372933"><ele>131.66666666666666</ele><time>2026-04-26T10:02:30Z</time></trkpt><trkpt lat="45.5183897680649" lon="10.825830015786005"><ele>132.33333333333334</ele><time>2026-04-26T10:02:31Z</time></trkpt><trkpt lat="45.51841133424992" lon="10.826148588106612"><ele>133.0</ele><time>2026-04-26T10:02:32Z</time></trkpt><trkpt lat="45.518431288807726" lon="10.82645400035006"><ele>134.0</ele><time>2026-04-26T10:02:33Z</time></trkpt><trkpt lat="45.51844954662534" lon="10.826766500601963"><ele>135.0</ele><time>2026-04-26T10:02:34Z</time></trkpt><trkpt lat="45.51846203773859" lon="10.827009068999649"><ele>136.0</ele><time>2026-04-26T10:02:35Z</time></trkpt><trkpt lat="45.51847329341559" lon="10.827237176076567"><ele>136.5</ele><time>2026-04-26T10:02:36Z</time></trkpt><trkpt lat="45.518481091034445" lon="10.827436695866474"><ele>137.0</ele><time>2026-04-26T10:02:37Z</time></trkpt><trkpt lat="45.518488290554565" lon="10.827626947221004"><ele>137.5</ele><time>2026-04-26T10:02:38Z</time></trkpt><trkpt lat="45.51849732708044" lon="10.827865742019252"><ele>138.0</ele><time>2026-04-26T10:02:39Z</time></trkpt><trkpt lat="45.51850691109021" lon="10.828133415409962"><ele>139.0</ele><time>2026-04-26T10:02:40Z</time></trkpt><trkpt lat="45.518515461260236" lon="10.828384329216858"><ele>140.0</ele><time>2026-04-26T10:02:41Z</time></trkpt><trkpt lat="45.51853773989125" lon="10.828581560679595"><ele>141.0</ele><time>2026-04-26T10:02:42Z</time></trkpt><trkpt lat="45.51853246299538" lon="10.828799408902379"><ele>141.0</ele><time>2026-04-26T10:02:43Z</time></trkpt><trkpt lat="45.51854385456371" lon="10.828995423977487"><ele>141.0</ele><time>2026-04-26T10:02:44Z</time></trkpt><trkpt lat="45.51854924129172" lon="10.829222689930761"><ele>141.0</ele><time>2026-04-26T10:02:45Z</time></trkpt><trkpt lat="45.51856951854614" lon="10.829474548080931"><ele>141.33333333333334</ele><time>2026-04-26T10:02:46Z</time></trkpt><trkpt lat="45.518585384110416" lon="10.82970646796086"><ele>141.66666666666669</ele><time>2026-04-26T10:02:47Z</time></trkpt><trkpt lat="45.51864449785365" lon="10.829940094784964"><ele>142.0</ele><time>2026-04-26T10:02:48Z</time></trkpt><trkpt lat="45.518710396390816" lon="10.830134577994471"><ele>145.75</ele><time>2026-04-26T10:02:49Z</time></trkpt><trkpt lat="45.518761162196526" lon="10.830309586680013"><ele>149.5</ele><time>2026-04-26T10:02:50Z</time></trkpt><trkpt lat="45.51880144242865" lon="10.830444276367055"><ele>153.25</ele><time>2026-04-26T10:02:51Z</time></trkpt><trkpt lat="45.51881489469258" lon="10.83053473917592"><ele>157.0</ele><time>2026-04-26T10:02:52Z</time></trkpt><trkpt lat="45.518815726959815" lon="10.830801477967457"><ele>157.0</ele><time>2026-04-26T10:02:54Z</time></trkpt><trkpt lat="45.51880347080039" lon="10.830937067737834"><ele>157.0</ele><time>2026-04-26T10:02:55Z</time></trkpt><trkpt lat="45.5188097765056" lon="10.831051852492205"><ele>157.0</ele><time>2026-04-26T10:02:56Z</time></trkpt><trkpt lat="45.51885049083648" lon="10.831121419416647"><ele>157.0</ele><time>2026-04-26T10:02:57Z</time></trkpt><trkpt lat="45.5187933328662" lon="10.831169238297306"><ele>157.0</ele><time>2026-04-26T10:02:58Z</time></trkpt><trkpt lat="45.51899988088394" lon="10.831163281348456"><ele>157.0</ele><time>2026-04-26T10:02:59Z</time></trkpt><trkpt lat="45.519073492533586" lon="10.831155215775626"><ele>157.0</ele><time>2026-04-26T10:03:00Z</time></trkpt><trkpt lat="45.51913723554828" lon="10.830936228163468"><ele>157.0</ele><time>2026-04-26T10:03:02Z</time></trkpt><trkpt lat="45.519148665589206" lon="10.830810914252302"><ele>157.0</ele><time>2026-04-26T10:03:03Z</time></trkpt><trkpt lat="45.519175474885735" lon="10.830670986903888"><ele>157.0</ele><time>2026-04-26T10:03:04Z</time></trkpt><trkpt lat="45.51920168123314" lon="10.830490593440166"><ele>157.0</ele><time>2026-04-26T10:03:05Z</time></trkpt><trkpt lat="45.51930764559171" lon="10.83031652333618"><ele>157.0</ele><time>2026-04-26T10:03:06Z</time></trkpt><trkpt lat="45.519379147117114" lon="10.830116081143636"><ele>157.0</ele><time>2026-04-26T10:03:07Z</time></trkpt><trkpt lat="45.51945604894306" lon="10.82992379600939"><ele>157.0</ele><time>2026-04-26T10:03:08Z</time></trkpt><trkpt lat="45.51951236035988" lon="10.829747605881527"><ele>157.0</ele><time>2026-04-26T10:03:09Z</time></trkpt><trkpt lat="45.5195677859143" lon="10.82958512820021"><ele>157.0</ele><time>2026-04-26T10:03:10Z</time></trkpt><trkpt lat="45.51962588338269" lon="10.82943333195336"><ele>157.0</ele><time>2026-04-26T10:03:11Z</time></trkpt><trkpt lat="45.519667640513674" lon="10.829325059874071"><ele>158.0</ele><time>2026-04-26T10:03:12Z</time></trkpt><trkpt lat="45.51974337009722" lon="10.82918641726158"><ele>159.0</ele><time>2026-04-26T10:03:13Z</time></trkpt><trkpt lat="45.51982513942081" lon="10.829039769176877"><ele>160.0</ele><time>2026-04-26T10:03:14Z</time></trkpt><trkpt lat="45.51991757251679" lon="10.828878005456557"><ele>161.0</ele><time>2026-04-26T10:03:15Z</time></trkpt><trkpt lat="45.52002570175868" lon="10.82871314039915"><ele>161.0</ele><time>2026-04-26T10:03:16Z</time></trkpt><trkpt lat="45.52011933033377" lon="10.828544617701036"><ele>161.0</ele><time>2026-04-26T10:03:17Z</time></trkpt><trkpt lat="45.52016338650243" lon="10.8283371094357"><ele>161.0</ele><time>2026-04-26T10:03:18Z</time></trkpt><trkpt lat="45.520198656311386" lon="10.82813074061072"><ele>161.66666666666666</ele><time>2026-04-26T10:03:19Z</time></trkpt><trkpt lat="45.520227700108386" lon="10.827905155974408"><ele>162.33333333333334</ele><time>2026-04-26T10:03:20Z</time></trkpt><trkpt lat="45.52026481292008" lon="10.827680957572877"><ele>163.0</ele><time>2026-04-26T10:03:21Z</time></trkpt><trkpt lat="45.52029094160564" lon="10.827436370250977"><ele>163.33333333333334</ele><time>2026-04-26T10:03:22Z</time></trkpt><trkpt lat="45.52032068781284" lon="10.827199153413337"><ele>163.66666666666666</ele><time>2026-04-26T10:03:23Z</time></trkpt><trkpt lat="45.520354838275885" lon="10.826951187860423"><ele>164.0</ele><time>2026-04-26T10:03:24Z</time></trkpt><trkpt lat="45.520382085825624" lon="10.826711905850532"><ele>170.66666666666666</ele><time>2026-04-26T10:03:25Z</time></trkpt><trkpt lat="45.520402375956785" lon="10.826492683176891"><ele>177.33333333333334</ele><time>2026-04-26T10:03:26Z</time></trkpt><trkpt lat="45.52042555416412" lon="10.826279368461789"><ele>184.0</ele><time>2026-04-26T10:03:27Z</time></trkpt><trkpt lat="45.52045272861932" lon="10.826074771628738"><ele>183.25</ele><time>2026-04-26T10:03:28Z</time></trkpt><trkpt lat="45.520486141845616" lon="10.825869926918392"><ele>182.5</ele><time>2026-04-26T10:03:29Z</time></trkpt><trkpt lat="45.520530074503746" lon="10.825677405162342"><ele>181.75</ele><time>2026-04-26T10:03:30Z</time></trkpt><trkpt lat="45.52062193368017" lon="10.825522914456071"><ele>181.0</ele><time>2026-04-26T10:03:31Z</time></trkpt><trkpt lat="45.52071766032225" lon="10.825386829414663"><ele>181.0</ele><time>2026-04-26T10:03:32Z</time></trkpt><trkpt lat="45.52081702675765" lon="10.825291923233062"><ele>181.0</ele><time>2026-04-26T10:03:33Z</time></trkpt><trkpt lat="45.520918292178514" lon="10.825166065937365"><ele>181.0</ele><time>2026-04-26T10:03:34Z</time></trkpt><trkpt lat="45.52111623130745" lon="10.82513552169994"><ele>178.0</ele><time>2026-04-26T10:03:35Z</time></trkpt><trkpt lat="45.521286226748344" lon="10.825102085526806"><ele>175.0</ele><time>2026-04-26T10:03:36Z</time></trkpt><trkpt lat="45.52145245910377" lon="10.825124471768579"><ele>172.0</ele><time>2026-04-26T10:03:37Z</time></trkpt><trkpt lat="45.52159156303145" lon="10.825173726261427"><ele>178.0</ele><time>2026-04-26T10:03:38Z</time></trkpt><trkpt lat="45.52171672511918" lon="10.825269712076393"><ele>184.0</ele><time>2026-04-26T10:03:39Z</time></trkpt><trkpt lat="45.521843391477375" lon="10.825405182103369"><ele>190.0</ele><time>2026-04-26T10:03:40Z</time></trkpt><trkpt lat="45.52197190505699" lon="10.825603922469433"><ele>187.66666666666669</ele><time>2026-04-26T10:03:41Z</time></trkpt><trkpt lat="45.52212494639298" lon="10.825801437800525"><ele>185.33333333333334</ele><time>2026-04-26T10:03:42Z</time></trkpt><trkpt lat="45.522283312104825" lon="10.82600503825005"><ele>183.0</ele><time>2026-04-26T10:03:43Z</time></trkpt><trkpt lat="45.52244173796789" lon="10.82620842053692"><ele>188.33333333333331</ele><time>2026-04-26T10:03:44Z</time></trkpt><trkpt lat="45.522592880573036" lon="10.826370453664262"><ele>193.66666666666666</ele><time>2026-04-26T10:03:45Z</time></trkpt><trkpt lat="45.52272411086772" lon="10.826542771617422"><ele>199.0</ele><time>2026-04-26T10:03:46Z</time></trkpt><trkpt lat="45.52285485466134" lon="10.826725602029873"><ele>200.75</ele><time>2026-04-26T10:03:47Z</time></trkpt><trkpt lat="45.522976510232574" lon="10.826865604935888"><ele>202.5</ele><time>2026-04-26T10:03:48Z</time></trkpt><trkpt lat="45.523086048944535" lon="10.826989254508424"><ele>204.25</ele><time>2026-04-26T10:03:49Z</time></trkpt><trkpt lat="45.523189903173176" lon="10.827061778800926"><ele>206.0</ele><time>2026-04-26T10:03:50Z</time></trkpt><trkpt lat="45.52330910359797" lon="10.827100863842173"><ele>206.0</ele><time>2026-04-26T10:03:51Z</time></trkpt><trkpt lat="45.52344034823226" lon="10.827073148618917"><ele>206.0</ele><time>2026-04-26T10:03:52Z</time></trkpt><trkpt lat="45.52356573228975" lon="10.826997441514894"><ele>206.0</ele><time>2026-04-26T10:03:53Z</time></trkpt><trkpt lat="45.52371519813127" lon="10.826851322170919"><ele>208.0</ele><time>2026-04-26T10:03:54Z</time></trkpt><trkpt lat="45.52388359315155" lon="10.826694979322118"><ele>210.0</ele><time>2026-04-26T10:03:55Z</time></trkpt><trkpt lat="45.52407714376243" lon="10.826550684590373"><ele>212.0</ele><time>2026-04-26T10:03:56Z</time></trkpt><trkpt lat="45.524241818247674" lon="10.826411159336853"><ele>212.0</ele><time>2026-04-26T10:03:57Z</time></trkpt><trkpt lat="45.524386032009936" lon="10.826289612802588"><ele>212.0</ele><time>2026-04-26T10:03:58Z</time></trkpt><trkpt lat="45.52453367641125" lon="10.826176608356961"><ele>212.0</ele><time>2026-04-26T10:03:59Z</time></trkpt><trkpt lat="45.524691664901546" lon="10.826095569729977"><ele>215.33333333333334</ele><time>2026-04-26T10:04:00Z</time></trkpt><trkpt lat="45.52486203427037" lon="10.826072759865214"><ele>218.66666666666669</ele><time>2026-04-26T10:04:01Z</time></trkpt><trkpt lat="45.52503867070319" lon="10.826084385737436"><ele>222.0</ele><time>2026-04-26T10:04:02Z</time></trkpt><trkpt lat="45.52523476327517" lon="10.82608637922167"><ele>222.33333333333331</ele><time>2026-04-26T10:04:03Z</time></trkpt><trkpt lat="45.525435850361326" lon="10.826117971789822"><ele>222.66666666666666</ele><time>2026-04-26T10:04:04Z</time></trkpt><trkpt lat="45.5256515901894" lon="10.826153465200765"><ele>223.0</ele><time>2026-04-26T10:04:05Z</time></trkpt><trkpt lat="45.52588161720993" lon="10.826191361270338"><ele>223.0</ele><time>2026-04-26T10:04:06Z</time></trkpt><trkpt lat="45.526127390370036" lon="10.826223813805331"><ele>223.0</ele><time>2026-04-26T10:04:07Z</time></trkpt><trkpt lat="45.5263723882493" lon="10.82625172422747"><ele>225.33333333333331</ele><time>2026-04-26T10:04:08Z</time></trkpt><trkpt lat="45.526590570897206" lon="10.826282636763603"><ele>227.66666666666669</ele><time>2026-04-26T10:04:09Z</time></trkpt><trkpt lat="45.52678376196069" lon="10.826313621698102"><ele>230.0</ele><time>2026-04-26T10:04:10Z</time></trkpt><trkpt lat="45.52697273445765" lon="10.826325183601861"><ele>231.66666666666669</ele><time>2026-04-26T10:04:11Z</time></trkpt><trkpt lat="45.5271579838642" lon="10.82628973403963"><ele>233.33333333333331</ele><time>2026-04-26T10:04:12Z</time></trkpt><trkpt lat="45.52734376130567" lon="10.826218324244163"><ele>235.0</ele><time>2026-04-26T10:04:13Z</time></trkpt><trkpt lat="45.5275184870573" lon="10.826102193761917"><ele>234.33333333333331</ele><time>2026-04-26T10:04:14Z</time></trkpt><trkpt lat="45.52770270357497" lon="10.82594588013495"><ele>233.66666666666669</ele><time>2026-04-26T10:04:15Z</time></trkpt><trkpt lat="45.52788352892925" lon="10.825761353102589"><ele>233.0</ele><time>2026-04-26T10:04:16Z</time></trkpt><trkpt lat="45.52804412704555" lon="10.82561767763777"><ele>233.0</ele><time>2026-04-26T10:04:17Z</time></trkpt><trkpt lat="45.52820532528837" lon="10.825512242689335"><ele>233.0</ele><time>2026-04-26T10:04:18Z</time></trkpt><trkpt lat="45.52837848502242" lon="10.82542503600857"><ele>233.0</ele><time>2026-04-26T10:04:19Z</time></trkpt><trkpt lat="45.52856324140738" lon="10.825349225699945"><ele>236.66666666666669</ele><time>2026-04-26T10:04:20Z</time></trkpt><trkpt lat="45.5287622661672" lon="10.825318712400197"><ele>240.33333333333331</ele><time>2026-04-26T10:04:21Z</time></trkpt><trkpt lat="45.528953501615796" lon="10.825254301158495"><ele>244.0</ele><time>2026-04-26T10:04:22Z</time></trkpt><trkpt lat="45.529130043756346" lon="10.825226662211255"><ele>244.0</ele><time>2026-04-26T10:04:23Z</time></trkpt><trkpt lat="45.529295899036995" lon="10.825197605750803"><ele>244.0</ele><time>2026-04-26T10:04:24Z</time></trkpt><trkpt lat="45.52945729980402" lon="10.825187311321569"><ele>244.0</ele><time>2026-04-26T10:04:25Z</time></trkpt><trkpt lat="45.52960178982015" lon="10.825222320729926"><ele>244.25</ele><time>2026-04-26T10:04:26Z</time></trkpt><trkpt lat="45.529724284149005" lon="10.825290282113727"><ele>244.5</ele><time>2026-04-26T10:04:27Z</time></trkpt><trkpt lat="45.52984772237383" lon="10.825348487836155"><ele>244.75</ele><time>2026-04-26T10:04:28Z</time></trkpt><trkpt lat="45.529970875910664" lon="10.825475441314476"><ele>245.0</ele><time>2026-04-26T10:04:29Z</time></trkpt><trkpt lat="45.53013189976474" lon="10.825599365371502"><ele>245.0</ele><time>2026-04-26T10:04:30Z</time></trkpt><trkpt lat="45.530315628067854" lon="10.825709655153627"><ele>245.0</ele><time>2026-04-26T10:04:31Z</time></trkpt><trkpt lat="45.53051924691616" lon="10.825771220083878"><ele>245.0</ele><time>2026-04-26T10:04:32Z</time></trkpt><trkpt lat="45.530733325990276" lon="10.825831040841734"><ele>244.66666666666669</ele><time>2026-04-26T10:04:33Z</time></trkpt><trkpt lat="45.53095924328323" lon="10.825921831937052"><ele>244.33333333333331</ele><time>2026-04-26T10:04:34Z</time></trkpt><trkpt lat="45.53113597064231" lon="10.825976423363084"><ele>244.0</ele><time>2026-04-26T10:04:35Z</time></trkpt><trkpt lat="45.53129498158777" lon="10.82602846784735"><ele>247.2</ele><time>2026-04-26T10:04:36Z</time></trkpt><trkpt lat="45.53143698387457" lon="10.826075863955554"><ele>250.39999999999998</ele><time>2026-04-26T10:04:37Z</time></trkpt><trkpt lat="45.531549994906136" lon="10.82611152478344"><ele>253.6</ele><time>2026-04-26T10:04:38Z</time></trkpt><trkpt lat="45.53161964449432" lon="10.826114204470963"><ele>256.8</ele><time>2026-04-26T10:04:39Z</time></trkpt><trkpt lat="45.53168163074892" lon="10.82616823255998"><ele>260.0</ele><time>2026-04-26T10:04:40Z</time></trkpt><trkpt lat="45.531752431640484" lon="10.826231235303977"><ele>260.0</ele><time>2026-04-26T10:04:41Z</time></trkpt><trkpt lat="45.53183449916378" lon="10.826295272275557"><ele>260.0</ele><time>2026-04-26T10:04:42Z</time></trkpt><trkpt lat="45.53193744034141" lon="10.826371128258527"><ele>260.0</ele><time>2026-04-26T10:04:43Z</time></trkpt><trkpt lat="45.532031508718724" lon="10.826419173123126"><ele>260.0</ele><time>2026-04-26T10:04:44Z</time></trkpt><trkpt lat="45.53209669673403" lon="10.82648844248334"><ele>260.0</ele><time>2026-04-26T10:04:45Z</time></trkpt><trkpt lat="45.53215739009132" lon="10.826521515851415"><ele>260.5</ele><time>2026-04-26T10:04:46Z</time></trkpt><trkpt lat="45.532212310754616" lon="10.826580806863191"><ele>261.0</ele><time>2026-04-26T10:04:47Z</time></trkpt><trkpt lat="45.53229951531219" lon="10.826737925298472"><ele>261.5</ele><time>2026-04-26T10:04:49Z</time></trkpt><trkpt lat="45.53234575825444" lon="10.826816885526894"><ele>262.0</ele><time>2026-04-26T10:04:50Z</time></trkpt><trkpt lat="45.53239111419831" lon="10.826905990067745"><ele>262.5</ele><time>2026-04-26T10:04:51Z</time></trkpt><trkpt lat="45.5324238919072" lon="10.826994743202613"><ele>263.0</ele><time>2026-04-26T10:04:52Z</time></trkpt><trkpt lat="45.53244987316506" lon="10.827110269527534"><ele>263.0</ele><time>2026-04-26T10:04:53Z</time></trkpt><trkpt lat="45.53246834616838" lon="10.827227747967868"><ele>263.0</ele><time>2026-04-26T10:04:54Z</time></trkpt><trkpt lat="45.5324764256313" lon="10.827318961525007"><ele>263.0</ele><time>2026-04-26T10:04:55Z</time></trkpt><trkpt lat="45.53250798614569" lon="10.82740359663516"><ele>263.0</ele><time>2026-04-26T10:04:56Z</time></trkpt><trkpt lat="45.532544057551476" lon="10.827477873706554"><ele>263.0</ele><time>2026-04-26T10:04:57Z</time></trkpt><trkpt lat="45.532585186869206" lon="10.827550705427972"><ele>263.0</ele><time>2026-04-26T10:04:58Z</time></trkpt><trkpt lat="45.532640939229864" lon="10.827611364893727"><ele>263.0</ele><time>2026-04-26T10:04:59Z</time></trkpt><trkpt lat="45.53276443416836" lon="10.827703055398349"><ele>263.0</ele><time>2026-04-26T10:05:01Z</time></trkpt><trkpt lat="45.53285668091825" lon="10.827724305902061"><ele>263.0</ele><time>2026-04-26T10:05:02Z</time></trkpt><trkpt lat="45.53294579625736" lon="10.827730688361827"><ele>263.0</ele><time>2026-04-26T10:05:03Z</time></trkpt><trkpt lat="45.53304465612798" lon="10.827727487366033"><ele>263.0</ele><time>2026-04-26T10:05:04Z</time></trkpt><trkpt lat="45.533144500405804" lon="10.827724081250917"><ele>263.0</ele><time>2026-04-26T10:05:05Z</time></trkpt><trkpt lat="45.53325068038529" lon="10.827728196001242"><ele>263.0</ele><time>2026-04-26T10:05:06Z</time></trkpt><trkpt lat="45.53334795748404" lon="10.827735471433567"><ele>263.0</ele><time>2026-04-26T10:05:07Z</time></trkpt><trkpt lat="45.53344347919924" lon="10.827731122334312"><ele>263.0</ele><time>2026-04-26T10:05:08Z</time></trkpt><trkpt lat="45.53352688450433" lon="10.827750920728816"><ele>263.0</ele><time>2026-04-26T10:05:09Z</time></trkpt><trkpt lat="45.53359646725099" lon="10.827762733402793"><ele>263.0</ele><time>2026-04-26T10:05:10Z</time></trkpt><trkpt lat="45.5336512569608" lon="10.827807252664226"><ele>263.0</ele><time>2026-04-26T10:05:11Z</time></trkpt><trkpt lat="45.53374704238889" lon="10.827871806855194"><ele>262.1666666666667</ele><time>2026-04-26T10:05:13Z</time></trkpt><trkpt lat="45.533798602127604" lon="10.827932143125166"><ele>261.33333333333337</ele><time>2026-04-26T10:05:14Z</time></trkpt><trkpt lat="45.53385609331559" lon="10.827998614657629"><ele>260.5</ele><time>2026-04-26T10:05:15Z</time></trkpt><trkpt lat="45.53390833036835" lon="10.828057977426033"><ele>259.6666666666667</ele><time>2026-04-26T10:05:16Z</time></trkpt><trkpt lat="45.5340019327175" lon="10.828166440955334"><ele>258.8333333333333</ele><time>2026-04-26T10:05:18Z</time></trkpt><trkpt lat="45.534052207891136" lon="10.828260870031801"><ele>258.0</ele><time>2026-04-26T10:05:20Z</time></trkpt><trkpt lat="45.534030178151106" lon="10.828397551209163"><ele>256.2</ele><time>2026-04-26T10:05:22Z</time></trkpt><trkpt lat="45.53404708898333" lon="10.828487304368803"><ele>254.4</ele><time>2026-04-26T10:05:24Z</time></trkpt><trkpt lat="45.53407532371059" lon="10.828570271240547"><ele>252.59999999999997</ele><time>2026-04-26T10:05:27Z</time></trkpt><trkpt lat="45.534108307961056" lon="10.828662348049178"><ele>250.79999999999998</ele><time>2026-04-26T10:05:55Z</time></trkpt><trkpt lat="45.53404679973841" lon="10.828786950304517"><ele>249.0</ele><time>2026-04-26T10:05:58Z</time></trkpt><trkpt lat="45.53388192487178" lon="10.82885246342981"><ele>249.0</ele><time>2026-04-26T10:05:59Z</time></trkpt><trkpt lat="45.53381259694192" lon="10.82890799316561"><ele>248.99999999999997</ele><time>2026-04-26T10:06:00Z</time></trkpt><trkpt lat="45.5337538389825" lon="10.828953745473823"><ele>249.0</ele><time>2026-04-26T10:06:01Z</time></trkpt><trkpt lat="45.53368875729587" lon="10.828997252614778"><ele>249.0</ele><time>2026-04-26T10:06:02Z</time></trkpt><trkpt lat="45.53362150454108" lon="10.829030949871406"><ele>248.99999999999997</ele><time>2026-04-26T10:06:03Z</time></trkpt><trkpt lat="45.53354307820358" lon="10.829075197385471"><ele>249.0</ele><time>2026-04-26T10:06:04Z</time></trkpt><trkpt lat="45.53348461701278" lon="10.829124066688532"><ele>249.0</ele><time>2026-04-26T10:06:05Z</time></trkpt><trkpt lat="45.53343239997293" lon="10.829195212661055"><ele>249.39999999999998</ele><time>2026-04-26T10:06:06Z</time></trkpt><trkpt lat="45.53337148544302" lon="10.829286146149007"><ele>249.79999999999998</ele><time>2026-04-26T10:06:07Z</time></trkpt><trkpt lat="45.533312074225286" lon="10.829381406876108"><ele>250.20000000000002</ele><time>2026-04-26T10:06:08Z</time></trkpt><trkpt lat="45.53325625011391" lon="10.829485585152955"><ele>250.60000000000002</ele><time>2026-04-26T10:06:09Z</time></trkpt><trkpt lat="45.533187913705014" lon="10.829575080511585"><ele>251.0</ele><time>2026-04-26T10:06:10Z</time></trkpt><trkpt lat="45.53312902630624" lon="10.829676354823699"><ele>251.0</ele><time>2026-04-26T10:06:11Z</time></trkpt><trkpt lat="45.533064416546985" lon="10.829805692303253"><ele>251.00000000000003</ele><time>2026-04-26T10:06:12Z</time></trkpt><trkpt lat="45.53300414425865" lon="10.829930516832976"><ele>251.00000000000003</ele><time>2026-04-26T10:06:13Z</time></trkpt><trkpt lat="45.53294382360688" lon="10.830042330001996"><ele>251.0</ele><time>2026-04-26T10:06:14Z</time></trkpt><trkpt lat="45.532890960194635" lon="10.830158858618303"><ele>251.0</ele><time>2026-04-26T10:06:15Z</time></trkpt><trkpt lat="45.532844846696406" lon="10.830280059196058"><ele>253.4</ele><time>2026-04-26T10:06:16Z</time></trkpt><trkpt lat="45.532802894579" lon="10.830387241917252"><ele>255.8</ele><time>2026-04-26T10:06:17Z</time></trkpt><trkpt lat="45.532761842675455" lon="10.830483943225786"><ele>258.20000000000005</ele><time>2026-04-26T10:06:18Z</time></trkpt><trkpt lat="45.53274036571164" lon="10.83060515584659"><ele>260.6</ele><time>2026-04-26T10:06:19Z</time></trkpt><trkpt lat="45.532699036938844" lon="10.83073608061523"><ele>263.0</ele><time>2026-04-26T10:06:20Z</time></trkpt><trkpt lat="45.532679262914776" lon="10.830873380527576"><ele>261.0</ele><time>2026-04-26T10:06:21Z</time></trkpt><trkpt lat="45.53265332395522" lon="10.831000972609043"><ele>259.0</ele><time>2026-04-26T10:06:22Z</time></trkpt><trkpt lat="45.53262037963991" lon="10.83111779208613"><ele>257.0</ele><time>2026-04-26T10:06:23Z</time></trkpt><trkpt lat="45.53258096867477" lon="10.83123734919285"><ele>255.0</ele><time>2026-04-26T10:06:24Z</time></trkpt><trkpt lat="45.53253303269418" lon="10.831364357809642"><ele>253.0</ele><time>2026-04-26T10:06:25Z</time></trkpt><trkpt lat="45.53246654780674" lon="10.831498401612475"><ele>253.0</ele><time>2026-04-26T10:06:26Z</time></trkpt><trkpt lat="45.53239952979041" lon="10.831624890827792"><ele>253.0</ele><time>2026-04-26T10:06:27Z</time></trkpt><trkpt lat="45.53234146355034" lon="10.831754487751576"><ele>253.0</ele><time>2026-04-26T10:06:28Z</time></trkpt><trkpt lat="45.532287199549806" lon="10.831868383542657"><ele>253.0</ele><time>2026-04-26T10:06:29Z</time></trkpt><trkpt lat="45.53222566685685" lon="10.831985195512933"><ele>253.0</ele><time>2026-04-26T10:06:30Z</time></trkpt><trkpt lat="45.53216412144292" lon="10.832129566243845"><ele>252.4</ele><time>2026-04-26T10:06:31Z</time></trkpt><trkpt lat="45.532094415382815" lon="10.832275955900547"><ele>251.8</ele><time>2026-04-26T10:06:32Z</time></trkpt><trkpt lat="45.53203121232407" lon="10.832399366939482"><ele>251.2</ele><time>2026-04-26T10:06:33Z</time></trkpt><trkpt lat="45.531997105288134" lon="10.832485759188742"><ele>250.6</ele><time>2026-04-26T10:06:34Z</time></trkpt><trkpt lat="45.531959451170415" lon="10.832585776183866"><ele>250.0</ele><time>2026-04-26T10:06:35Z</time></trkpt><trkpt lat="45.531903293034624" lon="10.832695763723063"><ele>250.0</ele><time>2026-04-26T10:06:36Z</time></trkpt><trkpt lat="45.53185346007975" lon="10.832795800319001"><ele>250.0</ele><time>2026-04-26T10:06:37Z</time></trkpt><trkpt lat="45.531806369378494" lon="10.832897048531112"><ele>250.0</ele><time>2026-04-26T10:06:38Z</time></trkpt><trkpt lat="45.531714985529554" lon="10.833089618110456"><ele>250.0</ele><time>2026-04-26T10:06:40Z</time></trkpt><trkpt lat="45.53167491464945" lon="10.833233631685848"><ele>250.0</ele><time>2026-04-26T10:06:41Z</time></trkpt><trkpt lat="45.5316440740384" lon="10.83338096488606"><ele>250.0</ele><time>2026-04-26T10:06:42Z</time></trkpt><trkpt lat="45.531610795741756" lon="10.83348627053527"><ele>250.0</ele><time>2026-04-26T10:06:43Z</time></trkpt><trkpt lat="45.53151555532448" lon="10.833661378153389"><ele>250.0</ele><time>2026-04-26T10:06:45Z</time></trkpt><trkpt lat="45.53142804440385" lon="10.833777094829692"><ele>250.0</ele><time>2026-04-26T10:06:46Z</time></trkpt><trkpt lat="45.531354484884154" lon="10.833887253876368"><ele>250.0</ele><time>2026-04-26T10:06:47Z</time></trkpt><trkpt lat="45.53127843698987" lon="10.834013293429486"><ele>250.0</ele><time>2026-04-26T10:06:49Z</time></trkpt><trkpt lat="45.53121040417797" lon="10.834132067578421"><ele>250.0</ele><time>2026-04-26T10:06:51Z</time></trkpt><trkpt lat="45.531227080409955" lon="10.834242822616915"><ele>250.0</ele><time>2026-04-26T10:06:53Z</time></trkpt><trkpt lat="45.53125932947092" lon="10.834348607745438"><ele>250.0</ele><time>2026-04-26T10:06:54Z</time></trkpt><trkpt lat="45.5312973549734" lon="10.834460205021204"><ele>250.6</ele><time>2026-04-26T10:06:55Z</time></trkpt><trkpt lat="45.53133012110535" lon="10.8345425390305"><ele>251.2</ele><time>2026-04-26T10:06:56Z</time></trkpt><trkpt lat="45.531334039097686" lon="10.834669132872188"><ele>251.8</ele><time>2026-04-26T10:06:58Z</time></trkpt><trkpt lat="45.531269215834634" lon="10.834770103755808"><ele>252.4</ele><time>2026-04-26T10:06:59Z</time></trkpt><trkpt lat="45.531236077126565" lon="10.834933292911874"><ele>253.0</ele><time>2026-04-26T10:07:00Z</time></trkpt><trkpt lat="45.531190029705584" lon="10.835091023987136"><ele>253.2</ele><time>2026-04-26T10:07:01Z</time></trkpt><trkpt lat="45.531156236399056" lon="10.835220141358095"><ele>253.4</ele><time>2026-04-26T10:07:02Z</time></trkpt><trkpt lat="45.531134927499615" lon="10.835312506897157"><ele>253.59999999999997</ele><time>2026-04-26T10:07:03Z</time></trkpt><trkpt lat="45.53111895059313" lon="10.83542903444521"><ele>253.79999999999998</ele><time>2026-04-26T10:07:05Z</time></trkpt><trkpt lat="45.53123178680622" lon="10.835409607361315"><ele>254.0</ele><time>2026-04-26T10:07:09Z</time></trkpt><trkpt lat="45.53127650125485" lon="10.835266341190819"><ele>253.75</ele><time>2026-04-26T10:07:10Z</time></trkpt><trkpt lat="45.53132740848728" lon="10.835053245812071"><ele>253.5</ele><time>2026-04-26T10:07:11Z</time></trkpt><trkpt lat="45.53138602585084" lon="10.83488072083588"><ele>253.25</ele><time>2026-04-26T10:07:12Z</time></trkpt><trkpt lat="45.5314493810717" lon="10.834724986833754"><ele>253.0</ele><time>2026-04-26T10:07:13Z</time></trkpt><trkpt lat="45.53153299913812" lon="10.834619218379151"><ele>253.0</ele><time>2026-04-26T10:07:13.999Z</time></trkpt><trkpt lat="45.53162370322819" lon="10.834526096951484"><ele>253.0</ele><time>2026-04-26T10:07:14.999Z</time></trkpt><trkpt lat="45.531729038076705" lon="10.83444859107889"><ele>253.0</ele><time>2026-04-26T10:07:15.999Z</time></trkpt><trkpt lat="45.53186049764858" lon="10.834406697187877"><ele>253.0</ele><time>2026-04-26T10:07:16.999Z</time></trkpt><trkpt lat="45.53203659819049" lon="10.834372041031875"><ele>255.66666666666666</ele><time>2026-04-26T10:07:17.999Z</time></trkpt><trkpt lat="45.53221230045348" lon="10.834315022443624"><ele>258.3333333333333</ele><time>2026-04-26T10:07:18.999Z</time></trkpt><trkpt lat="45.53240298915931" lon="10.834236194036796"><ele>261.0</ele><time>2026-04-26T10:07:19.999Z</time></trkpt><trkpt lat="45.532581796631916" lon="10.834131942499303"><ele>261.0</ele><time>2026-04-26T10:07:20.999Z</time></trkpt><trkpt lat="45.5327340846559" lon="10.834041424958395"><ele>261.0</ele><time>2026-04-26T10:07:21.999Z</time></trkpt><trkpt lat="45.53287614582157" lon="10.833959788723972"><ele>261.0</ele><time>2026-04-26T10:07:22.999Z</time></trkpt><trkpt lat="45.53302391739776" lon="10.833876706952838"><ele>265.6666666666667</ele><time>2026-04-26T10:07:23.999Z</time></trkpt><trkpt lat="45.53317828793006" lon="10.833783969924683"><ele>270.33333333333337</ele><time>2026-04-26T10:07:24.999Z</time></trkpt><trkpt lat="45.53333834966849" lon="10.833700340794467"><ele>275.0</ele><time>2026-04-26T10:07:25.999Z</time></trkpt><trkpt lat="45.533501864176735" lon="10.83361857422334"><ele>275.0</ele><time>2026-04-26T10:07:26.999Z</time></trkpt><trkpt lat="45.53364419909333" lon="10.833552324335201"><ele>275.0</ele><time>2026-04-26T10:07:27.999Z</time></trkpt><trkpt lat="45.53377558790334" lon="10.83348216923186"><ele>275.0</ele><time>2026-04-26T10:07:28.999Z</time></trkpt><trkpt lat="45.53389832889027" lon="10.833424565374594"><ele>275.0</ele><time>2026-04-26T10:07:29.999Z</time></trkpt><trkpt lat="45.53403243094223" lon="10.833389008654558"><ele>273.0</ele><time>2026-04-26T10:07:30.999Z</time></trkpt><trkpt lat="45.53416792896158" lon="10.833409210244612"><ele>271.0</ele><time>2026-04-26T10:07:31.999Z</time></trkpt><trkpt lat="45.534307981148494" lon="10.833458253525315"><ele>269.0</ele><time>2026-04-26T10:07:32.999Z</time></trkpt><trkpt lat="45.534435894260504" lon="10.833486637070976"><ele>267.0</ele><time>2026-04-26T10:07:34Z</time></trkpt><trkpt lat="45.53451884457186" lon="10.833478531467652"><ele>268.3333333333333</ele><time>2026-04-26T10:07:35Z</time></trkpt><trkpt lat="45.53457798261846" lon="10.833519587914378"><ele>269.6666666666667</ele><time>2026-04-26T10:07:36Z</time></trkpt><trkpt lat="45.534648394947425" lon="10.83350277370989"><ele>271.0</ele><time>2026-04-26T10:07:38Z</time></trkpt><trkpt lat="45.53468372012082" lon="10.833412695446643"><ele>272.33333333333337</ele><time>2026-04-26T10:07:56Z</time></trkpt><trkpt lat="45.534734934058676" lon="10.833351344360965"><ele>273.6666666666667</ele><time>2026-04-26T10:07:57Z</time></trkpt><trkpt lat="45.534833122136476" lon="10.833309483368229"><ele>275.0</ele><time>2026-04-26T10:07:58Z</time></trkpt><trkpt lat="45.534931953922744" lon="10.833274028588868"><ele>275.0</ele><time>2026-04-26T10:07:59Z</time></trkpt><trkpt lat="45.5350413908221" lon="10.833222934330694"><ele>275.0</ele><time>2026-04-26T10:08:00Z</time></trkpt><trkpt lat="45.53518082455355" lon="10.833188798867587"><ele>275.0</ele><time>2026-04-26T10:08:01Z</time></trkpt><trkpt lat="45.53533119628237" lon="10.833160138437545"><ele>275.0</ele><time>2026-04-26T10:08:02Z</time></trkpt><trkpt lat="45.53547510353661" lon="10.833106982450174"><ele>274.75</ele><time>2026-04-26T10:08:03Z</time></trkpt><trkpt lat="45.535617295519586" lon="10.833004635912426"><ele>274.5</ele><time>2026-04-26T10:08:04Z</time></trkpt><trkpt lat="45.535734146494896" lon="10.832856625625253"><ele>274.25</ele><time>2026-04-26T10:08:05Z</time></trkpt><trkpt lat="45.535817410981856" lon="10.832710706431918"><ele>274.0</ele><time>2026-04-26T10:08:06Z</time></trkpt><trkpt lat="45.5359022736864" lon="10.832569621883488"><ele>274.0</ele><time>2026-04-26T10:08:07Z</time></trkpt><trkpt lat="45.53599723100817" lon="10.832448826576178"><ele>274.0</ele><time>2026-04-26T10:08:08Z</time></trkpt><trkpt lat="45.53610409452221" lon="10.83236297524075"><ele>274.0</ele><time>2026-04-26T10:08:09Z</time></trkpt><trkpt lat="45.536232933449256" lon="10.832315668981574"><ele>274.0</ele><time>2026-04-26T10:08:10Z</time></trkpt><trkpt lat="45.53636266228303" lon="10.832336535147645"><ele>277.3333333333333</ele><time>2026-04-26T10:08:11Z</time></trkpt><trkpt lat="45.53648391651611" lon="10.832416309441685"><ele>280.6666666666667</ele><time>2026-04-26T10:08:12Z</time></trkpt><trkpt lat="45.536619074238786" lon="10.832530963292596"><ele>284.0</ele><time>2026-04-26T10:08:13Z</time></trkpt><trkpt lat="45.536783467479836" lon="10.832650938130442"><ele>289.0</ele><time>2026-04-26T10:08:14Z</time></trkpt><trkpt lat="45.536964564015754" lon="10.832767755448302"><ele>294.0</ele><time>2026-04-26T10:08:15Z</time></trkpt><trkpt lat="45.537117354069466" lon="10.832868359004197"><ele>299.0</ele><time>2026-04-26T10:08:16Z</time></trkpt><trkpt lat="45.53726692150593" lon="10.832917612707377"><ele>299.6666666666667</ele><time>2026-04-26T10:08:17Z</time></trkpt><trkpt lat="45.5374282353344" lon="10.832907118218715"><ele>300.3333333333333</ele><time>2026-04-26T10:08:18Z</time></trkpt><trkpt lat="45.53760286011021" lon="10.832856292283601"><ele>301.0</ele><time>2026-04-26T10:08:19Z</time></trkpt><trkpt lat="45.537796267876615" lon="10.83277156837158"><ele>299.0</ele><time>2026-04-26T10:08:20Z</time></trkpt><trkpt lat="45.537980547342855" lon="10.832657478651385"><ele>297.0</ele><time>2026-04-26T10:08:21Z</time></trkpt><trkpt lat="45.53813553330566" lon="10.832520132157404"><ele>295.0</ele><time>2026-04-26T10:08:22Z</time></trkpt><trkpt lat="45.53827075459144" lon="10.832405568169104"><ele>295.0</ele><time>2026-04-26T10:08:23Z</time></trkpt><trkpt lat="45.53842075975353" lon="10.832335437855786"><ele>295.0</ele><time>2026-04-26T10:08:24Z</time></trkpt><trkpt lat="45.53858139202304" lon="10.832319641507402"><ele>295.0</ele><time>2026-04-26T10:08:25Z</time></trkpt><trkpt lat="45.538739386619156" lon="10.83235293684395"><ele>295.3333333333333</ele><time>2026-04-26T10:08:26Z</time></trkpt><trkpt lat="45.538891691514536" lon="10.832434153387034"><ele>295.6666666666667</ele><time>2026-04-26T10:08:27Z</time></trkpt><trkpt lat="45.53904948397653" lon="10.832557702540184"><ele>296.0</ele><time>2026-04-26T10:08:28Z</time></trkpt><trkpt lat="45.539192543528166" lon="10.832710557759537"><ele>300.5</ele><time>2026-04-26T10:08:29Z</time></trkpt><trkpt lat="45.539327777659416" lon="10.832820188766046"><ele>305.0</ele><time>2026-04-26T10:08:30Z</time></trkpt><trkpt lat="45.5394179734372" lon="10.832966183546974"><ele>309.5</ele><time>2026-04-26T10:08:31Z</time></trkpt><trkpt lat="45.53948276056698" lon="10.833152991487262"><ele>314.0</ele><time>2026-04-26T10:08:32Z</time></trkpt><trkpt lat="45.53952750250487" lon="10.83335773812955"><ele>314.75</ele><time>2026-04-26T10:08:33Z</time></trkpt><trkpt lat="45.539587076430244" lon="10.833547224829635"><ele>315.5</ele><time>2026-04-26T10:08:34Z</time></trkpt><trkpt lat="45.53968573345018" lon="10.833679335092198"><ele>316.25</ele><time>2026-04-26T10:08:35Z</time></trkpt><trkpt lat="45.53981378827201" lon="10.83378310997138"><ele>317.0</ele><time>2026-04-26T10:08:36Z</time></trkpt><trkpt lat="45.539992301071656" lon="10.833854800413866"><ele>317.0</ele><time>2026-04-26T10:08:37Z</time></trkpt><trkpt lat="45.54019015176647" lon="10.833879222862757"><ele>317.0</ele><time>2026-04-26T10:08:38Z</time></trkpt><trkpt lat="45.54039852588842" lon="10.833891954915776"><ele>317.0</ele><time>2026-04-26T10:08:39Z</time></trkpt><trkpt lat="45.540628760175586" lon="10.83391728936192"><ele>319.5</ele><time>2026-04-26T10:08:40Z</time></trkpt><trkpt lat="45.54087035876596" lon="10.833940111974401"><ele>322.0</ele><time>2026-04-26T10:08:41Z</time></trkpt><trkpt lat="45.54108663401475" lon="10.833961950002353"><ele>322.66666666666663</ele><time>2026-04-26T10:08:42Z</time></trkpt><trkpt lat="45.541286831478345" lon="10.83398219027112"><ele>323.3333333333333</ele><time>2026-04-26T10:08:43Z</time></trkpt><trkpt lat="45.541476884648546" lon="10.833966375913732"><ele>324.0</ele><time>2026-04-26T10:08:44Z</time></trkpt><trkpt lat="45.54165944063075" lon="10.83396152393657"><ele>324.0</ele><time>2026-04-26T10:08:45Z</time></trkpt><trkpt lat="45.54181400122249" lon="10.834006946529179"><ele>324.0</ele><time>2026-04-26T10:08:46Z</time></trkpt><trkpt lat="45.54193561154149" lon="10.834108986325202"><ele>324.0</ele><time>2026-04-26T10:08:47Z</time></trkpt><trkpt lat="45.54205151184144" lon="10.834272448885097"><ele>326.25</ele><time>2026-04-26T10:08:48Z</time></trkpt><trkpt lat="45.542141325176395" lon="10.834406241454555"><ele>328.5</ele><time>2026-04-26T10:08:49Z</time></trkpt><trkpt lat="45.54225048322771" lon="10.834478505189404"><ele>330.75</ele><time>2026-04-26T10:08:50Z</time></trkpt><trkpt lat="45.54236987346812" lon="10.83456989284443"><ele>333.0</ele><time>2026-04-26T10:08:51Z</time></trkpt><trkpt lat="45.5425293315637" lon="10.834622426297111"><ele>333.0</ele><time>2026-04-26T10:08:52Z</time></trkpt><trkpt lat="45.542681505073936" lon="10.834675789117"><ele>333.0</ele><time>2026-04-26T10:08:53Z</time></trkpt><trkpt lat="45.54285632485202" lon="10.83470559650791"><ele>333.0</ele><time>2026-04-26T10:08:54Z</time></trkpt><trkpt lat="45.54305123986451" lon="10.834745632889007"><ele>332.6666666666667</ele><time>2026-04-26T10:08:55Z</time></trkpt><trkpt lat="45.54326226273615" lon="10.834785092635915"><ele>332.33333333333337</ele><time>2026-04-26T10:08:56Z</time></trkpt><trkpt lat="45.54348672597302" lon="10.834825225306455"><ele>332.0</ele><time>2026-04-26T10:08:57Z</time></trkpt><trkpt lat="45.54372995136722" lon="10.834819333571673"><ele>334.0</ele><time>2026-04-26T10:08:58Z</time></trkpt><trkpt lat="45.54397036671442" lon="10.834823601232493"><ele>336.0</ele><time>2026-04-26T10:08:59Z</time></trkpt><trkpt lat="45.54421450026956" lon="10.834788543939602"><ele>336.0</ele><time>2026-04-26T10:09:01Z</time></trkpt><trkpt lat="45.544406569084224" lon="10.834775409854661"><ele>336.0</ele><time>2026-04-26T10:09:02Z</time></trkpt><trkpt lat="45.54457749109797" lon="10.834822380621961"><ele>336.0</ele><time>2026-04-26T10:09:03Z</time></trkpt><trkpt lat="45.54475000150657" lon="10.834874153438978"><ele>335.6666666666667</ele><time>2026-04-26T10:09:04Z</time></trkpt><trkpt lat="45.5448919613612" lon="10.834941532682887"><ele>335.33333333333337</ele><time>2026-04-26T10:09:05Z</time></trkpt><trkpt lat="45.54501898734912" lon="10.835060706681768"><ele>335.0</ele><time>2026-04-26T10:09:06Z</time></trkpt><trkpt lat="45.54514978690268" lon="10.83521095779636"><ele>336.6666666666667</ele><time>2026-04-26T10:09:07Z</time></trkpt><trkpt lat="45.5452697352217" lon="10.835379320646677"><ele>338.3333333333333</ele><time>2026-04-26T10:09:08Z</time></trkpt><trkpt lat="45.545378853861386" lon="10.835567195781337"><ele>340.0</ele><time>2026-04-26T10:09:09Z</time></trkpt><trkpt lat="45.54546080927981" lon="10.835747964053686"><ele>340.0</ele><time>2026-04-26T10:09:10Z</time></trkpt><trkpt lat="45.54550509015957" lon="10.835916848527267"><ele>340.0</ele><time>2026-04-26T10:09:11Z</time></trkpt><trkpt lat="45.54550303886203" lon="10.836076944093778"><ele>340.0</ele><time>2026-04-26T10:09:12Z</time></trkpt><trkpt lat="45.54547650691767" lon="10.836235418159871"><ele>340.0</ele><time>2026-04-26T10:09:13Z</time></trkpt><trkpt lat="45.54541506902165" lon="10.836377148909344"><ele>344.0</ele><time>2026-04-26T10:09:14Z</time></trkpt><trkpt lat="45.54532846365822" lon="10.836496044962791"><ele>348.0</ele><time>2026-04-26T10:09:15Z</time></trkpt><trkpt lat="45.54518880237966" lon="10.836616986897726"><ele>352.0</ele><time>2026-04-26T10:09:16Z</time></trkpt><trkpt lat="45.545013693709485" lon="10.836704157683535"><ele>352.0</ele><time>2026-04-26T10:09:17Z</time></trkpt><trkpt lat="45.54480972642661" lon="10.836786356890379"><ele>352.0</ele><time>2026-04-26T10:09:18Z</time></trkpt><trkpt lat="45.54459581478067" lon="10.836868209881018"><ele>352.0</ele><time>2026-04-26T10:09:19Z</time></trkpt><trkpt lat="45.54437536636816" lon="10.83696065295273"><ele>353.3333333333333</ele><time>2026-04-26T10:09:20Z</time></trkpt><trkpt lat="45.54416820953364" lon="10.837047522481802"><ele>354.6666666666667</ele><time>2026-04-26T10:09:21Z</time></trkpt><trkpt lat="45.54398765556293" lon="10.837125154822154"><ele>356.0</ele><time>2026-04-26T10:09:22Z</time></trkpt><trkpt lat="45.54382387099009" lon="10.837193052735168"><ele>358.5</ele><time>2026-04-26T10:09:23Z</time></trkpt><trkpt lat="45.54368650310875" lon="10.837260946196979"><ele>361.0</ele><time>2026-04-26T10:09:24Z</time></trkpt><trkpt lat="45.54356839753272" lon="10.837338581173789"><ele>363.5</ele><time>2026-04-26T10:09:25Z</time></trkpt><trkpt lat="45.54347846654989" lon="10.837443390795555"><ele>366.0</ele><time>2026-04-26T10:09:26Z</time></trkpt><trkpt lat="45.54340713172339" lon="10.837555244118365"><ele>366.4</ele><time>2026-04-26T10:09:27Z</time></trkpt><trkpt lat="45.54335955405806" lon="10.837662474488187"><ele>366.8</ele><time>2026-04-26T10:09:28Z</time></trkpt><trkpt lat="45.54332181917739" lon="10.837775176985135"><ele>367.2</ele><time>2026-04-26T10:09:29Z</time></trkpt><trkpt lat="45.54328531385225" lon="10.837883373768365"><ele>367.59999999999997</ele><time>2026-04-26T10:09:30Z</time></trkpt><trkpt lat="45.54322531242503" lon="10.83803411297681"><ele>368.0</ele><time>2026-04-26T10:09:32Z</time></trkpt><trkpt lat="45.54318215529577" lon="10.838109948272358"><ele>368.0</ele><time>2026-04-26T10:09:33Z</time></trkpt><trkpt lat="45.54312544466246" lon="10.83818185419315"><ele>368.0</ele><time>2026-04-26T10:09:34Z</time></trkpt><trkpt lat="45.543052017773064" lon="10.838256277187545"><ele>368.0</ele><time>2026-04-26T10:09:35Z</time></trkpt><trkpt lat="45.54297282066291" lon="10.838326258306921"><ele>368.0</ele><time>2026-04-26T10:09:35.999Z</time></trkpt><trkpt lat="45.542891791202806" lon="10.838377070533882"><ele>368.0</ele><time>2026-04-26T10:09:36.999Z</time></trkpt><trkpt lat="45.542829373724885" lon="10.838427867141117"><ele>368.0</ele><time>2026-04-26T10:09:37.999Z</time></trkpt><trkpt lat="45.5427743404209" lon="10.838512186188028"><ele>371.2</ele><time>2026-04-26T10:09:38.999Z</time></trkpt><trkpt lat="45.542740691134036" lon="10.838629714060128"><ele>374.4</ele><time>2026-04-26T10:09:39.999Z</time></trkpt><trkpt lat="45.54273968574797" lon="10.838759742880285"><ele>377.59999999999997</ele><time>2026-04-26T10:09:40.999Z</time></trkpt><trkpt lat="45.54276529843604" lon="10.838890349849422"><ele>380.79999999999995</ele><time>2026-04-26T10:09:41.999Z</time></trkpt><trkpt lat="45.54279506946858" lon="10.839041809399241"><ele>384.0</ele><time>2026-04-26T10:09:43Z</time></trkpt><trkpt lat="45.542832499526206" lon="10.83921567361768"><ele>384.3333333333333</ele><time>2026-04-26T10:09:44Z</time></trkpt><trkpt lat="45.542859945624535" lon="10.83936481039709"><ele>384.66666666666663</ele><time>2026-04-26T10:09:45Z</time></trkpt><trkpt lat="45.54288564122686" lon="10.839477078846999"><ele>385.0</ele><time>2026-04-26T10:09:46Z</time></trkpt><trkpt lat="45.54290341653981" lon="10.839564435555197"><ele>385.3333333333333</ele><time>2026-04-26T10:09:47Z</time></trkpt><trkpt lat="45.542927685139176" lon="10.839706535423108"><ele>385.66666666666663</ele><time>2026-04-26T10:09:49Z</time></trkpt><trkpt lat="45.542978967715015" lon="10.839771934950571"><ele>386.0</ele><time>2026-04-26T10:09:53Z</time></trkpt><trkpt lat="45.542883419767335" lon="10.839601250822495"><ele>385.5</ele><time>2026-04-26T10:10:15Z</time></trkpt><trkpt lat="45.54283157353664" lon="10.839448185895804"><ele>385.0</ele><time>2026-04-26T10:10:16Z</time></trkpt><trkpt lat="45.54278422779967" lon="10.839274602105837"><ele>384.5</ele><time>2026-04-26T10:10:17Z</time></trkpt><trkpt lat="45.54274602154813" lon="10.83913182356861"><ele>384.0</ele><time>2026-04-26T10:10:18Z</time></trkpt><trkpt lat="45.54270569335305" lon="10.838982672385374"><ele>384.0</ele><time>2026-04-26T10:10:19Z</time></trkpt><trkpt lat="45.542666801166526" lon="10.838845582201852"><ele>384.0</ele><time>2026-04-26T10:10:20Z</time></trkpt><trkpt lat="45.54261618784579" lon="10.838704844587276"><ele>384.0</ele><time>2026-04-26T10:10:21Z</time></trkpt><trkpt lat="45.54258834208074" lon="10.838591969625256"><ele>384.0</ele><time>2026-04-26T10:10:22Z</time></trkpt><trkpt lat="45.54258724247649" lon="10.838484786039047"><ele>384.0</ele><time>2026-04-26T10:10:24Z</time></trkpt><trkpt lat="45.54310799197729" lon="10.838244762719077"><ele>380.0</ele><time>2026-04-26T10:10:25Z</time></trkpt><trkpt lat="45.54320567791513" lon="10.838139237382322"><ele>376.0</ele><time>2026-04-26T10:10:26Z</time></trkpt><trkpt lat="45.54327832533892" lon="10.838003872808022"><ele>372.0</ele><time>2026-04-26T10:10:27Z</time></trkpt><trkpt lat="45.54333577122176" lon="10.837837926669359"><ele>368.0</ele><time>2026-04-26T10:10:28Z</time></trkpt><trkpt lat="45.54339870395064" lon="10.837649859518176"><ele>367.5</ele><time>2026-04-26T10:10:29Z</time></trkpt><trkpt lat="45.54348322631053" lon="10.837488822078354"><ele>367.0</ele><time>2026-04-26T10:10:30Z</time></trkpt><trkpt lat="45.543581500461876" lon="10.837370108612031"><ele>366.5</ele><time>2026-04-26T10:10:31Z</time></trkpt><trkpt lat="45.543692358586206" lon="10.837284456893217"><ele>366.0</ele><time>2026-04-26T10:10:32Z</time></trkpt><trkpt lat="45.54380297649706" lon="10.837215641842961"><ele>362.6666666666667</ele><time>2026-04-26T10:10:33Z</time></trkpt><trkpt lat="45.54393386089219" lon="10.837167010146576"><ele>359.33333333333337</ele><time>2026-04-26T10:10:34Z</time></trkpt><trkpt lat="45.544081142809894" lon="10.837114585163132"><ele>356.0</ele><time>2026-04-26T10:10:35Z</time></trkpt><trkpt lat="45.54424501133697" lon="10.837050588615162"><ele>356.0</ele><time>2026-04-26T10:10:36Z</time></trkpt><trkpt lat="45.54439308889451" lon="10.836993134284404"><ele>356.0</ele><time>2026-04-26T10:10:37Z</time></trkpt><trkpt lat="45.54453451163307" lon="10.836939352672808"><ele>356.0</ele><time>2026-04-26T10:10:38Z</time></trkpt><trkpt lat="45.54466143267144" lon="10.836890034496713"><ele>356.0</ele><time>2026-04-26T10:10:39Z</time></trkpt><trkpt lat="45.54477064817434" lon="10.836848086796389"><ele>355.0</ele><time>2026-04-26T10:10:40Z</time></trkpt><trkpt lat="45.54488421536763" lon="10.836803144460184"><ele>354.0</ele><time>2026-04-26T10:10:41Z</time></trkpt><trkpt lat="45.545005876876914" lon="10.836758319232237"><ele>353.0</ele><time>2026-04-26T10:10:42Z</time></trkpt><trkpt lat="45.54513397378587" lon="10.836707580083177"><ele>352.0</ele><time>2026-04-26T10:10:43Z</time></trkpt><trkpt lat="45.5452487139096" lon="10.836642629015182"><ele>352.0</ele><time>2026-04-26T10:10:44Z</time></trkpt><trkpt lat="45.54534487625214" lon="10.836559314006651"><ele>352.0</ele><time>2026-04-26T10:10:45Z</time></trkpt><trkpt lat="45.545430348490726" lon="10.836453315963041"><ele>352.0</ele><time>2026-04-26T10:10:46Z</time></trkpt><trkpt lat="45.54549820180186" lon="10.836311844009858"><ele>352.0</ele><time>2026-04-26T10:10:47Z</time></trkpt><trkpt lat="45.545538752639665" lon="10.836158613505296"><ele>350.0</ele><time>2026-04-26T10:10:48Z</time></trkpt><trkpt lat="45.54555184888233" lon="10.835987049540647"><ele>348.0</ele><time>2026-04-26T10:10:49Z</time></trkpt><trkpt lat="45.5455271740416" lon="10.835816289993392"><ele>346.0</ele><time>2026-04-26T10:10:50Z</time></trkpt><trkpt lat="45.54547315174757" lon="10.835649565603275"><ele>344.0</ele><time>2026-04-26T10:10:51Z</time></trkpt><trkpt lat="45.545395440766264" lon="10.835489332876723"><ele>344.5</ele><time>2026-04-26T10:10:52Z</time></trkpt><trkpt lat="45.54529018009288" lon="10.83532603369844"><ele>345.0</ele><time>2026-04-26T10:10:53Z</time></trkpt><trkpt lat="45.545186153222225" lon="10.835188137080584"><ele>345.5</ele><time>2026-04-26T10:10:54Z</time></trkpt><trkpt lat="45.5450872353131" lon="10.835065332689567"><ele>346.0</ele><time>2026-04-26T10:10:55Z</time></trkpt><trkpt lat="45.54498395236464" lon="10.834957003648368"><ele>344.0</ele><time>2026-04-26T10:10:56Z</time></trkpt><trkpt lat="45.54488748705956" lon="10.834877870667608"><ele>342.0</ele><time>2026-04-26T10:10:57Z</time></trkpt><trkpt lat="45.54477474010736" lon="10.834821156164613"><ele>340.0</ele><time>2026-04-26T10:10:58Z</time></trkpt><trkpt lat="45.54466386159623" lon="10.834786506828447"><ele>338.0</ele><time>2026-04-26T10:10:59Z</time></trkpt><trkpt lat="45.544563593507995" lon="10.834766057550809"><ele>336.0</ele><time>2026-04-26T10:11:00Z</time></trkpt><trkpt lat="45.54448513104954" lon="10.834767289616584"><ele>336.0</ele><time>2026-04-26T10:11:01Z</time></trkpt><trkpt lat="45.54440503024735" lon="10.83475648460654"><ele>336.0</ele><time>2026-04-26T10:11:03Z</time></trkpt><trkpt lat="45.544353332632944" lon="10.834704629500456"><ele>336.0</ele><time>2026-04-26T10:11:06Z</time></trkpt><trkpt lat="45.544429213703005" lon="10.834680617708488"><ele>336.0</ele><time>2026-04-26T10:11:09Z</time></trkpt><trkpt lat="45.544497755524056" lon="10.834655844303903"><ele>336.0</ele><time>2026-04-26T10:11:10Z</time></trkpt><trkpt lat="45.544571800648356" lon="10.834682270046665"><ele>336.0</ele><time>2026-04-26T10:11:11Z</time></trkpt><trkpt lat="45.54463462430886" lon="10.83469702347407"><ele>336.0</ele><time>2026-04-26T10:11:12Z</time></trkpt><trkpt lat="45.544697417900146" lon="10.834713783291356"><ele>335.8</ele><time>2026-04-26T10:11:13Z</time></trkpt><trkpt lat="45.54475141478578" lon="10.834874658673348"><ele>335.6</ele><time>2026-04-26T10:11:14Z</time></trkpt><trkpt lat="45.54482343545235" lon="10.83490845303022"><ele>335.4</ele><time>2026-04-26T10:11:15Z</time></trkpt><trkpt lat="45.544895061062306" lon="10.834955679657707"><ele>335.2</ele><time>2026-04-26T10:11:16Z</time></trkpt><trkpt lat="45.54498292381613" lon="10.835022055137703"><ele>335.0</ele><time>2026-04-26T10:11:17Z</time></trkpt><trkpt lat="45.54504425146891" lon="10.835091599560384"><ele>335.83333333333337</ele><time>2026-04-26T10:11:18Z</time></trkpt><trkpt lat="45.54511213536538" lon="10.835168107277967"><ele>336.6666666666667</ele><time>2026-04-26T10:11:19Z</time></trkpt><trkpt lat="45.54517177599456" lon="10.835242032830072"><ele>337.5</ele><time>2026-04-26T10:11:20Z</time></trkpt><trkpt lat="45.545222993493546" lon="10.835313502987377"><ele>338.3333333333333</ele><time>2026-04-26T10:11:21Z</time></trkpt><trkpt lat="45.54528412253536" lon="10.835399579252428"><ele>339.16666666666663</ele><time>2026-04-26T10:11:22Z</time></trkpt><trkpt lat="45.54533872950987" lon="10.835498738470037"><ele>340.0</ele><time>2026-04-26T10:11:24Z</time></trkpt><trkpt lat="45.54537978303321" lon="10.83556878114068"><ele>332.0</ele><time>2026-04-26T10:11:26Z</time></trkpt><trkpt lat="45.54621745376949" lon="10.835627734027343"><ele>332.0</ele><time>2026-04-26T10:12:23Z</time></trkpt><trkpt lat="45.546315814629445" lon="10.835656916537577"><ele>332.0</ele><time>2026-04-26T10:12:24Z</time></trkpt><trkpt lat="45.54642825259284" lon="10.835685109714651"><ele>332.0</ele><time>2026-04-26T10:12:25Z</time></trkpt><trkpt lat="45.546544287074056" lon="10.835724645524943"><ele>332.0</ele><time>2026-04-26T10:12:26Z</time></trkpt><trkpt lat="45.546673369168055" lon="10.835771376826601"><ele>332.0</ele><time>2026-04-26T10:12:27Z</time></trkpt><trkpt lat="45.54679432849872" lon="10.835814257516345"><ele>332.0</ele><time>2026-04-26T10:12:28Z</time></trkpt><trkpt lat="45.54690933594705" lon="10.83585763337829"><ele>332.0</ele><time>2026-04-26T10:12:29Z</time></trkpt><trkpt lat="45.54704714444661" lon="10.835928280912263"><ele>332.0</ele><time>2026-04-26T10:12:30Z</time></trkpt><trkpt lat="45.5471828585535" lon="10.835975402211657"><ele>332.40000000000003</ele><time>2026-04-26T10:12:31Z</time></trkpt><trkpt lat="45.547304232510506" lon="10.836027970279162"><ele>332.8</ele><time>2026-04-26T10:12:32Z</time></trkpt><trkpt lat="45.54741639570819" lon="10.836059455683003"><ele>333.2</ele><time>2026-04-26T10:12:33Z</time></trkpt><trkpt lat="45.54752000441997" lon="10.836076907583328"><ele>333.6</ele><time>2026-04-26T10:12:34Z</time></trkpt><trkpt lat="45.5476198128059" lon="10.836097145641398"><ele>334.0</ele><time>2026-04-26T10:12:35Z</time></trkpt><trkpt lat="45.54769992840246" lon="10.836109597927775"><ele>334.0</ele><time>2026-04-26T10:12:36Z</time></trkpt><trkpt lat="45.54777491194722" lon="10.836110897259355"><ele>334.0</ele><time>2026-04-26T10:12:37Z</time></trkpt><trkpt lat="45.54785072681134" lon="10.836120749496047"><ele>334.0</ele><time>2026-04-26T10:12:38Z</time></trkpt><trkpt lat="45.547923271068676" lon="10.836140278268395"><ele>334.0</ele><time>2026-04-26T10:12:40Z</time></trkpt><trkpt lat="45.548003209904884" lon="10.83618273273789"><ele>334.0</ele><time>2026-04-26T10:12:42Z</time></trkpt><trkpt lat="45.5481092573882" lon="10.836258128646937"><ele>334.0</ele><time>2026-04-26T10:12:44Z</time></trkpt><trkpt lat="45.548179079536155" lon="10.836320307989638"><ele>333.5</ele><time>2026-04-26T10:12:45Z</time></trkpt><trkpt lat="45.54824968047393" lon="10.836400476028837"><ele>333.0</ele><time>2026-04-26T10:12:46Z</time></trkpt><trkpt lat="45.548299836093925" lon="10.836476950345412"><ele>332.5</ele><time>2026-04-26T10:12:47Z</time></trkpt><trkpt lat="45.54834054023717" lon="10.836568015840868"><ele>332.0</ele><time>2026-04-26T10:12:48Z</time></trkpt><trkpt lat="45.54837695393995" lon="10.836664258779734"><ele>331.5</ele><time>2026-04-26T10:12:49Z</time></trkpt><trkpt lat="45.54840534729918" lon="10.836776115578719"><ele>331.0</ele><time>2026-04-26T10:12:50Z</time></trkpt><trkpt lat="45.54844081286567" lon="10.836857486119913"><ele>331.8</ele><time>2026-04-26T10:12:51Z</time></trkpt><trkpt lat="45.54853666629585" lon="10.836929835119642"><ele>332.6</ele><time>2026-04-26T10:12:53Z</time></trkpt><trkpt lat="45.54861280512426" lon="10.836937143597265"><ele>333.4</ele><time>2026-04-26T10:12:55Z</time></trkpt><trkpt lat="45.548695920935295" lon="10.83691125024486"><ele>334.2</ele><time>2026-04-26T10:12:57Z</time></trkpt><trkpt lat="45.54876756346886" lon="10.83679101473649"><ele>335.0</ele><time>2026-04-26T10:12:59Z</time></trkpt><trkpt lat="45.54879999149901" lon="10.83669420835122"><ele>335.0</ele><time>2026-04-26T10:13:00Z</time></trkpt><trkpt lat="45.54884281434888" lon="10.836584777144777"><ele>335.0</ele><time>2026-04-26T10:13:01Z</time></trkpt><trkpt lat="45.54889100547304" lon="10.836491459394509"><ele>335.0</ele><time>2026-04-26T10:13:02Z</time></trkpt><trkpt lat="45.54893344042456" lon="10.836411478508921"><ele>335.0</ele><time>2026-04-26T10:13:03Z</time></trkpt><trkpt lat="45.54898749353205" lon="10.836306067713746"><ele>335.0</ele><time>2026-04-26T10:13:04Z</time></trkpt><trkpt lat="45.54904808044305" lon="10.836205214814337"><ele>335.0</ele><time>2026-04-26T10:13:05Z</time></trkpt><trkpt lat="45.549097422210195" lon="10.83612026406886"><ele>335.0</ele><time>2026-04-26T10:13:06Z</time></trkpt><trkpt lat="45.54914345290831" lon="10.835988094149526"><ele>335.0</ele><time>2026-04-26T10:13:07Z</time></trkpt><trkpt lat="45.54919972073252" lon="10.835877941805604"><ele>335.0</ele><time>2026-04-26T10:13:08Z</time></trkpt><trkpt lat="45.54925877393428" lon="10.83577222274747"><ele>335.0</ele><time>2026-04-26T10:13:09Z</time></trkpt><trkpt lat="45.54934260462958" lon="10.83567636850871"><ele>335.0</ele><time>2026-04-26T10:13:10Z</time></trkpt><trkpt lat="45.549427584988415" lon="10.835569719952746"><ele>334.4</ele><time>2026-04-26T10:13:11Z</time></trkpt><trkpt lat="45.54949371789319" lon="10.835452465651356"><ele>333.8</ele><time>2026-04-26T10:13:12Z</time></trkpt><trkpt lat="45.54955667175334" lon="10.835384153090319"><ele>333.20000000000005</ele><time>2026-04-26T10:13:13Z</time></trkpt><trkpt lat="45.54963321235267" lon="10.835307264458594"><ele>332.6</ele><time>2026-04-26T10:13:14Z</time></trkpt><trkpt lat="45.54971817647493" lon="10.83522006445606"><ele>332.0</ele><time>2026-04-26T10:13:15Z</time></trkpt><trkpt lat="45.549788307558046" lon="10.835141549047732"><ele>330.0</ele><time>2026-04-26T10:13:16Z</time></trkpt><trkpt lat="45.549862081437944" lon="10.835079504311"><ele>328.0</ele><time>2026-04-26T10:13:17Z</time></trkpt><trkpt lat="45.54993766942617" lon="10.83502104605496"><ele>326.0</ele><time>2026-04-26T10:13:18Z</time></trkpt><trkpt lat="45.550003548616715" lon="10.834980747186517"><ele>324.0</ele><time>2026-04-26T10:13:19Z</time></trkpt><trkpt lat="45.55006924079763" lon="10.83495986006194"><ele>322.0</ele><time>2026-04-26T10:13:20Z</time></trkpt><trkpt lat="45.55013412220433" lon="10.834974966352613"><ele>320.0</ele><time>2026-04-26T10:13:21Z</time></trkpt><trkpt lat="45.55020702523159" lon="10.835011180978041"><ele>320.0</ele><time>2026-04-26T10:13:22Z</time></trkpt><trkpt lat="45.55028989036839" lon="10.83505709480355"><ele>320.0</ele><time>2026-04-26T10:13:23Z</time></trkpt><trkpt lat="45.55038117161072" lon="10.835123129304009"><ele>320.0</ele><time>2026-04-26T10:13:24Z</time></trkpt><trkpt lat="45.550485392292366" lon="10.835189534361701"><ele>320.0</ele><time>2026-04-26T10:13:25Z</time></trkpt><trkpt lat="45.55058095865328" lon="10.835257853042226"><ele>320.0</ele><time>2026-04-26T10:13:26Z</time></trkpt><trkpt lat="45.5506865391369" lon="10.83532725437461"><ele>323.0</ele><time>2026-04-26T10:13:27Z</time></trkpt><trkpt lat="45.55079325198111" lon="10.83538983853321"><ele>326.0</ele><time>2026-04-26T10:13:28Z</time></trkpt><trkpt lat="45.55089988205077" lon="10.83545785280699"><ele>329.0</ele><time>2026-04-26T10:13:29Z</time></trkpt><trkpt lat="45.55100453842596" lon="10.835522504071674"><ele>332.0</ele><time>2026-04-26T10:13:30Z</time></trkpt><trkpt lat="45.55110871023379" lon="10.83558251629423"><ele>331.20000000000005</ele><time>2026-04-26T10:13:31Z</time></trkpt><trkpt lat="45.55121333815865" lon="10.83563335972499"><ele>330.4</ele><time>2026-04-26T10:13:32Z</time></trkpt><trkpt lat="45.55130980049061" lon="10.835687497099402"><ele>329.6</ele><time>2026-04-26T10:13:33Z</time></trkpt><trkpt lat="45.55140189177192" lon="10.83574388582391"><ele>328.79999999999995</ele><time>2026-04-26T10:13:34Z</time></trkpt><trkpt lat="45.55147195824024" lon="10.835806169977213"><ele>328.0</ele><time>2026-04-26T10:13:35Z</time></trkpt><trkpt lat="45.55156789459558" lon="10.835833012984926"><ele>328.0</ele><time>2026-04-26T10:13:36Z</time></trkpt><trkpt lat="45.55167561196447" lon="10.83584142266623"><ele>328.0</ele><time>2026-04-26T10:13:37Z</time></trkpt><trkpt lat="45.55179402944305" lon="10.835845591161183"><ele>328.0</ele><time>2026-04-26T10:13:38Z</time></trkpt><trkpt lat="45.551914300190134" lon="10.83583652741618"><ele>328.0</ele><time>2026-04-26T10:13:39Z</time></trkpt><trkpt lat="45.552054458106156" lon="10.835821686742"><ele>327.25</ele><time>2026-04-26T10:13:40Z</time></trkpt><trkpt lat="45.552194710796776" lon="10.835815424606507"><ele>326.5</ele><time>2026-04-26T10:13:41Z</time></trkpt><trkpt lat="45.5523197764264" lon="10.83581256052183"><ele>325.75</ele><time>2026-04-26T10:13:42Z</time></trkpt><trkpt lat="45.552441572828464" lon="10.835823859969855"><ele>325.0</ele><time>2026-04-26T10:13:43Z</time></trkpt><trkpt lat="45.55255187824442" lon="10.835847208360265"><ele>325.0</ele><time>2026-04-26T10:13:44Z</time></trkpt><trkpt lat="45.552665189248195" lon="10.835861772134711"><ele>325.0</ele><time>2026-04-26T10:13:45Z</time></trkpt><trkpt lat="45.552773053033384" lon="10.83589209507594"><ele>325.0</ele><time>2026-04-26T10:13:46Z</time></trkpt><trkpt lat="45.552866666355904" lon="10.835911394861162"><ele>325.0</ele><time>2026-04-26T10:13:47Z</time></trkpt><trkpt lat="45.552954029161114" lon="10.835921738766729"><ele>325.0</ele><time>2026-04-26T10:13:48Z</time></trkpt><trkpt lat="45.55304032582962" lon="10.83594968847493"><ele>327.75</ele><time>2026-04-26T10:13:49Z</time></trkpt><trkpt lat="45.553127452202695" lon="10.835989908882834"><ele>330.5</ele><time>2026-04-26T10:13:50Z</time></trkpt><trkpt lat="45.553223220094864" lon="10.83605232095165"><ele>333.25</ele><time>2026-04-26T10:13:51Z</time></trkpt><trkpt lat="45.5533454766326" lon="10.836110434331722"><ele>336.0</ele><time>2026-04-26T10:13:52Z</time></trkpt><trkpt lat="45.55346933174329" lon="10.836200815507608"><ele>336.0</ele><time>2026-04-26T10:13:53Z</time></trkpt><trkpt lat="45.553618757651506" lon="10.836286520243476"><ele>336.0</ele><time>2026-04-26T10:13:54Z</time></trkpt><trkpt lat="45.553750313442166" lon="10.836370862259527"><ele>336.0</ele><time>2026-04-26T10:13:55Z</time></trkpt><trkpt lat="45.55385998468791" lon="10.836424398197188"><ele>336.0</ele><time>2026-04-26T10:13:56Z</time></trkpt><trkpt lat="45.553965977401454" lon="10.836446759375779"><ele>334.6</ele><time>2026-04-26T10:13:57Z</time></trkpt><trkpt lat="45.55406997180382" lon="10.836452395633192"><ele>333.20000000000005</ele><time>2026-04-26T10:13:58Z</time></trkpt><trkpt lat="45.55418371240709" lon="10.836444675683522"><ele>331.79999999999995</ele><time>2026-04-26T10:13:59Z</time></trkpt><trkpt lat="45.55429602128392" lon="10.83643664044158"><ele>330.4</ele><time>2026-04-26T10:14:00Z</time></trkpt><trkpt lat="45.55439250765132" lon="10.836441232907976"><ele>329.0</ele><time>2026-04-26T10:14:01Z</time></trkpt><trkpt lat="45.554482174088335" lon="10.83646834393178"><ele>327.6</ele><time>2026-04-26T10:14:02Z</time></trkpt><trkpt lat="45.55454655258145" lon="10.836500572816215"><ele>326.2</ele><time>2026-04-26T10:14:03Z</time></trkpt><trkpt lat="45.55463585414469" lon="10.836550435000042"><ele>324.8</ele><time>2026-04-26T10:14:04Z</time></trkpt><trkpt lat="45.55472557203013" lon="10.836613698972991"><ele>323.40000000000003</ele><time>2026-04-26T10:14:05Z</time></trkpt><trkpt lat="45.55482594124168" lon="10.83670250482689"><ele>322.0</ele><time>2026-04-26T10:14:06Z</time></trkpt><trkpt lat="45.554928094285465" lon="10.83679235489882"><ele>323.20000000000005</ele><time>2026-04-26T10:14:07Z</time></trkpt><trkpt lat="45.555024214947615" lon="10.836883409343374"><ele>324.4</ele><time>2026-04-26T10:14:08Z</time></trkpt><trkpt lat="45.55511850122943" lon="10.836977595032145"><ele>325.6</ele><time>2026-04-26T10:14:09Z</time></trkpt><trkpt lat="45.555196599278496" lon="10.837065060385127"><ele>326.79999999999995</ele><time>2026-04-26T10:14:10Z</time></trkpt><trkpt lat="45.55525870606348" lon="10.83716437197675"><ele>328.0</ele><time>2026-04-26T10:14:11Z</time></trkpt><trkpt lat="45.555328301529585" lon="10.83725594717397"><ele>326.16666666666663</ele><time>2026-04-26T10:14:12Z</time></trkpt><trkpt lat="45.5553902697278" lon="10.837352309233479"><ele>324.3333333333333</ele><time>2026-04-26T10:14:13Z</time></trkpt><trkpt lat="45.555429395967636" lon="10.837447360806436"><ele>322.5</ele><time>2026-04-26T10:14:14Z</time></trkpt><trkpt lat="45.555458042803515" lon="10.837554209090216"><ele>320.6666666666667</ele><time>2026-04-26T10:14:15Z</time></trkpt><trkpt lat="45.55547715610801" lon="10.837685617911768"><ele>318.83333333333337</ele><time>2026-04-26T10:14:16Z</time></trkpt><trkpt lat="45.555491938752304" lon="10.837806819084019"><ele>317.0</ele><time>2026-04-26T10:14:17Z</time></trkpt><trkpt lat="45.55548823437648" lon="10.837910884879193"><ele>317.0</ele><time>2026-04-26T10:14:18Z</time></trkpt><trkpt lat="45.555441327014144" lon="10.838097391772722"><ele>317.0</ele><time>2026-04-26T10:14:20Z</time></trkpt><trkpt lat="45.5554231673887" lon="10.83822787348431"><ele>317.0</ele><time>2026-04-26T10:14:21Z</time></trkpt><trkpt lat="45.555390172656004" lon="10.83836504328452"><ele>317.0</ele><time>2026-04-26T10:14:22Z</time></trkpt><trkpt lat="45.555349592572846" lon="10.83847286956037"><ele>317.0</ele><time>2026-04-26T10:14:23Z</time></trkpt><trkpt lat="45.55530884059487" lon="10.838567369993097"><ele>319.33333333333337</ele><time>2026-04-26T10:14:24Z</time></trkpt><trkpt lat="45.55527431636447" lon="10.838645020420834"><ele>321.6666666666667</ele><time>2026-04-26T10:14:25Z</time></trkpt><trkpt lat="45.555270045111556" lon="10.838807085631473"><ele>324.0</ele><time>2026-04-26T10:14:27Z</time></trkpt><trkpt lat="45.55530462093431" lon="10.838905456644534"><ele>326.3333333333333</ele><time>2026-04-26T10:14:29Z</time></trkpt><trkpt lat="45.55541233950323" lon="10.838927234631909"><ele>328.66666666666663</ele><time>2026-04-26T10:14:31Z</time></trkpt><trkpt lat="45.55548083505806" lon="10.838887558546546"><ele>331.0</ele><time>2026-04-26T10:14:32Z</time></trkpt><trkpt lat="45.55554700510384" lon="10.838833622278687"><ele>331.0</ele><time>2026-04-26T10:14:33Z</time></trkpt><trkpt lat="45.55562374915769" lon="10.838751417909645"><ele>331.0</ele><time>2026-04-26T10:14:34Z</time></trkpt><trkpt lat="45.55571485726815" lon="10.83867946716982"><ele>331.0</ele><time>2026-04-26T10:14:35Z</time></trkpt><trkpt lat="45.555793711104606" lon="10.838640185207815"><ele>331.0</ele><time>2026-04-26T10:14:36Z</time></trkpt><trkpt lat="45.55587065435436" lon="10.838631372256591"><ele>331.0</ele><time>2026-04-26T10:14:37Z</time></trkpt><trkpt lat="45.555956419497356" lon="10.838643129740214"><ele>331.0</ele><time>2026-04-26T10:14:38Z</time></trkpt><trkpt lat="45.55602854490649" lon="10.838678040144172"><ele>331.0</ele><time>2026-04-26T10:14:39Z</time></trkpt><trkpt lat="45.55609192018946" lon="10.83875128895804"><ele>331.0</ele><time>2026-04-26T10:14:40Z</time></trkpt><trkpt lat="45.556143508958826" lon="10.838842545274375"><ele>331.0</ele><time>2026-04-26T10:14:41Z</time></trkpt><trkpt lat="45.55621202241503" lon="10.838954725173666"><ele>331.0</ele><time>2026-04-26T10:14:42Z</time></trkpt><trkpt lat="45.556275606298904" lon="10.839088495477174"><ele>331.0</ele><time>2026-04-26T10:14:43Z</time></trkpt><trkpt lat="45.55632477173809" lon="10.839226386055392"><ele>331.0</ele><time>2026-04-26T10:14:44Z</time></trkpt><trkpt lat="45.55634454310246" lon="10.839331462036487"><ele>331.0</ele><time>2026-04-26T10:14:45Z</time></trkpt><trkpt lat="45.556349114326615" lon="10.839432770671255"><ele>331.0</ele><time>2026-04-26T10:14:46Z</time></trkpt><trkpt lat="45.55634422848488" lon="10.839539910911855"><ele>331.0</ele><time>2026-04-26T10:14:47Z</time></trkpt><trkpt lat="45.556341750175875" lon="10.839632982845767"><ele>331.0</ele><time>2026-04-26T10:14:48Z</time></trkpt><trkpt lat="45.556393843285754" lon="10.839712173505164"><ele>331.0</ele><time>2026-04-26T10:14:50Z</time></trkpt><trkpt lat="45.55649162185602" lon="10.83968850733491"><ele>331.0</ele><time>2026-04-26T10:14:52Z</time></trkpt><trkpt lat="45.556546599996025" lon="10.839634285202626"><ele>331.0</ele><time>2026-04-26T10:14:53Z</time></trkpt><trkpt lat="45.55661862553887" lon="10.8395791950701"><ele>331.0</ele><time>2026-04-26T10:14:54Z</time></trkpt><trkpt lat="45.55668790866045" lon="10.83957962838893"><ele>331.0</ele><time>2026-04-26T10:14:55Z</time></trkpt><trkpt lat="45.55674829549525" lon="10.839605121167297"><ele>331.0</ele><time>2026-04-26T10:14:56Z</time></trkpt><trkpt lat="45.55683621929614" lon="10.839725727014873"><ele>331.0</ele><time>2026-04-26T10:14:58Z</time></trkpt><trkpt lat="45.556883666267" lon="10.839814959670324"><ele>331.0</ele><time>2026-04-26T10:14:59Z</time></trkpt><trkpt lat="45.55693657312835" lon="10.839930694543623"><ele>331.0</ele><time>2026-04-26T10:15:00Z</time></trkpt><trkpt lat="45.55699452744108" lon="10.840069780510749"><ele>331.0</ele><time>2026-04-26T10:15:01Z</time></trkpt><trkpt lat="45.55705438336484" lon="10.840210320692108"><ele>331.0</ele><time>2026-04-26T10:15:02Z</time></trkpt><trkpt lat="45.55711919065646" lon="10.840335045682933"><ele>331.0</ele><time>2026-04-26T10:15:03Z</time></trkpt><trkpt lat="45.557199629564906" lon="10.840431521495114"><ele>332.6</ele><time>2026-04-26T10:15:04Z</time></trkpt><trkpt lat="45.557305707730826" lon="10.840514461136767"><ele>334.20000000000005</ele><time>2026-04-26T10:15:05Z</time></trkpt><trkpt lat="45.55739927116612" lon="10.84061368476048"><ele>335.79999999999995</ele><time>2026-04-26T10:15:06Z</time></trkpt><trkpt lat="45.55748052456276" lon="10.840694320947547"><ele>337.4</ele><time>2026-04-26T10:15:07Z</time></trkpt><trkpt lat="45.55755462646436" lon="10.84077325807407"><ele>339.0</ele><time>2026-04-26T10:15:08Z</time></trkpt><trkpt lat="45.55760459289141" lon="10.840832613233344"><ele>339.0</ele><time>2026-04-26T10:15:09Z</time></trkpt><trkpt lat="45.55767139166491" lon="10.840836805185806"><ele>339.0</ele><time>2026-04-26T10:15:11Z</time></trkpt><trkpt lat="45.55771243842204" lon="10.84076861185908"><ele>339.0</ele><time>2026-04-26T10:15:12Z</time></trkpt><trkpt lat="45.55770369298243" lon="10.840616087380493"><ele>339.0</ele><time>2026-04-26T10:15:14Z</time></trkpt><trkpt lat="45.55767359726407" lon="10.840515609512462"><ele>339.0</ele><time>2026-04-26T10:15:15Z</time></trkpt><trkpt lat="45.55761794394177" lon="10.840412175175059"><ele>339.0</ele><time>2026-04-26T10:15:16Z</time></trkpt><trkpt lat="45.55756695659481" lon="10.840306686489171"><ele>339.0</ele><time>2026-04-26T10:15:17Z</time></trkpt><trkpt lat="45.55752720213915" lon="10.840192807088249"><ele>339.0</ele><time>2026-04-26T10:15:18Z</time></trkpt><trkpt lat="45.557511891095906" lon="10.840090508939424"><ele>339.0</ele><time>2026-04-26T10:15:19Z</time></trkpt><trkpt lat="45.55750840622315" lon="10.839964819045884"><ele>339.0</ele><time>2026-04-26T10:15:20Z</time></trkpt><trkpt lat="45.55749310730193" lon="10.839828912759907"><ele>339.0</ele><time>2026-04-26T10:15:21Z</time></trkpt><trkpt lat="45.557477404690225" lon="10.839675679603042"><ele>336.0</ele><time>2026-04-26T10:15:22Z</time></trkpt><trkpt lat="45.557466322483734" lon="10.839469647061936"><ele>333.0</ele><time>2026-04-26T10:15:23Z</time></trkpt><trkpt lat="45.55744757927529" lon="10.839259708603139"><ele>330.0</ele><time>2026-04-26T10:15:24Z</time></trkpt><trkpt lat="45.55742414802238" lon="10.839097006995475"><ele>327.0</ele><time>2026-04-26T10:15:25Z</time></trkpt><trkpt lat="45.55739436624374" lon="10.838919195598608"><ele>326.40000000000003</ele><time>2026-04-26T10:15:26Z</time></trkpt><trkpt lat="45.557354896771024" lon="10.838776158075563"><ele>325.8</ele><time>2026-04-26T10:15:27Z</time></trkpt><trkpt lat="45.557310348663826" lon="10.83864814443535"><ele>325.2</ele><time>2026-04-26T10:15:28Z</time></trkpt><trkpt lat="45.55727506831507" lon="10.838524266194016"><ele>324.6</ele><time>2026-04-26T10:15:29Z</time></trkpt><trkpt lat="45.55726078344314" lon="10.838406760285354"><ele>324.0</ele><time>2026-04-26T10:15:30Z</time></trkpt><trkpt lat="45.557268864001074" lon="10.838289950761187"><ele>324.0</ele><time>2026-04-26T10:15:31Z</time></trkpt><trkpt lat="45.55729799976618" lon="10.838190836374364"><ele>324.0</ele><time>2026-04-26T10:15:32Z</time></trkpt><trkpt lat="45.557348017707724" lon="10.838073823021082"><ele>324.0</ele><time>2026-04-26T10:15:33Z</time></trkpt><trkpt lat="45.55740183248006" lon="10.837931686766764"><ele>324.0</ele><time>2026-04-26T10:15:34Z</time></trkpt><trkpt lat="45.557453494997716" lon="10.837789039403829"><ele>324.0</ele><time>2026-04-26T10:15:35Z</time></trkpt><trkpt lat="45.557519352760565" lon="10.83765906611198"><ele>320.5</ele><time>2026-04-26T10:15:36Z</time></trkpt><trkpt lat="45.55759143127153" lon="10.83751928342865"><ele>317.0</ele><time>2026-04-26T10:15:37Z</time></trkpt><trkpt lat="45.5576643441518" lon="10.837386249235482"><ele>313.5</ele><time>2026-04-26T10:15:38Z</time></trkpt><trkpt lat="45.557746639281675" lon="10.837243040064536"><ele>310.0</ele><time>2026-04-26T10:15:39Z</time></trkpt><trkpt lat="45.55782790364169" lon="10.837082653981625"><ele>312.75</ele><time>2026-04-26T10:15:40Z</time></trkpt><trkpt lat="45.55788958559319" lon="10.836931615769855"><ele>315.5</ele><time>2026-04-26T10:15:41Z</time></trkpt><trkpt lat="45.55793712246627" lon="10.836786995282695"><ele>318.25</ele><time>2026-04-26T10:15:42Z</time></trkpt><trkpt lat="45.5579759364665" lon="10.836636675233276"><ele>321.0</ele><time>2026-04-26T10:15:43Z</time></trkpt><trkpt lat="45.55800618741527" lon="10.836461948078654"><ele>321.0</ele><time>2026-04-26T10:15:44Z</time></trkpt><trkpt lat="45.55804165620419" lon="10.83628932640267"><ele>321.0</ele><time>2026-04-26T10:15:45Z</time></trkpt><trkpt lat="45.558087705623755" lon="10.836143794040586"><ele>321.0</ele><time>2026-04-26T10:15:46Z</time></trkpt><trkpt lat="45.558148534061836" lon="10.835998114414432"><ele>321.0</ele><time>2026-04-26T10:15:47Z</time></trkpt><trkpt lat="45.558212098970934" lon="10.835857331246702"><ele>320.1666666666667</ele><time>2026-04-26T10:15:48Z</time></trkpt><trkpt lat="45.558274060785536" lon="10.835733611120682"><ele>319.3333333333333</ele><time>2026-04-26T10:15:49Z</time></trkpt><trkpt lat="45.558337569793835" lon="10.835640461908188"><ele>318.5</ele><time>2026-04-26T10:15:50Z</time></trkpt><trkpt lat="45.55839791580327" lon="10.835556824218699"><ele>317.66666666666663</ele><time>2026-04-26T10:15:51Z</time></trkpt><trkpt lat="45.558461983239724" lon="10.835504447023538"><ele>316.8333333333333</ele><time>2026-04-26T10:15:52Z</time></trkpt><trkpt lat="45.55852785548108" lon="10.83548458619869"><ele>316.0</ele><time>2026-04-26T10:15:53Z</time></trkpt><trkpt lat="45.55860640181892" lon="10.835471698696594"><ele>316.0</ele><time>2026-04-26T10:15:54Z</time></trkpt><trkpt lat="45.558680758208695" lon="10.835479309068235"><ele>316.0</ele><time>2026-04-26T10:15:55Z</time></trkpt><trkpt lat="45.55874251340746" lon="10.8355132372926"><ele>316.0</ele><time>2026-04-26T10:15:56Z</time></trkpt><trkpt lat="45.558846869056566" lon="10.835630924699625"><ele>316.0</ele><time>2026-04-26T10:15:58Z</time></trkpt><trkpt lat="45.55889243092198" lon="10.835703271412271"><ele>316.0</ele><time>2026-04-26T10:15:59Z</time></trkpt><trkpt lat="45.55893930998934" lon="10.835892027509258"><ele>317.00000000000006</ele><time>2026-04-26T10:16:01Z</time></trkpt><trkpt lat="45.55896170193425" lon="10.836023464753493"><ele>318.0</ele><time>2026-04-26T10:16:02Z</time></trkpt><trkpt lat="45.55898310054805" lon="10.83612569083954"><ele>319.0</ele><time>2026-04-26T10:16:03Z</time></trkpt><trkpt lat="45.559010658399885" lon="10.836214474123516"><ele>320.0</ele><time>2026-04-26T10:16:04Z</time></trkpt><trkpt lat="45.5590564421392" lon="10.836298659142635"><ele>321.0</ele><time>2026-04-26T10:16:05Z</time></trkpt><trkpt lat="45.55910679464669" lon="10.836359765031865"><ele>322.00000000000006</ele><time>2026-04-26T10:16:06Z</time></trkpt><trkpt lat="45.559168601894065" lon="10.83640552298831"><ele>323.0</ele><time>2026-04-26T10:16:07Z</time></trkpt><trkpt lat="45.55925575723247" lon="10.836446687453067"><ele>323.0</ele><time>2026-04-26T10:16:08Z</time></trkpt><trkpt lat="45.55934978564284" lon="10.83650131117921"><ele>323.0</ele><time>2026-04-26T10:16:09Z</time></trkpt><trkpt lat="45.559423938801054" lon="10.836566934577437"><ele>323.0</ele><time>2026-04-26T10:16:10Z</time></trkpt><trkpt lat="45.55949375344544" lon="10.836658666536096"><ele>323.0</ele><time>2026-04-26T10:16:11Z</time></trkpt><trkpt lat="45.5595809381881" lon="10.836767673719748"><ele>323.0</ele><time>2026-04-26T10:16:12Z</time></trkpt><trkpt lat="45.55968489573415" lon="10.836902748588129"><ele>323.59999999999997</ele><time>2026-04-26T10:16:13Z</time></trkpt><trkpt lat="45.55978586202139" lon="10.837028051123633"><ele>324.2</ele><time>2026-04-26T10:16:14Z</time></trkpt><trkpt lat="45.55987526951573" lon="10.837124774935047"><ele>324.8</ele><time>2026-04-26T10:16:15Z</time></trkpt><trkpt lat="45.55994539517707" lon="10.837196666478594"><ele>325.4</ele><time>2026-04-26T10:16:16Z</time></trkpt><trkpt lat="45.56004326902561" lon="10.837263683310137"><ele>326.0</ele><time>2026-04-26T10:16:17Z</time></trkpt><trkpt lat="45.56015506893255" lon="10.83732196195289"><ele>326.0</ele><time>2026-04-26T10:16:18Z</time></trkpt><trkpt lat="45.56025207785407" lon="10.837381814376318"><ele>326.0</ele><time>2026-04-26T10:16:19Z</time></trkpt><trkpt lat="45.56033706808518" lon="10.83743243587835"><ele>326.0</ele><time>2026-04-26T10:16:20Z</time></trkpt><trkpt lat="45.56041377339361" lon="10.83748608266251"><ele>326.0</ele><time>2026-04-26T10:16:21Z</time></trkpt><trkpt lat="45.56047100623744" lon="10.837546284289004"><ele>326.0</ele><time>2026-04-26T10:16:22Z</time></trkpt><trkpt lat="45.56054703523161" lon="10.837592215951943"><ele>326.0</ele><time>2026-04-26T10:16:23Z</time></trkpt><trkpt lat="45.56063672252506" lon="10.837599333929166"><ele>325.6666666666667</ele><time>2026-04-26T10:16:24Z</time></trkpt><trkpt lat="45.56073219769179" lon="10.837585175379235"><ele>325.33333333333337</ele><time>2026-04-26T10:16:25Z</time></trkpt><trkpt lat="45.56083555025265" lon="10.837556003045632"><ele>325.0</ele><time>2026-04-26T10:16:26Z</time></trkpt><trkpt lat="45.560912668969785" lon="10.837518348664641"><ele>324.6666666666667</ele><time>2026-04-26T10:16:27Z</time></trkpt><trkpt lat="45.56097678725684" lon="10.837468380606337"><ele>324.3333333333333</ele><time>2026-04-26T10:16:28Z</time></trkpt><trkpt lat="45.56102575334347" lon="10.837410682624949"><ele>324.0</ele><time>2026-04-26T10:16:29Z</time></trkpt><trkpt lat="45.56104620622425" lon="10.837275321554905"><ele>324.0</ele><time>2026-04-26T10:16:31Z</time></trkpt><trkpt lat="45.561034731003645" lon="10.837166406087217"><ele>324.0</ele><time>2026-04-26T10:16:32Z</time></trkpt><trkpt lat="45.56100291591267" lon="10.837027490519517"><ele>324.0</ele><time>2026-04-26T10:16:33Z</time></trkpt><trkpt lat="45.56096937211533" lon="10.836854642312058"><ele>324.0</ele><time>2026-04-26T10:16:34Z</time></trkpt><trkpt lat="45.56095124257037" lon="10.836713477155575"><ele>324.0</ele><time>2026-04-26T10:16:35Z</time></trkpt><trkpt lat="45.56094530082492" lon="10.836595056932278"><ele>323.5</ele><time>2026-04-26T10:16:36Z</time></trkpt><trkpt lat="45.560955335762756" lon="10.836487478664825"><ele>323.0</ele><time>2026-04-26T10:16:37Z</time></trkpt><trkpt lat="45.56097567990461" lon="10.836382342862063"><ele>322.5</ele><time>2026-04-26T10:16:38Z</time></trkpt><trkpt lat="45.56102463430685" lon="10.836218432249046"><ele>322.0</ele><time>2026-04-26T10:16:40Z</time></trkpt><trkpt lat="45.56108350070126" lon="10.836133852692523"><ele>321.5</ele><time>2026-04-26T10:16:41Z</time></trkpt><trkpt lat="45.56114904298783" lon="10.836059126015803"><ele>321.0</ele><time>2026-04-26T10:16:42Z</time></trkpt><trkpt lat="45.56121748135515" lon="10.83601357026139"><ele>322.8333333333333</ele><time>2026-04-26T10:16:43Z</time></trkpt><trkpt lat="45.56127914863198" lon="10.835991381570045"><ele>324.6666666666667</ele><time>2026-04-26T10:16:44Z</time></trkpt><trkpt lat="45.56140149810837" lon="10.83603018132333"><ele>326.5</ele><time>2026-04-26T10:16:46Z</time></trkpt><trkpt lat="45.56146592743319" lon="10.836077449141081"><ele>328.33333333333337</ele><time>2026-04-26T10:16:47Z</time></trkpt><trkpt lat="45.56154130558694" lon="10.836110773148937"><ele>330.1666666666667</ele><time>2026-04-26T10:16:48Z</time></trkpt><trkpt lat="45.56161802029545" lon="10.836124024603592"><ele>332.0</ele><time>2026-04-26T10:16:49Z</time></trkpt><trkpt lat="45.56172188138125" lon="10.836074107037044"><ele>330.40000000000003</ele><time>2026-04-26T10:16:51Z</time></trkpt><trkpt lat="45.56178026362865" lon="10.83593424539271"><ele>328.8</ele><time>2026-04-26T10:16:53Z</time></trkpt><trkpt lat="45.56179874016057" lon="10.83582728986189"><ele>327.2</ele><time>2026-04-26T10:16:54Z</time></trkpt><trkpt lat="45.56182950321707" lon="10.8356765621463"><ele>325.6</ele><time>2026-04-26T10:16:55Z</time></trkpt><trkpt lat="45.561876988285874" lon="10.835510065301124"><ele>324.0</ele><time>2026-04-26T10:16:56Z</time></trkpt><trkpt lat="45.56192232523159" lon="10.835386339914171"><ele>324.0</ele><time>2026-04-26T10:16:57Z</time></trkpt><trkpt lat="45.56197482492454" lon="10.835270509189002"><ele>324.0</ele><time>2026-04-26T10:16:58Z</time></trkpt><trkpt lat="45.56203160202871" lon="10.835172024546235"><ele>324.0</ele><time>2026-04-26T10:16:59Z</time></trkpt><trkpt lat="45.56208831335133" lon="10.835094360369835"><ele>324.0</ele><time>2026-04-26T10:17:00Z</time></trkpt><trkpt lat="45.56217350724316" lon="10.834998464888994"><ele>324.0</ele><time>2026-04-26T10:17:02Z</time></trkpt><trkpt lat="45.56223346418684" lon="10.834949349803967"><ele>324.0</ele><time>2026-04-26T10:17:04Z</time></trkpt><trkpt lat="45.562297273020256" lon="10.834886540475111"><ele>325.2</ele><time>2026-04-26T10:17:06Z</time></trkpt><trkpt lat="45.56241345350567" lon="10.834804932882337"><ele>326.4</ele><time>2026-04-26T10:17:08Z</time></trkpt><trkpt lat="45.56249065605584" lon="10.834755679725252"><ele>327.6</ele><time>2026-04-26T10:17:10Z</time></trkpt><trkpt lat="45.5625713738829" lon="10.834804126239133"><ele>328.8</ele><time>2026-04-26T10:17:14Z</time></trkpt><trkpt lat="45.56262590814387" lon="10.8348988118031"><ele>330.0</ele><time>2026-04-26T10:17:16Z</time></trkpt><trkpt lat="45.56265511598355" lon="10.835065110660747"><ele>331.0</ele><time>2026-04-26T10:17:18Z</time></trkpt><trkpt lat="45.56268242194729" lon="10.835159321872439"><ele>332.0</ele><time>2026-04-26T10:17:19Z</time></trkpt><trkpt lat="45.562714065253026" lon="10.835243231473745"><ele>333.0</ele><time>2026-04-26T10:17:20Z</time></trkpt><trkpt lat="45.56274756600256" lon="10.835333696529103"><ele>334.0</ele><time>2026-04-26T10:17:21Z</time></trkpt><trkpt lat="45.56278676345166" lon="10.835453161116805"><ele>335.0</ele><time>2026-04-26T10:17:22Z</time></trkpt><trkpt lat="45.56282338861633" lon="10.835539053505293"><ele>336.0</ele><time>2026-04-26T10:17:23Z</time></trkpt><trkpt lat="45.562868991664786" lon="10.835644470338899"><ele>338.6</ele><time>2026-04-26T10:17:25Z</time></trkpt><trkpt lat="45.562939955694915" lon="10.835742700373654"><ele>341.20000000000005</ele><time>2026-04-26T10:17:27Z</time></trkpt><trkpt lat="45.563021960094126" lon="10.83584242657321"><ele>343.79999999999995</ele><time>2026-04-26T10:17:29Z</time></trkpt><trkpt lat="45.56306934071761" lon="10.835996717864175"><ele>346.4</ele><time>2026-04-26T10:17:31Z</time></trkpt><trkpt lat="45.56304760604723" lon="10.836098055868108"><ele>349.0</ele><time>2026-04-26T10:17:33Z</time></trkpt><trkpt lat="45.56301621055831" lon="10.836190769228665"><ele>350.3333333333333</ele><time>2026-04-26T10:17:35Z</time></trkpt><trkpt lat="45.56307736014692" lon="10.83630387947187"><ele>351.66666666666663</ele><time>2026-04-26T10:17:37Z</time></trkpt><trkpt lat="45.56313894481568" lon="10.836370732542317"><ele>353.0</ele><time>2026-04-26T10:17:38Z</time></trkpt><trkpt lat="45.563207887935135" lon="10.836434360572975"><ele>354.3333333333333</ele><time>2026-04-26T10:17:39Z</time></trkpt><trkpt lat="45.56326754230464" lon="10.836485660348693"><ele>355.6666666666667</ele><time>2026-04-26T10:17:40Z</time></trkpt><trkpt lat="45.56335730886186" lon="10.836573200406656"><ele>357.0</ele><time>2026-04-26T10:17:42Z</time></trkpt><trkpt lat="45.563467140349935" lon="10.836582228977136"><ele>357.0</ele><time>2026-04-26T10:17:44Z</time></trkpt><trkpt lat="45.56357291983614" lon="10.83662240419652"><ele>357.0</ele><time>2026-04-26T10:17:46Z</time></trkpt><trkpt lat="45.56364241881992" lon="10.836710570739454"><ele>357.0</ele><time>2026-04-26T10:17:48Z</time></trkpt><trkpt lat="45.56369886496313" lon="10.836830681089937"><ele>357.0</ele><time>2026-04-26T10:17:50Z</time></trkpt><trkpt lat="45.563725340369665" lon="10.836917812353402"><ele>357.0</ele><time>2026-04-26T10:17:53Z</time></trkpt><trkpt lat="45.563753002572874" lon="10.837066719993915"><ele>360.3333333333333</ele><time>2026-04-26T10:17:55Z</time></trkpt><trkpt lat="45.563792874980976" lon="10.837172270736566"><ele>363.6666666666667</ele><time>2026-04-26T10:17:57Z</time></trkpt><trkpt lat="45.56385931966877" lon="10.83730164555028"><ele>367.0</ele><time>2026-04-26T10:17:59Z</time></trkpt><trkpt lat="45.56390793260709" lon="10.837385651480671"><ele>370.33333333333337</ele><time>2026-04-26T10:17:59.999Z</time></trkpt><trkpt lat="45.56394638619984" lon="10.837461688539037"><ele>373.6666666666667</ele><time>2026-04-26T10:18:00.999Z</time></trkpt><trkpt lat="45.563989212389764" lon="10.837545725682784"><ele>377.0</ele><time>2026-04-26T10:18:01.999Z</time></trkpt><trkpt lat="45.56403543257333" lon="10.837626375558958"><ele>377.40000000000003</ele><time>2026-04-26T10:18:02.999Z</time></trkpt><trkpt lat="45.56412078546446" lon="10.837731912977034"><ele>377.8</ele><time>2026-04-26T10:18:04.999Z</time></trkpt><trkpt lat="45.56417706925911" lon="10.837792224490054"><ele>378.2</ele><time>2026-04-26T10:18:05.999Z</time></trkpt><trkpt lat="45.56422484900609" lon="10.837852684895791"><ele>378.6</ele><time>2026-04-26T10:18:06.999Z</time></trkpt><trkpt lat="45.564293115394264" lon="10.837938366423815"><ele>379.0</ele><time>2026-04-26T10:18:08.999Z</time></trkpt><trkpt lat="45.5642909275452" lon="10.838102323052714"><ele>379.0</ele><time>2026-04-26T10:18:10.999Z</time></trkpt><trkpt lat="45.56426507755332" lon="10.838212422001426"><ele>379.0</ele><time>2026-04-26T10:18:11.999Z</time></trkpt><trkpt lat="45.564241598044056" lon="10.838326802728488"><ele>379.0</ele><time>2026-04-26T10:18:13Z</time></trkpt><trkpt lat="45.56422987625942" lon="10.838448157838595"><ele>379.0</ele><time>2026-04-26T10:18:14Z</time></trkpt><trkpt lat="45.56420927219867" lon="10.83857682545959"><ele>379.0</ele><time>2026-04-26T10:18:15Z</time></trkpt><trkpt lat="45.56416759426702" lon="10.838735582723336"><ele>379.3333333333333</ele><time>2026-04-26T10:18:17Z</time></trkpt><trkpt lat="45.56412536997788" lon="10.83882479321258"><ele>379.66666666666663</ele><time>2026-04-26T10:18:18Z</time></trkpt><trkpt lat="45.56407575764278" lon="10.838932014576244"><ele>380.0</ele><time>2026-04-26T10:18:19Z</time></trkpt><trkpt lat="45.56403450949337" lon="10.839033443775211"><ele>380.3333333333333</ele><time>2026-04-26T10:18:20Z</time></trkpt><trkpt lat="45.5640119737227" lon="10.839125384127527"><ele>380.6666666666667</ele><time>2026-04-26T10:18:21Z</time></trkpt><trkpt lat="45.5640036969121" lon="10.839254553357065"><ele>381.0</ele><time>2026-04-26T10:18:23Z</time></trkpt><trkpt lat="45.564035613116424" lon="10.839387802733649"><ele>381.8333333333333</ele><time>2026-04-26T10:18:25Z</time></trkpt><trkpt lat="45.56406281160768" lon="10.839469871529564"><ele>382.66666666666663</ele><time>2026-04-26T10:18:26Z</time></trkpt><trkpt lat="45.5640992166587" lon="10.83955531348445"><ele>383.5</ele><time>2026-04-26T10:18:27Z</time></trkpt><trkpt lat="45.56418224072759" lon="10.839669247996707"><ele>384.3333333333333</ele><time>2026-04-26T10:19:05Z</time></trkpt><trkpt lat="45.5642323257226" lon="10.839742723480164"><ele>385.16666666666663</ele><time>2026-04-26T10:19:06Z</time></trkpt><trkpt lat="45.56428701057692" lon="10.839823793451895"><ele>386.0</ele><time>2026-04-26T10:19:08Z</time></trkpt><trkpt lat="45.56434043065784" lon="10.839905154382448"><ele>386.0</ele><time>2026-04-26T10:19:18Z</time></trkpt><trkpt lat="45.564457803059916" lon="10.839963898385914"><ele>386.0</ele><time>2026-04-26T10:19:20Z</time></trkpt><trkpt lat="45.56461947866701" lon="10.839985659236016"><ele>386.0</ele><time>2026-04-26T10:19:22Z</time></trkpt><trkpt lat="45.56475041056773" lon="10.839945779764074"><ele>386.0</ele><time>2026-04-26T10:19:24Z</time></trkpt><trkpt lat="45.564811879881645" lon="10.839909130508135"><ele>388.66666666666663</ele><time>2026-04-26T10:19:25Z</time></trkpt><trkpt lat="45.56488141803636" lon="10.839879379321756"><ele>391.3333333333333</ele><time>2026-04-26T10:19:26Z</time></trkpt><trkpt lat="45.564949054231896" lon="10.839854932714568"><ele>394.0</ele><time>2026-04-26T10:19:27Z</time></trkpt><trkpt lat="45.56503088677833" lon="10.839831159817695"><ele>396.66666666666663</ele><time>2026-04-26T10:19:28Z</time></trkpt><trkpt lat="45.565105719710516" lon="10.839842546605476"><ele>399.3333333333333</ele><time>2026-04-26T10:19:29Z</time></trkpt><trkpt lat="45.565164451546586" lon="10.839875807286502"><ele>402.0</ele><time>2026-04-26T10:19:30Z</time></trkpt><trkpt lat="45.56528326954513" lon="10.839973340976536"><ele>402.0</ele><time>2026-04-26T10:19:32Z</time></trkpt><trkpt lat="45.56535848950911" lon="10.840041473531231"><ele>402.0</ele><time>2026-04-26T10:19:33Z</time></trkpt><trkpt lat="45.56542642634482" lon="10.840099298488374"><ele>402.0</ele><time>2026-04-26T10:19:34Z</time></trkpt><trkpt lat="45.565517114010646" lon="10.840135058964039"><ele>402.0</ele><time>2026-04-26T10:19:35Z</time></trkpt><trkpt lat="45.56563193418307" lon="10.840114330407715"><ele>402.0</ele><time>2026-04-26T10:19:37Z</time></trkpt><trkpt lat="45.5657109811496" lon="10.840050532367929"><ele>405.1666666666667</ele><time>2026-04-26T10:19:38Z</time></trkpt><trkpt lat="45.565790872728414" lon="10.840000270272418"><ele>408.33333333333337</ele><time>2026-04-26T10:19:39Z</time></trkpt><trkpt lat="45.5658610697674" lon="10.83999898037185"><ele>411.5</ele><time>2026-04-26T10:19:40Z</time></trkpt><trkpt lat="45.56593233338768" lon="10.840017312304317"><ele>414.6666666666667</ele><time>2026-04-26T10:19:41Z</time></trkpt><trkpt lat="45.56600810218624" lon="10.840057102579285"><ele>417.83333333333337</ele><time>2026-04-26T10:19:42Z</time></trkpt><trkpt lat="45.56607895262077" lon="10.840071614293807"><ele>421.0</ele><time>2026-04-26T10:19:43Z</time></trkpt><trkpt lat="45.566208273619445" lon="10.840100154686722"><ele>425.8</ele><time>2026-04-26T10:19:45Z</time></trkpt><trkpt lat="45.566267074828964" lon="10.840148813559436"><ele>430.6</ele><time>2026-04-26T10:19:46Z</time></trkpt><trkpt lat="45.566363134986524" lon="10.840296773770898"><ele>435.4</ele><time>2026-04-26T10:19:48Z</time></trkpt><trkpt lat="45.56639158563403" lon="10.840379728811754"><ele>440.2</ele><time>2026-04-26T10:19:49Z</time></trkpt><trkpt lat="45.56649464713207" lon="10.840456290555808"><ele>445.0</ele><time>2026-04-26T10:19:51Z</time></trkpt><trkpt lat="45.566572191001036" lon="10.840503362311274"><ele>445.00000000000006</ele><time>2026-04-26T10:19:52Z</time></trkpt><trkpt lat="45.56658767864879" lon="10.840600144633132"><ele>445.0</ele><time>2026-04-26T10:19:53Z</time></trkpt><trkpt lat="45.56660917112865" lon="10.840712571716114"><ele>445.0</ele><time>2026-04-26T10:19:54Z</time></trkpt><trkpt lat="45.56666259159585" lon="10.84086472224108"><ele>445.0</ele><time>2026-04-26T10:19:56Z</time></trkpt><trkpt lat="45.56672665688019" lon="10.840925718448505"><ele>445.00000000000006</ele><time>2026-04-26T10:19:57Z</time></trkpt><trkpt lat="45.566789670932685" lon="10.841006075190542"><ele>445.0</ele><time>2026-04-26T10:19:58Z</time></trkpt><trkpt lat="45.56685257435841" lon="10.841090791280864"><ele>444.83333333333337</ele><time>2026-04-26T10:19:59Z</time></trkpt><trkpt lat="45.56693613752124" lon="10.841165167334662"><ele>444.6666666666667</ele><time>2026-04-26T10:20:01Z</time></trkpt><trkpt lat="45.56694818348924" lon="10.841265381536516"><ele>444.5</ele><time>2026-04-26T10:20:05Z</time></trkpt><trkpt lat="45.566934097493856" lon="10.84135354736326"><ele>444.33333333333337</ele><time>2026-04-26T10:20:06Z</time></trkpt><trkpt lat="45.56690664662863" lon="10.841471547341154"><ele>444.1666666666667</ele><time>2026-04-26T10:20:07Z</time></trkpt><trkpt lat="45.56689468896554" lon="10.84160023750854"><ele>444.0</ele><time>2026-04-26T10:20:08Z</time></trkpt><trkpt lat="45.56689631876662" lon="10.841731372130448"><ele>443.3333333333333</ele><time>2026-04-26T10:20:09Z</time></trkpt><trkpt lat="45.566900059343126" lon="10.841853817991012"><ele>442.66666666666663</ele><time>2026-04-26T10:20:10Z</time></trkpt><trkpt lat="45.56690868234279" lon="10.841982192896069"><ele>442.0</ele><time>2026-04-26T10:20:11Z</time></trkpt><trkpt lat="45.56690030900548" lon="10.84210611498215"><ele>441.3333333333333</ele><time>2026-04-26T10:20:12Z</time></trkpt><trkpt lat="45.56691521089033" lon="10.842227153279737"><ele>440.66666666666663</ele><time>2026-04-26T10:20:13Z</time></trkpt><trkpt lat="45.56694171347482" lon="10.842334881377727"><ele>440.0</ele><time>2026-04-26T10:20:14Z</time></trkpt><trkpt lat="45.56696492806952" lon="10.842432276797819"><ele>440.0</ele><time>2026-04-26T10:20:15Z</time></trkpt><trkpt lat="45.566984622570125" lon="10.84252865070444"><ele>440.0</ele><time>2026-04-26T10:20:16Z</time></trkpt><trkpt lat="45.56700173052906" lon="10.842626920249264"><ele>440.0</ele><time>2026-04-26T10:20:17Z</time></trkpt><trkpt lat="45.56702156428489" lon="10.842808205855484"><ele>440.0</ele><time>2026-04-26T10:20:19Z</time></trkpt><trkpt lat="45.5669956216433" lon="10.842976604868158"><ele>440.0</ele><time>2026-04-26T10:20:21Z</time></trkpt><trkpt lat="45.56692435994276" lon="10.843106175923113"><ele>440.0</ele><time>2026-04-26T10:20:23Z</time></trkpt><trkpt lat="45.566850770323036" lon="10.843169441007479"><ele>440.0</ele><time>2026-04-26T10:20:24Z</time></trkpt><trkpt lat="45.5667642476486" lon="10.843261147913363"><ele>440.0</ele><time>2026-04-26T10:20:25Z</time></trkpt><trkpt lat="45.56668834291484" lon="10.84342178496349"><ele>440.0</ele><time>2026-04-26T10:20:26Z</time></trkpt><trkpt lat="45.566651792626075" lon="10.843596903845425"><ele>440.5</ele><time>2026-04-26T10:20:27Z</time></trkpt><trkpt lat="45.566616163227344" lon="10.84378795940843"><ele>441.0</ele><time>2026-04-26T10:20:28Z</time></trkpt><trkpt lat="45.56656587707384" lon="10.844000048876813"><ele>441.5</ele><time>2026-04-26T10:20:29Z</time></trkpt><trkpt lat="45.566538073199474" lon="10.844172593107007"><ele>442.0</ele><time>2026-04-26T10:20:30Z</time></trkpt><trkpt lat="45.566512927951884" lon="10.844329518794753"><ele>442.40000000000003</ele><time>2026-04-26T10:20:31Z</time></trkpt><trkpt lat="45.56650071367931" lon="10.844488433569051"><ele>442.80000000000007</ele><time>2026-04-26T10:20:32Z</time></trkpt><trkpt lat="45.56647007456717" lon="10.844623903693877"><ele>443.2</ele><time>2026-04-26T10:20:33Z</time></trkpt><trkpt lat="45.56642451731209" lon="10.84475264786997"><ele>443.6</ele><time>2026-04-26T10:20:34Z</time></trkpt><trkpt lat="45.566418188485194" lon="10.844892385415175"><ele>444.0</ele><time>2026-04-26T10:20:35Z</time></trkpt><trkpt lat="45.56641448338355" lon="10.845020802379604"><ele>444.3333333333333</ele><time>2026-04-26T10:20:36Z</time></trkpt><trkpt lat="45.566404233592934" lon="10.84513140075917"><ele>444.66666666666663</ele><time>2026-04-26T10:20:37Z</time></trkpt><trkpt lat="45.566429469868204" lon="10.845239102032263"><ele>445.0</ele><time>2026-04-26T10:20:38Z</time></trkpt><trkpt lat="45.56650626078515" lon="10.845320372824391"><ele>445.3333333333333</ele><time>2026-04-26T10:20:39Z</time></trkpt><trkpt lat="45.56654630719425" lon="10.845408429871203"><ele>445.66666666666663</ele><time>2026-04-26T10:20:40Z</time></trkpt><trkpt lat="45.56659563842963" lon="10.845479551299825"><ele>446.0</ele><time>2026-04-26T10:20:41Z</time></trkpt><trkpt lat="45.5666526281922" lon="10.84553568319522"><ele>446.0</ele><time>2026-04-26T10:20:42Z</time></trkpt><trkpt lat="45.56667799774591" lon="10.845662541559689"><ele>446.0</ele><time>2026-04-26T10:20:44Z</time></trkpt><trkpt lat="45.566744195217936" lon="10.845749566695465"><ele>446.0</ele><time>2026-04-26T10:20:49Z</time></trkpt><trkpt lat="45.56667624982764" lon="10.845500920159937"><ele>446.0</ele><time>2026-04-26T10:20:50Z</time></trkpt><trkpt lat="45.5665983116443" lon="10.845407147029496"><ele>446.0</ele><time>2026-04-26T10:20:51Z</time></trkpt><trkpt lat="45.5665059252321" lon="10.845274710868596"><ele>446.0</ele><time>2026-04-26T10:20:52Z</time></trkpt><trkpt lat="45.56645651190275" lon="10.8451637453686"><ele>446.0</ele><time>2026-04-26T10:20:53Z</time></trkpt><trkpt lat="45.566441048307865" lon="10.845045082376412"><ele>446.0</ele><time>2026-04-26T10:20:54Z</time></trkpt><trkpt lat="45.566436902919854" lon="10.844899584002928"><ele>446.0</ele><time>2026-04-26T10:20:55Z</time></trkpt><trkpt lat="45.56645194493503" lon="10.844746103872017"><ele>445.6</ele><time>2026-04-26T10:20:56Z</time></trkpt><trkpt lat="45.566466824570604" lon="10.8446443121655"><ele>445.20000000000005</ele><time>2026-04-26T10:20:57Z</time></trkpt><trkpt lat="45.5665385676784" lon="10.844522445916125"><ele>444.79999999999995</ele><time>2026-04-26T10:20:59Z</time></trkpt><trkpt lat="45.56660731345892" lon="10.844526604906116"><ele>444.4</ele><time>2026-04-26T10:21:00Z</time></trkpt><trkpt lat="45.56666972860774" lon="10.844587790945926"><ele>444.0</ele><time>2026-04-26T10:21:01Z</time></trkpt><trkpt lat="45.5667225226993" lon="10.844781881884835"><ele>444.0</ele><time>2026-04-26T10:21:03Z</time></trkpt><trkpt lat="45.56675332835894" lon="10.844885363952612"><ele>444.0</ele><time>2026-04-26T10:21:04Z</time></trkpt><trkpt lat="45.56678266819639" lon="10.844985730380158"><ele>444.0</ele><time>2026-04-26T10:21:05Z</time></trkpt><trkpt lat="45.566801744564366" lon="10.845079038274921"><ele>444.0</ele><time>2026-04-26T10:21:06Z</time></trkpt><trkpt lat="45.566803399556726" lon="10.845183261263102"><ele>444.0</ele><time>2026-04-26T10:21:07Z</time></trkpt><trkpt lat="45.56677655524305" lon="10.845292165069505"><ele>444.0</ele><time>2026-04-26T10:21:08Z</time></trkpt><trkpt lat="45.56680570423607" lon="10.84542759311382"><ele>444.3333333333333</ele><time>2026-04-26T10:21:09Z</time></trkpt><trkpt lat="45.56685253850826" lon="10.845523955675162"><ele>444.66666666666663</ele><time>2026-04-26T10:21:10Z</time></trkpt><trkpt lat="45.56691677828411" lon="10.845587055517866"><ele>445.0</ele><time>2026-04-26T10:21:11Z</time></trkpt><trkpt lat="45.56697398649018" lon="10.845650061379905"><ele>445.3333333333333</ele><time>2026-04-26T10:21:12Z</time></trkpt><trkpt lat="45.56703633520299" lon="10.845713513027128"><ele>445.66666666666663</ele><time>2026-04-26T10:21:13Z</time></trkpt><trkpt lat="45.56709199781618" lon="10.845802442370523"><ele>446.0</ele><time>2026-04-26T10:21:14Z</time></trkpt><trkpt lat="45.567176603507804" lon="10.845903694198006"><ele>449.20000000000005</ele><time>2026-04-26T10:21:15Z</time></trkpt><trkpt lat="45.56726120060904" lon="10.846012015223309"><ele>452.40000000000003</ele><time>2026-04-26T10:21:16Z</time></trkpt><trkpt lat="45.56731866691636" lon="10.846116944526072"><ele>455.6</ele><time>2026-04-26T10:21:17Z</time></trkpt><trkpt lat="45.56734827996862" lon="10.846247029560297"><ele>458.8</ele><time>2026-04-26T10:21:18Z</time></trkpt><trkpt lat="45.567387287420246" lon="10.846436024819518"><ele>462.0</ele><time>2026-04-26T10:21:19Z</time></trkpt><trkpt lat="45.56746620250087" lon="10.846648219725003"><ele>463.25</ele><time>2026-04-26T10:21:20Z</time></trkpt><trkpt lat="45.56751246889388" lon="10.846848282662496"><ele>464.5</ele><time>2026-04-26T10:21:21Z</time></trkpt><trkpt lat="45.56754358305155" lon="10.847003591391767"><ele>465.75</ele><time>2026-04-26T10:21:22Z</time></trkpt><trkpt lat="45.56757603237627" lon="10.847149827297637"><ele>467.0</ele><time>2026-04-26T10:21:23Z</time></trkpt><trkpt lat="45.56761514902998" lon="10.847278615768525"><ele>467.0</ele><time>2026-04-26T10:21:24Z</time></trkpt><trkpt lat="45.567689661431736" lon="10.84737658869513"><ele>467.00000000000006</ele><time>2026-04-26T10:21:25Z</time></trkpt><trkpt lat="45.56779985277265" lon="10.84746917654216"><ele>467.00000000000006</ele><time>2026-04-26T10:21:26Z</time></trkpt><trkpt lat="45.56786692235933" lon="10.847580022759052"><ele>467.0</ele><time>2026-04-26T10:21:27Z</time></trkpt><trkpt lat="45.56791574093075" lon="10.847713351016083"><ele>467.0</ele><time>2026-04-26T10:21:28Z</time></trkpt><trkpt lat="45.567967912983335" lon="10.84791855156092"><ele>471.75</ele><time>2026-04-26T10:21:29Z</time></trkpt><trkpt lat="45.56800535950973" lon="10.848133343406413"><ele>476.5</ele><time>2026-04-26T10:21:30Z</time></trkpt><trkpt lat="45.568061630080344" lon="10.848322672573527"><ele>481.25</ele><time>2026-04-26T10:21:31Z</time></trkpt><trkpt lat="45.56811589561533" lon="10.848492931456542"><ele>486.0</ele><time>2026-04-26T10:21:32Z</time></trkpt><trkpt lat="45.568162454310205" lon="10.848630410118874"><ele>486.5</ele><time>2026-04-26T10:21:33Z</time></trkpt><trkpt lat="45.568205822614686" lon="10.848730970031072"><ele>487.0</ele><time>2026-04-26T10:21:34Z</time></trkpt><trkpt lat="45.56825078120375" lon="10.84886951230191"><ele>487.5</ele><time>2026-04-26T10:21:36Z</time></trkpt><trkpt lat="45.56823074153556" lon="10.848961906130553"><ele>488.0</ele><time>2026-04-26T10:21:38Z</time></trkpt><trkpt lat="45.56815912447696" lon="10.848985667418834"><ele>488.5</ele><time>2026-04-26T10:21:40Z</time></trkpt><trkpt lat="45.56808216821323" lon="10.848935920275043"><ele>489.0</ele><time>2026-04-26T10:21:41Z</time></trkpt><trkpt lat="45.568047372810426" lon="10.848805410390872"><ele>489.0</ele><time>2026-04-26T10:21:42Z</time></trkpt><trkpt lat="45.56798779039172" lon="10.848695916087902"><ele>489.0</ele><time>2026-04-26T10:21:43Z</time></trkpt><trkpt lat="45.56790633119944" lon="10.848555954361501"><ele>489.0</ele><time>2026-04-26T10:21:44Z</time></trkpt><trkpt lat="45.5678235997233" lon="10.848452707071642"><ele>489.0</ele><time>2026-04-26T10:21:45Z</time></trkpt><trkpt lat="45.567749168566934" lon="10.848359543571146"><ele>489.0</ele><time>2026-04-26T10:21:46Z</time></trkpt><trkpt lat="45.56764945753341" lon="10.848327192393143"><ele>488.5</ele><time>2026-04-26T10:21:47Z</time></trkpt><trkpt lat="45.56753066720966" lon="10.848324652512352"><ele>488.0</ele><time>2026-04-26T10:21:48Z</time></trkpt><trkpt lat="45.56738007533678" lon="10.848349327310427"><ele>487.5</ele><time>2026-04-26T10:21:49Z</time></trkpt><trkpt lat="45.56721185815643" lon="10.848347675335607"><ele>487.0</ele><time>2026-04-26T10:21:50Z</time></trkpt><trkpt lat="45.5670225945056" lon="10.848374503029644"><ele>487.0</ele><time>2026-04-26T10:21:51Z</time></trkpt><trkpt lat="45.56689445373632" lon="10.848456490468825"><ele>487.0</ele><time>2026-04-26T10:21:52Z</time></trkpt><trkpt lat="45.566707719805706" lon="10.848527852054424"><ele>487.0</ele><time>2026-04-26T10:21:53Z</time></trkpt><trkpt lat="45.566552872434315" lon="10.848592371808504"><ele>490.25</ele><time>2026-04-26T10:21:54Z</time></trkpt><trkpt lat="45.56641313968379" lon="10.84864050812163"><ele>493.5</ele><time>2026-04-26T10:21:55Z</time></trkpt><trkpt lat="45.56629248976759" lon="10.848662814421804"><ele>496.75</ele><time>2026-04-26T10:21:56Z</time></trkpt><trkpt lat="45.566178114000394" lon="10.848663504309913"><ele>500.0</ele><time>2026-04-26T10:21:57Z</time></trkpt><trkpt lat="45.56607606483528" lon="10.848651392751048"><ele>500.6</ele><time>2026-04-26T10:21:58Z</time></trkpt><trkpt lat="45.56597662052904" lon="10.848638429656424"><ele>501.2</ele><time>2026-04-26T10:21:59Z</time></trkpt><trkpt lat="45.56585629860384" lon="10.848620055376415"><ele>501.79999999999995</ele><time>2026-04-26T10:22:00Z</time></trkpt><trkpt lat="45.56573944882758" lon="10.84862616087719"><ele>502.4</ele><time>2026-04-26T10:22:01Z</time></trkpt><trkpt lat="45.56563851894588" lon="10.848599823321013"><ele>503.0</ele><time>2026-04-26T10:22:02Z</time></trkpt><trkpt lat="45.56553075466226" lon="10.848591939279652"><ele>503.0</ele><time>2026-04-26T10:22:03Z</time></trkpt><trkpt lat="45.56541886586229" lon="10.848638763163725"><ele>503.0</ele><time>2026-04-26T10:22:04Z</time></trkpt><trkpt lat="45.5653347388214" lon="10.848733544921181"><ele>503.0</ele><time>2026-04-26T10:22:05Z</time></trkpt><trkpt lat="45.56528236889843" lon="10.848861086682701"><ele>503.0</ele><time>2026-04-26T10:22:06Z</time></trkpt><trkpt lat="45.56522667543595" lon="10.849030615833822"><ele>503.0</ele><time>2026-04-26T10:22:07Z</time></trkpt><trkpt lat="45.56516684293577" lon="10.84913262785905"><ele>502.99999999999994</ele><time>2026-04-26T10:22:08Z</time></trkpt><trkpt lat="45.565076005151475" lon="10.84913023644127"><ele>502.99999999999994</ele><time>2026-04-26T10:22:09Z</time></trkpt><trkpt lat="45.56497555982922" lon="10.849194594493353"><ele>503.0</ele><time>2026-04-26T10:22:10Z</time></trkpt><trkpt lat="45.56483624737687" lon="10.849246526798103"><ele>503.0</ele><time>2026-04-26T10:22:11Z</time></trkpt><trkpt lat="45.564675440314865" lon="10.849248783884883"><ele>505.0</ele><time>2026-04-26T10:22:12Z</time></trkpt><trkpt lat="45.56450391864249" lon="10.849263188687964"><ele>507.0</ele><time>2026-04-26T10:22:13Z</time></trkpt><trkpt lat="45.56433958045944" lon="10.84926976564674"><ele>509.0</ele><time>2026-04-26T10:22:14Z</time></trkpt><trkpt lat="45.56418719528796" lon="10.84926550041076"><ele>509.0</ele><time>2026-04-26T10:22:15Z</time></trkpt><trkpt lat="45.56405762017557" lon="10.849251254990955"><ele>509.0</ele><time>2026-04-26T10:22:16Z</time></trkpt><trkpt lat="45.56393338992183" lon="10.84924700931865"><ele>509.0</ele><time>2026-04-26T10:22:17Z</time></trkpt><trkpt lat="45.56382405061884" lon="10.84924270804009"><ele>509.0</ele><time>2026-04-26T10:22:18Z</time></trkpt><trkpt lat="45.56374193813061" lon="10.849251215268007"><ele>509.0</ele><time>2026-04-26T10:22:19Z</time></trkpt><trkpt lat="45.56364992570313" lon="10.8492504556973"><ele>508.79999999999995</ele><time>2026-04-26T10:22:21Z</time></trkpt><trkpt lat="45.563574475969354" lon="10.849076984944034"><ele>508.59999999999997</ele><time>2026-04-26T10:22:43Z</time></trkpt><trkpt lat="45.563466890785065" lon="10.848984150099582"><ele>508.4</ele><time>2026-04-26T10:22:45Z</time></trkpt><trkpt lat="45.56339103420333" lon="10.848974385261986"><ele>508.2</ele><time>2026-04-26T10:22:46Z</time></trkpt><trkpt lat="45.563310906069105" lon="10.849003305016042"><ele>508.0</ele><time>2026-04-26T10:22:47Z</time></trkpt><trkpt lat="45.563230180763235" lon="10.849035020809122"><ele>508.0</ele><time>2026-04-26T10:22:48Z</time></trkpt><trkpt lat="45.56313429111223" lon="10.849055352161656"><ele>507.99999999999994</ele><time>2026-04-26T10:22:49Z</time></trkpt><trkpt lat="45.56303804500967" lon="10.849093559491157"><ele>507.99999999999994</ele><time>2026-04-26T10:22:50Z</time></trkpt><trkpt lat="45.56293995224244" lon="10.849135845693306"><ele>508.0</ele><time>2026-04-26T10:22:51Z</time></trkpt><trkpt lat="45.562839538625006" lon="10.849182553192204"><ele>508.0</ele><time>2026-04-26T10:22:52Z</time></trkpt><trkpt lat="45.56274242317653" lon="10.849220641689806"><ele>506.4</ele><time>2026-04-26T10:22:53Z</time></trkpt><trkpt lat="45.56264245817851" lon="10.849255667683014"><ele>504.79999999999995</ele><time>2026-04-26T10:22:54Z</time></trkpt><trkpt lat="45.562538967465315" lon="10.849277620206278"><ele>503.2</ele><time>2026-04-26T10:22:55Z</time></trkpt><trkpt lat="45.562425726268366" lon="10.84927565053989"><ele>501.6</ele><time>2026-04-26T10:22:56Z</time></trkpt><trkpt lat="45.56231100423665" lon="10.849263690535402"><ele>500.0</ele><time>2026-04-26T10:22:57Z</time></trkpt><trkpt lat="45.56220164754949" lon="10.849252400701504"><ele>500.0</ele><time>2026-04-26T10:22:58Z</time></trkpt><trkpt lat="45.56209690564431" lon="10.84927527072119"><ele>500.0</ele><time>2026-04-26T10:22:59Z</time></trkpt><trkpt lat="45.5619884340537" lon="10.84934114677995"><ele>500.0</ele><time>2026-04-26T10:23:00Z</time></trkpt><trkpt lat="45.56190101097863" lon="10.849464839232581"><ele>500.0</ele><time>2026-04-26T10:23:01Z</time></trkpt><trkpt lat="45.561824072351236" lon="10.849635730021213"><ele>499.0</ele><time>2026-04-26T10:23:02Z</time></trkpt><trkpt lat="45.561771501922884" lon="10.849828584034746"><ele>498.0</ele><time>2026-04-26T10:23:03Z</time></trkpt><trkpt lat="45.56173858044805" lon="10.84999910257658"><ele>497.0</ele><time>2026-04-26T10:23:04Z</time></trkpt><trkpt lat="45.56169431492842" lon="10.850169846348278"><ele>496.0</ele><time>2026-04-26T10:23:05Z</time></trkpt><trkpt lat="45.56165123875013" lon="10.850350773274064"><ele>496.0</ele><time>2026-04-26T10:23:06Z</time></trkpt><trkpt lat="45.56160436518116" lon="10.850534806589417"><ele>496.0</ele><time>2026-04-26T10:23:07Z</time></trkpt><trkpt lat="45.56156459450219" lon="10.850705257080106"><ele>496.0</ele><time>2026-04-26T10:23:08Z</time></trkpt><trkpt lat="45.56152452820938" lon="10.850867216381298"><ele>496.0</ele><time>2026-04-26T10:23:09Z</time></trkpt><trkpt lat="45.56149477898009" lon="10.851012608329398"><ele>497.0</ele><time>2026-04-26T10:23:10Z</time></trkpt><trkpt lat="45.56145935722252" lon="10.851148542522179"><ele>498.0</ele><time>2026-04-26T10:23:11Z</time></trkpt><trkpt lat="45.561402927549786" lon="10.85126841943519"><ele>499.0</ele><time>2026-04-26T10:23:12Z</time></trkpt><trkpt lat="45.5613091756458" lon="10.851353170499898"><ele>500.0</ele><time>2026-04-26T10:23:13Z</time></trkpt><trkpt lat="45.56117768913676" lon="10.851405088790957"><ele>496.75</ele><time>2026-04-26T10:23:14Z</time></trkpt><trkpt lat="45.561035292060396" lon="10.851421879634975"><ele>493.5</ele><time>2026-04-26T10:23:15Z</time></trkpt><trkpt lat="45.56090227345008" lon="10.851407486022229"><ele>490.25</ele><time>2026-04-26T10:23:16Z</time></trkpt><trkpt lat="45.560788715711084" lon="10.851342083789673"><ele>487.0</ele><time>2026-04-26T10:23:17Z</time></trkpt><trkpt lat="45.56071811691386" lon="10.851215971043922"><ele>487.0</ele><time>2026-04-26T10:23:18Z</time></trkpt><trkpt lat="45.56068119197813" lon="10.851072354511617"><ele>487.0</ele><time>2026-04-26T10:23:19Z</time></trkpt><trkpt lat="45.56064575442089" lon="10.850903398464173"><ele>487.0</ele><time>2026-04-26T10:23:20Z</time></trkpt><trkpt lat="45.5606146477683" lon="10.850736001476198"><ele>487.0</ele><time>2026-04-26T10:23:21Z</time></trkpt><trkpt lat="45.56060210114097" lon="10.850586550828755"><ele>485.83333333333337</ele><time>2026-04-26T10:23:22Z</time></trkpt><trkpt lat="45.560597252012435" lon="10.850473175980108"><ele>484.6666666666667</ele><time>2026-04-26T10:23:24Z</time></trkpt><trkpt lat="45.560614259360854" lon="10.85037491626377"><ele>483.5</ele><time>2026-04-26T10:23:28Z</time></trkpt><trkpt lat="45.560612058495316" lon="10.850272670611128"><ele>482.33333333333337</ele><time>2026-04-26T10:23:36Z</time></trkpt><trkpt lat="45.56061170083726" lon="10.850160757900346"><ele>481.1666666666667</ele><time>2026-04-26T10:23:38Z</time></trkpt><trkpt lat="45.56061830604773" lon="10.850048478262739"><ele>480.0</ele><time>2026-04-26T10:23:41Z</time></trkpt><trkpt lat="45.560640599402255" lon="10.849914377918562"><ele>479.1666666666667</ele><time>2026-04-26T10:23:43Z</time></trkpt><trkpt lat="45.56066367521721" lon="10.849777861527132"><ele>478.33333333333337</ele><time>2026-04-26T10:23:45Z</time></trkpt><trkpt lat="45.56067649264247" lon="10.84965458379292"><ele>477.5</ele><time>2026-04-26T10:23:47Z</time></trkpt><trkpt lat="45.56067736657461" lon="10.849542258281343"><ele>476.6666666666667</ele><time>2026-04-26T10:23:49Z</time></trkpt><trkpt lat="45.56068437809609" lon="10.84938088164288"><ele>475.83333333333337</ele><time>2026-04-26T10:23:51Z</time></trkpt><trkpt lat="45.56067715643387" lon="10.849287496931298"><ele>475.0</ele><time>2026-04-26T10:23:52Z</time></trkpt><trkpt lat="45.56068048144801" lon="10.849179975000222"><ele>475.00000000000006</ele><time>2026-04-26T10:23:53Z</time></trkpt><trkpt lat="45.56068825766119" lon="10.84908320449153"><ele>475.0</ele><time>2026-04-26T10:23:54Z</time></trkpt><trkpt lat="45.56068420689574" lon="10.848969152118366"><ele>475.0</ele><time>2026-04-26T10:23:55Z</time></trkpt><trkpt lat="45.56068098577099" lon="10.848855902811035"><ele>475.0</ele><time>2026-04-26T10:23:56Z</time></trkpt><trkpt lat="45.560660344492824" lon="10.848751036583442"><ele>475.00000000000006</ele><time>2026-04-26T10:23:57Z</time></trkpt><trkpt lat="45.56065427233075" lon="10.84863904190581"><ele>475.0</ele><time>2026-04-26T10:23:58Z</time></trkpt><trkpt lat="45.560648489323654" lon="10.848518078604117"><ele>474.6666666666667</ele><time>2026-04-26T10:23:59Z</time></trkpt><trkpt lat="45.56064062129246" lon="10.848406477864446"><ele>474.33333333333337</ele><time>2026-04-26T10:24:00Z</time></trkpt><trkpt lat="45.56063629840949" lon="10.848292863813906"><ele>474.0</ele><time>2026-04-26T10:24:01Z</time></trkpt><trkpt lat="45.56062819202534" lon="10.848176307242623"><ele>473.66666666666663</ele><time>2026-04-26T10:24:02Z</time></trkpt><trkpt lat="45.56062644672491" lon="10.848055047550293"><ele>473.3333333333333</ele><time>2026-04-26T10:24:03Z</time></trkpt><trkpt lat="45.5606231545845" lon="10.847941044698727"><ele>473.0</ele><time>2026-04-26T10:24:04Z</time></trkpt><trkpt lat="45.56062411669823" lon="10.847818014434111"><ele>472.99999999999994</ele><time>2026-04-26T10:24:05Z</time></trkpt><trkpt lat="45.560626689545614" lon="10.8476987383936"><ele>473.0</ele><time>2026-04-26T10:24:06Z</time></trkpt><trkpt lat="45.56062418382545" lon="10.847577731085075"><ele>473.0</ele><time>2026-04-26T10:24:07Z</time></trkpt><trkpt lat="45.56062447338933" lon="10.847447303519322"><ele>473.0</ele><time>2026-04-26T10:24:08Z</time></trkpt><trkpt lat="45.56062546483551" lon="10.84731836075237"><ele>472.99999999999994</ele><time>2026-04-26T10:24:09Z</time></trkpt><trkpt lat="45.56063539847028" lon="10.847180798925603"><ele>473.0</ele><time>2026-04-26T10:24:10Z</time></trkpt><trkpt lat="45.560651653496336" lon="10.847040118855185"><ele>472.0</ele><time>2026-04-26T10:24:11Z</time></trkpt><trkpt lat="45.56067270891452" lon="10.846900471368894"><ele>470.99999999999994</ele><time>2026-04-26T10:24:12Z</time></trkpt><trkpt lat="45.5606961744243" lon="10.846754249292191"><ele>469.99999999999994</ele><time>2026-04-26T10:24:13Z</time></trkpt><trkpt lat="45.56072245592825" lon="10.846606564461798"><ele>469.0</ele><time>2026-04-26T10:24:14Z</time></trkpt><trkpt lat="45.56075398384" lon="10.846468009337654"><ele>468.0</ele><time>2026-04-26T10:24:15Z</time></trkpt><trkpt lat="45.56079182144907" lon="10.846329904321653"><ele>467.0</ele><time>2026-04-26T10:24:16Z</time></trkpt><trkpt lat="45.56083462583177" lon="10.846197499778805"><ele>465.99999999999994</ele><time>2026-04-26T10:24:17Z</time></trkpt><trkpt lat="45.56088645222894" lon="10.84608190226116"><ele>464.99999999999994</ele><time>2026-04-26T10:24:18Z</time></trkpt><trkpt lat="45.560947815843186" lon="10.845972630447351"><ele>464.0</ele><time>2026-04-26T10:24:19Z</time></trkpt><trkpt lat="45.56101124906909" lon="10.845881804744602"><ele>463.0</ele><time>2026-04-26T10:24:20Z</time></trkpt><trkpt lat="45.561086189043266" lon="10.845808592278697"><ele>461.4</ele><time>2026-04-26T10:24:21Z</time></trkpt><trkpt lat="45.561141930296095" lon="10.845717787010024"><ele>459.79999999999995</ele><time>2026-04-26T10:24:22Z</time></trkpt><trkpt lat="45.56116040783529" lon="10.845583918490854"><ele>458.2</ele><time>2026-04-26T10:24:24Z</time></trkpt><trkpt lat="45.56111239044701" lon="10.845518415618256"><ele>456.6</ele><time>2026-04-26T10:24:28Z</time></trkpt><trkpt lat="45.56100627451984" lon="10.84547522940541"><ele>455.0</ele><time>2026-04-26T10:25:16Z</time></trkpt><trkpt lat="45.56090888698052" lon="10.845469866589712"><ele>455.0</ele><time>2026-04-26T10:25:17Z</time></trkpt><trkpt lat="45.56080252240955" lon="10.845489018956835"><ele>455.0</ele><time>2026-04-26T10:25:18Z</time></trkpt><trkpt lat="45.56070578541872" lon="10.845528585845774"><ele>455.0</ele><time>2026-04-26T10:25:19Z</time></trkpt><trkpt lat="45.5606018410094" lon="10.8455488216342"><ele>455.0</ele><time>2026-04-26T10:25:20Z</time></trkpt><trkpt lat="45.560485138296556" lon="10.84557072867538"><ele>455.0</ele><time>2026-04-26T10:25:21Z</time></trkpt><trkpt lat="45.56037677425587" lon="10.845607599426891"><ele>452.4</ele><time>2026-04-26T10:25:22Z</time></trkpt><trkpt lat="45.560270393254584" lon="10.845634600587195"><ele>449.8</ele><time>2026-04-26T10:25:23Z</time></trkpt><trkpt lat="45.56016068299899" lon="10.845670325429216"><ele>447.20000000000005</ele><time>2026-04-26T10:25:24Z</time></trkpt><trkpt lat="45.560060626257595" lon="10.84571692519193"><ele>444.6</ele><time>2026-04-26T10:25:25Z</time></trkpt><trkpt lat="45.55997694846027" lon="10.845786485378063"><ele>442.0</ele><time>2026-04-26T10:25:26Z</time></trkpt><trkpt lat="45.559900719052926" lon="10.845869660558462"><ele>442.0</ele><time>2026-04-26T10:25:27Z</time></trkpt><trkpt lat="45.559825497283335" lon="10.845970701139477"><ele>449.0</ele><time>2026-04-26T10:25:28Z</time></trkpt><trkpt lat="45.559748934785596" lon="10.846086915791716"><ele>449.0</ele><time>2026-04-26T10:25:29Z</time></trkpt><trkpt lat="45.559678750785366" lon="10.846223316265926"><ele>449.0</ele><time>2026-04-26T10:25:30Z</time></trkpt></trkseg></trk></gpx>